<?xml version="1.0" encoding="UTF-8" standalone="no" ?>
<gpx xmlns="http://www.topografix.com/GPX/1/1" xmlns:xsi="http://www.w3.org/2001/XMLSchema-instance" xsi:schemaLocation="http://www.topografix.com/GPX/1/1 http://www.topografix.com/GPX/1/1/gpx.xsd" version="1.1" creator="VisuGPX - https://www.visugpx.com">
  <metadata>
    <name>Le tourroc ou Mont Sacon (1541 m) 27fevrier2021</name>
    <desc><![CDATA[Trace AlpineQuest 27/02/2021 9:06:34 AM]]></desc>
  </metadata>
  <trk>
    <name><![CDATA[Le tourroc ou Mont Sacon (1541 m) 27fevrier2021_1]]></name>
    <trkseg>
      <trkpt lat="42.98763" lon="0.56388">
        <ele>584.412</ele>
        <time>2021-02-27T08:06:34Z</time>
      </trkpt>
      <trkpt lat="42.98762" lon="0.56387">
        <ele>586.425</ele>
        <time>2021-02-27T08:06:35Z</time>
      </trkpt>
      <trkpt lat="42.98766" lon="0.56391">
        <ele>592.98</ele>
        <time>2021-02-27T08:06:37Z</time>
      </trkpt>
      <trkpt lat="42.98771" lon="0.56392">
        <ele>598.586</ele>
        <time>2021-02-27T08:06:39Z</time>
      </trkpt>
      <trkpt lat="42.98773" lon="0.56394">
        <ele>604.736</ele>
        <time>2021-02-27T08:06:41Z</time>
      </trkpt>
      <trkpt lat="42.98773" lon="0.56394">
        <ele>606.512</ele>
        <time>2021-02-27T08:06:43Z</time>
      </trkpt>
      <trkpt lat="42.98774" lon="0.56394">
        <ele>607.198</ele>
        <time>2021-02-27T08:06:45Z</time>
      </trkpt>
      <trkpt lat="42.98775" lon="0.56394">
        <ele>607.92</ele>
        <time>2021-02-27T08:06:47Z</time>
      </trkpt>
      <trkpt lat="42.98775" lon="0.56394">
        <ele>608.849</ele>
        <time>2021-02-27T08:06:49Z</time>
      </trkpt>
      <trkpt lat="42.98776" lon="0.56394">
        <ele>608.655</ele>
        <time>2021-02-27T08:06:51Z</time>
      </trkpt>
      <trkpt lat="42.98776" lon="0.56394">
        <ele>608.814</ele>
        <time>2021-02-27T08:06:53Z</time>
      </trkpt>
      <trkpt lat="42.98776" lon="0.56394">
        <ele>608.859</ele>
        <time>2021-02-27T08:06:55Z</time>
      </trkpt>
      <trkpt lat="42.98776" lon="0.56394">
        <ele>608.893</ele>
        <time>2021-02-27T08:06:57Z</time>
      </trkpt>
      <trkpt lat="42.98776" lon="0.56394">
        <ele>608.889</ele>
        <time>2021-02-27T08:06:59Z</time>
      </trkpt>
      <trkpt lat="42.98776" lon="0.56394">
        <ele>608.876</ele>
        <time>2021-02-27T08:07:01Z</time>
      </trkpt>
      <trkpt lat="42.98776" lon="0.56393">
        <ele>608.472</ele>
        <time>2021-02-27T08:07:03Z</time>
      </trkpt>
      <trkpt lat="42.98775" lon="0.56391">
        <ele>606.771</ele>
        <time>2021-02-27T08:07:05Z</time>
      </trkpt>
      <trkpt lat="42.98775" lon="0.56391">
        <ele>605.441</ele>
        <time>2021-02-27T08:07:07Z</time>
      </trkpt>
      <trkpt lat="42.98774" lon="0.56391">
        <ele>604.728</ele>
        <time>2021-02-27T08:07:09Z</time>
      </trkpt>
      <trkpt lat="42.98774" lon="0.56393">
        <ele>605.255</ele>
        <time>2021-02-27T08:07:11Z</time>
      </trkpt>
      <trkpt lat="42.98774" lon="0.56394">
        <ele>604.897</ele>
        <time>2021-02-27T08:07:13Z</time>
      </trkpt>
      <trkpt lat="42.98773" lon="0.56394">
        <ele>604.415</ele>
        <time>2021-02-27T08:07:15Z</time>
      </trkpt>
      <trkpt lat="42.98772" lon="0.56392">
        <ele>602.729</ele>
        <time>2021-02-27T08:07:17Z</time>
      </trkpt>
      <trkpt lat="42.98771" lon="0.5639">
        <ele>604.423</ele>
        <time>2021-02-27T08:07:19Z</time>
      </trkpt>
      <trkpt lat="42.98769" lon="0.56388">
        <ele>603.656</ele>
        <time>2021-02-27T08:07:21Z</time>
      </trkpt>
      <trkpt lat="42.98768" lon="0.56386">
        <ele>601.799</ele>
        <time>2021-02-27T08:07:23Z</time>
      </trkpt>
      <trkpt lat="42.98766" lon="0.56384">
        <ele>601.167</ele>
        <time>2021-02-27T08:07:25Z</time>
      </trkpt>
      <trkpt lat="42.98764" lon="0.56382">
        <ele>600.153</ele>
        <time>2021-02-27T08:07:27Z</time>
      </trkpt>
      <trkpt lat="42.98763" lon="0.56379">
        <ele>599.31</ele>
        <time>2021-02-27T08:07:29Z</time>
      </trkpt>
      <trkpt lat="42.98762" lon="0.56377">
        <ele>599.775</ele>
        <time>2021-02-27T08:07:31Z</time>
      </trkpt>
      <trkpt lat="42.9876" lon="0.56375">
        <ele>600.61</ele>
        <time>2021-02-27T08:07:33Z</time>
      </trkpt>
      <trkpt lat="42.98758" lon="0.56373">
        <ele>601.984</ele>
        <time>2021-02-27T08:07:35Z</time>
      </trkpt>
      <trkpt lat="42.98755" lon="0.56371">
        <ele>601.992</ele>
        <time>2021-02-27T08:07:37Z</time>
      </trkpt>
      <trkpt lat="42.98754" lon="0.5637">
        <ele>601.952</ele>
        <time>2021-02-27T08:07:39Z</time>
      </trkpt>
      <trkpt lat="42.98752" lon="0.56367">
        <ele>602.606</ele>
        <time>2021-02-27T08:07:41Z</time>
      </trkpt>
      <trkpt lat="42.9875" lon="0.56365">
        <ele>603.241</ele>
        <time>2021-02-27T08:07:43Z</time>
      </trkpt>
      <trkpt lat="42.98748" lon="0.56363">
        <ele>602.618</ele>
        <time>2021-02-27T08:07:45Z</time>
      </trkpt>
      <trkpt lat="42.98746" lon="0.56361">
        <ele>602.378</ele>
        <time>2021-02-27T08:07:47Z</time>
      </trkpt>
      <trkpt lat="42.98744" lon="0.56359">
        <ele>602.386</ele>
        <time>2021-02-27T08:07:49Z</time>
      </trkpt>
      <trkpt lat="42.98742" lon="0.56357">
        <ele>603.909</ele>
        <time>2021-02-27T08:07:51Z</time>
      </trkpt>
      <trkpt lat="42.9874" lon="0.56355">
        <ele>604.431</ele>
        <time>2021-02-27T08:07:53Z</time>
      </trkpt>
      <trkpt lat="42.98738" lon="0.56351">
        <ele>605.48</ele>
        <time>2021-02-27T08:07:55Z</time>
      </trkpt>
      <trkpt lat="42.98737" lon="0.56348">
        <ele>606.622</ele>
        <time>2021-02-27T08:07:57Z</time>
      </trkpt>
      <trkpt lat="42.98735" lon="0.56345">
        <ele>606.169</ele>
        <time>2021-02-27T08:07:59Z</time>
      </trkpt>
      <trkpt lat="42.98733" lon="0.56343">
        <ele>605.239</ele>
        <time>2021-02-27T08:08:01Z</time>
      </trkpt>
      <trkpt lat="42.98731" lon="0.5634">
        <ele>605.069</ele>
        <time>2021-02-27T08:08:03Z</time>
      </trkpt>
      <trkpt lat="42.9873" lon="0.56338">
        <ele>604.282</ele>
        <time>2021-02-27T08:08:05Z</time>
      </trkpt>
      <trkpt lat="42.98728" lon="0.56335">
        <ele>603.897</ele>
        <time>2021-02-27T08:08:07Z</time>
      </trkpt>
      <trkpt lat="42.98727" lon="0.56332">
        <ele>604.129</ele>
        <time>2021-02-27T08:08:09Z</time>
      </trkpt>
      <trkpt lat="42.98725" lon="0.56328">
        <ele>604.461</ele>
        <time>2021-02-27T08:08:11Z</time>
      </trkpt>
      <trkpt lat="42.98724" lon="0.56325">
        <ele>604.237</ele>
        <time>2021-02-27T08:08:13Z</time>
      </trkpt>
      <trkpt lat="42.98723" lon="0.56322">
        <ele>604.045</ele>
        <time>2021-02-27T08:08:15Z</time>
      </trkpt>
      <trkpt lat="42.98721" lon="0.56319">
        <ele>602.802</ele>
        <time>2021-02-27T08:08:17Z</time>
      </trkpt>
      <trkpt lat="42.98719" lon="0.56317">
        <ele>602.251</ele>
        <time>2021-02-27T08:08:19Z</time>
      </trkpt>
      <trkpt lat="42.98717" lon="0.56315">
        <ele>601.303</ele>
        <time>2021-02-27T08:08:21Z</time>
      </trkpt>
      <trkpt lat="42.98715" lon="0.56314">
        <ele>599.77</ele>
        <time>2021-02-27T08:08:23Z</time>
      </trkpt>
      <trkpt lat="42.98713" lon="0.56313">
        <ele>599.765</ele>
        <time>2021-02-27T08:08:25Z</time>
      </trkpt>
      <trkpt lat="42.98712" lon="0.56312">
        <ele>600.207</ele>
        <time>2021-02-27T08:08:26Z</time>
      </trkpt>
      <trkpt lat="42.98707" lon="0.56309">
        <ele>598.985</ele>
        <time>2021-02-27T08:08:30Z</time>
      </trkpt>
      <trkpt lat="42.98704" lon="0.56308">
        <ele>598.576</ele>
        <time>2021-02-27T08:08:32Z</time>
      </trkpt>
      <trkpt lat="42.98702" lon="0.56307">
        <ele>598.876</ele>
        <time>2021-02-27T08:08:34Z</time>
      </trkpt>
      <trkpt lat="42.98699" lon="0.56306">
        <ele>598.03</ele>
        <time>2021-02-27T08:08:36Z</time>
      </trkpt>
      <trkpt lat="42.98697" lon="0.56305">
        <ele>598.112</ele>
        <time>2021-02-27T08:08:38Z</time>
      </trkpt>
      <trkpt lat="42.98695" lon="0.56303">
        <ele>599.423</ele>
        <time>2021-02-27T08:08:40Z</time>
      </trkpt>
      <trkpt lat="42.98693" lon="0.56302">
        <ele>599.186</ele>
        <time>2021-02-27T08:08:42Z</time>
      </trkpt>
      <trkpt lat="42.98691" lon="0.56302">
        <ele>599.216</ele>
        <time>2021-02-27T08:08:44Z</time>
      </trkpt>
      <trkpt lat="42.98689" lon="0.56301">
        <ele>598.609</ele>
        <time>2021-02-27T08:08:46Z</time>
      </trkpt>
      <trkpt lat="42.98687" lon="0.56301">
        <ele>598.436</ele>
        <time>2021-02-27T08:08:48Z</time>
      </trkpt>
      <trkpt lat="42.98685" lon="0.56302">
        <ele>597.987</ele>
        <time>2021-02-27T08:08:50Z</time>
      </trkpt>
      <trkpt lat="42.98683" lon="0.56302">
        <ele>598.377</ele>
        <time>2021-02-27T08:08:52Z</time>
      </trkpt>
      <trkpt lat="42.9868" lon="0.56303">
        <ele>598.801</ele>
        <time>2021-02-27T08:08:54Z</time>
      </trkpt>
      <trkpt lat="42.98678" lon="0.56304">
        <ele>599.145</ele>
        <time>2021-02-27T08:08:56Z</time>
      </trkpt>
      <trkpt lat="42.98676" lon="0.56305">
        <ele>598.82</ele>
        <time>2021-02-27T08:08:58Z</time>
      </trkpt>
      <trkpt lat="42.98673" lon="0.56305">
        <ele>599.731</ele>
        <time>2021-02-27T08:09:00Z</time>
      </trkpt>
      <trkpt lat="42.98671" lon="0.56305">
        <ele>599.216</ele>
        <time>2021-02-27T08:09:02Z</time>
      </trkpt>
      <trkpt lat="42.98669" lon="0.56305">
        <ele>598.353</ele>
        <time>2021-02-27T08:09:04Z</time>
      </trkpt>
      <trkpt lat="42.98667" lon="0.56305">
        <ele>598.604</ele>
        <time>2021-02-27T08:09:06Z</time>
      </trkpt>
      <trkpt lat="42.98665" lon="0.56306">
        <ele>598.424</ele>
        <time>2021-02-27T08:09:08Z</time>
      </trkpt>
      <trkpt lat="42.98662" lon="0.56306">
        <ele>597.542</ele>
        <time>2021-02-27T08:09:10Z</time>
      </trkpt>
      <trkpt lat="42.9866" lon="0.56306">
        <ele>598.062</ele>
        <time>2021-02-27T08:09:12Z</time>
      </trkpt>
      <trkpt lat="42.98658" lon="0.56306">
        <ele>598.952</ele>
        <time>2021-02-27T08:09:14Z</time>
      </trkpt>
      <trkpt lat="42.98655" lon="0.56308">
        <ele>598.415</ele>
        <time>2021-02-27T08:09:16Z</time>
      </trkpt>
      <trkpt lat="42.98653" lon="0.56307">
        <ele>600.652</ele>
        <time>2021-02-27T08:09:18Z</time>
      </trkpt>
      <trkpt lat="42.98651" lon="0.56306">
        <ele>600.555</ele>
        <time>2021-02-27T08:09:20Z</time>
      </trkpt>
      <trkpt lat="42.98649" lon="0.56306">
        <ele>600.321</ele>
        <time>2021-02-27T08:09:22Z</time>
      </trkpt>
      <trkpt lat="42.98647" lon="0.56305">
        <ele>600.255</ele>
        <time>2021-02-27T08:09:24Z</time>
      </trkpt>
      <trkpt lat="42.98644" lon="0.56305">
        <ele>600.415</ele>
        <time>2021-02-27T08:09:26Z</time>
      </trkpt>
      <trkpt lat="42.98642" lon="0.56305">
        <ele>601.077</ele>
        <time>2021-02-27T08:09:28Z</time>
      </trkpt>
      <trkpt lat="42.9864" lon="0.56304">
        <ele>601.568</ele>
        <time>2021-02-27T08:09:30Z</time>
      </trkpt>
      <trkpt lat="42.98638" lon="0.56303">
        <ele>601.678</ele>
        <time>2021-02-27T08:09:32Z</time>
      </trkpt>
      <trkpt lat="42.98636" lon="0.56302">
        <ele>601.774</ele>
        <time>2021-02-27T08:09:34Z</time>
      </trkpt>
      <trkpt lat="42.98633" lon="0.56301">
        <ele>601.936</ele>
        <time>2021-02-27T08:09:36Z</time>
      </trkpt>
      <trkpt lat="42.98631" lon="0.563">
        <ele>602.091</ele>
        <time>2021-02-27T08:09:38Z</time>
      </trkpt>
      <trkpt lat="42.98629" lon="0.56299">
        <ele>602.823</ele>
        <time>2021-02-27T08:09:40Z</time>
      </trkpt>
      <trkpt lat="42.98627" lon="0.56299">
        <ele>604.478</ele>
        <time>2021-02-27T08:09:42Z</time>
      </trkpt>
      <trkpt lat="42.98624" lon="0.56298">
        <ele>604.561</ele>
        <time>2021-02-27T08:09:44Z</time>
      </trkpt>
      <trkpt lat="42.98622" lon="0.56298">
        <ele>603.63</ele>
        <time>2021-02-27T08:09:46Z</time>
      </trkpt>
      <trkpt lat="42.98619" lon="0.56297">
        <ele>602.813</ele>
        <time>2021-02-27T08:09:48Z</time>
      </trkpt>
      <trkpt lat="42.98617" lon="0.56296">
        <ele>603.566</ele>
        <time>2021-02-27T08:09:50Z</time>
      </trkpt>
      <trkpt lat="42.98615" lon="0.56296">
        <ele>603.806</ele>
        <time>2021-02-27T08:09:52Z</time>
      </trkpt>
      <trkpt lat="42.98612" lon="0.56295">
        <ele>603.379</ele>
        <time>2021-02-27T08:09:54Z</time>
      </trkpt>
      <trkpt lat="42.98609" lon="0.56295">
        <ele>603.712</ele>
        <time>2021-02-27T08:09:56Z</time>
      </trkpt>
      <trkpt lat="42.98607" lon="0.56295">
        <ele>603.671</ele>
        <time>2021-02-27T08:09:58Z</time>
      </trkpt>
      <trkpt lat="42.98605" lon="0.56294">
        <ele>603.548</ele>
        <time>2021-02-27T08:10:00Z</time>
      </trkpt>
      <trkpt lat="42.98602" lon="0.56294">
        <ele>604.163</ele>
        <time>2021-02-27T08:10:02Z</time>
      </trkpt>
      <trkpt lat="42.986" lon="0.56294">
        <ele>604.245</ele>
        <time>2021-02-27T08:10:04Z</time>
      </trkpt>
      <trkpt lat="42.98597" lon="0.56293">
        <ele>603.533</ele>
        <time>2021-02-27T08:10:06Z</time>
      </trkpt>
      <trkpt lat="42.98594" lon="0.56292">
        <ele>604.088</ele>
        <time>2021-02-27T08:10:08Z</time>
      </trkpt>
      <trkpt lat="42.98591" lon="0.56292">
        <ele>605.255</ele>
        <time>2021-02-27T08:10:10Z</time>
      </trkpt>
      <trkpt lat="42.98589" lon="0.56292">
        <ele>606.37</ele>
        <time>2021-02-27T08:10:12Z</time>
      </trkpt>
      <trkpt lat="42.98586" lon="0.56291">
        <ele>607.078</ele>
        <time>2021-02-27T08:10:14Z</time>
      </trkpt>
      <trkpt lat="42.98584" lon="0.56291">
        <ele>607.536</ele>
        <time>2021-02-27T08:10:16Z</time>
      </trkpt>
      <trkpt lat="42.98582" lon="0.56291">
        <ele>606.958</ele>
        <time>2021-02-27T08:10:18Z</time>
      </trkpt>
      <trkpt lat="42.9858" lon="0.56292">
        <ele>606.89</ele>
        <time>2021-02-27T08:10:20Z</time>
      </trkpt>
      <trkpt lat="42.98577" lon="0.56292">
        <ele>607.041</ele>
        <time>2021-02-27T08:10:22Z</time>
      </trkpt>
      <trkpt lat="42.98575" lon="0.56294">
        <ele>607.667</ele>
        <time>2021-02-27T08:10:24Z</time>
      </trkpt>
      <trkpt lat="42.98573" lon="0.56294">
        <ele>607.929</ele>
        <time>2021-02-27T08:10:26Z</time>
      </trkpt>
      <trkpt lat="42.9857" lon="0.56295">
        <ele>607.897</ele>
        <time>2021-02-27T08:10:28Z</time>
      </trkpt>
      <trkpt lat="42.98568" lon="0.56296">
        <ele>607.303</ele>
        <time>2021-02-27T08:10:30Z</time>
      </trkpt>
      <trkpt lat="42.98566" lon="0.56297">
        <ele>607.767</ele>
        <time>2021-02-27T08:10:32Z</time>
      </trkpt>
      <trkpt lat="42.98565" lon="0.56298">
        <ele>607.9</ele>
        <time>2021-02-27T08:10:33Z</time>
      </trkpt>
      <trkpt lat="42.98561" lon="0.563">
        <ele>609.281</ele>
        <time>2021-02-27T08:10:36Z</time>
      </trkpt>
      <trkpt lat="42.98559" lon="0.563">
        <ele>609.031</ele>
        <time>2021-02-27T08:10:38Z</time>
      </trkpt>
      <trkpt lat="42.98556" lon="0.56301">
        <ele>608.854</ele>
        <time>2021-02-27T08:10:40Z</time>
      </trkpt>
      <trkpt lat="42.98554" lon="0.56302">
        <ele>608.79</ele>
        <time>2021-02-27T08:10:42Z</time>
      </trkpt>
      <trkpt lat="42.98552" lon="0.56303">
        <ele>607.706</ele>
        <time>2021-02-27T08:10:44Z</time>
      </trkpt>
      <trkpt lat="42.98549" lon="0.56304">
        <ele>607.599</ele>
        <time>2021-02-27T08:10:46Z</time>
      </trkpt>
      <trkpt lat="42.98547" lon="0.56305">
        <ele>608.015</ele>
        <time>2021-02-27T08:10:48Z</time>
      </trkpt>
      <trkpt lat="42.98544" lon="0.56305">
        <ele>608.024</ele>
        <time>2021-02-27T08:10:50Z</time>
      </trkpt>
      <trkpt lat="42.98542" lon="0.56305">
        <ele>608.104</ele>
        <time>2021-02-27T08:10:52Z</time>
      </trkpt>
      <trkpt lat="42.9854" lon="0.56305">
        <ele>606.867</ele>
        <time>2021-02-27T08:10:54Z</time>
      </trkpt>
      <trkpt lat="42.98538" lon="0.56305">
        <ele>606.311</ele>
        <time>2021-02-27T08:10:56Z</time>
      </trkpt>
      <trkpt lat="42.98536" lon="0.56305">
        <ele>606.495</ele>
        <time>2021-02-27T08:10:58Z</time>
      </trkpt>
      <trkpt lat="42.98533" lon="0.56305">
        <ele>605.858</ele>
        <time>2021-02-27T08:11:00Z</time>
      </trkpt>
      <trkpt lat="42.9853" lon="0.56305">
        <ele>604.898</ele>
        <time>2021-02-27T08:11:02Z</time>
      </trkpt>
      <trkpt lat="42.98527" lon="0.56305">
        <ele>605.582</ele>
        <time>2021-02-27T08:11:04Z</time>
      </trkpt>
      <trkpt lat="42.98525" lon="0.56304">
        <ele>606.633</ele>
        <time>2021-02-27T08:11:06Z</time>
      </trkpt>
      <trkpt lat="42.98523" lon="0.56304">
        <ele>605.902</ele>
        <time>2021-02-27T08:11:08Z</time>
      </trkpt>
      <trkpt lat="42.9852" lon="0.56304">
        <ele>605.978</ele>
        <time>2021-02-27T08:11:10Z</time>
      </trkpt>
      <trkpt lat="42.98518" lon="0.56304">
        <ele>605.694</ele>
        <time>2021-02-27T08:11:12Z</time>
      </trkpt>
      <trkpt lat="42.98515" lon="0.56303">
        <ele>605.577</ele>
        <time>2021-02-27T08:11:14Z</time>
      </trkpt>
      <trkpt lat="42.98513" lon="0.56303">
        <ele>605.691</ele>
        <time>2021-02-27T08:11:16Z</time>
      </trkpt>
      <trkpt lat="42.98511" lon="0.56302">
        <ele>606.464</ele>
        <time>2021-02-27T08:11:18Z</time>
      </trkpt>
      <trkpt lat="42.98509" lon="0.56301">
        <ele>607.669</ele>
        <time>2021-02-27T08:11:20Z</time>
      </trkpt>
      <trkpt lat="42.98507" lon="0.563">
        <ele>607.219</ele>
        <time>2021-02-27T08:11:22Z</time>
      </trkpt>
      <trkpt lat="42.98505" lon="0.563">
        <ele>607.886</ele>
        <time>2021-02-27T08:11:24Z</time>
      </trkpt>
      <trkpt lat="42.98503" lon="0.56299">
        <ele>607.903</ele>
        <time>2021-02-27T08:11:26Z</time>
      </trkpt>
      <trkpt lat="42.98501" lon="0.56299">
        <ele>607.688</ele>
        <time>2021-02-27T08:11:28Z</time>
      </trkpt>
      <trkpt lat="42.98498" lon="0.56298">
        <ele>607.831</ele>
        <time>2021-02-27T08:11:30Z</time>
      </trkpt>
      <trkpt lat="42.98496" lon="0.56296">
        <ele>607.645</ele>
        <time>2021-02-27T08:11:32Z</time>
      </trkpt>
      <trkpt lat="42.98493" lon="0.56295">
        <ele>608.013</ele>
        <time>2021-02-27T08:11:34Z</time>
      </trkpt>
      <trkpt lat="42.98491" lon="0.56294">
        <ele>608.359</ele>
        <time>2021-02-27T08:11:36Z</time>
      </trkpt>
      <trkpt lat="42.98488" lon="0.56294">
        <ele>608.86</ele>
        <time>2021-02-27T08:11:38Z</time>
      </trkpt>
      <trkpt lat="42.98486" lon="0.56293">
        <ele>608.917</ele>
        <time>2021-02-27T08:11:40Z</time>
      </trkpt>
      <trkpt lat="42.98483" lon="0.56292">
        <ele>608.991</ele>
        <time>2021-02-27T08:11:42Z</time>
      </trkpt>
      <trkpt lat="42.98481" lon="0.56292">
        <ele>609.134</ele>
        <time>2021-02-27T08:11:44Z</time>
      </trkpt>
      <trkpt lat="42.98479" lon="0.56293">
        <ele>609.299</ele>
        <time>2021-02-27T08:11:46Z</time>
      </trkpt>
      <trkpt lat="42.98476" lon="0.56294">
        <ele>609.358</ele>
        <time>2021-02-27T08:11:48Z</time>
      </trkpt>
      <trkpt lat="42.98473" lon="0.56294">
        <ele>609.794</ele>
        <time>2021-02-27T08:11:50Z</time>
      </trkpt>
      <trkpt lat="42.98471" lon="0.56295">
        <ele>609.361</ele>
        <time>2021-02-27T08:11:52Z</time>
      </trkpt>
      <trkpt lat="42.98469" lon="0.56296">
        <ele>609.489</ele>
        <time>2021-02-27T08:11:54Z</time>
      </trkpt>
      <trkpt lat="42.98467" lon="0.56296">
        <ele>610.524</ele>
        <time>2021-02-27T08:11:56Z</time>
      </trkpt>
      <trkpt lat="42.98464" lon="0.56298">
        <ele>609.979</ele>
        <time>2021-02-27T08:11:58Z</time>
      </trkpt>
      <trkpt lat="42.98462" lon="0.56299">
        <ele>609.288</ele>
        <time>2021-02-27T08:12:00Z</time>
      </trkpt>
      <trkpt lat="42.9846" lon="0.563">
        <ele>609.059</ele>
        <time>2021-02-27T08:12:02Z</time>
      </trkpt>
      <trkpt lat="42.98458" lon="0.56302">
        <ele>608.922</ele>
        <time>2021-02-27T08:12:04Z</time>
      </trkpt>
      <trkpt lat="42.98456" lon="0.56304">
        <ele>609.375</ele>
        <time>2021-02-27T08:12:06Z</time>
      </trkpt>
      <trkpt lat="42.98454" lon="0.56305">
        <ele>608.387</ele>
        <time>2021-02-27T08:12:08Z</time>
      </trkpt>
      <trkpt lat="42.98452" lon="0.56307">
        <ele>608.862</ele>
        <time>2021-02-27T08:12:10Z</time>
      </trkpt>
      <trkpt lat="42.9845" lon="0.56309">
        <ele>608.284</ele>
        <time>2021-02-27T08:12:12Z</time>
      </trkpt>
      <trkpt lat="42.98449" lon="0.56311">
        <ele>608.396</ele>
        <time>2021-02-27T08:12:14Z</time>
      </trkpt>
      <trkpt lat="42.98447" lon="0.56313">
        <ele>608.541</ele>
        <time>2021-02-27T08:12:16Z</time>
      </trkpt>
      <trkpt lat="42.98445" lon="0.56316">
        <ele>609.635</ele>
        <time>2021-02-27T08:12:18Z</time>
      </trkpt>
      <trkpt lat="42.98443" lon="0.56318">
        <ele>610.264</ele>
        <time>2021-02-27T08:12:20Z</time>
      </trkpt>
      <trkpt lat="42.98441" lon="0.5632">
        <ele>612.041</ele>
        <time>2021-02-27T08:12:22Z</time>
      </trkpt>
      <trkpt lat="42.98439" lon="0.56322">
        <ele>612.346</ele>
        <time>2021-02-27T08:12:24Z</time>
      </trkpt>
      <trkpt lat="42.98437" lon="0.56323">
        <ele>613.12</ele>
        <time>2021-02-27T08:12:26Z</time>
      </trkpt>
      <trkpt lat="42.98435" lon="0.56325">
        <ele>613.064</ele>
        <time>2021-02-27T08:12:28Z</time>
      </trkpt>
      <trkpt lat="42.98432" lon="0.56325">
        <ele>613.331</ele>
        <time>2021-02-27T08:12:30Z</time>
      </trkpt>
      <trkpt lat="42.9843" lon="0.56326">
        <ele>614.689</ele>
        <time>2021-02-27T08:12:32Z</time>
      </trkpt>
      <trkpt lat="42.98428" lon="0.56327">
        <ele>615.735</ele>
        <time>2021-02-27T08:12:34Z</time>
      </trkpt>
      <trkpt lat="42.98426" lon="0.56329">
        <ele>615.685</ele>
        <time>2021-02-27T08:12:36Z</time>
      </trkpt>
      <trkpt lat="42.98424" lon="0.5633">
        <ele>615.74</ele>
        <time>2021-02-27T08:12:38Z</time>
      </trkpt>
      <trkpt lat="42.98422" lon="0.56332">
        <ele>616.032</ele>
        <time>2021-02-27T08:12:40Z</time>
      </trkpt>
      <trkpt lat="42.9842" lon="0.56333">
        <ele>616.512</ele>
        <time>2021-02-27T08:12:42Z</time>
      </trkpt>
      <trkpt lat="42.98417" lon="0.56334">
        <ele>617.277</ele>
        <time>2021-02-27T08:12:44Z</time>
      </trkpt>
      <trkpt lat="42.98415" lon="0.56336">
        <ele>617.113</ele>
        <time>2021-02-27T08:12:46Z</time>
      </trkpt>
      <trkpt lat="42.98413" lon="0.56337">
        <ele>617.142</ele>
        <time>2021-02-27T08:12:48Z</time>
      </trkpt>
      <trkpt lat="42.9841" lon="0.56339">
        <ele>617.588</ele>
        <time>2021-02-27T08:12:50Z</time>
      </trkpt>
      <trkpt lat="42.98408" lon="0.5634">
        <ele>617.136</ele>
        <time>2021-02-27T08:12:52Z</time>
      </trkpt>
      <trkpt lat="42.98407" lon="0.56342">
        <ele>617.785</ele>
        <time>2021-02-27T08:12:54Z</time>
      </trkpt>
      <trkpt lat="42.98405" lon="0.56343">
        <ele>618.37</ele>
        <time>2021-02-27T08:12:56Z</time>
      </trkpt>
      <trkpt lat="42.98402" lon="0.56345">
        <ele>618.753</ele>
        <time>2021-02-27T08:12:58Z</time>
      </trkpt>
      <trkpt lat="42.984" lon="0.56347">
        <ele>618.898</ele>
        <time>2021-02-27T08:13:00Z</time>
      </trkpt>
      <trkpt lat="42.98398" lon="0.56348">
        <ele>619.057</ele>
        <time>2021-02-27T08:13:02Z</time>
      </trkpt>
      <trkpt lat="42.98396" lon="0.5635">
        <ele>619.141</ele>
        <time>2021-02-27T08:13:04Z</time>
      </trkpt>
      <trkpt lat="42.98393" lon="0.56351">
        <ele>617.987</ele>
        <time>2021-02-27T08:13:06Z</time>
      </trkpt>
      <trkpt lat="42.9839" lon="0.56352">
        <ele>616.663</ele>
        <time>2021-02-27T08:13:08Z</time>
      </trkpt>
      <trkpt lat="42.98388" lon="0.56353">
        <ele>616.584</ele>
        <time>2021-02-27T08:13:10Z</time>
      </trkpt>
      <trkpt lat="42.98385" lon="0.56354">
        <ele>616.146</ele>
        <time>2021-02-27T08:13:12Z</time>
      </trkpt>
      <trkpt lat="42.98382" lon="0.56354">
        <ele>616.565</ele>
        <time>2021-02-27T08:13:14Z</time>
      </trkpt>
      <trkpt lat="42.9838" lon="0.56355">
        <ele>617.013</ele>
        <time>2021-02-27T08:13:16Z</time>
      </trkpt>
      <trkpt lat="42.98378" lon="0.56357">
        <ele>616.637</ele>
        <time>2021-02-27T08:13:18Z</time>
      </trkpt>
      <trkpt lat="42.98375" lon="0.56358">
        <ele>617.206</ele>
        <time>2021-02-27T08:13:20Z</time>
      </trkpt>
      <trkpt lat="42.98372" lon="0.56359">
        <ele>617.35</ele>
        <time>2021-02-27T08:13:22Z</time>
      </trkpt>
      <trkpt lat="42.9837" lon="0.56359">
        <ele>616.86</ele>
        <time>2021-02-27T08:13:24Z</time>
      </trkpt>
      <trkpt lat="42.98367" lon="0.5636">
        <ele>615.597</ele>
        <time>2021-02-27T08:13:26Z</time>
      </trkpt>
      <trkpt lat="42.98365" lon="0.56362">
        <ele>615.217</ele>
        <time>2021-02-27T08:13:28Z</time>
      </trkpt>
      <trkpt lat="42.98362" lon="0.56363">
        <ele>614.526</ele>
        <time>2021-02-27T08:13:30Z</time>
      </trkpt>
      <trkpt lat="42.9836" lon="0.56365">
        <ele>614.083</ele>
        <time>2021-02-27T08:13:32Z</time>
      </trkpt>
      <trkpt lat="42.98358" lon="0.56366">
        <ele>613.989</ele>
        <time>2021-02-27T08:13:34Z</time>
      </trkpt>
      <trkpt lat="42.98356" lon="0.56367">
        <ele>614.126</ele>
        <time>2021-02-27T08:13:36Z</time>
      </trkpt>
      <trkpt lat="42.98353" lon="0.56368">
        <ele>612.748</ele>
        <time>2021-02-27T08:13:38Z</time>
      </trkpt>
      <trkpt lat="42.9835" lon="0.56371">
        <ele>613.184</ele>
        <time>2021-02-27T08:13:40Z</time>
      </trkpt>
      <trkpt lat="42.98348" lon="0.56373">
        <ele>612.25</ele>
        <time>2021-02-27T08:13:42Z</time>
      </trkpt>
      <trkpt lat="42.98346" lon="0.56375">
        <ele>612.657</ele>
        <time>2021-02-27T08:13:44Z</time>
      </trkpt>
      <trkpt lat="42.98344" lon="0.56377">
        <ele>612.371</ele>
        <time>2021-02-27T08:13:46Z</time>
      </trkpt>
      <trkpt lat="42.98342" lon="0.56379">
        <ele>613.015</ele>
        <time>2021-02-27T08:13:48Z</time>
      </trkpt>
      <trkpt lat="42.98339" lon="0.56381">
        <ele>612.796</ele>
        <time>2021-02-27T08:13:50Z</time>
      </trkpt>
      <trkpt lat="42.98337" lon="0.56383">
        <ele>613.319</ele>
        <time>2021-02-27T08:13:52Z</time>
      </trkpt>
      <trkpt lat="42.98335" lon="0.56386">
        <ele>611.186</ele>
        <time>2021-02-27T08:13:54Z</time>
      </trkpt>
      <trkpt lat="42.98333" lon="0.56388">
        <ele>611.083</ele>
        <time>2021-02-27T08:13:56Z</time>
      </trkpt>
      <trkpt lat="42.98331" lon="0.56391">
        <ele>610.681</ele>
        <time>2021-02-27T08:13:58Z</time>
      </trkpt>
      <trkpt lat="42.98328" lon="0.56392">
        <ele>611.086</ele>
        <time>2021-02-27T08:14:00Z</time>
      </trkpt>
      <trkpt lat="42.98326" lon="0.56394">
        <ele>612.275</ele>
        <time>2021-02-27T08:14:02Z</time>
      </trkpt>
      <trkpt lat="42.98324" lon="0.56395">
        <ele>613.588</ele>
        <time>2021-02-27T08:14:04Z</time>
      </trkpt>
      <trkpt lat="42.98323" lon="0.56397">
        <ele>613.463</ele>
        <time>2021-02-27T08:14:06Z</time>
      </trkpt>
      <trkpt lat="42.9832" lon="0.56398">
        <ele>612.899</ele>
        <time>2021-02-27T08:14:08Z</time>
      </trkpt>
      <trkpt lat="42.98318" lon="0.56398">
        <ele>612.477</ele>
        <time>2021-02-27T08:14:10Z</time>
      </trkpt>
      <trkpt lat="42.98316" lon="0.56399">
        <ele>612.878</ele>
        <time>2021-02-27T08:14:12Z</time>
      </trkpt>
      <trkpt lat="42.98315" lon="0.564">
        <ele>612.962</ele>
        <time>2021-02-27T08:14:14Z</time>
      </trkpt>
      <trkpt lat="42.98312" lon="0.56401">
        <ele>612.481</ele>
        <time>2021-02-27T08:14:16Z</time>
      </trkpt>
      <trkpt lat="42.9831" lon="0.56402">
        <ele>612.568</ele>
        <time>2021-02-27T08:14:18Z</time>
      </trkpt>
      <trkpt lat="42.98307" lon="0.56403">
        <ele>612.978</ele>
        <time>2021-02-27T08:14:20Z</time>
      </trkpt>
      <trkpt lat="42.98304" lon="0.56404">
        <ele>611.943</ele>
        <time>2021-02-27T08:14:22Z</time>
      </trkpt>
      <trkpt lat="42.98301" lon="0.56405">
        <ele>610.659</ele>
        <time>2021-02-27T08:14:24Z</time>
      </trkpt>
      <trkpt lat="42.98298" lon="0.56407">
        <ele>609.193</ele>
        <time>2021-02-27T08:14:26Z</time>
      </trkpt>
      <trkpt lat="42.98296" lon="0.56408">
        <ele>607.239</ele>
        <time>2021-02-27T08:14:28Z</time>
      </trkpt>
      <trkpt lat="42.98294" lon="0.5641">
        <ele>607.282</ele>
        <time>2021-02-27T08:14:30Z</time>
      </trkpt>
      <trkpt lat="42.98291" lon="0.56412">
        <ele>606.29</ele>
        <time>2021-02-27T08:14:32Z</time>
      </trkpt>
      <trkpt lat="42.98289" lon="0.56414">
        <ele>606.889</ele>
        <time>2021-02-27T08:14:34Z</time>
      </trkpt>
      <trkpt lat="42.98287" lon="0.56416">
        <ele>606.741</ele>
        <time>2021-02-27T08:14:36Z</time>
      </trkpt>
      <trkpt lat="42.98286" lon="0.56419">
        <ele>606.809</ele>
        <time>2021-02-27T08:14:38Z</time>
      </trkpt>
      <trkpt lat="42.98284" lon="0.56421">
        <ele>606.626</ele>
        <time>2021-02-27T08:14:40Z</time>
      </trkpt>
      <trkpt lat="42.98282" lon="0.56423">
        <ele>606.825</ele>
        <time>2021-02-27T08:14:42Z</time>
      </trkpt>
      <trkpt lat="42.9828" lon="0.56425">
        <ele>607.129</ele>
        <time>2021-02-27T08:14:44Z</time>
      </trkpt>
      <trkpt lat="42.98278" lon="0.56426">
        <ele>606.563</ele>
        <time>2021-02-27T08:14:46Z</time>
      </trkpt>
      <trkpt lat="42.98275" lon="0.56426">
        <ele>605.503</ele>
        <time>2021-02-27T08:14:48Z</time>
      </trkpt>
      <trkpt lat="42.98273" lon="0.56426">
        <ele>605.9</ele>
        <time>2021-02-27T08:14:50Z</time>
      </trkpt>
      <trkpt lat="42.9827" lon="0.56426">
        <ele>607.326</ele>
        <time>2021-02-27T08:14:52Z</time>
      </trkpt>
      <trkpt lat="42.98268" lon="0.56425">
        <ele>606.62</ele>
        <time>2021-02-27T08:14:54Z</time>
      </trkpt>
      <trkpt lat="42.98266" lon="0.56423">
        <ele>606.632</ele>
        <time>2021-02-27T08:14:56Z</time>
      </trkpt>
      <trkpt lat="42.98264" lon="0.56421">
        <ele>608</ele>
        <time>2021-02-27T08:14:58Z</time>
      </trkpt>
      <trkpt lat="42.98262" lon="0.56419">
        <ele>607.391</ele>
        <time>2021-02-27T08:15:00Z</time>
      </trkpt>
      <trkpt lat="42.98259" lon="0.56418">
        <ele>607.792</ele>
        <time>2021-02-27T08:15:02Z</time>
      </trkpt>
      <trkpt lat="42.98257" lon="0.56416">
        <ele>607.437</ele>
        <time>2021-02-27T08:15:04Z</time>
      </trkpt>
      <trkpt lat="42.98254" lon="0.56416">
        <ele>608.378</ele>
        <time>2021-02-27T08:15:06Z</time>
      </trkpt>
      <trkpt lat="42.98252" lon="0.56414">
        <ele>610.112</ele>
        <time>2021-02-27T08:15:08Z</time>
      </trkpt>
      <trkpt lat="42.9825" lon="0.56412">
        <ele>609.291</ele>
        <time>2021-02-27T08:15:10Z</time>
      </trkpt>
      <trkpt lat="42.98248" lon="0.5641">
        <ele>609.227</ele>
        <time>2021-02-27T08:15:12Z</time>
      </trkpt>
      <trkpt lat="42.98245" lon="0.56408">
        <ele>609.898</ele>
        <time>2021-02-27T08:15:14Z</time>
      </trkpt>
      <trkpt lat="42.98243" lon="0.56406">
        <ele>609.53</ele>
        <time>2021-02-27T08:15:16Z</time>
      </trkpt>
      <trkpt lat="42.98242" lon="0.56404">
        <ele>609.53</ele>
        <time>2021-02-27T08:15:18Z</time>
      </trkpt>
      <trkpt lat="42.9824" lon="0.56402">
        <ele>608.739</ele>
        <time>2021-02-27T08:15:20Z</time>
      </trkpt>
      <trkpt lat="42.98239" lon="0.564">
        <ele>608.735</ele>
        <time>2021-02-27T08:15:22Z</time>
      </trkpt>
      <trkpt lat="42.9824" lon="0.56397">
        <ele>609.189</ele>
        <time>2021-02-27T08:15:24Z</time>
      </trkpt>
      <trkpt lat="42.9824" lon="0.56394">
        <ele>608.705</ele>
        <time>2021-02-27T08:15:26Z</time>
      </trkpt>
      <trkpt lat="42.98241" lon="0.56391">
        <ele>609.064</ele>
        <time>2021-02-27T08:15:28Z</time>
      </trkpt>
      <trkpt lat="42.98242" lon="0.56388">
        <ele>608.303</ele>
        <time>2021-02-27T08:15:30Z</time>
      </trkpt>
      <trkpt lat="42.98243" lon="0.56386">
        <ele>609.44</ele>
        <time>2021-02-27T08:15:32Z</time>
      </trkpt>
      <trkpt lat="42.98245" lon="0.56384">
        <ele>609.468</ele>
        <time>2021-02-27T08:15:34Z</time>
      </trkpt>
      <trkpt lat="42.98246" lon="0.56382">
        <ele>610.436</ele>
        <time>2021-02-27T08:15:36Z</time>
      </trkpt>
      <trkpt lat="42.98247" lon="0.56379">
        <ele>610.207</ele>
        <time>2021-02-27T08:15:38Z</time>
      </trkpt>
      <trkpt lat="42.98248" lon="0.56376">
        <ele>610.514</ele>
        <time>2021-02-27T08:15:40Z</time>
      </trkpt>
      <trkpt lat="42.98249" lon="0.56374">
        <ele>611.266</ele>
        <time>2021-02-27T08:15:42Z</time>
      </trkpt>
      <trkpt lat="42.9825" lon="0.56371">
        <ele>611.997</ele>
        <time>2021-02-27T08:15:44Z</time>
      </trkpt>
      <trkpt lat="42.98251" lon="0.56369">
        <ele>612.478</ele>
        <time>2021-02-27T08:15:46Z</time>
      </trkpt>
      <trkpt lat="42.98251" lon="0.56367">
        <ele>612.705</ele>
        <time>2021-02-27T08:15:48Z</time>
      </trkpt>
      <trkpt lat="42.98252" lon="0.56363">
        <ele>613.881</ele>
        <time>2021-02-27T08:15:50Z</time>
      </trkpt>
      <trkpt lat="42.98253" lon="0.56361">
        <ele>614.566</ele>
        <time>2021-02-27T08:15:52Z</time>
      </trkpt>
      <trkpt lat="42.98255" lon="0.56359">
        <ele>614.489</ele>
        <time>2021-02-27T08:15:54Z</time>
      </trkpt>
      <trkpt lat="42.98256" lon="0.56357">
        <ele>613.788</ele>
        <time>2021-02-27T08:15:56Z</time>
      </trkpt>
      <trkpt lat="42.98257" lon="0.56356">
        <ele>613.894</ele>
        <time>2021-02-27T08:15:57Z</time>
      </trkpt>
      <trkpt lat="42.98259" lon="0.56351">
        <ele>616.351</ele>
        <time>2021-02-27T08:16:00Z</time>
      </trkpt>
      <trkpt lat="42.98259" lon="0.56348">
        <ele>617.311</ele>
        <time>2021-02-27T08:16:02Z</time>
      </trkpt>
      <trkpt lat="42.9826" lon="0.56344">
        <ele>616.712</ele>
        <time>2021-02-27T08:16:04Z</time>
      </trkpt>
      <trkpt lat="42.9826" lon="0.56341">
        <ele>615.874</ele>
        <time>2021-02-27T08:16:06Z</time>
      </trkpt>
      <trkpt lat="42.98261" lon="0.56338">
        <ele>616.677</ele>
        <time>2021-02-27T08:16:08Z</time>
      </trkpt>
      <trkpt lat="42.9826" lon="0.56335">
        <ele>618.266</ele>
        <time>2021-02-27T08:16:10Z</time>
      </trkpt>
      <trkpt lat="42.98259" lon="0.56331">
        <ele>617.462</ele>
        <time>2021-02-27T08:16:12Z</time>
      </trkpt>
      <trkpt lat="42.98259" lon="0.56327">
        <ele>616.835</ele>
        <time>2021-02-27T08:16:14Z</time>
      </trkpt>
      <trkpt lat="42.98259" lon="0.56324">
        <ele>617.393</ele>
        <time>2021-02-27T08:16:16Z</time>
      </trkpt>
      <trkpt lat="42.98258" lon="0.56321">
        <ele>617.678</ele>
        <time>2021-02-27T08:16:18Z</time>
      </trkpt>
      <trkpt lat="42.98257" lon="0.56318">
        <ele>617.968</ele>
        <time>2021-02-27T08:16:20Z</time>
      </trkpt>
      <trkpt lat="42.98256" lon="0.56315">
        <ele>617.293</ele>
        <time>2021-02-27T08:16:22Z</time>
      </trkpt>
      <trkpt lat="42.98256" lon="0.56311">
        <ele>617.142</ele>
        <time>2021-02-27T08:16:24Z</time>
      </trkpt>
      <trkpt lat="42.98256" lon="0.56308">
        <ele>616.944</ele>
        <time>2021-02-27T08:16:26Z</time>
      </trkpt>
      <trkpt lat="42.98255" lon="0.56305">
        <ele>617.37</ele>
        <time>2021-02-27T08:16:28Z</time>
      </trkpt>
      <trkpt lat="42.98255" lon="0.56302">
        <ele>617.54</ele>
        <time>2021-02-27T08:16:30Z</time>
      </trkpt>
      <trkpt lat="42.98255" lon="0.563">
        <ele>618.61</ele>
        <time>2021-02-27T08:16:32Z</time>
      </trkpt>
      <trkpt lat="42.98255" lon="0.56297">
        <ele>618.611</ele>
        <time>2021-02-27T08:16:34Z</time>
      </trkpt>
      <trkpt lat="42.98255" lon="0.56293">
        <ele>619.629</ele>
        <time>2021-02-27T08:16:36Z</time>
      </trkpt>
      <trkpt lat="42.98255" lon="0.56289">
        <ele>619.742</ele>
        <time>2021-02-27T08:16:38Z</time>
      </trkpt>
      <trkpt lat="42.98255" lon="0.56286">
        <ele>620.047</ele>
        <time>2021-02-27T08:16:40Z</time>
      </trkpt>
      <trkpt lat="42.98255" lon="0.56284">
        <ele>619.67</ele>
        <time>2021-02-27T08:16:42Z</time>
      </trkpt>
      <trkpt lat="42.98254" lon="0.56281">
        <ele>619.537</ele>
        <time>2021-02-27T08:16:44Z</time>
      </trkpt>
      <trkpt lat="42.98253" lon="0.56278">
        <ele>618.916</ele>
        <time>2021-02-27T08:16:46Z</time>
      </trkpt>
      <trkpt lat="42.98252" lon="0.56275">
        <ele>620.312</ele>
        <time>2021-02-27T08:16:48Z</time>
      </trkpt>
      <trkpt lat="42.98253" lon="0.56271">
        <ele>619.548</ele>
        <time>2021-02-27T08:16:50Z</time>
      </trkpt>
      <trkpt lat="42.98252" lon="0.56268">
        <ele>619.846</ele>
        <time>2021-02-27T08:16:52Z</time>
      </trkpt>
      <trkpt lat="42.98252" lon="0.56265">
        <ele>621.018</ele>
        <time>2021-02-27T08:16:54Z</time>
      </trkpt>
      <trkpt lat="42.98251" lon="0.56262">
        <ele>621.411</ele>
        <time>2021-02-27T08:16:56Z</time>
      </trkpt>
      <trkpt lat="42.98249" lon="0.5626">
        <ele>621.617</ele>
        <time>2021-02-27T08:16:58Z</time>
      </trkpt>
      <trkpt lat="42.98247" lon="0.56257">
        <ele>622.648</ele>
        <time>2021-02-27T08:17:00Z</time>
      </trkpt>
      <trkpt lat="42.98245" lon="0.56255">
        <ele>622.974</ele>
        <time>2021-02-27T08:17:02Z</time>
      </trkpt>
      <trkpt lat="42.98244" lon="0.56252">
        <ele>624.249</ele>
        <time>2021-02-27T08:17:04Z</time>
      </trkpt>
      <trkpt lat="42.98242" lon="0.56249">
        <ele>622.136</ele>
        <time>2021-02-27T08:17:06Z</time>
      </trkpt>
      <trkpt lat="42.98242" lon="0.56246">
        <ele>621.525</ele>
        <time>2021-02-27T08:17:08Z</time>
      </trkpt>
      <trkpt lat="42.98242" lon="0.56244">
        <ele>621.032</ele>
        <time>2021-02-27T08:17:10Z</time>
      </trkpt>
      <trkpt lat="42.9824" lon="0.56242">
        <ele>621.013</ele>
        <time>2021-02-27T08:17:12Z</time>
      </trkpt>
      <trkpt lat="42.98238" lon="0.56241">
        <ele>620.746</ele>
        <time>2021-02-27T08:17:14Z</time>
      </trkpt>
      <trkpt lat="42.98238" lon="0.56237">
        <ele>620.908</ele>
        <time>2021-02-27T08:17:16Z</time>
      </trkpt>
      <trkpt lat="42.98237" lon="0.56235">
        <ele>619.737</ele>
        <time>2021-02-27T08:17:18Z</time>
      </trkpt>
      <trkpt lat="42.98237" lon="0.56233">
        <ele>619.226</ele>
        <time>2021-02-27T08:17:20Z</time>
      </trkpt>
      <trkpt lat="42.98238" lon="0.56231">
        <ele>617.235</ele>
        <time>2021-02-27T08:17:22Z</time>
      </trkpt>
      <trkpt lat="42.98237" lon="0.56229">
        <ele>618.705</ele>
        <time>2021-02-27T08:17:24Z</time>
      </trkpt>
      <trkpt lat="42.98237" lon="0.56227">
        <ele>617.65</ele>
        <time>2021-02-27T08:17:26Z</time>
      </trkpt>
      <trkpt lat="42.98236" lon="0.56225">
        <ele>618.323</ele>
        <time>2021-02-27T08:17:28Z</time>
      </trkpt>
      <trkpt lat="42.98236" lon="0.56223">
        <ele>618.656</ele>
        <time>2021-02-27T08:17:30Z</time>
      </trkpt>
      <trkpt lat="42.98236" lon="0.56221">
        <ele>617.839</ele>
        <time>2021-02-27T08:17:32Z</time>
      </trkpt>
      <trkpt lat="42.98237" lon="0.5622">
        <ele>617.391</ele>
        <time>2021-02-27T08:17:34Z</time>
      </trkpt>
      <trkpt lat="42.98237" lon="0.56219">
        <ele>618.368</ele>
        <time>2021-02-27T08:17:36Z</time>
      </trkpt>
      <trkpt lat="42.98239" lon="0.56218">
        <ele>620.806</ele>
        <time>2021-02-27T08:17:38Z</time>
      </trkpt>
      <trkpt lat="42.9824" lon="0.56216">
        <ele>621.631</ele>
        <time>2021-02-27T08:17:40Z</time>
      </trkpt>
      <trkpt lat="42.9824" lon="0.56214">
        <ele>621.409</ele>
        <time>2021-02-27T08:17:42Z</time>
      </trkpt>
      <trkpt lat="42.9824" lon="0.56212">
        <ele>621.975</ele>
        <time>2021-02-27T08:17:44Z</time>
      </trkpt>
      <trkpt lat="42.9824" lon="0.5621">
        <ele>622.705</ele>
        <time>2021-02-27T08:17:46Z</time>
      </trkpt>
      <trkpt lat="42.98241" lon="0.56208">
        <ele>623.18</ele>
        <time>2021-02-27T08:17:48Z</time>
      </trkpt>
      <trkpt lat="42.98242" lon="0.56206">
        <ele>625.158</ele>
        <time>2021-02-27T08:17:50Z</time>
      </trkpt>
      <trkpt lat="42.98243" lon="0.56204">
        <ele>625.543</ele>
        <time>2021-02-27T08:17:52Z</time>
      </trkpt>
      <trkpt lat="42.98242" lon="0.56201">
        <ele>623.701</ele>
        <time>2021-02-27T08:17:54Z</time>
      </trkpt>
      <trkpt lat="42.98242" lon="0.56198">
        <ele>623.935</ele>
        <time>2021-02-27T08:17:56Z</time>
      </trkpt>
      <trkpt lat="42.98241" lon="0.56197">
        <ele>623.288</ele>
        <time>2021-02-27T08:17:58Z</time>
      </trkpt>
      <trkpt lat="42.98243" lon="0.56193">
        <ele>624.238</ele>
        <time>2021-02-27T08:18:00Z</time>
      </trkpt>
      <trkpt lat="42.98245" lon="0.56191">
        <ele>624.61</ele>
        <time>2021-02-27T08:18:02Z</time>
      </trkpt>
      <trkpt lat="42.98247" lon="0.56189">
        <ele>625.527</ele>
        <time>2021-02-27T08:18:04Z</time>
      </trkpt>
      <trkpt lat="42.98249" lon="0.56188">
        <ele>626.004</ele>
        <time>2021-02-27T08:18:06Z</time>
      </trkpt>
      <trkpt lat="42.98251" lon="0.56187">
        <ele>626.697</ele>
        <time>2021-02-27T08:18:08Z</time>
      </trkpt>
      <trkpt lat="42.98253" lon="0.56185">
        <ele>628.394</ele>
        <time>2021-02-27T08:18:10Z</time>
      </trkpt>
      <trkpt lat="42.98255" lon="0.56183">
        <ele>629.273</ele>
        <time>2021-02-27T08:18:12Z</time>
      </trkpt>
      <trkpt lat="42.98257" lon="0.56182">
        <ele>630.086</ele>
        <time>2021-02-27T08:18:14Z</time>
      </trkpt>
      <trkpt lat="42.98259" lon="0.56179">
        <ele>630.975</ele>
        <time>2021-02-27T08:18:16Z</time>
      </trkpt>
      <trkpt lat="42.9826" lon="0.56177">
        <ele>630.938</ele>
        <time>2021-02-27T08:18:18Z</time>
      </trkpt>
      <trkpt lat="42.98262" lon="0.56175">
        <ele>630.454</ele>
        <time>2021-02-27T08:18:20Z</time>
      </trkpt>
      <trkpt lat="42.98263" lon="0.56172">
        <ele>629.681</ele>
        <time>2021-02-27T08:18:22Z</time>
      </trkpt>
      <trkpt lat="42.98264" lon="0.56169">
        <ele>629.662</ele>
        <time>2021-02-27T08:18:24Z</time>
      </trkpt>
      <trkpt lat="42.98264" lon="0.56166">
        <ele>629.215</ele>
        <time>2021-02-27T08:18:26Z</time>
      </trkpt>
      <trkpt lat="42.98266" lon="0.56163">
        <ele>629.355</ele>
        <time>2021-02-27T08:18:28Z</time>
      </trkpt>
      <trkpt lat="42.98267" lon="0.5616">
        <ele>629.565</ele>
        <time>2021-02-27T08:18:30Z</time>
      </trkpt>
      <trkpt lat="42.98267" lon="0.56156">
        <ele>630.609</ele>
        <time>2021-02-27T08:18:32Z</time>
      </trkpt>
      <trkpt lat="42.98268" lon="0.56152">
        <ele>631.508</ele>
        <time>2021-02-27T08:18:34Z</time>
      </trkpt>
      <trkpt lat="42.98268" lon="0.56148">
        <ele>632.695</ele>
        <time>2021-02-27T08:18:36Z</time>
      </trkpt>
      <trkpt lat="42.9827" lon="0.56146">
        <ele>632.793</ele>
        <time>2021-02-27T08:18:38Z</time>
      </trkpt>
      <trkpt lat="42.98271" lon="0.56143">
        <ele>633.376</ele>
        <time>2021-02-27T08:18:40Z</time>
      </trkpt>
      <trkpt lat="42.98271" lon="0.5614">
        <ele>634.98</ele>
        <time>2021-02-27T08:18:42Z</time>
      </trkpt>
      <trkpt lat="42.98271" lon="0.56137">
        <ele>634.637</ele>
        <time>2021-02-27T08:18:44Z</time>
      </trkpt>
      <trkpt lat="42.9827" lon="0.56133">
        <ele>633.225</ele>
        <time>2021-02-27T08:18:46Z</time>
      </trkpt>
      <trkpt lat="42.9827" lon="0.5613">
        <ele>633.268</ele>
        <time>2021-02-27T08:18:48Z</time>
      </trkpt>
      <trkpt lat="42.98271" lon="0.56126">
        <ele>632.192</ele>
        <time>2021-02-27T08:18:50Z</time>
      </trkpt>
      <trkpt lat="42.98271" lon="0.56123">
        <ele>632.004</ele>
        <time>2021-02-27T08:18:52Z</time>
      </trkpt>
      <trkpt lat="42.98272" lon="0.5612">
        <ele>632.522</ele>
        <time>2021-02-27T08:18:54Z</time>
      </trkpt>
      <trkpt lat="42.98272" lon="0.56118">
        <ele>633.675</ele>
        <time>2021-02-27T08:18:56Z</time>
      </trkpt>
      <trkpt lat="42.98272" lon="0.56115">
        <ele>634.192</ele>
        <time>2021-02-27T08:18:58Z</time>
      </trkpt>
      <trkpt lat="42.98273" lon="0.56113">
        <ele>636.179</ele>
        <time>2021-02-27T08:19:00Z</time>
      </trkpt>
      <trkpt lat="42.98273" lon="0.56111">
        <ele>636.055</ele>
        <time>2021-02-27T08:19:02Z</time>
      </trkpt>
      <trkpt lat="42.98274" lon="0.56109">
        <ele>636.545</ele>
        <time>2021-02-27T08:19:04Z</time>
      </trkpt>
      <trkpt lat="42.98276" lon="0.56108">
        <ele>637.557</ele>
        <time>2021-02-27T08:19:06Z</time>
      </trkpt>
      <trkpt lat="42.98278" lon="0.56105">
        <ele>637.254</ele>
        <time>2021-02-27T08:19:08Z</time>
      </trkpt>
      <trkpt lat="42.98279" lon="0.56104">
        <ele>639.619</ele>
        <time>2021-02-27T08:19:10Z</time>
      </trkpt>
      <trkpt lat="42.98281" lon="0.56102">
        <ele>640.035</ele>
        <time>2021-02-27T08:19:12Z</time>
      </trkpt>
      <trkpt lat="42.98281" lon="0.56099">
        <ele>639.809</ele>
        <time>2021-02-27T08:19:14Z</time>
      </trkpt>
      <trkpt lat="42.98283" lon="0.56097">
        <ele>639.288</ele>
        <time>2021-02-27T08:19:16Z</time>
      </trkpt>
      <trkpt lat="42.98284" lon="0.56095">
        <ele>638.255</ele>
        <time>2021-02-27T08:19:18Z</time>
      </trkpt>
      <trkpt lat="42.98286" lon="0.56092">
        <ele>638.981</ele>
        <time>2021-02-27T08:19:20Z</time>
      </trkpt>
      <trkpt lat="42.98286" lon="0.5609">
        <ele>638.654</ele>
        <time>2021-02-27T08:19:22Z</time>
      </trkpt>
      <trkpt lat="42.98287" lon="0.56088">
        <ele>638.277</ele>
        <time>2021-02-27T08:19:24Z</time>
      </trkpt>
      <trkpt lat="42.98289" lon="0.56085">
        <ele>638.093</ele>
        <time>2021-02-27T08:19:26Z</time>
      </trkpt>
      <trkpt lat="42.98291" lon="0.56082">
        <ele>640.508</ele>
        <time>2021-02-27T08:19:28Z</time>
      </trkpt>
      <trkpt lat="42.98291" lon="0.5608">
        <ele>641.452</ele>
        <time>2021-02-27T08:19:30Z</time>
      </trkpt>
      <trkpt lat="42.98293" lon="0.56078">
        <ele>641.32</ele>
        <time>2021-02-27T08:19:32Z</time>
      </trkpt>
      <trkpt lat="42.98294" lon="0.56075">
        <ele>642.23</ele>
        <time>2021-02-27T08:19:34Z</time>
      </trkpt>
      <trkpt lat="42.98295" lon="0.56073">
        <ele>642.284</ele>
        <time>2021-02-27T08:19:36Z</time>
      </trkpt>
      <trkpt lat="42.98296" lon="0.56072">
        <ele>642.827</ele>
        <time>2021-02-27T08:19:38Z</time>
      </trkpt>
      <trkpt lat="42.98297" lon="0.56071">
        <ele>644.043</ele>
        <time>2021-02-27T08:19:40Z</time>
      </trkpt>
      <trkpt lat="42.98299" lon="0.56069">
        <ele>645.652</ele>
        <time>2021-02-27T08:19:42Z</time>
      </trkpt>
      <trkpt lat="42.983" lon="0.56067">
        <ele>645.628</ele>
        <time>2021-02-27T08:19:44Z</time>
      </trkpt>
      <trkpt lat="42.983" lon="0.56065">
        <ele>645.193</ele>
        <time>2021-02-27T08:19:46Z</time>
      </trkpt>
      <trkpt lat="42.98301" lon="0.56062">
        <ele>646.68</ele>
        <time>2021-02-27T08:19:48Z</time>
      </trkpt>
      <trkpt lat="42.98302" lon="0.5606">
        <ele>646.946</ele>
        <time>2021-02-27T08:19:50Z</time>
      </trkpt>
      <trkpt lat="42.98301" lon="0.56057">
        <ele>646.708</ele>
        <time>2021-02-27T08:19:52Z</time>
      </trkpt>
      <trkpt lat="42.98301" lon="0.56054">
        <ele>646.291</ele>
        <time>2021-02-27T08:19:54Z</time>
      </trkpt>
      <trkpt lat="42.983" lon="0.56051">
        <ele>646.431</ele>
        <time>2021-02-27T08:19:56Z</time>
      </trkpt>
      <trkpt lat="42.98299" lon="0.56048">
        <ele>646.213</ele>
        <time>2021-02-27T08:19:58Z</time>
      </trkpt>
      <trkpt lat="42.98298" lon="0.56046">
        <ele>646.526</ele>
        <time>2021-02-27T08:20:00Z</time>
      </trkpt>
      <trkpt lat="42.98298" lon="0.56044">
        <ele>646.392</ele>
        <time>2021-02-27T08:20:02Z</time>
      </trkpt>
      <trkpt lat="42.98297" lon="0.56041">
        <ele>646.28</ele>
        <time>2021-02-27T08:20:04Z</time>
      </trkpt>
      <trkpt lat="42.98297" lon="0.56039">
        <ele>646.267</ele>
        <time>2021-02-27T08:20:06Z</time>
      </trkpt>
      <trkpt lat="42.98297" lon="0.56036">
        <ele>646.73</ele>
        <time>2021-02-27T08:20:08Z</time>
      </trkpt>
      <trkpt lat="42.98297" lon="0.56033">
        <ele>646.197</ele>
        <time>2021-02-27T08:20:10Z</time>
      </trkpt>
      <trkpt lat="42.98298" lon="0.56031">
        <ele>647.375</ele>
        <time>2021-02-27T08:20:12Z</time>
      </trkpt>
      <trkpt lat="42.98299" lon="0.56029">
        <ele>647.285</ele>
        <time>2021-02-27T08:20:14Z</time>
      </trkpt>
      <trkpt lat="42.983" lon="0.56026">
        <ele>647.103</ele>
        <time>2021-02-27T08:20:16Z</time>
      </trkpt>
      <trkpt lat="42.983" lon="0.56024">
        <ele>645.638</ele>
        <time>2021-02-27T08:20:18Z</time>
      </trkpt>
      <trkpt lat="42.98301" lon="0.56023">
        <ele>646.826</ele>
        <time>2021-02-27T08:20:20Z</time>
      </trkpt>
      <trkpt lat="42.98302" lon="0.5602">
        <ele>646.766</ele>
        <time>2021-02-27T08:20:22Z</time>
      </trkpt>
      <trkpt lat="42.98303" lon="0.56017">
        <ele>647.228</ele>
        <time>2021-02-27T08:20:24Z</time>
      </trkpt>
      <trkpt lat="42.98303" lon="0.56015">
        <ele>648.143</ele>
        <time>2021-02-27T08:20:26Z</time>
      </trkpt>
      <trkpt lat="42.98304" lon="0.56013">
        <ele>649.339</ele>
        <time>2021-02-27T08:20:28Z</time>
      </trkpt>
      <trkpt lat="42.98305" lon="0.5601">
        <ele>651.462</ele>
        <time>2021-02-27T08:20:30Z</time>
      </trkpt>
      <trkpt lat="42.98306" lon="0.56009">
        <ele>652.94</ele>
        <time>2021-02-27T08:20:32Z</time>
      </trkpt>
      <trkpt lat="42.98306" lon="0.56007">
        <ele>654.355</ele>
        <time>2021-02-27T08:20:34Z</time>
      </trkpt>
      <trkpt lat="42.98306" lon="0.56004">
        <ele>653.663</ele>
        <time>2021-02-27T08:20:36Z</time>
      </trkpt>
      <trkpt lat="42.98306" lon="0.56002">
        <ele>654.264</ele>
        <time>2021-02-27T08:20:38Z</time>
      </trkpt>
      <trkpt lat="42.98306" lon="0.55999">
        <ele>654.804</ele>
        <time>2021-02-27T08:20:40Z</time>
      </trkpt>
      <trkpt lat="42.98307" lon="0.55996">
        <ele>654.554</ele>
        <time>2021-02-27T08:20:42Z</time>
      </trkpt>
      <trkpt lat="42.98307" lon="0.55994">
        <ele>654.269</ele>
        <time>2021-02-27T08:20:44Z</time>
      </trkpt>
      <trkpt lat="42.98307" lon="0.55991">
        <ele>654.411</ele>
        <time>2021-02-27T08:20:46Z</time>
      </trkpt>
      <trkpt lat="42.98307" lon="0.55989">
        <ele>655.269</ele>
        <time>2021-02-27T08:20:48Z</time>
      </trkpt>
      <trkpt lat="42.98309" lon="0.55988">
        <ele>656.343</ele>
        <time>2021-02-27T08:20:50Z</time>
      </trkpt>
      <trkpt lat="42.9831" lon="0.55985">
        <ele>657.454</ele>
        <time>2021-02-27T08:20:52Z</time>
      </trkpt>
      <trkpt lat="42.9831" lon="0.55983">
        <ele>657.842</ele>
        <time>2021-02-27T08:20:54Z</time>
      </trkpt>
      <trkpt lat="42.98311" lon="0.55981">
        <ele>658.297</ele>
        <time>2021-02-27T08:20:56Z</time>
      </trkpt>
      <trkpt lat="42.98312" lon="0.55979">
        <ele>659.135</ele>
        <time>2021-02-27T08:20:58Z</time>
      </trkpt>
      <trkpt lat="42.98312" lon="0.55977">
        <ele>659.842</ele>
        <time>2021-02-27T08:21:00Z</time>
      </trkpt>
      <trkpt lat="42.98313" lon="0.55975">
        <ele>659.84</ele>
        <time>2021-02-27T08:21:02Z</time>
      </trkpt>
      <trkpt lat="42.98313" lon="0.55973">
        <ele>661.322</ele>
        <time>2021-02-27T08:21:04Z</time>
      </trkpt>
      <trkpt lat="42.98314" lon="0.55971">
        <ele>660.983</ele>
        <time>2021-02-27T08:21:06Z</time>
      </trkpt>
      <trkpt lat="42.98314" lon="0.55969">
        <ele>661.467</ele>
        <time>2021-02-27T08:21:08Z</time>
      </trkpt>
      <trkpt lat="42.98314" lon="0.55968">
        <ele>660.657</ele>
        <time>2021-02-27T08:21:10Z</time>
      </trkpt>
      <trkpt lat="42.98313" lon="0.55966">
        <ele>662.098</ele>
        <time>2021-02-27T08:21:12Z</time>
      </trkpt>
      <trkpt lat="42.98313" lon="0.55964">
        <ele>662.306</ele>
        <time>2021-02-27T08:21:14Z</time>
      </trkpt>
      <trkpt lat="42.98314" lon="0.55962">
        <ele>661.725</ele>
        <time>2021-02-27T08:21:16Z</time>
      </trkpt>
      <trkpt lat="42.98312" lon="0.5596">
        <ele>661.75</ele>
        <time>2021-02-27T08:21:18Z</time>
      </trkpt>
      <trkpt lat="42.98312" lon="0.55958">
        <ele>661.204</ele>
        <time>2021-02-27T08:21:20Z</time>
      </trkpt>
      <trkpt lat="42.98312" lon="0.55956">
        <ele>661.012</ele>
        <time>2021-02-27T08:21:22Z</time>
      </trkpt>
      <trkpt lat="42.98313" lon="0.55954">
        <ele>661.232</ele>
        <time>2021-02-27T08:21:24Z</time>
      </trkpt>
      <trkpt lat="42.98314" lon="0.55952">
        <ele>662.803</ele>
        <time>2021-02-27T08:21:26Z</time>
      </trkpt>
      <trkpt lat="42.98314" lon="0.5595">
        <ele>662.139</ele>
        <time>2021-02-27T08:21:28Z</time>
      </trkpt>
      <trkpt lat="42.98314" lon="0.55948">
        <ele>661.211</ele>
        <time>2021-02-27T08:21:30Z</time>
      </trkpt>
      <trkpt lat="42.98314" lon="0.55947">
        <ele>660.551</ele>
        <time>2021-02-27T08:21:32Z</time>
      </trkpt>
      <trkpt lat="42.98314" lon="0.55945">
        <ele>659.9</ele>
        <time>2021-02-27T08:21:34Z</time>
      </trkpt>
      <trkpt lat="42.98314" lon="0.55943">
        <ele>660.43</ele>
        <time>2021-02-27T08:21:36Z</time>
      </trkpt>
      <trkpt lat="42.98314" lon="0.55942">
        <ele>662.088</ele>
        <time>2021-02-27T08:21:38Z</time>
      </trkpt>
      <trkpt lat="42.98315" lon="0.5594">
        <ele>662.764</ele>
        <time>2021-02-27T08:21:40Z</time>
      </trkpt>
      <trkpt lat="42.98317" lon="0.55938">
        <ele>662.427</ele>
        <time>2021-02-27T08:21:42Z</time>
      </trkpt>
      <trkpt lat="42.98317" lon="0.55936">
        <ele>661.717</ele>
        <time>2021-02-27T08:21:44Z</time>
      </trkpt>
      <trkpt lat="42.98317" lon="0.55933">
        <ele>660.613</ele>
        <time>2021-02-27T08:21:46Z</time>
      </trkpt>
      <trkpt lat="42.98317" lon="0.5593">
        <ele>660.467</ele>
        <time>2021-02-27T08:21:48Z</time>
      </trkpt>
      <trkpt lat="42.98318" lon="0.55928">
        <ele>659.804</ele>
        <time>2021-02-27T08:21:50Z</time>
      </trkpt>
      <trkpt lat="42.98318" lon="0.55925">
        <ele>659.092</ele>
        <time>2021-02-27T08:21:52Z</time>
      </trkpt>
      <trkpt lat="42.98319" lon="0.55923">
        <ele>660.185</ele>
        <time>2021-02-27T08:21:54Z</time>
      </trkpt>
      <trkpt lat="42.9832" lon="0.55921">
        <ele>660.305</ele>
        <time>2021-02-27T08:21:56Z</time>
      </trkpt>
      <trkpt lat="42.9832" lon="0.55919">
        <ele>660.501</ele>
        <time>2021-02-27T08:21:58Z</time>
      </trkpt>
      <trkpt lat="42.9832" lon="0.55917">
        <ele>660.239</ele>
        <time>2021-02-27T08:22:00Z</time>
      </trkpt>
      <trkpt lat="42.9832" lon="0.55915">
        <ele>659.17</ele>
        <time>2021-02-27T08:22:02Z</time>
      </trkpt>
      <trkpt lat="42.9832" lon="0.55913">
        <ele>660.179</ele>
        <time>2021-02-27T08:22:04Z</time>
      </trkpt>
      <trkpt lat="42.9832" lon="0.55911">
        <ele>660.571</ele>
        <time>2021-02-27T08:22:06Z</time>
      </trkpt>
      <trkpt lat="42.9832" lon="0.55909">
        <ele>660.641</ele>
        <time>2021-02-27T08:22:08Z</time>
      </trkpt>
      <trkpt lat="42.9832" lon="0.55908">
        <ele>661.785</ele>
        <time>2021-02-27T08:22:10Z</time>
      </trkpt>
      <trkpt lat="42.98321" lon="0.55905">
        <ele>662.827</ele>
        <time>2021-02-27T08:22:12Z</time>
      </trkpt>
      <trkpt lat="42.98321" lon="0.55903">
        <ele>663.138</ele>
        <time>2021-02-27T08:22:14Z</time>
      </trkpt>
      <trkpt lat="42.98321" lon="0.55901">
        <ele>663.14</ele>
        <time>2021-02-27T08:22:16Z</time>
      </trkpt>
      <trkpt lat="42.98321" lon="0.559">
        <ele>664.325</ele>
        <time>2021-02-27T08:22:18Z</time>
      </trkpt>
      <trkpt lat="42.98321" lon="0.55898">
        <ele>664.891</ele>
        <time>2021-02-27T08:22:20Z</time>
      </trkpt>
      <trkpt lat="42.98321" lon="0.55897">
        <ele>665.724</ele>
        <time>2021-02-27T08:22:22Z</time>
      </trkpt>
      <trkpt lat="42.9832" lon="0.55897">
        <ele>665.952</ele>
        <time>2021-02-27T08:22:24Z</time>
      </trkpt>
      <trkpt lat="42.9832" lon="0.55898">
        <ele>666.262</ele>
        <time>2021-02-27T08:22:26Z</time>
      </trkpt>
      <trkpt lat="42.9832" lon="0.55898">
        <ele>666.028</ele>
        <time>2021-02-27T08:22:28Z</time>
      </trkpt>
      <trkpt lat="42.9832" lon="0.55898">
        <ele>665.686</ele>
        <time>2021-02-27T08:22:30Z</time>
      </trkpt>
      <trkpt lat="42.9832" lon="0.55897">
        <ele>665.687</ele>
        <time>2021-02-27T08:22:32Z</time>
      </trkpt>
      <trkpt lat="42.9832" lon="0.55897">
        <ele>665.85</ele>
        <time>2021-02-27T08:22:34Z</time>
      </trkpt>
      <trkpt lat="42.9832" lon="0.55897">
        <ele>665.934</ele>
        <time>2021-02-27T08:22:36Z</time>
      </trkpt>
      <trkpt lat="42.9832" lon="0.55897">
        <ele>665.936</ele>
        <time>2021-02-27T08:22:38Z</time>
      </trkpt>
      <trkpt lat="42.9832" lon="0.55897">
        <ele>665.944</ele>
        <time>2021-02-27T08:22:40Z</time>
      </trkpt>
      <trkpt lat="42.9832" lon="0.55897">
        <ele>665.932</ele>
        <time>2021-02-27T08:22:42Z</time>
      </trkpt>
      <trkpt lat="42.9832" lon="0.55897">
        <ele>665.646</ele>
        <time>2021-02-27T08:22:44Z</time>
      </trkpt>
      <trkpt lat="42.9832" lon="0.55897">
        <ele>665.646</ele>
        <time>2021-02-27T08:22:46Z</time>
      </trkpt>
      <trkpt lat="42.98321" lon="0.55897">
        <ele>666.584</ele>
        <time>2021-02-27T08:22:48Z</time>
      </trkpt>
      <trkpt lat="42.98321" lon="0.55897">
        <ele>666.615</ele>
        <time>2021-02-27T08:22:50Z</time>
      </trkpt>
      <trkpt lat="42.98321" lon="0.55897">
        <ele>667.164</ele>
        <time>2021-02-27T08:22:52Z</time>
      </trkpt>
      <trkpt lat="42.98321" lon="0.55897">
        <ele>667.798</ele>
        <time>2021-02-27T08:22:54Z</time>
      </trkpt>
      <trkpt lat="42.98321" lon="0.55896">
        <ele>667.885</ele>
        <time>2021-02-27T08:22:56Z</time>
      </trkpt>
      <trkpt lat="42.98322" lon="0.55897">
        <ele>667.689</ele>
        <time>2021-02-27T08:22:58Z</time>
      </trkpt>
      <trkpt lat="42.98322" lon="0.55898">
        <ele>668.331</ele>
        <time>2021-02-27T08:23:00Z</time>
      </trkpt>
      <trkpt lat="42.98323" lon="0.55898">
        <ele>668.91</ele>
        <time>2021-02-27T08:23:02Z</time>
      </trkpt>
      <trkpt lat="42.98323" lon="0.55898">
        <ele>668.951</ele>
        <time>2021-02-27T08:23:04Z</time>
      </trkpt>
      <trkpt lat="42.98323" lon="0.55898">
        <ele>669.076</ele>
        <time>2021-02-27T08:23:06Z</time>
      </trkpt>
      <trkpt lat="42.98323" lon="0.55898">
        <ele>669.292</ele>
        <time>2021-02-27T08:23:08Z</time>
      </trkpt>
      <trkpt lat="42.98323" lon="0.55898">
        <ele>669.667</ele>
        <time>2021-02-27T08:23:10Z</time>
      </trkpt>
      <trkpt lat="42.98323" lon="0.55898">
        <ele>670.201</ele>
        <time>2021-02-27T08:23:12Z</time>
      </trkpt>
      <trkpt lat="42.98323" lon="0.55898">
        <ele>670.198</ele>
        <time>2021-02-27T08:23:14Z</time>
      </trkpt>
      <trkpt lat="42.98323" lon="0.55898">
        <ele>670.201</ele>
        <time>2021-02-27T08:23:16Z</time>
      </trkpt>
      <trkpt lat="42.98323" lon="0.55898">
        <ele>670.27</ele>
        <time>2021-02-27T08:23:18Z</time>
      </trkpt>
      <trkpt lat="42.98323" lon="0.55898">
        <ele>670.273</ele>
        <time>2021-02-27T08:23:20Z</time>
      </trkpt>
      <trkpt lat="42.98323" lon="0.55898">
        <ele>670.517</ele>
        <time>2021-02-27T08:23:22Z</time>
      </trkpt>
      <trkpt lat="42.98323" lon="0.55898">
        <ele>670.524</ele>
        <time>2021-02-27T08:23:24Z</time>
      </trkpt>
      <trkpt lat="42.98323" lon="0.55898">
        <ele>670.529</ele>
        <time>2021-02-27T08:23:26Z</time>
      </trkpt>
      <trkpt lat="42.98323" lon="0.55898">
        <ele>670.532</ele>
        <time>2021-02-27T08:23:28Z</time>
      </trkpt>
      <trkpt lat="42.98323" lon="0.55898">
        <ele>670.532</ele>
        <time>2021-02-27T08:23:30Z</time>
      </trkpt>
      <trkpt lat="42.98323" lon="0.55898">
        <ele>670.452</ele>
        <time>2021-02-27T08:23:32Z</time>
      </trkpt>
      <trkpt lat="42.98323" lon="0.55898">
        <ele>670.451</ele>
        <time>2021-02-27T08:23:34Z</time>
      </trkpt>
      <trkpt lat="42.98323" lon="0.55898">
        <ele>670.45</ele>
        <time>2021-02-27T08:23:36Z</time>
      </trkpt>
      <trkpt lat="42.98323" lon="0.55898">
        <ele>670.451</ele>
        <time>2021-02-27T08:23:38Z</time>
      </trkpt>
      <trkpt lat="42.98323" lon="0.55898">
        <ele>670.45</ele>
        <time>2021-02-27T08:23:40Z</time>
      </trkpt>
      <trkpt lat="42.98323" lon="0.55898">
        <ele>670.45</ele>
        <time>2021-02-27T08:23:42Z</time>
      </trkpt>
      <trkpt lat="42.98323" lon="0.55898">
        <ele>670.45</ele>
        <time>2021-02-27T08:23:44Z</time>
      </trkpt>
      <trkpt lat="42.98323" lon="0.55898">
        <ele>670.452</ele>
        <time>2021-02-27T08:23:46Z</time>
      </trkpt>
      <trkpt lat="42.98323" lon="0.55898">
        <ele>670.459</ele>
        <time>2021-02-27T08:23:48Z</time>
      </trkpt>
      <trkpt lat="42.98323" lon="0.55898">
        <ele>670.466</ele>
        <time>2021-02-27T08:23:50Z</time>
      </trkpt>
      <trkpt lat="42.98323" lon="0.55898">
        <ele>670.469</ele>
        <time>2021-02-27T08:23:52Z</time>
      </trkpt>
      <trkpt lat="42.98323" lon="0.55898">
        <ele>670.489</ele>
        <time>2021-02-27T08:23:54Z</time>
      </trkpt>
      <trkpt lat="42.98323" lon="0.55898">
        <ele>670.532</ele>
        <time>2021-02-27T08:23:56Z</time>
      </trkpt>
      <trkpt lat="42.98323" lon="0.55898">
        <ele>670.894</ele>
        <time>2021-02-27T08:23:58Z</time>
      </trkpt>
      <trkpt lat="42.98323" lon="0.55898">
        <ele>671.402</ele>
        <time>2021-02-27T08:24:00Z</time>
      </trkpt>
      <trkpt lat="42.98322" lon="0.55898">
        <ele>671.49</ele>
        <time>2021-02-27T08:24:02Z</time>
      </trkpt>
      <trkpt lat="42.98322" lon="0.55898">
        <ele>671.494</ele>
        <time>2021-02-27T08:24:04Z</time>
      </trkpt>
      <trkpt lat="42.98322" lon="0.55898">
        <ele>671.499</ele>
        <time>2021-02-27T08:24:06Z</time>
      </trkpt>
      <trkpt lat="42.98322" lon="0.55898">
        <ele>671.504</ele>
        <time>2021-02-27T08:24:08Z</time>
      </trkpt>
      <trkpt lat="42.98322" lon="0.55898">
        <ele>671.507</ele>
        <time>2021-02-27T08:24:10Z</time>
      </trkpt>
      <trkpt lat="42.98322" lon="0.55898">
        <ele>671.583</ele>
        <time>2021-02-27T08:24:12Z</time>
      </trkpt>
      <trkpt lat="42.98322" lon="0.55897">
        <ele>671.572</ele>
        <time>2021-02-27T08:24:14Z</time>
      </trkpt>
      <trkpt lat="42.98322" lon="0.55896">
        <ele>671.197</ele>
        <time>2021-02-27T08:24:16Z</time>
      </trkpt>
      <trkpt lat="42.98322" lon="0.55896">
        <ele>671.144</ele>
        <time>2021-02-27T08:24:18Z</time>
      </trkpt>
      <trkpt lat="42.98321" lon="0.55895">
        <ele>671.301</ele>
        <time>2021-02-27T08:24:20Z</time>
      </trkpt>
      <trkpt lat="42.98319" lon="0.55895">
        <ele>669.915</ele>
        <time>2021-02-27T08:24:22Z</time>
      </trkpt>
      <trkpt lat="42.98317" lon="0.55896">
        <ele>669.439</ele>
        <time>2021-02-27T08:24:24Z</time>
      </trkpt>
      <trkpt lat="42.98315" lon="0.55897">
        <ele>669.08</ele>
        <time>2021-02-27T08:24:26Z</time>
      </trkpt>
      <trkpt lat="42.98313" lon="0.55897">
        <ele>667.225</ele>
        <time>2021-02-27T08:24:28Z</time>
      </trkpt>
      <trkpt lat="42.98311" lon="0.55897">
        <ele>667.033</ele>
        <time>2021-02-27T08:24:30Z</time>
      </trkpt>
      <trkpt lat="42.9831" lon="0.55897">
        <ele>666.699</ele>
        <time>2021-02-27T08:24:32Z</time>
      </trkpt>
      <trkpt lat="42.98309" lon="0.55897">
        <ele>665.638</ele>
        <time>2021-02-27T08:24:34Z</time>
      </trkpt>
      <trkpt lat="42.98308" lon="0.55898">
        <ele>665.958</ele>
        <time>2021-02-27T08:24:36Z</time>
      </trkpt>
      <trkpt lat="42.98306" lon="0.55899">
        <ele>665.45</ele>
        <time>2021-02-27T08:24:38Z</time>
      </trkpt>
      <trkpt lat="42.98305" lon="0.559">
        <ele>666.052</ele>
        <time>2021-02-27T08:24:40Z</time>
      </trkpt>
      <trkpt lat="42.98304" lon="0.55902">
        <ele>666.667</ele>
        <time>2021-02-27T08:24:42Z</time>
      </trkpt>
      <trkpt lat="42.98302" lon="0.55905">
        <ele>667.717</ele>
        <time>2021-02-27T08:24:44Z</time>
      </trkpt>
      <trkpt lat="42.98301" lon="0.55907">
        <ele>667.882</ele>
        <time>2021-02-27T08:24:46Z</time>
      </trkpt>
      <trkpt lat="42.983" lon="0.55908">
        <ele>669.061</ele>
        <time>2021-02-27T08:24:48Z</time>
      </trkpt>
      <trkpt lat="42.98299" lon="0.5591">
        <ele>669.017</ele>
        <time>2021-02-27T08:24:50Z</time>
      </trkpt>
      <trkpt lat="42.98298" lon="0.55912">
        <ele>670.311</ele>
        <time>2021-02-27T08:24:52Z</time>
      </trkpt>
      <trkpt lat="42.98296" lon="0.55913">
        <ele>670.329</ele>
        <time>2021-02-27T08:24:54Z</time>
      </trkpt>
      <trkpt lat="42.98295" lon="0.55915">
        <ele>672.037</ele>
        <time>2021-02-27T08:24:56Z</time>
      </trkpt>
      <trkpt lat="42.98295" lon="0.55916">
        <ele>673.58</ele>
        <time>2021-02-27T08:24:58Z</time>
      </trkpt>
      <trkpt lat="42.98294" lon="0.55918">
        <ele>674.489</ele>
        <time>2021-02-27T08:25:00Z</time>
      </trkpt>
      <trkpt lat="42.98292" lon="0.55919">
        <ele>675.178</ele>
        <time>2021-02-27T08:25:02Z</time>
      </trkpt>
      <trkpt lat="42.98291" lon="0.55921">
        <ele>676.511</ele>
        <time>2021-02-27T08:25:04Z</time>
      </trkpt>
      <trkpt lat="42.98289" lon="0.55922">
        <ele>677.844</ele>
        <time>2021-02-27T08:25:06Z</time>
      </trkpt>
      <trkpt lat="42.98288" lon="0.55924">
        <ele>679.996</ele>
        <time>2021-02-27T08:25:08Z</time>
      </trkpt>
      <trkpt lat="42.98286" lon="0.55926">
        <ele>681.767</ele>
        <time>2021-02-27T08:25:10Z</time>
      </trkpt>
      <trkpt lat="42.98284" lon="0.55927">
        <ele>682.988</ele>
        <time>2021-02-27T08:25:12Z</time>
      </trkpt>
      <trkpt lat="42.98282" lon="0.55928">
        <ele>683.746</ele>
        <time>2021-02-27T08:25:14Z</time>
      </trkpt>
      <trkpt lat="42.98281" lon="0.55929">
        <ele>683.577</ele>
        <time>2021-02-27T08:25:16Z</time>
      </trkpt>
      <trkpt lat="42.9828" lon="0.55931">
        <ele>682.68</ele>
        <time>2021-02-27T08:25:18Z</time>
      </trkpt>
      <trkpt lat="42.98278" lon="0.55933">
        <ele>682.543</ele>
        <time>2021-02-27T08:25:20Z</time>
      </trkpt>
      <trkpt lat="42.98277" lon="0.55934">
        <ele>681.591</ele>
        <time>2021-02-27T08:25:22Z</time>
      </trkpt>
      <trkpt lat="42.98275" lon="0.55937">
        <ele>682.79</ele>
        <time>2021-02-27T08:25:24Z</time>
      </trkpt>
      <trkpt lat="42.98274" lon="0.55938">
        <ele>682.67</ele>
        <time>2021-02-27T08:25:26Z</time>
      </trkpt>
      <trkpt lat="42.98273" lon="0.5594">
        <ele>682.275</ele>
        <time>2021-02-27T08:25:28Z</time>
      </trkpt>
      <trkpt lat="42.98272" lon="0.55942">
        <ele>683.619</ele>
        <time>2021-02-27T08:25:30Z</time>
      </trkpt>
      <trkpt lat="42.9827" lon="0.55942">
        <ele>685.355</ele>
        <time>2021-02-27T08:25:32Z</time>
      </trkpt>
      <trkpt lat="42.98268" lon="0.55943">
        <ele>685.482</ele>
        <time>2021-02-27T08:25:34Z</time>
      </trkpt>
      <trkpt lat="42.98267" lon="0.55946">
        <ele>685.596</ele>
        <time>2021-02-27T08:25:36Z</time>
      </trkpt>
      <trkpt lat="42.98266" lon="0.55948">
        <ele>685.248</ele>
        <time>2021-02-27T08:25:38Z</time>
      </trkpt>
      <trkpt lat="42.98265" lon="0.5595">
        <ele>684.444</ele>
        <time>2021-02-27T08:25:40Z</time>
      </trkpt>
      <trkpt lat="42.98264" lon="0.55951">
        <ele>683.932</ele>
        <time>2021-02-27T08:25:42Z</time>
      </trkpt>
      <trkpt lat="42.98262" lon="0.55953">
        <ele>684.235</ele>
        <time>2021-02-27T08:25:44Z</time>
      </trkpt>
      <trkpt lat="42.98261" lon="0.55955">
        <ele>683.79</ele>
        <time>2021-02-27T08:25:46Z</time>
      </trkpt>
      <trkpt lat="42.98259" lon="0.55957">
        <ele>683.463</ele>
        <time>2021-02-27T08:25:48Z</time>
      </trkpt>
      <trkpt lat="42.98258" lon="0.5596">
        <ele>683.683</ele>
        <time>2021-02-27T08:25:50Z</time>
      </trkpt>
      <trkpt lat="42.98258" lon="0.55963">
        <ele>684.575</ele>
        <time>2021-02-27T08:25:52Z</time>
      </trkpt>
      <trkpt lat="42.98257" lon="0.55966">
        <ele>684.274</ele>
        <time>2021-02-27T08:25:54Z</time>
      </trkpt>
      <trkpt lat="42.98255" lon="0.55969">
        <ele>686.726</ele>
        <time>2021-02-27T08:25:56Z</time>
      </trkpt>
      <trkpt lat="42.98254" lon="0.55972">
        <ele>686.969</ele>
        <time>2021-02-27T08:25:58Z</time>
      </trkpt>
      <trkpt lat="42.98253" lon="0.55974">
        <ele>688.593</ele>
        <time>2021-02-27T08:26:00Z</time>
      </trkpt>
      <trkpt lat="42.98251" lon="0.55977">
        <ele>688.622</ele>
        <time>2021-02-27T08:26:02Z</time>
      </trkpt>
      <trkpt lat="42.9825" lon="0.55979">
        <ele>687.876</ele>
        <time>2021-02-27T08:26:04Z</time>
      </trkpt>
      <trkpt lat="42.98249" lon="0.55981">
        <ele>687.557</ele>
        <time>2021-02-27T08:26:06Z</time>
      </trkpt>
      <trkpt lat="42.98247" lon="0.55984">
        <ele>686.562</ele>
        <time>2021-02-27T08:26:08Z</time>
      </trkpt>
      <trkpt lat="42.98246" lon="0.55986">
        <ele>684.646</ele>
        <time>2021-02-27T08:26:10Z</time>
      </trkpt>
      <trkpt lat="42.98244" lon="0.55988">
        <ele>685.248</ele>
        <time>2021-02-27T08:26:12Z</time>
      </trkpt>
      <trkpt lat="42.98243" lon="0.5599">
        <ele>684.847</ele>
        <time>2021-02-27T08:26:14Z</time>
      </trkpt>
      <trkpt lat="42.98241" lon="0.55992">
        <ele>683.674</ele>
        <time>2021-02-27T08:26:16Z</time>
      </trkpt>
      <trkpt lat="42.9824" lon="0.55994">
        <ele>684.484</ele>
        <time>2021-02-27T08:26:18Z</time>
      </trkpt>
      <trkpt lat="42.98239" lon="0.55996">
        <ele>683.128</ele>
        <time>2021-02-27T08:26:20Z</time>
      </trkpt>
      <trkpt lat="42.98237" lon="0.55999">
        <ele>683.627</ele>
        <time>2021-02-27T08:26:22Z</time>
      </trkpt>
      <trkpt lat="42.98236" lon="0.56">
        <ele>682.31</ele>
        <time>2021-02-27T08:26:24Z</time>
      </trkpt>
      <trkpt lat="42.98235" lon="0.56002">
        <ele>682.384</ele>
        <time>2021-02-27T08:26:26Z</time>
      </trkpt>
      <trkpt lat="42.98233" lon="0.56003">
        <ele>682.057</ele>
        <time>2021-02-27T08:26:28Z</time>
      </trkpt>
      <trkpt lat="42.98232" lon="0.56004">
        <ele>680.742</ele>
        <time>2021-02-27T08:26:30Z</time>
      </trkpt>
      <trkpt lat="42.9823" lon="0.56005">
        <ele>681.611</ele>
        <time>2021-02-27T08:26:32Z</time>
      </trkpt>
      <trkpt lat="42.98229" lon="0.56007">
        <ele>681.688</ele>
        <time>2021-02-27T08:26:34Z</time>
      </trkpt>
      <trkpt lat="42.98228" lon="0.56008">
        <ele>681.294</ele>
        <time>2021-02-27T08:26:36Z</time>
      </trkpt>
      <trkpt lat="42.98227" lon="0.56009">
        <ele>681.528</ele>
        <time>2021-02-27T08:26:38Z</time>
      </trkpt>
      <trkpt lat="42.98225" lon="0.5601">
        <ele>681.528</ele>
        <time>2021-02-27T08:26:40Z</time>
      </trkpt>
      <trkpt lat="42.98223" lon="0.5601">
        <ele>681.426</ele>
        <time>2021-02-27T08:26:42Z</time>
      </trkpt>
      <trkpt lat="42.98221" lon="0.56011">
        <ele>681.708</ele>
        <time>2021-02-27T08:26:44Z</time>
      </trkpt>
      <trkpt lat="42.98219" lon="0.56012">
        <ele>679.286</ele>
        <time>2021-02-27T08:26:46Z</time>
      </trkpt>
      <trkpt lat="42.98217" lon="0.56013">
        <ele>679.126</ele>
        <time>2021-02-27T08:26:48Z</time>
      </trkpt>
      <trkpt lat="42.98216" lon="0.56015">
        <ele>679.581</ele>
        <time>2021-02-27T08:26:50Z</time>
      </trkpt>
      <trkpt lat="42.98215" lon="0.56017">
        <ele>679.024</ele>
        <time>2021-02-27T08:26:52Z</time>
      </trkpt>
      <trkpt lat="42.98214" lon="0.56018">
        <ele>679.335</ele>
        <time>2021-02-27T08:26:54Z</time>
      </trkpt>
      <trkpt lat="42.98213" lon="0.56019">
        <ele>680.674</ele>
        <time>2021-02-27T08:26:56Z</time>
      </trkpt>
      <trkpt lat="42.98212" lon="0.56021">
        <ele>680.445</ele>
        <time>2021-02-27T08:26:58Z</time>
      </trkpt>
      <trkpt lat="42.98211" lon="0.56022">
        <ele>681.563</ele>
        <time>2021-02-27T08:27:00Z</time>
      </trkpt>
      <trkpt lat="42.9821" lon="0.56023">
        <ele>681.04</ele>
        <time>2021-02-27T08:27:02Z</time>
      </trkpt>
      <trkpt lat="42.98208" lon="0.56024">
        <ele>679.207</ele>
        <time>2021-02-27T08:27:04Z</time>
      </trkpt>
      <trkpt lat="42.98207" lon="0.56025">
        <ele>679.521</ele>
        <time>2021-02-27T08:27:06Z</time>
      </trkpt>
      <trkpt lat="42.98206" lon="0.56026">
        <ele>679.879</ele>
        <time>2021-02-27T08:27:08Z</time>
      </trkpt>
      <trkpt lat="42.98205" lon="0.56026">
        <ele>679.729</ele>
        <time>2021-02-27T08:27:10Z</time>
      </trkpt>
      <trkpt lat="42.98204" lon="0.56028">
        <ele>680.909</ele>
        <time>2021-02-27T08:27:12Z</time>
      </trkpt>
      <trkpt lat="42.98204" lon="0.5603">
        <ele>681.18</ele>
        <time>2021-02-27T08:27:14Z</time>
      </trkpt>
      <trkpt lat="42.98204" lon="0.56031">
        <ele>680.926</ele>
        <time>2021-02-27T08:27:16Z</time>
      </trkpt>
      <trkpt lat="42.98203" lon="0.56032">
        <ele>682.157</ele>
        <time>2021-02-27T08:27:18Z</time>
      </trkpt>
      <trkpt lat="42.98202" lon="0.56034">
        <ele>683.121</ele>
        <time>2021-02-27T08:27:20Z</time>
      </trkpt>
      <trkpt lat="42.98201" lon="0.56035">
        <ele>684.2</ele>
        <time>2021-02-27T08:27:22Z</time>
      </trkpt>
      <trkpt lat="42.982" lon="0.56036">
        <ele>683.78</ele>
        <time>2021-02-27T08:27:24Z</time>
      </trkpt>
      <trkpt lat="42.98198" lon="0.56037">
        <ele>684.233</ele>
        <time>2021-02-27T08:27:26Z</time>
      </trkpt>
      <trkpt lat="42.98196" lon="0.56037">
        <ele>685.288</ele>
        <time>2021-02-27T08:27:28Z</time>
      </trkpt>
      <trkpt lat="42.98195" lon="0.56039">
        <ele>684.639</ele>
        <time>2021-02-27T08:27:30Z</time>
      </trkpt>
      <trkpt lat="42.98194" lon="0.5604">
        <ele>686.034</ele>
        <time>2021-02-27T08:27:32Z</time>
      </trkpt>
      <trkpt lat="42.98192" lon="0.56042">
        <ele>686.607</ele>
        <time>2021-02-27T08:27:34Z</time>
      </trkpt>
      <trkpt lat="42.98191" lon="0.56043">
        <ele>686.441</ele>
        <time>2021-02-27T08:27:36Z</time>
      </trkpt>
      <trkpt lat="42.9819" lon="0.56046">
        <ele>687.537</ele>
        <time>2021-02-27T08:27:38Z</time>
      </trkpt>
      <trkpt lat="42.98189" lon="0.56047">
        <ele>687.549</ele>
        <time>2021-02-27T08:27:40Z</time>
      </trkpt>
      <trkpt lat="42.98187" lon="0.56048">
        <ele>688.488</ele>
        <time>2021-02-27T08:27:42Z</time>
      </trkpt>
      <trkpt lat="42.98186" lon="0.56049">
        <ele>690.197</ele>
        <time>2021-02-27T08:27:44Z</time>
      </trkpt>
      <trkpt lat="42.98185" lon="0.56051">
        <ele>689.801</ele>
        <time>2021-02-27T08:27:46Z</time>
      </trkpt>
      <trkpt lat="42.98184" lon="0.56052">
        <ele>690.021</ele>
        <time>2021-02-27T08:27:48Z</time>
      </trkpt>
      <trkpt lat="42.98183" lon="0.56053">
        <ele>691.828</ele>
        <time>2021-02-27T08:27:50Z</time>
      </trkpt>
      <trkpt lat="42.98182" lon="0.56056">
        <ele>691.441</ele>
        <time>2021-02-27T08:27:52Z</time>
      </trkpt>
      <trkpt lat="42.98181" lon="0.56057">
        <ele>691.615</ele>
        <time>2021-02-27T08:27:54Z</time>
      </trkpt>
      <trkpt lat="42.9818" lon="0.5606">
        <ele>692.096</ele>
        <time>2021-02-27T08:27:56Z</time>
      </trkpt>
      <trkpt lat="42.98178" lon="0.56062">
        <ele>694.772</ele>
        <time>2021-02-27T08:27:58Z</time>
      </trkpt>
      <trkpt lat="42.98177" lon="0.56063">
        <ele>694.146</ele>
        <time>2021-02-27T08:28:00Z</time>
      </trkpt>
      <trkpt lat="42.98175" lon="0.56066">
        <ele>693.189</ele>
        <time>2021-02-27T08:28:02Z</time>
      </trkpt>
      <trkpt lat="42.98174" lon="0.56068">
        <ele>693.002</ele>
        <time>2021-02-27T08:28:04Z</time>
      </trkpt>
      <trkpt lat="42.98173" lon="0.56069">
        <ele>693.302</ele>
        <time>2021-02-27T08:28:06Z</time>
      </trkpt>
      <trkpt lat="42.98172" lon="0.5607">
        <ele>692.986</ele>
        <time>2021-02-27T08:28:08Z</time>
      </trkpt>
      <trkpt lat="42.98171" lon="0.56072">
        <ele>692.85</ele>
        <time>2021-02-27T08:28:10Z</time>
      </trkpt>
      <trkpt lat="42.9817" lon="0.56073">
        <ele>692.48</ele>
        <time>2021-02-27T08:28:12Z</time>
      </trkpt>
      <trkpt lat="42.98169" lon="0.56073">
        <ele>692.667</ele>
        <time>2021-02-27T08:28:14Z</time>
      </trkpt>
      <trkpt lat="42.98168" lon="0.56075">
        <ele>692.342</ele>
        <time>2021-02-27T08:28:16Z</time>
      </trkpt>
      <trkpt lat="42.98167" lon="0.56077">
        <ele>691.335</ele>
        <time>2021-02-27T08:28:18Z</time>
      </trkpt>
      <trkpt lat="42.98166" lon="0.56078">
        <ele>692.039</ele>
        <time>2021-02-27T08:28:20Z</time>
      </trkpt>
      <trkpt lat="42.98165" lon="0.5608">
        <ele>692.127</ele>
        <time>2021-02-27T08:28:22Z</time>
      </trkpt>
      <trkpt lat="42.98164" lon="0.56082">
        <ele>692.653</ele>
        <time>2021-02-27T08:28:24Z</time>
      </trkpt>
      <trkpt lat="42.98163" lon="0.56084">
        <ele>692.749</ele>
        <time>2021-02-27T08:28:26Z</time>
      </trkpt>
      <trkpt lat="42.98161" lon="0.56084">
        <ele>693.669</ele>
        <time>2021-02-27T08:28:28Z</time>
      </trkpt>
      <trkpt lat="42.98161" lon="0.56085">
        <ele>694.188</ele>
        <time>2021-02-27T08:28:30Z</time>
      </trkpt>
      <trkpt lat="42.98159" lon="0.56087">
        <ele>694.295</ele>
        <time>2021-02-27T08:28:32Z</time>
      </trkpt>
      <trkpt lat="42.98158" lon="0.56088">
        <ele>695.974</ele>
        <time>2021-02-27T08:28:34Z</time>
      </trkpt>
      <trkpt lat="42.98157" lon="0.56089">
        <ele>695.796</ele>
        <time>2021-02-27T08:28:36Z</time>
      </trkpt>
      <trkpt lat="42.98155" lon="0.56091">
        <ele>696.977</ele>
        <time>2021-02-27T08:28:38Z</time>
      </trkpt>
      <trkpt lat="42.98154" lon="0.56091">
        <ele>696.441</ele>
        <time>2021-02-27T08:28:40Z</time>
      </trkpt>
      <trkpt lat="42.98152" lon="0.56092">
        <ele>697.757</ele>
        <time>2021-02-27T08:28:42Z</time>
      </trkpt>
      <trkpt lat="42.98151" lon="0.56093">
        <ele>698.045</ele>
        <time>2021-02-27T08:28:44Z</time>
      </trkpt>
      <trkpt lat="42.98149" lon="0.56094">
        <ele>698.307</ele>
        <time>2021-02-27T08:28:46Z</time>
      </trkpt>
      <trkpt lat="42.98148" lon="0.56094">
        <ele>697.756</ele>
        <time>2021-02-27T08:28:48Z</time>
      </trkpt>
      <trkpt lat="42.98145" lon="0.56095">
        <ele>696.525</ele>
        <time>2021-02-27T08:28:50Z</time>
      </trkpt>
      <trkpt lat="42.98143" lon="0.56095">
        <ele>694.79</ele>
        <time>2021-02-27T08:28:52Z</time>
      </trkpt>
      <trkpt lat="42.98142" lon="0.56096">
        <ele>693.855</ele>
        <time>2021-02-27T08:28:54Z</time>
      </trkpt>
      <trkpt lat="42.98141" lon="0.56097">
        <ele>693.79</ele>
        <time>2021-02-27T08:28:56Z</time>
      </trkpt>
      <trkpt lat="42.98139" lon="0.56098">
        <ele>694.961</ele>
        <time>2021-02-27T08:28:58Z</time>
      </trkpt>
      <trkpt lat="42.98138" lon="0.56098">
        <ele>694.899</ele>
        <time>2021-02-27T08:29:00Z</time>
      </trkpt>
      <trkpt lat="42.98137" lon="0.561">
        <ele>694.796</ele>
        <time>2021-02-27T08:29:02Z</time>
      </trkpt>
      <trkpt lat="42.98136" lon="0.56101">
        <ele>695.207</ele>
        <time>2021-02-27T08:29:04Z</time>
      </trkpt>
      <trkpt lat="42.98135" lon="0.56101">
        <ele>694.809</ele>
        <time>2021-02-27T08:29:06Z</time>
      </trkpt>
      <trkpt lat="42.98134" lon="0.56102">
        <ele>696.585</ele>
        <time>2021-02-27T08:29:08Z</time>
      </trkpt>
      <trkpt lat="42.98133" lon="0.56103">
        <ele>697.216</ele>
        <time>2021-02-27T08:29:10Z</time>
      </trkpt>
      <trkpt lat="42.98132" lon="0.56105">
        <ele>698.111</ele>
        <time>2021-02-27T08:29:12Z</time>
      </trkpt>
      <trkpt lat="42.98131" lon="0.56106">
        <ele>697.889</ele>
        <time>2021-02-27T08:29:14Z</time>
      </trkpt>
      <trkpt lat="42.98129" lon="0.56107">
        <ele>698.931</ele>
        <time>2021-02-27T08:29:16Z</time>
      </trkpt>
      <trkpt lat="42.98128" lon="0.56108">
        <ele>698.705</ele>
        <time>2021-02-27T08:29:18Z</time>
      </trkpt>
      <trkpt lat="42.98127" lon="0.56109">
        <ele>699.587</ele>
        <time>2021-02-27T08:29:20Z</time>
      </trkpt>
      <trkpt lat="42.98126" lon="0.56111">
        <ele>699.871</ele>
        <time>2021-02-27T08:29:22Z</time>
      </trkpt>
      <trkpt lat="42.98125" lon="0.56112">
        <ele>700.263</ele>
        <time>2021-02-27T08:29:24Z</time>
      </trkpt>
      <trkpt lat="42.98123" lon="0.56113">
        <ele>701.31</ele>
        <time>2021-02-27T08:29:26Z</time>
      </trkpt>
      <trkpt lat="42.98122" lon="0.56115">
        <ele>700.82</ele>
        <time>2021-02-27T08:29:28Z</time>
      </trkpt>
      <trkpt lat="42.98121" lon="0.56116">
        <ele>701.784</ele>
        <time>2021-02-27T08:29:30Z</time>
      </trkpt>
      <trkpt lat="42.9812" lon="0.56118">
        <ele>702.759</ele>
        <time>2021-02-27T08:29:32Z</time>
      </trkpt>
      <trkpt lat="42.9812" lon="0.56119">
        <ele>703.177</ele>
        <time>2021-02-27T08:29:34Z</time>
      </trkpt>
      <trkpt lat="42.98118" lon="0.5612">
        <ele>703.768</ele>
        <time>2021-02-27T08:29:36Z</time>
      </trkpt>
      <trkpt lat="42.98117" lon="0.56121">
        <ele>705.223</ele>
        <time>2021-02-27T08:29:38Z</time>
      </trkpt>
      <trkpt lat="42.98116" lon="0.56122">
        <ele>704.89</ele>
        <time>2021-02-27T08:29:40Z</time>
      </trkpt>
      <trkpt lat="42.98115" lon="0.56122">
        <ele>705.742</ele>
        <time>2021-02-27T08:29:42Z</time>
      </trkpt>
      <trkpt lat="42.98114" lon="0.56123">
        <ele>705.999</ele>
        <time>2021-02-27T08:29:44Z</time>
      </trkpt>
      <trkpt lat="42.98114" lon="0.56124">
        <ele>704.898</ele>
        <time>2021-02-27T08:29:46Z</time>
      </trkpt>
      <trkpt lat="42.98113" lon="0.56125">
        <ele>705.854</ele>
        <time>2021-02-27T08:29:48Z</time>
      </trkpt>
      <trkpt lat="42.98112" lon="0.56126">
        <ele>706.61</ele>
        <time>2021-02-27T08:29:50Z</time>
      </trkpt>
      <trkpt lat="42.98111" lon="0.56127">
        <ele>706.391</ele>
        <time>2021-02-27T08:29:52Z</time>
      </trkpt>
      <trkpt lat="42.9811" lon="0.56128">
        <ele>706.438</ele>
        <time>2021-02-27T08:29:54Z</time>
      </trkpt>
      <trkpt lat="42.98108" lon="0.56129">
        <ele>707.619</ele>
        <time>2021-02-27T08:29:56Z</time>
      </trkpt>
      <trkpt lat="42.98108" lon="0.5613">
        <ele>707.633</ele>
        <time>2021-02-27T08:29:58Z</time>
      </trkpt>
      <trkpt lat="42.98106" lon="0.5613">
        <ele>707.924</ele>
        <time>2021-02-27T08:30:00Z</time>
      </trkpt>
      <trkpt lat="42.98105" lon="0.56131">
        <ele>708.5</ele>
        <time>2021-02-27T08:30:02Z</time>
      </trkpt>
      <trkpt lat="42.98104" lon="0.56131">
        <ele>709.517</ele>
        <time>2021-02-27T08:30:04Z</time>
      </trkpt>
      <trkpt lat="42.98102" lon="0.56131">
        <ele>710.382</ele>
        <time>2021-02-27T08:30:06Z</time>
      </trkpt>
      <trkpt lat="42.98101" lon="0.56132">
        <ele>710.997</ele>
        <time>2021-02-27T08:30:08Z</time>
      </trkpt>
      <trkpt lat="42.981" lon="0.56133">
        <ele>711.407</ele>
        <time>2021-02-27T08:30:10Z</time>
      </trkpt>
      <trkpt lat="42.98099" lon="0.56133">
        <ele>711.032</ele>
        <time>2021-02-27T08:30:12Z</time>
      </trkpt>
      <trkpt lat="42.98097" lon="0.56134">
        <ele>711.556</ele>
        <time>2021-02-27T08:30:14Z</time>
      </trkpt>
      <trkpt lat="42.98096" lon="0.56135">
        <ele>712.518</ele>
        <time>2021-02-27T08:30:16Z</time>
      </trkpt>
      <trkpt lat="42.98095" lon="0.56136">
        <ele>713.46</ele>
        <time>2021-02-27T08:30:18Z</time>
      </trkpt>
      <trkpt lat="42.98093" lon="0.56138">
        <ele>713.656</ele>
        <time>2021-02-27T08:30:20Z</time>
      </trkpt>
      <trkpt lat="42.98091" lon="0.56138">
        <ele>713.58</ele>
        <time>2021-02-27T08:30:22Z</time>
      </trkpt>
      <trkpt lat="42.9809" lon="0.5614">
        <ele>714.575</ele>
        <time>2021-02-27T08:30:24Z</time>
      </trkpt>
      <trkpt lat="42.98088" lon="0.5614">
        <ele>715.409</ele>
        <time>2021-02-27T08:30:26Z</time>
      </trkpt>
      <trkpt lat="42.98087" lon="0.56141">
        <ele>715.624</ele>
        <time>2021-02-27T08:30:28Z</time>
      </trkpt>
      <trkpt lat="42.98086" lon="0.56142">
        <ele>715.735</ele>
        <time>2021-02-27T08:30:30Z</time>
      </trkpt>
      <trkpt lat="42.98085" lon="0.56143">
        <ele>715.292</ele>
        <time>2021-02-27T08:30:32Z</time>
      </trkpt>
      <trkpt lat="42.98084" lon="0.56143">
        <ele>714.254</ele>
        <time>2021-02-27T08:30:34Z</time>
      </trkpt>
      <trkpt lat="42.98084" lon="0.56144">
        <ele>714.843</ele>
        <time>2021-02-27T08:30:36Z</time>
      </trkpt>
      <trkpt lat="42.98083" lon="0.56144">
        <ele>715.202</ele>
        <time>2021-02-27T08:30:38Z</time>
      </trkpt>
      <trkpt lat="42.98083" lon="0.56145">
        <ele>716.095</ele>
        <time>2021-02-27T08:30:40Z</time>
      </trkpt>
      <trkpt lat="42.98081" lon="0.56145">
        <ele>716.363</ele>
        <time>2021-02-27T08:30:42Z</time>
      </trkpt>
      <trkpt lat="42.9808" lon="0.56147">
        <ele>716.9</ele>
        <time>2021-02-27T08:30:44Z</time>
      </trkpt>
      <trkpt lat="42.98078" lon="0.56148">
        <ele>716.897</ele>
        <time>2021-02-27T08:30:46Z</time>
      </trkpt>
      <trkpt lat="42.98077" lon="0.56149">
        <ele>716.369</ele>
        <time>2021-02-27T08:30:48Z</time>
      </trkpt>
      <trkpt lat="42.98076" lon="0.56151">
        <ele>717.494</ele>
        <time>2021-02-27T08:30:50Z</time>
      </trkpt>
      <trkpt lat="42.98075" lon="0.56152">
        <ele>718.498</ele>
        <time>2021-02-27T08:30:52Z</time>
      </trkpt>
      <trkpt lat="42.98074" lon="0.56153">
        <ele>718.798</ele>
        <time>2021-02-27T08:30:54Z</time>
      </trkpt>
      <trkpt lat="42.98073" lon="0.56155">
        <ele>719.51</ele>
        <time>2021-02-27T08:30:56Z</time>
      </trkpt>
      <trkpt lat="42.98072" lon="0.56156">
        <ele>719.16</ele>
        <time>2021-02-27T08:30:58Z</time>
      </trkpt>
      <trkpt lat="42.98071" lon="0.56158">
        <ele>719.955</ele>
        <time>2021-02-27T08:31:00Z</time>
      </trkpt>
      <trkpt lat="42.9807" lon="0.56158">
        <ele>720.792</ele>
        <time>2021-02-27T08:31:02Z</time>
      </trkpt>
      <trkpt lat="42.98069" lon="0.56159">
        <ele>720.462</ele>
        <time>2021-02-27T08:31:04Z</time>
      </trkpt>
      <trkpt lat="42.98068" lon="0.56161">
        <ele>720.705</ele>
        <time>2021-02-27T08:31:06Z</time>
      </trkpt>
      <trkpt lat="42.98067" lon="0.56162">
        <ele>721.016</ele>
        <time>2021-02-27T08:31:08Z</time>
      </trkpt>
      <trkpt lat="42.98066" lon="0.56164">
        <ele>721.043</ele>
        <time>2021-02-27T08:31:10Z</time>
      </trkpt>
      <trkpt lat="42.98065" lon="0.56166">
        <ele>722.874</ele>
        <time>2021-02-27T08:31:12Z</time>
      </trkpt>
      <trkpt lat="42.98064" lon="0.56167">
        <ele>723.877</ele>
        <time>2021-02-27T08:31:14Z</time>
      </trkpt>
      <trkpt lat="42.98063" lon="0.56168">
        <ele>724.455</ele>
        <time>2021-02-27T08:31:16Z</time>
      </trkpt>
      <trkpt lat="42.98061" lon="0.5617">
        <ele>727.221</ele>
        <time>2021-02-27T08:31:18Z</time>
      </trkpt>
      <trkpt lat="42.9806" lon="0.56172">
        <ele>728.556</ele>
        <time>2021-02-27T08:31:20Z</time>
      </trkpt>
      <trkpt lat="42.98059" lon="0.56173">
        <ele>730.014</ele>
        <time>2021-02-27T08:31:22Z</time>
      </trkpt>
      <trkpt lat="42.98058" lon="0.56175">
        <ele>730.413</ele>
        <time>2021-02-27T08:31:24Z</time>
      </trkpt>
      <trkpt lat="42.98057" lon="0.56177">
        <ele>731.168</ele>
        <time>2021-02-27T08:31:26Z</time>
      </trkpt>
      <trkpt lat="42.98056" lon="0.56179">
        <ele>730.62</ele>
        <time>2021-02-27T08:31:28Z</time>
      </trkpt>
      <trkpt lat="42.98055" lon="0.56181">
        <ele>731.136</ele>
        <time>2021-02-27T08:31:30Z</time>
      </trkpt>
      <trkpt lat="42.98053" lon="0.56182">
        <ele>731.91</ele>
        <time>2021-02-27T08:31:32Z</time>
      </trkpt>
      <trkpt lat="42.98052" lon="0.56183">
        <ele>730.5</ele>
        <time>2021-02-27T08:31:34Z</time>
      </trkpt>
      <trkpt lat="42.9805" lon="0.56184">
        <ele>731.375</ele>
        <time>2021-02-27T08:31:36Z</time>
      </trkpt>
      <trkpt lat="42.98049" lon="0.56186">
        <ele>731.063</ele>
        <time>2021-02-27T08:31:38Z</time>
      </trkpt>
      <trkpt lat="42.98048" lon="0.56187">
        <ele>731.736</ele>
        <time>2021-02-27T08:31:40Z</time>
      </trkpt>
      <trkpt lat="42.98046" lon="0.56188">
        <ele>732.478</ele>
        <time>2021-02-27T08:31:42Z</time>
      </trkpt>
      <trkpt lat="42.98045" lon="0.56189">
        <ele>732.864</ele>
        <time>2021-02-27T08:31:44Z</time>
      </trkpt>
      <trkpt lat="42.98044" lon="0.5619">
        <ele>732.525</ele>
        <time>2021-02-27T08:31:46Z</time>
      </trkpt>
      <trkpt lat="42.98042" lon="0.56191">
        <ele>733.619</ele>
        <time>2021-02-27T08:31:48Z</time>
      </trkpt>
      <trkpt lat="42.98041" lon="0.56192">
        <ele>734.044</ele>
        <time>2021-02-27T08:31:50Z</time>
      </trkpt>
      <trkpt lat="42.9804" lon="0.56193">
        <ele>734.537</ele>
        <time>2021-02-27T08:31:52Z</time>
      </trkpt>
      <trkpt lat="42.98039" lon="0.56193">
        <ele>736.623</ele>
        <time>2021-02-27T08:31:54Z</time>
      </trkpt>
      <trkpt lat="42.98038" lon="0.56194">
        <ele>735.737</ele>
        <time>2021-02-27T08:31:56Z</time>
      </trkpt>
      <trkpt lat="42.98037" lon="0.56195">
        <ele>735.862</ele>
        <time>2021-02-27T08:31:58Z</time>
      </trkpt>
      <trkpt lat="42.98035" lon="0.56196">
        <ele>736.144</ele>
        <time>2021-02-27T08:32:00Z</time>
      </trkpt>
      <trkpt lat="42.98034" lon="0.56197">
        <ele>736.148</ele>
        <time>2021-02-27T08:32:02Z</time>
      </trkpt>
      <trkpt lat="42.98033" lon="0.56198">
        <ele>736.727</ele>
        <time>2021-02-27T08:32:04Z</time>
      </trkpt>
      <trkpt lat="42.98032" lon="0.56199">
        <ele>735.924</ele>
        <time>2021-02-27T08:32:06Z</time>
      </trkpt>
      <trkpt lat="42.9803" lon="0.562">
        <ele>735.574</ele>
        <time>2021-02-27T08:32:08Z</time>
      </trkpt>
      <trkpt lat="42.98029" lon="0.56201">
        <ele>737.069</ele>
        <time>2021-02-27T08:32:10Z</time>
      </trkpt>
      <trkpt lat="42.98028" lon="0.56201">
        <ele>736.904</ele>
        <time>2021-02-27T08:32:12Z</time>
      </trkpt>
      <trkpt lat="42.98027" lon="0.56201">
        <ele>736.359</ele>
        <time>2021-02-27T08:32:14Z</time>
      </trkpt>
      <trkpt lat="42.98026" lon="0.56202">
        <ele>738.036</ele>
        <time>2021-02-27T08:32:16Z</time>
      </trkpt>
      <trkpt lat="42.98024" lon="0.56202">
        <ele>737.979</ele>
        <time>2021-02-27T08:32:18Z</time>
      </trkpt>
      <trkpt lat="42.98023" lon="0.56203">
        <ele>739.419</ele>
        <time>2021-02-27T08:32:20Z</time>
      </trkpt>
      <trkpt lat="42.98023" lon="0.56203">
        <ele>739.503</ele>
        <time>2021-02-27T08:32:22Z</time>
      </trkpt>
      <trkpt lat="42.98022" lon="0.56204">
        <ele>738.968</ele>
        <time>2021-02-27T08:32:24Z</time>
      </trkpt>
      <trkpt lat="42.98021" lon="0.56203">
        <ele>738.966</ele>
        <time>2021-02-27T08:32:26Z</time>
      </trkpt>
      <trkpt lat="42.98022" lon="0.56203">
        <ele>739.265</ele>
        <time>2021-02-27T08:32:28Z</time>
      </trkpt>
      <trkpt lat="42.98022" lon="0.56201">
        <ele>739.131</ele>
        <time>2021-02-27T08:32:30Z</time>
      </trkpt>
      <trkpt lat="42.98022" lon="0.562">
        <ele>739.122</ele>
        <time>2021-02-27T08:32:32Z</time>
      </trkpt>
      <trkpt lat="42.98023" lon="0.56199">
        <ele>739.357</ele>
        <time>2021-02-27T08:32:34Z</time>
      </trkpt>
      <trkpt lat="42.98023" lon="0.56199">
        <ele>739.219</ele>
        <time>2021-02-27T08:32:36Z</time>
      </trkpt>
      <trkpt lat="42.98024" lon="0.56197">
        <ele>739.843</ele>
        <time>2021-02-27T08:32:38Z</time>
      </trkpt>
      <trkpt lat="42.98024" lon="0.56196">
        <ele>740.021</ele>
        <time>2021-02-27T08:32:40Z</time>
      </trkpt>
      <trkpt lat="42.98024" lon="0.56195">
        <ele>740.123</ele>
        <time>2021-02-27T08:32:42Z</time>
      </trkpt>
      <trkpt lat="42.98024" lon="0.56194">
        <ele>739.32</ele>
        <time>2021-02-27T08:32:44Z</time>
      </trkpt>
      <trkpt lat="42.98025" lon="0.56193">
        <ele>740.94</ele>
        <time>2021-02-27T08:32:46Z</time>
      </trkpt>
      <trkpt lat="42.98026" lon="0.56192">
        <ele>742.451</ele>
        <time>2021-02-27T08:32:48Z</time>
      </trkpt>
      <trkpt lat="42.98027" lon="0.56192">
        <ele>744.902</ele>
        <time>2021-02-27T08:32:50Z</time>
      </trkpt>
      <trkpt lat="42.98027" lon="0.56192">
        <ele>745.934</ele>
        <time>2021-02-27T08:32:52Z</time>
      </trkpt>
      <trkpt lat="42.98028" lon="0.56191">
        <ele>747.241</ele>
        <time>2021-02-27T08:32:54Z</time>
      </trkpt>
      <trkpt lat="42.98029" lon="0.5619">
        <ele>749.292</ele>
        <time>2021-02-27T08:32:56Z</time>
      </trkpt>
      <trkpt lat="42.9803" lon="0.56189">
        <ele>750.791</ele>
        <time>2021-02-27T08:32:58Z</time>
      </trkpt>
      <trkpt lat="42.9803" lon="0.56188">
        <ele>752.093</ele>
        <time>2021-02-27T08:33:00Z</time>
      </trkpt>
      <trkpt lat="42.98031" lon="0.56186">
        <ele>753.899</ele>
        <time>2021-02-27T08:33:02Z</time>
      </trkpt>
      <trkpt lat="42.98031" lon="0.56185">
        <ele>754.345</ele>
        <time>2021-02-27T08:33:04Z</time>
      </trkpt>
      <trkpt lat="42.98032" lon="0.56185">
        <ele>755.496</ele>
        <time>2021-02-27T08:33:06Z</time>
      </trkpt>
      <trkpt lat="42.98033" lon="0.56184">
        <ele>757.524</ele>
        <time>2021-02-27T08:33:08Z</time>
      </trkpt>
      <trkpt lat="42.98033" lon="0.56183">
        <ele>759.535</ele>
        <time>2021-02-27T08:33:10Z</time>
      </trkpt>
      <trkpt lat="42.98034" lon="0.56182">
        <ele>761.961</ele>
        <time>2021-02-27T08:33:12Z</time>
      </trkpt>
      <trkpt lat="42.98034" lon="0.5618">
        <ele>762.3</ele>
        <time>2021-02-27T08:33:14Z</time>
      </trkpt>
      <trkpt lat="42.98035" lon="0.56179">
        <ele>763.027</ele>
        <time>2021-02-27T08:33:16Z</time>
      </trkpt>
      <trkpt lat="42.98036" lon="0.56179">
        <ele>764.978</ele>
        <time>2021-02-27T08:33:18Z</time>
      </trkpt>
      <trkpt lat="42.98036" lon="0.56178">
        <ele>765.519</ele>
        <time>2021-02-27T08:33:20Z</time>
      </trkpt>
      <trkpt lat="42.98037" lon="0.56176">
        <ele>767.602</ele>
        <time>2021-02-27T08:33:22Z</time>
      </trkpt>
      <trkpt lat="42.98038" lon="0.56175">
        <ele>768.578</ele>
        <time>2021-02-27T08:33:24Z</time>
      </trkpt>
      <trkpt lat="42.98038" lon="0.56172">
        <ele>768.637</ele>
        <time>2021-02-27T08:33:26Z</time>
      </trkpt>
      <trkpt lat="42.98038" lon="0.5617">
        <ele>768.514</ele>
        <time>2021-02-27T08:33:28Z</time>
      </trkpt>
      <trkpt lat="42.98038" lon="0.56168">
        <ele>768.592</ele>
        <time>2021-02-27T08:33:30Z</time>
      </trkpt>
      <trkpt lat="42.98038" lon="0.56167">
        <ele>768.958</ele>
        <time>2021-02-27T08:33:32Z</time>
      </trkpt>
      <trkpt lat="42.98038" lon="0.56165">
        <ele>767.305</ele>
        <time>2021-02-27T08:33:34Z</time>
      </trkpt>
      <trkpt lat="42.98038" lon="0.56162">
        <ele>766.601</ele>
        <time>2021-02-27T08:33:36Z</time>
      </trkpt>
      <trkpt lat="42.98037" lon="0.56159">
        <ele>766.092</ele>
        <time>2021-02-27T08:33:38Z</time>
      </trkpt>
      <trkpt lat="42.98038" lon="0.56158">
        <ele>767.056</ele>
        <time>2021-02-27T08:33:40Z</time>
      </trkpt>
      <trkpt lat="42.98038" lon="0.56156">
        <ele>766.547</ele>
        <time>2021-02-27T08:33:42Z</time>
      </trkpt>
      <trkpt lat="42.98038" lon="0.56155">
        <ele>766.632</ele>
        <time>2021-02-27T08:33:44Z</time>
      </trkpt>
      <trkpt lat="42.98038" lon="0.56153">
        <ele>766.923</ele>
        <time>2021-02-27T08:33:46Z</time>
      </trkpt>
      <trkpt lat="42.98038" lon="0.56151">
        <ele>767.982</ele>
        <time>2021-02-27T08:33:48Z</time>
      </trkpt>
      <trkpt lat="42.98039" lon="0.5615">
        <ele>769.882</ele>
        <time>2021-02-27T08:33:50Z</time>
      </trkpt>
      <trkpt lat="42.98039" lon="0.56148">
        <ele>770.175</ele>
        <time>2021-02-27T08:33:52Z</time>
      </trkpt>
      <trkpt lat="42.98041" lon="0.56145">
        <ele>771.708</ele>
        <time>2021-02-27T08:33:54Z</time>
      </trkpt>
      <trkpt lat="42.98041" lon="0.56143">
        <ele>772.406</ele>
        <time>2021-02-27T08:33:56Z</time>
      </trkpt>
      <trkpt lat="42.98042" lon="0.56142">
        <ele>774.084</ele>
        <time>2021-02-27T08:33:58Z</time>
      </trkpt>
      <trkpt lat="42.98042" lon="0.56139">
        <ele>775.239</ele>
        <time>2021-02-27T08:34:00Z</time>
      </trkpt>
      <trkpt lat="42.98042" lon="0.56137">
        <ele>775.356</ele>
        <time>2021-02-27T08:34:02Z</time>
      </trkpt>
      <trkpt lat="42.98042" lon="0.56136">
        <ele>776.014</ele>
        <time>2021-02-27T08:34:04Z</time>
      </trkpt>
      <trkpt lat="42.98042" lon="0.56134">
        <ele>775.832</ele>
        <time>2021-02-27T08:34:06Z</time>
      </trkpt>
      <trkpt lat="42.98042" lon="0.56133">
        <ele>775.707</ele>
        <time>2021-02-27T08:34:08Z</time>
      </trkpt>
      <trkpt lat="42.98042" lon="0.56131">
        <ele>776.172</ele>
        <time>2021-02-27T08:34:10Z</time>
      </trkpt>
      <trkpt lat="42.98042" lon="0.56129">
        <ele>777.378</ele>
        <time>2021-02-27T08:34:12Z</time>
      </trkpt>
      <trkpt lat="42.98043" lon="0.56128">
        <ele>777.807</ele>
        <time>2021-02-27T08:34:14Z</time>
      </trkpt>
      <trkpt lat="42.98043" lon="0.56127">
        <ele>778.079</ele>
        <time>2021-02-27T08:34:16Z</time>
      </trkpt>
      <trkpt lat="42.98043" lon="0.56125">
        <ele>777.802</ele>
        <time>2021-02-27T08:34:18Z</time>
      </trkpt>
      <trkpt lat="42.98044" lon="0.56123">
        <ele>778.742</ele>
        <time>2021-02-27T08:34:20Z</time>
      </trkpt>
      <trkpt lat="42.98044" lon="0.56122">
        <ele>777.75</ele>
        <time>2021-02-27T08:34:22Z</time>
      </trkpt>
      <trkpt lat="42.98044" lon="0.5612">
        <ele>778.764</ele>
        <time>2021-02-27T08:34:24Z</time>
      </trkpt>
      <trkpt lat="42.98044" lon="0.56118">
        <ele>780.526</ele>
        <time>2021-02-27T08:34:26Z</time>
      </trkpt>
      <trkpt lat="42.98043" lon="0.56116">
        <ele>780.011</ele>
        <time>2021-02-27T08:34:28Z</time>
      </trkpt>
      <trkpt lat="42.98043" lon="0.56113">
        <ele>780.153</ele>
        <time>2021-02-27T08:34:30Z</time>
      </trkpt>
      <trkpt lat="42.98044" lon="0.56111">
        <ele>781.403</ele>
        <time>2021-02-27T08:34:32Z</time>
      </trkpt>
      <trkpt lat="42.98044" lon="0.5611">
        <ele>781.753</ele>
        <time>2021-02-27T08:34:34Z</time>
      </trkpt>
      <trkpt lat="42.98043" lon="0.56109">
        <ele>781.912</ele>
        <time>2021-02-27T08:34:36Z</time>
      </trkpt>
      <trkpt lat="42.98044" lon="0.56107">
        <ele>782.57</ele>
        <time>2021-02-27T08:34:38Z</time>
      </trkpt>
      <trkpt lat="42.98043" lon="0.56106">
        <ele>782.768</ele>
        <time>2021-02-27T08:34:40Z</time>
      </trkpt>
      <trkpt lat="42.98044" lon="0.56104">
        <ele>785.485</ele>
        <time>2021-02-27T08:34:42Z</time>
      </trkpt>
      <trkpt lat="42.98043" lon="0.56102">
        <ele>785.823</ele>
        <time>2021-02-27T08:34:44Z</time>
      </trkpt>
      <trkpt lat="42.98042" lon="0.561">
        <ele>784.753</ele>
        <time>2021-02-27T08:34:46Z</time>
      </trkpt>
      <trkpt lat="42.98041" lon="0.56099">
        <ele>784.667</ele>
        <time>2021-02-27T08:34:48Z</time>
      </trkpt>
      <trkpt lat="42.98041" lon="0.56099">
        <ele>784.858</ele>
        <time>2021-02-27T08:34:50Z</time>
      </trkpt>
      <trkpt lat="42.98041" lon="0.56099">
        <ele>784.862</ele>
        <time>2021-02-27T08:34:52Z</time>
      </trkpt>
      <trkpt lat="42.98041" lon="0.56099">
        <ele>784.87</ele>
        <time>2021-02-27T08:34:54Z</time>
      </trkpt>
      <trkpt lat="42.98041" lon="0.56099">
        <ele>784.875</ele>
        <time>2021-02-27T08:34:56Z</time>
      </trkpt>
      <trkpt lat="42.98041" lon="0.56099">
        <ele>784.877</ele>
        <time>2021-02-27T08:34:58Z</time>
      </trkpt>
      <trkpt lat="42.98041" lon="0.56099">
        <ele>784.882</ele>
        <time>2021-02-27T08:35:00Z</time>
      </trkpt>
      <trkpt lat="42.98041" lon="0.56099">
        <ele>784.876</ele>
        <time>2021-02-27T08:35:02Z</time>
      </trkpt>
      <trkpt lat="42.98041" lon="0.56099">
        <ele>784.841</ele>
        <time>2021-02-27T08:35:04Z</time>
      </trkpt>
      <trkpt lat="42.98041" lon="0.56099">
        <ele>784.804</ele>
        <time>2021-02-27T08:35:06Z</time>
      </trkpt>
      <trkpt lat="42.98041" lon="0.56099">
        <ele>784.814</ele>
        <time>2021-02-27T08:35:08Z</time>
      </trkpt>
      <trkpt lat="42.98041" lon="0.56099">
        <ele>784.815</ele>
        <time>2021-02-27T08:35:10Z</time>
      </trkpt>
      <trkpt lat="42.98041" lon="0.56099">
        <ele>784.811</ele>
        <time>2021-02-27T08:35:12Z</time>
      </trkpt>
      <trkpt lat="42.98041" lon="0.56099">
        <ele>784.789</ele>
        <time>2021-02-27T08:35:14Z</time>
      </trkpt>
      <trkpt lat="42.98041" lon="0.56099">
        <ele>784.775</ele>
        <time>2021-02-27T08:35:16Z</time>
      </trkpt>
      <trkpt lat="42.98041" lon="0.56099">
        <ele>784.741</ele>
        <time>2021-02-27T08:35:18Z</time>
      </trkpt>
      <trkpt lat="42.98041" lon="0.56099">
        <ele>784.737</ele>
        <time>2021-02-27T08:35:20Z</time>
      </trkpt>
      <trkpt lat="42.98041" lon="0.56099">
        <ele>784.742</ele>
        <time>2021-02-27T08:35:22Z</time>
      </trkpt>
      <trkpt lat="42.9804" lon="0.56098">
        <ele>784.687</ele>
        <time>2021-02-27T08:35:24Z</time>
      </trkpt>
      <trkpt lat="42.9804" lon="0.56098">
        <ele>784.657</ele>
        <time>2021-02-27T08:35:26Z</time>
      </trkpt>
      <trkpt lat="42.9804" lon="0.56098">
        <ele>784.647</ele>
        <time>2021-02-27T08:35:28Z</time>
      </trkpt>
      <trkpt lat="42.9804" lon="0.56098">
        <ele>784.645</ele>
        <time>2021-02-27T08:35:30Z</time>
      </trkpt>
      <trkpt lat="42.9804" lon="0.56098">
        <ele>784.659</ele>
        <time>2021-02-27T08:35:32Z</time>
      </trkpt>
      <trkpt lat="42.9804" lon="0.56098">
        <ele>784.67</ele>
        <time>2021-02-27T08:35:34Z</time>
      </trkpt>
      <trkpt lat="42.9804" lon="0.56098">
        <ele>784.676</ele>
        <time>2021-02-27T08:35:36Z</time>
      </trkpt>
      <trkpt lat="42.9804" lon="0.56098">
        <ele>784.681</ele>
        <time>2021-02-27T08:35:38Z</time>
      </trkpt>
      <trkpt lat="42.9804" lon="0.56098">
        <ele>784.681</ele>
        <time>2021-02-27T08:35:40Z</time>
      </trkpt>
      <trkpt lat="42.9804" lon="0.56098">
        <ele>784.684</ele>
        <time>2021-02-27T08:35:42Z</time>
      </trkpt>
      <trkpt lat="42.9804" lon="0.56098">
        <ele>784.682</ele>
        <time>2021-02-27T08:35:44Z</time>
      </trkpt>
      <trkpt lat="42.9804" lon="0.56098">
        <ele>784.68</ele>
        <time>2021-02-27T08:35:46Z</time>
      </trkpt>
      <trkpt lat="42.9804" lon="0.56098">
        <ele>784.68</ele>
        <time>2021-02-27T08:35:48Z</time>
      </trkpt>
      <trkpt lat="42.9804" lon="0.56098">
        <ele>784.682</ele>
        <time>2021-02-27T08:35:50Z</time>
      </trkpt>
      <trkpt lat="42.9804" lon="0.56098">
        <ele>784.681</ele>
        <time>2021-02-27T08:35:52Z</time>
      </trkpt>
      <trkpt lat="42.9804" lon="0.56098">
        <ele>784.681</ele>
        <time>2021-02-27T08:35:54Z</time>
      </trkpt>
      <trkpt lat="42.9804" lon="0.56098">
        <ele>784.679</ele>
        <time>2021-02-27T08:35:56Z</time>
      </trkpt>
      <trkpt lat="42.9804" lon="0.56098">
        <ele>784.673</ele>
        <time>2021-02-27T08:35:58Z</time>
      </trkpt>
      <trkpt lat="42.9804" lon="0.56098">
        <ele>784.669</ele>
        <time>2021-02-27T08:36:00Z</time>
      </trkpt>
      <trkpt lat="42.9804" lon="0.56098">
        <ele>784.662</ele>
        <time>2021-02-27T08:36:02Z</time>
      </trkpt>
      <trkpt lat="42.9804" lon="0.56098">
        <ele>784.65</ele>
        <time>2021-02-27T08:36:04Z</time>
      </trkpt>
      <trkpt lat="42.9804" lon="0.56098">
        <ele>784.639</ele>
        <time>2021-02-27T08:36:06Z</time>
      </trkpt>
      <trkpt lat="42.9804" lon="0.56098">
        <ele>784.633</ele>
        <time>2021-02-27T08:36:08Z</time>
      </trkpt>
      <trkpt lat="42.9804" lon="0.56098">
        <ele>784.629</ele>
        <time>2021-02-27T08:36:10Z</time>
      </trkpt>
      <trkpt lat="42.9804" lon="0.56098">
        <ele>784.611</ele>
        <time>2021-02-27T08:36:12Z</time>
      </trkpt>
      <trkpt lat="42.9804" lon="0.56098">
        <ele>784.619</ele>
        <time>2021-02-27T08:36:14Z</time>
      </trkpt>
      <trkpt lat="42.9804" lon="0.56098">
        <ele>784.653</ele>
        <time>2021-02-27T08:36:16Z</time>
      </trkpt>
      <trkpt lat="42.9804" lon="0.56098">
        <ele>784.686</ele>
        <time>2021-02-27T08:36:18Z</time>
      </trkpt>
      <trkpt lat="42.9804" lon="0.56098">
        <ele>784.73</ele>
        <time>2021-02-27T08:36:20Z</time>
      </trkpt>
      <trkpt lat="42.9804" lon="0.56098">
        <ele>784.798</ele>
        <time>2021-02-27T08:36:22Z</time>
      </trkpt>
      <trkpt lat="42.9804" lon="0.56098">
        <ele>784.862</ele>
        <time>2021-02-27T08:36:24Z</time>
      </trkpt>
      <trkpt lat="42.9804" lon="0.56098">
        <ele>784.905</ele>
        <time>2021-02-27T08:36:26Z</time>
      </trkpt>
      <trkpt lat="42.9804" lon="0.56098">
        <ele>784.922</ele>
        <time>2021-02-27T08:36:28Z</time>
      </trkpt>
      <trkpt lat="42.9804" lon="0.56098">
        <ele>784.949</ele>
        <time>2021-02-27T08:36:30Z</time>
      </trkpt>
      <trkpt lat="42.9804" lon="0.56098">
        <ele>784.961</ele>
        <time>2021-02-27T08:36:32Z</time>
      </trkpt>
      <trkpt lat="42.9804" lon="0.56098">
        <ele>784.989</ele>
        <time>2021-02-27T08:36:34Z</time>
      </trkpt>
      <trkpt lat="42.9804" lon="0.56098">
        <ele>784.993</ele>
        <time>2021-02-27T08:36:36Z</time>
      </trkpt>
      <trkpt lat="42.9804" lon="0.56098">
        <ele>784.974</ele>
        <time>2021-02-27T08:36:38Z</time>
      </trkpt>
      <trkpt lat="42.9804" lon="0.56098">
        <ele>784.964</ele>
        <time>2021-02-27T08:36:40Z</time>
      </trkpt>
      <trkpt lat="42.9804" lon="0.56098">
        <ele>784.959</ele>
        <time>2021-02-27T08:36:42Z</time>
      </trkpt>
      <trkpt lat="42.9804" lon="0.56098">
        <ele>784.971</ele>
        <time>2021-02-27T08:36:44Z</time>
      </trkpt>
      <trkpt lat="42.9804" lon="0.56098">
        <ele>784.986</ele>
        <time>2021-02-27T08:36:46Z</time>
      </trkpt>
      <trkpt lat="42.9804" lon="0.56098">
        <ele>784.998</ele>
        <time>2021-02-27T08:36:48Z</time>
      </trkpt>
      <trkpt lat="42.9804" lon="0.56098">
        <ele>785.01</ele>
        <time>2021-02-27T08:36:50Z</time>
      </trkpt>
      <trkpt lat="42.9804" lon="0.56098">
        <ele>785.037</ele>
        <time>2021-02-27T08:36:52Z</time>
      </trkpt>
      <trkpt lat="42.9804" lon="0.56098">
        <ele>785.048</ele>
        <time>2021-02-27T08:36:54Z</time>
      </trkpt>
      <trkpt lat="42.9804" lon="0.56098">
        <ele>785.044</ele>
        <time>2021-02-27T08:36:56Z</time>
      </trkpt>
      <trkpt lat="42.9804" lon="0.56098">
        <ele>785.035</ele>
        <time>2021-02-27T08:36:58Z</time>
      </trkpt>
      <trkpt lat="42.9804" lon="0.56098">
        <ele>785.016</ele>
        <time>2021-02-27T08:37:00Z</time>
      </trkpt>
      <trkpt lat="42.9804" lon="0.56098">
        <ele>785.028</ele>
        <time>2021-02-27T08:37:02Z</time>
      </trkpt>
      <trkpt lat="42.9804" lon="0.56098">
        <ele>785.035</ele>
        <time>2021-02-27T08:37:04Z</time>
      </trkpt>
      <trkpt lat="42.9804" lon="0.56098">
        <ele>785.029</ele>
        <time>2021-02-27T08:37:06Z</time>
      </trkpt>
      <trkpt lat="42.9804" lon="0.56098">
        <ele>785.043</ele>
        <time>2021-02-27T08:37:08Z</time>
      </trkpt>
      <trkpt lat="42.9804" lon="0.56099">
        <ele>785.052</ele>
        <time>2021-02-27T08:37:10Z</time>
      </trkpt>
      <trkpt lat="42.9804" lon="0.56099">
        <ele>785.056</ele>
        <time>2021-02-27T08:37:12Z</time>
      </trkpt>
      <trkpt lat="42.9804" lon="0.56099">
        <ele>785.072</ele>
        <time>2021-02-27T08:37:14Z</time>
      </trkpt>
      <trkpt lat="42.9804" lon="0.56099">
        <ele>785.095</ele>
        <time>2021-02-27T08:37:16Z</time>
      </trkpt>
      <trkpt lat="42.9804" lon="0.56099">
        <ele>785.12</ele>
        <time>2021-02-27T08:37:18Z</time>
      </trkpt>
      <trkpt lat="42.9804" lon="0.56099">
        <ele>785.132</ele>
        <time>2021-02-27T08:37:20Z</time>
      </trkpt>
      <trkpt lat="42.9804" lon="0.56099">
        <ele>785.147</ele>
        <time>2021-02-27T08:37:22Z</time>
      </trkpt>
      <trkpt lat="42.9804" lon="0.56099">
        <ele>785.149</ele>
        <time>2021-02-27T08:37:24Z</time>
      </trkpt>
      <trkpt lat="42.9804" lon="0.56099">
        <ele>785.158</ele>
        <time>2021-02-27T08:37:26Z</time>
      </trkpt>
      <trkpt lat="42.9804" lon="0.56099">
        <ele>785.164</ele>
        <time>2021-02-27T08:37:27Z</time>
      </trkpt>
      <trkpt lat="42.9804" lon="0.56099">
        <ele>785.181</ele>
        <time>2021-02-27T08:37:30Z</time>
      </trkpt>
      <trkpt lat="42.9804" lon="0.56099">
        <ele>785.195</ele>
        <time>2021-02-27T08:37:32Z</time>
      </trkpt>
      <trkpt lat="42.9804" lon="0.56099">
        <ele>785.208</ele>
        <time>2021-02-27T08:37:34Z</time>
      </trkpt>
      <trkpt lat="42.9804" lon="0.56099">
        <ele>785.216</ele>
        <time>2021-02-27T08:37:36Z</time>
      </trkpt>
      <trkpt lat="42.9804" lon="0.56099">
        <ele>785.202</ele>
        <time>2021-02-27T08:37:38Z</time>
      </trkpt>
      <trkpt lat="42.9804" lon="0.56099">
        <ele>785.181</ele>
        <time>2021-02-27T08:37:40Z</time>
      </trkpt>
      <trkpt lat="42.9804" lon="0.56099">
        <ele>785.161</ele>
        <time>2021-02-27T08:37:42Z</time>
      </trkpt>
      <trkpt lat="42.9804" lon="0.56099">
        <ele>785.161</ele>
        <time>2021-02-27T08:37:44Z</time>
      </trkpt>
      <trkpt lat="42.9804" lon="0.56099">
        <ele>785.15</ele>
        <time>2021-02-27T08:37:46Z</time>
      </trkpt>
      <trkpt lat="42.9804" lon="0.56099">
        <ele>785.143</ele>
        <time>2021-02-27T08:37:48Z</time>
      </trkpt>
      <trkpt lat="42.9804" lon="0.56097">
        <ele>785.339</ele>
        <time>2021-02-27T08:37:50Z</time>
      </trkpt>
      <trkpt lat="42.98041" lon="0.56095">
        <ele>784.518</ele>
        <time>2021-02-27T08:37:52Z</time>
      </trkpt>
      <trkpt lat="42.9804" lon="0.56092">
        <ele>783.362</ele>
        <time>2021-02-27T08:37:54Z</time>
      </trkpt>
      <trkpt lat="42.98039" lon="0.5609">
        <ele>783.267</ele>
        <time>2021-02-27T08:37:56Z</time>
      </trkpt>
      <trkpt lat="42.98039" lon="0.56088">
        <ele>784.453</ele>
        <time>2021-02-27T08:37:58Z</time>
      </trkpt>
      <trkpt lat="42.98039" lon="0.56087">
        <ele>785.936</ele>
        <time>2021-02-27T08:38:00Z</time>
      </trkpt>
      <trkpt lat="42.9804" lon="0.56086">
        <ele>786.631</ele>
        <time>2021-02-27T08:38:02Z</time>
      </trkpt>
      <trkpt lat="42.9804" lon="0.56086">
        <ele>787.463</ele>
        <time>2021-02-27T08:38:04Z</time>
      </trkpt>
      <trkpt lat="42.9804" lon="0.56084">
        <ele>787.133</ele>
        <time>2021-02-27T08:38:06Z</time>
      </trkpt>
      <trkpt lat="42.98039" lon="0.56082">
        <ele>786.79</ele>
        <time>2021-02-27T08:38:08Z</time>
      </trkpt>
      <trkpt lat="42.98039" lon="0.56081">
        <ele>786.788</ele>
        <time>2021-02-27T08:38:10Z</time>
      </trkpt>
      <trkpt lat="42.98039" lon="0.5608">
        <ele>787.896</ele>
        <time>2021-02-27T08:38:12Z</time>
      </trkpt>
      <trkpt lat="42.9804" lon="0.56079">
        <ele>788.926</ele>
        <time>2021-02-27T08:38:14Z</time>
      </trkpt>
      <trkpt lat="42.9804" lon="0.56077">
        <ele>789.65</ele>
        <time>2021-02-27T08:38:16Z</time>
      </trkpt>
      <trkpt lat="42.9804" lon="0.56076">
        <ele>790.241</ele>
        <time>2021-02-27T08:38:18Z</time>
      </trkpt>
      <trkpt lat="42.98039" lon="0.56074">
        <ele>789.846</ele>
        <time>2021-02-27T08:38:20Z</time>
      </trkpt>
      <trkpt lat="42.98039" lon="0.56073">
        <ele>790.996</ele>
        <time>2021-02-27T08:38:22Z</time>
      </trkpt>
      <trkpt lat="42.98039" lon="0.56071">
        <ele>789.817</ele>
        <time>2021-02-27T08:38:24Z</time>
      </trkpt>
      <trkpt lat="42.9804" lon="0.56069">
        <ele>790.126</ele>
        <time>2021-02-27T08:38:26Z</time>
      </trkpt>
      <trkpt lat="42.9804" lon="0.56068">
        <ele>790.5</ele>
        <time>2021-02-27T08:38:28Z</time>
      </trkpt>
      <trkpt lat="42.9804" lon="0.56067">
        <ele>791.676</ele>
        <time>2021-02-27T08:38:30Z</time>
      </trkpt>
      <trkpt lat="42.98041" lon="0.56064">
        <ele>792.947</ele>
        <time>2021-02-27T08:38:32Z</time>
      </trkpt>
      <trkpt lat="42.98041" lon="0.56063">
        <ele>792.623</ele>
        <time>2021-02-27T08:38:34Z</time>
      </trkpt>
      <trkpt lat="42.98041" lon="0.56061">
        <ele>792.911</ele>
        <time>2021-02-27T08:38:36Z</time>
      </trkpt>
      <trkpt lat="42.98042" lon="0.56058">
        <ele>792.008</ele>
        <time>2021-02-27T08:38:38Z</time>
      </trkpt>
      <trkpt lat="42.98042" lon="0.56055">
        <ele>790.83</ele>
        <time>2021-02-27T08:38:40Z</time>
      </trkpt>
      <trkpt lat="42.98043" lon="0.56052">
        <ele>792.45</ele>
        <time>2021-02-27T08:38:42Z</time>
      </trkpt>
      <trkpt lat="42.98043" lon="0.5605">
        <ele>792.717</ele>
        <time>2021-02-27T08:38:44Z</time>
      </trkpt>
      <trkpt lat="42.98043" lon="0.56048">
        <ele>793.941</ele>
        <time>2021-02-27T08:38:46Z</time>
      </trkpt>
      <trkpt lat="42.98044" lon="0.56047">
        <ele>794.855</ele>
        <time>2021-02-27T08:38:48Z</time>
      </trkpt>
      <trkpt lat="42.98044" lon="0.56045">
        <ele>794.55</ele>
        <time>2021-02-27T08:38:50Z</time>
      </trkpt>
      <trkpt lat="42.98044" lon="0.56043">
        <ele>795.343</ele>
        <time>2021-02-27T08:38:52Z</time>
      </trkpt>
      <trkpt lat="42.98045" lon="0.56042">
        <ele>796.316</ele>
        <time>2021-02-27T08:38:54Z</time>
      </trkpt>
      <trkpt lat="42.98045" lon="0.5604">
        <ele>796.981</ele>
        <time>2021-02-27T08:38:56Z</time>
      </trkpt>
      <trkpt lat="42.98046" lon="0.56039">
        <ele>797.123</ele>
        <time>2021-02-27T08:38:58Z</time>
      </trkpt>
      <trkpt lat="42.98047" lon="0.56037">
        <ele>798.339</ele>
        <time>2021-02-27T08:39:00Z</time>
      </trkpt>
      <trkpt lat="42.98047" lon="0.56036">
        <ele>798.935</ele>
        <time>2021-02-27T08:39:02Z</time>
      </trkpt>
      <trkpt lat="42.98047" lon="0.56034">
        <ele>799.083</ele>
        <time>2021-02-27T08:39:04Z</time>
      </trkpt>
      <trkpt lat="42.98048" lon="0.56032">
        <ele>800.115</ele>
        <time>2021-02-27T08:39:06Z</time>
      </trkpt>
      <trkpt lat="42.98049" lon="0.56031">
        <ele>800.747</ele>
        <time>2021-02-27T08:39:08Z</time>
      </trkpt>
      <trkpt lat="42.98049" lon="0.56029">
        <ele>801.33</ele>
        <time>2021-02-27T08:39:10Z</time>
      </trkpt>
      <trkpt lat="42.9805" lon="0.56027">
        <ele>801.83</ele>
        <time>2021-02-27T08:39:12Z</time>
      </trkpt>
      <trkpt lat="42.98051" lon="0.56025">
        <ele>801.369</ele>
        <time>2021-02-27T08:39:14Z</time>
      </trkpt>
      <trkpt lat="42.98051" lon="0.56022">
        <ele>801.563</ele>
        <time>2021-02-27T08:39:16Z</time>
      </trkpt>
      <trkpt lat="42.98051" lon="0.56017">
        <ele>800.23</ele>
        <time>2021-02-27T08:39:18Z</time>
      </trkpt>
      <trkpt lat="42.98051" lon="0.56014">
        <ele>799.85</ele>
        <time>2021-02-27T08:39:20Z</time>
      </trkpt>
      <trkpt lat="42.98051" lon="0.56012">
        <ele>798.229</ele>
        <time>2021-02-27T08:39:21Z</time>
      </trkpt>
      <trkpt lat="42.98051" lon="0.56009">
        <ele>797.722</ele>
        <time>2021-02-27T08:39:24Z</time>
      </trkpt>
      <trkpt lat="42.98052" lon="0.56008">
        <ele>798.652</ele>
        <time>2021-02-27T08:39:26Z</time>
      </trkpt>
      <trkpt lat="42.98052" lon="0.56006">
        <ele>799.34</ele>
        <time>2021-02-27T08:39:28Z</time>
      </trkpt>
      <trkpt lat="42.98052" lon="0.56005">
        <ele>799.319</ele>
        <time>2021-02-27T08:39:30Z</time>
      </trkpt>
      <trkpt lat="42.98053" lon="0.56002">
        <ele>800.522</ele>
        <time>2021-02-27T08:39:32Z</time>
      </trkpt>
      <trkpt lat="42.98054" lon="0.55998">
        <ele>801.062</ele>
        <time>2021-02-27T08:39:34Z</time>
      </trkpt>
      <trkpt lat="42.98055" lon="0.55996">
        <ele>800.28</ele>
        <time>2021-02-27T08:39:36Z</time>
      </trkpt>
      <trkpt lat="42.98056" lon="0.55994">
        <ele>800.672</ele>
        <time>2021-02-27T08:39:38Z</time>
      </trkpt>
      <trkpt lat="42.98057" lon="0.55993">
        <ele>800.663</ele>
        <time>2021-02-27T08:39:40Z</time>
      </trkpt>
      <trkpt lat="42.98057" lon="0.55991">
        <ele>800.871</ele>
        <time>2021-02-27T08:39:42Z</time>
      </trkpt>
      <trkpt lat="42.98058" lon="0.55989">
        <ele>800.889</ele>
        <time>2021-02-27T08:39:44Z</time>
      </trkpt>
      <trkpt lat="42.9806" lon="0.55987">
        <ele>800.492</ele>
        <time>2021-02-27T08:39:46Z</time>
      </trkpt>
      <trkpt lat="42.98061" lon="0.55984">
        <ele>800.68</ele>
        <time>2021-02-27T08:39:48Z</time>
      </trkpt>
      <trkpt lat="42.98062" lon="0.55982">
        <ele>800.074</ele>
        <time>2021-02-27T08:39:50Z</time>
      </trkpt>
      <trkpt lat="42.98063" lon="0.55981">
        <ele>800.27</ele>
        <time>2021-02-27T08:39:52Z</time>
      </trkpt>
      <trkpt lat="42.98064" lon="0.55978">
        <ele>801.447</ele>
        <time>2021-02-27T08:39:54Z</time>
      </trkpt>
      <trkpt lat="42.98065" lon="0.55977">
        <ele>802.283</ele>
        <time>2021-02-27T08:39:56Z</time>
      </trkpt>
      <trkpt lat="42.98066" lon="0.55975">
        <ele>802.817</ele>
        <time>2021-02-27T08:39:58Z</time>
      </trkpt>
      <trkpt lat="42.98067" lon="0.55973">
        <ele>800.788</ele>
        <time>2021-02-27T08:40:00Z</time>
      </trkpt>
      <trkpt lat="42.98067" lon="0.5597">
        <ele>800.274</ele>
        <time>2021-02-27T08:40:02Z</time>
      </trkpt>
      <trkpt lat="42.98067" lon="0.55966">
        <ele>800.164</ele>
        <time>2021-02-27T08:40:04Z</time>
      </trkpt>
      <trkpt lat="42.98068" lon="0.55963">
        <ele>800.337</ele>
        <time>2021-02-27T08:40:06Z</time>
      </trkpt>
      <trkpt lat="42.98069" lon="0.55961">
        <ele>800.077</ele>
        <time>2021-02-27T08:40:08Z</time>
      </trkpt>
      <trkpt lat="42.9807" lon="0.55958">
        <ele>801.519</ele>
        <time>2021-02-27T08:40:10Z</time>
      </trkpt>
      <trkpt lat="42.98071" lon="0.55956">
        <ele>802.235</ele>
        <time>2021-02-27T08:40:12Z</time>
      </trkpt>
      <trkpt lat="42.98072" lon="0.55954">
        <ele>802.581</ele>
        <time>2021-02-27T08:40:14Z</time>
      </trkpt>
      <trkpt lat="42.98073" lon="0.55952">
        <ele>801.57</ele>
        <time>2021-02-27T08:40:16Z</time>
      </trkpt>
      <trkpt lat="42.98073" lon="0.5595">
        <ele>801.773</ele>
        <time>2021-02-27T08:40:18Z</time>
      </trkpt>
      <trkpt lat="42.98073" lon="0.55948">
        <ele>800.704</ele>
        <time>2021-02-27T08:40:20Z</time>
      </trkpt>
      <trkpt lat="42.98074" lon="0.55946">
        <ele>801.446</ele>
        <time>2021-02-27T08:40:22Z</time>
      </trkpt>
      <trkpt lat="42.98075" lon="0.55944">
        <ele>802.34</ele>
        <time>2021-02-27T08:40:24Z</time>
      </trkpt>
      <trkpt lat="42.98076" lon="0.55942">
        <ele>803.163</ele>
        <time>2021-02-27T08:40:26Z</time>
      </trkpt>
      <trkpt lat="42.98077" lon="0.5594">
        <ele>803.122</ele>
        <time>2021-02-27T08:40:28Z</time>
      </trkpt>
      <trkpt lat="42.98076" lon="0.55937">
        <ele>802.139</ele>
        <time>2021-02-27T08:40:30Z</time>
      </trkpt>
      <trkpt lat="42.98077" lon="0.55935">
        <ele>802.664</ele>
        <time>2021-02-27T08:40:32Z</time>
      </trkpt>
      <trkpt lat="42.98078" lon="0.55933">
        <ele>802.857</ele>
        <time>2021-02-27T08:40:34Z</time>
      </trkpt>
      <trkpt lat="42.98079" lon="0.5593">
        <ele>805.273</ele>
        <time>2021-02-27T08:40:36Z</time>
      </trkpt>
      <trkpt lat="42.98079" lon="0.55928">
        <ele>805.798</ele>
        <time>2021-02-27T08:40:38Z</time>
      </trkpt>
      <trkpt lat="42.9808" lon="0.55925">
        <ele>805.999</ele>
        <time>2021-02-27T08:40:40Z</time>
      </trkpt>
      <trkpt lat="42.98081" lon="0.55923">
        <ele>805.85</ele>
        <time>2021-02-27T08:40:42Z</time>
      </trkpt>
      <trkpt lat="42.98081" lon="0.55921">
        <ele>805.65</ele>
        <time>2021-02-27T08:40:44Z</time>
      </trkpt>
      <trkpt lat="42.98082" lon="0.5592">
        <ele>805.983</ele>
        <time>2021-02-27T08:40:46Z</time>
      </trkpt>
      <trkpt lat="42.98082" lon="0.55916">
        <ele>803.116</ele>
        <time>2021-02-27T08:40:48Z</time>
      </trkpt>
      <trkpt lat="42.98082" lon="0.55913">
        <ele>804.298</ele>
        <time>2021-02-27T08:40:50Z</time>
      </trkpt>
      <trkpt lat="42.98083" lon="0.55911">
        <ele>803.613</ele>
        <time>2021-02-27T08:40:52Z</time>
      </trkpt>
      <trkpt lat="42.98085" lon="0.55909">
        <ele>806.938</ele>
        <time>2021-02-27T08:40:54Z</time>
      </trkpt>
      <trkpt lat="42.98086" lon="0.55907">
        <ele>808.044</ele>
        <time>2021-02-27T08:40:56Z</time>
      </trkpt>
      <trkpt lat="42.98087" lon="0.55905">
        <ele>807.838</ele>
        <time>2021-02-27T08:40:58Z</time>
      </trkpt>
      <trkpt lat="42.98087" lon="0.55904">
        <ele>807.517</ele>
        <time>2021-02-27T08:41:00Z</time>
      </trkpt>
      <trkpt lat="42.98088" lon="0.55903">
        <ele>807.452</ele>
        <time>2021-02-27T08:41:02Z</time>
      </trkpt>
      <trkpt lat="42.98089" lon="0.55901">
        <ele>808.145</ele>
        <time>2021-02-27T08:41:04Z</time>
      </trkpt>
      <trkpt lat="42.9809" lon="0.55898">
        <ele>808.767</ele>
        <time>2021-02-27T08:41:06Z</time>
      </trkpt>
      <trkpt lat="42.98091" lon="0.55895">
        <ele>808.006</ele>
        <time>2021-02-27T08:41:08Z</time>
      </trkpt>
      <trkpt lat="42.98092" lon="0.55891">
        <ele>806.953</ele>
        <time>2021-02-27T08:41:10Z</time>
      </trkpt>
      <trkpt lat="42.98093" lon="0.55888">
        <ele>807.853</ele>
        <time>2021-02-27T08:41:12Z</time>
      </trkpt>
      <trkpt lat="42.98094" lon="0.55886">
        <ele>807.125</ele>
        <time>2021-02-27T08:41:14Z</time>
      </trkpt>
      <trkpt lat="42.98095" lon="0.55883">
        <ele>807.887</ele>
        <time>2021-02-27T08:41:16Z</time>
      </trkpt>
      <trkpt lat="42.98096" lon="0.55881">
        <ele>808.618</ele>
        <time>2021-02-27T08:41:18Z</time>
      </trkpt>
      <trkpt lat="42.98097" lon="0.55879">
        <ele>808.406</ele>
        <time>2021-02-27T08:41:20Z</time>
      </trkpt>
      <trkpt lat="42.98097" lon="0.55876">
        <ele>807.871</ele>
        <time>2021-02-27T08:41:22Z</time>
      </trkpt>
      <trkpt lat="42.98098" lon="0.55874">
        <ele>808.662</ele>
        <time>2021-02-27T08:41:24Z</time>
      </trkpt>
      <trkpt lat="42.98099" lon="0.55872">
        <ele>809.294</ele>
        <time>2021-02-27T08:41:26Z</time>
      </trkpt>
      <trkpt lat="42.981" lon="0.55872">
        <ele>809.851</ele>
        <time>2021-02-27T08:41:28Z</time>
      </trkpt>
      <trkpt lat="42.98101" lon="0.5587">
        <ele>809.486</ele>
        <time>2021-02-27T08:41:30Z</time>
      </trkpt>
      <trkpt lat="42.98101" lon="0.55869">
        <ele>810.366</ele>
        <time>2021-02-27T08:41:32Z</time>
      </trkpt>
      <trkpt lat="42.98103" lon="0.55868">
        <ele>813.568</ele>
        <time>2021-02-27T08:41:34Z</time>
      </trkpt>
      <trkpt lat="42.98103" lon="0.55867">
        <ele>813.716</ele>
        <time>2021-02-27T08:41:36Z</time>
      </trkpt>
      <trkpt lat="42.98104" lon="0.55865">
        <ele>814.711</ele>
        <time>2021-02-27T08:41:38Z</time>
      </trkpt>
      <trkpt lat="42.98104" lon="0.55863">
        <ele>816.226</ele>
        <time>2021-02-27T08:41:40Z</time>
      </trkpt>
      <trkpt lat="42.98105" lon="0.55859">
        <ele>816.41</ele>
        <time>2021-02-27T08:41:42Z</time>
      </trkpt>
      <trkpt lat="42.98106" lon="0.55856">
        <ele>815.703</ele>
        <time>2021-02-27T08:41:44Z</time>
      </trkpt>
      <trkpt lat="42.98107" lon="0.55854">
        <ele>817.077</ele>
        <time>2021-02-27T08:41:46Z</time>
      </trkpt>
      <trkpt lat="42.98108" lon="0.55852">
        <ele>817.764</ele>
        <time>2021-02-27T08:41:48Z</time>
      </trkpt>
      <trkpt lat="42.98109" lon="0.5585">
        <ele>817.621</ele>
        <time>2021-02-27T08:41:50Z</time>
      </trkpt>
      <trkpt lat="42.9811" lon="0.55847">
        <ele>818.071</ele>
        <time>2021-02-27T08:41:52Z</time>
      </trkpt>
      <trkpt lat="42.98111" lon="0.55845">
        <ele>817.826</ele>
        <time>2021-02-27T08:41:54Z</time>
      </trkpt>
      <trkpt lat="42.98112" lon="0.55844">
        <ele>818.733</ele>
        <time>2021-02-27T08:41:56Z</time>
      </trkpt>
      <trkpt lat="42.98113" lon="0.55841">
        <ele>819.51</ele>
        <time>2021-02-27T08:41:58Z</time>
      </trkpt>
      <trkpt lat="42.98114" lon="0.55839">
        <ele>819.819</ele>
        <time>2021-02-27T08:42:00Z</time>
      </trkpt>
      <trkpt lat="42.98114" lon="0.55837">
        <ele>819.571</ele>
        <time>2021-02-27T08:42:02Z</time>
      </trkpt>
      <trkpt lat="42.98114" lon="0.55834">
        <ele>819.535</ele>
        <time>2021-02-27T08:42:04Z</time>
      </trkpt>
      <trkpt lat="42.98114" lon="0.55832">
        <ele>818.914</ele>
        <time>2021-02-27T08:42:06Z</time>
      </trkpt>
      <trkpt lat="42.98115" lon="0.5583">
        <ele>820.05</ele>
        <time>2021-02-27T08:42:08Z</time>
      </trkpt>
      <trkpt lat="42.98115" lon="0.55827">
        <ele>820.301</ele>
        <time>2021-02-27T08:42:10Z</time>
      </trkpt>
      <trkpt lat="42.98115" lon="0.55825">
        <ele>820.395</ele>
        <time>2021-02-27T08:42:12Z</time>
      </trkpt>
      <trkpt lat="42.98114" lon="0.55823">
        <ele>821.441</ele>
        <time>2021-02-27T08:42:14Z</time>
      </trkpt>
      <trkpt lat="42.98115" lon="0.5582">
        <ele>821.942</ele>
        <time>2021-02-27T08:42:16Z</time>
      </trkpt>
      <trkpt lat="42.98116" lon="0.55817">
        <ele>822.376</ele>
        <time>2021-02-27T08:42:18Z</time>
      </trkpt>
      <trkpt lat="42.98116" lon="0.55814">
        <ele>821.87</ele>
        <time>2021-02-27T08:42:20Z</time>
      </trkpt>
      <trkpt lat="42.98117" lon="0.55813">
        <ele>822.437</ele>
        <time>2021-02-27T08:42:22Z</time>
      </trkpt>
      <trkpt lat="42.98117" lon="0.55811">
        <ele>823.278</ele>
        <time>2021-02-27T08:42:24Z</time>
      </trkpt>
      <trkpt lat="42.98118" lon="0.55809">
        <ele>823.757</ele>
        <time>2021-02-27T08:42:26Z</time>
      </trkpt>
      <trkpt lat="42.98118" lon="0.55808">
        <ele>824.087</ele>
        <time>2021-02-27T08:42:28Z</time>
      </trkpt>
      <trkpt lat="42.98119" lon="0.55807">
        <ele>824.904</ele>
        <time>2021-02-27T08:42:30Z</time>
      </trkpt>
      <trkpt lat="42.9812" lon="0.55806">
        <ele>825.226</ele>
        <time>2021-02-27T08:42:32Z</time>
      </trkpt>
      <trkpt lat="42.98121" lon="0.55805">
        <ele>827.016</ele>
        <time>2021-02-27T08:42:34Z</time>
      </trkpt>
      <trkpt lat="42.98121" lon="0.55802">
        <ele>827.326</ele>
        <time>2021-02-27T08:42:36Z</time>
      </trkpt>
      <trkpt lat="42.9812" lon="0.55798">
        <ele>825.833</ele>
        <time>2021-02-27T08:42:38Z</time>
      </trkpt>
      <trkpt lat="42.98122" lon="0.55796">
        <ele>827.264</ele>
        <time>2021-02-27T08:42:40Z</time>
      </trkpt>
      <trkpt lat="42.98122" lon="0.55794">
        <ele>827.636</ele>
        <time>2021-02-27T08:42:42Z</time>
      </trkpt>
      <trkpt lat="42.98123" lon="0.55792">
        <ele>826.732</ele>
        <time>2021-02-27T08:42:44Z</time>
      </trkpt>
      <trkpt lat="42.98123" lon="0.55791">
        <ele>827.346</ele>
        <time>2021-02-27T08:42:46Z</time>
      </trkpt>
      <trkpt lat="42.98124" lon="0.55789">
        <ele>828.349</ele>
        <time>2021-02-27T08:42:48Z</time>
      </trkpt>
      <trkpt lat="42.98125" lon="0.55788">
        <ele>828.702</ele>
        <time>2021-02-27T08:42:50Z</time>
      </trkpt>
      <trkpt lat="42.98126" lon="0.55787">
        <ele>829.805</ele>
        <time>2021-02-27T08:42:52Z</time>
      </trkpt>
      <trkpt lat="42.98127" lon="0.55786">
        <ele>830.963</ele>
        <time>2021-02-27T08:42:54Z</time>
      </trkpt>
      <trkpt lat="42.98128" lon="0.55783">
        <ele>831.171</ele>
        <time>2021-02-27T08:42:56Z</time>
      </trkpt>
      <trkpt lat="42.98128" lon="0.55779">
        <ele>830.95</ele>
        <time>2021-02-27T08:42:58Z</time>
      </trkpt>
      <trkpt lat="42.98129" lon="0.55776">
        <ele>831.508</ele>
        <time>2021-02-27T08:43:00Z</time>
      </trkpt>
      <trkpt lat="42.98129" lon="0.55774">
        <ele>831.312</ele>
        <time>2021-02-27T08:43:02Z</time>
      </trkpt>
      <trkpt lat="42.9813" lon="0.55771">
        <ele>831.812</ele>
        <time>2021-02-27T08:43:04Z</time>
      </trkpt>
      <trkpt lat="42.98131" lon="0.55768">
        <ele>831.273</ele>
        <time>2021-02-27T08:43:06Z</time>
      </trkpt>
      <trkpt lat="42.98131" lon="0.55766">
        <ele>831.588</ele>
        <time>2021-02-27T08:43:08Z</time>
      </trkpt>
      <trkpt lat="42.98131" lon="0.55763">
        <ele>831.472</ele>
        <time>2021-02-27T08:43:10Z</time>
      </trkpt>
      <trkpt lat="42.98132" lon="0.55761">
        <ele>831.609</ele>
        <time>2021-02-27T08:43:12Z</time>
      </trkpt>
      <trkpt lat="42.98133" lon="0.55759">
        <ele>833.297</ele>
        <time>2021-02-27T08:43:14Z</time>
      </trkpt>
      <trkpt lat="42.98133" lon="0.55757">
        <ele>832.974</ele>
        <time>2021-02-27T08:43:16Z</time>
      </trkpt>
      <trkpt lat="42.98133" lon="0.55756">
        <ele>833.507</ele>
        <time>2021-02-27T08:43:18Z</time>
      </trkpt>
      <trkpt lat="42.98134" lon="0.55754">
        <ele>835.614</ele>
        <time>2021-02-27T08:43:20Z</time>
      </trkpt>
      <trkpt lat="42.98135" lon="0.55753">
        <ele>836.748</ele>
        <time>2021-02-27T08:43:22Z</time>
      </trkpt>
      <trkpt lat="42.98136" lon="0.55752">
        <ele>837.07</ele>
        <time>2021-02-27T08:43:24Z</time>
      </trkpt>
      <trkpt lat="42.98137" lon="0.5575">
        <ele>838.981</ele>
        <time>2021-02-27T08:43:26Z</time>
      </trkpt>
      <trkpt lat="42.98137" lon="0.55749">
        <ele>838.81</ele>
        <time>2021-02-27T08:43:28Z</time>
      </trkpt>
      <trkpt lat="42.98137" lon="0.55747">
        <ele>839.23</ele>
        <time>2021-02-27T08:43:30Z</time>
      </trkpt>
      <trkpt lat="42.98138" lon="0.55745">
        <ele>839.996</ele>
        <time>2021-02-27T08:43:32Z</time>
      </trkpt>
      <trkpt lat="42.98138" lon="0.55742">
        <ele>838.687</ele>
        <time>2021-02-27T08:43:34Z</time>
      </trkpt>
      <trkpt lat="42.98138" lon="0.5574">
        <ele>839.109</ele>
        <time>2021-02-27T08:43:36Z</time>
      </trkpt>
      <trkpt lat="42.98139" lon="0.55736">
        <ele>837.775</ele>
        <time>2021-02-27T08:43:38Z</time>
      </trkpt>
      <trkpt lat="42.98138" lon="0.55733">
        <ele>835.79</ele>
        <time>2021-02-27T08:43:40Z</time>
      </trkpt>
      <trkpt lat="42.98138" lon="0.55732">
        <ele>835.673</ele>
        <time>2021-02-27T08:43:42Z</time>
      </trkpt>
      <trkpt lat="42.98139" lon="0.5573">
        <ele>836.845</ele>
        <time>2021-02-27T08:43:44Z</time>
      </trkpt>
      <trkpt lat="42.98139" lon="0.55729">
        <ele>838.075</ele>
        <time>2021-02-27T08:43:46Z</time>
      </trkpt>
      <trkpt lat="42.98139" lon="0.55727">
        <ele>839.367</ele>
        <time>2021-02-27T08:43:48Z</time>
      </trkpt>
      <trkpt lat="42.9814" lon="0.55725">
        <ele>839.964</ele>
        <time>2021-02-27T08:43:50Z</time>
      </trkpt>
      <trkpt lat="42.98141" lon="0.55723">
        <ele>840.478</ele>
        <time>2021-02-27T08:43:52Z</time>
      </trkpt>
      <trkpt lat="42.98142" lon="0.55722">
        <ele>841.527</ele>
        <time>2021-02-27T08:43:54Z</time>
      </trkpt>
      <trkpt lat="42.98142" lon="0.55721">
        <ele>842.536</ele>
        <time>2021-02-27T08:43:56Z</time>
      </trkpt>
      <trkpt lat="42.98143" lon="0.55719">
        <ele>842.978</ele>
        <time>2021-02-27T08:43:58Z</time>
      </trkpt>
      <trkpt lat="42.98143" lon="0.55717">
        <ele>843.215</ele>
        <time>2021-02-27T08:44:00Z</time>
      </trkpt>
      <trkpt lat="42.98143" lon="0.55715">
        <ele>841.976</ele>
        <time>2021-02-27T08:44:02Z</time>
      </trkpt>
      <trkpt lat="42.98141" lon="0.55712">
        <ele>839.374</ele>
        <time>2021-02-27T08:44:04Z</time>
      </trkpt>
      <trkpt lat="42.9814" lon="0.55709">
        <ele>837.109</ele>
        <time>2021-02-27T08:44:06Z</time>
      </trkpt>
      <trkpt lat="42.98139" lon="0.55708">
        <ele>835.672</ele>
        <time>2021-02-27T08:44:08Z</time>
      </trkpt>
      <trkpt lat="42.98138" lon="0.55706">
        <ele>834.475</ele>
        <time>2021-02-27T08:44:10Z</time>
      </trkpt>
      <trkpt lat="42.98138" lon="0.55704">
        <ele>834.173</ele>
        <time>2021-02-27T08:44:12Z</time>
      </trkpt>
      <trkpt lat="42.98138" lon="0.55701">
        <ele>835.698</ele>
        <time>2021-02-27T08:44:14Z</time>
      </trkpt>
      <trkpt lat="42.98138" lon="0.55699">
        <ele>835.71</ele>
        <time>2021-02-27T08:44:16Z</time>
      </trkpt>
      <trkpt lat="42.98139" lon="0.55698">
        <ele>837.226</ele>
        <time>2021-02-27T08:44:18Z</time>
      </trkpt>
      <trkpt lat="42.98139" lon="0.55696">
        <ele>836.532</ele>
        <time>2021-02-27T08:44:20Z</time>
      </trkpt>
      <trkpt lat="42.98139" lon="0.55695">
        <ele>837.577</ele>
        <time>2021-02-27T08:44:22Z</time>
      </trkpt>
      <trkpt lat="42.9814" lon="0.55693">
        <ele>837.599</ele>
        <time>2021-02-27T08:44:24Z</time>
      </trkpt>
      <trkpt lat="42.98141" lon="0.55692">
        <ele>837.753</ele>
        <time>2021-02-27T08:44:26Z</time>
      </trkpt>
      <trkpt lat="42.98142" lon="0.55691">
        <ele>838.488</ele>
        <time>2021-02-27T08:44:28Z</time>
      </trkpt>
      <trkpt lat="42.98143" lon="0.5569">
        <ele>840.108</ele>
        <time>2021-02-27T08:44:30Z</time>
      </trkpt>
      <trkpt lat="42.98143" lon="0.55688">
        <ele>840.931</ele>
        <time>2021-02-27T08:44:32Z</time>
      </trkpt>
      <trkpt lat="42.98144" lon="0.55684">
        <ele>840.676</ele>
        <time>2021-02-27T08:44:34Z</time>
      </trkpt>
      <trkpt lat="42.98145" lon="0.5568">
        <ele>841.802</ele>
        <time>2021-02-27T08:44:36Z</time>
      </trkpt>
      <trkpt lat="42.98146" lon="0.55678">
        <ele>843.741</ele>
        <time>2021-02-27T08:44:38Z</time>
      </trkpt>
      <trkpt lat="42.98146" lon="0.55676">
        <ele>844.729</ele>
        <time>2021-02-27T08:44:40Z</time>
      </trkpt>
      <trkpt lat="42.98148" lon="0.55675">
        <ele>845.227</ele>
        <time>2021-02-27T08:44:42Z</time>
      </trkpt>
      <trkpt lat="42.98148" lon="0.55672">
        <ele>845.132</ele>
        <time>2021-02-27T08:44:44Z</time>
      </trkpt>
      <trkpt lat="42.98149" lon="0.5567">
        <ele>845.151</ele>
        <time>2021-02-27T08:44:46Z</time>
      </trkpt>
      <trkpt lat="42.98149" lon="0.55668">
        <ele>846.293</ele>
        <time>2021-02-27T08:44:48Z</time>
      </trkpt>
      <trkpt lat="42.9815" lon="0.55666">
        <ele>846.211</ele>
        <time>2021-02-27T08:44:50Z</time>
      </trkpt>
      <trkpt lat="42.98151" lon="0.55664">
        <ele>846.488</ele>
        <time>2021-02-27T08:44:52Z</time>
      </trkpt>
      <trkpt lat="42.98151" lon="0.55661">
        <ele>846.229</ele>
        <time>2021-02-27T08:44:54Z</time>
      </trkpt>
      <trkpt lat="42.98152" lon="0.5566">
        <ele>846.141</ele>
        <time>2021-02-27T08:44:56Z</time>
      </trkpt>
      <trkpt lat="42.98153" lon="0.55658">
        <ele>847.474</ele>
        <time>2021-02-27T08:44:58Z</time>
      </trkpt>
      <trkpt lat="42.98154" lon="0.55657">
        <ele>848.438</ele>
        <time>2021-02-27T08:45:00Z</time>
      </trkpt>
      <trkpt lat="42.98155" lon="0.55655">
        <ele>849.023</ele>
        <time>2021-02-27T08:45:02Z</time>
      </trkpt>
      <trkpt lat="42.98156" lon="0.55654">
        <ele>850.407</ele>
        <time>2021-02-27T08:45:04Z</time>
      </trkpt>
      <trkpt lat="42.98156" lon="0.55652">
        <ele>851.205</ele>
        <time>2021-02-27T08:45:06Z</time>
      </trkpt>
      <trkpt lat="42.98157" lon="0.55651">
        <ele>851.601</ele>
        <time>2021-02-27T08:45:08Z</time>
      </trkpt>
      <trkpt lat="42.98158" lon="0.5565">
        <ele>851.461</ele>
        <time>2021-02-27T08:45:10Z</time>
      </trkpt>
      <trkpt lat="42.98158" lon="0.55648">
        <ele>851.347</ele>
        <time>2021-02-27T08:45:12Z</time>
      </trkpt>
      <trkpt lat="42.98158" lon="0.55647">
        <ele>852.027</ele>
        <time>2021-02-27T08:45:14Z</time>
      </trkpt>
      <trkpt lat="42.98159" lon="0.55645">
        <ele>852.483</ele>
        <time>2021-02-27T08:45:16Z</time>
      </trkpt>
      <trkpt lat="42.9816" lon="0.55643">
        <ele>853.143</ele>
        <time>2021-02-27T08:45:18Z</time>
      </trkpt>
      <trkpt lat="42.98161" lon="0.55642">
        <ele>854.096</ele>
        <time>2021-02-27T08:45:20Z</time>
      </trkpt>
      <trkpt lat="42.98162" lon="0.55641">
        <ele>855.792</ele>
        <time>2021-02-27T08:45:22Z</time>
      </trkpt>
      <trkpt lat="42.98163" lon="0.5564">
        <ele>856.73</ele>
        <time>2021-02-27T08:45:24Z</time>
      </trkpt>
      <trkpt lat="42.98163" lon="0.55636">
        <ele>854.397</ele>
        <time>2021-02-27T08:45:26Z</time>
      </trkpt>
      <trkpt lat="42.98162" lon="0.55632">
        <ele>853.611</ele>
        <time>2021-02-27T08:45:28Z</time>
      </trkpt>
      <trkpt lat="42.98162" lon="0.55628">
        <ele>852.357</ele>
        <time>2021-02-27T08:45:30Z</time>
      </trkpt>
      <trkpt lat="42.98162" lon="0.55626">
        <ele>852.181</ele>
        <time>2021-02-27T08:45:32Z</time>
      </trkpt>
      <trkpt lat="42.98162" lon="0.55624">
        <ele>851.482</ele>
        <time>2021-02-27T08:45:34Z</time>
      </trkpt>
      <trkpt lat="42.98162" lon="0.55622">
        <ele>851.226</ele>
        <time>2021-02-27T08:45:36Z</time>
      </trkpt>
      <trkpt lat="42.98162" lon="0.5562">
        <ele>850.856</ele>
        <time>2021-02-27T08:45:38Z</time>
      </trkpt>
      <trkpt lat="42.98162" lon="0.55618">
        <ele>850.174</ele>
        <time>2021-02-27T08:45:40Z</time>
      </trkpt>
      <trkpt lat="42.98162" lon="0.55616">
        <ele>849.096</ele>
        <time>2021-02-27T08:45:42Z</time>
      </trkpt>
      <trkpt lat="42.98163" lon="0.55614">
        <ele>849.696</ele>
        <time>2021-02-27T08:45:44Z</time>
      </trkpt>
      <trkpt lat="42.98163" lon="0.55613">
        <ele>849.51</ele>
        <time>2021-02-27T08:45:46Z</time>
      </trkpt>
      <trkpt lat="42.98164" lon="0.5561">
        <ele>848.911</ele>
        <time>2021-02-27T08:45:48Z</time>
      </trkpt>
      <trkpt lat="42.98165" lon="0.55608">
        <ele>849.083</ele>
        <time>2021-02-27T08:45:50Z</time>
      </trkpt>
      <trkpt lat="42.98166" lon="0.55606">
        <ele>851.18</ele>
        <time>2021-02-27T08:45:52Z</time>
      </trkpt>
      <trkpt lat="42.98167" lon="0.55605">
        <ele>852.289</ele>
        <time>2021-02-27T08:45:54Z</time>
      </trkpt>
      <trkpt lat="42.98168" lon="0.55603">
        <ele>853.681</ele>
        <time>2021-02-27T08:45:56Z</time>
      </trkpt>
      <trkpt lat="42.98168" lon="0.55601">
        <ele>854.797</ele>
        <time>2021-02-27T08:45:58Z</time>
      </trkpt>
      <trkpt lat="42.98168" lon="0.55598">
        <ele>855.361</ele>
        <time>2021-02-27T08:46:00Z</time>
      </trkpt>
      <trkpt lat="42.98169" lon="0.55597">
        <ele>856.661</ele>
        <time>2021-02-27T08:46:02Z</time>
      </trkpt>
      <trkpt lat="42.9817" lon="0.55596">
        <ele>857.18</ele>
        <time>2021-02-27T08:46:04Z</time>
      </trkpt>
      <trkpt lat="42.98171" lon="0.55595">
        <ele>857.162</ele>
        <time>2021-02-27T08:46:06Z</time>
      </trkpt>
      <trkpt lat="42.98171" lon="0.55594">
        <ele>858.163</ele>
        <time>2021-02-27T08:46:08Z</time>
      </trkpt>
      <trkpt lat="42.98173" lon="0.55591">
        <ele>860.405</ele>
        <time>2021-02-27T08:46:10Z</time>
      </trkpt>
      <trkpt lat="42.98173" lon="0.55589">
        <ele>861.554</ele>
        <time>2021-02-27T08:46:12Z</time>
      </trkpt>
      <trkpt lat="42.98174" lon="0.55587">
        <ele>861.491</ele>
        <time>2021-02-27T08:46:14Z</time>
      </trkpt>
      <trkpt lat="42.98175" lon="0.55585">
        <ele>862.282</ele>
        <time>2021-02-27T08:46:16Z</time>
      </trkpt>
      <trkpt lat="42.98176" lon="0.55584">
        <ele>863.878</ele>
        <time>2021-02-27T08:46:18Z</time>
      </trkpt>
      <trkpt lat="42.98176" lon="0.55581">
        <ele>862.35</ele>
        <time>2021-02-27T08:46:20Z</time>
      </trkpt>
      <trkpt lat="42.98177" lon="0.55578">
        <ele>862.668</ele>
        <time>2021-02-27T08:46:22Z</time>
      </trkpt>
      <trkpt lat="42.98177" lon="0.55576">
        <ele>861.783</ele>
        <time>2021-02-27T08:46:24Z</time>
      </trkpt>
      <trkpt lat="42.98177" lon="0.55574">
        <ele>861.74</ele>
        <time>2021-02-27T08:46:26Z</time>
      </trkpt>
      <trkpt lat="42.98178" lon="0.55572">
        <ele>862.445</ele>
        <time>2021-02-27T08:46:28Z</time>
      </trkpt>
      <trkpt lat="42.98179" lon="0.5557">
        <ele>862.065</ele>
        <time>2021-02-27T08:46:30Z</time>
      </trkpt>
      <trkpt lat="42.9818" lon="0.55569">
        <ele>863.559</ele>
        <time>2021-02-27T08:46:32Z</time>
      </trkpt>
      <trkpt lat="42.9818" lon="0.55567">
        <ele>863.795</ele>
        <time>2021-02-27T08:46:34Z</time>
      </trkpt>
      <trkpt lat="42.98181" lon="0.55566">
        <ele>865.814</ele>
        <time>2021-02-27T08:46:36Z</time>
      </trkpt>
      <trkpt lat="42.98182" lon="0.55564">
        <ele>867.131</ele>
        <time>2021-02-27T08:46:38Z</time>
      </trkpt>
      <trkpt lat="42.98183" lon="0.55562">
        <ele>868.363</ele>
        <time>2021-02-27T08:46:40Z</time>
      </trkpt>
      <trkpt lat="42.98184" lon="0.5556">
        <ele>868.928</ele>
        <time>2021-02-27T08:46:42Z</time>
      </trkpt>
      <trkpt lat="42.98184" lon="0.55557">
        <ele>867.912</ele>
        <time>2021-02-27T08:46:44Z</time>
      </trkpt>
      <trkpt lat="42.98185" lon="0.55555">
        <ele>868.551</ele>
        <time>2021-02-27T08:46:46Z</time>
      </trkpt>
      <trkpt lat="42.98185" lon="0.55553">
        <ele>868.06</ele>
        <time>2021-02-27T08:46:48Z</time>
      </trkpt>
      <trkpt lat="42.98186" lon="0.55552">
        <ele>868.649</ele>
        <time>2021-02-27T08:46:50Z</time>
      </trkpt>
      <trkpt lat="42.98187" lon="0.5555">
        <ele>869.522</ele>
        <time>2021-02-27T08:46:52Z</time>
      </trkpt>
      <trkpt lat="42.98188" lon="0.55549">
        <ele>870.302</ele>
        <time>2021-02-27T08:46:54Z</time>
      </trkpt>
      <trkpt lat="42.98189" lon="0.55548">
        <ele>872.318</ele>
        <time>2021-02-27T08:46:56Z</time>
      </trkpt>
      <trkpt lat="42.98189" lon="0.55543">
        <ele>870.238</ele>
        <time>2021-02-27T08:46:58Z</time>
      </trkpt>
      <trkpt lat="42.98189" lon="0.55541">
        <ele>869.389</ele>
        <time>2021-02-27T08:47:00Z</time>
      </trkpt>
      <trkpt lat="42.98189" lon="0.55537">
        <ele>868.105</ele>
        <time>2021-02-27T08:47:02Z</time>
      </trkpt>
      <trkpt lat="42.98189" lon="0.55535">
        <ele>867.66</ele>
        <time>2021-02-27T08:47:04Z</time>
      </trkpt>
      <trkpt lat="42.98189" lon="0.55532">
        <ele>866.9</ele>
        <time>2021-02-27T08:47:06Z</time>
      </trkpt>
      <trkpt lat="42.9819" lon="0.55529">
        <ele>867.696</ele>
        <time>2021-02-27T08:47:08Z</time>
      </trkpt>
      <trkpt lat="42.98191" lon="0.55527">
        <ele>867.666</ele>
        <time>2021-02-27T08:47:10Z</time>
      </trkpt>
      <trkpt lat="42.98191" lon="0.55525">
        <ele>867.338</ele>
        <time>2021-02-27T08:47:12Z</time>
      </trkpt>
      <trkpt lat="42.98192" lon="0.55522">
        <ele>868.009</ele>
        <time>2021-02-27T08:47:14Z</time>
      </trkpt>
      <trkpt lat="42.98193" lon="0.5552">
        <ele>869.854</ele>
        <time>2021-02-27T08:47:16Z</time>
      </trkpt>
      <trkpt lat="42.98194" lon="0.55518">
        <ele>872.131</ele>
        <time>2021-02-27T08:47:18Z</time>
      </trkpt>
      <trkpt lat="42.98194" lon="0.55514">
        <ele>869.849</ele>
        <time>2021-02-27T08:47:20Z</time>
      </trkpt>
      <trkpt lat="42.98194" lon="0.55512">
        <ele>871.987</ele>
        <time>2021-02-27T08:47:22Z</time>
      </trkpt>
      <trkpt lat="42.98195" lon="0.55511">
        <ele>873.821</ele>
        <time>2021-02-27T08:47:24Z</time>
      </trkpt>
      <trkpt lat="42.98196" lon="0.55509">
        <ele>874.865</ele>
        <time>2021-02-27T08:47:26Z</time>
      </trkpt>
      <trkpt lat="42.98197" lon="0.55508">
        <ele>876.056</ele>
        <time>2021-02-27T08:47:28Z</time>
      </trkpt>
      <trkpt lat="42.98197" lon="0.55506">
        <ele>876.491</ele>
        <time>2021-02-27T08:47:30Z</time>
      </trkpt>
      <trkpt lat="42.98199" lon="0.55504">
        <ele>877.932</ele>
        <time>2021-02-27T08:47:32Z</time>
      </trkpt>
      <trkpt lat="42.98199" lon="0.55502">
        <ele>877.934</ele>
        <time>2021-02-27T08:47:34Z</time>
      </trkpt>
      <trkpt lat="42.982" lon="0.55501">
        <ele>878.758</ele>
        <time>2021-02-27T08:47:36Z</time>
      </trkpt>
      <trkpt lat="42.98201" lon="0.55499">
        <ele>880.708</ele>
        <time>2021-02-27T08:47:38Z</time>
      </trkpt>
      <trkpt lat="42.98201" lon="0.55498">
        <ele>879.447</ele>
        <time>2021-02-27T08:47:40Z</time>
      </trkpt>
      <trkpt lat="42.98202" lon="0.55497">
        <ele>880.645</ele>
        <time>2021-02-27T08:47:42Z</time>
      </trkpt>
      <trkpt lat="42.98202" lon="0.55496">
        <ele>881.016</ele>
        <time>2021-02-27T08:47:44Z</time>
      </trkpt>
      <trkpt lat="42.98204" lon="0.55494">
        <ele>881.707</ele>
        <time>2021-02-27T08:47:46Z</time>
      </trkpt>
      <trkpt lat="42.98204" lon="0.55493">
        <ele>881.8</ele>
        <time>2021-02-27T08:47:48Z</time>
      </trkpt>
      <trkpt lat="42.98205" lon="0.55491">
        <ele>880.824</ele>
        <time>2021-02-27T08:47:50Z</time>
      </trkpt>
      <trkpt lat="42.98205" lon="0.55489">
        <ele>880.483</ele>
        <time>2021-02-27T08:47:52Z</time>
      </trkpt>
      <trkpt lat="42.98205" lon="0.55487">
        <ele>881.099</ele>
        <time>2021-02-27T08:47:54Z</time>
      </trkpt>
      <trkpt lat="42.98206" lon="0.55486">
        <ele>881.572</ele>
        <time>2021-02-27T08:47:56Z</time>
      </trkpt>
      <trkpt lat="42.98205" lon="0.55483">
        <ele>878.09</ele>
        <time>2021-02-27T08:47:58Z</time>
      </trkpt>
      <trkpt lat="42.98205" lon="0.55481">
        <ele>878.631</ele>
        <time>2021-02-27T08:48:00Z</time>
      </trkpt>
      <trkpt lat="42.98205" lon="0.55481">
        <ele>878.802</ele>
        <time>2021-02-27T08:48:02Z</time>
      </trkpt>
      <trkpt lat="42.98206" lon="0.5548">
        <ele>879.411</ele>
        <time>2021-02-27T08:48:04Z</time>
      </trkpt>
      <trkpt lat="42.98207" lon="0.55479">
        <ele>879.752</ele>
        <time>2021-02-27T08:48:06Z</time>
      </trkpt>
      <trkpt lat="42.98208" lon="0.55478">
        <ele>880.204</ele>
        <time>2021-02-27T08:48:08Z</time>
      </trkpt>
      <trkpt lat="42.98208" lon="0.55478">
        <ele>880.459</ele>
        <time>2021-02-27T08:48:10Z</time>
      </trkpt>
      <trkpt lat="42.98209" lon="0.55476">
        <ele>880.652</ele>
        <time>2021-02-27T08:48:12Z</time>
      </trkpt>
      <trkpt lat="42.9821" lon="0.55474">
        <ele>881.934</ele>
        <time>2021-02-27T08:48:14Z</time>
      </trkpt>
      <trkpt lat="42.98211" lon="0.55473">
        <ele>882.445</ele>
        <time>2021-02-27T08:48:16Z</time>
      </trkpt>
      <trkpt lat="42.98211" lon="0.55469">
        <ele>881.606</ele>
        <time>2021-02-27T08:48:18Z</time>
      </trkpt>
      <trkpt lat="42.98211" lon="0.55465">
        <ele>880.9</ele>
        <time>2021-02-27T08:48:20Z</time>
      </trkpt>
      <trkpt lat="42.98212" lon="0.55463">
        <ele>881.922</ele>
        <time>2021-02-27T08:48:22Z</time>
      </trkpt>
      <trkpt lat="42.98212" lon="0.55462">
        <ele>883.179</ele>
        <time>2021-02-27T08:48:24Z</time>
      </trkpt>
      <trkpt lat="42.98213" lon="0.55461">
        <ele>882.821</ele>
        <time>2021-02-27T08:48:26Z</time>
      </trkpt>
      <trkpt lat="42.98214" lon="0.5546">
        <ele>883.292</ele>
        <time>2021-02-27T08:48:28Z</time>
      </trkpt>
      <trkpt lat="42.98214" lon="0.55459">
        <ele>883.472</ele>
        <time>2021-02-27T08:48:30Z</time>
      </trkpt>
      <trkpt lat="42.98215" lon="0.55458">
        <ele>885.336</ele>
        <time>2021-02-27T08:48:32Z</time>
      </trkpt>
      <trkpt lat="42.98216" lon="0.55457">
        <ele>886.335</ele>
        <time>2021-02-27T08:48:34Z</time>
      </trkpt>
      <trkpt lat="42.98217" lon="0.55455">
        <ele>887.396</ele>
        <time>2021-02-27T08:48:36Z</time>
      </trkpt>
      <trkpt lat="42.98218" lon="0.55455">
        <ele>888.44</ele>
        <time>2021-02-27T08:48:38Z</time>
      </trkpt>
      <trkpt lat="42.98219" lon="0.55454">
        <ele>888.515</ele>
        <time>2021-02-27T08:48:40Z</time>
      </trkpt>
      <trkpt lat="42.9822" lon="0.55453">
        <ele>888.547</ele>
        <time>2021-02-27T08:48:42Z</time>
      </trkpt>
      <trkpt lat="42.9822" lon="0.55451">
        <ele>889.536</ele>
        <time>2021-02-27T08:48:44Z</time>
      </trkpt>
      <trkpt lat="42.98221" lon="0.55448">
        <ele>889.647</ele>
        <time>2021-02-27T08:48:46Z</time>
      </trkpt>
      <trkpt lat="42.98222" lon="0.55447">
        <ele>890.073</ele>
        <time>2021-02-27T08:48:48Z</time>
      </trkpt>
      <trkpt lat="42.98222" lon="0.55444">
        <ele>887.935</ele>
        <time>2021-02-27T08:48:50Z</time>
      </trkpt>
      <trkpt lat="42.98221" lon="0.55442">
        <ele>886.814</ele>
        <time>2021-02-27T08:48:52Z</time>
      </trkpt>
      <trkpt lat="42.98222" lon="0.55438">
        <ele>886.92</ele>
        <time>2021-02-27T08:48:54Z</time>
      </trkpt>
      <trkpt lat="42.98221" lon="0.55436">
        <ele>886.503</ele>
        <time>2021-02-27T08:48:56Z</time>
      </trkpt>
      <trkpt lat="42.98222" lon="0.55435">
        <ele>886.849</ele>
        <time>2021-02-27T08:48:58Z</time>
      </trkpt>
      <trkpt lat="42.98222" lon="0.55433">
        <ele>886.505</ele>
        <time>2021-02-27T08:49:00Z</time>
      </trkpt>
      <trkpt lat="42.98223" lon="0.55431">
        <ele>885.881</ele>
        <time>2021-02-27T08:49:02Z</time>
      </trkpt>
      <trkpt lat="42.98223" lon="0.5543">
        <ele>886.082</ele>
        <time>2021-02-27T08:49:04Z</time>
      </trkpt>
      <trkpt lat="42.98224" lon="0.5543">
        <ele>886.511</ele>
        <time>2021-02-27T08:49:06Z</time>
      </trkpt>
      <trkpt lat="42.98225" lon="0.55429">
        <ele>886.511</ele>
        <time>2021-02-27T08:49:07Z</time>
      </trkpt>
      <trkpt lat="42.98226" lon="0.55426">
        <ele>886.563</ele>
        <time>2021-02-27T08:49:10Z</time>
      </trkpt>
      <trkpt lat="42.98226" lon="0.55425">
        <ele>886.904</ele>
        <time>2021-02-27T08:49:12Z</time>
      </trkpt>
      <trkpt lat="42.98227" lon="0.55423">
        <ele>886.67</ele>
        <time>2021-02-27T08:49:14Z</time>
      </trkpt>
      <trkpt lat="42.98228" lon="0.55422">
        <ele>887.62</ele>
        <time>2021-02-27T08:49:16Z</time>
      </trkpt>
      <trkpt lat="42.98229" lon="0.55421">
        <ele>887.87</ele>
        <time>2021-02-27T08:49:18Z</time>
      </trkpt>
      <trkpt lat="42.9823" lon="0.5542">
        <ele>888.381</ele>
        <time>2021-02-27T08:49:20Z</time>
      </trkpt>
      <trkpt lat="42.98231" lon="0.55419">
        <ele>889.567</ele>
        <time>2021-02-27T08:49:22Z</time>
      </trkpt>
      <trkpt lat="42.98231" lon="0.55418">
        <ele>889.589</ele>
        <time>2021-02-27T08:49:24Z</time>
      </trkpt>
      <trkpt lat="42.98233" lon="0.55417">
        <ele>890.706</ele>
        <time>2021-02-27T08:49:26Z</time>
      </trkpt>
      <trkpt lat="42.98234" lon="0.55416">
        <ele>891.811</ele>
        <time>2021-02-27T08:49:28Z</time>
      </trkpt>
      <trkpt lat="42.98235" lon="0.55415">
        <ele>891.247</ele>
        <time>2021-02-27T08:49:30Z</time>
      </trkpt>
      <trkpt lat="42.98235" lon="0.55412">
        <ele>890.593</ele>
        <time>2021-02-27T08:49:32Z</time>
      </trkpt>
      <trkpt lat="42.98236" lon="0.55411">
        <ele>891.464</ele>
        <time>2021-02-27T08:49:34Z</time>
      </trkpt>
      <trkpt lat="42.98237" lon="0.55409">
        <ele>891.461</ele>
        <time>2021-02-27T08:49:36Z</time>
      </trkpt>
      <trkpt lat="42.98238" lon="0.55407">
        <ele>891.099</ele>
        <time>2021-02-27T08:49:38Z</time>
      </trkpt>
      <trkpt lat="42.98238" lon="0.55406">
        <ele>891.194</ele>
        <time>2021-02-27T08:49:40Z</time>
      </trkpt>
      <trkpt lat="42.98239" lon="0.55404">
        <ele>891.423</ele>
        <time>2021-02-27T08:49:42Z</time>
      </trkpt>
      <trkpt lat="42.98239" lon="0.55402">
        <ele>892.762</ele>
        <time>2021-02-27T08:49:44Z</time>
      </trkpt>
      <trkpt lat="42.9824" lon="0.55401">
        <ele>894.073</ele>
        <time>2021-02-27T08:49:46Z</time>
      </trkpt>
      <trkpt lat="42.98241" lon="0.55399">
        <ele>894.226</ele>
        <time>2021-02-27T08:49:48Z</time>
      </trkpt>
      <trkpt lat="42.98242" lon="0.55398">
        <ele>894.233</ele>
        <time>2021-02-27T08:49:50Z</time>
      </trkpt>
      <trkpt lat="42.98243" lon="0.55396">
        <ele>895.301</ele>
        <time>2021-02-27T08:49:52Z</time>
      </trkpt>
      <trkpt lat="42.98244" lon="0.55394">
        <ele>895.741</ele>
        <time>2021-02-27T08:49:54Z</time>
      </trkpt>
      <trkpt lat="42.98245" lon="0.55392">
        <ele>895.116</ele>
        <time>2021-02-27T08:49:56Z</time>
      </trkpt>
      <trkpt lat="42.98246" lon="0.5539">
        <ele>895.289</ele>
        <time>2021-02-27T08:49:58Z</time>
      </trkpt>
      <trkpt lat="42.98246" lon="0.55387">
        <ele>895.257</ele>
        <time>2021-02-27T08:50:00Z</time>
      </trkpt>
      <trkpt lat="42.98247" lon="0.55386">
        <ele>895.535</ele>
        <time>2021-02-27T08:50:02Z</time>
      </trkpt>
      <trkpt lat="42.98248" lon="0.55384">
        <ele>896.154</ele>
        <time>2021-02-27T08:50:04Z</time>
      </trkpt>
      <trkpt lat="42.98248" lon="0.55383">
        <ele>896.521</ele>
        <time>2021-02-27T08:50:06Z</time>
      </trkpt>
      <trkpt lat="42.98249" lon="0.55382">
        <ele>897.535</ele>
        <time>2021-02-27T08:50:08Z</time>
      </trkpt>
      <trkpt lat="42.9825" lon="0.55381">
        <ele>899.246</ele>
        <time>2021-02-27T08:50:10Z</time>
      </trkpt>
      <trkpt lat="42.98251" lon="0.5538">
        <ele>900.312</ele>
        <time>2021-02-27T08:50:12Z</time>
      </trkpt>
      <trkpt lat="42.98252" lon="0.55379">
        <ele>900.734</ele>
        <time>2021-02-27T08:50:14Z</time>
      </trkpt>
      <trkpt lat="42.98253" lon="0.55377">
        <ele>900.652</ele>
        <time>2021-02-27T08:50:16Z</time>
      </trkpt>
      <trkpt lat="42.98253" lon="0.55375">
        <ele>900.88</ele>
        <time>2021-02-27T08:50:18Z</time>
      </trkpt>
      <trkpt lat="42.98253" lon="0.55373">
        <ele>901.17</ele>
        <time>2021-02-27T08:50:20Z</time>
      </trkpt>
      <trkpt lat="42.98254" lon="0.55372">
        <ele>901.008</ele>
        <time>2021-02-27T08:50:22Z</time>
      </trkpt>
      <trkpt lat="42.98255" lon="0.55372">
        <ele>901.645</ele>
        <time>2021-02-27T08:50:24Z</time>
      </trkpt>
      <trkpt lat="42.98256" lon="0.5537">
        <ele>902.963</ele>
        <time>2021-02-27T08:50:26Z</time>
      </trkpt>
      <trkpt lat="42.98255" lon="0.55368">
        <ele>901.688</ele>
        <time>2021-02-27T08:50:28Z</time>
      </trkpt>
      <trkpt lat="42.98255" lon="0.55367">
        <ele>902.51</ele>
        <time>2021-02-27T08:50:30Z</time>
      </trkpt>
      <trkpt lat="42.98254" lon="0.55368">
        <ele>903.943</ele>
        <time>2021-02-27T08:50:32Z</time>
      </trkpt>
      <trkpt lat="42.98255" lon="0.55369">
        <ele>903.974</ele>
        <time>2021-02-27T08:50:34Z</time>
      </trkpt>
      <trkpt lat="42.98255" lon="0.5537">
        <ele>904.29</ele>
        <time>2021-02-27T08:50:36Z</time>
      </trkpt>
      <trkpt lat="42.98255" lon="0.5537">
        <ele>904.29</ele>
        <time>2021-02-27T08:50:38Z</time>
      </trkpt>
      <trkpt lat="42.98255" lon="0.5537">
        <ele>904.293</ele>
        <time>2021-02-27T08:50:40Z</time>
      </trkpt>
      <trkpt lat="42.98254" lon="0.55369">
        <ele>904.575</ele>
        <time>2021-02-27T08:50:42Z</time>
      </trkpt>
      <trkpt lat="42.98254" lon="0.55368">
        <ele>904.747</ele>
        <time>2021-02-27T08:50:44Z</time>
      </trkpt>
      <trkpt lat="42.98253" lon="0.55368">
        <ele>903.737</ele>
        <time>2021-02-27T08:50:46Z</time>
      </trkpt>
      <trkpt lat="42.98253" lon="0.55368">
        <ele>903.693</ele>
        <time>2021-02-27T08:50:48Z</time>
      </trkpt>
      <trkpt lat="42.98253" lon="0.55368">
        <ele>903.67</ele>
        <time>2021-02-27T08:50:50Z</time>
      </trkpt>
      <trkpt lat="42.98253" lon="0.55368">
        <ele>903.656</ele>
        <time>2021-02-27T08:50:52Z</time>
      </trkpt>
      <trkpt lat="42.98253" lon="0.55368">
        <ele>903.645</ele>
        <time>2021-02-27T08:50:54Z</time>
      </trkpt>
      <trkpt lat="42.98253" lon="0.55368">
        <ele>903.631</ele>
        <time>2021-02-27T08:50:56Z</time>
      </trkpt>
      <trkpt lat="42.98253" lon="0.55368">
        <ele>903.623</ele>
        <time>2021-02-27T08:50:58Z</time>
      </trkpt>
      <trkpt lat="42.98253" lon="0.55368">
        <ele>903.611</ele>
        <time>2021-02-27T08:51:00Z</time>
      </trkpt>
      <trkpt lat="42.98253" lon="0.55368">
        <ele>903.6</ele>
        <time>2021-02-27T08:51:02Z</time>
      </trkpt>
      <trkpt lat="42.98253" lon="0.55368">
        <ele>903.585</ele>
        <time>2021-02-27T08:51:04Z</time>
      </trkpt>
      <trkpt lat="42.98253" lon="0.55368">
        <ele>903.573</ele>
        <time>2021-02-27T08:51:06Z</time>
      </trkpt>
      <trkpt lat="42.98253" lon="0.55368">
        <ele>903.562</ele>
        <time>2021-02-27T08:51:08Z</time>
      </trkpt>
      <trkpt lat="42.98253" lon="0.55368">
        <ele>903.547</ele>
        <time>2021-02-27T08:51:10Z</time>
      </trkpt>
      <trkpt lat="42.98253" lon="0.55368">
        <ele>903.54</ele>
        <time>2021-02-27T08:51:12Z</time>
      </trkpt>
      <trkpt lat="42.98253" lon="0.55368">
        <ele>903.532</ele>
        <time>2021-02-27T08:51:14Z</time>
      </trkpt>
      <trkpt lat="42.98253" lon="0.55368">
        <ele>903.528</ele>
        <time>2021-02-27T08:51:16Z</time>
      </trkpt>
      <trkpt lat="42.98253" lon="0.55368">
        <ele>903.511</ele>
        <time>2021-02-27T08:51:18Z</time>
      </trkpt>
      <trkpt lat="42.98253" lon="0.55368">
        <ele>903.506</ele>
        <time>2021-02-27T08:51:20Z</time>
      </trkpt>
      <trkpt lat="42.98253" lon="0.55368">
        <ele>903.505</ele>
        <time>2021-02-27T08:51:22Z</time>
      </trkpt>
      <trkpt lat="42.98253" lon="0.55368">
        <ele>903.511</ele>
        <time>2021-02-27T08:51:24Z</time>
      </trkpt>
      <trkpt lat="42.98253" lon="0.55368">
        <ele>903.516</ele>
        <time>2021-02-27T08:51:26Z</time>
      </trkpt>
      <trkpt lat="42.98253" lon="0.55368">
        <ele>903.887</ele>
        <time>2021-02-27T08:51:28Z</time>
      </trkpt>
      <trkpt lat="42.98254" lon="0.55367">
        <ele>903.694</ele>
        <time>2021-02-27T08:51:30Z</time>
      </trkpt>
      <trkpt lat="42.98254" lon="0.55367">
        <ele>903.907</ele>
        <time>2021-02-27T08:51:32Z</time>
      </trkpt>
      <trkpt lat="42.98255" lon="0.55366">
        <ele>903.923</ele>
        <time>2021-02-27T08:51:34Z</time>
      </trkpt>
      <trkpt lat="42.98255" lon="0.55364">
        <ele>903.867</ele>
        <time>2021-02-27T08:51:36Z</time>
      </trkpt>
      <trkpt lat="42.98259" lon="0.55365">
        <ele>908.37</ele>
        <time>2021-02-27T08:51:38Z</time>
      </trkpt>
      <trkpt lat="42.9826" lon="0.55361">
        <ele>907.538</ele>
        <time>2021-02-27T08:51:40Z</time>
      </trkpt>
      <trkpt lat="42.9826" lon="0.55358">
        <ele>907.657</ele>
        <time>2021-02-27T08:51:42Z</time>
      </trkpt>
      <trkpt lat="42.98261" lon="0.55356">
        <ele>908.131</ele>
        <time>2021-02-27T08:51:44Z</time>
      </trkpt>
      <trkpt lat="42.9826" lon="0.55356">
        <ele>908.736</ele>
        <time>2021-02-27T08:51:46Z</time>
      </trkpt>
      <trkpt lat="42.9826" lon="0.55355">
        <ele>908.763</ele>
        <time>2021-02-27T08:51:48Z</time>
      </trkpt>
      <trkpt lat="42.98261" lon="0.55354">
        <ele>909.813</ele>
        <time>2021-02-27T08:51:50Z</time>
      </trkpt>
      <trkpt lat="42.98262" lon="0.55353">
        <ele>910.088</ele>
        <time>2021-02-27T08:51:52Z</time>
      </trkpt>
      <trkpt lat="42.98261" lon="0.55351">
        <ele>908.793</ele>
        <time>2021-02-27T08:51:54Z</time>
      </trkpt>
      <trkpt lat="42.98262" lon="0.5535">
        <ele>907.911</ele>
        <time>2021-02-27T08:51:56Z</time>
      </trkpt>
      <trkpt lat="42.98263" lon="0.55349">
        <ele>908.947</ele>
        <time>2021-02-27T08:51:58Z</time>
      </trkpt>
      <trkpt lat="42.98264" lon="0.55348">
        <ele>908.14</ele>
        <time>2021-02-27T08:52:00Z</time>
      </trkpt>
      <trkpt lat="42.98264" lon="0.55347">
        <ele>908.585</ele>
        <time>2021-02-27T08:52:02Z</time>
      </trkpt>
      <trkpt lat="42.98265" lon="0.55344">
        <ele>906.978</ele>
        <time>2021-02-27T08:52:04Z</time>
      </trkpt>
      <trkpt lat="42.98265" lon="0.55342">
        <ele>906.005</ele>
        <time>2021-02-27T08:52:06Z</time>
      </trkpt>
      <trkpt lat="42.98265" lon="0.55341">
        <ele>906.071</ele>
        <time>2021-02-27T08:52:08Z</time>
      </trkpt>
      <trkpt lat="42.98266" lon="0.55341">
        <ele>906.456</ele>
        <time>2021-02-27T08:52:10Z</time>
      </trkpt>
      <trkpt lat="42.98267" lon="0.5534">
        <ele>906.687</ele>
        <time>2021-02-27T08:52:12Z</time>
      </trkpt>
      <trkpt lat="42.98267" lon="0.55338">
        <ele>905.715</ele>
        <time>2021-02-27T08:52:14Z</time>
      </trkpt>
      <trkpt lat="42.98267" lon="0.55338">
        <ele>906.52</ele>
        <time>2021-02-27T08:52:16Z</time>
      </trkpt>
      <trkpt lat="42.98268" lon="0.55337">
        <ele>907.112</ele>
        <time>2021-02-27T08:52:18Z</time>
      </trkpt>
      <trkpt lat="42.98269" lon="0.55336">
        <ele>907.293</ele>
        <time>2021-02-27T08:52:20Z</time>
      </trkpt>
      <trkpt lat="42.98269" lon="0.55335">
        <ele>907.648</ele>
        <time>2021-02-27T08:52:22Z</time>
      </trkpt>
      <trkpt lat="42.9827" lon="0.55334">
        <ele>908.146</ele>
        <time>2021-02-27T08:52:24Z</time>
      </trkpt>
      <trkpt lat="42.9827" lon="0.55334">
        <ele>908.188</ele>
        <time>2021-02-27T08:52:26Z</time>
      </trkpt>
      <trkpt lat="42.98271" lon="0.55333">
        <ele>909.054</ele>
        <time>2021-02-27T08:52:28Z</time>
      </trkpt>
      <trkpt lat="42.98271" lon="0.55332">
        <ele>908.949</ele>
        <time>2021-02-27T08:52:30Z</time>
      </trkpt>
      <trkpt lat="42.98272" lon="0.55331">
        <ele>909.963</ele>
        <time>2021-02-27T08:52:32Z</time>
      </trkpt>
      <trkpt lat="42.98273" lon="0.5533">
        <ele>910.559</ele>
        <time>2021-02-27T08:52:34Z</time>
      </trkpt>
      <trkpt lat="42.98274" lon="0.55328">
        <ele>909.809</ele>
        <time>2021-02-27T08:52:36Z</time>
      </trkpt>
      <trkpt lat="42.98274" lon="0.55326">
        <ele>910.595</ele>
        <time>2021-02-27T08:52:38Z</time>
      </trkpt>
      <trkpt lat="42.98275" lon="0.55324">
        <ele>911.364</ele>
        <time>2021-02-27T08:52:40Z</time>
      </trkpt>
      <trkpt lat="42.98275" lon="0.55323">
        <ele>912.041</ele>
        <time>2021-02-27T08:52:42Z</time>
      </trkpt>
      <trkpt lat="42.98275" lon="0.55322">
        <ele>911.858</ele>
        <time>2021-02-27T08:52:44Z</time>
      </trkpt>
      <trkpt lat="42.98276" lon="0.5532">
        <ele>912.667</ele>
        <time>2021-02-27T08:52:46Z</time>
      </trkpt>
      <trkpt lat="42.98275" lon="0.5532">
        <ele>912.793</ele>
        <time>2021-02-27T08:52:48Z</time>
      </trkpt>
      <trkpt lat="42.98276" lon="0.55319">
        <ele>913.609</ele>
        <time>2021-02-27T08:52:50Z</time>
      </trkpt>
      <trkpt lat="42.98277" lon="0.55317">
        <ele>913.217</ele>
        <time>2021-02-27T08:52:52Z</time>
      </trkpt>
      <trkpt lat="42.98277" lon="0.55315">
        <ele>913.33</ele>
        <time>2021-02-27T08:52:54Z</time>
      </trkpt>
      <trkpt lat="42.98278" lon="0.55313">
        <ele>913.641</ele>
        <time>2021-02-27T08:52:56Z</time>
      </trkpt>
      <trkpt lat="42.98278" lon="0.55314">
        <ele>913.853</ele>
        <time>2021-02-27T08:52:58Z</time>
      </trkpt>
      <trkpt lat="42.98279" lon="0.55312">
        <ele>913.909</ele>
        <time>2021-02-27T08:53:00Z</time>
      </trkpt>
      <trkpt lat="42.98279" lon="0.55311">
        <ele>914.37</ele>
        <time>2021-02-27T08:53:02Z</time>
      </trkpt>
      <trkpt lat="42.9828" lon="0.55309">
        <ele>914.48</ele>
        <time>2021-02-27T08:53:04Z</time>
      </trkpt>
      <trkpt lat="42.98281" lon="0.55307">
        <ele>914.605</ele>
        <time>2021-02-27T08:53:06Z</time>
      </trkpt>
      <trkpt lat="42.98282" lon="0.55306">
        <ele>915.527</ele>
        <time>2021-02-27T08:53:08Z</time>
      </trkpt>
      <trkpt lat="42.98283" lon="0.55305">
        <ele>915.914</ele>
        <time>2021-02-27T08:53:10Z</time>
      </trkpt>
      <trkpt lat="42.98282" lon="0.55305">
        <ele>915.773</ele>
        <time>2021-02-27T08:53:12Z</time>
      </trkpt>
      <trkpt lat="42.98283" lon="0.55303">
        <ele>916.572</ele>
        <time>2021-02-27T08:53:14Z</time>
      </trkpt>
      <trkpt lat="42.98284" lon="0.55302">
        <ele>917.889</ele>
        <time>2021-02-27T08:53:16Z</time>
      </trkpt>
      <trkpt lat="42.98285" lon="0.553">
        <ele>917.103</ele>
        <time>2021-02-27T08:53:18Z</time>
      </trkpt>
      <trkpt lat="42.98286" lon="0.55299">
        <ele>917.782</ele>
        <time>2021-02-27T08:53:20Z</time>
      </trkpt>
      <trkpt lat="42.98287" lon="0.55297">
        <ele>918.514</ele>
        <time>2021-02-27T08:53:22Z</time>
      </trkpt>
      <trkpt lat="42.98288" lon="0.55295">
        <ele>919.362</ele>
        <time>2021-02-27T08:53:24Z</time>
      </trkpt>
      <trkpt lat="42.98289" lon="0.55293">
        <ele>919.45</ele>
        <time>2021-02-27T08:53:26Z</time>
      </trkpt>
      <trkpt lat="42.9829" lon="0.55291">
        <ele>920.565</ele>
        <time>2021-02-27T08:53:28Z</time>
      </trkpt>
      <trkpt lat="42.98292" lon="0.55289">
        <ele>920.743</ele>
        <time>2021-02-27T08:53:30Z</time>
      </trkpt>
      <trkpt lat="42.98293" lon="0.55287">
        <ele>921.179</ele>
        <time>2021-02-27T08:53:32Z</time>
      </trkpt>
      <trkpt lat="42.98294" lon="0.55283">
        <ele>920.651</ele>
        <time>2021-02-27T08:53:34Z</time>
      </trkpt>
      <trkpt lat="42.98295" lon="0.55281">
        <ele>920.611</ele>
        <time>2021-02-27T08:53:36Z</time>
      </trkpt>
      <trkpt lat="42.98296" lon="0.55278">
        <ele>920.977</ele>
        <time>2021-02-27T08:53:38Z</time>
      </trkpt>
      <trkpt lat="42.98296" lon="0.55276">
        <ele>920.821</ele>
        <time>2021-02-27T08:53:40Z</time>
      </trkpt>
      <trkpt lat="42.98296" lon="0.55275">
        <ele>921.317</ele>
        <time>2021-02-27T08:53:42Z</time>
      </trkpt>
      <trkpt lat="42.98298" lon="0.55274">
        <ele>922.57</ele>
        <time>2021-02-27T08:53:44Z</time>
      </trkpt>
      <trkpt lat="42.98299" lon="0.55272">
        <ele>923.321</ele>
        <time>2021-02-27T08:53:46Z</time>
      </trkpt>
      <trkpt lat="42.98299" lon="0.55273">
        <ele>924.129</ele>
        <time>2021-02-27T08:53:48Z</time>
      </trkpt>
      <trkpt lat="42.983" lon="0.55272">
        <ele>924.04</ele>
        <time>2021-02-27T08:53:50Z</time>
      </trkpt>
      <trkpt lat="42.983" lon="0.55269">
        <ele>923.921</ele>
        <time>2021-02-27T08:53:52Z</time>
      </trkpt>
      <trkpt lat="42.98301" lon="0.55268">
        <ele>924.394</ele>
        <time>2021-02-27T08:53:54Z</time>
      </trkpt>
      <trkpt lat="42.98302" lon="0.55266">
        <ele>924.992</ele>
        <time>2021-02-27T08:53:56Z</time>
      </trkpt>
      <trkpt lat="42.98303" lon="0.55264">
        <ele>925.341</ele>
        <time>2021-02-27T08:53:58Z</time>
      </trkpt>
      <trkpt lat="42.98303" lon="0.55263">
        <ele>924.793</ele>
        <time>2021-02-27T08:54:00Z</time>
      </trkpt>
      <trkpt lat="42.98304" lon="0.55261">
        <ele>925.296</ele>
        <time>2021-02-27T08:54:02Z</time>
      </trkpt>
      <trkpt lat="42.98304" lon="0.5526">
        <ele>925.887</ele>
        <time>2021-02-27T08:54:04Z</time>
      </trkpt>
      <trkpt lat="42.98305" lon="0.55258">
        <ele>925.419</ele>
        <time>2021-02-27T08:54:06Z</time>
      </trkpt>
      <trkpt lat="42.98306" lon="0.55255">
        <ele>924.638</ele>
        <time>2021-02-27T08:54:08Z</time>
      </trkpt>
      <trkpt lat="42.98307" lon="0.55253">
        <ele>925.013</ele>
        <time>2021-02-27T08:54:10Z</time>
      </trkpt>
      <trkpt lat="42.98308" lon="0.55251">
        <ele>925.171</ele>
        <time>2021-02-27T08:54:12Z</time>
      </trkpt>
      <trkpt lat="42.98308" lon="0.55248">
        <ele>924.941</ele>
        <time>2021-02-27T08:54:14Z</time>
      </trkpt>
      <trkpt lat="42.98308" lon="0.55246">
        <ele>925.649</ele>
        <time>2021-02-27T08:54:16Z</time>
      </trkpt>
      <trkpt lat="42.98309" lon="0.55244">
        <ele>927.45</ele>
        <time>2021-02-27T08:54:18Z</time>
      </trkpt>
      <trkpt lat="42.9831" lon="0.55242">
        <ele>927.99</ele>
        <time>2021-02-27T08:54:20Z</time>
      </trkpt>
      <trkpt lat="42.9831" lon="0.55241">
        <ele>927.775</ele>
        <time>2021-02-27T08:54:22Z</time>
      </trkpt>
      <trkpt lat="42.98311" lon="0.55239">
        <ele>928.201</ele>
        <time>2021-02-27T08:54:24Z</time>
      </trkpt>
      <trkpt lat="42.98312" lon="0.55238">
        <ele>928.65</ele>
        <time>2021-02-27T08:54:26Z</time>
      </trkpt>
      <trkpt lat="42.98314" lon="0.55236">
        <ele>929.648</ele>
        <time>2021-02-27T08:54:29Z</time>
      </trkpt>
      <trkpt lat="42.98315" lon="0.55234">
        <ele>930.134</ele>
        <time>2021-02-27T08:54:31Z</time>
      </trkpt>
      <trkpt lat="42.98316" lon="0.55232">
        <ele>930.398</ele>
        <time>2021-02-27T08:54:33Z</time>
      </trkpt>
      <trkpt lat="42.98316" lon="0.55232">
        <ele>930.955</ele>
        <time>2021-02-27T08:54:35Z</time>
      </trkpt>
      <trkpt lat="42.98317" lon="0.55231">
        <ele>931.476</ele>
        <time>2021-02-27T08:54:37Z</time>
      </trkpt>
      <trkpt lat="42.98318" lon="0.5523">
        <ele>931.999</ele>
        <time>2021-02-27T08:54:39Z</time>
      </trkpt>
      <trkpt lat="42.98319" lon="0.55228">
        <ele>931.415</ele>
        <time>2021-02-27T08:54:41Z</time>
      </trkpt>
      <trkpt lat="42.98321" lon="0.55228">
        <ele>932.382</ele>
        <time>2021-02-27T08:54:43Z</time>
      </trkpt>
      <trkpt lat="42.98321" lon="0.55228">
        <ele>933.313</ele>
        <time>2021-02-27T08:54:45Z</time>
      </trkpt>
      <trkpt lat="42.98322" lon="0.55227">
        <ele>933.952</ele>
        <time>2021-02-27T08:54:47Z</time>
      </trkpt>
      <trkpt lat="42.98324" lon="0.55226">
        <ele>933.76</ele>
        <time>2021-02-27T08:54:49Z</time>
      </trkpt>
      <trkpt lat="42.98326" lon="0.55225">
        <ele>934.007</ele>
        <time>2021-02-27T08:54:51Z</time>
      </trkpt>
      <trkpt lat="42.98328" lon="0.55221">
        <ele>933.442</ele>
        <time>2021-02-27T08:54:53Z</time>
      </trkpt>
      <trkpt lat="42.9833" lon="0.55219">
        <ele>934.492</ele>
        <time>2021-02-27T08:54:55Z</time>
      </trkpt>
      <trkpt lat="42.98332" lon="0.55217">
        <ele>934.211</ele>
        <time>2021-02-27T08:54:57Z</time>
      </trkpt>
      <trkpt lat="42.98334" lon="0.55215">
        <ele>933.934</ele>
        <time>2021-02-27T08:54:59Z</time>
      </trkpt>
      <trkpt lat="42.98335" lon="0.55212">
        <ele>934.007</ele>
        <time>2021-02-27T08:55:01Z</time>
      </trkpt>
      <trkpt lat="42.98337" lon="0.55211">
        <ele>934.065</ele>
        <time>2021-02-27T08:55:03Z</time>
      </trkpt>
      <trkpt lat="42.98339" lon="0.55209">
        <ele>933.895</ele>
        <time>2021-02-27T08:55:05Z</time>
      </trkpt>
      <trkpt lat="42.9834" lon="0.55208">
        <ele>934.24</ele>
        <time>2021-02-27T08:55:07Z</time>
      </trkpt>
      <trkpt lat="42.98341" lon="0.55206">
        <ele>934.43</ele>
        <time>2021-02-27T08:55:09Z</time>
      </trkpt>
      <trkpt lat="42.98341" lon="0.55207">
        <ele>934.599</ele>
        <time>2021-02-27T08:55:11Z</time>
      </trkpt>
      <trkpt lat="42.98343" lon="0.55206">
        <ele>934.586</ele>
        <time>2021-02-27T08:55:13Z</time>
      </trkpt>
      <trkpt lat="42.98345" lon="0.55204">
        <ele>935.02</ele>
        <time>2021-02-27T08:55:15Z</time>
      </trkpt>
      <trkpt lat="42.98347" lon="0.55203">
        <ele>936.057</ele>
        <time>2021-02-27T08:55:17Z</time>
      </trkpt>
      <trkpt lat="42.98348" lon="0.55201">
        <ele>935.957</ele>
        <time>2021-02-27T08:55:19Z</time>
      </trkpt>
      <trkpt lat="42.98349" lon="0.552">
        <ele>936.272</ele>
        <time>2021-02-27T08:55:21Z</time>
      </trkpt>
      <trkpt lat="42.9835" lon="0.55198">
        <ele>936.849</ele>
        <time>2021-02-27T08:55:23Z</time>
      </trkpt>
      <trkpt lat="42.98352" lon="0.55196">
        <ele>937.222</ele>
        <time>2021-02-27T08:55:25Z</time>
      </trkpt>
      <trkpt lat="42.98353" lon="0.55195">
        <ele>937.955</ele>
        <time>2021-02-27T08:55:27Z</time>
      </trkpt>
      <trkpt lat="42.98355" lon="0.55194">
        <ele>938.707</ele>
        <time>2021-02-27T08:55:29Z</time>
      </trkpt>
      <trkpt lat="42.98356" lon="0.55192">
        <ele>939.911</ele>
        <time>2021-02-27T08:55:31Z</time>
      </trkpt>
      <trkpt lat="42.98357" lon="0.55191">
        <ele>940.554</ele>
        <time>2021-02-27T08:55:33Z</time>
      </trkpt>
      <trkpt lat="42.98358" lon="0.55189">
        <ele>940.284</ele>
        <time>2021-02-27T08:55:35Z</time>
      </trkpt>
      <trkpt lat="42.9836" lon="0.55189">
        <ele>941.129</ele>
        <time>2021-02-27T08:55:37Z</time>
      </trkpt>
      <trkpt lat="42.98361" lon="0.55188">
        <ele>942.167</ele>
        <time>2021-02-27T08:55:39Z</time>
      </trkpt>
      <trkpt lat="42.98363" lon="0.55187">
        <ele>942.652</ele>
        <time>2021-02-27T08:55:41Z</time>
      </trkpt>
      <trkpt lat="42.98364" lon="0.55186">
        <ele>943.529</ele>
        <time>2021-02-27T08:55:43Z</time>
      </trkpt>
      <trkpt lat="42.98366" lon="0.55185">
        <ele>943.921</ele>
        <time>2021-02-27T08:55:45Z</time>
      </trkpt>
      <trkpt lat="42.98367" lon="0.55184">
        <ele>943.933</ele>
        <time>2021-02-27T08:55:47Z</time>
      </trkpt>
      <trkpt lat="42.98369" lon="0.55184">
        <ele>944.954</ele>
        <time>2021-02-27T08:55:49Z</time>
      </trkpt>
      <trkpt lat="42.9837" lon="0.55183">
        <ele>945.803</ele>
        <time>2021-02-27T08:55:51Z</time>
      </trkpt>
      <trkpt lat="42.98372" lon="0.55182">
        <ele>946.295</ele>
        <time>2021-02-27T08:55:53Z</time>
      </trkpt>
      <trkpt lat="42.98373" lon="0.5518">
        <ele>946.499</ele>
        <time>2021-02-27T08:55:55Z</time>
      </trkpt>
      <trkpt lat="42.98374" lon="0.55178">
        <ele>946.525</ele>
        <time>2021-02-27T08:55:57Z</time>
      </trkpt>
      <trkpt lat="42.98376" lon="0.55176">
        <ele>946.693</ele>
        <time>2021-02-27T08:55:59Z</time>
      </trkpt>
      <trkpt lat="42.98377" lon="0.55174">
        <ele>947.31</ele>
        <time>2021-02-27T08:56:01Z</time>
      </trkpt>
      <trkpt lat="42.98378" lon="0.55173">
        <ele>947.667</ele>
        <time>2021-02-27T08:56:03Z</time>
      </trkpt>
      <trkpt lat="42.98379" lon="0.55172">
        <ele>948.24</ele>
        <time>2021-02-27T08:56:05Z</time>
      </trkpt>
      <trkpt lat="42.9838" lon="0.5517">
        <ele>947.995</ele>
        <time>2021-02-27T08:56:07Z</time>
      </trkpt>
      <trkpt lat="42.98381" lon="0.55169">
        <ele>948.117</ele>
        <time>2021-02-27T08:56:09Z</time>
      </trkpt>
      <trkpt lat="42.98383" lon="0.55167">
        <ele>947.365</ele>
        <time>2021-02-27T08:56:11Z</time>
      </trkpt>
      <trkpt lat="42.98384" lon="0.55165">
        <ele>947.163</ele>
        <time>2021-02-27T08:56:13Z</time>
      </trkpt>
      <trkpt lat="42.98385" lon="0.55164">
        <ele>947.729</ele>
        <time>2021-02-27T08:56:15Z</time>
      </trkpt>
      <trkpt lat="42.98385" lon="0.55162">
        <ele>947.659</ele>
        <time>2021-02-27T08:56:17Z</time>
      </trkpt>
      <trkpt lat="42.98387" lon="0.55156">
        <ele>945.831</ele>
        <time>2021-02-27T08:56:19Z</time>
      </trkpt>
      <trkpt lat="42.98387" lon="0.55153">
        <ele>946.195</ele>
        <time>2021-02-27T08:56:21Z</time>
      </trkpt>
      <trkpt lat="42.98387" lon="0.55151">
        <ele>946.714</ele>
        <time>2021-02-27T08:56:23Z</time>
      </trkpt>
      <trkpt lat="42.98389" lon="0.55149">
        <ele>947.271</ele>
        <time>2021-02-27T08:56:25Z</time>
      </trkpt>
      <trkpt lat="42.9839" lon="0.55147">
        <ele>947.739</ele>
        <time>2021-02-27T08:56:27Z</time>
      </trkpt>
      <trkpt lat="42.98391" lon="0.55145">
        <ele>948.022</ele>
        <time>2021-02-27T08:56:29Z</time>
      </trkpt>
      <trkpt lat="42.98392" lon="0.55144">
        <ele>948.491</ele>
        <time>2021-02-27T08:56:31Z</time>
      </trkpt>
      <trkpt lat="42.98394" lon="0.55143">
        <ele>948.898</ele>
        <time>2021-02-27T08:56:33Z</time>
      </trkpt>
      <trkpt lat="42.98395" lon="0.55141">
        <ele>949.892</ele>
        <time>2021-02-27T08:56:35Z</time>
      </trkpt>
      <trkpt lat="42.98397" lon="0.55139">
        <ele>950.734</ele>
        <time>2021-02-27T08:56:37Z</time>
      </trkpt>
      <trkpt lat="42.98398" lon="0.55137">
        <ele>951.761</ele>
        <time>2021-02-27T08:56:39Z</time>
      </trkpt>
      <trkpt lat="42.984" lon="0.55135">
        <ele>950.994</ele>
        <time>2021-02-27T08:56:41Z</time>
      </trkpt>
      <trkpt lat="42.98401" lon="0.55133">
        <ele>951.182</ele>
        <time>2021-02-27T08:56:43Z</time>
      </trkpt>
      <trkpt lat="42.98403" lon="0.55131">
        <ele>951.31</ele>
        <time>2021-02-27T08:56:45Z</time>
      </trkpt>
      <trkpt lat="42.98404" lon="0.55128">
        <ele>951.896</ele>
        <time>2021-02-27T08:56:47Z</time>
      </trkpt>
      <trkpt lat="42.98406" lon="0.55125">
        <ele>952.092</ele>
        <time>2021-02-27T08:56:49Z</time>
      </trkpt>
      <trkpt lat="42.98406" lon="0.55124">
        <ele>953.018</ele>
        <time>2021-02-27T08:56:51Z</time>
      </trkpt>
      <trkpt lat="42.98407" lon="0.55123">
        <ele>953.998</ele>
        <time>2021-02-27T08:56:53Z</time>
      </trkpt>
      <trkpt lat="42.98407" lon="0.55121">
        <ele>954.35</ele>
        <time>2021-02-27T08:56:55Z</time>
      </trkpt>
      <trkpt lat="42.98408" lon="0.55119">
        <ele>955.53</ele>
        <time>2021-02-27T08:56:57Z</time>
      </trkpt>
      <trkpt lat="42.98409" lon="0.55118">
        <ele>957.16</ele>
        <time>2021-02-27T08:56:59Z</time>
      </trkpt>
      <trkpt lat="42.98409" lon="0.55116">
        <ele>957.864</ele>
        <time>2021-02-27T08:57:01Z</time>
      </trkpt>
      <trkpt lat="42.9841" lon="0.55115">
        <ele>959.028</ele>
        <time>2021-02-27T08:57:03Z</time>
      </trkpt>
      <trkpt lat="42.98411" lon="0.55114">
        <ele>960.726</ele>
        <time>2021-02-27T08:57:05Z</time>
      </trkpt>
      <trkpt lat="42.98412" lon="0.55113">
        <ele>961.14</ele>
        <time>2021-02-27T08:57:07Z</time>
      </trkpt>
      <trkpt lat="42.98413" lon="0.55111">
        <ele>962.493</ele>
        <time>2021-02-27T08:57:09Z</time>
      </trkpt>
      <trkpt lat="42.98413" lon="0.55108">
        <ele>961.441</ele>
        <time>2021-02-27T08:57:11Z</time>
      </trkpt>
      <trkpt lat="42.98414" lon="0.55106">
        <ele>962.787</ele>
        <time>2021-02-27T08:57:13Z</time>
      </trkpt>
      <trkpt lat="42.98415" lon="0.55104">
        <ele>962.701</ele>
        <time>2021-02-27T08:57:15Z</time>
      </trkpt>
      <trkpt lat="42.98416" lon="0.55103">
        <ele>963.822</ele>
        <time>2021-02-27T08:57:17Z</time>
      </trkpt>
      <trkpt lat="42.98417" lon="0.55102">
        <ele>964.9</ele>
        <time>2021-02-27T08:57:19Z</time>
      </trkpt>
      <trkpt lat="42.98417" lon="0.551">
        <ele>963.805</ele>
        <time>2021-02-27T08:57:21Z</time>
      </trkpt>
      <trkpt lat="42.98417" lon="0.55098">
        <ele>964.754</ele>
        <time>2021-02-27T08:57:23Z</time>
      </trkpt>
      <trkpt lat="42.98417" lon="0.55096">
        <ele>965.038</ele>
        <time>2021-02-27T08:57:25Z</time>
      </trkpt>
      <trkpt lat="42.98418" lon="0.55095">
        <ele>965.628</ele>
        <time>2021-02-27T08:57:27Z</time>
      </trkpt>
      <trkpt lat="42.98419" lon="0.55094">
        <ele>965.649</ele>
        <time>2021-02-27T08:57:29Z</time>
      </trkpt>
      <trkpt lat="42.98419" lon="0.55091">
        <ele>966.679</ele>
        <time>2021-02-27T08:57:31Z</time>
      </trkpt>
      <trkpt lat="42.9842" lon="0.5509">
        <ele>966.877</ele>
        <time>2021-02-27T08:57:33Z</time>
      </trkpt>
      <trkpt lat="42.98421" lon="0.55088">
        <ele>966.529</ele>
        <time>2021-02-27T08:57:35Z</time>
      </trkpt>
      <trkpt lat="42.98422" lon="0.55086">
        <ele>966.951</ele>
        <time>2021-02-27T08:57:37Z</time>
      </trkpt>
      <trkpt lat="42.98422" lon="0.55085">
        <ele>966.855</ele>
        <time>2021-02-27T08:57:39Z</time>
      </trkpt>
      <trkpt lat="42.98423" lon="0.55082">
        <ele>967.413</ele>
        <time>2021-02-27T08:57:41Z</time>
      </trkpt>
      <trkpt lat="42.98423" lon="0.55081">
        <ele>967.672</ele>
        <time>2021-02-27T08:57:43Z</time>
      </trkpt>
      <trkpt lat="42.98424" lon="0.5508">
        <ele>967.853</ele>
        <time>2021-02-27T08:57:45Z</time>
      </trkpt>
      <trkpt lat="42.98424" lon="0.55078">
        <ele>968.587</ele>
        <time>2021-02-27T08:57:47Z</time>
      </trkpt>
      <trkpt lat="42.98425" lon="0.55076">
        <ele>969.737</ele>
        <time>2021-02-27T08:57:49Z</time>
      </trkpt>
      <trkpt lat="42.98426" lon="0.55073">
        <ele>970.121</ele>
        <time>2021-02-27T08:57:51Z</time>
      </trkpt>
      <trkpt lat="42.98426" lon="0.55071">
        <ele>970.236</ele>
        <time>2021-02-27T08:57:53Z</time>
      </trkpt>
      <trkpt lat="42.98426" lon="0.5507">
        <ele>971.335</ele>
        <time>2021-02-27T08:57:55Z</time>
      </trkpt>
      <trkpt lat="42.98426" lon="0.55068">
        <ele>972.254</ele>
        <time>2021-02-27T08:57:57Z</time>
      </trkpt>
      <trkpt lat="42.98427" lon="0.55067">
        <ele>972.518</ele>
        <time>2021-02-27T08:57:59Z</time>
      </trkpt>
      <trkpt lat="42.98427" lon="0.55066">
        <ele>973.155</ele>
        <time>2021-02-27T08:58:01Z</time>
      </trkpt>
      <trkpt lat="42.98428" lon="0.55064">
        <ele>973.943</ele>
        <time>2021-02-27T08:58:03Z</time>
      </trkpt>
      <trkpt lat="42.98429" lon="0.55064">
        <ele>974.674</ele>
        <time>2021-02-27T08:58:05Z</time>
      </trkpt>
      <trkpt lat="42.98429" lon="0.55062">
        <ele>975.35</ele>
        <time>2021-02-27T08:58:07Z</time>
      </trkpt>
      <trkpt lat="42.98429" lon="0.55061">
        <ele>975.383</ele>
        <time>2021-02-27T08:58:09Z</time>
      </trkpt>
      <trkpt lat="42.98429" lon="0.55059">
        <ele>975.14</ele>
        <time>2021-02-27T08:58:11Z</time>
      </trkpt>
      <trkpt lat="42.9843" lon="0.55057">
        <ele>975.894</ele>
        <time>2021-02-27T08:58:13Z</time>
      </trkpt>
      <trkpt lat="42.9843" lon="0.55056">
        <ele>977.142</ele>
        <time>2021-02-27T08:58:15Z</time>
      </trkpt>
      <trkpt lat="42.98431" lon="0.55054">
        <ele>977.839</ele>
        <time>2021-02-27T08:58:17Z</time>
      </trkpt>
      <trkpt lat="42.98431" lon="0.55052">
        <ele>977.959</ele>
        <time>2021-02-27T08:58:19Z</time>
      </trkpt>
      <trkpt lat="42.98431" lon="0.55051">
        <ele>978.265</ele>
        <time>2021-02-27T08:58:21Z</time>
      </trkpt>
      <trkpt lat="42.98432" lon="0.5505">
        <ele>979.164</ele>
        <time>2021-02-27T08:58:23Z</time>
      </trkpt>
      <trkpt lat="42.98433" lon="0.55048">
        <ele>979.897</ele>
        <time>2021-02-27T08:58:25Z</time>
      </trkpt>
      <trkpt lat="42.98433" lon="0.55047">
        <ele>980.097</ele>
        <time>2021-02-27T08:58:27Z</time>
      </trkpt>
      <trkpt lat="42.98434" lon="0.55046">
        <ele>980.129</ele>
        <time>2021-02-27T08:58:29Z</time>
      </trkpt>
      <trkpt lat="42.98434" lon="0.55045">
        <ele>979.923</ele>
        <time>2021-02-27T08:58:31Z</time>
      </trkpt>
      <trkpt lat="42.98435" lon="0.55044">
        <ele>980.631</ele>
        <time>2021-02-27T08:58:33Z</time>
      </trkpt>
      <trkpt lat="42.98436" lon="0.55043">
        <ele>980.724</ele>
        <time>2021-02-27T08:58:35Z</time>
      </trkpt>
      <trkpt lat="42.98437" lon="0.55042">
        <ele>981.704</ele>
        <time>2021-02-27T08:58:37Z</time>
      </trkpt>
      <trkpt lat="42.98438" lon="0.55041">
        <ele>981.586</ele>
        <time>2021-02-27T08:58:39Z</time>
      </trkpt>
      <trkpt lat="42.98438" lon="0.5504">
        <ele>981.821</ele>
        <time>2021-02-27T08:58:41Z</time>
      </trkpt>
      <trkpt lat="42.9844" lon="0.55039">
        <ele>981.959</ele>
        <time>2021-02-27T08:58:43Z</time>
      </trkpt>
      <trkpt lat="42.98441" lon="0.55037">
        <ele>981.54</ele>
        <time>2021-02-27T08:58:45Z</time>
      </trkpt>
      <trkpt lat="42.98441" lon="0.55036">
        <ele>981.764</ele>
        <time>2021-02-27T08:58:47Z</time>
      </trkpt>
      <trkpt lat="42.98441" lon="0.55034">
        <ele>982.088</ele>
        <time>2021-02-27T08:58:49Z</time>
      </trkpt>
      <trkpt lat="42.98442" lon="0.55033">
        <ele>982.845</ele>
        <time>2021-02-27T08:58:51Z</time>
      </trkpt>
      <trkpt lat="42.98443" lon="0.55031">
        <ele>983.457</ele>
        <time>2021-02-27T08:58:53Z</time>
      </trkpt>
      <trkpt lat="42.98443" lon="0.55029">
        <ele>983.385</ele>
        <time>2021-02-27T08:58:55Z</time>
      </trkpt>
      <trkpt lat="42.98444" lon="0.55028">
        <ele>982.901</ele>
        <time>2021-02-27T08:58:57Z</time>
      </trkpt>
      <trkpt lat="42.98444" lon="0.55027">
        <ele>983.132</ele>
        <time>2021-02-27T08:58:59Z</time>
      </trkpt>
      <trkpt lat="42.98445" lon="0.55025">
        <ele>982.822</ele>
        <time>2021-02-27T08:59:01Z</time>
      </trkpt>
      <trkpt lat="42.98445" lon="0.55024">
        <ele>983.373</ele>
        <time>2021-02-27T08:59:03Z</time>
      </trkpt>
      <trkpt lat="42.98446" lon="0.55022">
        <ele>983.802</ele>
        <time>2021-02-27T08:59:05Z</time>
      </trkpt>
      <trkpt lat="42.98447" lon="0.55021">
        <ele>984.283</ele>
        <time>2021-02-27T08:59:07Z</time>
      </trkpt>
      <trkpt lat="42.98448" lon="0.55017">
        <ele>983.933</ele>
        <time>2021-02-27T08:59:09Z</time>
      </trkpt>
      <trkpt lat="42.98448" lon="0.55015">
        <ele>983.85</ele>
        <time>2021-02-27T08:59:11Z</time>
      </trkpt>
      <trkpt lat="42.98449" lon="0.55014">
        <ele>984.582</ele>
        <time>2021-02-27T08:59:13Z</time>
      </trkpt>
      <trkpt lat="42.9845" lon="0.55012">
        <ele>985.791</ele>
        <time>2021-02-27T08:59:15Z</time>
      </trkpt>
      <trkpt lat="42.98451" lon="0.5501">
        <ele>985.898</ele>
        <time>2021-02-27T08:59:17Z</time>
      </trkpt>
      <trkpt lat="42.98452" lon="0.55008">
        <ele>985.996</ele>
        <time>2021-02-27T08:59:19Z</time>
      </trkpt>
      <trkpt lat="42.98452" lon="0.55007">
        <ele>986.26</ele>
        <time>2021-02-27T08:59:21Z</time>
      </trkpt>
      <trkpt lat="42.98453" lon="0.55006">
        <ele>986.092</ele>
        <time>2021-02-27T08:59:23Z</time>
      </trkpt>
      <trkpt lat="42.98454" lon="0.55004">
        <ele>985.962</ele>
        <time>2021-02-27T08:59:25Z</time>
      </trkpt>
      <trkpt lat="42.98455" lon="0.55003">
        <ele>987.159</ele>
        <time>2021-02-27T08:59:27Z</time>
      </trkpt>
      <trkpt lat="42.98456" lon="0.55002">
        <ele>987.876</ele>
        <time>2021-02-27T08:59:29Z</time>
      </trkpt>
      <trkpt lat="42.98457" lon="0.55001">
        <ele>987.897</ele>
        <time>2021-02-27T08:59:31Z</time>
      </trkpt>
      <trkpt lat="42.98457" lon="0.55">
        <ele>988.256</ele>
        <time>2021-02-27T08:59:33Z</time>
      </trkpt>
      <trkpt lat="42.98458" lon="0.54999">
        <ele>989.48</ele>
        <time>2021-02-27T08:59:35Z</time>
      </trkpt>
      <trkpt lat="42.98459" lon="0.54998">
        <ele>990.681</ele>
        <time>2021-02-27T08:59:37Z</time>
      </trkpt>
      <trkpt lat="42.98459" lon="0.54997">
        <ele>990.925</ele>
        <time>2021-02-27T08:59:39Z</time>
      </trkpt>
      <trkpt lat="42.9846" lon="0.54996">
        <ele>991.371</ele>
        <time>2021-02-27T08:59:41Z</time>
      </trkpt>
      <trkpt lat="42.98461" lon="0.54994">
        <ele>991.754</ele>
        <time>2021-02-27T08:59:43Z</time>
      </trkpt>
      <trkpt lat="42.98461" lon="0.54993">
        <ele>992.36</ele>
        <time>2021-02-27T08:59:45Z</time>
      </trkpt>
      <trkpt lat="42.98462" lon="0.54991">
        <ele>993.374</ele>
        <time>2021-02-27T08:59:47Z</time>
      </trkpt>
      <trkpt lat="42.98462" lon="0.54991">
        <ele>993.42</ele>
        <time>2021-02-27T08:59:49Z</time>
      </trkpt>
      <trkpt lat="42.98463" lon="0.5499">
        <ele>993.323</ele>
        <time>2021-02-27T08:59:51Z</time>
      </trkpt>
      <trkpt lat="42.98463" lon="0.54988">
        <ele>992.951</ele>
        <time>2021-02-27T08:59:53Z</time>
      </trkpt>
      <trkpt lat="42.98464" lon="0.54988">
        <ele>993.589</ele>
        <time>2021-02-27T08:59:55Z</time>
      </trkpt>
      <trkpt lat="42.98465" lon="0.54984">
        <ele>993.183</ele>
        <time>2021-02-27T08:59:57Z</time>
      </trkpt>
      <trkpt lat="42.98466" lon="0.54981">
        <ele>994.144</ele>
        <time>2021-02-27T08:59:59Z</time>
      </trkpt>
      <trkpt lat="42.98466" lon="0.5498">
        <ele>994.385</ele>
        <time>2021-02-27T09:00:01Z</time>
      </trkpt>
      <trkpt lat="42.98467" lon="0.54981">
        <ele>995.733</ele>
        <time>2021-02-27T09:00:03Z</time>
      </trkpt>
      <trkpt lat="42.98467" lon="0.5498">
        <ele>995.405</ele>
        <time>2021-02-27T09:00:05Z</time>
      </trkpt>
      <trkpt lat="42.98468" lon="0.54979">
        <ele>995.328</ele>
        <time>2021-02-27T09:00:07Z</time>
      </trkpt>
      <trkpt lat="42.98469" lon="0.54977">
        <ele>995.854</ele>
        <time>2021-02-27T09:00:09Z</time>
      </trkpt>
      <trkpt lat="42.98469" lon="0.54976">
        <ele>996.24</ele>
        <time>2021-02-27T09:00:11Z</time>
      </trkpt>
      <trkpt lat="42.9847" lon="0.54975">
        <ele>996.815</ele>
        <time>2021-02-27T09:00:13Z</time>
      </trkpt>
      <trkpt lat="42.98471" lon="0.54975">
        <ele>997.282</ele>
        <time>2021-02-27T09:00:15Z</time>
      </trkpt>
      <trkpt lat="42.98473" lon="0.54974">
        <ele>997.766</ele>
        <time>2021-02-27T09:00:17Z</time>
      </trkpt>
      <trkpt lat="42.98474" lon="0.54973">
        <ele>997.941</ele>
        <time>2021-02-27T09:00:19Z</time>
      </trkpt>
      <trkpt lat="42.98475" lon="0.5497">
        <ele>997.843</ele>
        <time>2021-02-27T09:00:21Z</time>
      </trkpt>
      <trkpt lat="42.98476" lon="0.54967">
        <ele>997.552</ele>
        <time>2021-02-27T09:00:23Z</time>
      </trkpt>
      <trkpt lat="42.98477" lon="0.54965">
        <ele>997.1</ele>
        <time>2021-02-27T09:00:25Z</time>
      </trkpt>
      <trkpt lat="42.98478" lon="0.54962">
        <ele>995.984</ele>
        <time>2021-02-27T09:00:27Z</time>
      </trkpt>
      <trkpt lat="42.98479" lon="0.5496">
        <ele>995.924</ele>
        <time>2021-02-27T09:00:29Z</time>
      </trkpt>
      <trkpt lat="42.9848" lon="0.54957">
        <ele>995.305</ele>
        <time>2021-02-27T09:00:31Z</time>
      </trkpt>
      <trkpt lat="42.98481" lon="0.54956">
        <ele>997.132</ele>
        <time>2021-02-27T09:00:33Z</time>
      </trkpt>
      <trkpt lat="42.98482" lon="0.54955">
        <ele>997.47</ele>
        <time>2021-02-27T09:00:35Z</time>
      </trkpt>
      <trkpt lat="42.98483" lon="0.54954">
        <ele>998.178</ele>
        <time>2021-02-27T09:00:37Z</time>
      </trkpt>
      <trkpt lat="42.98484" lon="0.54953">
        <ele>999.168</ele>
        <time>2021-02-27T09:00:39Z</time>
      </trkpt>
      <trkpt lat="42.98483" lon="0.54954">
        <ele>999.705</ele>
        <time>2021-02-27T09:00:41Z</time>
      </trkpt>
      <trkpt lat="42.98484" lon="0.54953">
        <ele>1001.373</ele>
        <time>2021-02-27T09:00:43Z</time>
      </trkpt>
      <trkpt lat="42.98484" lon="0.5495">
        <ele>1001.785</ele>
        <time>2021-02-27T09:00:45Z</time>
      </trkpt>
      <trkpt lat="42.98485" lon="0.54948">
        <ele>1001.726</ele>
        <time>2021-02-27T09:00:47Z</time>
      </trkpt>
      <trkpt lat="42.98487" lon="0.54946">
        <ele>1002.332</ele>
        <time>2021-02-27T09:00:49Z</time>
      </trkpt>
      <trkpt lat="42.98488" lon="0.54944">
        <ele>1002.019</ele>
        <time>2021-02-27T09:00:51Z</time>
      </trkpt>
      <trkpt lat="42.9849" lon="0.54942">
        <ele>1001.827</ele>
        <time>2021-02-27T09:00:53Z</time>
      </trkpt>
      <trkpt lat="42.98492" lon="0.54939">
        <ele>1001.168</ele>
        <time>2021-02-27T09:00:55Z</time>
      </trkpt>
      <trkpt lat="42.98493" lon="0.54936">
        <ele>1001.206</ele>
        <time>2021-02-27T09:00:57Z</time>
      </trkpt>
      <trkpt lat="42.98495" lon="0.54935">
        <ele>1001.674</ele>
        <time>2021-02-27T09:00:59Z</time>
      </trkpt>
      <trkpt lat="42.98495" lon="0.54934">
        <ele>1002.042</ele>
        <time>2021-02-27T09:01:01Z</time>
      </trkpt>
      <trkpt lat="42.98497" lon="0.54933">
        <ele>1002.059</ele>
        <time>2021-02-27T09:01:03Z</time>
      </trkpt>
      <trkpt lat="42.98497" lon="0.54932">
        <ele>1003.145</ele>
        <time>2021-02-27T09:01:05Z</time>
      </trkpt>
      <trkpt lat="42.98497" lon="0.5493">
        <ele>1002.488</ele>
        <time>2021-02-27T09:01:07Z</time>
      </trkpt>
      <trkpt lat="42.98497" lon="0.54929">
        <ele>1004.248</ele>
        <time>2021-02-27T09:01:09Z</time>
      </trkpt>
      <trkpt lat="42.98498" lon="0.54929">
        <ele>1005.992</ele>
        <time>2021-02-27T09:01:11Z</time>
      </trkpt>
      <trkpt lat="42.98499" lon="0.54928">
        <ele>1007.261</ele>
        <time>2021-02-27T09:01:13Z</time>
      </trkpt>
      <trkpt lat="42.985" lon="0.54927">
        <ele>1008.49</ele>
        <time>2021-02-27T09:01:15Z</time>
      </trkpt>
      <trkpt lat="42.98501" lon="0.54925">
        <ele>1006.809</ele>
        <time>2021-02-27T09:01:17Z</time>
      </trkpt>
      <trkpt lat="42.98501" lon="0.54924">
        <ele>1007.289</ele>
        <time>2021-02-27T09:01:19Z</time>
      </trkpt>
      <trkpt lat="42.98502" lon="0.54923">
        <ele>1008.098</ele>
        <time>2021-02-27T09:01:21Z</time>
      </trkpt>
      <trkpt lat="42.98502" lon="0.54922">
        <ele>1007.238</ele>
        <time>2021-02-27T09:01:23Z</time>
      </trkpt>
      <trkpt lat="42.98502" lon="0.54919">
        <ele>1006.701</ele>
        <time>2021-02-27T09:01:25Z</time>
      </trkpt>
      <trkpt lat="42.98502" lon="0.54916">
        <ele>1006.498</ele>
        <time>2021-02-27T09:01:27Z</time>
      </trkpt>
      <trkpt lat="42.98501" lon="0.54913">
        <ele>1006.226</ele>
        <time>2021-02-27T09:01:29Z</time>
      </trkpt>
      <trkpt lat="42.98501" lon="0.5491">
        <ele>1004.666</ele>
        <time>2021-02-27T09:01:31Z</time>
      </trkpt>
      <trkpt lat="42.985" lon="0.54909">
        <ele>1005.922</ele>
        <time>2021-02-27T09:01:33Z</time>
      </trkpt>
      <trkpt lat="42.985" lon="0.54907">
        <ele>1006.197</ele>
        <time>2021-02-27T09:01:35Z</time>
      </trkpt>
      <trkpt lat="42.98499" lon="0.54905">
        <ele>1006.211</ele>
        <time>2021-02-27T09:01:37Z</time>
      </trkpt>
      <trkpt lat="42.98498" lon="0.54904">
        <ele>1006.743</ele>
        <time>2021-02-27T09:01:39Z</time>
      </trkpt>
      <trkpt lat="42.98498" lon="0.54904">
        <ele>1008.731</ele>
        <time>2021-02-27T09:01:41Z</time>
      </trkpt>
      <trkpt lat="42.98497" lon="0.54903">
        <ele>1009.571</ele>
        <time>2021-02-27T09:01:43Z</time>
      </trkpt>
      <trkpt lat="42.98497" lon="0.54902">
        <ele>1008.953</ele>
        <time>2021-02-27T09:01:45Z</time>
      </trkpt>
      <trkpt lat="42.98496" lon="0.54901">
        <ele>1009.736</ele>
        <time>2021-02-27T09:01:47Z</time>
      </trkpt>
      <trkpt lat="42.98495" lon="0.549">
        <ele>1010.721</ele>
        <time>2021-02-27T09:01:49Z</time>
      </trkpt>
      <trkpt lat="42.98494" lon="0.54899">
        <ele>1010.923</ele>
        <time>2021-02-27T09:01:51Z</time>
      </trkpt>
      <trkpt lat="42.98493" lon="0.54898">
        <ele>1010.548</ele>
        <time>2021-02-27T09:01:53Z</time>
      </trkpt>
      <trkpt lat="42.98491" lon="0.54896">
        <ele>1010.518</ele>
        <time>2021-02-27T09:01:55Z</time>
      </trkpt>
      <trkpt lat="42.9849" lon="0.54895">
        <ele>1010.316</ele>
        <time>2021-02-27T09:01:57Z</time>
      </trkpt>
      <trkpt lat="42.98489" lon="0.54894">
        <ele>1011.033</ele>
        <time>2021-02-27T09:01:59Z</time>
      </trkpt>
      <trkpt lat="42.98488" lon="0.54893">
        <ele>1011.219</ele>
        <time>2021-02-27T09:02:01Z</time>
      </trkpt>
      <trkpt lat="42.98487" lon="0.54893">
        <ele>1011.682</ele>
        <time>2021-02-27T09:02:03Z</time>
      </trkpt>
      <trkpt lat="42.98485" lon="0.54892">
        <ele>1011.475</ele>
        <time>2021-02-27T09:02:05Z</time>
      </trkpt>
      <trkpt lat="42.98484" lon="0.54891">
        <ele>1011.76</ele>
        <time>2021-02-27T09:02:07Z</time>
      </trkpt>
      <trkpt lat="42.98483" lon="0.54891">
        <ele>1011.636</ele>
        <time>2021-02-27T09:02:09Z</time>
      </trkpt>
      <trkpt lat="42.98482" lon="0.5489">
        <ele>1012.398</ele>
        <time>2021-02-27T09:02:11Z</time>
      </trkpt>
      <trkpt lat="42.98481" lon="0.54889">
        <ele>1013.183</ele>
        <time>2021-02-27T09:02:13Z</time>
      </trkpt>
      <trkpt lat="42.98479" lon="0.54889">
        <ele>1013.677</ele>
        <time>2021-02-27T09:02:15Z</time>
      </trkpt>
      <trkpt lat="42.98478" lon="0.54889">
        <ele>1014.937</ele>
        <time>2021-02-27T09:02:17Z</time>
      </trkpt>
      <trkpt lat="42.98476" lon="0.54889">
        <ele>1015.835</ele>
        <time>2021-02-27T09:02:19Z</time>
      </trkpt>
      <trkpt lat="42.98473" lon="0.54888">
        <ele>1014.9</ele>
        <time>2021-02-27T09:02:21Z</time>
      </trkpt>
      <trkpt lat="42.98472" lon="0.54887">
        <ele>1014.685</ele>
        <time>2021-02-27T09:02:23Z</time>
      </trkpt>
      <trkpt lat="42.9847" lon="0.54887">
        <ele>1014.265</ele>
        <time>2021-02-27T09:02:25Z</time>
      </trkpt>
      <trkpt lat="42.98469" lon="0.54887">
        <ele>1014.014</ele>
        <time>2021-02-27T09:02:27Z</time>
      </trkpt>
      <trkpt lat="42.98466" lon="0.54887">
        <ele>1013.137</ele>
        <time>2021-02-27T09:02:29Z</time>
      </trkpt>
      <trkpt lat="42.98464" lon="0.54887">
        <ele>1013.744</ele>
        <time>2021-02-27T09:02:31Z</time>
      </trkpt>
      <trkpt lat="42.98462" lon="0.54887">
        <ele>1013.617</ele>
        <time>2021-02-27T09:02:33Z</time>
      </trkpt>
      <trkpt lat="42.98461" lon="0.54887">
        <ele>1013.979</ele>
        <time>2021-02-27T09:02:35Z</time>
      </trkpt>
      <trkpt lat="42.98459" lon="0.54887">
        <ele>1015.725</ele>
        <time>2021-02-27T09:02:37Z</time>
      </trkpt>
      <trkpt lat="42.98457" lon="0.54887">
        <ele>1014.902</ele>
        <time>2021-02-27T09:02:39Z</time>
      </trkpt>
      <trkpt lat="42.98455" lon="0.54886">
        <ele>1013.995</ele>
        <time>2021-02-27T09:02:41Z</time>
      </trkpt>
      <trkpt lat="42.98453" lon="0.54886">
        <ele>1013.871</ele>
        <time>2021-02-27T09:02:43Z</time>
      </trkpt>
      <trkpt lat="42.98452" lon="0.54885">
        <ele>1014.897</ele>
        <time>2021-02-27T09:02:45Z</time>
      </trkpt>
      <trkpt lat="42.9845" lon="0.54885">
        <ele>1014.019</ele>
        <time>2021-02-27T09:02:47Z</time>
      </trkpt>
      <trkpt lat="42.98448" lon="0.54885">
        <ele>1014.406</ele>
        <time>2021-02-27T09:02:49Z</time>
      </trkpt>
      <trkpt lat="42.98446" lon="0.54884">
        <ele>1013.664</ele>
        <time>2021-02-27T09:02:51Z</time>
      </trkpt>
      <trkpt lat="42.98444" lon="0.54883">
        <ele>1013.142</ele>
        <time>2021-02-27T09:02:53Z</time>
      </trkpt>
      <trkpt lat="42.98442" lon="0.54883">
        <ele>1013.555</ele>
        <time>2021-02-27T09:02:55Z</time>
      </trkpt>
      <trkpt lat="42.9844" lon="0.54882">
        <ele>1010.084</ele>
        <time>2021-02-27T09:02:57Z</time>
      </trkpt>
      <trkpt lat="42.98438" lon="0.54882">
        <ele>1008.466</ele>
        <time>2021-02-27T09:02:59Z</time>
      </trkpt>
      <trkpt lat="42.98437" lon="0.54881">
        <ele>1009.721</ele>
        <time>2021-02-27T09:03:01Z</time>
      </trkpt>
      <trkpt lat="42.98435" lon="0.54881">
        <ele>1009.334</ele>
        <time>2021-02-27T09:03:03Z</time>
      </trkpt>
      <trkpt lat="42.98434" lon="0.5488">
        <ele>1010.33</ele>
        <time>2021-02-27T09:03:05Z</time>
      </trkpt>
      <trkpt lat="42.98432" lon="0.54879">
        <ele>1010.829</ele>
        <time>2021-02-27T09:03:07Z</time>
      </trkpt>
      <trkpt lat="42.9843" lon="0.54879">
        <ele>1012.291</ele>
        <time>2021-02-27T09:03:09Z</time>
      </trkpt>
      <trkpt lat="42.98428" lon="0.54878">
        <ele>1012.037</ele>
        <time>2021-02-27T09:03:11Z</time>
      </trkpt>
      <trkpt lat="42.98427" lon="0.54878">
        <ele>1012.592</ele>
        <time>2021-02-27T09:03:13Z</time>
      </trkpt>
      <trkpt lat="42.98426" lon="0.54878">
        <ele>1013.423</ele>
        <time>2021-02-27T09:03:15Z</time>
      </trkpt>
      <trkpt lat="42.98424" lon="0.54878">
        <ele>1013.732</ele>
        <time>2021-02-27T09:03:17Z</time>
      </trkpt>
      <trkpt lat="42.98422" lon="0.54878">
        <ele>1014.183</ele>
        <time>2021-02-27T09:03:19Z</time>
      </trkpt>
      <trkpt lat="42.9842" lon="0.54878">
        <ele>1016.643</ele>
        <time>2021-02-27T09:03:21Z</time>
      </trkpt>
      <trkpt lat="42.98418" lon="0.54878">
        <ele>1015.383</ele>
        <time>2021-02-27T09:03:23Z</time>
      </trkpt>
      <trkpt lat="42.98416" lon="0.54879">
        <ele>1016.939</ele>
        <time>2021-02-27T09:03:25Z</time>
      </trkpt>
      <trkpt lat="42.98415" lon="0.5488">
        <ele>1018.194</ele>
        <time>2021-02-27T09:03:27Z</time>
      </trkpt>
      <trkpt lat="42.98413" lon="0.54881">
        <ele>1017.786</ele>
        <time>2021-02-27T09:03:29Z</time>
      </trkpt>
      <trkpt lat="42.98412" lon="0.54881">
        <ele>1018.073</ele>
        <time>2021-02-27T09:03:31Z</time>
      </trkpt>
      <trkpt lat="42.98411" lon="0.54881">
        <ele>1017.523</ele>
        <time>2021-02-27T09:03:33Z</time>
      </trkpt>
      <trkpt lat="42.98409" lon="0.54881">
        <ele>1016.97</ele>
        <time>2021-02-27T09:03:35Z</time>
      </trkpt>
      <trkpt lat="42.98408" lon="0.54881">
        <ele>1017.903</ele>
        <time>2021-02-27T09:03:37Z</time>
      </trkpt>
      <trkpt lat="42.98406" lon="0.54881">
        <ele>1018.798</ele>
        <time>2021-02-27T09:03:39Z</time>
      </trkpt>
      <trkpt lat="42.98404" lon="0.54882">
        <ele>1019.797</ele>
        <time>2021-02-27T09:03:41Z</time>
      </trkpt>
      <trkpt lat="42.98402" lon="0.54882">
        <ele>1020.107</ele>
        <time>2021-02-27T09:03:43Z</time>
      </trkpt>
      <trkpt lat="42.98401" lon="0.54883">
        <ele>1020.137</ele>
        <time>2021-02-27T09:03:45Z</time>
      </trkpt>
      <trkpt lat="42.98399" lon="0.54884">
        <ele>1020.111</ele>
        <time>2021-02-27T09:03:47Z</time>
      </trkpt>
      <trkpt lat="42.98397" lon="0.54883">
        <ele>1019.924</ele>
        <time>2021-02-27T09:03:49Z</time>
      </trkpt>
      <trkpt lat="42.98396" lon="0.54883">
        <ele>1020.732</ele>
        <time>2021-02-27T09:03:51Z</time>
      </trkpt>
      <trkpt lat="42.98394" lon="0.54884">
        <ele>1021.459</ele>
        <time>2021-02-27T09:03:53Z</time>
      </trkpt>
      <trkpt lat="42.98393" lon="0.54884">
        <ele>1020.366</ele>
        <time>2021-02-27T09:03:55Z</time>
      </trkpt>
      <trkpt lat="42.98392" lon="0.54884">
        <ele>1019.125</ele>
        <time>2021-02-27T09:03:57Z</time>
      </trkpt>
      <trkpt lat="42.9839" lon="0.54883">
        <ele>1019.953</ele>
        <time>2021-02-27T09:03:59Z</time>
      </trkpt>
      <trkpt lat="42.98389" lon="0.54883">
        <ele>1020.036</ele>
        <time>2021-02-27T09:04:01Z</time>
      </trkpt>
      <trkpt lat="42.98387" lon="0.54883">
        <ele>1020.538</ele>
        <time>2021-02-27T09:04:03Z</time>
      </trkpt>
      <trkpt lat="42.98386" lon="0.54883">
        <ele>1021.313</ele>
        <time>2021-02-27T09:04:05Z</time>
      </trkpt>
      <trkpt lat="42.98384" lon="0.54883">
        <ele>1020.978</ele>
        <time>2021-02-27T09:04:07Z</time>
      </trkpt>
      <trkpt lat="42.98383" lon="0.54883">
        <ele>1021.186</ele>
        <time>2021-02-27T09:04:09Z</time>
      </trkpt>
      <trkpt lat="42.98381" lon="0.54883">
        <ele>1022.173</ele>
        <time>2021-02-27T09:04:11Z</time>
      </trkpt>
      <trkpt lat="42.9838" lon="0.54883">
        <ele>1023.492</ele>
        <time>2021-02-27T09:04:13Z</time>
      </trkpt>
      <trkpt lat="42.98379" lon="0.54883">
        <ele>1023.234</ele>
        <time>2021-02-27T09:04:15Z</time>
      </trkpt>
      <trkpt lat="42.98377" lon="0.54883">
        <ele>1023.669</ele>
        <time>2021-02-27T09:04:17Z</time>
      </trkpt>
      <trkpt lat="42.98376" lon="0.54883">
        <ele>1024.81</ele>
        <time>2021-02-27T09:04:19Z</time>
      </trkpt>
      <trkpt lat="42.98374" lon="0.54882">
        <ele>1025.344</ele>
        <time>2021-02-27T09:04:21Z</time>
      </trkpt>
      <trkpt lat="42.98372" lon="0.54883">
        <ele>1025.453</ele>
        <time>2021-02-27T09:04:23Z</time>
      </trkpt>
      <trkpt lat="42.9837" lon="0.54883">
        <ele>1026.277</ele>
        <time>2021-02-27T09:04:25Z</time>
      </trkpt>
      <trkpt lat="42.98369" lon="0.54883">
        <ele>1027.911</ele>
        <time>2021-02-27T09:04:27Z</time>
      </trkpt>
      <trkpt lat="42.98368" lon="0.54884">
        <ele>1028.167</ele>
        <time>2021-02-27T09:04:29Z</time>
      </trkpt>
      <trkpt lat="42.98367" lon="0.54885">
        <ele>1028.28</ele>
        <time>2021-02-27T09:04:31Z</time>
      </trkpt>
      <trkpt lat="42.98366" lon="0.54886">
        <ele>1029.131</ele>
        <time>2021-02-27T09:04:33Z</time>
      </trkpt>
      <trkpt lat="42.98364" lon="0.54887">
        <ele>1029.337</ele>
        <time>2021-02-27T09:04:35Z</time>
      </trkpt>
      <trkpt lat="42.98363" lon="0.54888">
        <ele>1028.647</ele>
        <time>2021-02-27T09:04:37Z</time>
      </trkpt>
      <trkpt lat="42.98361" lon="0.54889">
        <ele>1029.552</ele>
        <time>2021-02-27T09:04:39Z</time>
      </trkpt>
      <trkpt lat="42.98359" lon="0.54889">
        <ele>1029.539</ele>
        <time>2021-02-27T09:04:41Z</time>
      </trkpt>
      <trkpt lat="42.98357" lon="0.54889">
        <ele>1030.13</ele>
        <time>2021-02-27T09:04:43Z</time>
      </trkpt>
      <trkpt lat="42.98356" lon="0.54891">
        <ele>1029.943</ele>
        <time>2021-02-27T09:04:45Z</time>
      </trkpt>
      <trkpt lat="42.98354" lon="0.54892">
        <ele>1030.906</ele>
        <time>2021-02-27T09:04:47Z</time>
      </trkpt>
      <trkpt lat="42.98352" lon="0.54893">
        <ele>1029.962</ele>
        <time>2021-02-27T09:04:49Z</time>
      </trkpt>
      <trkpt lat="42.98351" lon="0.54894">
        <ele>1030.885</ele>
        <time>2021-02-27T09:04:51Z</time>
      </trkpt>
      <trkpt lat="42.98349" lon="0.54895">
        <ele>1031.158</ele>
        <time>2021-02-27T09:04:53Z</time>
      </trkpt>
      <trkpt lat="42.98348" lon="0.54896">
        <ele>1032.325</ele>
        <time>2021-02-27T09:04:55Z</time>
      </trkpt>
      <trkpt lat="42.98347" lon="0.54898">
        <ele>1031.432</ele>
        <time>2021-02-27T09:04:57Z</time>
      </trkpt>
      <trkpt lat="42.98346" lon="0.54899">
        <ele>1033.41</ele>
        <time>2021-02-27T09:04:59Z</time>
      </trkpt>
      <trkpt lat="42.98344" lon="0.54899">
        <ele>1032.598</ele>
        <time>2021-02-27T09:05:01Z</time>
      </trkpt>
      <trkpt lat="42.98342" lon="0.549">
        <ele>1033.659</ele>
        <time>2021-02-27T09:05:03Z</time>
      </trkpt>
      <trkpt lat="42.9834" lon="0.549">
        <ele>1032.721</ele>
        <time>2021-02-27T09:05:05Z</time>
      </trkpt>
      <trkpt lat="42.98339" lon="0.54902">
        <ele>1033.528</ele>
        <time>2021-02-27T09:05:07Z</time>
      </trkpt>
      <trkpt lat="42.98338" lon="0.54903">
        <ele>1034.505</ele>
        <time>2021-02-27T09:05:09Z</time>
      </trkpt>
      <trkpt lat="42.98336" lon="0.54904">
        <ele>1033.36</ele>
        <time>2021-02-27T09:05:11Z</time>
      </trkpt>
      <trkpt lat="42.98335" lon="0.54906">
        <ele>1032.79</ele>
        <time>2021-02-27T09:05:13Z</time>
      </trkpt>
      <trkpt lat="42.98333" lon="0.54906">
        <ele>1032.323</ele>
        <time>2021-02-27T09:05:15Z</time>
      </trkpt>
      <trkpt lat="42.98331" lon="0.54907">
        <ele>1032.698</ele>
        <time>2021-02-27T09:05:17Z</time>
      </trkpt>
      <trkpt lat="42.9833" lon="0.54909">
        <ele>1030.91</ele>
        <time>2021-02-27T09:05:19Z</time>
      </trkpt>
      <trkpt lat="42.98328" lon="0.5491">
        <ele>1030.58</ele>
        <time>2021-02-27T09:05:21Z</time>
      </trkpt>
      <trkpt lat="42.98327" lon="0.54911">
        <ele>1032.208</ele>
        <time>2021-02-27T09:05:23Z</time>
      </trkpt>
      <trkpt lat="42.98325" lon="0.54912">
        <ele>1032.856</ele>
        <time>2021-02-27T09:05:25Z</time>
      </trkpt>
      <trkpt lat="42.98324" lon="0.54915">
        <ele>1033.38</ele>
        <time>2021-02-27T09:05:27Z</time>
      </trkpt>
      <trkpt lat="42.98323" lon="0.54917">
        <ele>1033.501</ele>
        <time>2021-02-27T09:05:29Z</time>
      </trkpt>
      <trkpt lat="42.98322" lon="0.54918">
        <ele>1033.348</ele>
        <time>2021-02-27T09:05:31Z</time>
      </trkpt>
      <trkpt lat="42.9832" lon="0.5492">
        <ele>1032.34</ele>
        <time>2021-02-27T09:05:33Z</time>
      </trkpt>
      <trkpt lat="42.98318" lon="0.54921">
        <ele>1031.648</ele>
        <time>2021-02-27T09:05:35Z</time>
      </trkpt>
      <trkpt lat="42.98317" lon="0.54922">
        <ele>1031.947</ele>
        <time>2021-02-27T09:05:37Z</time>
      </trkpt>
      <trkpt lat="42.98316" lon="0.54923">
        <ele>1032.032</ele>
        <time>2021-02-27T09:05:39Z</time>
      </trkpt>
      <trkpt lat="42.98315" lon="0.54924">
        <ele>1034.463</ele>
        <time>2021-02-27T09:05:41Z</time>
      </trkpt>
      <trkpt lat="42.98314" lon="0.54925">
        <ele>1035.655</ele>
        <time>2021-02-27T09:05:43Z</time>
      </trkpt>
      <trkpt lat="42.98313" lon="0.54927">
        <ele>1035.849</ele>
        <time>2021-02-27T09:05:45Z</time>
      </trkpt>
      <trkpt lat="42.98311" lon="0.54929">
        <ele>1035.154</ele>
        <time>2021-02-27T09:05:47Z</time>
      </trkpt>
      <trkpt lat="42.9831" lon="0.54931">
        <ele>1035.327</ele>
        <time>2021-02-27T09:05:49Z</time>
      </trkpt>
      <trkpt lat="42.98308" lon="0.54933">
        <ele>1034.894</ele>
        <time>2021-02-27T09:05:51Z</time>
      </trkpt>
      <trkpt lat="42.98307" lon="0.54933">
        <ele>1033.834</ele>
        <time>2021-02-27T09:05:53Z</time>
      </trkpt>
      <trkpt lat="42.98305" lon="0.54934">
        <ele>1034.852</ele>
        <time>2021-02-27T09:05:55Z</time>
      </trkpt>
      <trkpt lat="42.98304" lon="0.54935">
        <ele>1035.929</ele>
        <time>2021-02-27T09:05:57Z</time>
      </trkpt>
      <trkpt lat="42.98303" lon="0.54937">
        <ele>1036.213</ele>
        <time>2021-02-27T09:05:59Z</time>
      </trkpt>
      <trkpt lat="42.98302" lon="0.54938">
        <ele>1036.315</ele>
        <time>2021-02-27T09:06:01Z</time>
      </trkpt>
      <trkpt lat="42.98301" lon="0.5494">
        <ele>1035.969</ele>
        <time>2021-02-27T09:06:03Z</time>
      </trkpt>
      <trkpt lat="42.983" lon="0.54942">
        <ele>1037.468</ele>
        <time>2021-02-27T09:06:05Z</time>
      </trkpt>
      <trkpt lat="42.98299" lon="0.54942">
        <ele>1038.079</ele>
        <time>2021-02-27T09:06:07Z</time>
      </trkpt>
      <trkpt lat="42.98297" lon="0.54943">
        <ele>1037.208</ele>
        <time>2021-02-27T09:06:09Z</time>
      </trkpt>
      <trkpt lat="42.98296" lon="0.54944">
        <ele>1036.667</ele>
        <time>2021-02-27T09:06:11Z</time>
      </trkpt>
      <trkpt lat="42.98295" lon="0.54946">
        <ele>1036.939</ele>
        <time>2021-02-27T09:06:13Z</time>
      </trkpt>
      <trkpt lat="42.98294" lon="0.54948">
        <ele>1036.536</ele>
        <time>2021-02-27T09:06:15Z</time>
      </trkpt>
      <trkpt lat="42.98293" lon="0.54949">
        <ele>1036.35</ele>
        <time>2021-02-27T09:06:17Z</time>
      </trkpt>
      <trkpt lat="42.98292" lon="0.54951">
        <ele>1037.403</ele>
        <time>2021-02-27T09:06:19Z</time>
      </trkpt>
      <trkpt lat="42.98291" lon="0.54952">
        <ele>1038.792</ele>
        <time>2021-02-27T09:06:21Z</time>
      </trkpt>
      <trkpt lat="42.98289" lon="0.54953">
        <ele>1039.027</ele>
        <time>2021-02-27T09:06:23Z</time>
      </trkpt>
      <trkpt lat="42.98287" lon="0.54954">
        <ele>1037.574</ele>
        <time>2021-02-27T09:06:25Z</time>
      </trkpt>
      <trkpt lat="42.98285" lon="0.54955">
        <ele>1037.241</ele>
        <time>2021-02-27T09:06:27Z</time>
      </trkpt>
      <trkpt lat="42.98283" lon="0.54956">
        <ele>1037.012</ele>
        <time>2021-02-27T09:06:29Z</time>
      </trkpt>
      <trkpt lat="42.98282" lon="0.54957">
        <ele>1036.309</ele>
        <time>2021-02-27T09:06:31Z</time>
      </trkpt>
      <trkpt lat="42.9828" lon="0.54958">
        <ele>1037.253</ele>
        <time>2021-02-27T09:06:33Z</time>
      </trkpt>
      <trkpt lat="42.98278" lon="0.54959">
        <ele>1036.24</ele>
        <time>2021-02-27T09:06:35Z</time>
      </trkpt>
      <trkpt lat="42.98276" lon="0.5496">
        <ele>1037.525</ele>
        <time>2021-02-27T09:06:37Z</time>
      </trkpt>
      <trkpt lat="42.98275" lon="0.54961">
        <ele>1038.853</ele>
        <time>2021-02-27T09:06:39Z</time>
      </trkpt>
      <trkpt lat="42.98273" lon="0.54962">
        <ele>1039.126</ele>
        <time>2021-02-27T09:06:41Z</time>
      </trkpt>
      <trkpt lat="42.98272" lon="0.54962">
        <ele>1039.503</ele>
        <time>2021-02-27T09:06:43Z</time>
      </trkpt>
      <trkpt lat="42.98271" lon="0.54963">
        <ele>1040.527</ele>
        <time>2021-02-27T09:06:45Z</time>
      </trkpt>
      <trkpt lat="42.98269" lon="0.54964">
        <ele>1041.043</ele>
        <time>2021-02-27T09:06:47Z</time>
      </trkpt>
      <trkpt lat="42.98268" lon="0.54965">
        <ele>1041.306</ele>
        <time>2021-02-27T09:06:49Z</time>
      </trkpt>
      <trkpt lat="42.98267" lon="0.54965">
        <ele>1041.16</ele>
        <time>2021-02-27T09:06:51Z</time>
      </trkpt>
      <trkpt lat="42.98265" lon="0.54965">
        <ele>1040.889</ele>
        <time>2021-02-27T09:06:53Z</time>
      </trkpt>
      <trkpt lat="42.98264" lon="0.54965">
        <ele>1041.241</ele>
        <time>2021-02-27T09:06:55Z</time>
      </trkpt>
      <trkpt lat="42.98262" lon="0.54966">
        <ele>1040.118</ele>
        <time>2021-02-27T09:06:57Z</time>
      </trkpt>
      <trkpt lat="42.9826" lon="0.54965">
        <ele>1040.077</ele>
        <time>2021-02-27T09:06:59Z</time>
      </trkpt>
      <trkpt lat="42.98258" lon="0.54966">
        <ele>1041.359</ele>
        <time>2021-02-27T09:07:01Z</time>
      </trkpt>
      <trkpt lat="42.98256" lon="0.54966">
        <ele>1040.676</ele>
        <time>2021-02-27T09:07:03Z</time>
      </trkpt>
      <trkpt lat="42.98254" lon="0.54967">
        <ele>1040.688</ele>
        <time>2021-02-27T09:07:05Z</time>
      </trkpt>
      <trkpt lat="42.98253" lon="0.54966">
        <ele>1041.284</ele>
        <time>2021-02-27T09:07:07Z</time>
      </trkpt>
      <trkpt lat="42.98251" lon="0.54966">
        <ele>1041.55</ele>
        <time>2021-02-27T09:07:09Z</time>
      </trkpt>
      <trkpt lat="42.9825" lon="0.54966">
        <ele>1042.635</ele>
        <time>2021-02-27T09:07:11Z</time>
      </trkpt>
      <trkpt lat="42.98249" lon="0.54966">
        <ele>1042.992</ele>
        <time>2021-02-27T09:07:13Z</time>
      </trkpt>
      <trkpt lat="42.98247" lon="0.54967">
        <ele>1042.795</ele>
        <time>2021-02-27T09:07:15Z</time>
      </trkpt>
      <trkpt lat="42.98246" lon="0.54966">
        <ele>1043.065</ele>
        <time>2021-02-27T09:07:17Z</time>
      </trkpt>
      <trkpt lat="42.98245" lon="0.54964">
        <ele>1043.331</ele>
        <time>2021-02-27T09:07:19Z</time>
      </trkpt>
      <trkpt lat="42.98245" lon="0.54962">
        <ele>1042.467</ele>
        <time>2021-02-27T09:07:21Z</time>
      </trkpt>
      <trkpt lat="42.98246" lon="0.54961">
        <ele>1041.721</ele>
        <time>2021-02-27T09:07:23Z</time>
      </trkpt>
      <trkpt lat="42.98248" lon="0.5496">
        <ele>1041.122</ele>
        <time>2021-02-27T09:07:25Z</time>
      </trkpt>
      <trkpt lat="42.98249" lon="0.5496">
        <ele>1039.732</ele>
        <time>2021-02-27T09:07:27Z</time>
      </trkpt>
      <trkpt lat="42.98251" lon="0.5496">
        <ele>1038.88</ele>
        <time>2021-02-27T09:07:29Z</time>
      </trkpt>
      <trkpt lat="42.98252" lon="0.54959">
        <ele>1038.858</ele>
        <time>2021-02-27T09:07:31Z</time>
      </trkpt>
      <trkpt lat="42.98254" lon="0.54959">
        <ele>1039.278</ele>
        <time>2021-02-27T09:07:33Z</time>
      </trkpt>
      <trkpt lat="42.98255" lon="0.54959">
        <ele>1040.266</ele>
        <time>2021-02-27T09:07:35Z</time>
      </trkpt>
      <trkpt lat="42.98256" lon="0.54959">
        <ele>1041.113</ele>
        <time>2021-02-27T09:07:37Z</time>
      </trkpt>
      <trkpt lat="42.98257" lon="0.54959">
        <ele>1041.112</ele>
        <time>2021-02-27T09:07:39Z</time>
      </trkpt>
      <trkpt lat="42.98258" lon="0.54959">
        <ele>1041.931</ele>
        <time>2021-02-27T09:07:41Z</time>
      </trkpt>
      <trkpt lat="42.98259" lon="0.54958">
        <ele>1042.762</ele>
        <time>2021-02-27T09:07:43Z</time>
      </trkpt>
      <trkpt lat="42.9826" lon="0.54957">
        <ele>1044.286</ele>
        <time>2021-02-27T09:07:45Z</time>
      </trkpt>
      <trkpt lat="42.98261" lon="0.54957">
        <ele>1044.835</ele>
        <time>2021-02-27T09:07:47Z</time>
      </trkpt>
      <trkpt lat="42.98262" lon="0.54957">
        <ele>1045.253</ele>
        <time>2021-02-27T09:07:49Z</time>
      </trkpt>
      <trkpt lat="42.98263" lon="0.54957">
        <ele>1046.477</ele>
        <time>2021-02-27T09:07:51Z</time>
      </trkpt>
      <trkpt lat="42.98264" lon="0.54956">
        <ele>1046.549</ele>
        <time>2021-02-27T09:07:53Z</time>
      </trkpt>
      <trkpt lat="42.98265" lon="0.54955">
        <ele>1046.316</ele>
        <time>2021-02-27T09:07:55Z</time>
      </trkpt>
      <trkpt lat="42.98266" lon="0.54955">
        <ele>1047.091</ele>
        <time>2021-02-27T09:07:57Z</time>
      </trkpt>
      <trkpt lat="42.98267" lon="0.54954">
        <ele>1047.124</ele>
        <time>2021-02-27T09:07:59Z</time>
      </trkpt>
      <trkpt lat="42.98267" lon="0.54954">
        <ele>1047.921</ele>
        <time>2021-02-27T09:08:01Z</time>
      </trkpt>
      <trkpt lat="42.98268" lon="0.54954">
        <ele>1048.692</ele>
        <time>2021-02-27T09:08:03Z</time>
      </trkpt>
      <trkpt lat="42.98268" lon="0.54952">
        <ele>1048.494</ele>
        <time>2021-02-27T09:08:05Z</time>
      </trkpt>
      <trkpt lat="42.98269" lon="0.5495">
        <ele>1048.375</ele>
        <time>2021-02-27T09:08:07Z</time>
      </trkpt>
      <trkpt lat="42.9827" lon="0.54948">
        <ele>1049.977</ele>
        <time>2021-02-27T09:08:09Z</time>
      </trkpt>
      <trkpt lat="42.98271" lon="0.54947">
        <ele>1050.165</ele>
        <time>2021-02-27T09:08:11Z</time>
      </trkpt>
      <trkpt lat="42.98272" lon="0.54946">
        <ele>1050.086</ele>
        <time>2021-02-27T09:08:13Z</time>
      </trkpt>
      <trkpt lat="42.98273" lon="0.54945">
        <ele>1051.522</ele>
        <time>2021-02-27T09:08:15Z</time>
      </trkpt>
      <trkpt lat="42.98273" lon="0.54942">
        <ele>1050.965</ele>
        <time>2021-02-27T09:08:17Z</time>
      </trkpt>
      <trkpt lat="42.98273" lon="0.5494">
        <ele>1052.829</ele>
        <time>2021-02-27T09:08:19Z</time>
      </trkpt>
      <trkpt lat="42.98273" lon="0.54938">
        <ele>1053.49</ele>
        <time>2021-02-27T09:08:21Z</time>
      </trkpt>
      <trkpt lat="42.98273" lon="0.54936">
        <ele>1053.398</ele>
        <time>2021-02-27T09:08:23Z</time>
      </trkpt>
      <trkpt lat="42.98273" lon="0.54935">
        <ele>1053.111</ele>
        <time>2021-02-27T09:08:25Z</time>
      </trkpt>
      <trkpt lat="42.98274" lon="0.54933">
        <ele>1054.517</ele>
        <time>2021-02-27T09:08:27Z</time>
      </trkpt>
      <trkpt lat="42.98274" lon="0.54932">
        <ele>1055.169</ele>
        <time>2021-02-27T09:08:29Z</time>
      </trkpt>
      <trkpt lat="42.98274" lon="0.5493">
        <ele>1055.44</ele>
        <time>2021-02-27T09:08:31Z</time>
      </trkpt>
      <trkpt lat="42.98275" lon="0.54928">
        <ele>1055.213</ele>
        <time>2021-02-27T09:08:33Z</time>
      </trkpt>
      <trkpt lat="42.98275" lon="0.54926">
        <ele>1056.179</ele>
        <time>2021-02-27T09:08:35Z</time>
      </trkpt>
      <trkpt lat="42.98276" lon="0.54923">
        <ele>1056.36</ele>
        <time>2021-02-27T09:08:37Z</time>
      </trkpt>
      <trkpt lat="42.98276" lon="0.54921">
        <ele>1056.676</ele>
        <time>2021-02-27T09:08:39Z</time>
      </trkpt>
      <trkpt lat="42.98276" lon="0.54918">
        <ele>1056.968</ele>
        <time>2021-02-27T09:08:41Z</time>
      </trkpt>
      <trkpt lat="42.98276" lon="0.54915">
        <ele>1057.912</ele>
        <time>2021-02-27T09:08:43Z</time>
      </trkpt>
      <trkpt lat="42.98277" lon="0.54913">
        <ele>1058.33</ele>
        <time>2021-02-27T09:08:45Z</time>
      </trkpt>
      <trkpt lat="42.98277" lon="0.54911">
        <ele>1058.651</ele>
        <time>2021-02-27T09:08:47Z</time>
      </trkpt>
      <trkpt lat="42.98277" lon="0.54908">
        <ele>1058.95</ele>
        <time>2021-02-27T09:08:49Z</time>
      </trkpt>
      <trkpt lat="42.98278" lon="0.54906">
        <ele>1058.535</ele>
        <time>2021-02-27T09:08:51Z</time>
      </trkpt>
      <trkpt lat="42.98278" lon="0.54904">
        <ele>1058.851</ele>
        <time>2021-02-27T09:08:53Z</time>
      </trkpt>
      <trkpt lat="42.98279" lon="0.54901">
        <ele>1060.016</ele>
        <time>2021-02-27T09:08:55Z</time>
      </trkpt>
      <trkpt lat="42.98279" lon="0.54898">
        <ele>1061.608</ele>
        <time>2021-02-27T09:08:57Z</time>
      </trkpt>
      <trkpt lat="42.98279" lon="0.54896">
        <ele>1061.18</ele>
        <time>2021-02-27T09:08:59Z</time>
      </trkpt>
      <trkpt lat="42.98279" lon="0.54894">
        <ele>1061.294</ele>
        <time>2021-02-27T09:09:01Z</time>
      </trkpt>
      <trkpt lat="42.98278" lon="0.54892">
        <ele>1061.638</ele>
        <time>2021-02-27T09:09:03Z</time>
      </trkpt>
      <trkpt lat="42.98278" lon="0.5489">
        <ele>1061.5</ele>
        <time>2021-02-27T09:09:05Z</time>
      </trkpt>
      <trkpt lat="42.98278" lon="0.54887">
        <ele>1061.067</ele>
        <time>2021-02-27T09:09:07Z</time>
      </trkpt>
      <trkpt lat="42.98278" lon="0.54885">
        <ele>1061.668</ele>
        <time>2021-02-27T09:09:09Z</time>
      </trkpt>
      <trkpt lat="42.98278" lon="0.54883">
        <ele>1061.143</ele>
        <time>2021-02-27T09:09:11Z</time>
      </trkpt>
      <trkpt lat="42.98278" lon="0.54881">
        <ele>1061.563</ele>
        <time>2021-02-27T09:09:13Z</time>
      </trkpt>
      <trkpt lat="42.98277" lon="0.54879">
        <ele>1061.844</ele>
        <time>2021-02-27T09:09:15Z</time>
      </trkpt>
      <trkpt lat="42.98277" lon="0.54876">
        <ele>1061.847</ele>
        <time>2021-02-27T09:09:17Z</time>
      </trkpt>
      <trkpt lat="42.98277" lon="0.54874">
        <ele>1062.721</ele>
        <time>2021-02-27T09:09:19Z</time>
      </trkpt>
      <trkpt lat="42.98277" lon="0.54871">
        <ele>1062.542</ele>
        <time>2021-02-27T09:09:21Z</time>
      </trkpt>
      <trkpt lat="42.98276" lon="0.54869">
        <ele>1061.888</ele>
        <time>2021-02-27T09:09:23Z</time>
      </trkpt>
      <trkpt lat="42.98276" lon="0.54867">
        <ele>1062.944</ele>
        <time>2021-02-27T09:09:25Z</time>
      </trkpt>
      <trkpt lat="42.98275" lon="0.54864">
        <ele>1062.906</ele>
        <time>2021-02-27T09:09:27Z</time>
      </trkpt>
      <trkpt lat="42.98275" lon="0.54862">
        <ele>1063.08</ele>
        <time>2021-02-27T09:09:29Z</time>
      </trkpt>
      <trkpt lat="42.98276" lon="0.5486">
        <ele>1063.28</ele>
        <time>2021-02-27T09:09:31Z</time>
      </trkpt>
      <trkpt lat="42.98276" lon="0.54858">
        <ele>1063.927</ele>
        <time>2021-02-27T09:09:33Z</time>
      </trkpt>
      <trkpt lat="42.98276" lon="0.54856">
        <ele>1064.543</ele>
        <time>2021-02-27T09:09:35Z</time>
      </trkpt>
      <trkpt lat="42.98277" lon="0.54855">
        <ele>1065.216</ele>
        <time>2021-02-27T09:09:37Z</time>
      </trkpt>
      <trkpt lat="42.98277" lon="0.54853">
        <ele>1066.026</ele>
        <time>2021-02-27T09:09:39Z</time>
      </trkpt>
      <trkpt lat="42.98278" lon="0.54851">
        <ele>1066.915</ele>
        <time>2021-02-27T09:09:41Z</time>
      </trkpt>
      <trkpt lat="42.98279" lon="0.5485">
        <ele>1068.139</ele>
        <time>2021-02-27T09:09:43Z</time>
      </trkpt>
      <trkpt lat="42.9828" lon="0.54848">
        <ele>1067.312</ele>
        <time>2021-02-27T09:09:45Z</time>
      </trkpt>
      <trkpt lat="42.98282" lon="0.54847">
        <ele>1068.128</ele>
        <time>2021-02-27T09:09:47Z</time>
      </trkpt>
      <trkpt lat="42.98283" lon="0.54846">
        <ele>1068.402</ele>
        <time>2021-02-27T09:09:49Z</time>
      </trkpt>
      <trkpt lat="42.98283" lon="0.54846">
        <ele>1067.088</ele>
        <time>2021-02-27T09:09:51Z</time>
      </trkpt>
      <trkpt lat="42.98283" lon="0.54845">
        <ele>1066.983</ele>
        <time>2021-02-27T09:09:53Z</time>
      </trkpt>
      <trkpt lat="42.98283" lon="0.54843">
        <ele>1065.825</ele>
        <time>2021-02-27T09:09:55Z</time>
      </trkpt>
      <trkpt lat="42.98284" lon="0.54842">
        <ele>1065.96</ele>
        <time>2021-02-27T09:09:57Z</time>
      </trkpt>
      <trkpt lat="42.98285" lon="0.54841">
        <ele>1066.085</ele>
        <time>2021-02-27T09:09:59Z</time>
      </trkpt>
      <trkpt lat="42.98286" lon="0.5484">
        <ele>1067.293</ele>
        <time>2021-02-27T09:10:01Z</time>
      </trkpt>
      <trkpt lat="42.98287" lon="0.54839">
        <ele>1067.993</ele>
        <time>2021-02-27T09:10:03Z</time>
      </trkpt>
      <trkpt lat="42.98288" lon="0.54837">
        <ele>1067.971</ele>
        <time>2021-02-27T09:10:05Z</time>
      </trkpt>
      <trkpt lat="42.98289" lon="0.54836">
        <ele>1068.482</ele>
        <time>2021-02-27T09:10:07Z</time>
      </trkpt>
      <trkpt lat="42.98289" lon="0.54834">
        <ele>1068.591</ele>
        <time>2021-02-27T09:10:09Z</time>
      </trkpt>
      <trkpt lat="42.9829" lon="0.54832">
        <ele>1068.655</ele>
        <time>2021-02-27T09:10:11Z</time>
      </trkpt>
      <trkpt lat="42.9829" lon="0.5483">
        <ele>1069.569</ele>
        <time>2021-02-27T09:10:13Z</time>
      </trkpt>
      <trkpt lat="42.98291" lon="0.54828">
        <ele>1070.508</ele>
        <time>2021-02-27T09:10:15Z</time>
      </trkpt>
      <trkpt lat="42.98292" lon="0.54826">
        <ele>1070.288</ele>
        <time>2021-02-27T09:10:17Z</time>
      </trkpt>
      <trkpt lat="42.98292" lon="0.54824">
        <ele>1071.492</ele>
        <time>2021-02-27T09:10:19Z</time>
      </trkpt>
      <trkpt lat="42.98293" lon="0.54822">
        <ele>1071.732</ele>
        <time>2021-02-27T09:10:21Z</time>
      </trkpt>
      <trkpt lat="42.98294" lon="0.5482">
        <ele>1072.66</ele>
        <time>2021-02-27T09:10:23Z</time>
      </trkpt>
      <trkpt lat="42.98295" lon="0.54818">
        <ele>1073.441</ele>
        <time>2021-02-27T09:10:25Z</time>
      </trkpt>
      <trkpt lat="42.98295" lon="0.54816">
        <ele>1074.821</ele>
        <time>2021-02-27T09:10:27Z</time>
      </trkpt>
      <trkpt lat="42.98298" lon="0.54813">
        <ele>1078.44</ele>
        <time>2021-02-27T09:10:29Z</time>
      </trkpt>
      <trkpt lat="42.983" lon="0.54811">
        <ele>1079.85</ele>
        <time>2021-02-27T09:10:31Z</time>
      </trkpt>
      <trkpt lat="42.98302" lon="0.54808">
        <ele>1082.032</ele>
        <time>2021-02-27T09:10:33Z</time>
      </trkpt>
      <trkpt lat="42.98303" lon="0.54806">
        <ele>1083.915</ele>
        <time>2021-02-27T09:10:35Z</time>
      </trkpt>
      <trkpt lat="42.98304" lon="0.54805">
        <ele>1084.657</ele>
        <time>2021-02-27T09:10:37Z</time>
      </trkpt>
      <trkpt lat="42.98304" lon="0.54803">
        <ele>1085.743</ele>
        <time>2021-02-27T09:10:39Z</time>
      </trkpt>
      <trkpt lat="42.98304" lon="0.54801">
        <ele>1085.946</ele>
        <time>2021-02-27T09:10:41Z</time>
      </trkpt>
      <trkpt lat="42.98305" lon="0.548">
        <ele>1086.471</ele>
        <time>2021-02-27T09:10:43Z</time>
      </trkpt>
      <trkpt lat="42.98305" lon="0.54798">
        <ele>1087.342</ele>
        <time>2021-02-27T09:10:45Z</time>
      </trkpt>
      <trkpt lat="42.98306" lon="0.54796">
        <ele>1086.743</ele>
        <time>2021-02-27T09:10:47Z</time>
      </trkpt>
      <trkpt lat="42.98306" lon="0.54795">
        <ele>1086.506</ele>
        <time>2021-02-27T09:10:49Z</time>
      </trkpt>
      <trkpt lat="42.98306" lon="0.54795">
        <ele>1086.5</ele>
        <time>2021-02-27T09:10:51Z</time>
      </trkpt>
      <trkpt lat="42.98306" lon="0.54795">
        <ele>1086.485</ele>
        <time>2021-02-27T09:10:53Z</time>
      </trkpt>
      <trkpt lat="42.98306" lon="0.54795">
        <ele>1086.481</ele>
        <time>2021-02-27T09:10:55Z</time>
      </trkpt>
      <trkpt lat="42.98306" lon="0.54795">
        <ele>1086.486</ele>
        <time>2021-02-27T09:10:57Z</time>
      </trkpt>
      <trkpt lat="42.98305" lon="0.54795">
        <ele>1085.135</ele>
        <time>2021-02-27T09:10:59Z</time>
      </trkpt>
      <trkpt lat="42.98304" lon="0.54796">
        <ele>1082.975</ele>
        <time>2021-02-27T09:11:01Z</time>
      </trkpt>
      <trkpt lat="42.98301" lon="0.54797">
        <ele>1080.513</ele>
        <time>2021-02-27T09:11:03Z</time>
      </trkpt>
      <trkpt lat="42.98299" lon="0.54798">
        <ele>1078.995</ele>
        <time>2021-02-27T09:11:05Z</time>
      </trkpt>
      <trkpt lat="42.98298" lon="0.54799">
        <ele>1078.478</ele>
        <time>2021-02-27T09:11:07Z</time>
      </trkpt>
      <trkpt lat="42.98297" lon="0.548">
        <ele>1078.289</ele>
        <time>2021-02-27T09:11:09Z</time>
      </trkpt>
      <trkpt lat="42.98296" lon="0.54801">
        <ele>1078.355</ele>
        <time>2021-02-27T09:11:11Z</time>
      </trkpt>
      <trkpt lat="42.98294" lon="0.54802">
        <ele>1078.144</ele>
        <time>2021-02-27T09:11:13Z</time>
      </trkpt>
      <trkpt lat="42.98293" lon="0.54803">
        <ele>1078.041</ele>
        <time>2021-02-27T09:11:15Z</time>
      </trkpt>
      <trkpt lat="42.98291" lon="0.54805">
        <ele>1078.472</ele>
        <time>2021-02-27T09:11:17Z</time>
      </trkpt>
      <trkpt lat="42.9829" lon="0.54808">
        <ele>1078.271</ele>
        <time>2021-02-27T09:11:19Z</time>
      </trkpt>
      <trkpt lat="42.9829" lon="0.54809">
        <ele>1078.935</ele>
        <time>2021-02-27T09:11:21Z</time>
      </trkpt>
      <trkpt lat="42.9829" lon="0.54809">
        <ele>1078.953</ele>
        <time>2021-02-27T09:11:23Z</time>
      </trkpt>
      <trkpt lat="42.9829" lon="0.54809">
        <ele>1078.96</ele>
        <time>2021-02-27T09:11:25Z</time>
      </trkpt>
      <trkpt lat="42.9829" lon="0.54809">
        <ele>1078.965</ele>
        <time>2021-02-27T09:11:27Z</time>
      </trkpt>
      <trkpt lat="42.9829" lon="0.54809">
        <ele>1078.965</ele>
        <time>2021-02-27T09:11:29Z</time>
      </trkpt>
      <trkpt lat="42.9829" lon="0.54809">
        <ele>1078.965</ele>
        <time>2021-02-27T09:11:31Z</time>
      </trkpt>
      <trkpt lat="42.9829" lon="0.54809">
        <ele>1079.271</ele>
        <time>2021-02-27T09:11:33Z</time>
      </trkpt>
      <trkpt lat="42.9829" lon="0.54811">
        <ele>1081.054</ele>
        <time>2021-02-27T09:11:35Z</time>
      </trkpt>
      <trkpt lat="42.98288" lon="0.54812">
        <ele>1080.354</ele>
        <time>2021-02-27T09:11:37Z</time>
      </trkpt>
      <trkpt lat="42.98287" lon="0.54814">
        <ele>1080.398</ele>
        <time>2021-02-27T09:11:39Z</time>
      </trkpt>
      <trkpt lat="42.98285" lon="0.54815">
        <ele>1079.841</ele>
        <time>2021-02-27T09:11:41Z</time>
      </trkpt>
      <trkpt lat="42.98283" lon="0.54816">
        <ele>1079.949</ele>
        <time>2021-02-27T09:11:43Z</time>
      </trkpt>
      <trkpt lat="42.98282" lon="0.54817">
        <ele>1079.477</ele>
        <time>2021-02-27T09:11:45Z</time>
      </trkpt>
      <trkpt lat="42.98279" lon="0.5482">
        <ele>1079.272</ele>
        <time>2021-02-27T09:11:47Z</time>
      </trkpt>
      <trkpt lat="42.98276" lon="0.54822">
        <ele>1078.208</ele>
        <time>2021-02-27T09:11:49Z</time>
      </trkpt>
      <trkpt lat="42.98274" lon="0.54822">
        <ele>1076.407</ele>
        <time>2021-02-27T09:11:51Z</time>
      </trkpt>
      <trkpt lat="42.98271" lon="0.54824">
        <ele>1074.973</ele>
        <time>2021-02-27T09:11:53Z</time>
      </trkpt>
      <trkpt lat="42.98268" lon="0.54825">
        <ele>1074.403</ele>
        <time>2021-02-27T09:11:55Z</time>
      </trkpt>
      <trkpt lat="42.98266" lon="0.54826">
        <ele>1075.547</ele>
        <time>2021-02-27T09:11:57Z</time>
      </trkpt>
      <trkpt lat="42.98263" lon="0.54827">
        <ele>1076.025</ele>
        <time>2021-02-27T09:11:59Z</time>
      </trkpt>
      <trkpt lat="42.9826" lon="0.54828">
        <ele>1075.6</ele>
        <time>2021-02-27T09:12:01Z</time>
      </trkpt>
      <trkpt lat="42.98258" lon="0.54831">
        <ele>1075.822</ele>
        <time>2021-02-27T09:12:03Z</time>
      </trkpt>
      <trkpt lat="42.98256" lon="0.54832">
        <ele>1075.617</ele>
        <time>2021-02-27T09:12:05Z</time>
      </trkpt>
      <trkpt lat="42.98254" lon="0.54832">
        <ele>1076.488</ele>
        <time>2021-02-27T09:12:07Z</time>
      </trkpt>
      <trkpt lat="42.98253" lon="0.54829">
        <ele>1075.934</ele>
        <time>2021-02-27T09:12:09Z</time>
      </trkpt>
      <trkpt lat="42.98252" lon="0.54827">
        <ele>1075.758</ele>
        <time>2021-02-27T09:12:11Z</time>
      </trkpt>
      <trkpt lat="42.98252" lon="0.54824">
        <ele>1075.73</ele>
        <time>2021-02-27T09:12:13Z</time>
      </trkpt>
      <trkpt lat="42.98253" lon="0.54822">
        <ele>1075.77</ele>
        <time>2021-02-27T09:12:15Z</time>
      </trkpt>
      <trkpt lat="42.98253" lon="0.5482">
        <ele>1075.83</ele>
        <time>2021-02-27T09:12:17Z</time>
      </trkpt>
      <trkpt lat="42.98254" lon="0.54818">
        <ele>1076.185</ele>
        <time>2021-02-27T09:12:19Z</time>
      </trkpt>
      <trkpt lat="42.98255" lon="0.54817">
        <ele>1075.378</ele>
        <time>2021-02-27T09:12:21Z</time>
      </trkpt>
      <trkpt lat="42.98255" lon="0.54815">
        <ele>1075.203</ele>
        <time>2021-02-27T09:12:23Z</time>
      </trkpt>
      <trkpt lat="42.98256" lon="0.54813">
        <ele>1076.041</ele>
        <time>2021-02-27T09:12:25Z</time>
      </trkpt>
      <trkpt lat="42.98257" lon="0.54811">
        <ele>1077.572</ele>
        <time>2021-02-27T09:12:27Z</time>
      </trkpt>
      <trkpt lat="42.98258" lon="0.5481">
        <ele>1078.541</ele>
        <time>2021-02-27T09:12:29Z</time>
      </trkpt>
      <trkpt lat="42.98259" lon="0.54807">
        <ele>1078.862</ele>
        <time>2021-02-27T09:12:31Z</time>
      </trkpt>
      <trkpt lat="42.98259" lon="0.54805">
        <ele>1078.717</ele>
        <time>2021-02-27T09:12:33Z</time>
      </trkpt>
      <trkpt lat="42.9826" lon="0.54803">
        <ele>1077.983</ele>
        <time>2021-02-27T09:12:35Z</time>
      </trkpt>
      <trkpt lat="42.9826" lon="0.548">
        <ele>1076.633</ele>
        <time>2021-02-27T09:12:37Z</time>
      </trkpt>
      <trkpt lat="42.98261" lon="0.54798">
        <ele>1076.683</ele>
        <time>2021-02-27T09:12:39Z</time>
      </trkpt>
      <trkpt lat="42.98262" lon="0.54795">
        <ele>1077.427</ele>
        <time>2021-02-27T09:12:41Z</time>
      </trkpt>
      <trkpt lat="42.98262" lon="0.54793">
        <ele>1077.471</ele>
        <time>2021-02-27T09:12:43Z</time>
      </trkpt>
      <trkpt lat="42.98262" lon="0.5479">
        <ele>1077.762</ele>
        <time>2021-02-27T09:12:45Z</time>
      </trkpt>
      <trkpt lat="42.98263" lon="0.54788">
        <ele>1077.668</ele>
        <time>2021-02-27T09:12:47Z</time>
      </trkpt>
      <trkpt lat="42.98263" lon="0.54785">
        <ele>1076.296</ele>
        <time>2021-02-27T09:12:49Z</time>
      </trkpt>
      <trkpt lat="42.98264" lon="0.54782">
        <ele>1076.002</ele>
        <time>2021-02-27T09:12:51Z</time>
      </trkpt>
      <trkpt lat="42.98266" lon="0.5478">
        <ele>1077.079</ele>
        <time>2021-02-27T09:12:53Z</time>
      </trkpt>
      <trkpt lat="42.98267" lon="0.54777">
        <ele>1077.503</ele>
        <time>2021-02-27T09:12:55Z</time>
      </trkpt>
      <trkpt lat="42.98266" lon="0.54775">
        <ele>1076.12</ele>
        <time>2021-02-27T09:12:57Z</time>
      </trkpt>
      <trkpt lat="42.98266" lon="0.54773">
        <ele>1075.074</ele>
        <time>2021-02-27T09:12:59Z</time>
      </trkpt>
      <trkpt lat="42.98266" lon="0.54771">
        <ele>1075.827</ele>
        <time>2021-02-27T09:13:01Z</time>
      </trkpt>
      <trkpt lat="42.98266" lon="0.54769">
        <ele>1076.035</ele>
        <time>2021-02-27T09:13:03Z</time>
      </trkpt>
      <trkpt lat="42.98266" lon="0.54767">
        <ele>1076.628</ele>
        <time>2021-02-27T09:13:05Z</time>
      </trkpt>
      <trkpt lat="42.98268" lon="0.54765">
        <ele>1077.469</ele>
        <time>2021-02-27T09:13:07Z</time>
      </trkpt>
      <trkpt lat="42.98269" lon="0.54764">
        <ele>1078.291</ele>
        <time>2021-02-27T09:13:09Z</time>
      </trkpt>
      <trkpt lat="42.98269" lon="0.54762">
        <ele>1078.618</ele>
        <time>2021-02-27T09:13:11Z</time>
      </trkpt>
      <trkpt lat="42.9827" lon="0.54761">
        <ele>1079.142</ele>
        <time>2021-02-27T09:13:13Z</time>
      </trkpt>
      <trkpt lat="42.98271" lon="0.54759">
        <ele>1079.861</ele>
        <time>2021-02-27T09:13:15Z</time>
      </trkpt>
      <trkpt lat="42.98272" lon="0.54758">
        <ele>1080.4</ele>
        <time>2021-02-27T09:13:17Z</time>
      </trkpt>
      <trkpt lat="42.98272" lon="0.54756">
        <ele>1080.247</ele>
        <time>2021-02-27T09:13:19Z</time>
      </trkpt>
      <trkpt lat="42.98273" lon="0.54754">
        <ele>1080.775</ele>
        <time>2021-02-27T09:13:21Z</time>
      </trkpt>
      <trkpt lat="42.98274" lon="0.54752">
        <ele>1081.909</ele>
        <time>2021-02-27T09:13:23Z</time>
      </trkpt>
      <trkpt lat="42.98275" lon="0.5475">
        <ele>1082.614</ele>
        <time>2021-02-27T09:13:25Z</time>
      </trkpt>
      <trkpt lat="42.98276" lon="0.54748">
        <ele>1081.979</ele>
        <time>2021-02-27T09:13:27Z</time>
      </trkpt>
      <trkpt lat="42.98277" lon="0.54746">
        <ele>1082.105</ele>
        <time>2021-02-27T09:13:29Z</time>
      </trkpt>
      <trkpt lat="42.98278" lon="0.54745">
        <ele>1081.952</ele>
        <time>2021-02-27T09:13:31Z</time>
      </trkpt>
      <trkpt lat="42.98279" lon="0.54743">
        <ele>1082.855</ele>
        <time>2021-02-27T09:13:33Z</time>
      </trkpt>
      <trkpt lat="42.98279" lon="0.54741">
        <ele>1082.321</ele>
        <time>2021-02-27T09:13:35Z</time>
      </trkpt>
      <trkpt lat="42.98281" lon="0.54739">
        <ele>1082.515</ele>
        <time>2021-02-27T09:13:37Z</time>
      </trkpt>
      <trkpt lat="42.98281" lon="0.54738">
        <ele>1082.621</ele>
        <time>2021-02-27T09:13:39Z</time>
      </trkpt>
      <trkpt lat="42.98283" lon="0.54736">
        <ele>1082.789</ele>
        <time>2021-02-27T09:13:41Z</time>
      </trkpt>
      <trkpt lat="42.98283" lon="0.54735">
        <ele>1082.708</ele>
        <time>2021-02-27T09:13:43Z</time>
      </trkpt>
      <trkpt lat="42.98284" lon="0.54733">
        <ele>1082.724</ele>
        <time>2021-02-27T09:13:45Z</time>
      </trkpt>
      <trkpt lat="42.98285" lon="0.54731">
        <ele>1083.056</ele>
        <time>2021-02-27T09:13:47Z</time>
      </trkpt>
      <trkpt lat="42.98286" lon="0.5473">
        <ele>1083.492</ele>
        <time>2021-02-27T09:13:49Z</time>
      </trkpt>
      <trkpt lat="42.98287" lon="0.54728">
        <ele>1083.838</ele>
        <time>2021-02-27T09:13:51Z</time>
      </trkpt>
      <trkpt lat="42.98287" lon="0.54726">
        <ele>1084.356</ele>
        <time>2021-02-27T09:13:53Z</time>
      </trkpt>
      <trkpt lat="42.98288" lon="0.54725">
        <ele>1084.071</ele>
        <time>2021-02-27T09:13:55Z</time>
      </trkpt>
      <trkpt lat="42.98288" lon="0.54723">
        <ele>1083.815</ele>
        <time>2021-02-27T09:13:57Z</time>
      </trkpt>
      <trkpt lat="42.98289" lon="0.54721">
        <ele>1084.221</ele>
        <time>2021-02-27T09:13:59Z</time>
      </trkpt>
      <trkpt lat="42.9829" lon="0.5472">
        <ele>1084.161</ele>
        <time>2021-02-27T09:14:01Z</time>
      </trkpt>
      <trkpt lat="42.98291" lon="0.54718">
        <ele>1084.925</ele>
        <time>2021-02-27T09:14:03Z</time>
      </trkpt>
      <trkpt lat="42.98293" lon="0.54716">
        <ele>1087.078</ele>
        <time>2021-02-27T09:14:05Z</time>
      </trkpt>
      <trkpt lat="42.98295" lon="0.54715">
        <ele>1088.1</ele>
        <time>2021-02-27T09:14:07Z</time>
      </trkpt>
      <trkpt lat="42.98296" lon="0.54713">
        <ele>1087.96</ele>
        <time>2021-02-27T09:14:09Z</time>
      </trkpt>
      <trkpt lat="42.98297" lon="0.54712">
        <ele>1088.343</ele>
        <time>2021-02-27T09:14:11Z</time>
      </trkpt>
      <trkpt lat="42.98297" lon="0.54711">
        <ele>1087.07</ele>
        <time>2021-02-27T09:14:13Z</time>
      </trkpt>
      <trkpt lat="42.98298" lon="0.5471">
        <ele>1087.405</ele>
        <time>2021-02-27T09:14:15Z</time>
      </trkpt>
      <trkpt lat="42.98301" lon="0.54708">
        <ele>1089.086</ele>
        <time>2021-02-27T09:14:17Z</time>
      </trkpt>
      <trkpt lat="42.98303" lon="0.54707">
        <ele>1090.595</ele>
        <time>2021-02-27T09:14:19Z</time>
      </trkpt>
      <trkpt lat="42.98304" lon="0.54707">
        <ele>1092.826</ele>
        <time>2021-02-27T09:14:21Z</time>
      </trkpt>
      <trkpt lat="42.98306" lon="0.54706">
        <ele>1093.1</ele>
        <time>2021-02-27T09:14:23Z</time>
      </trkpt>
      <trkpt lat="42.98307" lon="0.54703">
        <ele>1094.315</ele>
        <time>2021-02-27T09:14:25Z</time>
      </trkpt>
      <trkpt lat="42.98309" lon="0.54701">
        <ele>1093.798</ele>
        <time>2021-02-27T09:14:27Z</time>
      </trkpt>
      <trkpt lat="42.9831" lon="0.547">
        <ele>1094.37</ele>
        <time>2021-02-27T09:14:29Z</time>
      </trkpt>
      <trkpt lat="42.98312" lon="0.54698">
        <ele>1095.075</ele>
        <time>2021-02-27T09:14:31Z</time>
      </trkpt>
      <trkpt lat="42.98313" lon="0.54696">
        <ele>1096.52</ele>
        <time>2021-02-27T09:14:33Z</time>
      </trkpt>
      <trkpt lat="42.98315" lon="0.54695">
        <ele>1096.743</ele>
        <time>2021-02-27T09:14:35Z</time>
      </trkpt>
      <trkpt lat="42.98315" lon="0.54694">
        <ele>1096.967</ele>
        <time>2021-02-27T09:14:37Z</time>
      </trkpt>
      <trkpt lat="42.98316" lon="0.54693">
        <ele>1097.767</ele>
        <time>2021-02-27T09:14:39Z</time>
      </trkpt>
      <trkpt lat="42.98317" lon="0.54692">
        <ele>1098.904</ele>
        <time>2021-02-27T09:14:41Z</time>
      </trkpt>
      <trkpt lat="42.98318" lon="0.54692">
        <ele>1099.988</ele>
        <time>2021-02-27T09:14:43Z</time>
      </trkpt>
      <trkpt lat="42.98319" lon="0.54691">
        <ele>1101.068</ele>
        <time>2021-02-27T09:14:45Z</time>
      </trkpt>
      <trkpt lat="42.9832" lon="0.5469">
        <ele>1101.321</ele>
        <time>2021-02-27T09:14:47Z</time>
      </trkpt>
      <trkpt lat="42.98321" lon="0.54688">
        <ele>1102.792</ele>
        <time>2021-02-27T09:14:49Z</time>
      </trkpt>
      <trkpt lat="42.98322" lon="0.54687">
        <ele>1103.16</ele>
        <time>2021-02-27T09:14:51Z</time>
      </trkpt>
      <trkpt lat="42.98323" lon="0.54686">
        <ele>1103.968</ele>
        <time>2021-02-27T09:14:53Z</time>
      </trkpt>
      <trkpt lat="42.98324" lon="0.54685">
        <ele>1104.905</ele>
        <time>2021-02-27T09:14:55Z</time>
      </trkpt>
      <trkpt lat="42.98325" lon="0.54684">
        <ele>1105.081</ele>
        <time>2021-02-27T09:14:57Z</time>
      </trkpt>
      <trkpt lat="42.98326" lon="0.54682">
        <ele>1105.613</ele>
        <time>2021-02-27T09:14:59Z</time>
      </trkpt>
      <trkpt lat="42.98328" lon="0.54681">
        <ele>1106.218</ele>
        <time>2021-02-27T09:15:01Z</time>
      </trkpt>
      <trkpt lat="42.98329" lon="0.5468">
        <ele>1107.235</ele>
        <time>2021-02-27T09:15:03Z</time>
      </trkpt>
      <trkpt lat="42.9833" lon="0.54679">
        <ele>1108.659</ele>
        <time>2021-02-27T09:15:05Z</time>
      </trkpt>
      <trkpt lat="42.98331" lon="0.54678">
        <ele>1108.68</ele>
        <time>2021-02-27T09:15:07Z</time>
      </trkpt>
      <trkpt lat="42.98332" lon="0.54677">
        <ele>1109.215</ele>
        <time>2021-02-27T09:15:09Z</time>
      </trkpt>
      <trkpt lat="42.98333" lon="0.54675">
        <ele>1110.535</ele>
        <time>2021-02-27T09:15:11Z</time>
      </trkpt>
      <trkpt lat="42.98334" lon="0.54674">
        <ele>1111.012</ele>
        <time>2021-02-27T09:15:13Z</time>
      </trkpt>
      <trkpt lat="42.98335" lon="0.54673">
        <ele>1111.255</ele>
        <time>2021-02-27T09:15:15Z</time>
      </trkpt>
      <trkpt lat="42.98337" lon="0.54671">
        <ele>1112.466</ele>
        <time>2021-02-27T09:15:17Z</time>
      </trkpt>
      <trkpt lat="42.98338" lon="0.5467">
        <ele>1112.492</ele>
        <time>2021-02-27T09:15:19Z</time>
      </trkpt>
      <trkpt lat="42.98339" lon="0.54669">
        <ele>1112.545</ele>
        <time>2021-02-27T09:15:21Z</time>
      </trkpt>
      <trkpt lat="42.98341" lon="0.54667">
        <ele>1113.34</ele>
        <time>2021-02-27T09:15:23Z</time>
      </trkpt>
      <trkpt lat="42.98342" lon="0.54666">
        <ele>1113.833</ele>
        <time>2021-02-27T09:15:25Z</time>
      </trkpt>
      <trkpt lat="42.98343" lon="0.54664">
        <ele>1114.678</ele>
        <time>2021-02-27T09:15:27Z</time>
      </trkpt>
      <trkpt lat="42.98344" lon="0.54663">
        <ele>1115.953</ele>
        <time>2021-02-27T09:15:29Z</time>
      </trkpt>
      <trkpt lat="42.98345" lon="0.54662">
        <ele>1116.074</ele>
        <time>2021-02-27T09:15:31Z</time>
      </trkpt>
      <trkpt lat="42.98346" lon="0.5466">
        <ele>1117.69</ele>
        <time>2021-02-27T09:15:33Z</time>
      </trkpt>
      <trkpt lat="42.98347" lon="0.54659">
        <ele>1117.92</ele>
        <time>2021-02-27T09:15:35Z</time>
      </trkpt>
      <trkpt lat="42.98348" lon="0.54658">
        <ele>1117.945</ele>
        <time>2021-02-27T09:15:37Z</time>
      </trkpt>
      <trkpt lat="42.98349" lon="0.54657">
        <ele>1117.95</ele>
        <time>2021-02-27T09:15:39Z</time>
      </trkpt>
      <trkpt lat="42.9835" lon="0.54656">
        <ele>1119.069</ele>
        <time>2021-02-27T09:15:41Z</time>
      </trkpt>
      <trkpt lat="42.98352" lon="0.54655">
        <ele>1118.896</ele>
        <time>2021-02-27T09:15:43Z</time>
      </trkpt>
      <trkpt lat="42.98353" lon="0.54653">
        <ele>1119.282</ele>
        <time>2021-02-27T09:15:45Z</time>
      </trkpt>
      <trkpt lat="42.98354" lon="0.54652">
        <ele>1119.747</ele>
        <time>2021-02-27T09:15:47Z</time>
      </trkpt>
      <trkpt lat="42.98355" lon="0.54651">
        <ele>1120.714</ele>
        <time>2021-02-27T09:15:49Z</time>
      </trkpt>
      <trkpt lat="42.98356" lon="0.54649">
        <ele>1121.28</ele>
        <time>2021-02-27T09:15:51Z</time>
      </trkpt>
      <trkpt lat="42.98357" lon="0.54647">
        <ele>1121.4</ele>
        <time>2021-02-27T09:15:53Z</time>
      </trkpt>
      <trkpt lat="42.98357" lon="0.54646">
        <ele>1121.466</ele>
        <time>2021-02-27T09:15:55Z</time>
      </trkpt>
      <trkpt lat="42.98358" lon="0.54645">
        <ele>1121.86</ele>
        <time>2021-02-27T09:15:57Z</time>
      </trkpt>
      <trkpt lat="42.98359" lon="0.54644">
        <ele>1122.849</ele>
        <time>2021-02-27T09:15:59Z</time>
      </trkpt>
      <trkpt lat="42.98361" lon="0.54643">
        <ele>1123.219</ele>
        <time>2021-02-27T09:16:01Z</time>
      </trkpt>
      <trkpt lat="42.98361" lon="0.54641">
        <ele>1123.372</ele>
        <time>2021-02-27T09:16:03Z</time>
      </trkpt>
      <trkpt lat="42.98362" lon="0.54639">
        <ele>1124.026</ele>
        <time>2021-02-27T09:16:05Z</time>
      </trkpt>
      <trkpt lat="42.98363" lon="0.54638">
        <ele>1124.751</ele>
        <time>2021-02-27T09:16:07Z</time>
      </trkpt>
      <trkpt lat="42.98364" lon="0.54637">
        <ele>1125.081</ele>
        <time>2021-02-27T09:16:09Z</time>
      </trkpt>
      <trkpt lat="42.98364" lon="0.54636">
        <ele>1125.494</ele>
        <time>2021-02-27T09:16:11Z</time>
      </trkpt>
      <trkpt lat="42.98365" lon="0.54635">
        <ele>1125.505</ele>
        <time>2021-02-27T09:16:13Z</time>
      </trkpt>
      <trkpt lat="42.98366" lon="0.54634">
        <ele>1125.507</ele>
        <time>2021-02-27T09:16:15Z</time>
      </trkpt>
      <trkpt lat="42.98367" lon="0.54632">
        <ele>1125.338</ele>
        <time>2021-02-27T09:16:17Z</time>
      </trkpt>
      <trkpt lat="42.98368" lon="0.54632">
        <ele>1126.231</ele>
        <time>2021-02-27T09:16:19Z</time>
      </trkpt>
      <trkpt lat="42.98369" lon="0.5463">
        <ele>1126.788</ele>
        <time>2021-02-27T09:16:21Z</time>
      </trkpt>
      <trkpt lat="42.98369" lon="0.54629">
        <ele>1127.209</ele>
        <time>2021-02-27T09:16:23Z</time>
      </trkpt>
      <trkpt lat="42.9837" lon="0.54628">
        <ele>1126.946</ele>
        <time>2021-02-27T09:16:25Z</time>
      </trkpt>
      <trkpt lat="42.98371" lon="0.54627">
        <ele>1128.054</ele>
        <time>2021-02-27T09:16:27Z</time>
      </trkpt>
      <trkpt lat="42.98372" lon="0.54626">
        <ele>1128.769</ele>
        <time>2021-02-27T09:16:29Z</time>
      </trkpt>
      <trkpt lat="42.98373" lon="0.54624">
        <ele>1129.445</ele>
        <time>2021-02-27T09:16:31Z</time>
      </trkpt>
      <trkpt lat="42.98374" lon="0.54623">
        <ele>1129.627</ele>
        <time>2021-02-27T09:16:33Z</time>
      </trkpt>
      <trkpt lat="42.98374" lon="0.54622">
        <ele>1130.065</ele>
        <time>2021-02-27T09:16:35Z</time>
      </trkpt>
      <trkpt lat="42.98375" lon="0.54621">
        <ele>1130.254</ele>
        <time>2021-02-27T09:16:37Z</time>
      </trkpt>
      <trkpt lat="42.98376" lon="0.5462">
        <ele>1130.454</ele>
        <time>2021-02-27T09:16:39Z</time>
      </trkpt>
      <trkpt lat="42.98377" lon="0.54619">
        <ele>1131.102</ele>
        <time>2021-02-27T09:16:41Z</time>
      </trkpt>
      <trkpt lat="42.98378" lon="0.54618">
        <ele>1131.306</ele>
        <time>2021-02-27T09:16:43Z</time>
      </trkpt>
      <trkpt lat="42.98379" lon="0.54617">
        <ele>1131.705</ele>
        <time>2021-02-27T09:16:45Z</time>
      </trkpt>
      <trkpt lat="42.9838" lon="0.54616">
        <ele>1132.218</ele>
        <time>2021-02-27T09:16:47Z</time>
      </trkpt>
      <trkpt lat="42.98381" lon="0.54615">
        <ele>1132.446</ele>
        <time>2021-02-27T09:16:49Z</time>
      </trkpt>
      <trkpt lat="42.98382" lon="0.54614">
        <ele>1133.017</ele>
        <time>2021-02-27T09:16:51Z</time>
      </trkpt>
      <trkpt lat="42.98383" lon="0.54613">
        <ele>1132.521</ele>
        <time>2021-02-27T09:16:53Z</time>
      </trkpt>
      <trkpt lat="42.98383" lon="0.54612">
        <ele>1132.965</ele>
        <time>2021-02-27T09:16:55Z</time>
      </trkpt>
      <trkpt lat="42.98384" lon="0.54611">
        <ele>1133.492</ele>
        <time>2021-02-27T09:16:57Z</time>
      </trkpt>
      <trkpt lat="42.98385" lon="0.54609">
        <ele>1133.96</ele>
        <time>2021-02-27T09:16:59Z</time>
      </trkpt>
      <trkpt lat="42.98386" lon="0.54608">
        <ele>1134.5</ele>
        <time>2021-02-27T09:17:01Z</time>
      </trkpt>
      <trkpt lat="42.98386" lon="0.54608">
        <ele>1134.754</ele>
        <time>2021-02-27T09:17:03Z</time>
      </trkpt>
      <trkpt lat="42.98387" lon="0.54606">
        <ele>1134.961</ele>
        <time>2021-02-27T09:17:05Z</time>
      </trkpt>
      <trkpt lat="42.98388" lon="0.54605">
        <ele>1135.498</ele>
        <time>2021-02-27T09:17:07Z</time>
      </trkpt>
      <trkpt lat="42.98389" lon="0.54604">
        <ele>1136.219</ele>
        <time>2021-02-27T09:17:09Z</time>
      </trkpt>
      <trkpt lat="42.98389" lon="0.54602">
        <ele>1137.141</ele>
        <time>2021-02-27T09:17:11Z</time>
      </trkpt>
      <trkpt lat="42.9839" lon="0.54601">
        <ele>1137.968</ele>
        <time>2021-02-27T09:17:13Z</time>
      </trkpt>
      <trkpt lat="42.9839" lon="0.546">
        <ele>1138.427</ele>
        <time>2021-02-27T09:17:15Z</time>
      </trkpt>
      <trkpt lat="42.98391" lon="0.54598">
        <ele>1139.281</ele>
        <time>2021-02-27T09:17:17Z</time>
      </trkpt>
      <trkpt lat="42.98391" lon="0.54596">
        <ele>1139.689</ele>
        <time>2021-02-27T09:17:19Z</time>
      </trkpt>
      <trkpt lat="42.98392" lon="0.54595">
        <ele>1139.603</ele>
        <time>2021-02-27T09:17:21Z</time>
      </trkpt>
      <trkpt lat="42.98393" lon="0.54593">
        <ele>1139.945</ele>
        <time>2021-02-27T09:17:23Z</time>
      </trkpt>
      <trkpt lat="42.98394" lon="0.54592">
        <ele>1140.029</ele>
        <time>2021-02-27T09:17:25Z</time>
      </trkpt>
      <trkpt lat="42.98395" lon="0.5459">
        <ele>1140.988</ele>
        <time>2021-02-27T09:17:27Z</time>
      </trkpt>
      <trkpt lat="42.98396" lon="0.54589">
        <ele>1141.114</ele>
        <time>2021-02-27T09:17:29Z</time>
      </trkpt>
      <trkpt lat="42.98397" lon="0.54587">
        <ele>1141.508</ele>
        <time>2021-02-27T09:17:31Z</time>
      </trkpt>
      <trkpt lat="42.98398" lon="0.54586">
        <ele>1141.209</ele>
        <time>2021-02-27T09:17:33Z</time>
      </trkpt>
      <trkpt lat="42.98399" lon="0.54584">
        <ele>1141.019</ele>
        <time>2021-02-27T09:17:35Z</time>
      </trkpt>
      <trkpt lat="42.98399" lon="0.54583">
        <ele>1140.846</ele>
        <time>2021-02-27T09:17:37Z</time>
      </trkpt>
      <trkpt lat="42.984" lon="0.54581">
        <ele>1141.751</ele>
        <time>2021-02-27T09:17:39Z</time>
      </trkpt>
      <trkpt lat="42.984" lon="0.54581">
        <ele>1142.115</ele>
        <time>2021-02-27T09:17:41Z</time>
      </trkpt>
      <trkpt lat="42.98401" lon="0.54579">
        <ele>1141.699</ele>
        <time>2021-02-27T09:17:43Z</time>
      </trkpt>
      <trkpt lat="42.98402" lon="0.54577">
        <ele>1141.703</ele>
        <time>2021-02-27T09:17:45Z</time>
      </trkpt>
      <trkpt lat="42.98403" lon="0.54576">
        <ele>1141.693</ele>
        <time>2021-02-27T09:17:47Z</time>
      </trkpt>
      <trkpt lat="42.98404" lon="0.54574">
        <ele>1142.022</ele>
        <time>2021-02-27T09:17:49Z</time>
      </trkpt>
      <trkpt lat="42.98405" lon="0.54572">
        <ele>1142.351</ele>
        <time>2021-02-27T09:17:51Z</time>
      </trkpt>
      <trkpt lat="42.98406" lon="0.54571">
        <ele>1142.614</ele>
        <time>2021-02-27T09:17:53Z</time>
      </trkpt>
      <trkpt lat="42.98406" lon="0.5457">
        <ele>1142.364</ele>
        <time>2021-02-27T09:17:55Z</time>
      </trkpt>
      <trkpt lat="42.98408" lon="0.54569">
        <ele>1142.46</ele>
        <time>2021-02-27T09:17:57Z</time>
      </trkpt>
      <trkpt lat="42.98409" lon="0.54567">
        <ele>1142.69</ele>
        <time>2021-02-27T09:17:59Z</time>
      </trkpt>
      <trkpt lat="42.9841" lon="0.54565">
        <ele>1142.348</ele>
        <time>2021-02-27T09:18:01Z</time>
      </trkpt>
      <trkpt lat="42.9841" lon="0.54564">
        <ele>1143.542</ele>
        <time>2021-02-27T09:18:03Z</time>
      </trkpt>
      <trkpt lat="42.98411" lon="0.54563">
        <ele>1143.705</ele>
        <time>2021-02-27T09:18:05Z</time>
      </trkpt>
      <trkpt lat="42.98412" lon="0.54562">
        <ele>1144.112</ele>
        <time>2021-02-27T09:18:07Z</time>
      </trkpt>
      <trkpt lat="42.98413" lon="0.54561">
        <ele>1144.806</ele>
        <time>2021-02-27T09:18:09Z</time>
      </trkpt>
      <trkpt lat="42.98413" lon="0.54559">
        <ele>1144.828</ele>
        <time>2021-02-27T09:18:11Z</time>
      </trkpt>
      <trkpt lat="42.98414" lon="0.54557">
        <ele>1144.287</ele>
        <time>2021-02-27T09:18:13Z</time>
      </trkpt>
      <trkpt lat="42.98414" lon="0.54555">
        <ele>1144.856</ele>
        <time>2021-02-27T09:18:15Z</time>
      </trkpt>
      <trkpt lat="42.98415" lon="0.54553">
        <ele>1145.339</ele>
        <time>2021-02-27T09:18:17Z</time>
      </trkpt>
      <trkpt lat="42.98416" lon="0.54551">
        <ele>1144.834</ele>
        <time>2021-02-27T09:18:19Z</time>
      </trkpt>
      <trkpt lat="42.98417" lon="0.54549">
        <ele>1145.841</ele>
        <time>2021-02-27T09:18:21Z</time>
      </trkpt>
      <trkpt lat="42.98418" lon="0.54547">
        <ele>1146.198</ele>
        <time>2021-02-27T09:18:23Z</time>
      </trkpt>
      <trkpt lat="42.98418" lon="0.54546">
        <ele>1146.693</ele>
        <time>2021-02-27T09:18:25Z</time>
      </trkpt>
      <trkpt lat="42.98419" lon="0.54545">
        <ele>1146.282</ele>
        <time>2021-02-27T09:18:27Z</time>
      </trkpt>
      <trkpt lat="42.98421" lon="0.54543">
        <ele>1147.141</ele>
        <time>2021-02-27T09:18:29Z</time>
      </trkpt>
      <trkpt lat="42.98421" lon="0.5454">
        <ele>1146.882</ele>
        <time>2021-02-27T09:18:31Z</time>
      </trkpt>
      <trkpt lat="42.98422" lon="0.54538">
        <ele>1147.131</ele>
        <time>2021-02-27T09:18:33Z</time>
      </trkpt>
      <trkpt lat="42.98423" lon="0.54537">
        <ele>1146.981</ele>
        <time>2021-02-27T09:18:35Z</time>
      </trkpt>
      <trkpt lat="42.98424" lon="0.54535">
        <ele>1147.367</ele>
        <time>2021-02-27T09:18:37Z</time>
      </trkpt>
      <trkpt lat="42.98425" lon="0.54534">
        <ele>1148.075</ele>
        <time>2021-02-27T09:18:39Z</time>
      </trkpt>
      <trkpt lat="42.98426" lon="0.54533">
        <ele>1148.377</ele>
        <time>2021-02-27T09:18:41Z</time>
      </trkpt>
      <trkpt lat="42.98427" lon="0.54532">
        <ele>1148.361</ele>
        <time>2021-02-27T09:18:43Z</time>
      </trkpt>
      <trkpt lat="42.98428" lon="0.54531">
        <ele>1147.978</ele>
        <time>2021-02-27T09:18:45Z</time>
      </trkpt>
      <trkpt lat="42.98428" lon="0.54529">
        <ele>1147.75</ele>
        <time>2021-02-27T09:18:47Z</time>
      </trkpt>
      <trkpt lat="42.98429" lon="0.54528">
        <ele>1147.116</ele>
        <time>2021-02-27T09:18:49Z</time>
      </trkpt>
      <trkpt lat="42.98429" lon="0.54526">
        <ele>1147.069</ele>
        <time>2021-02-27T09:18:51Z</time>
      </trkpt>
      <trkpt lat="42.9843" lon="0.54525">
        <ele>1148.143</ele>
        <time>2021-02-27T09:18:53Z</time>
      </trkpt>
      <trkpt lat="42.9843" lon="0.54524">
        <ele>1147.527</ele>
        <time>2021-02-27T09:18:55Z</time>
      </trkpt>
      <trkpt lat="42.9843" lon="0.54524">
        <ele>1147.538</ele>
        <time>2021-02-27T09:18:57Z</time>
      </trkpt>
      <trkpt lat="42.98431" lon="0.54524">
        <ele>1147.531</ele>
        <time>2021-02-27T09:18:59Z</time>
      </trkpt>
      <trkpt lat="42.98431" lon="0.54524">
        <ele>1147.527</ele>
        <time>2021-02-27T09:19:01Z</time>
      </trkpt>
      <trkpt lat="42.98431" lon="0.54524">
        <ele>1147.53</ele>
        <time>2021-02-27T09:19:03Z</time>
      </trkpt>
      <trkpt lat="42.98431" lon="0.54524">
        <ele>1147.662</ele>
        <time>2021-02-27T09:19:05Z</time>
      </trkpt>
      <trkpt lat="42.98431" lon="0.54523">
        <ele>1148.363</ele>
        <time>2021-02-27T09:19:07Z</time>
      </trkpt>
      <trkpt lat="42.98431" lon="0.54522">
        <ele>1149.227</ele>
        <time>2021-02-27T09:19:09Z</time>
      </trkpt>
      <trkpt lat="42.98432" lon="0.5452">
        <ele>1148.129</ele>
        <time>2021-02-27T09:19:11Z</time>
      </trkpt>
      <trkpt lat="42.98432" lon="0.54518">
        <ele>1149.015</ele>
        <time>2021-02-27T09:19:13Z</time>
      </trkpt>
      <trkpt lat="42.98433" lon="0.54517">
        <ele>1149.607</ele>
        <time>2021-02-27T09:19:15Z</time>
      </trkpt>
      <trkpt lat="42.98434" lon="0.54514">
        <ele>1149.508</ele>
        <time>2021-02-27T09:19:17Z</time>
      </trkpt>
      <trkpt lat="42.98435" lon="0.54513">
        <ele>1151.123</ele>
        <time>2021-02-27T09:19:19Z</time>
      </trkpt>
      <trkpt lat="42.98435" lon="0.54511">
        <ele>1151.979</ele>
        <time>2021-02-27T09:19:21Z</time>
      </trkpt>
      <trkpt lat="42.98436" lon="0.5451">
        <ele>1151.675</ele>
        <time>2021-02-27T09:19:23Z</time>
      </trkpt>
      <trkpt lat="42.98436" lon="0.54508">
        <ele>1152.586</ele>
        <time>2021-02-27T09:19:25Z</time>
      </trkpt>
      <trkpt lat="42.98437" lon="0.54507">
        <ele>1153.743</ele>
        <time>2021-02-27T09:19:27Z</time>
      </trkpt>
      <trkpt lat="42.98438" lon="0.54506">
        <ele>1154.079</ele>
        <time>2021-02-27T09:19:29Z</time>
      </trkpt>
      <trkpt lat="42.98438" lon="0.54504">
        <ele>1153.576</ele>
        <time>2021-02-27T09:19:31Z</time>
      </trkpt>
      <trkpt lat="42.98439" lon="0.54504">
        <ele>1153.169</ele>
        <time>2021-02-27T09:19:33Z</time>
      </trkpt>
      <trkpt lat="42.98439" lon="0.54504">
        <ele>1153.177</ele>
        <time>2021-02-27T09:19:35Z</time>
      </trkpt>
      <trkpt lat="42.98439" lon="0.54504">
        <ele>1153.174</ele>
        <time>2021-02-27T09:19:37Z</time>
      </trkpt>
      <trkpt lat="42.98439" lon="0.54504">
        <ele>1153.183</ele>
        <time>2021-02-27T09:19:39Z</time>
      </trkpt>
      <trkpt lat="42.98439" lon="0.54504">
        <ele>1153.197</ele>
        <time>2021-02-27T09:19:41Z</time>
      </trkpt>
      <trkpt lat="42.98439" lon="0.54504">
        <ele>1153.204</ele>
        <time>2021-02-27T09:19:43Z</time>
      </trkpt>
      <trkpt lat="42.98439" lon="0.54504">
        <ele>1153.209</ele>
        <time>2021-02-27T09:19:45Z</time>
      </trkpt>
      <trkpt lat="42.98439" lon="0.54504">
        <ele>1153.2</ele>
        <time>2021-02-27T09:19:47Z</time>
      </trkpt>
      <trkpt lat="42.98439" lon="0.54504">
        <ele>1153.194</ele>
        <time>2021-02-27T09:19:49Z</time>
      </trkpt>
      <trkpt lat="42.98439" lon="0.54504">
        <ele>1153.184</ele>
        <time>2021-02-27T09:19:51Z</time>
      </trkpt>
      <trkpt lat="42.98439" lon="0.54504">
        <ele>1153.184</ele>
        <time>2021-02-27T09:19:53Z</time>
      </trkpt>
      <trkpt lat="42.98439" lon="0.54504">
        <ele>1153.171</ele>
        <time>2021-02-27T09:19:55Z</time>
      </trkpt>
      <trkpt lat="42.98439" lon="0.54504">
        <ele>1153.169</ele>
        <time>2021-02-27T09:19:57Z</time>
      </trkpt>
      <trkpt lat="42.98439" lon="0.54504">
        <ele>1153.17</ele>
        <time>2021-02-27T09:19:59Z</time>
      </trkpt>
      <trkpt lat="42.98439" lon="0.54503">
        <ele>1153.681</ele>
        <time>2021-02-27T09:20:01Z</time>
      </trkpt>
      <trkpt lat="42.98439" lon="0.54503">
        <ele>1153.682</ele>
        <time>2021-02-27T09:20:03Z</time>
      </trkpt>
      <trkpt lat="42.98439" lon="0.54504">
        <ele>1153.687</ele>
        <time>2021-02-27T09:20:05Z</time>
      </trkpt>
      <trkpt lat="42.98439" lon="0.54504">
        <ele>1153.688</ele>
        <time>2021-02-27T09:20:07Z</time>
      </trkpt>
      <trkpt lat="42.98439" lon="0.54504">
        <ele>1153.69</ele>
        <time>2021-02-27T09:20:09Z</time>
      </trkpt>
      <trkpt lat="42.98439" lon="0.54504">
        <ele>1153.702</ele>
        <time>2021-02-27T09:20:11Z</time>
      </trkpt>
      <trkpt lat="42.98439" lon="0.54504">
        <ele>1153.719</ele>
        <time>2021-02-27T09:20:13Z</time>
      </trkpt>
      <trkpt lat="42.98439" lon="0.54504">
        <ele>1153.718</ele>
        <time>2021-02-27T09:20:15Z</time>
      </trkpt>
      <trkpt lat="42.98439" lon="0.54504">
        <ele>1153.718</ele>
        <time>2021-02-27T09:20:17Z</time>
      </trkpt>
      <trkpt lat="42.98439" lon="0.54504">
        <ele>1153.708</ele>
        <time>2021-02-27T09:20:19Z</time>
      </trkpt>
      <trkpt lat="42.98439" lon="0.54504">
        <ele>1153.693</ele>
        <time>2021-02-27T09:20:21Z</time>
      </trkpt>
      <trkpt lat="42.98439" lon="0.54504">
        <ele>1153.679</ele>
        <time>2021-02-27T09:20:23Z</time>
      </trkpt>
      <trkpt lat="42.98439" lon="0.54504">
        <ele>1153.658</ele>
        <time>2021-02-27T09:20:25Z</time>
      </trkpt>
      <trkpt lat="42.98439" lon="0.54504">
        <ele>1153.638</ele>
        <time>2021-02-27T09:20:27Z</time>
      </trkpt>
      <trkpt lat="42.98439" lon="0.54504">
        <ele>1153.633</ele>
        <time>2021-02-27T09:20:29Z</time>
      </trkpt>
      <trkpt lat="42.98439" lon="0.54504">
        <ele>1153.635</ele>
        <time>2021-02-27T09:20:31Z</time>
      </trkpt>
      <trkpt lat="42.98439" lon="0.54504">
        <ele>1153.633</ele>
        <time>2021-02-27T09:20:33Z</time>
      </trkpt>
      <trkpt lat="42.98439" lon="0.54504">
        <ele>1153.639</ele>
        <time>2021-02-27T09:20:35Z</time>
      </trkpt>
      <trkpt lat="42.98439" lon="0.54504">
        <ele>1153.643</ele>
        <time>2021-02-27T09:20:37Z</time>
      </trkpt>
      <trkpt lat="42.98439" lon="0.54504">
        <ele>1153.656</ele>
        <time>2021-02-27T09:20:39Z</time>
      </trkpt>
      <trkpt lat="42.98439" lon="0.54504">
        <ele>1153.664</ele>
        <time>2021-02-27T09:20:41Z</time>
      </trkpt>
      <trkpt lat="42.98439" lon="0.54504">
        <ele>1153.685</ele>
        <time>2021-02-27T09:20:43Z</time>
      </trkpt>
      <trkpt lat="42.98439" lon="0.54504">
        <ele>1153.707</ele>
        <time>2021-02-27T09:20:45Z</time>
      </trkpt>
      <trkpt lat="42.98439" lon="0.54504">
        <ele>1153.721</ele>
        <time>2021-02-27T09:20:47Z</time>
      </trkpt>
      <trkpt lat="42.98439" lon="0.54504">
        <ele>1153.717</ele>
        <time>2021-02-27T09:20:49Z</time>
      </trkpt>
      <trkpt lat="42.98439" lon="0.54504">
        <ele>1153.544</ele>
        <time>2021-02-27T09:20:51Z</time>
      </trkpt>
      <trkpt lat="42.9844" lon="0.54504">
        <ele>1153.549</ele>
        <time>2021-02-27T09:20:53Z</time>
      </trkpt>
      <trkpt lat="42.9844" lon="0.54504">
        <ele>1153.578</ele>
        <time>2021-02-27T09:20:55Z</time>
      </trkpt>
      <trkpt lat="42.9844" lon="0.54504">
        <ele>1153.575</ele>
        <time>2021-02-27T09:20:57Z</time>
      </trkpt>
      <trkpt lat="42.9844" lon="0.54504">
        <ele>1153.578</ele>
        <time>2021-02-27T09:20:59Z</time>
      </trkpt>
      <trkpt lat="42.9844" lon="0.54504">
        <ele>1153.585</ele>
        <time>2021-02-27T09:21:01Z</time>
      </trkpt>
      <trkpt lat="42.9844" lon="0.54504">
        <ele>1153.6</ele>
        <time>2021-02-27T09:21:04Z</time>
      </trkpt>
      <trkpt lat="42.9844" lon="0.54504">
        <ele>1153.835</ele>
        <time>2021-02-27T09:21:06Z</time>
      </trkpt>
      <trkpt lat="42.9844" lon="0.54504">
        <ele>1153.865</ele>
        <time>2021-02-27T09:21:08Z</time>
      </trkpt>
      <trkpt lat="42.9844" lon="0.54504">
        <ele>1153.609</ele>
        <time>2021-02-27T09:21:10Z</time>
      </trkpt>
      <trkpt lat="42.9844" lon="0.54504">
        <ele>1153.604</ele>
        <time>2021-02-27T09:21:12Z</time>
      </trkpt>
      <trkpt lat="42.9844" lon="0.54504">
        <ele>1153.616</ele>
        <time>2021-02-27T09:21:14Z</time>
      </trkpt>
      <trkpt lat="42.9844" lon="0.54504">
        <ele>1153.623</ele>
        <time>2021-02-27T09:21:16Z</time>
      </trkpt>
      <trkpt lat="42.9844" lon="0.54504">
        <ele>1153.636</ele>
        <time>2021-02-27T09:21:18Z</time>
      </trkpt>
      <trkpt lat="42.9844" lon="0.54504">
        <ele>1153.654</ele>
        <time>2021-02-27T09:21:20Z</time>
      </trkpt>
      <trkpt lat="42.9844" lon="0.54504">
        <ele>1153.664</ele>
        <time>2021-02-27T09:21:22Z</time>
      </trkpt>
      <trkpt lat="42.9844" lon="0.54504">
        <ele>1153.685</ele>
        <time>2021-02-27T09:21:24Z</time>
      </trkpt>
      <trkpt lat="42.9844" lon="0.54503">
        <ele>1153.841</ele>
        <time>2021-02-27T09:21:27Z</time>
      </trkpt>
      <trkpt lat="42.9844" lon="0.54502">
        <ele>1153.701</ele>
        <time>2021-02-27T09:21:29Z</time>
      </trkpt>
      <trkpt lat="42.98441" lon="0.54501">
        <ele>1154.247</ele>
        <time>2021-02-27T09:21:31Z</time>
      </trkpt>
      <trkpt lat="42.98441" lon="0.545">
        <ele>1154.123</ele>
        <time>2021-02-27T09:21:32Z</time>
      </trkpt>
      <trkpt lat="42.98442" lon="0.54498">
        <ele>1155.391</ele>
        <time>2021-02-27T09:21:35Z</time>
      </trkpt>
      <trkpt lat="42.98443" lon="0.54496">
        <ele>1155.728</ele>
        <time>2021-02-27T09:21:37Z</time>
      </trkpt>
      <trkpt lat="42.98444" lon="0.54494">
        <ele>1156.923</ele>
        <time>2021-02-27T09:21:39Z</time>
      </trkpt>
      <trkpt lat="42.98444" lon="0.54492">
        <ele>1156.603</ele>
        <time>2021-02-27T09:21:41Z</time>
      </trkpt>
      <trkpt lat="42.98446" lon="0.54489">
        <ele>1156.656</ele>
        <time>2021-02-27T09:21:43Z</time>
      </trkpt>
      <trkpt lat="42.98447" lon="0.54486">
        <ele>1156.396</ele>
        <time>2021-02-27T09:21:45Z</time>
      </trkpt>
      <trkpt lat="42.98448" lon="0.54484">
        <ele>1155.361</ele>
        <time>2021-02-27T09:21:47Z</time>
      </trkpt>
      <trkpt lat="42.98449" lon="0.54482">
        <ele>1156.104</ele>
        <time>2021-02-27T09:21:49Z</time>
      </trkpt>
      <trkpt lat="42.9845" lon="0.54481">
        <ele>1156.084</ele>
        <time>2021-02-27T09:21:51Z</time>
      </trkpt>
      <trkpt lat="42.98451" lon="0.5448">
        <ele>1156.496</ele>
        <time>2021-02-27T09:21:53Z</time>
      </trkpt>
      <trkpt lat="42.98453" lon="0.54479">
        <ele>1156.731</ele>
        <time>2021-02-27T09:21:55Z</time>
      </trkpt>
      <trkpt lat="42.98454" lon="0.54478">
        <ele>1156.672</ele>
        <time>2021-02-27T09:21:57Z</time>
      </trkpt>
      <trkpt lat="42.98455" lon="0.54477">
        <ele>1157.057</ele>
        <time>2021-02-27T09:21:59Z</time>
      </trkpt>
      <trkpt lat="42.98456" lon="0.54476">
        <ele>1157.626</ele>
        <time>2021-02-27T09:22:01Z</time>
      </trkpt>
      <trkpt lat="42.98457" lon="0.54476">
        <ele>1157.887</ele>
        <time>2021-02-27T09:22:03Z</time>
      </trkpt>
      <trkpt lat="42.98459" lon="0.54475">
        <ele>1158.847</ele>
        <time>2021-02-27T09:22:05Z</time>
      </trkpt>
      <trkpt lat="42.9846" lon="0.54475">
        <ele>1158.919</ele>
        <time>2021-02-27T09:22:07Z</time>
      </trkpt>
      <trkpt lat="42.98461" lon="0.54475">
        <ele>1158.752</ele>
        <time>2021-02-27T09:22:09Z</time>
      </trkpt>
      <trkpt lat="42.98462" lon="0.54475">
        <ele>1159.05</ele>
        <time>2021-02-27T09:22:11Z</time>
      </trkpt>
      <trkpt lat="42.98463" lon="0.54475">
        <ele>1159.305</ele>
        <time>2021-02-27T09:22:13Z</time>
      </trkpt>
      <trkpt lat="42.98465" lon="0.54475">
        <ele>1160.683</ele>
        <time>2021-02-27T09:22:15Z</time>
      </trkpt>
      <trkpt lat="42.98466" lon="0.54475">
        <ele>1161.546</ele>
        <time>2021-02-27T09:22:17Z</time>
      </trkpt>
      <trkpt lat="42.98467" lon="0.54475">
        <ele>1162.018</ele>
        <time>2021-02-27T09:22:19Z</time>
      </trkpt>
      <trkpt lat="42.98469" lon="0.54476">
        <ele>1162.485</ele>
        <time>2021-02-27T09:22:21Z</time>
      </trkpt>
      <trkpt lat="42.9847" lon="0.54476">
        <ele>1162.248</ele>
        <time>2021-02-27T09:22:23Z</time>
      </trkpt>
      <trkpt lat="42.98471" lon="0.54477">
        <ele>1162.363</ele>
        <time>2021-02-27T09:22:25Z</time>
      </trkpt>
      <trkpt lat="42.98472" lon="0.54477">
        <ele>1162.405</ele>
        <time>2021-02-27T09:22:27Z</time>
      </trkpt>
      <trkpt lat="42.98473" lon="0.54478">
        <ele>1163.621</ele>
        <time>2021-02-27T09:22:29Z</time>
      </trkpt>
      <trkpt lat="42.98475" lon="0.54477">
        <ele>1163.99</ele>
        <time>2021-02-27T09:22:31Z</time>
      </trkpt>
      <trkpt lat="42.98476" lon="0.54479">
        <ele>1165.725</ele>
        <time>2021-02-27T09:22:33Z</time>
      </trkpt>
      <trkpt lat="42.98477" lon="0.54478">
        <ele>1165.81</ele>
        <time>2021-02-27T09:22:35Z</time>
      </trkpt>
      <trkpt lat="42.98479" lon="0.54478">
        <ele>1165.939</ele>
        <time>2021-02-27T09:22:37Z</time>
      </trkpt>
      <trkpt lat="42.9848" lon="0.54478">
        <ele>1166.988</ele>
        <time>2021-02-27T09:22:39Z</time>
      </trkpt>
      <trkpt lat="42.98481" lon="0.54478">
        <ele>1167.168</ele>
        <time>2021-02-27T09:22:41Z</time>
      </trkpt>
      <trkpt lat="42.98483" lon="0.54478">
        <ele>1169.191</ele>
        <time>2021-02-27T09:22:43Z</time>
      </trkpt>
      <trkpt lat="42.98484" lon="0.54477">
        <ele>1169.163</ele>
        <time>2021-02-27T09:22:45Z</time>
      </trkpt>
      <trkpt lat="42.98485" lon="0.54476">
        <ele>1169.512</ele>
        <time>2021-02-27T09:22:47Z</time>
      </trkpt>
      <trkpt lat="42.98487" lon="0.54475">
        <ele>1169.682</ele>
        <time>2021-02-27T09:22:49Z</time>
      </trkpt>
      <trkpt lat="42.98488" lon="0.54474">
        <ele>1170.127</ele>
        <time>2021-02-27T09:22:51Z</time>
      </trkpt>
      <trkpt lat="42.98489" lon="0.54474">
        <ele>1169.937</ele>
        <time>2021-02-27T09:22:53Z</time>
      </trkpt>
      <trkpt lat="42.98491" lon="0.54472">
        <ele>1169.872</ele>
        <time>2021-02-27T09:22:55Z</time>
      </trkpt>
      <trkpt lat="42.98492" lon="0.5447">
        <ele>1170.432</ele>
        <time>2021-02-27T09:22:57Z</time>
      </trkpt>
      <trkpt lat="42.98493" lon="0.54469">
        <ele>1171.536</ele>
        <time>2021-02-27T09:22:59Z</time>
      </trkpt>
      <trkpt lat="42.98494" lon="0.54467">
        <ele>1171.46</ele>
        <time>2021-02-27T09:23:01Z</time>
      </trkpt>
      <trkpt lat="42.98495" lon="0.54466">
        <ele>1171.99</ele>
        <time>2021-02-27T09:23:03Z</time>
      </trkpt>
      <trkpt lat="42.98496" lon="0.54465">
        <ele>1172.476</ele>
        <time>2021-02-27T09:23:05Z</time>
      </trkpt>
      <trkpt lat="42.98498" lon="0.54464">
        <ele>1172.628</ele>
        <time>2021-02-27T09:23:07Z</time>
      </trkpt>
      <trkpt lat="42.98499" lon="0.54464">
        <ele>1173.588</ele>
        <time>2021-02-27T09:23:09Z</time>
      </trkpt>
      <trkpt lat="42.985" lon="0.54463">
        <ele>1173.542</ele>
        <time>2021-02-27T09:23:11Z</time>
      </trkpt>
      <trkpt lat="42.98502" lon="0.54464">
        <ele>1175.205</ele>
        <time>2021-02-27T09:23:13Z</time>
      </trkpt>
      <trkpt lat="42.98503" lon="0.54464">
        <ele>1175.91</ele>
        <time>2021-02-27T09:23:15Z</time>
      </trkpt>
      <trkpt lat="42.98505" lon="0.54465">
        <ele>1176.074</ele>
        <time>2021-02-27T09:23:17Z</time>
      </trkpt>
      <trkpt lat="42.98506" lon="0.54465">
        <ele>1176.918</ele>
        <time>2021-02-27T09:23:19Z</time>
      </trkpt>
      <trkpt lat="42.98507" lon="0.54466">
        <ele>1178.058</ele>
        <time>2021-02-27T09:23:21Z</time>
      </trkpt>
      <trkpt lat="42.98509" lon="0.54467">
        <ele>1178.945</ele>
        <time>2021-02-27T09:23:23Z</time>
      </trkpt>
      <trkpt lat="42.9851" lon="0.54467">
        <ele>1179.551</ele>
        <time>2021-02-27T09:23:25Z</time>
      </trkpt>
      <trkpt lat="42.98511" lon="0.54468">
        <ele>1180.294</ele>
        <time>2021-02-27T09:23:27Z</time>
      </trkpt>
      <trkpt lat="42.98512" lon="0.54468">
        <ele>1181.249</ele>
        <time>2021-02-27T09:23:29Z</time>
      </trkpt>
      <trkpt lat="42.98513" lon="0.54468">
        <ele>1181.959</ele>
        <time>2021-02-27T09:23:31Z</time>
      </trkpt>
      <trkpt lat="42.98515" lon="0.54469">
        <ele>1183.127</ele>
        <time>2021-02-27T09:23:33Z</time>
      </trkpt>
      <trkpt lat="42.98516" lon="0.54469">
        <ele>1183.352</ele>
        <time>2021-02-27T09:23:35Z</time>
      </trkpt>
      <trkpt lat="42.98517" lon="0.54469">
        <ele>1184.031</ele>
        <time>2021-02-27T09:23:37Z</time>
      </trkpt>
      <trkpt lat="42.98519" lon="0.54468">
        <ele>1183.65</ele>
        <time>2021-02-27T09:23:39Z</time>
      </trkpt>
      <trkpt lat="42.98519" lon="0.54468">
        <ele>1183.506</ele>
        <time>2021-02-27T09:23:41Z</time>
      </trkpt>
      <trkpt lat="42.98521" lon="0.54468">
        <ele>1184.095</ele>
        <time>2021-02-27T09:23:43Z</time>
      </trkpt>
      <trkpt lat="42.98522" lon="0.54468">
        <ele>1183.855</ele>
        <time>2021-02-27T09:23:45Z</time>
      </trkpt>
      <trkpt lat="42.98523" lon="0.54467">
        <ele>1183.683</ele>
        <time>2021-02-27T09:23:47Z</time>
      </trkpt>
      <trkpt lat="42.98525" lon="0.54468">
        <ele>1185.276</ele>
        <time>2021-02-27T09:23:49Z</time>
      </trkpt>
      <trkpt lat="42.98527" lon="0.54468">
        <ele>1186.219</ele>
        <time>2021-02-27T09:23:51Z</time>
      </trkpt>
      <trkpt lat="42.98528" lon="0.54468">
        <ele>1186.693</ele>
        <time>2021-02-27T09:23:53Z</time>
      </trkpt>
      <trkpt lat="42.9853" lon="0.54467">
        <ele>1186.703</ele>
        <time>2021-02-27T09:23:55Z</time>
      </trkpt>
      <trkpt lat="42.98531" lon="0.54466">
        <ele>1187.329</ele>
        <time>2021-02-27T09:23:57Z</time>
      </trkpt>
      <trkpt lat="42.98533" lon="0.54465">
        <ele>1185.941</ele>
        <time>2021-02-27T09:23:59Z</time>
      </trkpt>
      <trkpt lat="42.98534" lon="0.54464">
        <ele>1186.67</ele>
        <time>2021-02-27T09:24:01Z</time>
      </trkpt>
      <trkpt lat="42.98535" lon="0.54463">
        <ele>1187.153</ele>
        <time>2021-02-27T09:24:03Z</time>
      </trkpt>
      <trkpt lat="42.98537" lon="0.54462">
        <ele>1187.277</ele>
        <time>2021-02-27T09:24:05Z</time>
      </trkpt>
      <trkpt lat="42.98538" lon="0.5446">
        <ele>1188.177</ele>
        <time>2021-02-27T09:24:07Z</time>
      </trkpt>
      <trkpt lat="42.98539" lon="0.54458">
        <ele>1187.174</ele>
        <time>2021-02-27T09:24:09Z</time>
      </trkpt>
      <trkpt lat="42.9854" lon="0.54457">
        <ele>1187.156</ele>
        <time>2021-02-27T09:24:11Z</time>
      </trkpt>
      <trkpt lat="42.98542" lon="0.54456">
        <ele>1188.07</ele>
        <time>2021-02-27T09:24:13Z</time>
      </trkpt>
      <trkpt lat="42.98543" lon="0.54454">
        <ele>1188.494</ele>
        <time>2021-02-27T09:24:15Z</time>
      </trkpt>
      <trkpt lat="42.98544" lon="0.54453">
        <ele>1188.236</ele>
        <time>2021-02-27T09:24:17Z</time>
      </trkpt>
      <trkpt lat="42.98546" lon="0.54452">
        <ele>1189.098</ele>
        <time>2021-02-27T09:24:19Z</time>
      </trkpt>
      <trkpt lat="42.98547" lon="0.54451">
        <ele>1188.98</ele>
        <time>2021-02-27T09:24:21Z</time>
      </trkpt>
      <trkpt lat="42.98548" lon="0.5445">
        <ele>1189.085</ele>
        <time>2021-02-27T09:24:23Z</time>
      </trkpt>
      <trkpt lat="42.9855" lon="0.54449">
        <ele>1188.861</ele>
        <time>2021-02-27T09:24:25Z</time>
      </trkpt>
      <trkpt lat="42.98551" lon="0.54448">
        <ele>1188.264</ele>
        <time>2021-02-27T09:24:27Z</time>
      </trkpt>
      <trkpt lat="42.98552" lon="0.54447">
        <ele>1187.809</ele>
        <time>2021-02-27T09:24:29Z</time>
      </trkpt>
      <trkpt lat="42.98554" lon="0.54446">
        <ele>1188.573</ele>
        <time>2021-02-27T09:24:31Z</time>
      </trkpt>
      <trkpt lat="42.98555" lon="0.54445">
        <ele>1189.255</ele>
        <time>2021-02-27T09:24:33Z</time>
      </trkpt>
      <trkpt lat="42.98556" lon="0.54444">
        <ele>1189.89</ele>
        <time>2021-02-27T09:24:35Z</time>
      </trkpt>
      <trkpt lat="42.98558" lon="0.54442">
        <ele>1188.973</ele>
        <time>2021-02-27T09:24:37Z</time>
      </trkpt>
      <trkpt lat="42.98559" lon="0.5444">
        <ele>1188.672</ele>
        <time>2021-02-27T09:24:39Z</time>
      </trkpt>
      <trkpt lat="42.9856" lon="0.54439">
        <ele>1188.765</ele>
        <time>2021-02-27T09:24:41Z</time>
      </trkpt>
      <trkpt lat="42.98562" lon="0.54438">
        <ele>1188.509</ele>
        <time>2021-02-27T09:24:43Z</time>
      </trkpt>
      <trkpt lat="42.98562" lon="0.54436">
        <ele>1188.196</ele>
        <time>2021-02-27T09:24:45Z</time>
      </trkpt>
      <trkpt lat="42.98564" lon="0.54435">
        <ele>1189.636</ele>
        <time>2021-02-27T09:24:47Z</time>
      </trkpt>
      <trkpt lat="42.98565" lon="0.54434">
        <ele>1189.324</ele>
        <time>2021-02-27T09:24:49Z</time>
      </trkpt>
      <trkpt lat="42.98565" lon="0.54432">
        <ele>1189.081</ele>
        <time>2021-02-27T09:24:51Z</time>
      </trkpt>
      <trkpt lat="42.98566" lon="0.5443">
        <ele>1190.555</ele>
        <time>2021-02-27T09:24:53Z</time>
      </trkpt>
      <trkpt lat="42.98568" lon="0.54429">
        <ele>1191.045</ele>
        <time>2021-02-27T09:24:55Z</time>
      </trkpt>
      <trkpt lat="42.98569" lon="0.54428">
        <ele>1192.074</ele>
        <time>2021-02-27T09:24:57Z</time>
      </trkpt>
      <trkpt lat="42.9857" lon="0.54426">
        <ele>1193.053</ele>
        <time>2021-02-27T09:24:59Z</time>
      </trkpt>
      <trkpt lat="42.98571" lon="0.54424">
        <ele>1193.552</ele>
        <time>2021-02-27T09:25:01Z</time>
      </trkpt>
      <trkpt lat="42.98572" lon="0.54422">
        <ele>1194.345</ele>
        <time>2021-02-27T09:25:03Z</time>
      </trkpt>
      <trkpt lat="42.98572" lon="0.5442">
        <ele>1195.204</ele>
        <time>2021-02-27T09:25:05Z</time>
      </trkpt>
      <trkpt lat="42.98573" lon="0.54419">
        <ele>1194.879</ele>
        <time>2021-02-27T09:25:07Z</time>
      </trkpt>
      <trkpt lat="42.98574" lon="0.54416">
        <ele>1195.112</ele>
        <time>2021-02-27T09:25:09Z</time>
      </trkpt>
      <trkpt lat="42.98575" lon="0.54415">
        <ele>1196.478</ele>
        <time>2021-02-27T09:25:11Z</time>
      </trkpt>
      <trkpt lat="42.98576" lon="0.54413">
        <ele>1196.934</ele>
        <time>2021-02-27T09:25:13Z</time>
      </trkpt>
      <trkpt lat="42.98577" lon="0.54412">
        <ele>1197.753</ele>
        <time>2021-02-27T09:25:15Z</time>
      </trkpt>
      <trkpt lat="42.98578" lon="0.54411">
        <ele>1198.685</ele>
        <time>2021-02-27T09:25:17Z</time>
      </trkpt>
      <trkpt lat="42.98578" lon="0.54409">
        <ele>1199.631</ele>
        <time>2021-02-27T09:25:19Z</time>
      </trkpt>
      <trkpt lat="42.98579" lon="0.54407">
        <ele>1199.752</ele>
        <time>2021-02-27T09:25:21Z</time>
      </trkpt>
      <trkpt lat="42.9858" lon="0.54405">
        <ele>1200.737</ele>
        <time>2021-02-27T09:25:23Z</time>
      </trkpt>
      <trkpt lat="42.98581" lon="0.54404">
        <ele>1201.281</ele>
        <time>2021-02-27T09:25:25Z</time>
      </trkpt>
      <trkpt lat="42.98582" lon="0.54402">
        <ele>1201.852</ele>
        <time>2021-02-27T09:25:27Z</time>
      </trkpt>
      <trkpt lat="42.98583" lon="0.544">
        <ele>1201.806</ele>
        <time>2021-02-27T09:25:29Z</time>
      </trkpt>
      <trkpt lat="42.98584" lon="0.54398">
        <ele>1201.36</ele>
        <time>2021-02-27T09:25:31Z</time>
      </trkpt>
      <trkpt lat="42.98584" lon="0.54397">
        <ele>1201.485</ele>
        <time>2021-02-27T09:25:33Z</time>
      </trkpt>
      <trkpt lat="42.98585" lon="0.54395">
        <ele>1202.396</ele>
        <time>2021-02-27T09:25:35Z</time>
      </trkpt>
      <trkpt lat="42.98585" lon="0.54394">
        <ele>1202.559</ele>
        <time>2021-02-27T09:25:37Z</time>
      </trkpt>
      <trkpt lat="42.98586" lon="0.54392">
        <ele>1202.109</ele>
        <time>2021-02-27T09:25:39Z</time>
      </trkpt>
      <trkpt lat="42.98586" lon="0.5439">
        <ele>1202.863</ele>
        <time>2021-02-27T09:25:41Z</time>
      </trkpt>
      <trkpt lat="42.98587" lon="0.54388">
        <ele>1202.701</ele>
        <time>2021-02-27T09:25:43Z</time>
      </trkpt>
      <trkpt lat="42.98587" lon="0.54386">
        <ele>1203.318</ele>
        <time>2021-02-27T09:25:45Z</time>
      </trkpt>
      <trkpt lat="42.98588" lon="0.54384">
        <ele>1203.283</ele>
        <time>2021-02-27T09:25:47Z</time>
      </trkpt>
      <trkpt lat="42.98589" lon="0.54382">
        <ele>1203.251</ele>
        <time>2021-02-27T09:25:49Z</time>
      </trkpt>
      <trkpt lat="42.9859" lon="0.5438">
        <ele>1202.977</ele>
        <time>2021-02-27T09:25:51Z</time>
      </trkpt>
      <trkpt lat="42.9859" lon="0.54378">
        <ele>1203.568</ele>
        <time>2021-02-27T09:25:53Z</time>
      </trkpt>
      <trkpt lat="42.98591" lon="0.54376">
        <ele>1203.987</ele>
        <time>2021-02-27T09:25:55Z</time>
      </trkpt>
      <trkpt lat="42.98591" lon="0.54374">
        <ele>1203.948</ele>
        <time>2021-02-27T09:25:57Z</time>
      </trkpt>
      <trkpt lat="42.98591" lon="0.54372">
        <ele>1204.875</ele>
        <time>2021-02-27T09:25:59Z</time>
      </trkpt>
      <trkpt lat="42.98592" lon="0.5437">
        <ele>1204.854</ele>
        <time>2021-02-27T09:26:01Z</time>
      </trkpt>
      <trkpt lat="42.98592" lon="0.54369">
        <ele>1204.87</ele>
        <time>2021-02-27T09:26:03Z</time>
      </trkpt>
      <trkpt lat="42.98593" lon="0.54367">
        <ele>1205.509</ele>
        <time>2021-02-27T09:26:05Z</time>
      </trkpt>
      <trkpt lat="42.98593" lon="0.54365">
        <ele>1205.451</ele>
        <time>2021-02-27T09:26:07Z</time>
      </trkpt>
      <trkpt lat="42.98593" lon="0.54364">
        <ele>1206.112</ele>
        <time>2021-02-27T09:26:09Z</time>
      </trkpt>
      <trkpt lat="42.98593" lon="0.54361">
        <ele>1206.101</ele>
        <time>2021-02-27T09:26:11Z</time>
      </trkpt>
      <trkpt lat="42.98594" lon="0.54359">
        <ele>1206.177</ele>
        <time>2021-02-27T09:26:13Z</time>
      </trkpt>
      <trkpt lat="42.98594" lon="0.54357">
        <ele>1206.097</ele>
        <time>2021-02-27T09:26:15Z</time>
      </trkpt>
      <trkpt lat="42.98594" lon="0.54355">
        <ele>1205.981</ele>
        <time>2021-02-27T09:26:17Z</time>
      </trkpt>
      <trkpt lat="42.98594" lon="0.54353">
        <ele>1206.297</ele>
        <time>2021-02-27T09:26:19Z</time>
      </trkpt>
      <trkpt lat="42.98595" lon="0.5435">
        <ele>1206.147</ele>
        <time>2021-02-27T09:26:21Z</time>
      </trkpt>
      <trkpt lat="42.98595" lon="0.54349">
        <ele>1206.337</ele>
        <time>2021-02-27T09:26:23Z</time>
      </trkpt>
      <trkpt lat="42.98595" lon="0.54346">
        <ele>1206.328</ele>
        <time>2021-02-27T09:26:25Z</time>
      </trkpt>
      <trkpt lat="42.98595" lon="0.54344">
        <ele>1206.255</ele>
        <time>2021-02-27T09:26:27Z</time>
      </trkpt>
      <trkpt lat="42.98596" lon="0.54342">
        <ele>1206.64</ele>
        <time>2021-02-27T09:26:29Z</time>
      </trkpt>
      <trkpt lat="42.98596" lon="0.54339">
        <ele>1207.261</ele>
        <time>2021-02-27T09:26:31Z</time>
      </trkpt>
      <trkpt lat="42.98596" lon="0.54337">
        <ele>1207.061</ele>
        <time>2021-02-27T09:26:33Z</time>
      </trkpt>
      <trkpt lat="42.98596" lon="0.54335">
        <ele>1207.658</ele>
        <time>2021-02-27T09:26:35Z</time>
      </trkpt>
      <trkpt lat="42.98596" lon="0.54333">
        <ele>1208.075</ele>
        <time>2021-02-27T09:26:37Z</time>
      </trkpt>
      <trkpt lat="42.98596" lon="0.54332">
        <ele>1208.137</ele>
        <time>2021-02-27T09:26:39Z</time>
      </trkpt>
      <trkpt lat="42.98596" lon="0.5433">
        <ele>1208.17</ele>
        <time>2021-02-27T09:26:41Z</time>
      </trkpt>
      <trkpt lat="42.98596" lon="0.54328">
        <ele>1208.424</ele>
        <time>2021-02-27T09:26:43Z</time>
      </trkpt>
      <trkpt lat="42.98596" lon="0.54326">
        <ele>1208.385</ele>
        <time>2021-02-27T09:26:45Z</time>
      </trkpt>
      <trkpt lat="42.98596" lon="0.54323">
        <ele>1209.025</ele>
        <time>2021-02-27T09:26:47Z</time>
      </trkpt>
      <trkpt lat="42.98596" lon="0.54322">
        <ele>1209.22</ele>
        <time>2021-02-27T09:26:49Z</time>
      </trkpt>
      <trkpt lat="42.98596" lon="0.54319">
        <ele>1209.689</ele>
        <time>2021-02-27T09:26:51Z</time>
      </trkpt>
      <trkpt lat="42.98596" lon="0.54317">
        <ele>1210.278</ele>
        <time>2021-02-27T09:26:53Z</time>
      </trkpt>
      <trkpt lat="42.98596" lon="0.54315">
        <ele>1209.228</ele>
        <time>2021-02-27T09:26:55Z</time>
      </trkpt>
      <trkpt lat="42.98596" lon="0.54313">
        <ele>1209.532</ele>
        <time>2021-02-27T09:26:57Z</time>
      </trkpt>
      <trkpt lat="42.98596" lon="0.54311">
        <ele>1210.589</ele>
        <time>2021-02-27T09:26:59Z</time>
      </trkpt>
      <trkpt lat="42.98596" lon="0.54308">
        <ele>1211.003</ele>
        <time>2021-02-27T09:27:01Z</time>
      </trkpt>
      <trkpt lat="42.98596" lon="0.54306">
        <ele>1211.347</ele>
        <time>2021-02-27T09:27:03Z</time>
      </trkpt>
      <trkpt lat="42.98596" lon="0.54304">
        <ele>1211.844</ele>
        <time>2021-02-27T09:27:05Z</time>
      </trkpt>
      <trkpt lat="42.98596" lon="0.54302">
        <ele>1212.202</ele>
        <time>2021-02-27T09:27:07Z</time>
      </trkpt>
      <trkpt lat="42.98597" lon="0.543">
        <ele>1211.87</ele>
        <time>2021-02-27T09:27:09Z</time>
      </trkpt>
      <trkpt lat="42.98597" lon="0.54299">
        <ele>1212.103</ele>
        <time>2021-02-27T09:27:11Z</time>
      </trkpt>
      <trkpt lat="42.98597" lon="0.54297">
        <ele>1212.957</ele>
        <time>2021-02-27T09:27:13Z</time>
      </trkpt>
      <trkpt lat="42.98597" lon="0.54295">
        <ele>1213.427</ele>
        <time>2021-02-27T09:27:15Z</time>
      </trkpt>
      <trkpt lat="42.98598" lon="0.54294">
        <ele>1214.125</ele>
        <time>2021-02-27T09:27:17Z</time>
      </trkpt>
      <trkpt lat="42.98597" lon="0.54292">
        <ele>1214.767</ele>
        <time>2021-02-27T09:27:19Z</time>
      </trkpt>
      <trkpt lat="42.98597" lon="0.5429">
        <ele>1214.814</ele>
        <time>2021-02-27T09:27:21Z</time>
      </trkpt>
      <trkpt lat="42.98597" lon="0.54287">
        <ele>1214.606</ele>
        <time>2021-02-27T09:27:23Z</time>
      </trkpt>
      <trkpt lat="42.98597" lon="0.54285">
        <ele>1215.254</ele>
        <time>2021-02-27T09:27:25Z</time>
      </trkpt>
      <trkpt lat="42.98597" lon="0.54283">
        <ele>1215.916</ele>
        <time>2021-02-27T09:27:27Z</time>
      </trkpt>
      <trkpt lat="42.98596" lon="0.54281">
        <ele>1216.176</ele>
        <time>2021-02-27T09:27:29Z</time>
      </trkpt>
      <trkpt lat="42.98596" lon="0.54279">
        <ele>1216.821</ele>
        <time>2021-02-27T09:27:31Z</time>
      </trkpt>
      <trkpt lat="42.98597" lon="0.54277">
        <ele>1217.564</ele>
        <time>2021-02-27T09:27:33Z</time>
      </trkpt>
      <trkpt lat="42.98596" lon="0.54275">
        <ele>1217.178</ele>
        <time>2021-02-27T09:27:35Z</time>
      </trkpt>
      <trkpt lat="42.98596" lon="0.54274">
        <ele>1217.305</ele>
        <time>2021-02-27T09:27:37Z</time>
      </trkpt>
      <trkpt lat="42.98596" lon="0.54272">
        <ele>1218.297</ele>
        <time>2021-02-27T09:27:39Z</time>
      </trkpt>
      <trkpt lat="42.98596" lon="0.5427">
        <ele>1218.519</ele>
        <time>2021-02-27T09:27:41Z</time>
      </trkpt>
      <trkpt lat="42.98596" lon="0.54268">
        <ele>1218.583</ele>
        <time>2021-02-27T09:27:43Z</time>
      </trkpt>
      <trkpt lat="42.98595" lon="0.54266">
        <ele>1219.53</ele>
        <time>2021-02-27T09:27:45Z</time>
      </trkpt>
      <trkpt lat="42.98595" lon="0.54265">
        <ele>1220.572</ele>
        <time>2021-02-27T09:27:47Z</time>
      </trkpt>
      <trkpt lat="42.98595" lon="0.54263">
        <ele>1220.912</ele>
        <time>2021-02-27T09:27:49Z</time>
      </trkpt>
      <trkpt lat="42.98594" lon="0.54261">
        <ele>1221.272</ele>
        <time>2021-02-27T09:27:51Z</time>
      </trkpt>
      <trkpt lat="42.98594" lon="0.54259">
        <ele>1222.071</ele>
        <time>2021-02-27T09:27:53Z</time>
      </trkpt>
      <trkpt lat="42.98594" lon="0.54258">
        <ele>1222.513</ele>
        <time>2021-02-27T09:27:55Z</time>
      </trkpt>
      <trkpt lat="42.98594" lon="0.54257">
        <ele>1222.626</ele>
        <time>2021-02-27T09:27:57Z</time>
      </trkpt>
      <trkpt lat="42.98595" lon="0.54255">
        <ele>1223.131</ele>
        <time>2021-02-27T09:27:59Z</time>
      </trkpt>
      <trkpt lat="42.98595" lon="0.54253">
        <ele>1222.854</ele>
        <time>2021-02-27T09:28:01Z</time>
      </trkpt>
      <trkpt lat="42.98596" lon="0.54251">
        <ele>1223.391</ele>
        <time>2021-02-27T09:28:03Z</time>
      </trkpt>
      <trkpt lat="42.98597" lon="0.5425">
        <ele>1223.917</ele>
        <time>2021-02-27T09:28:05Z</time>
      </trkpt>
      <trkpt lat="42.98599" lon="0.54249">
        <ele>1223.696</ele>
        <time>2021-02-27T09:28:07Z</time>
      </trkpt>
      <trkpt lat="42.98599" lon="0.54248">
        <ele>1224.668</ele>
        <time>2021-02-27T09:28:09Z</time>
      </trkpt>
      <trkpt lat="42.98599" lon="0.54246">
        <ele>1225.087</ele>
        <time>2021-02-27T09:28:11Z</time>
      </trkpt>
      <trkpt lat="42.98599" lon="0.54244">
        <ele>1225.094</ele>
        <time>2021-02-27T09:28:13Z</time>
      </trkpt>
      <trkpt lat="42.986" lon="0.54242">
        <ele>1224.684</ele>
        <time>2021-02-27T09:28:15Z</time>
      </trkpt>
      <trkpt lat="42.98601" lon="0.5424">
        <ele>1224.912</ele>
        <time>2021-02-27T09:28:17Z</time>
      </trkpt>
      <trkpt lat="42.98602" lon="0.54239">
        <ele>1224.882</ele>
        <time>2021-02-27T09:28:19Z</time>
      </trkpt>
      <trkpt lat="42.98601" lon="0.54237">
        <ele>1225.146</ele>
        <time>2021-02-27T09:28:21Z</time>
      </trkpt>
      <trkpt lat="42.98601" lon="0.54235">
        <ele>1225.773</ele>
        <time>2021-02-27T09:28:23Z</time>
      </trkpt>
      <trkpt lat="42.986" lon="0.54234">
        <ele>1225.803</ele>
        <time>2021-02-27T09:28:25Z</time>
      </trkpt>
      <trkpt lat="42.98599" lon="0.54234">
        <ele>1226.845</ele>
        <time>2021-02-27T09:28:27Z</time>
      </trkpt>
      <trkpt lat="42.98598" lon="0.54234">
        <ele>1226.469</ele>
        <time>2021-02-27T09:28:29Z</time>
      </trkpt>
      <trkpt lat="42.98598" lon="0.54234">
        <ele>1226.71</ele>
        <time>2021-02-27T09:28:31Z</time>
      </trkpt>
      <trkpt lat="42.98597" lon="0.54234">
        <ele>1226.743</ele>
        <time>2021-02-27T09:28:33Z</time>
      </trkpt>
      <trkpt lat="42.98597" lon="0.54234">
        <ele>1226.906</ele>
        <time>2021-02-27T09:28:35Z</time>
      </trkpt>
      <trkpt lat="42.98596" lon="0.54233">
        <ele>1226.964</ele>
        <time>2021-02-27T09:28:37Z</time>
      </trkpt>
      <trkpt lat="42.98596" lon="0.54233">
        <ele>1227.377</ele>
        <time>2021-02-27T09:28:39Z</time>
      </trkpt>
      <trkpt lat="42.98596" lon="0.54234">
        <ele>1227.992</ele>
        <time>2021-02-27T09:28:41Z</time>
      </trkpt>
      <trkpt lat="42.98596" lon="0.54234">
        <ele>1228.458</ele>
        <time>2021-02-27T09:28:43Z</time>
      </trkpt>
      <trkpt lat="42.98595" lon="0.54234">
        <ele>1228.307</ele>
        <time>2021-02-27T09:28:45Z</time>
      </trkpt>
      <trkpt lat="42.98594" lon="0.54234">
        <ele>1229.794</ele>
        <time>2021-02-27T09:28:47Z</time>
      </trkpt>
      <trkpt lat="42.98593" lon="0.54235">
        <ele>1231.667</ele>
        <time>2021-02-27T09:28:49Z</time>
      </trkpt>
      <trkpt lat="42.98592" lon="0.54236">
        <ele>1232.097</ele>
        <time>2021-02-27T09:28:51Z</time>
      </trkpt>
      <trkpt lat="42.98591" lon="0.54238">
        <ele>1232.385</ele>
        <time>2021-02-27T09:28:53Z</time>
      </trkpt>
      <trkpt lat="42.9859" lon="0.54239">
        <ele>1233.982</ele>
        <time>2021-02-27T09:28:55Z</time>
      </trkpt>
      <trkpt lat="42.98589" lon="0.5424">
        <ele>1235.071</ele>
        <time>2021-02-27T09:28:57Z</time>
      </trkpt>
      <trkpt lat="42.98587" lon="0.54241">
        <ele>1235.816</ele>
        <time>2021-02-27T09:28:59Z</time>
      </trkpt>
      <trkpt lat="42.98586" lon="0.54241">
        <ele>1236.508</ele>
        <time>2021-02-27T09:29:01Z</time>
      </trkpt>
      <trkpt lat="42.98584" lon="0.54242">
        <ele>1237.18</ele>
        <time>2021-02-27T09:29:03Z</time>
      </trkpt>
      <trkpt lat="42.98583" lon="0.54243">
        <ele>1237.585</ele>
        <time>2021-02-27T09:29:05Z</time>
      </trkpt>
      <trkpt lat="42.98581" lon="0.54243">
        <ele>1238.982</ele>
        <time>2021-02-27T09:29:07Z</time>
      </trkpt>
      <trkpt lat="42.9858" lon="0.54244">
        <ele>1239.502</ele>
        <time>2021-02-27T09:29:09Z</time>
      </trkpt>
      <trkpt lat="42.98578" lon="0.54244">
        <ele>1238.046</ele>
        <time>2021-02-27T09:29:11Z</time>
      </trkpt>
      <trkpt lat="42.98577" lon="0.54245">
        <ele>1238.104</ele>
        <time>2021-02-27T09:29:13Z</time>
      </trkpt>
      <trkpt lat="42.98576" lon="0.54244">
        <ele>1236.789</ele>
        <time>2021-02-27T09:29:15Z</time>
      </trkpt>
      <trkpt lat="42.98575" lon="0.54243">
        <ele>1237.387</ele>
        <time>2021-02-27T09:29:17Z</time>
      </trkpt>
      <trkpt lat="42.98574" lon="0.54243">
        <ele>1236.654</ele>
        <time>2021-02-27T09:29:19Z</time>
      </trkpt>
      <trkpt lat="42.98573" lon="0.54241">
        <ele>1236.393</ele>
        <time>2021-02-27T09:29:21Z</time>
      </trkpt>
      <trkpt lat="42.98573" lon="0.54241">
        <ele>1236.136</ele>
        <time>2021-02-27T09:29:23Z</time>
      </trkpt>
      <trkpt lat="42.98573" lon="0.54239">
        <ele>1236.746</ele>
        <time>2021-02-27T09:29:25Z</time>
      </trkpt>
      <trkpt lat="42.98573" lon="0.54238">
        <ele>1236.711</ele>
        <time>2021-02-27T09:29:27Z</time>
      </trkpt>
      <trkpt lat="42.98574" lon="0.54236">
        <ele>1237.512</ele>
        <time>2021-02-27T09:29:29Z</time>
      </trkpt>
      <trkpt lat="42.98575" lon="0.54234">
        <ele>1237.517</ele>
        <time>2021-02-27T09:29:31Z</time>
      </trkpt>
      <trkpt lat="42.98575" lon="0.54233">
        <ele>1237.843</ele>
        <time>2021-02-27T09:29:33Z</time>
      </trkpt>
      <trkpt lat="42.98576" lon="0.54232">
        <ele>1238.172</ele>
        <time>2021-02-27T09:29:35Z</time>
      </trkpt>
      <trkpt lat="42.98576" lon="0.54229">
        <ele>1238.589</ele>
        <time>2021-02-27T09:29:37Z</time>
      </trkpt>
      <trkpt lat="42.98577" lon="0.54227">
        <ele>1239.376</ele>
        <time>2021-02-27T09:29:39Z</time>
      </trkpt>
      <trkpt lat="42.98577" lon="0.54226">
        <ele>1239.103</ele>
        <time>2021-02-27T09:29:41Z</time>
      </trkpt>
      <trkpt lat="42.98577" lon="0.54223">
        <ele>1239.413</ele>
        <time>2021-02-27T09:29:43Z</time>
      </trkpt>
      <trkpt lat="42.98577" lon="0.54222">
        <ele>1240.082</ele>
        <time>2021-02-27T09:29:45Z</time>
      </trkpt>
      <trkpt lat="42.98577" lon="0.54221">
        <ele>1240.195</ele>
        <time>2021-02-27T09:29:47Z</time>
      </trkpt>
      <trkpt lat="42.98577" lon="0.54219">
        <ele>1239.866</ele>
        <time>2021-02-27T09:29:49Z</time>
      </trkpt>
      <trkpt lat="42.98577" lon="0.54217">
        <ele>1240.548</ele>
        <time>2021-02-27T09:29:51Z</time>
      </trkpt>
      <trkpt lat="42.98577" lon="0.54215">
        <ele>1240.567</ele>
        <time>2021-02-27T09:29:53Z</time>
      </trkpt>
      <trkpt lat="42.98578" lon="0.54213">
        <ele>1241.255</ele>
        <time>2021-02-27T09:29:55Z</time>
      </trkpt>
      <trkpt lat="42.98578" lon="0.54211">
        <ele>1241.08</ele>
        <time>2021-02-27T09:29:57Z</time>
      </trkpt>
      <trkpt lat="42.98578" lon="0.5421">
        <ele>1241.379</ele>
        <time>2021-02-27T09:29:59Z</time>
      </trkpt>
      <trkpt lat="42.98578" lon="0.54208">
        <ele>1242.439</ele>
        <time>2021-02-27T09:30:01Z</time>
      </trkpt>
      <trkpt lat="42.98578" lon="0.54206">
        <ele>1243.047</ele>
        <time>2021-02-27T09:30:03Z</time>
      </trkpt>
      <trkpt lat="42.98579" lon="0.54204">
        <ele>1243.338</ele>
        <time>2021-02-27T09:30:05Z</time>
      </trkpt>
      <trkpt lat="42.98579" lon="0.54201">
        <ele>1243.717</ele>
        <time>2021-02-27T09:30:07Z</time>
      </trkpt>
      <trkpt lat="42.9858" lon="0.542">
        <ele>1244.067</ele>
        <time>2021-02-27T09:30:09Z</time>
      </trkpt>
      <trkpt lat="42.9858" lon="0.54199">
        <ele>1244.723</ele>
        <time>2021-02-27T09:30:11Z</time>
      </trkpt>
      <trkpt lat="42.98581" lon="0.54197">
        <ele>1245.18</ele>
        <time>2021-02-27T09:30:13Z</time>
      </trkpt>
      <trkpt lat="42.98581" lon="0.54196">
        <ele>1245.742</ele>
        <time>2021-02-27T09:30:15Z</time>
      </trkpt>
      <trkpt lat="42.98582" lon="0.54194">
        <ele>1246.164</ele>
        <time>2021-02-27T09:30:17Z</time>
      </trkpt>
      <trkpt lat="42.98583" lon="0.54193">
        <ele>1245.936</ele>
        <time>2021-02-27T09:30:19Z</time>
      </trkpt>
      <trkpt lat="42.98583" lon="0.54191">
        <ele>1246.198</ele>
        <time>2021-02-27T09:30:21Z</time>
      </trkpt>
      <trkpt lat="42.98584" lon="0.54189">
        <ele>1245.995</ele>
        <time>2021-02-27T09:30:23Z</time>
      </trkpt>
      <trkpt lat="42.98584" lon="0.54187">
        <ele>1247.27</ele>
        <time>2021-02-27T09:30:25Z</time>
      </trkpt>
      <trkpt lat="42.98583" lon="0.54186">
        <ele>1247.483</ele>
        <time>2021-02-27T09:30:27Z</time>
      </trkpt>
      <trkpt lat="42.98583" lon="0.54184">
        <ele>1248.543</ele>
        <time>2021-02-27T09:30:29Z</time>
      </trkpt>
      <trkpt lat="42.98584" lon="0.54182">
        <ele>1249.159</ele>
        <time>2021-02-27T09:30:31Z</time>
      </trkpt>
      <trkpt lat="42.98584" lon="0.5418">
        <ele>1248.612</ele>
        <time>2021-02-27T09:30:33Z</time>
      </trkpt>
      <trkpt lat="42.98584" lon="0.54179">
        <ele>1249.093</ele>
        <time>2021-02-27T09:30:35Z</time>
      </trkpt>
      <trkpt lat="42.98584" lon="0.54178">
        <ele>1249.949</ele>
        <time>2021-02-27T09:30:37Z</time>
      </trkpt>
      <trkpt lat="42.98584" lon="0.54176">
        <ele>1250.375</ele>
        <time>2021-02-27T09:30:39Z</time>
      </trkpt>
      <trkpt lat="42.98585" lon="0.54174">
        <ele>1251.177</ele>
        <time>2021-02-27T09:30:41Z</time>
      </trkpt>
      <trkpt lat="42.98585" lon="0.54172">
        <ele>1251.034</ele>
        <time>2021-02-27T09:30:43Z</time>
      </trkpt>
      <trkpt lat="42.98585" lon="0.5417">
        <ele>1252.098</ele>
        <time>2021-02-27T09:30:45Z</time>
      </trkpt>
      <trkpt lat="42.98586" lon="0.54169">
        <ele>1252.669</ele>
        <time>2021-02-27T09:30:47Z</time>
      </trkpt>
      <trkpt lat="42.98586" lon="0.54169">
        <ele>1252.828</ele>
        <time>2021-02-27T09:30:48Z</time>
      </trkpt>
      <trkpt lat="42.98587" lon="0.54165">
        <ele>1253.706</ele>
        <time>2021-02-27T09:30:52Z</time>
      </trkpt>
      <trkpt lat="42.98587" lon="0.54163">
        <ele>1253.725</ele>
        <time>2021-02-27T09:30:54Z</time>
      </trkpt>
      <trkpt lat="42.98588" lon="0.54162">
        <ele>1253.982</ele>
        <time>2021-02-27T09:30:56Z</time>
      </trkpt>
      <trkpt lat="42.98589" lon="0.5416">
        <ele>1253.89</ele>
        <time>2021-02-27T09:30:58Z</time>
      </trkpt>
      <trkpt lat="42.98589" lon="0.54158">
        <ele>1254.319</ele>
        <time>2021-02-27T09:31:00Z</time>
      </trkpt>
      <trkpt lat="42.9859" lon="0.54156">
        <ele>1254.993</ele>
        <time>2021-02-27T09:31:02Z</time>
      </trkpt>
      <trkpt lat="42.9859" lon="0.54155">
        <ele>1255.292</ele>
        <time>2021-02-27T09:31:04Z</time>
      </trkpt>
      <trkpt lat="42.98591" lon="0.54153">
        <ele>1256.295</ele>
        <time>2021-02-27T09:31:06Z</time>
      </trkpt>
      <trkpt lat="42.98592" lon="0.54151">
        <ele>1256.574</ele>
        <time>2021-02-27T09:31:08Z</time>
      </trkpt>
      <trkpt lat="42.98592" lon="0.54149">
        <ele>1257.211</ele>
        <time>2021-02-27T09:31:10Z</time>
      </trkpt>
      <trkpt lat="42.98592" lon="0.54147">
        <ele>1258.103</ele>
        <time>2021-02-27T09:31:12Z</time>
      </trkpt>
      <trkpt lat="42.98592" lon="0.54145">
        <ele>1258.724</ele>
        <time>2021-02-27T09:31:14Z</time>
      </trkpt>
      <trkpt lat="42.98594" lon="0.54143">
        <ele>1259.2</ele>
        <time>2021-02-27T09:31:16Z</time>
      </trkpt>
      <trkpt lat="42.98593" lon="0.54141">
        <ele>1258.574</ele>
        <time>2021-02-27T09:31:18Z</time>
      </trkpt>
      <trkpt lat="42.98593" lon="0.54139">
        <ele>1259.226</ele>
        <time>2021-02-27T09:31:20Z</time>
      </trkpt>
      <trkpt lat="42.98594" lon="0.54137">
        <ele>1260.41</ele>
        <time>2021-02-27T09:31:22Z</time>
      </trkpt>
      <trkpt lat="42.98595" lon="0.54135">
        <ele>1260.823</ele>
        <time>2021-02-27T09:31:24Z</time>
      </trkpt>
      <trkpt lat="42.98595" lon="0.54133">
        <ele>1261.294</ele>
        <time>2021-02-27T09:31:26Z</time>
      </trkpt>
      <trkpt lat="42.98595" lon="0.54132">
        <ele>1262.032</ele>
        <time>2021-02-27T09:31:28Z</time>
      </trkpt>
      <trkpt lat="42.98595" lon="0.54129">
        <ele>1262.027</ele>
        <time>2021-02-27T09:31:30Z</time>
      </trkpt>
      <trkpt lat="42.98596" lon="0.54128">
        <ele>1261.597</ele>
        <time>2021-02-27T09:31:32Z</time>
      </trkpt>
      <trkpt lat="42.98596" lon="0.54126">
        <ele>1262.276</ele>
        <time>2021-02-27T09:31:34Z</time>
      </trkpt>
      <trkpt lat="42.98596" lon="0.54124">
        <ele>1262.046</ele>
        <time>2021-02-27T09:31:36Z</time>
      </trkpt>
      <trkpt lat="42.98596" lon="0.54123">
        <ele>1262.952</ele>
        <time>2021-02-27T09:31:38Z</time>
      </trkpt>
      <trkpt lat="42.98597" lon="0.54121">
        <ele>1263.763</ele>
        <time>2021-02-27T09:31:40Z</time>
      </trkpt>
      <trkpt lat="42.98597" lon="0.54119">
        <ele>1264.418</ele>
        <time>2021-02-27T09:31:42Z</time>
      </trkpt>
      <trkpt lat="42.98597" lon="0.54117">
        <ele>1264.249</ele>
        <time>2021-02-27T09:31:44Z</time>
      </trkpt>
      <trkpt lat="42.98598" lon="0.54115">
        <ele>1264.754</ele>
        <time>2021-02-27T09:31:46Z</time>
      </trkpt>
      <trkpt lat="42.98598" lon="0.54114">
        <ele>1264.881</ele>
        <time>2021-02-27T09:31:48Z</time>
      </trkpt>
      <trkpt lat="42.98599" lon="0.54112">
        <ele>1265.178</ele>
        <time>2021-02-27T09:31:50Z</time>
      </trkpt>
      <trkpt lat="42.98599" lon="0.5411">
        <ele>1265.588</ele>
        <time>2021-02-27T09:31:52Z</time>
      </trkpt>
      <trkpt lat="42.98599" lon="0.54108">
        <ele>1266.019</ele>
        <time>2021-02-27T09:31:54Z</time>
      </trkpt>
      <trkpt lat="42.98599" lon="0.54106">
        <ele>1265.47</ele>
        <time>2021-02-27T09:31:56Z</time>
      </trkpt>
      <trkpt lat="42.98599" lon="0.54105">
        <ele>1266.636</ele>
        <time>2021-02-27T09:31:58Z</time>
      </trkpt>
      <trkpt lat="42.986" lon="0.54103">
        <ele>1267.427</ele>
        <time>2021-02-27T09:32:00Z</time>
      </trkpt>
      <trkpt lat="42.986" lon="0.54101">
        <ele>1267.965</ele>
        <time>2021-02-27T09:32:02Z</time>
      </trkpt>
      <trkpt lat="42.986" lon="0.541">
        <ele>1268.689</ele>
        <time>2021-02-27T09:32:04Z</time>
      </trkpt>
      <trkpt lat="42.98601" lon="0.54099">
        <ele>1268.741</ele>
        <time>2021-02-27T09:32:06Z</time>
      </trkpt>
      <trkpt lat="42.98601" lon="0.54097">
        <ele>1268.963</ele>
        <time>2021-02-27T09:32:08Z</time>
      </trkpt>
      <trkpt lat="42.98601" lon="0.54094">
        <ele>1269.065</ele>
        <time>2021-02-27T09:32:10Z</time>
      </trkpt>
      <trkpt lat="42.98601" lon="0.54092">
        <ele>1268.821</ele>
        <time>2021-02-27T09:32:12Z</time>
      </trkpt>
      <trkpt lat="42.98602" lon="0.54089">
        <ele>1269.289</ele>
        <time>2021-02-27T09:32:14Z</time>
      </trkpt>
      <trkpt lat="42.98602" lon="0.54087">
        <ele>1268.927</ele>
        <time>2021-02-27T09:32:16Z</time>
      </trkpt>
      <trkpt lat="42.98603" lon="0.54085">
        <ele>1268.939</ele>
        <time>2021-02-27T09:32:18Z</time>
      </trkpt>
      <trkpt lat="42.98604" lon="0.54083">
        <ele>1269.001</ele>
        <time>2021-02-27T09:32:20Z</time>
      </trkpt>
      <trkpt lat="42.98605" lon="0.54081">
        <ele>1269.314</ele>
        <time>2021-02-27T09:32:22Z</time>
      </trkpt>
      <trkpt lat="42.98605" lon="0.5408">
        <ele>1269.377</ele>
        <time>2021-02-27T09:32:24Z</time>
      </trkpt>
      <trkpt lat="42.98606" lon="0.54079">
        <ele>1269.644</ele>
        <time>2021-02-27T09:32:26Z</time>
      </trkpt>
      <trkpt lat="42.98607" lon="0.54077">
        <ele>1269.81</ele>
        <time>2021-02-27T09:32:28Z</time>
      </trkpt>
      <trkpt lat="42.98608" lon="0.54076">
        <ele>1270.377</ele>
        <time>2021-02-27T09:32:30Z</time>
      </trkpt>
      <trkpt lat="42.98608" lon="0.54075">
        <ele>1270.833</ele>
        <time>2021-02-27T09:32:32Z</time>
      </trkpt>
      <trkpt lat="42.98608" lon="0.54073">
        <ele>1270.529</ele>
        <time>2021-02-27T09:32:34Z</time>
      </trkpt>
      <trkpt lat="42.98609" lon="0.54072">
        <ele>1270.673</ele>
        <time>2021-02-27T09:32:36Z</time>
      </trkpt>
      <trkpt lat="42.9861" lon="0.54071">
        <ele>1271.606</ele>
        <time>2021-02-27T09:32:38Z</time>
      </trkpt>
      <trkpt lat="42.98611" lon="0.54069">
        <ele>1272.103</ele>
        <time>2021-02-27T09:32:40Z</time>
      </trkpt>
      <trkpt lat="42.98611" lon="0.54067">
        <ele>1272.755</ele>
        <time>2021-02-27T09:32:42Z</time>
      </trkpt>
      <trkpt lat="42.98612" lon="0.54065">
        <ele>1272.751</ele>
        <time>2021-02-27T09:32:44Z</time>
      </trkpt>
      <trkpt lat="42.98612" lon="0.54063">
        <ele>1272.15</ele>
        <time>2021-02-27T09:32:46Z</time>
      </trkpt>
      <trkpt lat="42.98612" lon="0.54062">
        <ele>1272.367</ele>
        <time>2021-02-27T09:32:48Z</time>
      </trkpt>
      <trkpt lat="42.98612" lon="0.5406">
        <ele>1271.745</ele>
        <time>2021-02-27T09:32:50Z</time>
      </trkpt>
      <trkpt lat="42.98611" lon="0.54059">
        <ele>1272.819</ele>
        <time>2021-02-27T09:32:52Z</time>
      </trkpt>
      <trkpt lat="42.9861" lon="0.54058">
        <ele>1273.512</ele>
        <time>2021-02-27T09:32:54Z</time>
      </trkpt>
      <trkpt lat="42.98609" lon="0.54057">
        <ele>1273.938</ele>
        <time>2021-02-27T09:32:56Z</time>
      </trkpt>
      <trkpt lat="42.98608" lon="0.54056">
        <ele>1273.751</ele>
        <time>2021-02-27T09:32:58Z</time>
      </trkpt>
      <trkpt lat="42.98608" lon="0.54056">
        <ele>1273.892</ele>
        <time>2021-02-27T09:33:00Z</time>
      </trkpt>
      <trkpt lat="42.98606" lon="0.54056">
        <ele>1274.747</ele>
        <time>2021-02-27T09:33:02Z</time>
      </trkpt>
      <trkpt lat="42.98605" lon="0.54056">
        <ele>1275.425</ele>
        <time>2021-02-27T09:33:04Z</time>
      </trkpt>
      <trkpt lat="42.98604" lon="0.54057">
        <ele>1275.687</ele>
        <time>2021-02-27T09:33:06Z</time>
      </trkpt>
      <trkpt lat="42.98603" lon="0.54058">
        <ele>1276.554</ele>
        <time>2021-02-27T09:33:08Z</time>
      </trkpt>
      <trkpt lat="42.98601" lon="0.54059">
        <ele>1277.763</ele>
        <time>2021-02-27T09:33:10Z</time>
      </trkpt>
      <trkpt lat="42.986" lon="0.5406">
        <ele>1277.979</ele>
        <time>2021-02-27T09:33:12Z</time>
      </trkpt>
      <trkpt lat="42.98599" lon="0.5406">
        <ele>1279.155</ele>
        <time>2021-02-27T09:33:14Z</time>
      </trkpt>
      <trkpt lat="42.98598" lon="0.54061">
        <ele>1279.71</ele>
        <time>2021-02-27T09:33:16Z</time>
      </trkpt>
      <trkpt lat="42.98597" lon="0.54062">
        <ele>1279.997</ele>
        <time>2021-02-27T09:33:18Z</time>
      </trkpt>
      <trkpt lat="42.98596" lon="0.54063">
        <ele>1280.331</ele>
        <time>2021-02-27T09:33:20Z</time>
      </trkpt>
      <trkpt lat="42.98595" lon="0.54064">
        <ele>1281.105</ele>
        <time>2021-02-27T09:33:22Z</time>
      </trkpt>
      <trkpt lat="42.98594" lon="0.54065">
        <ele>1280.564</ele>
        <time>2021-02-27T09:33:24Z</time>
      </trkpt>
      <trkpt lat="42.98593" lon="0.54066">
        <ele>1279.736</ele>
        <time>2021-02-27T09:33:26Z</time>
      </trkpt>
      <trkpt lat="42.98592" lon="0.54068">
        <ele>1279.861</ele>
        <time>2021-02-27T09:33:28Z</time>
      </trkpt>
      <trkpt lat="42.98591" lon="0.54069">
        <ele>1280.87</ele>
        <time>2021-02-27T09:33:30Z</time>
      </trkpt>
      <trkpt lat="42.9859" lon="0.5407">
        <ele>1280.481</ele>
        <time>2021-02-27T09:33:32Z</time>
      </trkpt>
      <trkpt lat="42.98589" lon="0.54071">
        <ele>1280.353</ele>
        <time>2021-02-27T09:33:34Z</time>
      </trkpt>
      <trkpt lat="42.98588" lon="0.54071">
        <ele>1280.806</ele>
        <time>2021-02-27T09:33:36Z</time>
      </trkpt>
      <trkpt lat="42.98586" lon="0.54072">
        <ele>1280.383</ele>
        <time>2021-02-27T09:33:38Z</time>
      </trkpt>
      <trkpt lat="42.98585" lon="0.54073">
        <ele>1279.818</ele>
        <time>2021-02-27T09:33:40Z</time>
      </trkpt>
      <trkpt lat="42.98584" lon="0.54074">
        <ele>1279.648</ele>
        <time>2021-02-27T09:33:42Z</time>
      </trkpt>
      <trkpt lat="42.98582" lon="0.54074">
        <ele>1279.204</ele>
        <time>2021-02-27T09:33:44Z</time>
      </trkpt>
      <trkpt lat="42.98581" lon="0.54075">
        <ele>1279.909</ele>
        <time>2021-02-27T09:33:46Z</time>
      </trkpt>
      <trkpt lat="42.9858" lon="0.54076">
        <ele>1280.467</ele>
        <time>2021-02-27T09:33:48Z</time>
      </trkpt>
      <trkpt lat="42.98579" lon="0.54077">
        <ele>1279.553</ele>
        <time>2021-02-27T09:33:50Z</time>
      </trkpt>
      <trkpt lat="42.98577" lon="0.54078">
        <ele>1279.561</ele>
        <time>2021-02-27T09:33:52Z</time>
      </trkpt>
      <trkpt lat="42.98576" lon="0.54079">
        <ele>1279.323</ele>
        <time>2021-02-27T09:33:54Z</time>
      </trkpt>
      <trkpt lat="42.98574" lon="0.5408">
        <ele>1280.715</ele>
        <time>2021-02-27T09:33:56Z</time>
      </trkpt>
      <trkpt lat="42.98574" lon="0.54082">
        <ele>1280.686</ele>
        <time>2021-02-27T09:33:58Z</time>
      </trkpt>
      <trkpt lat="42.98573" lon="0.54083">
        <ele>1280.728</ele>
        <time>2021-02-27T09:34:00Z</time>
      </trkpt>
      <trkpt lat="42.98571" lon="0.54085">
        <ele>1281.525</ele>
        <time>2021-02-27T09:34:02Z</time>
      </trkpt>
      <trkpt lat="42.9857" lon="0.54086">
        <ele>1281.262</ele>
        <time>2021-02-27T09:34:04Z</time>
      </trkpt>
      <trkpt lat="42.98569" lon="0.54086">
        <ele>1281.994</ele>
        <time>2021-02-27T09:34:06Z</time>
      </trkpt>
      <trkpt lat="42.98567" lon="0.54087">
        <ele>1282.318</ele>
        <time>2021-02-27T09:34:08Z</time>
      </trkpt>
      <trkpt lat="42.98566" lon="0.54088">
        <ele>1282.65</ele>
        <time>2021-02-27T09:34:10Z</time>
      </trkpt>
      <trkpt lat="42.98565" lon="0.54089">
        <ele>1282.46</ele>
        <time>2021-02-27T09:34:12Z</time>
      </trkpt>
      <trkpt lat="42.98563" lon="0.5409">
        <ele>1281.553</ele>
        <time>2021-02-27T09:34:14Z</time>
      </trkpt>
      <trkpt lat="42.98562" lon="0.54089">
        <ele>1280.795</ele>
        <time>2021-02-27T09:34:16Z</time>
      </trkpt>
      <trkpt lat="42.98562" lon="0.54089">
        <ele>1280.891</ele>
        <time>2021-02-27T09:34:18Z</time>
      </trkpt>
      <trkpt lat="42.98562" lon="0.54089">
        <ele>1280.842</ele>
        <time>2021-02-27T09:34:20Z</time>
      </trkpt>
      <trkpt lat="42.98561" lon="0.5409">
        <ele>1280.672</ele>
        <time>2021-02-27T09:34:22Z</time>
      </trkpt>
      <trkpt lat="42.9856" lon="0.54091">
        <ele>1281.091</ele>
        <time>2021-02-27T09:34:24Z</time>
      </trkpt>
      <trkpt lat="42.98559" lon="0.54092">
        <ele>1282.351</ele>
        <time>2021-02-27T09:34:26Z</time>
      </trkpt>
      <trkpt lat="42.98557" lon="0.54094">
        <ele>1281.646</ele>
        <time>2021-02-27T09:34:28Z</time>
      </trkpt>
      <trkpt lat="42.98556" lon="0.54096">
        <ele>1282.891</ele>
        <time>2021-02-27T09:34:30Z</time>
      </trkpt>
      <trkpt lat="42.98554" lon="0.54097">
        <ele>1283.337</ele>
        <time>2021-02-27T09:34:32Z</time>
      </trkpt>
      <trkpt lat="42.98553" lon="0.54099">
        <ele>1284.716</ele>
        <time>2021-02-27T09:34:34Z</time>
      </trkpt>
      <trkpt lat="42.98551" lon="0.541">
        <ele>1285.073</ele>
        <time>2021-02-27T09:34:36Z</time>
      </trkpt>
      <trkpt lat="42.98549" lon="0.54101">
        <ele>1286.668</ele>
        <time>2021-02-27T09:34:38Z</time>
      </trkpt>
      <trkpt lat="42.98548" lon="0.54102">
        <ele>1287.313</ele>
        <time>2021-02-27T09:34:40Z</time>
      </trkpt>
      <trkpt lat="42.98546" lon="0.54103">
        <ele>1286.931</ele>
        <time>2021-02-27T09:34:42Z</time>
      </trkpt>
      <trkpt lat="42.98545" lon="0.54104">
        <ele>1288.207</ele>
        <time>2021-02-27T09:34:44Z</time>
      </trkpt>
      <trkpt lat="42.98543" lon="0.54106">
        <ele>1288.261</ele>
        <time>2021-02-27T09:34:46Z</time>
      </trkpt>
      <trkpt lat="42.98542" lon="0.54106">
        <ele>1288.989</ele>
        <time>2021-02-27T09:34:48Z</time>
      </trkpt>
      <trkpt lat="42.9854" lon="0.54107">
        <ele>1290.227</ele>
        <time>2021-02-27T09:34:50Z</time>
      </trkpt>
      <trkpt lat="42.98539" lon="0.54108">
        <ele>1290.174</ele>
        <time>2021-02-27T09:34:52Z</time>
      </trkpt>
      <trkpt lat="42.98537" lon="0.5411">
        <ele>1291.221</ele>
        <time>2021-02-27T09:34:54Z</time>
      </trkpt>
      <trkpt lat="42.98536" lon="0.5411">
        <ele>1290.921</ele>
        <time>2021-02-27T09:34:55Z</time>
      </trkpt>
      <trkpt lat="42.98534" lon="0.54112">
        <ele>1290.464</ele>
        <time>2021-02-27T09:34:58Z</time>
      </trkpt>
      <trkpt lat="42.98533" lon="0.54114">
        <ele>1291.159</ele>
        <time>2021-02-27T09:35:00Z</time>
      </trkpt>
      <trkpt lat="42.98532" lon="0.54114">
        <ele>1291.626</ele>
        <time>2021-02-27T09:35:02Z</time>
      </trkpt>
      <trkpt lat="42.98531" lon="0.54116">
        <ele>1292.865</ele>
        <time>2021-02-27T09:35:04Z</time>
      </trkpt>
      <trkpt lat="42.9853" lon="0.54117">
        <ele>1293.077</ele>
        <time>2021-02-27T09:35:06Z</time>
      </trkpt>
      <trkpt lat="42.98528" lon="0.54118">
        <ele>1293.971</ele>
        <time>2021-02-27T09:35:08Z</time>
      </trkpt>
      <trkpt lat="42.98527" lon="0.54118">
        <ele>1294.84</ele>
        <time>2021-02-27T09:35:10Z</time>
      </trkpt>
      <trkpt lat="42.98526" lon="0.54119">
        <ele>1295.257</ele>
        <time>2021-02-27T09:35:12Z</time>
      </trkpt>
      <trkpt lat="42.98524" lon="0.54121">
        <ele>1294.735</ele>
        <time>2021-02-27T09:35:14Z</time>
      </trkpt>
      <trkpt lat="42.98523" lon="0.54123">
        <ele>1294.052</ele>
        <time>2021-02-27T09:35:16Z</time>
      </trkpt>
      <trkpt lat="42.98521" lon="0.54125">
        <ele>1293.807</ele>
        <time>2021-02-27T09:35:18Z</time>
      </trkpt>
      <trkpt lat="42.98519" lon="0.54126">
        <ele>1293.424</ele>
        <time>2021-02-27T09:35:20Z</time>
      </trkpt>
      <trkpt lat="42.98518" lon="0.54127">
        <ele>1293.343</ele>
        <time>2021-02-27T09:35:22Z</time>
      </trkpt>
      <trkpt lat="42.98517" lon="0.54129">
        <ele>1293.723</ele>
        <time>2021-02-27T09:35:24Z</time>
      </trkpt>
      <trkpt lat="42.98516" lon="0.5413">
        <ele>1293.606</ele>
        <time>2021-02-27T09:35:26Z</time>
      </trkpt>
      <trkpt lat="42.98515" lon="0.54131">
        <ele>1293.194</ele>
        <time>2021-02-27T09:35:28Z</time>
      </trkpt>
      <trkpt lat="42.98514" lon="0.54132">
        <ele>1293.626</ele>
        <time>2021-02-27T09:35:30Z</time>
      </trkpt>
      <trkpt lat="42.98512" lon="0.54132">
        <ele>1293.156</ele>
        <time>2021-02-27T09:35:32Z</time>
      </trkpt>
      <trkpt lat="42.98511" lon="0.54132">
        <ele>1293.616</ele>
        <time>2021-02-27T09:35:34Z</time>
      </trkpt>
      <trkpt lat="42.9851" lon="0.54131">
        <ele>1294.553</ele>
        <time>2021-02-27T09:35:36Z</time>
      </trkpt>
      <trkpt lat="42.9851" lon="0.54129">
        <ele>1293.362</ele>
        <time>2021-02-27T09:35:38Z</time>
      </trkpt>
      <trkpt lat="42.98511" lon="0.54128">
        <ele>1293.573</ele>
        <time>2021-02-27T09:35:40Z</time>
      </trkpt>
      <trkpt lat="42.98511" lon="0.54127">
        <ele>1294.029</ele>
        <time>2021-02-27T09:35:42Z</time>
      </trkpt>
      <trkpt lat="42.98511" lon="0.54125">
        <ele>1294.447</ele>
        <time>2021-02-27T09:35:44Z</time>
      </trkpt>
      <trkpt lat="42.98511" lon="0.54125">
        <ele>1294.629</ele>
        <time>2021-02-27T09:35:46Z</time>
      </trkpt>
      <trkpt lat="42.98511" lon="0.54125">
        <ele>1294.637</ele>
        <time>2021-02-27T09:35:48Z</time>
      </trkpt>
      <trkpt lat="42.98511" lon="0.54125">
        <ele>1294.642</ele>
        <time>2021-02-27T09:35:50Z</time>
      </trkpt>
      <trkpt lat="42.98511" lon="0.54125">
        <ele>1294.651</ele>
        <time>2021-02-27T09:35:52Z</time>
      </trkpt>
      <trkpt lat="42.98511" lon="0.54125">
        <ele>1294.655</ele>
        <time>2021-02-27T09:35:54Z</time>
      </trkpt>
      <trkpt lat="42.98511" lon="0.54125">
        <ele>1294.664</ele>
        <time>2021-02-27T09:35:56Z</time>
      </trkpt>
      <trkpt lat="42.98511" lon="0.54125">
        <ele>1294.684</ele>
        <time>2021-02-27T09:35:58Z</time>
      </trkpt>
      <trkpt lat="42.98511" lon="0.54125">
        <ele>1294.698</ele>
        <time>2021-02-27T09:36:00Z</time>
      </trkpt>
      <trkpt lat="42.9851" lon="0.54125">
        <ele>1294.407</ele>
        <time>2021-02-27T09:36:02Z</time>
      </trkpt>
      <trkpt lat="42.9851" lon="0.54125">
        <ele>1294.409</ele>
        <time>2021-02-27T09:36:04Z</time>
      </trkpt>
      <trkpt lat="42.9851" lon="0.54125">
        <ele>1294.418</ele>
        <time>2021-02-27T09:36:06Z</time>
      </trkpt>
      <trkpt lat="42.9851" lon="0.54125">
        <ele>1294.419</ele>
        <time>2021-02-27T09:36:08Z</time>
      </trkpt>
      <trkpt lat="42.9851" lon="0.54125">
        <ele>1294.427</ele>
        <time>2021-02-27T09:36:10Z</time>
      </trkpt>
      <trkpt lat="42.9851" lon="0.54125">
        <ele>1294.434</ele>
        <time>2021-02-27T09:36:12Z</time>
      </trkpt>
      <trkpt lat="42.9851" lon="0.54125">
        <ele>1294.032</ele>
        <time>2021-02-27T09:36:14Z</time>
      </trkpt>
      <trkpt lat="42.9851" lon="0.54125">
        <ele>1293.932</ele>
        <time>2021-02-27T09:36:16Z</time>
      </trkpt>
      <trkpt lat="42.98512" lon="0.54128">
        <ele>1294.942</ele>
        <time>2021-02-27T09:36:18Z</time>
      </trkpt>
      <trkpt lat="42.98513" lon="0.5413">
        <ele>1294.015</ele>
        <time>2021-02-27T09:36:20Z</time>
      </trkpt>
      <trkpt lat="42.98513" lon="0.54127">
        <ele>1293.389</ele>
        <time>2021-02-27T09:36:22Z</time>
      </trkpt>
      <trkpt lat="42.98513" lon="0.54125">
        <ele>1293.506</ele>
        <time>2021-02-27T09:36:24Z</time>
      </trkpt>
      <trkpt lat="42.98514" lon="0.54123">
        <ele>1294.526</ele>
        <time>2021-02-27T09:36:26Z</time>
      </trkpt>
      <trkpt lat="42.98514" lon="0.54122">
        <ele>1294.66</ele>
        <time>2021-02-27T09:36:28Z</time>
      </trkpt>
      <trkpt lat="42.98515" lon="0.5412">
        <ele>1296.064</ele>
        <time>2021-02-27T09:36:30Z</time>
      </trkpt>
      <trkpt lat="42.98515" lon="0.54118">
        <ele>1297.095</ele>
        <time>2021-02-27T09:36:32Z</time>
      </trkpt>
      <trkpt lat="42.98516" lon="0.54116">
        <ele>1297.754</ele>
        <time>2021-02-27T09:36:34Z</time>
      </trkpt>
      <trkpt lat="42.98517" lon="0.54115">
        <ele>1298.852</ele>
        <time>2021-02-27T09:36:36Z</time>
      </trkpt>
      <trkpt lat="42.98518" lon="0.54113">
        <ele>1299.335</ele>
        <time>2021-02-27T09:36:38Z</time>
      </trkpt>
      <trkpt lat="42.98519" lon="0.5411">
        <ele>1299.348</ele>
        <time>2021-02-27T09:36:40Z</time>
      </trkpt>
      <trkpt lat="42.9852" lon="0.54109">
        <ele>1300.087</ele>
        <time>2021-02-27T09:36:42Z</time>
      </trkpt>
      <trkpt lat="42.98521" lon="0.54106">
        <ele>1301.517</ele>
        <time>2021-02-27T09:36:44Z</time>
      </trkpt>
      <trkpt lat="42.98522" lon="0.54104">
        <ele>1301.454</ele>
        <time>2021-02-27T09:36:46Z</time>
      </trkpt>
      <trkpt lat="42.98524" lon="0.54102">
        <ele>1301.366</ele>
        <time>2021-02-27T09:36:48Z</time>
      </trkpt>
      <trkpt lat="42.98525" lon="0.54099">
        <ele>1301.872</ele>
        <time>2021-02-27T09:36:50Z</time>
      </trkpt>
      <trkpt lat="42.98525" lon="0.54096">
        <ele>1301.94</ele>
        <time>2021-02-27T09:36:52Z</time>
      </trkpt>
      <trkpt lat="42.98526" lon="0.54094">
        <ele>1301.744</ele>
        <time>2021-02-27T09:36:54Z</time>
      </trkpt>
      <trkpt lat="42.98527" lon="0.54092">
        <ele>1301.782</ele>
        <time>2021-02-27T09:36:56Z</time>
      </trkpt>
      <trkpt lat="42.98528" lon="0.54089">
        <ele>1302.306</ele>
        <time>2021-02-27T09:36:58Z</time>
      </trkpt>
      <trkpt lat="42.98529" lon="0.54087">
        <ele>1302.194</ele>
        <time>2021-02-27T09:37:00Z</time>
      </trkpt>
      <trkpt lat="42.9853" lon="0.54084">
        <ele>1302.759</ele>
        <time>2021-02-27T09:37:02Z</time>
      </trkpt>
      <trkpt lat="42.98531" lon="0.54082">
        <ele>1302.204</ele>
        <time>2021-02-27T09:37:04Z</time>
      </trkpt>
      <trkpt lat="42.98532" lon="0.54079">
        <ele>1302.093</ele>
        <time>2021-02-27T09:37:06Z</time>
      </trkpt>
      <trkpt lat="42.98533" lon="0.54077">
        <ele>1302.703</ele>
        <time>2021-02-27T09:37:08Z</time>
      </trkpt>
      <trkpt lat="42.98534" lon="0.54074">
        <ele>1303.441</ele>
        <time>2021-02-27T09:37:10Z</time>
      </trkpt>
      <trkpt lat="42.98535" lon="0.54072">
        <ele>1303.694</ele>
        <time>2021-02-27T09:37:12Z</time>
      </trkpt>
      <trkpt lat="42.98535" lon="0.54069">
        <ele>1304.046</ele>
        <time>2021-02-27T09:37:14Z</time>
      </trkpt>
      <trkpt lat="42.98536" lon="0.54066">
        <ele>1304.345</ele>
        <time>2021-02-27T09:37:16Z</time>
      </trkpt>
      <trkpt lat="42.98537" lon="0.54064">
        <ele>1304.238</ele>
        <time>2021-02-27T09:37:18Z</time>
      </trkpt>
      <trkpt lat="42.98538" lon="0.54062">
        <ele>1304.777</ele>
        <time>2021-02-27T09:37:20Z</time>
      </trkpt>
      <trkpt lat="42.98539" lon="0.5406">
        <ele>1305.382</ele>
        <time>2021-02-27T09:37:22Z</time>
      </trkpt>
      <trkpt lat="42.98539" lon="0.54058">
        <ele>1304.828</ele>
        <time>2021-02-27T09:37:24Z</time>
      </trkpt>
      <trkpt lat="42.9854" lon="0.54056">
        <ele>1305.247</ele>
        <time>2021-02-27T09:37:26Z</time>
      </trkpt>
      <trkpt lat="42.98541" lon="0.54054">
        <ele>1305.502</ele>
        <time>2021-02-27T09:37:28Z</time>
      </trkpt>
      <trkpt lat="42.98542" lon="0.54052">
        <ele>1306.571</ele>
        <time>2021-02-27T09:37:30Z</time>
      </trkpt>
      <trkpt lat="42.98543" lon="0.54049">
        <ele>1307.072</ele>
        <time>2021-02-27T09:37:32Z</time>
      </trkpt>
      <trkpt lat="42.98544" lon="0.54047">
        <ele>1307.344</ele>
        <time>2021-02-27T09:37:34Z</time>
      </trkpt>
      <trkpt lat="42.98544" lon="0.54044">
        <ele>1306.549</ele>
        <time>2021-02-27T09:37:36Z</time>
      </trkpt>
      <trkpt lat="42.98544" lon="0.54042">
        <ele>1307.702</ele>
        <time>2021-02-27T09:37:38Z</time>
      </trkpt>
      <trkpt lat="42.98545" lon="0.5404">
        <ele>1308.377</ele>
        <time>2021-02-27T09:37:40Z</time>
      </trkpt>
      <trkpt lat="42.98546" lon="0.54038">
        <ele>1308.312</ele>
        <time>2021-02-27T09:37:42Z</time>
      </trkpt>
      <trkpt lat="42.98546" lon="0.54035">
        <ele>1308.553</ele>
        <time>2021-02-27T09:37:44Z</time>
      </trkpt>
      <trkpt lat="42.98547" lon="0.54033">
        <ele>1308.948</ele>
        <time>2021-02-27T09:37:46Z</time>
      </trkpt>
      <trkpt lat="42.98547" lon="0.5403">
        <ele>1309.638</ele>
        <time>2021-02-27T09:37:48Z</time>
      </trkpt>
      <trkpt lat="42.98547" lon="0.54027">
        <ele>1310.082</ele>
        <time>2021-02-27T09:37:50Z</time>
      </trkpt>
      <trkpt lat="42.98548" lon="0.54024">
        <ele>1309.852</ele>
        <time>2021-02-27T09:37:52Z</time>
      </trkpt>
      <trkpt lat="42.98548" lon="0.54021">
        <ele>1310.26</ele>
        <time>2021-02-27T09:37:54Z</time>
      </trkpt>
      <trkpt lat="42.98548" lon="0.54018">
        <ele>1310.094</ele>
        <time>2021-02-27T09:37:56Z</time>
      </trkpt>
      <trkpt lat="42.98549" lon="0.54015">
        <ele>1310.196</ele>
        <time>2021-02-27T09:37:58Z</time>
      </trkpt>
      <trkpt lat="42.98549" lon="0.54012">
        <ele>1310.081</ele>
        <time>2021-02-27T09:38:00Z</time>
      </trkpt>
      <trkpt lat="42.98549" lon="0.54009">
        <ele>1310.63</ele>
        <time>2021-02-27T09:38:02Z</time>
      </trkpt>
      <trkpt lat="42.98549" lon="0.54007">
        <ele>1310.954</ele>
        <time>2021-02-27T09:38:04Z</time>
      </trkpt>
      <trkpt lat="42.9855" lon="0.54003">
        <ele>1310.809</ele>
        <time>2021-02-27T09:38:06Z</time>
      </trkpt>
      <trkpt lat="42.9855" lon="0.54001">
        <ele>1310.821</ele>
        <time>2021-02-27T09:38:08Z</time>
      </trkpt>
      <trkpt lat="42.98551" lon="0.53999">
        <ele>1311.442</ele>
        <time>2021-02-27T09:38:10Z</time>
      </trkpt>
      <trkpt lat="42.98552" lon="0.53997">
        <ele>1311.45</ele>
        <time>2021-02-27T09:38:12Z</time>
      </trkpt>
      <trkpt lat="42.98552" lon="0.53994">
        <ele>1311.008</ele>
        <time>2021-02-27T09:38:14Z</time>
      </trkpt>
      <trkpt lat="42.98553" lon="0.53992">
        <ele>1311.516</ele>
        <time>2021-02-27T09:38:16Z</time>
      </trkpt>
      <trkpt lat="42.98553" lon="0.53989">
        <ele>1311.602</ele>
        <time>2021-02-27T09:38:18Z</time>
      </trkpt>
      <trkpt lat="42.98554" lon="0.53987">
        <ele>1311.391</ele>
        <time>2021-02-27T09:38:20Z</time>
      </trkpt>
      <trkpt lat="42.98554" lon="0.53985">
        <ele>1311.51</ele>
        <time>2021-02-27T09:38:22Z</time>
      </trkpt>
      <trkpt lat="42.98554" lon="0.53982">
        <ele>1311.389</ele>
        <time>2021-02-27T09:38:24Z</time>
      </trkpt>
      <trkpt lat="42.98554" lon="0.53979">
        <ele>1311.013</ele>
        <time>2021-02-27T09:38:26Z</time>
      </trkpt>
      <trkpt lat="42.98555" lon="0.53976">
        <ele>1310.921</ele>
        <time>2021-02-27T09:38:28Z</time>
      </trkpt>
      <trkpt lat="42.98555" lon="0.53973">
        <ele>1310.844</ele>
        <time>2021-02-27T09:38:30Z</time>
      </trkpt>
      <trkpt lat="42.98555" lon="0.53971">
        <ele>1311.156</ele>
        <time>2021-02-27T09:38:32Z</time>
      </trkpt>
      <trkpt lat="42.98556" lon="0.53968">
        <ele>1311.705</ele>
        <time>2021-02-27T09:38:34Z</time>
      </trkpt>
      <trkpt lat="42.98556" lon="0.53965">
        <ele>1312.27</ele>
        <time>2021-02-27T09:38:36Z</time>
      </trkpt>
      <trkpt lat="42.98556" lon="0.53963">
        <ele>1313.317</ele>
        <time>2021-02-27T09:38:38Z</time>
      </trkpt>
      <trkpt lat="42.98557" lon="0.5396">
        <ele>1314.119</ele>
        <time>2021-02-27T09:38:40Z</time>
      </trkpt>
      <trkpt lat="42.98557" lon="0.53957">
        <ele>1314.492</ele>
        <time>2021-02-27T09:38:42Z</time>
      </trkpt>
      <trkpt lat="42.98558" lon="0.53955">
        <ele>1314.447</ele>
        <time>2021-02-27T09:38:44Z</time>
      </trkpt>
      <trkpt lat="42.98559" lon="0.53952">
        <ele>1315.217</ele>
        <time>2021-02-27T09:38:46Z</time>
      </trkpt>
      <trkpt lat="42.9856" lon="0.5395">
        <ele>1315.628</ele>
        <time>2021-02-27T09:38:48Z</time>
      </trkpt>
      <trkpt lat="42.9856" lon="0.53947">
        <ele>1315.518</ele>
        <time>2021-02-27T09:38:50Z</time>
      </trkpt>
      <trkpt lat="42.98561" lon="0.53945">
        <ele>1316.127</ele>
        <time>2021-02-27T09:38:52Z</time>
      </trkpt>
      <trkpt lat="42.98561" lon="0.53942">
        <ele>1316.34</ele>
        <time>2021-02-27T09:38:54Z</time>
      </trkpt>
      <trkpt lat="42.98562" lon="0.5394">
        <ele>1317.123</ele>
        <time>2021-02-27T09:38:56Z</time>
      </trkpt>
      <trkpt lat="42.98563" lon="0.53937">
        <ele>1317.607</ele>
        <time>2021-02-27T09:38:58Z</time>
      </trkpt>
      <trkpt lat="42.98563" lon="0.53934">
        <ele>1317.384</ele>
        <time>2021-02-27T09:39:00Z</time>
      </trkpt>
      <trkpt lat="42.98564" lon="0.53932">
        <ele>1318.021</ele>
        <time>2021-02-27T09:39:02Z</time>
      </trkpt>
      <trkpt lat="42.98565" lon="0.53929">
        <ele>1318.104</ele>
        <time>2021-02-27T09:39:04Z</time>
      </trkpt>
      <trkpt lat="42.98565" lon="0.53926">
        <ele>1318.396</ele>
        <time>2021-02-27T09:39:06Z</time>
      </trkpt>
      <trkpt lat="42.98566" lon="0.53924">
        <ele>1318.816</ele>
        <time>2021-02-27T09:39:08Z</time>
      </trkpt>
      <trkpt lat="42.98567" lon="0.53921">
        <ele>1319.014</ele>
        <time>2021-02-27T09:39:10Z</time>
      </trkpt>
      <trkpt lat="42.98567" lon="0.53919">
        <ele>1319.693</ele>
        <time>2021-02-27T09:39:12Z</time>
      </trkpt>
      <trkpt lat="42.98568" lon="0.53916">
        <ele>1320.251</ele>
        <time>2021-02-27T09:39:14Z</time>
      </trkpt>
      <trkpt lat="42.98569" lon="0.53912">
        <ele>1320.559</ele>
        <time>2021-02-27T09:39:16Z</time>
      </trkpt>
      <trkpt lat="42.9857" lon="0.5391">
        <ele>1321.085</ele>
        <time>2021-02-27T09:39:18Z</time>
      </trkpt>
      <trkpt lat="42.98571" lon="0.53907">
        <ele>1321.278</ele>
        <time>2021-02-27T09:39:20Z</time>
      </trkpt>
      <trkpt lat="42.98571" lon="0.53905">
        <ele>1321.12</ele>
        <time>2021-02-27T09:39:22Z</time>
      </trkpt>
      <trkpt lat="42.98572" lon="0.53901">
        <ele>1321.295</ele>
        <time>2021-02-27T09:39:24Z</time>
      </trkpt>
      <trkpt lat="42.98573" lon="0.53898">
        <ele>1321.358</ele>
        <time>2021-02-27T09:39:26Z</time>
      </trkpt>
      <trkpt lat="42.98575" lon="0.53896">
        <ele>1322.77</ele>
        <time>2021-02-27T09:39:28Z</time>
      </trkpt>
      <trkpt lat="42.98576" lon="0.53893">
        <ele>1323.738</ele>
        <time>2021-02-27T09:39:30Z</time>
      </trkpt>
      <trkpt lat="42.98577" lon="0.53891">
        <ele>1324.085</ele>
        <time>2021-02-27T09:39:32Z</time>
      </trkpt>
      <trkpt lat="42.98577" lon="0.53889">
        <ele>1324.028</ele>
        <time>2021-02-27T09:39:34Z</time>
      </trkpt>
      <trkpt lat="42.98578" lon="0.53887">
        <ele>1325.015</ele>
        <time>2021-02-27T09:39:36Z</time>
      </trkpt>
      <trkpt lat="42.98579" lon="0.53884">
        <ele>1324.227</ele>
        <time>2021-02-27T09:39:38Z</time>
      </trkpt>
      <trkpt lat="42.98579" lon="0.53882">
        <ele>1324.369</ele>
        <time>2021-02-27T09:39:40Z</time>
      </trkpt>
      <trkpt lat="42.9858" lon="0.53879">
        <ele>1324.971</ele>
        <time>2021-02-27T09:39:42Z</time>
      </trkpt>
      <trkpt lat="42.98581" lon="0.53877">
        <ele>1325.125</ele>
        <time>2021-02-27T09:39:44Z</time>
      </trkpt>
      <trkpt lat="42.98581" lon="0.53874">
        <ele>1325.19</ele>
        <time>2021-02-27T09:39:46Z</time>
      </trkpt>
      <trkpt lat="42.98582" lon="0.53871">
        <ele>1325.052</ele>
        <time>2021-02-27T09:39:48Z</time>
      </trkpt>
      <trkpt lat="42.98583" lon="0.53869">
        <ele>1324.865</ele>
        <time>2021-02-27T09:39:50Z</time>
      </trkpt>
      <trkpt lat="42.98584" lon="0.53866">
        <ele>1325.694</ele>
        <time>2021-02-27T09:39:52Z</time>
      </trkpt>
      <trkpt lat="42.98586" lon="0.53863">
        <ele>1327.493</ele>
        <time>2021-02-27T09:39:54Z</time>
      </trkpt>
      <trkpt lat="42.98587" lon="0.5386">
        <ele>1328.275</ele>
        <time>2021-02-27T09:39:56Z</time>
      </trkpt>
      <trkpt lat="42.98588" lon="0.53858">
        <ele>1329.304</ele>
        <time>2021-02-27T09:39:58Z</time>
      </trkpt>
      <trkpt lat="42.9859" lon="0.53855">
        <ele>1330.794</ele>
        <time>2021-02-27T09:40:00Z</time>
      </trkpt>
      <trkpt lat="42.98591" lon="0.53853">
        <ele>1330.71</ele>
        <time>2021-02-27T09:40:02Z</time>
      </trkpt>
      <trkpt lat="42.98592" lon="0.53851">
        <ele>1330.316</ele>
        <time>2021-02-27T09:40:04Z</time>
      </trkpt>
      <trkpt lat="42.98593" lon="0.53848">
        <ele>1330.206</ele>
        <time>2021-02-27T09:40:06Z</time>
      </trkpt>
      <trkpt lat="42.98594" lon="0.53846">
        <ele>1331.125</ele>
        <time>2021-02-27T09:40:08Z</time>
      </trkpt>
      <trkpt lat="42.98595" lon="0.53844">
        <ele>1331.598</ele>
        <time>2021-02-27T09:40:10Z</time>
      </trkpt>
      <trkpt lat="42.98597" lon="0.53842">
        <ele>1331.481</ele>
        <time>2021-02-27T09:40:12Z</time>
      </trkpt>
      <trkpt lat="42.98598" lon="0.53839">
        <ele>1332.382</ele>
        <time>2021-02-27T09:40:14Z</time>
      </trkpt>
      <trkpt lat="42.986" lon="0.53837">
        <ele>1332.76</ele>
        <time>2021-02-27T09:40:16Z</time>
      </trkpt>
      <trkpt lat="42.98601" lon="0.53834">
        <ele>1332.661</ele>
        <time>2021-02-27T09:40:18Z</time>
      </trkpt>
      <trkpt lat="42.98602" lon="0.53832">
        <ele>1333.282</ele>
        <time>2021-02-27T09:40:20Z</time>
      </trkpt>
      <trkpt lat="42.98604" lon="0.53829">
        <ele>1333.594</ele>
        <time>2021-02-27T09:40:22Z</time>
      </trkpt>
      <trkpt lat="42.98604" lon="0.53827">
        <ele>1334.07</ele>
        <time>2021-02-27T09:40:24Z</time>
      </trkpt>
      <trkpt lat="42.98605" lon="0.53824">
        <ele>1335.017</ele>
        <time>2021-02-27T09:40:26Z</time>
      </trkpt>
      <trkpt lat="42.98606" lon="0.53821">
        <ele>1335.06</ele>
        <time>2021-02-27T09:40:28Z</time>
      </trkpt>
      <trkpt lat="42.98606" lon="0.53819">
        <ele>1334.984</ele>
        <time>2021-02-27T09:40:30Z</time>
      </trkpt>
      <trkpt lat="42.98606" lon="0.53816">
        <ele>1334.694</ele>
        <time>2021-02-27T09:40:32Z</time>
      </trkpt>
      <trkpt lat="42.98607" lon="0.53814">
        <ele>1334.785</ele>
        <time>2021-02-27T09:40:34Z</time>
      </trkpt>
      <trkpt lat="42.98607" lon="0.53811">
        <ele>1334.751</ele>
        <time>2021-02-27T09:40:36Z</time>
      </trkpt>
      <trkpt lat="42.98608" lon="0.53809">
        <ele>1334.734</ele>
        <time>2021-02-27T09:40:38Z</time>
      </trkpt>
      <trkpt lat="42.98608" lon="0.53805">
        <ele>1334.587</ele>
        <time>2021-02-27T09:40:40Z</time>
      </trkpt>
      <trkpt lat="42.98609" lon="0.53803">
        <ele>1334.421</ele>
        <time>2021-02-27T09:40:42Z</time>
      </trkpt>
      <trkpt lat="42.98609" lon="0.538">
        <ele>1335.283</ele>
        <time>2021-02-27T09:40:44Z</time>
      </trkpt>
      <trkpt lat="42.98609" lon="0.53798">
        <ele>1335.435</ele>
        <time>2021-02-27T09:40:46Z</time>
      </trkpt>
      <trkpt lat="42.9861" lon="0.53795">
        <ele>1335.478</ele>
        <time>2021-02-27T09:40:48Z</time>
      </trkpt>
      <trkpt lat="42.9861" lon="0.53792">
        <ele>1335.445</ele>
        <time>2021-02-27T09:40:50Z</time>
      </trkpt>
      <trkpt lat="42.9861" lon="0.5379">
        <ele>1335.259</ele>
        <time>2021-02-27T09:40:52Z</time>
      </trkpt>
      <trkpt lat="42.9861" lon="0.53787">
        <ele>1334.664</ele>
        <time>2021-02-27T09:40:54Z</time>
      </trkpt>
      <trkpt lat="42.9861" lon="0.53784">
        <ele>1334.882</ele>
        <time>2021-02-27T09:40:56Z</time>
      </trkpt>
      <trkpt lat="42.98611" lon="0.53782">
        <ele>1334.37</ele>
        <time>2021-02-27T09:40:58Z</time>
      </trkpt>
      <trkpt lat="42.98611" lon="0.53779">
        <ele>1334.829</ele>
        <time>2021-02-27T09:41:00Z</time>
      </trkpt>
      <trkpt lat="42.98612" lon="0.53777">
        <ele>1334.781</ele>
        <time>2021-02-27T09:41:02Z</time>
      </trkpt>
      <trkpt lat="42.98612" lon="0.53774">
        <ele>1335.038</ele>
        <time>2021-02-27T09:41:04Z</time>
      </trkpt>
      <trkpt lat="42.98612" lon="0.53772">
        <ele>1335.486</ele>
        <time>2021-02-27T09:41:06Z</time>
      </trkpt>
      <trkpt lat="42.98613" lon="0.53769">
        <ele>1335.902</ele>
        <time>2021-02-27T09:41:08Z</time>
      </trkpt>
      <trkpt lat="42.98613" lon="0.53766">
        <ele>1336.407</ele>
        <time>2021-02-27T09:41:10Z</time>
      </trkpt>
      <trkpt lat="42.98613" lon="0.53763">
        <ele>1336.627</ele>
        <time>2021-02-27T09:41:12Z</time>
      </trkpt>
      <trkpt lat="42.98614" lon="0.5376">
        <ele>1336.342</ele>
        <time>2021-02-27T09:41:14Z</time>
      </trkpt>
      <trkpt lat="42.98614" lon="0.53758">
        <ele>1336.252</ele>
        <time>2021-02-27T09:41:16Z</time>
      </trkpt>
      <trkpt lat="42.98615" lon="0.53755">
        <ele>1336.399</ele>
        <time>2021-02-27T09:41:18Z</time>
      </trkpt>
      <trkpt lat="42.98616" lon="0.53753">
        <ele>1337.193</ele>
        <time>2021-02-27T09:41:20Z</time>
      </trkpt>
      <trkpt lat="42.98616" lon="0.5375">
        <ele>1337.503</ele>
        <time>2021-02-27T09:41:22Z</time>
      </trkpt>
      <trkpt lat="42.98617" lon="0.53747">
        <ele>1338.143</ele>
        <time>2021-02-27T09:41:24Z</time>
      </trkpt>
      <trkpt lat="42.98618" lon="0.53745">
        <ele>1338.167</ele>
        <time>2021-02-27T09:41:26Z</time>
      </trkpt>
      <trkpt lat="42.98618" lon="0.53741">
        <ele>1338.254</ele>
        <time>2021-02-27T09:41:28Z</time>
      </trkpt>
      <trkpt lat="42.98619" lon="0.53739">
        <ele>1338.613</ele>
        <time>2021-02-27T09:41:30Z</time>
      </trkpt>
      <trkpt lat="42.9862" lon="0.53736">
        <ele>1339.078</ele>
        <time>2021-02-27T09:41:32Z</time>
      </trkpt>
      <trkpt lat="42.98621" lon="0.53732">
        <ele>1339.32</ele>
        <time>2021-02-27T09:41:34Z</time>
      </trkpt>
      <trkpt lat="42.98622" lon="0.5373">
        <ele>1339.752</ele>
        <time>2021-02-27T09:41:36Z</time>
      </trkpt>
      <trkpt lat="42.98622" lon="0.53726">
        <ele>1339.83</ele>
        <time>2021-02-27T09:41:38Z</time>
      </trkpt>
      <trkpt lat="42.98623" lon="0.53724">
        <ele>1340.797</ele>
        <time>2021-02-27T09:41:40Z</time>
      </trkpt>
      <trkpt lat="42.98623" lon="0.53721">
        <ele>1340.469</ele>
        <time>2021-02-27T09:41:42Z</time>
      </trkpt>
      <trkpt lat="42.98623" lon="0.53718">
        <ele>1340.286</ele>
        <time>2021-02-27T09:41:44Z</time>
      </trkpt>
      <trkpt lat="42.98623" lon="0.53715">
        <ele>1340.812</ele>
        <time>2021-02-27T09:41:46Z</time>
      </trkpt>
      <trkpt lat="42.98624" lon="0.53713">
        <ele>1341.364</ele>
        <time>2021-02-27T09:41:48Z</time>
      </trkpt>
      <trkpt lat="42.98624" lon="0.5371">
        <ele>1341.144</ele>
        <time>2021-02-27T09:41:50Z</time>
      </trkpt>
      <trkpt lat="42.98624" lon="0.53707">
        <ele>1341.493</ele>
        <time>2021-02-27T09:41:52Z</time>
      </trkpt>
      <trkpt lat="42.98624" lon="0.53704">
        <ele>1342.131</ele>
        <time>2021-02-27T09:41:54Z</time>
      </trkpt>
      <trkpt lat="42.98624" lon="0.53702">
        <ele>1342.925</ele>
        <time>2021-02-27T09:41:56Z</time>
      </trkpt>
      <trkpt lat="42.98625" lon="0.53699">
        <ele>1343.452</ele>
        <time>2021-02-27T09:41:58Z</time>
      </trkpt>
      <trkpt lat="42.98625" lon="0.53696">
        <ele>1343.719</ele>
        <time>2021-02-27T09:42:00Z</time>
      </trkpt>
      <trkpt lat="42.98625" lon="0.53694">
        <ele>1343.789</ele>
        <time>2021-02-27T09:42:02Z</time>
      </trkpt>
      <trkpt lat="42.98625" lon="0.53691">
        <ele>1343.944</ele>
        <time>2021-02-27T09:42:04Z</time>
      </trkpt>
      <trkpt lat="42.98626" lon="0.53689">
        <ele>1344.392</ele>
        <time>2021-02-27T09:42:06Z</time>
      </trkpt>
      <trkpt lat="42.98625" lon="0.53687">
        <ele>1344.525</ele>
        <time>2021-02-27T09:42:08Z</time>
      </trkpt>
      <trkpt lat="42.98626" lon="0.53684">
        <ele>1344.74</ele>
        <time>2021-02-27T09:42:10Z</time>
      </trkpt>
      <trkpt lat="42.98626" lon="0.53681">
        <ele>1345.224</ele>
        <time>2021-02-27T09:42:12Z</time>
      </trkpt>
      <trkpt lat="42.98627" lon="0.53678">
        <ele>1345.115</ele>
        <time>2021-02-27T09:42:14Z</time>
      </trkpt>
      <trkpt lat="42.98627" lon="0.53676">
        <ele>1345.665</ele>
        <time>2021-02-27T09:42:16Z</time>
      </trkpt>
      <trkpt lat="42.98627" lon="0.53674">
        <ele>1346.036</ele>
        <time>2021-02-27T09:42:18Z</time>
      </trkpt>
      <trkpt lat="42.98627" lon="0.53671">
        <ele>1346.416</ele>
        <time>2021-02-27T09:42:20Z</time>
      </trkpt>
      <trkpt lat="42.98627" lon="0.53669">
        <ele>1346.484</ele>
        <time>2021-02-27T09:42:22Z</time>
      </trkpt>
      <trkpt lat="42.98627" lon="0.53666">
        <ele>1347.115</ele>
        <time>2021-02-27T09:42:24Z</time>
      </trkpt>
      <trkpt lat="42.98628" lon="0.53663">
        <ele>1347.061</ele>
        <time>2021-02-27T09:42:26Z</time>
      </trkpt>
      <trkpt lat="42.98628" lon="0.5366">
        <ele>1347.052</ele>
        <time>2021-02-27T09:42:28Z</time>
      </trkpt>
      <trkpt lat="42.98627" lon="0.53658">
        <ele>1346.9</ele>
        <time>2021-02-27T09:42:30Z</time>
      </trkpt>
      <trkpt lat="42.98625" lon="0.53655">
        <ele>1346.922</ele>
        <time>2021-02-27T09:42:32Z</time>
      </trkpt>
      <trkpt lat="42.98624" lon="0.53651">
        <ele>1346.601</ele>
        <time>2021-02-27T09:42:34Z</time>
      </trkpt>
      <trkpt lat="42.98625" lon="0.53648">
        <ele>1346.278</ele>
        <time>2021-02-27T09:42:36Z</time>
      </trkpt>
      <trkpt lat="42.98626" lon="0.53644">
        <ele>1346.239</ele>
        <time>2021-02-27T09:42:38Z</time>
      </trkpt>
      <trkpt lat="42.98628" lon="0.53642">
        <ele>1350.181</ele>
        <time>2021-02-27T09:42:40Z</time>
      </trkpt>
      <trkpt lat="42.98625" lon="0.53639">
        <ele>1348.427</ele>
        <time>2021-02-27T09:42:42Z</time>
      </trkpt>
      <trkpt lat="42.98624" lon="0.53639">
        <ele>1348.42</ele>
        <time>2021-02-27T09:42:44Z</time>
      </trkpt>
      <trkpt lat="42.98625" lon="0.53639">
        <ele>1348.687</ele>
        <time>2021-02-27T09:42:46Z</time>
      </trkpt>
      <trkpt lat="42.98624" lon="0.53639">
        <ele>1347.98</ele>
        <time>2021-02-27T09:42:48Z</time>
      </trkpt>
      <trkpt lat="42.98624" lon="0.53637">
        <ele>1347.743</ele>
        <time>2021-02-27T09:42:50Z</time>
      </trkpt>
      <trkpt lat="42.98624" lon="0.53637">
        <ele>1347.8</ele>
        <time>2021-02-27T09:42:52Z</time>
      </trkpt>
      <trkpt lat="42.98623" lon="0.53635">
        <ele>1348.538</ele>
        <time>2021-02-27T09:42:54Z</time>
      </trkpt>
      <trkpt lat="42.98621" lon="0.53632">
        <ele>1347.688</ele>
        <time>2021-02-27T09:42:56Z</time>
      </trkpt>
      <trkpt lat="42.98619" lon="0.5363">
        <ele>1346.517</ele>
        <time>2021-02-27T09:42:58Z</time>
      </trkpt>
      <trkpt lat="42.98618" lon="0.53628">
        <ele>1346.126</ele>
        <time>2021-02-27T09:43:00Z</time>
      </trkpt>
      <trkpt lat="42.98618" lon="0.53627">
        <ele>1346.851</ele>
        <time>2021-02-27T09:43:02Z</time>
      </trkpt>
      <trkpt lat="42.98618" lon="0.53625">
        <ele>1347.36</ele>
        <time>2021-02-27T09:43:04Z</time>
      </trkpt>
      <trkpt lat="42.98617" lon="0.53624">
        <ele>1347.337</ele>
        <time>2021-02-27T09:43:06Z</time>
      </trkpt>
      <trkpt lat="42.98617" lon="0.53622">
        <ele>1347.188</ele>
        <time>2021-02-27T09:43:08Z</time>
      </trkpt>
      <trkpt lat="42.98616" lon="0.5362">
        <ele>1347.463</ele>
        <time>2021-02-27T09:43:10Z</time>
      </trkpt>
      <trkpt lat="42.98616" lon="0.53618">
        <ele>1348.646</ele>
        <time>2021-02-27T09:43:12Z</time>
      </trkpt>
      <trkpt lat="42.98616" lon="0.53617">
        <ele>1349.124</ele>
        <time>2021-02-27T09:43:14Z</time>
      </trkpt>
      <trkpt lat="42.98617" lon="0.53615">
        <ele>1350.077</ele>
        <time>2021-02-27T09:43:16Z</time>
      </trkpt>
      <trkpt lat="42.98617" lon="0.53613">
        <ele>1350.388</ele>
        <time>2021-02-27T09:43:18Z</time>
      </trkpt>
      <trkpt lat="42.98617" lon="0.53611">
        <ele>1350.191</ele>
        <time>2021-02-27T09:43:20Z</time>
      </trkpt>
      <trkpt lat="42.98616" lon="0.53609">
        <ele>1350.364</ele>
        <time>2021-02-27T09:43:22Z</time>
      </trkpt>
      <trkpt lat="42.98616" lon="0.53608">
        <ele>1349.982</ele>
        <time>2021-02-27T09:43:24Z</time>
      </trkpt>
      <trkpt lat="42.98616" lon="0.53605">
        <ele>1350.122</ele>
        <time>2021-02-27T09:43:26Z</time>
      </trkpt>
      <trkpt lat="42.98615" lon="0.53604">
        <ele>1349.583</ele>
        <time>2021-02-27T09:43:28Z</time>
      </trkpt>
      <trkpt lat="42.98616" lon="0.53601">
        <ele>1349.508</ele>
        <time>2021-02-27T09:43:30Z</time>
      </trkpt>
      <trkpt lat="42.98615" lon="0.53599">
        <ele>1350.231</ele>
        <time>2021-02-27T09:43:32Z</time>
      </trkpt>
      <trkpt lat="42.98616" lon="0.53596">
        <ele>1350.49</ele>
        <time>2021-02-27T09:43:34Z</time>
      </trkpt>
      <trkpt lat="42.98616" lon="0.53595">
        <ele>1351.237</ele>
        <time>2021-02-27T09:43:36Z</time>
      </trkpt>
      <trkpt lat="42.98616" lon="0.53593">
        <ele>1352.184</ele>
        <time>2021-02-27T09:43:38Z</time>
      </trkpt>
      <trkpt lat="42.98615" lon="0.5359">
        <ele>1353.674</ele>
        <time>2021-02-27T09:43:40Z</time>
      </trkpt>
      <trkpt lat="42.98616" lon="0.53588">
        <ele>1354.852</ele>
        <time>2021-02-27T09:43:42Z</time>
      </trkpt>
      <trkpt lat="42.98615" lon="0.53587">
        <ele>1355.589</ele>
        <time>2021-02-27T09:43:44Z</time>
      </trkpt>
      <trkpt lat="42.98615" lon="0.53585">
        <ele>1356.509</ele>
        <time>2021-02-27T09:43:46Z</time>
      </trkpt>
      <trkpt lat="42.98615" lon="0.53583">
        <ele>1356.833</ele>
        <time>2021-02-27T09:43:48Z</time>
      </trkpt>
      <trkpt lat="42.98614" lon="0.53582">
        <ele>1357.381</ele>
        <time>2021-02-27T09:43:50Z</time>
      </trkpt>
      <trkpt lat="42.98614" lon="0.53581">
        <ele>1357.523</ele>
        <time>2021-02-27T09:43:52Z</time>
      </trkpt>
      <trkpt lat="42.98612" lon="0.53581">
        <ele>1357.719</ele>
        <time>2021-02-27T09:43:54Z</time>
      </trkpt>
      <trkpt lat="42.9861" lon="0.53581">
        <ele>1358.187</ele>
        <time>2021-02-27T09:43:56Z</time>
      </trkpt>
      <trkpt lat="42.98609" lon="0.53582">
        <ele>1357.564</ele>
        <time>2021-02-27T09:43:58Z</time>
      </trkpt>
      <trkpt lat="42.98608" lon="0.53584">
        <ele>1358.042</ele>
        <time>2021-02-27T09:44:00Z</time>
      </trkpt>
      <trkpt lat="42.98607" lon="0.53586">
        <ele>1358.748</ele>
        <time>2021-02-27T09:44:02Z</time>
      </trkpt>
      <trkpt lat="42.98605" lon="0.53587">
        <ele>1358.355</ele>
        <time>2021-02-27T09:44:04Z</time>
      </trkpt>
      <trkpt lat="42.98604" lon="0.5359">
        <ele>1358.086</ele>
        <time>2021-02-27T09:44:06Z</time>
      </trkpt>
      <trkpt lat="42.98603" lon="0.53591">
        <ele>1357.775</ele>
        <time>2021-02-27T09:44:08Z</time>
      </trkpt>
      <trkpt lat="42.98602" lon="0.53592">
        <ele>1358.408</ele>
        <time>2021-02-27T09:44:10Z</time>
      </trkpt>
      <trkpt lat="42.98601" lon="0.53594">
        <ele>1358.991</ele>
        <time>2021-02-27T09:44:12Z</time>
      </trkpt>
      <trkpt lat="42.986" lon="0.53596">
        <ele>1359.186</ele>
        <time>2021-02-27T09:44:14Z</time>
      </trkpt>
      <trkpt lat="42.98599" lon="0.53598">
        <ele>1359.306</ele>
        <time>2021-02-27T09:44:16Z</time>
      </trkpt>
      <trkpt lat="42.98599" lon="0.536">
        <ele>1358.731</ele>
        <time>2021-02-27T09:44:18Z</time>
      </trkpt>
      <trkpt lat="42.98598" lon="0.53602">
        <ele>1358.324</ele>
        <time>2021-02-27T09:44:20Z</time>
      </trkpt>
      <trkpt lat="42.98597" lon="0.53605">
        <ele>1358.357</ele>
        <time>2021-02-27T09:44:22Z</time>
      </trkpt>
      <trkpt lat="42.98597" lon="0.53607">
        <ele>1358.855</ele>
        <time>2021-02-27T09:44:24Z</time>
      </trkpt>
      <trkpt lat="42.98596" lon="0.53609">
        <ele>1359.282</ele>
        <time>2021-02-27T09:44:26Z</time>
      </trkpt>
      <trkpt lat="42.98596" lon="0.53611">
        <ele>1359.57</ele>
        <time>2021-02-27T09:44:28Z</time>
      </trkpt>
      <trkpt lat="42.98595" lon="0.53612">
        <ele>1360.091</ele>
        <time>2021-02-27T09:44:30Z</time>
      </trkpt>
      <trkpt lat="42.98594" lon="0.53614">
        <ele>1360.574</ele>
        <time>2021-02-27T09:44:32Z</time>
      </trkpt>
      <trkpt lat="42.98593" lon="0.53616">
        <ele>1360.981</ele>
        <time>2021-02-27T09:44:34Z</time>
      </trkpt>
      <trkpt lat="42.98593" lon="0.53617">
        <ele>1362.255</ele>
        <time>2021-02-27T09:44:36Z</time>
      </trkpt>
      <trkpt lat="42.98592" lon="0.53619">
        <ele>1363.192</ele>
        <time>2021-02-27T09:44:38Z</time>
      </trkpt>
      <trkpt lat="42.98591" lon="0.53621">
        <ele>1362.838</ele>
        <time>2021-02-27T09:44:40Z</time>
      </trkpt>
      <trkpt lat="42.98591" lon="0.53623">
        <ele>1362.993</ele>
        <time>2021-02-27T09:44:42Z</time>
      </trkpt>
      <trkpt lat="42.9859" lon="0.53624">
        <ele>1362.759</ele>
        <time>2021-02-27T09:44:44Z</time>
      </trkpt>
      <trkpt lat="42.98589" lon="0.53625">
        <ele>1363.485</ele>
        <time>2021-02-27T09:44:46Z</time>
      </trkpt>
      <trkpt lat="42.98588" lon="0.53627">
        <ele>1363.068</ele>
        <time>2021-02-27T09:44:48Z</time>
      </trkpt>
      <trkpt lat="42.98587" lon="0.53628">
        <ele>1363.507</ele>
        <time>2021-02-27T09:44:50Z</time>
      </trkpt>
      <trkpt lat="42.98587" lon="0.53629">
        <ele>1363.749</ele>
        <time>2021-02-27T09:44:52Z</time>
      </trkpt>
      <trkpt lat="42.98586" lon="0.5363">
        <ele>1363.888</ele>
        <time>2021-02-27T09:44:54Z</time>
      </trkpt>
      <trkpt lat="42.98585" lon="0.53632">
        <ele>1364.294</ele>
        <time>2021-02-27T09:44:56Z</time>
      </trkpt>
      <trkpt lat="42.98584" lon="0.53634">
        <ele>1365.624</ele>
        <time>2021-02-27T09:44:58Z</time>
      </trkpt>
      <trkpt lat="42.98584" lon="0.53636">
        <ele>1367.162</ele>
        <time>2021-02-27T09:45:00Z</time>
      </trkpt>
      <trkpt lat="42.98584" lon="0.53637">
        <ele>1367.183</ele>
        <time>2021-02-27T09:45:02Z</time>
      </trkpt>
      <trkpt lat="42.98583" lon="0.53639">
        <ele>1367.218</ele>
        <time>2021-02-27T09:45:04Z</time>
      </trkpt>
      <trkpt lat="42.98581" lon="0.5364">
        <ele>1367.674</ele>
        <time>2021-02-27T09:45:06Z</time>
      </trkpt>
      <trkpt lat="42.9858" lon="0.53643">
        <ele>1366.115</ele>
        <time>2021-02-27T09:45:08Z</time>
      </trkpt>
      <trkpt lat="42.98579" lon="0.53645">
        <ele>1366.789</ele>
        <time>2021-02-27T09:45:10Z</time>
      </trkpt>
      <trkpt lat="42.98578" lon="0.53646">
        <ele>1366.602</ele>
        <time>2021-02-27T09:45:12Z</time>
      </trkpt>
      <trkpt lat="42.98577" lon="0.53649">
        <ele>1367.311</ele>
        <time>2021-02-27T09:45:14Z</time>
      </trkpt>
      <trkpt lat="42.98575" lon="0.5365">
        <ele>1367.387</ele>
        <time>2021-02-27T09:45:16Z</time>
      </trkpt>
      <trkpt lat="42.98575" lon="0.53651">
        <ele>1366.282</ele>
        <time>2021-02-27T09:45:18Z</time>
      </trkpt>
      <trkpt lat="42.98574" lon="0.53653">
        <ele>1366.16</ele>
        <time>2021-02-27T09:45:20Z</time>
      </trkpt>
      <trkpt lat="42.98572" lon="0.53654">
        <ele>1366.233</ele>
        <time>2021-02-27T09:45:22Z</time>
      </trkpt>
      <trkpt lat="42.98572" lon="0.53656">
        <ele>1366.692</ele>
        <time>2021-02-27T09:45:24Z</time>
      </trkpt>
      <trkpt lat="42.98571" lon="0.53658">
        <ele>1366.715</ele>
        <time>2021-02-27T09:45:26Z</time>
      </trkpt>
      <trkpt lat="42.9857" lon="0.53659">
        <ele>1367.194</ele>
        <time>2021-02-27T09:45:28Z</time>
      </trkpt>
      <trkpt lat="42.98569" lon="0.53661">
        <ele>1367.757</ele>
        <time>2021-02-27T09:45:30Z</time>
      </trkpt>
      <trkpt lat="42.98569" lon="0.53663">
        <ele>1367.627</ele>
        <time>2021-02-27T09:45:32Z</time>
      </trkpt>
      <trkpt lat="42.98568" lon="0.53664">
        <ele>1368.83</ele>
        <time>2021-02-27T09:45:34Z</time>
      </trkpt>
      <trkpt lat="42.98566" lon="0.53665">
        <ele>1369.955</ele>
        <time>2021-02-27T09:45:36Z</time>
      </trkpt>
      <trkpt lat="42.98566" lon="0.53667">
        <ele>1370.479</ele>
        <time>2021-02-27T09:45:38Z</time>
      </trkpt>
      <trkpt lat="42.98565" lon="0.53669">
        <ele>1368.984</ele>
        <time>2021-02-27T09:45:40Z</time>
      </trkpt>
      <trkpt lat="42.98564" lon="0.53671">
        <ele>1369.146</ele>
        <time>2021-02-27T09:45:42Z</time>
      </trkpt>
      <trkpt lat="42.98563" lon="0.53673">
        <ele>1369.442</ele>
        <time>2021-02-27T09:45:44Z</time>
      </trkpt>
      <trkpt lat="42.98563" lon="0.53674">
        <ele>1370.022</ele>
        <time>2021-02-27T09:45:46Z</time>
      </trkpt>
      <trkpt lat="42.98562" lon="0.53676">
        <ele>1371.138</ele>
        <time>2021-02-27T09:45:48Z</time>
      </trkpt>
      <trkpt lat="42.98561" lon="0.53678">
        <ele>1371.573</ele>
        <time>2021-02-27T09:45:50Z</time>
      </trkpt>
      <trkpt lat="42.98561" lon="0.5368">
        <ele>1372.295</ele>
        <time>2021-02-27T09:45:52Z</time>
      </trkpt>
      <trkpt lat="42.9856" lon="0.53682">
        <ele>1371.576</ele>
        <time>2021-02-27T09:45:54Z</time>
      </trkpt>
      <trkpt lat="42.98559" lon="0.53684">
        <ele>1372.952</ele>
        <time>2021-02-27T09:45:56Z</time>
      </trkpt>
      <trkpt lat="42.98559" lon="0.53686">
        <ele>1372.999</ele>
        <time>2021-02-27T09:45:58Z</time>
      </trkpt>
      <trkpt lat="42.98558" lon="0.53688">
        <ele>1372.472</ele>
        <time>2021-02-27T09:46:00Z</time>
      </trkpt>
      <trkpt lat="42.98557" lon="0.5369">
        <ele>1371.416</ele>
        <time>2021-02-27T09:46:02Z</time>
      </trkpt>
      <trkpt lat="42.98556" lon="0.53692">
        <ele>1370.272</ele>
        <time>2021-02-27T09:46:04Z</time>
      </trkpt>
      <trkpt lat="42.98555" lon="0.53694">
        <ele>1371.63</ele>
        <time>2021-02-27T09:46:06Z</time>
      </trkpt>
      <trkpt lat="42.98554" lon="0.53695">
        <ele>1371.721</ele>
        <time>2021-02-27T09:46:08Z</time>
      </trkpt>
      <trkpt lat="42.98553" lon="0.53697">
        <ele>1373.059</ele>
        <time>2021-02-27T09:46:10Z</time>
      </trkpt>
      <trkpt lat="42.98553" lon="0.53699">
        <ele>1372.702</ele>
        <time>2021-02-27T09:46:12Z</time>
      </trkpt>
      <trkpt lat="42.98552" lon="0.53701">
        <ele>1372.592</ele>
        <time>2021-02-27T09:46:14Z</time>
      </trkpt>
      <trkpt lat="42.98551" lon="0.53703">
        <ele>1374.233</ele>
        <time>2021-02-27T09:46:16Z</time>
      </trkpt>
      <trkpt lat="42.98549" lon="0.53704">
        <ele>1374.923</ele>
        <time>2021-02-27T09:46:18Z</time>
      </trkpt>
      <trkpt lat="42.98549" lon="0.53706">
        <ele>1376.383</ele>
        <time>2021-02-27T09:46:20Z</time>
      </trkpt>
      <trkpt lat="42.98548" lon="0.53708">
        <ele>1377.254</ele>
        <time>2021-02-27T09:46:22Z</time>
      </trkpt>
      <trkpt lat="42.98547" lon="0.5371">
        <ele>1378.702</ele>
        <time>2021-02-27T09:46:24Z</time>
      </trkpt>
      <trkpt lat="42.98547" lon="0.53712">
        <ele>1379.841</ele>
        <time>2021-02-27T09:46:26Z</time>
      </trkpt>
      <trkpt lat="42.98546" lon="0.53714">
        <ele>1381.145</ele>
        <time>2021-02-27T09:46:28Z</time>
      </trkpt>
      <trkpt lat="42.98545" lon="0.53716">
        <ele>1382.664</ele>
        <time>2021-02-27T09:46:30Z</time>
      </trkpt>
      <trkpt lat="42.98544" lon="0.53717">
        <ele>1382.553</ele>
        <time>2021-02-27T09:46:32Z</time>
      </trkpt>
      <trkpt lat="42.98543" lon="0.5372">
        <ele>1382.308</ele>
        <time>2021-02-27T09:46:34Z</time>
      </trkpt>
      <trkpt lat="42.98542" lon="0.53722">
        <ele>1381.915</ele>
        <time>2021-02-27T09:46:36Z</time>
      </trkpt>
      <trkpt lat="42.98542" lon="0.53725">
        <ele>1381.707</ele>
        <time>2021-02-27T09:46:38Z</time>
      </trkpt>
      <trkpt lat="42.98541" lon="0.53727">
        <ele>1382.573</ele>
        <time>2021-02-27T09:46:40Z</time>
      </trkpt>
      <trkpt lat="42.98541" lon="0.53729">
        <ele>1384.003</ele>
        <time>2021-02-27T09:46:42Z</time>
      </trkpt>
      <trkpt lat="42.9854" lon="0.53731">
        <ele>1384.67</ele>
        <time>2021-02-27T09:46:44Z</time>
      </trkpt>
      <trkpt lat="42.9854" lon="0.53734">
        <ele>1383.765</ele>
        <time>2021-02-27T09:46:46Z</time>
      </trkpt>
      <trkpt lat="42.98539" lon="0.53736">
        <ele>1383.961</ele>
        <time>2021-02-27T09:46:48Z</time>
      </trkpt>
      <trkpt lat="42.98538" lon="0.53739">
        <ele>1384.538</ele>
        <time>2021-02-27T09:46:50Z</time>
      </trkpt>
      <trkpt lat="42.98537" lon="0.5374">
        <ele>1385.454</ele>
        <time>2021-02-27T09:46:52Z</time>
      </trkpt>
      <trkpt lat="42.98536" lon="0.53742">
        <ele>1388.194</ele>
        <time>2021-02-27T09:46:54Z</time>
      </trkpt>
      <trkpt lat="42.98535" lon="0.53744">
        <ele>1388.59</ele>
        <time>2021-02-27T09:46:56Z</time>
      </trkpt>
      <trkpt lat="42.98534" lon="0.53746">
        <ele>1388.212</ele>
        <time>2021-02-27T09:46:58Z</time>
      </trkpt>
      <trkpt lat="42.98533" lon="0.53748">
        <ele>1388.53</ele>
        <time>2021-02-27T09:47:00Z</time>
      </trkpt>
      <trkpt lat="42.98531" lon="0.5375">
        <ele>1389.202</ele>
        <time>2021-02-27T09:47:02Z</time>
      </trkpt>
      <trkpt lat="42.98531" lon="0.53752">
        <ele>1390.106</ele>
        <time>2021-02-27T09:47:04Z</time>
      </trkpt>
      <trkpt lat="42.9853" lon="0.53754">
        <ele>1390.389</ele>
        <time>2021-02-27T09:47:06Z</time>
      </trkpt>
      <trkpt lat="42.98529" lon="0.53757">
        <ele>1390.236</ele>
        <time>2021-02-27T09:47:08Z</time>
      </trkpt>
      <trkpt lat="42.98528" lon="0.53759">
        <ele>1390.767</ele>
        <time>2021-02-27T09:47:10Z</time>
      </trkpt>
      <trkpt lat="42.98527" lon="0.53761">
        <ele>1392.636</ele>
        <time>2021-02-27T09:47:12Z</time>
      </trkpt>
      <trkpt lat="42.98525" lon="0.53763">
        <ele>1392.265</ele>
        <time>2021-02-27T09:47:14Z</time>
      </trkpt>
      <trkpt lat="42.98524" lon="0.53764">
        <ele>1392.854</ele>
        <time>2021-02-27T09:47:16Z</time>
      </trkpt>
      <trkpt lat="42.98523" lon="0.53766">
        <ele>1393.861</ele>
        <time>2021-02-27T09:47:18Z</time>
      </trkpt>
      <trkpt lat="42.98522" lon="0.53768">
        <ele>1393.663</ele>
        <time>2021-02-27T09:47:20Z</time>
      </trkpt>
      <trkpt lat="42.98521" lon="0.5377">
        <ele>1392.923</ele>
        <time>2021-02-27T09:47:22Z</time>
      </trkpt>
      <trkpt lat="42.98519" lon="0.53771">
        <ele>1393.67</ele>
        <time>2021-02-27T09:47:24Z</time>
      </trkpt>
      <trkpt lat="42.98518" lon="0.53773">
        <ele>1394.043</ele>
        <time>2021-02-27T09:47:26Z</time>
      </trkpt>
      <trkpt lat="42.98517" lon="0.53774">
        <ele>1395.043</ele>
        <time>2021-02-27T09:47:28Z</time>
      </trkpt>
      <trkpt lat="42.98516" lon="0.53776">
        <ele>1395.234</ele>
        <time>2021-02-27T09:47:30Z</time>
      </trkpt>
      <trkpt lat="42.98515" lon="0.53777">
        <ele>1394.28</ele>
        <time>2021-02-27T09:47:32Z</time>
      </trkpt>
      <trkpt lat="42.98514" lon="0.53779">
        <ele>1395.941</ele>
        <time>2021-02-27T09:47:34Z</time>
      </trkpt>
      <trkpt lat="42.98513" lon="0.53781">
        <ele>1396.827</ele>
        <time>2021-02-27T09:47:36Z</time>
      </trkpt>
      <trkpt lat="42.98512" lon="0.53782">
        <ele>1397.183</ele>
        <time>2021-02-27T09:47:38Z</time>
      </trkpt>
      <trkpt lat="42.98511" lon="0.53783">
        <ele>1398.049</ele>
        <time>2021-02-27T09:47:40Z</time>
      </trkpt>
      <trkpt lat="42.98509" lon="0.53783">
        <ele>1399.381</ele>
        <time>2021-02-27T09:47:42Z</time>
      </trkpt>
      <trkpt lat="42.98508" lon="0.53785">
        <ele>1399.511</ele>
        <time>2021-02-27T09:47:44Z</time>
      </trkpt>
      <trkpt lat="42.98506" lon="0.53786">
        <ele>1401.451</ele>
        <time>2021-02-27T09:47:46Z</time>
      </trkpt>
      <trkpt lat="42.98504" lon="0.53787">
        <ele>1400.466</ele>
        <time>2021-02-27T09:47:48Z</time>
      </trkpt>
      <trkpt lat="42.98503" lon="0.53789">
        <ele>1401.335</ele>
        <time>2021-02-27T09:47:50Z</time>
      </trkpt>
      <trkpt lat="42.98501" lon="0.53791">
        <ele>1401.295</ele>
        <time>2021-02-27T09:47:52Z</time>
      </trkpt>
      <trkpt lat="42.985" lon="0.53792">
        <ele>1401.416</ele>
        <time>2021-02-27T09:47:54Z</time>
      </trkpt>
      <trkpt lat="42.98498" lon="0.53794">
        <ele>1400.159</ele>
        <time>2021-02-27T09:47:56Z</time>
      </trkpt>
      <trkpt lat="42.98496" lon="0.53795">
        <ele>1401.057</ele>
        <time>2021-02-27T09:47:58Z</time>
      </trkpt>
      <trkpt lat="42.98495" lon="0.53797">
        <ele>1400.707</ele>
        <time>2021-02-27T09:48:00Z</time>
      </trkpt>
      <trkpt lat="42.98494" lon="0.53799">
        <ele>1401.543</ele>
        <time>2021-02-27T09:48:02Z</time>
      </trkpt>
      <trkpt lat="42.98493" lon="0.53801">
        <ele>1401.203</ele>
        <time>2021-02-27T09:48:04Z</time>
      </trkpt>
      <trkpt lat="42.98492" lon="0.53803">
        <ele>1402.007</ele>
        <time>2021-02-27T09:48:06Z</time>
      </trkpt>
      <trkpt lat="42.98492" lon="0.53805">
        <ele>1402.216</ele>
        <time>2021-02-27T09:48:08Z</time>
      </trkpt>
      <trkpt lat="42.98491" lon="0.53807">
        <ele>1403.407</ele>
        <time>2021-02-27T09:48:10Z</time>
      </trkpt>
      <trkpt lat="42.98489" lon="0.53809">
        <ele>1403.981</ele>
        <time>2021-02-27T09:48:12Z</time>
      </trkpt>
      <trkpt lat="42.98488" lon="0.53811">
        <ele>1402.326</ele>
        <time>2021-02-27T09:48:14Z</time>
      </trkpt>
      <trkpt lat="42.98487" lon="0.53813">
        <ele>1402.794</ele>
        <time>2021-02-27T09:48:16Z</time>
      </trkpt>
      <trkpt lat="42.98486" lon="0.53816">
        <ele>1402.576</ele>
        <time>2021-02-27T09:48:18Z</time>
      </trkpt>
      <trkpt lat="42.98484" lon="0.53817">
        <ele>1403.652</ele>
        <time>2021-02-27T09:48:20Z</time>
      </trkpt>
      <trkpt lat="42.98483" lon="0.53819">
        <ele>1403.656</ele>
        <time>2021-02-27T09:48:22Z</time>
      </trkpt>
      <trkpt lat="42.98482" lon="0.53821">
        <ele>1403.566</ele>
        <time>2021-02-27T09:48:24Z</time>
      </trkpt>
      <trkpt lat="42.98481" lon="0.53824">
        <ele>1403.208</ele>
        <time>2021-02-27T09:48:26Z</time>
      </trkpt>
      <trkpt lat="42.9848" lon="0.53826">
        <ele>1404.144</ele>
        <time>2021-02-27T09:48:28Z</time>
      </trkpt>
      <trkpt lat="42.98479" lon="0.53828">
        <ele>1404.757</ele>
        <time>2021-02-27T09:48:30Z</time>
      </trkpt>
      <trkpt lat="42.98478" lon="0.53829">
        <ele>1405.686</ele>
        <time>2021-02-27T09:48:32Z</time>
      </trkpt>
      <trkpt lat="42.98477" lon="0.53831">
        <ele>1407.41</ele>
        <time>2021-02-27T09:48:34Z</time>
      </trkpt>
      <trkpt lat="42.98477" lon="0.53833">
        <ele>1407.771</ele>
        <time>2021-02-27T09:48:36Z</time>
      </trkpt>
      <trkpt lat="42.98476" lon="0.53835">
        <ele>1408.586</ele>
        <time>2021-02-27T09:48:38Z</time>
      </trkpt>
      <trkpt lat="42.98475" lon="0.53837">
        <ele>1407.894</ele>
        <time>2021-02-27T09:48:40Z</time>
      </trkpt>
      <trkpt lat="42.98474" lon="0.53839">
        <ele>1408.458</ele>
        <time>2021-02-27T09:48:42Z</time>
      </trkpt>
      <trkpt lat="42.98473" lon="0.5384">
        <ele>1407.868</ele>
        <time>2021-02-27T09:48:44Z</time>
      </trkpt>
      <trkpt lat="42.98472" lon="0.53842">
        <ele>1408.535</ele>
        <time>2021-02-27T09:48:46Z</time>
      </trkpt>
      <trkpt lat="42.98471" lon="0.53844">
        <ele>1408.666</ele>
        <time>2021-02-27T09:48:48Z</time>
      </trkpt>
      <trkpt lat="42.9847" lon="0.53847">
        <ele>1409.069</ele>
        <time>2021-02-27T09:48:50Z</time>
      </trkpt>
      <trkpt lat="42.98469" lon="0.53848">
        <ele>1408.824</ele>
        <time>2021-02-27T09:48:52Z</time>
      </trkpt>
      <trkpt lat="42.98468" lon="0.5385">
        <ele>1409.117</ele>
        <time>2021-02-27T09:48:54Z</time>
      </trkpt>
      <trkpt lat="42.98467" lon="0.53852">
        <ele>1409.69</ele>
        <time>2021-02-27T09:48:56Z</time>
      </trkpt>
      <trkpt lat="42.98467" lon="0.53854">
        <ele>1410.439</ele>
        <time>2021-02-27T09:48:58Z</time>
      </trkpt>
      <trkpt lat="42.98466" lon="0.53856">
        <ele>1410.326</ele>
        <time>2021-02-27T09:49:00Z</time>
      </trkpt>
      <trkpt lat="42.98464" lon="0.53857">
        <ele>1411.599</ele>
        <time>2021-02-27T09:49:02Z</time>
      </trkpt>
      <trkpt lat="42.98462" lon="0.53858">
        <ele>1412.379</ele>
        <time>2021-02-27T09:49:04Z</time>
      </trkpt>
      <trkpt lat="42.98461" lon="0.5386">
        <ele>1413.416</ele>
        <time>2021-02-27T09:49:06Z</time>
      </trkpt>
      <trkpt lat="42.9846" lon="0.53861">
        <ele>1413.973</ele>
        <time>2021-02-27T09:49:08Z</time>
      </trkpt>
      <trkpt lat="42.98459" lon="0.53863">
        <ele>1413.803</ele>
        <time>2021-02-27T09:49:10Z</time>
      </trkpt>
      <trkpt lat="42.98458" lon="0.53865">
        <ele>1414.389</ele>
        <time>2021-02-27T09:49:12Z</time>
      </trkpt>
      <trkpt lat="42.98457" lon="0.53867">
        <ele>1413.416</ele>
        <time>2021-02-27T09:49:14Z</time>
      </trkpt>
      <trkpt lat="42.98455" lon="0.53869">
        <ele>1414.272</ele>
        <time>2021-02-27T09:49:16Z</time>
      </trkpt>
      <trkpt lat="42.98454" lon="0.5387">
        <ele>1412.039</ele>
        <time>2021-02-27T09:49:18Z</time>
      </trkpt>
      <trkpt lat="42.98452" lon="0.53872">
        <ele>1411.972</ele>
        <time>2021-02-27T09:49:20Z</time>
      </trkpt>
      <trkpt lat="42.98451" lon="0.53874">
        <ele>1412.59</ele>
        <time>2021-02-27T09:49:22Z</time>
      </trkpt>
      <trkpt lat="42.9845" lon="0.53875">
        <ele>1412.012</ele>
        <time>2021-02-27T09:49:24Z</time>
      </trkpt>
      <trkpt lat="42.98449" lon="0.53877">
        <ele>1411.973</ele>
        <time>2021-02-27T09:49:26Z</time>
      </trkpt>
      <trkpt lat="42.98447" lon="0.53878">
        <ele>1414.508</ele>
        <time>2021-02-27T09:49:28Z</time>
      </trkpt>
      <trkpt lat="42.98446" lon="0.5388">
        <ele>1415.125</ele>
        <time>2021-02-27T09:49:30Z</time>
      </trkpt>
      <trkpt lat="42.98445" lon="0.53882">
        <ele>1415.241</ele>
        <time>2021-02-27T09:49:32Z</time>
      </trkpt>
      <trkpt lat="42.98444" lon="0.53883">
        <ele>1415.779</ele>
        <time>2021-02-27T09:49:34Z</time>
      </trkpt>
      <trkpt lat="42.98442" lon="0.53884">
        <ele>1416.33</ele>
        <time>2021-02-27T09:49:36Z</time>
      </trkpt>
      <trkpt lat="42.98441" lon="0.53886">
        <ele>1417.345</ele>
        <time>2021-02-27T09:49:38Z</time>
      </trkpt>
      <trkpt lat="42.9844" lon="0.53888">
        <ele>1417.12</ele>
        <time>2021-02-27T09:49:40Z</time>
      </trkpt>
      <trkpt lat="42.98439" lon="0.5389">
        <ele>1417.559</ele>
        <time>2021-02-27T09:49:42Z</time>
      </trkpt>
      <trkpt lat="42.98438" lon="0.53892">
        <ele>1418.435</ele>
        <time>2021-02-27T09:49:44Z</time>
      </trkpt>
      <trkpt lat="42.98436" lon="0.53894">
        <ele>1418.898</ele>
        <time>2021-02-27T09:49:46Z</time>
      </trkpt>
      <trkpt lat="42.98435" lon="0.53896">
        <ele>1419.338</ele>
        <time>2021-02-27T09:49:48Z</time>
      </trkpt>
      <trkpt lat="42.98433" lon="0.53898">
        <ele>1419.722</ele>
        <time>2021-02-27T09:49:50Z</time>
      </trkpt>
      <trkpt lat="42.98432" lon="0.539">
        <ele>1419.585</ele>
        <time>2021-02-27T09:49:52Z</time>
      </trkpt>
      <trkpt lat="42.98432" lon="0.53902">
        <ele>1419.335</ele>
        <time>2021-02-27T09:49:54Z</time>
      </trkpt>
      <trkpt lat="42.9843" lon="0.53904">
        <ele>1420.289</ele>
        <time>2021-02-27T09:49:56Z</time>
      </trkpt>
      <trkpt lat="42.98429" lon="0.53906">
        <ele>1421.209</ele>
        <time>2021-02-27T09:49:58Z</time>
      </trkpt>
      <trkpt lat="42.98428" lon="0.53907">
        <ele>1421.93</ele>
        <time>2021-02-27T09:50:00Z</time>
      </trkpt>
      <trkpt lat="42.98426" lon="0.53908">
        <ele>1422.732</ele>
        <time>2021-02-27T09:50:02Z</time>
      </trkpt>
      <trkpt lat="42.98425" lon="0.5391">
        <ele>1423.174</ele>
        <time>2021-02-27T09:50:04Z</time>
      </trkpt>
      <trkpt lat="42.98423" lon="0.53912">
        <ele>1424.776</ele>
        <time>2021-02-27T09:50:06Z</time>
      </trkpt>
      <trkpt lat="42.98422" lon="0.53914">
        <ele>1425.436</ele>
        <time>2021-02-27T09:50:08Z</time>
      </trkpt>
      <trkpt lat="42.9842" lon="0.53916">
        <ele>1425.452</ele>
        <time>2021-02-27T09:50:10Z</time>
      </trkpt>
      <trkpt lat="42.98419" lon="0.53918">
        <ele>1424.922</ele>
        <time>2021-02-27T09:50:12Z</time>
      </trkpt>
      <trkpt lat="42.98417" lon="0.5392">
        <ele>1426.15</ele>
        <time>2021-02-27T09:50:14Z</time>
      </trkpt>
      <trkpt lat="42.98416" lon="0.53921">
        <ele>1426.409</ele>
        <time>2021-02-27T09:50:16Z</time>
      </trkpt>
      <trkpt lat="42.98415" lon="0.53924">
        <ele>1424.592</ele>
        <time>2021-02-27T09:50:18Z</time>
      </trkpt>
      <trkpt lat="42.98414" lon="0.53926">
        <ele>1424.393</ele>
        <time>2021-02-27T09:50:20Z</time>
      </trkpt>
      <trkpt lat="42.98412" lon="0.53927">
        <ele>1424.073</ele>
        <time>2021-02-27T09:50:22Z</time>
      </trkpt>
      <trkpt lat="42.9841" lon="0.53928">
        <ele>1424.35</ele>
        <time>2021-02-27T09:50:24Z</time>
      </trkpt>
      <trkpt lat="42.98409" lon="0.5393">
        <ele>1423.746</ele>
        <time>2021-02-27T09:50:26Z</time>
      </trkpt>
      <trkpt lat="42.98407" lon="0.53932">
        <ele>1424.056</ele>
        <time>2021-02-27T09:50:28Z</time>
      </trkpt>
      <trkpt lat="42.98405" lon="0.53934">
        <ele>1423.08</ele>
        <time>2021-02-27T09:50:30Z</time>
      </trkpt>
      <trkpt lat="42.98402" lon="0.53936">
        <ele>1422.644</ele>
        <time>2021-02-27T09:50:32Z</time>
      </trkpt>
      <trkpt lat="42.984" lon="0.53938">
        <ele>1421.869</ele>
        <time>2021-02-27T09:50:34Z</time>
      </trkpt>
      <trkpt lat="42.98397" lon="0.53941">
        <ele>1421.272</ele>
        <time>2021-02-27T09:50:36Z</time>
      </trkpt>
      <trkpt lat="42.98395" lon="0.53943">
        <ele>1419.968</ele>
        <time>2021-02-27T09:50:38Z</time>
      </trkpt>
      <trkpt lat="42.98394" lon="0.53945">
        <ele>1421.368</ele>
        <time>2021-02-27T09:50:40Z</time>
      </trkpt>
      <trkpt lat="42.98393" lon="0.53947">
        <ele>1422.163</ele>
        <time>2021-02-27T09:50:42Z</time>
      </trkpt>
      <trkpt lat="42.98392" lon="0.53948">
        <ele>1424.225</ele>
        <time>2021-02-27T09:50:44Z</time>
      </trkpt>
      <trkpt lat="42.9839" lon="0.5395">
        <ele>1424.182</ele>
        <time>2021-02-27T09:50:46Z</time>
      </trkpt>
      <trkpt lat="42.98389" lon="0.53951">
        <ele>1424.28</ele>
        <time>2021-02-27T09:50:48Z</time>
      </trkpt>
      <trkpt lat="42.98387" lon="0.53952">
        <ele>1424.046</ele>
        <time>2021-02-27T09:50:50Z</time>
      </trkpt>
      <trkpt lat="42.98386" lon="0.53954">
        <ele>1423.265</ele>
        <time>2021-02-27T09:50:52Z</time>
      </trkpt>
      <trkpt lat="42.98384" lon="0.53955">
        <ele>1423.374</ele>
        <time>2021-02-27T09:50:54Z</time>
      </trkpt>
      <trkpt lat="42.98382" lon="0.53955">
        <ele>1422.605</ele>
        <time>2021-02-27T09:50:56Z</time>
      </trkpt>
      <trkpt lat="42.98379" lon="0.53956">
        <ele>1423.186</ele>
        <time>2021-02-27T09:50:58Z</time>
      </trkpt>
      <trkpt lat="42.98377" lon="0.53957">
        <ele>1421.644</ele>
        <time>2021-02-27T09:51:00Z</time>
      </trkpt>
      <trkpt lat="42.98375" lon="0.53958">
        <ele>1421.471</ele>
        <time>2021-02-27T09:51:02Z</time>
      </trkpt>
      <trkpt lat="42.98373" lon="0.53959">
        <ele>1420.001</ele>
        <time>2021-02-27T09:51:04Z</time>
      </trkpt>
      <trkpt lat="42.98371" lon="0.5396">
        <ele>1418.974</ele>
        <time>2021-02-27T09:51:06Z</time>
      </trkpt>
      <trkpt lat="42.98369" lon="0.53961">
        <ele>1418.896</ele>
        <time>2021-02-27T09:51:09Z</time>
      </trkpt>
      <trkpt lat="42.98367" lon="0.53962">
        <ele>1418.571</ele>
        <time>2021-02-27T09:51:11Z</time>
      </trkpt>
      <trkpt lat="42.98366" lon="0.53963">
        <ele>1420.038</ele>
        <time>2021-02-27T09:51:13Z</time>
      </trkpt>
      <trkpt lat="42.98365" lon="0.53963">
        <ele>1421.795</ele>
        <time>2021-02-27T09:51:15Z</time>
      </trkpt>
      <trkpt lat="42.98364" lon="0.53964">
        <ele>1422.666</ele>
        <time>2021-02-27T09:51:17Z</time>
      </trkpt>
      <trkpt lat="42.98362" lon="0.53963">
        <ele>1424.277</ele>
        <time>2021-02-27T09:51:19Z</time>
      </trkpt>
      <trkpt lat="42.98361" lon="0.53964">
        <ele>1424.29</ele>
        <time>2021-02-27T09:51:21Z</time>
      </trkpt>
      <trkpt lat="42.9836" lon="0.53964">
        <ele>1425.954</ele>
        <time>2021-02-27T09:51:23Z</time>
      </trkpt>
      <trkpt lat="42.98359" lon="0.53965">
        <ele>1426.018</ele>
        <time>2021-02-27T09:51:25Z</time>
      </trkpt>
      <trkpt lat="42.98358" lon="0.53965">
        <ele>1425.405</ele>
        <time>2021-02-27T09:51:27Z</time>
      </trkpt>
      <trkpt lat="42.98358" lon="0.53965">
        <ele>1426.014</ele>
        <time>2021-02-27T09:51:29Z</time>
      </trkpt>
      <trkpt lat="42.98356" lon="0.53965">
        <ele>1426.577</ele>
        <time>2021-02-27T09:51:31Z</time>
      </trkpt>
      <trkpt lat="42.98355" lon="0.53964">
        <ele>1426.778</ele>
        <time>2021-02-27T09:51:33Z</time>
      </trkpt>
      <trkpt lat="42.98354" lon="0.53965">
        <ele>1426.067</ele>
        <time>2021-02-27T09:51:35Z</time>
      </trkpt>
      <trkpt lat="42.98353" lon="0.53965">
        <ele>1426.208</ele>
        <time>2021-02-27T09:51:37Z</time>
      </trkpt>
      <trkpt lat="42.98351" lon="0.53964">
        <ele>1426.382</ele>
        <time>2021-02-27T09:51:39Z</time>
      </trkpt>
      <trkpt lat="42.9835" lon="0.53965">
        <ele>1426.292</ele>
        <time>2021-02-27T09:51:41Z</time>
      </trkpt>
      <trkpt lat="42.98349" lon="0.53965">
        <ele>1426.154</ele>
        <time>2021-02-27T09:51:43Z</time>
      </trkpt>
      <trkpt lat="42.98348" lon="0.53966">
        <ele>1427.148</ele>
        <time>2021-02-27T09:51:45Z</time>
      </trkpt>
      <trkpt lat="42.98347" lon="0.53965">
        <ele>1427.078</ele>
        <time>2021-02-27T09:51:47Z</time>
      </trkpt>
      <trkpt lat="42.98346" lon="0.53965">
        <ele>1424.649</ele>
        <time>2021-02-27T09:51:49Z</time>
      </trkpt>
      <trkpt lat="42.98346" lon="0.53965">
        <ele>1424.49</ele>
        <time>2021-02-27T09:51:51Z</time>
      </trkpt>
      <trkpt lat="42.98346" lon="0.53965">
        <ele>1424.481</ele>
        <time>2021-02-27T09:51:53Z</time>
      </trkpt>
      <trkpt lat="42.98346" lon="0.53965">
        <ele>1424.454</ele>
        <time>2021-02-27T09:51:55Z</time>
      </trkpt>
      <trkpt lat="42.98346" lon="0.53965">
        <ele>1424.41</ele>
        <time>2021-02-27T09:51:57Z</time>
      </trkpt>
      <trkpt lat="42.98346" lon="0.53965">
        <ele>1424.371</ele>
        <time>2021-02-27T09:51:59Z</time>
      </trkpt>
      <trkpt lat="42.98346" lon="0.53965">
        <ele>1424.333</ele>
        <time>2021-02-27T09:52:01Z</time>
      </trkpt>
      <trkpt lat="42.98346" lon="0.53965">
        <ele>1424.322</ele>
        <time>2021-02-27T09:52:03Z</time>
      </trkpt>
      <trkpt lat="42.98346" lon="0.53965">
        <ele>1424.325</ele>
        <time>2021-02-27T09:52:05Z</time>
      </trkpt>
      <trkpt lat="42.98346" lon="0.53966">
        <ele>1424.327</ele>
        <time>2021-02-27T09:52:07Z</time>
      </trkpt>
      <trkpt lat="42.98346" lon="0.53966">
        <ele>1424.328</ele>
        <time>2021-02-27T09:52:09Z</time>
      </trkpt>
      <trkpt lat="42.98346" lon="0.53966">
        <ele>1424.323</ele>
        <time>2021-02-27T09:52:11Z</time>
      </trkpt>
      <trkpt lat="42.98346" lon="0.53965">
        <ele>1425.185</ele>
        <time>2021-02-27T09:52:13Z</time>
      </trkpt>
      <trkpt lat="42.98346" lon="0.53965">
        <ele>1425.26</ele>
        <time>2021-02-27T09:52:15Z</time>
      </trkpt>
      <trkpt lat="42.98345" lon="0.53965">
        <ele>1425.687</ele>
        <time>2021-02-27T09:52:17Z</time>
      </trkpt>
      <trkpt lat="42.98344" lon="0.53965">
        <ele>1425.929</ele>
        <time>2021-02-27T09:52:19Z</time>
      </trkpt>
      <trkpt lat="42.98344" lon="0.53966">
        <ele>1424.938</ele>
        <time>2021-02-27T09:52:21Z</time>
      </trkpt>
      <trkpt lat="42.98343" lon="0.53966">
        <ele>1425.01</ele>
        <time>2021-02-27T09:52:23Z</time>
      </trkpt>
      <trkpt lat="42.98342" lon="0.53965">
        <ele>1425.766</ele>
        <time>2021-02-27T09:52:25Z</time>
      </trkpt>
      <trkpt lat="42.98342" lon="0.53966">
        <ele>1426.729</ele>
        <time>2021-02-27T09:52:27Z</time>
      </trkpt>
      <trkpt lat="42.9834" lon="0.53968">
        <ele>1426.926</ele>
        <time>2021-02-27T09:52:29Z</time>
      </trkpt>
      <trkpt lat="42.98338" lon="0.5397">
        <ele>1427.836</ele>
        <time>2021-02-27T09:52:31Z</time>
      </trkpt>
      <trkpt lat="42.98336" lon="0.53971">
        <ele>1428.77</ele>
        <time>2021-02-27T09:52:33Z</time>
      </trkpt>
      <trkpt lat="42.98334" lon="0.53972">
        <ele>1428.432</ele>
        <time>2021-02-27T09:52:35Z</time>
      </trkpt>
      <trkpt lat="42.98332" lon="0.53973">
        <ele>1428.016</ele>
        <time>2021-02-27T09:52:37Z</time>
      </trkpt>
      <trkpt lat="42.9833" lon="0.53973">
        <ele>1427.978</ele>
        <time>2021-02-27T09:52:39Z</time>
      </trkpt>
      <trkpt lat="42.98329" lon="0.53975">
        <ele>1428.83</ele>
        <time>2021-02-27T09:52:41Z</time>
      </trkpt>
      <trkpt lat="42.98327" lon="0.53976">
        <ele>1429.777</ele>
        <time>2021-02-27T09:52:43Z</time>
      </trkpt>
      <trkpt lat="42.98326" lon="0.53977">
        <ele>1430.044</ele>
        <time>2021-02-27T09:52:45Z</time>
      </trkpt>
      <trkpt lat="42.98324" lon="0.53976">
        <ele>1430.747</ele>
        <time>2021-02-27T09:52:47Z</time>
      </trkpt>
      <trkpt lat="42.98322" lon="0.53977">
        <ele>1432.275</ele>
        <time>2021-02-27T09:52:49Z</time>
      </trkpt>
      <trkpt lat="42.98319" lon="0.53978">
        <ele>1432.77</ele>
        <time>2021-02-27T09:52:51Z</time>
      </trkpt>
      <trkpt lat="42.98317" lon="0.5398">
        <ele>1434.077</ele>
        <time>2021-02-27T09:52:53Z</time>
      </trkpt>
      <trkpt lat="42.98316" lon="0.5398">
        <ele>1434.311</ele>
        <time>2021-02-27T09:52:55Z</time>
      </trkpt>
      <trkpt lat="42.98314" lon="0.53981">
        <ele>1435.205</ele>
        <time>2021-02-27T09:52:57Z</time>
      </trkpt>
      <trkpt lat="42.98312" lon="0.53982">
        <ele>1433.825</ele>
        <time>2021-02-27T09:52:59Z</time>
      </trkpt>
      <trkpt lat="42.9831" lon="0.53983">
        <ele>1433.262</ele>
        <time>2021-02-27T09:53:01Z</time>
      </trkpt>
      <trkpt lat="42.98308" lon="0.53984">
        <ele>1433.023</ele>
        <time>2021-02-27T09:53:03Z</time>
      </trkpt>
      <trkpt lat="42.98307" lon="0.53984">
        <ele>1431.659</ele>
        <time>2021-02-27T09:53:05Z</time>
      </trkpt>
      <trkpt lat="42.98306" lon="0.53984">
        <ele>1431.171</ele>
        <time>2021-02-27T09:53:07Z</time>
      </trkpt>
      <trkpt lat="42.98305" lon="0.53984">
        <ele>1432.536</ele>
        <time>2021-02-27T09:53:09Z</time>
      </trkpt>
      <trkpt lat="42.98303" lon="0.53985">
        <ele>1433.055</ele>
        <time>2021-02-27T09:53:11Z</time>
      </trkpt>
      <trkpt lat="42.98302" lon="0.53985">
        <ele>1433.756</ele>
        <time>2021-02-27T09:53:13Z</time>
      </trkpt>
      <trkpt lat="42.98301" lon="0.53985">
        <ele>1432.899</ele>
        <time>2021-02-27T09:53:15Z</time>
      </trkpt>
      <trkpt lat="42.983" lon="0.53986">
        <ele>1432.131</ele>
        <time>2021-02-27T09:53:17Z</time>
      </trkpt>
      <trkpt lat="42.98298" lon="0.53987">
        <ele>1431.936</ele>
        <time>2021-02-27T09:53:19Z</time>
      </trkpt>
      <trkpt lat="42.98297" lon="0.53988">
        <ele>1432.196</ele>
        <time>2021-02-27T09:53:21Z</time>
      </trkpt>
      <trkpt lat="42.98295" lon="0.53989">
        <ele>1433.042</ele>
        <time>2021-02-27T09:53:23Z</time>
      </trkpt>
      <trkpt lat="42.98294" lon="0.53991">
        <ele>1435.945</ele>
        <time>2021-02-27T09:53:25Z</time>
      </trkpt>
      <trkpt lat="42.98293" lon="0.53991">
        <ele>1435.127</ele>
        <time>2021-02-27T09:53:27Z</time>
      </trkpt>
      <trkpt lat="42.98292" lon="0.53992">
        <ele>1435.481</ele>
        <time>2021-02-27T09:53:29Z</time>
      </trkpt>
      <trkpt lat="42.9829" lon="0.53993">
        <ele>1435.942</ele>
        <time>2021-02-27T09:53:31Z</time>
      </trkpt>
      <trkpt lat="42.98289" lon="0.53994">
        <ele>1436.167</ele>
        <time>2021-02-27T09:53:33Z</time>
      </trkpt>
      <trkpt lat="42.98287" lon="0.53994">
        <ele>1437.156</ele>
        <time>2021-02-27T09:53:35Z</time>
      </trkpt>
      <trkpt lat="42.98286" lon="0.53996">
        <ele>1438.031</ele>
        <time>2021-02-27T09:53:37Z</time>
      </trkpt>
      <trkpt lat="42.98285" lon="0.53996">
        <ele>1437.579</ele>
        <time>2021-02-27T09:53:39Z</time>
      </trkpt>
      <trkpt lat="42.98284" lon="0.53997">
        <ele>1437.205</ele>
        <time>2021-02-27T09:53:41Z</time>
      </trkpt>
      <trkpt lat="42.98282" lon="0.53998">
        <ele>1437.922</ele>
        <time>2021-02-27T09:53:43Z</time>
      </trkpt>
      <trkpt lat="42.9828" lon="0.53999">
        <ele>1437.786</ele>
        <time>2021-02-27T09:53:45Z</time>
      </trkpt>
      <trkpt lat="42.98279" lon="0.54">
        <ele>1437.898</ele>
        <time>2021-02-27T09:53:47Z</time>
      </trkpt>
      <trkpt lat="42.98277" lon="0.54002">
        <ele>1438.183</ele>
        <time>2021-02-27T09:53:49Z</time>
      </trkpt>
      <trkpt lat="42.98275" lon="0.54002">
        <ele>1437.815</ele>
        <time>2021-02-27T09:53:51Z</time>
      </trkpt>
      <trkpt lat="42.98273" lon="0.54003">
        <ele>1438.71</ele>
        <time>2021-02-27T09:53:53Z</time>
      </trkpt>
      <trkpt lat="42.98271" lon="0.54005">
        <ele>1438.221</ele>
        <time>2021-02-27T09:53:55Z</time>
      </trkpt>
      <trkpt lat="42.98269" lon="0.54006">
        <ele>1438.266</ele>
        <time>2021-02-27T09:53:57Z</time>
      </trkpt>
      <trkpt lat="42.98266" lon="0.54008">
        <ele>1438.718</ele>
        <time>2021-02-27T09:53:59Z</time>
      </trkpt>
      <trkpt lat="42.98264" lon="0.54009">
        <ele>1438.908</ele>
        <time>2021-02-27T09:54:01Z</time>
      </trkpt>
      <trkpt lat="42.98262" lon="0.54009">
        <ele>1438.786</ele>
        <time>2021-02-27T09:54:03Z</time>
      </trkpt>
      <trkpt lat="42.9826" lon="0.54011">
        <ele>1440.027</ele>
        <time>2021-02-27T09:54:05Z</time>
      </trkpt>
      <trkpt lat="42.98258" lon="0.54013">
        <ele>1440.652</ele>
        <time>2021-02-27T09:54:07Z</time>
      </trkpt>
      <trkpt lat="42.98256" lon="0.54014">
        <ele>1442.472</ele>
        <time>2021-02-27T09:54:09Z</time>
      </trkpt>
      <trkpt lat="42.98254" lon="0.54016">
        <ele>1443.43</ele>
        <time>2021-02-27T09:54:11Z</time>
      </trkpt>
      <trkpt lat="42.98253" lon="0.54017">
        <ele>1444.083</ele>
        <time>2021-02-27T09:54:13Z</time>
      </trkpt>
      <trkpt lat="42.98252" lon="0.54019">
        <ele>1444.942</ele>
        <time>2021-02-27T09:54:15Z</time>
      </trkpt>
      <trkpt lat="42.9825" lon="0.54021">
        <ele>1445.817</ele>
        <time>2021-02-27T09:54:17Z</time>
      </trkpt>
      <trkpt lat="42.98248" lon="0.54021">
        <ele>1445.958</ele>
        <time>2021-02-27T09:54:19Z</time>
      </trkpt>
      <trkpt lat="42.98247" lon="0.54023">
        <ele>1447.261</ele>
        <time>2021-02-27T09:54:21Z</time>
      </trkpt>
      <trkpt lat="42.98246" lon="0.54024">
        <ele>1447.641</ele>
        <time>2021-02-27T09:54:23Z</time>
      </trkpt>
      <trkpt lat="42.98244" lon="0.54025">
        <ele>1448.645</ele>
        <time>2021-02-27T09:54:25Z</time>
      </trkpt>
      <trkpt lat="42.98242" lon="0.54025">
        <ele>1449.361</ele>
        <time>2021-02-27T09:54:27Z</time>
      </trkpt>
      <trkpt lat="42.9824" lon="0.54027">
        <ele>1449.935</ele>
        <time>2021-02-27T09:54:29Z</time>
      </trkpt>
      <trkpt lat="42.98238" lon="0.54027">
        <ele>1450.595</ele>
        <time>2021-02-27T09:54:31Z</time>
      </trkpt>
      <trkpt lat="42.98237" lon="0.54028">
        <ele>1451.632</ele>
        <time>2021-02-27T09:54:33Z</time>
      </trkpt>
      <trkpt lat="42.98235" lon="0.5403">
        <ele>1452.055</ele>
        <time>2021-02-27T09:54:35Z</time>
      </trkpt>
      <trkpt lat="42.98233" lon="0.54031">
        <ele>1452.172</ele>
        <time>2021-02-27T09:54:37Z</time>
      </trkpt>
      <trkpt lat="42.98232" lon="0.54033">
        <ele>1451.968</ele>
        <time>2021-02-27T09:54:39Z</time>
      </trkpt>
      <trkpt lat="42.9823" lon="0.54034">
        <ele>1451.508</ele>
        <time>2021-02-27T09:54:41Z</time>
      </trkpt>
      <trkpt lat="42.98228" lon="0.54034">
        <ele>1451.668</ele>
        <time>2021-02-27T09:54:43Z</time>
      </trkpt>
      <trkpt lat="42.98226" lon="0.54035">
        <ele>1451.775</ele>
        <time>2021-02-27T09:54:45Z</time>
      </trkpt>
      <trkpt lat="42.98225" lon="0.54036">
        <ele>1451.785</ele>
        <time>2021-02-27T09:54:47Z</time>
      </trkpt>
      <trkpt lat="42.98224" lon="0.54037">
        <ele>1450.866</ele>
        <time>2021-02-27T09:54:50Z</time>
      </trkpt>
      <trkpt lat="42.98222" lon="0.54038">
        <ele>1450.048</ele>
        <time>2021-02-27T09:54:52Z</time>
      </trkpt>
      <trkpt lat="42.98221" lon="0.54039">
        <ele>1450.943</ele>
        <time>2021-02-27T09:54:54Z</time>
      </trkpt>
      <trkpt lat="42.9822" lon="0.5404">
        <ele>1451.228</ele>
        <time>2021-02-27T09:54:56Z</time>
      </trkpt>
      <trkpt lat="42.98219" lon="0.54041">
        <ele>1452.037</ele>
        <time>2021-02-27T09:54:58Z</time>
      </trkpt>
      <trkpt lat="42.98217" lon="0.54041">
        <ele>1453.258</ele>
        <time>2021-02-27T09:55:00Z</time>
      </trkpt>
      <trkpt lat="42.98216" lon="0.54042">
        <ele>1454.531</ele>
        <time>2021-02-27T09:55:02Z</time>
      </trkpt>
      <trkpt lat="42.98215" lon="0.54043">
        <ele>1454.907</ele>
        <time>2021-02-27T09:55:04Z</time>
      </trkpt>
      <trkpt lat="42.98212" lon="0.54044">
        <ele>1455.742</ele>
        <time>2021-02-27T09:55:07Z</time>
      </trkpt>
      <trkpt lat="42.98211" lon="0.54044">
        <ele>1456.441</ele>
        <time>2021-02-27T09:55:09Z</time>
      </trkpt>
      <trkpt lat="42.98208" lon="0.54046">
        <ele>1457.039</ele>
        <time>2021-02-27T09:55:12Z</time>
      </trkpt>
      <trkpt lat="42.98206" lon="0.54048">
        <ele>1455.287</ele>
        <time>2021-02-27T09:55:14Z</time>
      </trkpt>
      <trkpt lat="42.98205" lon="0.5405">
        <ele>1455.409</ele>
        <time>2021-02-27T09:55:16Z</time>
      </trkpt>
      <trkpt lat="42.98203" lon="0.54051">
        <ele>1456.546</ele>
        <time>2021-02-27T09:55:18Z</time>
      </trkpt>
      <trkpt lat="42.98202" lon="0.54052">
        <ele>1456.853</ele>
        <time>2021-02-27T09:55:20Z</time>
      </trkpt>
      <trkpt lat="42.982" lon="0.54053">
        <ele>1457.564</ele>
        <time>2021-02-27T09:55:22Z</time>
      </trkpt>
      <trkpt lat="42.98198" lon="0.54054">
        <ele>1458.204</ele>
        <time>2021-02-27T09:55:24Z</time>
      </trkpt>
      <trkpt lat="42.98195" lon="0.54054">
        <ele>1458.231</ele>
        <time>2021-02-27T09:55:26Z</time>
      </trkpt>
      <trkpt lat="42.98194" lon="0.54055">
        <ele>1459.724</ele>
        <time>2021-02-27T09:55:28Z</time>
      </trkpt>
      <trkpt lat="42.98192" lon="0.54056">
        <ele>1460.245</ele>
        <time>2021-02-27T09:55:30Z</time>
      </trkpt>
      <trkpt lat="42.9819" lon="0.54057">
        <ele>1460.309</ele>
        <time>2021-02-27T09:55:32Z</time>
      </trkpt>
      <trkpt lat="42.98189" lon="0.54058">
        <ele>1459.787</ele>
        <time>2021-02-27T09:55:34Z</time>
      </trkpt>
      <trkpt lat="42.98187" lon="0.54059">
        <ele>1460.282</ele>
        <time>2021-02-27T09:55:36Z</time>
      </trkpt>
      <trkpt lat="42.98185" lon="0.5406">
        <ele>1460.328</ele>
        <time>2021-02-27T09:55:38Z</time>
      </trkpt>
      <trkpt lat="42.98183" lon="0.54061">
        <ele>1459.592</ele>
        <time>2021-02-27T09:55:40Z</time>
      </trkpt>
      <trkpt lat="42.98181" lon="0.54061">
        <ele>1459.455</ele>
        <time>2021-02-27T09:55:42Z</time>
      </trkpt>
      <trkpt lat="42.98179" lon="0.54062">
        <ele>1458.495</ele>
        <time>2021-02-27T09:55:44Z</time>
      </trkpt>
      <trkpt lat="42.98177" lon="0.54063">
        <ele>1456.973</ele>
        <time>2021-02-27T09:55:46Z</time>
      </trkpt>
      <trkpt lat="42.98176" lon="0.54065">
        <ele>1458.168</ele>
        <time>2021-02-27T09:55:48Z</time>
      </trkpt>
      <trkpt lat="42.98173" lon="0.54069">
        <ele>1458.748</ele>
        <time>2021-02-27T09:55:51Z</time>
      </trkpt>
      <trkpt lat="42.98171" lon="0.54071">
        <ele>1459.451</ele>
        <time>2021-02-27T09:55:53Z</time>
      </trkpt>
      <trkpt lat="42.98169" lon="0.54072">
        <ele>1460.135</ele>
        <time>2021-02-27T09:55:55Z</time>
      </trkpt>
      <trkpt lat="42.98168" lon="0.54073">
        <ele>1460.439</ele>
        <time>2021-02-27T09:55:57Z</time>
      </trkpt>
      <trkpt lat="42.98166" lon="0.54075">
        <ele>1460.595</ele>
        <time>2021-02-27T09:55:59Z</time>
      </trkpt>
      <trkpt lat="42.98165" lon="0.54075">
        <ele>1460.911</ele>
        <time>2021-02-27T09:56:01Z</time>
      </trkpt>
      <trkpt lat="42.98163" lon="0.54076">
        <ele>1461.49</ele>
        <time>2021-02-27T09:56:03Z</time>
      </trkpt>
      <trkpt lat="42.98162" lon="0.54077">
        <ele>1462.02</ele>
        <time>2021-02-27T09:56:05Z</time>
      </trkpt>
      <trkpt lat="42.9816" lon="0.54076">
        <ele>1462.841</ele>
        <time>2021-02-27T09:56:07Z</time>
      </trkpt>
      <trkpt lat="42.98159" lon="0.54077">
        <ele>1463.268</ele>
        <time>2021-02-27T09:56:09Z</time>
      </trkpt>
      <trkpt lat="42.98159" lon="0.54077">
        <ele>1462.724</ele>
        <time>2021-02-27T09:56:11Z</time>
      </trkpt>
      <trkpt lat="42.98159" lon="0.54077">
        <ele>1462.72</ele>
        <time>2021-02-27T09:56:13Z</time>
      </trkpt>
      <trkpt lat="42.98159" lon="0.54077">
        <ele>1462.71</ele>
        <time>2021-02-27T09:56:15Z</time>
      </trkpt>
      <trkpt lat="42.98158" lon="0.54078">
        <ele>1462.446</ele>
        <time>2021-02-27T09:56:17Z</time>
      </trkpt>
      <trkpt lat="42.98157" lon="0.54079">
        <ele>1463.893</ele>
        <time>2021-02-27T09:56:19Z</time>
      </trkpt>
      <trkpt lat="42.98156" lon="0.5408">
        <ele>1464.078</ele>
        <time>2021-02-27T09:56:21Z</time>
      </trkpt>
      <trkpt lat="42.98156" lon="0.54081">
        <ele>1464.321</ele>
        <time>2021-02-27T09:56:23Z</time>
      </trkpt>
      <trkpt lat="42.98156" lon="0.54081">
        <ele>1464.332</ele>
        <time>2021-02-27T09:56:25Z</time>
      </trkpt>
      <trkpt lat="42.98156" lon="0.54081">
        <ele>1464.337</ele>
        <time>2021-02-27T09:56:27Z</time>
      </trkpt>
      <trkpt lat="42.98156" lon="0.54081">
        <ele>1464.35</ele>
        <time>2021-02-27T09:56:29Z</time>
      </trkpt>
      <trkpt lat="42.98156" lon="0.54081">
        <ele>1464.349</ele>
        <time>2021-02-27T09:56:31Z</time>
      </trkpt>
      <trkpt lat="42.98156" lon="0.54081">
        <ele>1464.355</ele>
        <time>2021-02-27T09:56:33Z</time>
      </trkpt>
      <trkpt lat="42.98155" lon="0.54081">
        <ele>1465.463</ele>
        <time>2021-02-27T09:56:35Z</time>
      </trkpt>
      <trkpt lat="42.98155" lon="0.54082">
        <ele>1466.163</ele>
        <time>2021-02-27T09:56:37Z</time>
      </trkpt>
      <trkpt lat="42.98155" lon="0.54082">
        <ele>1466.174</ele>
        <time>2021-02-27T09:56:39Z</time>
      </trkpt>
      <trkpt lat="42.98155" lon="0.54082">
        <ele>1466.177</ele>
        <time>2021-02-27T09:56:41Z</time>
      </trkpt>
      <trkpt lat="42.98155" lon="0.54082">
        <ele>1466.189</ele>
        <time>2021-02-27T09:56:43Z</time>
      </trkpt>
      <trkpt lat="42.98155" lon="0.54082">
        <ele>1466.215</ele>
        <time>2021-02-27T09:56:45Z</time>
      </trkpt>
      <trkpt lat="42.98155" lon="0.54082">
        <ele>1466.222</ele>
        <time>2021-02-27T09:56:47Z</time>
      </trkpt>
      <trkpt lat="42.98155" lon="0.54083">
        <ele>1466.325</ele>
        <time>2021-02-27T09:56:49Z</time>
      </trkpt>
      <trkpt lat="42.98155" lon="0.54083">
        <ele>1466.322</ele>
        <time>2021-02-27T09:56:51Z</time>
      </trkpt>
      <trkpt lat="42.98155" lon="0.54083">
        <ele>1466.563</ele>
        <time>2021-02-27T09:56:53Z</time>
      </trkpt>
      <trkpt lat="42.98155" lon="0.54083">
        <ele>1466.533</ele>
        <time>2021-02-27T09:56:55Z</time>
      </trkpt>
      <trkpt lat="42.98155" lon="0.54083">
        <ele>1466.501</ele>
        <time>2021-02-27T09:56:57Z</time>
      </trkpt>
      <trkpt lat="42.98155" lon="0.54083">
        <ele>1466.479</ele>
        <time>2021-02-27T09:56:59Z</time>
      </trkpt>
      <trkpt lat="42.98155" lon="0.54083">
        <ele>1466.451</ele>
        <time>2021-02-27T09:57:01Z</time>
      </trkpt>
      <trkpt lat="42.98155" lon="0.54083">
        <ele>1466.441</ele>
        <time>2021-02-27T09:57:03Z</time>
      </trkpt>
      <trkpt lat="42.98155" lon="0.54083">
        <ele>1466.436</ele>
        <time>2021-02-27T09:57:05Z</time>
      </trkpt>
      <trkpt lat="42.98155" lon="0.54083">
        <ele>1466.427</ele>
        <time>2021-02-27T09:57:07Z</time>
      </trkpt>
      <trkpt lat="42.98155" lon="0.54083">
        <ele>1466.413</ele>
        <time>2021-02-27T09:57:09Z</time>
      </trkpt>
      <trkpt lat="42.98155" lon="0.54083">
        <ele>1466.416</ele>
        <time>2021-02-27T09:57:11Z</time>
      </trkpt>
      <trkpt lat="42.98155" lon="0.54083">
        <ele>1466.408</ele>
        <time>2021-02-27T09:57:13Z</time>
      </trkpt>
      <trkpt lat="42.98155" lon="0.54083">
        <ele>1466.402</ele>
        <time>2021-02-27T09:57:15Z</time>
      </trkpt>
      <trkpt lat="42.98155" lon="0.54083">
        <ele>1466.405</ele>
        <time>2021-02-27T09:57:17Z</time>
      </trkpt>
      <trkpt lat="42.98155" lon="0.54083">
        <ele>1466.408</ele>
        <time>2021-02-27T09:57:19Z</time>
      </trkpt>
      <trkpt lat="42.98155" lon="0.54083">
        <ele>1466.403</ele>
        <time>2021-02-27T09:57:21Z</time>
      </trkpt>
      <trkpt lat="42.98155" lon="0.54083">
        <ele>1466.397</ele>
        <time>2021-02-27T09:57:23Z</time>
      </trkpt>
      <trkpt lat="42.98155" lon="0.54083">
        <ele>1466.369</ele>
        <time>2021-02-27T09:57:25Z</time>
      </trkpt>
      <trkpt lat="42.98155" lon="0.54083">
        <ele>1466.353</ele>
        <time>2021-02-27T09:57:27Z</time>
      </trkpt>
      <trkpt lat="42.98155" lon="0.54083">
        <ele>1466.354</ele>
        <time>2021-02-27T09:57:29Z</time>
      </trkpt>
      <trkpt lat="42.98155" lon="0.54083">
        <ele>1465.863</ele>
        <time>2021-02-27T09:57:31Z</time>
      </trkpt>
      <trkpt lat="42.98154" lon="0.54083">
        <ele>1465.865</ele>
        <time>2021-02-27T09:57:33Z</time>
      </trkpt>
      <trkpt lat="42.98155" lon="0.54083">
        <ele>1465.45</ele>
        <time>2021-02-27T09:57:35Z</time>
      </trkpt>
      <trkpt lat="42.98155" lon="0.54083">
        <ele>1465.446</ele>
        <time>2021-02-27T09:57:37Z</time>
      </trkpt>
      <trkpt lat="42.98155" lon="0.54083">
        <ele>1465.435</ele>
        <time>2021-02-27T09:57:39Z</time>
      </trkpt>
      <trkpt lat="42.98155" lon="0.54083">
        <ele>1465.402</ele>
        <time>2021-02-27T09:57:41Z</time>
      </trkpt>
      <trkpt lat="42.98155" lon="0.54083">
        <ele>1465.368</ele>
        <time>2021-02-27T09:57:43Z</time>
      </trkpt>
      <trkpt lat="42.98155" lon="0.54083">
        <ele>1465.358</ele>
        <time>2021-02-27T09:57:45Z</time>
      </trkpt>
      <trkpt lat="42.98155" lon="0.54083">
        <ele>1465.377</ele>
        <time>2021-02-27T09:57:47Z</time>
      </trkpt>
      <trkpt lat="42.98155" lon="0.54083">
        <ele>1465.389</ele>
        <time>2021-02-27T09:57:49Z</time>
      </trkpt>
      <trkpt lat="42.98155" lon="0.54083">
        <ele>1465.369</ele>
        <time>2021-02-27T09:57:51Z</time>
      </trkpt>
      <trkpt lat="42.98155" lon="0.54083">
        <ele>1465.355</ele>
        <time>2021-02-27T09:57:53Z</time>
      </trkpt>
      <trkpt lat="42.98155" lon="0.54083">
        <ele>1465.344</ele>
        <time>2021-02-27T09:57:55Z</time>
      </trkpt>
      <trkpt lat="42.98155" lon="0.54083">
        <ele>1465.344</ele>
        <time>2021-02-27T09:57:57Z</time>
      </trkpt>
      <trkpt lat="42.98155" lon="0.54083">
        <ele>1465.347</ele>
        <time>2021-02-27T09:57:59Z</time>
      </trkpt>
      <trkpt lat="42.98155" lon="0.54083">
        <ele>1465.336</ele>
        <time>2021-02-27T09:58:01Z</time>
      </trkpt>
      <trkpt lat="42.98155" lon="0.54083">
        <ele>1465.327</ele>
        <time>2021-02-27T09:58:03Z</time>
      </trkpt>
      <trkpt lat="42.98155" lon="0.54083">
        <ele>1465.323</ele>
        <time>2021-02-27T09:58:05Z</time>
      </trkpt>
      <trkpt lat="42.98155" lon="0.54083">
        <ele>1465.305</ele>
        <time>2021-02-27T09:58:07Z</time>
      </trkpt>
      <trkpt lat="42.98155" lon="0.54083">
        <ele>1465.307</ele>
        <time>2021-02-27T09:58:09Z</time>
      </trkpt>
      <trkpt lat="42.98155" lon="0.54083">
        <ele>1464.941</ele>
        <time>2021-02-27T09:58:11Z</time>
      </trkpt>
      <trkpt lat="42.98155" lon="0.54083">
        <ele>1464.909</ele>
        <time>2021-02-27T09:58:13Z</time>
      </trkpt>
      <trkpt lat="42.98155" lon="0.54083">
        <ele>1464.913</ele>
        <time>2021-02-27T09:58:15Z</time>
      </trkpt>
      <trkpt lat="42.98155" lon="0.54083">
        <ele>1464.92</ele>
        <time>2021-02-27T09:58:17Z</time>
      </trkpt>
      <trkpt lat="42.98155" lon="0.54083">
        <ele>1464.911</ele>
        <time>2021-02-27T09:58:19Z</time>
      </trkpt>
      <trkpt lat="42.98155" lon="0.54083">
        <ele>1464.647</ele>
        <time>2021-02-27T09:58:21Z</time>
      </trkpt>
      <trkpt lat="42.98155" lon="0.54083">
        <ele>1464.642</ele>
        <time>2021-02-27T09:58:23Z</time>
      </trkpt>
      <trkpt lat="42.98155" lon="0.54083">
        <ele>1464.645</ele>
        <time>2021-02-27T09:58:25Z</time>
      </trkpt>
      <trkpt lat="42.98155" lon="0.54083">
        <ele>1464.681</ele>
        <time>2021-02-27T09:58:27Z</time>
      </trkpt>
      <trkpt lat="42.98155" lon="0.54083">
        <ele>1464.71</ele>
        <time>2021-02-27T09:58:29Z</time>
      </trkpt>
      <trkpt lat="42.98155" lon="0.54083">
        <ele>1464.72</ele>
        <time>2021-02-27T09:58:31Z</time>
      </trkpt>
      <trkpt lat="42.98155" lon="0.54084">
        <ele>1464.711</ele>
        <time>2021-02-27T09:58:33Z</time>
      </trkpt>
      <trkpt lat="42.98155" lon="0.54084">
        <ele>1464.721</ele>
        <time>2021-02-27T09:58:35Z</time>
      </trkpt>
      <trkpt lat="42.98155" lon="0.54084">
        <ele>1464.734</ele>
        <time>2021-02-27T09:58:37Z</time>
      </trkpt>
      <trkpt lat="42.98155" lon="0.54084">
        <ele>1464.734</ele>
        <time>2021-02-27T09:58:39Z</time>
      </trkpt>
      <trkpt lat="42.98155" lon="0.54084">
        <ele>1464.721</ele>
        <time>2021-02-27T09:58:41Z</time>
      </trkpt>
      <trkpt lat="42.98155" lon="0.54084">
        <ele>1464.721</ele>
        <time>2021-02-27T09:58:43Z</time>
      </trkpt>
      <trkpt lat="42.98155" lon="0.54084">
        <ele>1464.743</ele>
        <time>2021-02-27T09:58:45Z</time>
      </trkpt>
      <trkpt lat="42.98155" lon="0.54084">
        <ele>1464.736</ele>
        <time>2021-02-27T09:58:47Z</time>
      </trkpt>
      <trkpt lat="42.98155" lon="0.54084">
        <ele>1464.705</ele>
        <time>2021-02-27T09:58:49Z</time>
      </trkpt>
      <trkpt lat="42.98155" lon="0.54084">
        <ele>1464.651</ele>
        <time>2021-02-27T09:58:51Z</time>
      </trkpt>
      <trkpt lat="42.98155" lon="0.54084">
        <ele>1464.584</ele>
        <time>2021-02-27T09:58:53Z</time>
      </trkpt>
      <trkpt lat="42.98155" lon="0.54084">
        <ele>1464.534</ele>
        <time>2021-02-27T09:58:55Z</time>
      </trkpt>
      <trkpt lat="42.98155" lon="0.54084">
        <ele>1464.532</ele>
        <time>2021-02-27T09:58:57Z</time>
      </trkpt>
      <trkpt lat="42.98155" lon="0.54084">
        <ele>1464.544</ele>
        <time>2021-02-27T09:58:59Z</time>
      </trkpt>
      <trkpt lat="42.98155" lon="0.54084">
        <ele>1464.546</ele>
        <time>2021-02-27T09:59:01Z</time>
      </trkpt>
      <trkpt lat="42.98155" lon="0.54084">
        <ele>1464.523</ele>
        <time>2021-02-27T09:59:03Z</time>
      </trkpt>
      <trkpt lat="42.98155" lon="0.54084">
        <ele>1464.494</ele>
        <time>2021-02-27T09:59:05Z</time>
      </trkpt>
      <trkpt lat="42.98155" lon="0.54084">
        <ele>1464.46</ele>
        <time>2021-02-27T09:59:07Z</time>
      </trkpt>
      <trkpt lat="42.98155" lon="0.54084">
        <ele>1464.434</ele>
        <time>2021-02-27T09:59:09Z</time>
      </trkpt>
      <trkpt lat="42.98155" lon="0.54084">
        <ele>1464.401</ele>
        <time>2021-02-27T09:59:11Z</time>
      </trkpt>
      <trkpt lat="42.98155" lon="0.54084">
        <ele>1464.239</ele>
        <time>2021-02-27T09:59:13Z</time>
      </trkpt>
      <trkpt lat="42.98155" lon="0.54084">
        <ele>1464.002</ele>
        <time>2021-02-27T09:59:15Z</time>
      </trkpt>
      <trkpt lat="42.98155" lon="0.54084">
        <ele>1463.986</ele>
        <time>2021-02-27T09:59:17Z</time>
      </trkpt>
      <trkpt lat="42.98155" lon="0.54084">
        <ele>1463.97</ele>
        <time>2021-02-27T09:59:19Z</time>
      </trkpt>
      <trkpt lat="42.98155" lon="0.54084">
        <ele>1463.961</ele>
        <time>2021-02-27T09:59:21Z</time>
      </trkpt>
      <trkpt lat="42.98155" lon="0.54084">
        <ele>1463.946</ele>
        <time>2021-02-27T09:59:23Z</time>
      </trkpt>
      <trkpt lat="42.98155" lon="0.54084">
        <ele>1463.933</ele>
        <time>2021-02-27T09:59:25Z</time>
      </trkpt>
      <trkpt lat="42.98155" lon="0.54084">
        <ele>1463.931</ele>
        <time>2021-02-27T09:59:27Z</time>
      </trkpt>
      <trkpt lat="42.98155" lon="0.54084">
        <ele>1463.93</ele>
        <time>2021-02-27T09:59:29Z</time>
      </trkpt>
      <trkpt lat="42.98155" lon="0.54084">
        <ele>1463.932</ele>
        <time>2021-02-27T09:59:31Z</time>
      </trkpt>
      <trkpt lat="42.98155" lon="0.54084">
        <ele>1463.92</ele>
        <time>2021-02-27T09:59:33Z</time>
      </trkpt>
      <trkpt lat="42.98155" lon="0.54084">
        <ele>1463.923</ele>
        <time>2021-02-27T09:59:35Z</time>
      </trkpt>
      <trkpt lat="42.98155" lon="0.54084">
        <ele>1463.916</ele>
        <time>2021-02-27T09:59:37Z</time>
      </trkpt>
      <trkpt lat="42.98155" lon="0.54084">
        <ele>1463.916</ele>
        <time>2021-02-27T09:59:39Z</time>
      </trkpt>
      <trkpt lat="42.98155" lon="0.54084">
        <ele>1463.912</ele>
        <time>2021-02-27T09:59:41Z</time>
      </trkpt>
      <trkpt lat="42.98155" lon="0.54084">
        <ele>1463.9</ele>
        <time>2021-02-27T09:59:43Z</time>
      </trkpt>
      <trkpt lat="42.98155" lon="0.54084">
        <ele>1463.887</ele>
        <time>2021-02-27T09:59:45Z</time>
      </trkpt>
      <trkpt lat="42.98155" lon="0.54084">
        <ele>1463.894</ele>
        <time>2021-02-27T09:59:47Z</time>
      </trkpt>
      <trkpt lat="42.98155" lon="0.54084">
        <ele>1463.897</ele>
        <time>2021-02-27T09:59:49Z</time>
      </trkpt>
      <trkpt lat="42.98155" lon="0.54084">
        <ele>1463.892</ele>
        <time>2021-02-27T09:59:51Z</time>
      </trkpt>
      <trkpt lat="42.98155" lon="0.54084">
        <ele>1463.888</ele>
        <time>2021-02-27T09:59:53Z</time>
      </trkpt>
      <trkpt lat="42.98155" lon="0.54084">
        <ele>1463.892</ele>
        <time>2021-02-27T09:59:55Z</time>
      </trkpt>
      <trkpt lat="42.98155" lon="0.54084">
        <ele>1463.887</ele>
        <time>2021-02-27T09:59:57Z</time>
      </trkpt>
      <trkpt lat="42.98155" lon="0.54084">
        <ele>1463.88</ele>
        <time>2021-02-27T09:59:59Z</time>
      </trkpt>
      <trkpt lat="42.98155" lon="0.54084">
        <ele>1463.867</ele>
        <time>2021-02-27T10:00:01Z</time>
      </trkpt>
      <trkpt lat="42.98155" lon="0.54084">
        <ele>1463.856</ele>
        <time>2021-02-27T10:00:03Z</time>
      </trkpt>
      <trkpt lat="42.98155" lon="0.54084">
        <ele>1463.847</ele>
        <time>2021-02-27T10:00:05Z</time>
      </trkpt>
      <trkpt lat="42.98155" lon="0.54083">
        <ele>1463.626</ele>
        <time>2021-02-27T10:00:07Z</time>
      </trkpt>
      <trkpt lat="42.98155" lon="0.54081">
        <ele>1463.149</ele>
        <time>2021-02-27T10:00:09Z</time>
      </trkpt>
      <trkpt lat="42.98154" lon="0.54081">
        <ele>1464.147</ele>
        <time>2021-02-27T10:00:11Z</time>
      </trkpt>
      <trkpt lat="42.98154" lon="0.54081">
        <ele>1464.199</ele>
        <time>2021-02-27T10:00:13Z</time>
      </trkpt>
      <trkpt lat="42.98154" lon="0.54081">
        <ele>1464.448</ele>
        <time>2021-02-27T10:00:15Z</time>
      </trkpt>
      <trkpt lat="42.98153" lon="0.5408">
        <ele>1464.399</ele>
        <time>2021-02-27T10:00:17Z</time>
      </trkpt>
      <trkpt lat="42.98152" lon="0.5408">
        <ele>1464.666</ele>
        <time>2021-02-27T10:00:19Z</time>
      </trkpt>
      <trkpt lat="42.98152" lon="0.54081">
        <ele>1464.747</ele>
        <time>2021-02-27T10:00:21Z</time>
      </trkpt>
      <trkpt lat="42.98152" lon="0.5408">
        <ele>1464.621</ele>
        <time>2021-02-27T10:00:23Z</time>
      </trkpt>
      <trkpt lat="42.98151" lon="0.5408">
        <ele>1464.639</ele>
        <time>2021-02-27T10:00:25Z</time>
      </trkpt>
      <trkpt lat="42.98151" lon="0.5408">
        <ele>1464.646</ele>
        <time>2021-02-27T10:00:27Z</time>
      </trkpt>
      <trkpt lat="42.98151" lon="0.5408">
        <ele>1464.245</ele>
        <time>2021-02-27T10:00:29Z</time>
      </trkpt>
      <trkpt lat="42.98151" lon="0.5408">
        <ele>1464.266</ele>
        <time>2021-02-27T10:00:31Z</time>
      </trkpt>
      <trkpt lat="42.98152" lon="0.5408">
        <ele>1464.26</ele>
        <time>2021-02-27T10:00:33Z</time>
      </trkpt>
      <trkpt lat="42.98152" lon="0.5408">
        <ele>1464.055</ele>
        <time>2021-02-27T10:00:35Z</time>
      </trkpt>
      <trkpt lat="42.98152" lon="0.54081">
        <ele>1464.553</ele>
        <time>2021-02-27T10:00:37Z</time>
      </trkpt>
      <trkpt lat="42.98152" lon="0.54081">
        <ele>1464.591</ele>
        <time>2021-02-27T10:00:39Z</time>
      </trkpt>
      <trkpt lat="42.98152" lon="0.54081">
        <ele>1464.614</ele>
        <time>2021-02-27T10:00:41Z</time>
      </trkpt>
      <trkpt lat="42.98152" lon="0.54082">
        <ele>1464.995</ele>
        <time>2021-02-27T10:00:43Z</time>
      </trkpt>
      <trkpt lat="42.98152" lon="0.54082">
        <ele>1465.054</ele>
        <time>2021-02-27T10:00:45Z</time>
      </trkpt>
      <trkpt lat="42.98152" lon="0.54082">
        <ele>1465.057</ele>
        <time>2021-02-27T10:00:47Z</time>
      </trkpt>
      <trkpt lat="42.98152" lon="0.54082">
        <ele>1465.048</ele>
        <time>2021-02-27T10:00:49Z</time>
      </trkpt>
      <trkpt lat="42.98152" lon="0.54082">
        <ele>1465.059</ele>
        <time>2021-02-27T10:00:51Z</time>
      </trkpt>
      <trkpt lat="42.98152" lon="0.54082">
        <ele>1465.066</ele>
        <time>2021-02-27T10:00:53Z</time>
      </trkpt>
      <trkpt lat="42.98152" lon="0.54082">
        <ele>1465.069</ele>
        <time>2021-02-27T10:00:55Z</time>
      </trkpt>
      <trkpt lat="42.98152" lon="0.54082">
        <ele>1465.065</ele>
        <time>2021-02-27T10:00:57Z</time>
      </trkpt>
      <trkpt lat="42.98152" lon="0.54082">
        <ele>1465.066</ele>
        <time>2021-02-27T10:00:59Z</time>
      </trkpt>
      <trkpt lat="42.98152" lon="0.54082">
        <ele>1465.068</ele>
        <time>2021-02-27T10:01:01Z</time>
      </trkpt>
      <trkpt lat="42.98152" lon="0.54082">
        <ele>1465.062</ele>
        <time>2021-02-27T10:01:03Z</time>
      </trkpt>
      <trkpt lat="42.98152" lon="0.54082">
        <ele>1465.056</ele>
        <time>2021-02-27T10:01:05Z</time>
      </trkpt>
      <trkpt lat="42.98152" lon="0.54082">
        <ele>1465.056</ele>
        <time>2021-02-27T10:01:07Z</time>
      </trkpt>
      <trkpt lat="42.98152" lon="0.54082">
        <ele>1465.072</ele>
        <time>2021-02-27T10:01:09Z</time>
      </trkpt>
      <trkpt lat="42.98152" lon="0.54082">
        <ele>1465.078</ele>
        <time>2021-02-27T10:01:11Z</time>
      </trkpt>
      <trkpt lat="42.98152" lon="0.54082">
        <ele>1465.074</ele>
        <time>2021-02-27T10:01:13Z</time>
      </trkpt>
      <trkpt lat="42.98152" lon="0.54082">
        <ele>1464.75</ele>
        <time>2021-02-27T10:01:15Z</time>
      </trkpt>
      <trkpt lat="42.98152" lon="0.54083">
        <ele>1465.142</ele>
        <time>2021-02-27T10:01:17Z</time>
      </trkpt>
      <trkpt lat="42.98152" lon="0.54083">
        <ele>1465.162</ele>
        <time>2021-02-27T10:01:19Z</time>
      </trkpt>
      <trkpt lat="42.98152" lon="0.54083">
        <ele>1465.179</ele>
        <time>2021-02-27T10:01:21Z</time>
      </trkpt>
      <trkpt lat="42.98152" lon="0.54083">
        <ele>1465.188</ele>
        <time>2021-02-27T10:01:23Z</time>
      </trkpt>
      <trkpt lat="42.98152" lon="0.54083">
        <ele>1465.221</ele>
        <time>2021-02-27T10:01:25Z</time>
      </trkpt>
      <trkpt lat="42.98152" lon="0.54083">
        <ele>1465.237</ele>
        <time>2021-02-27T10:01:27Z</time>
      </trkpt>
      <trkpt lat="42.98152" lon="0.54083">
        <ele>1465.241</ele>
        <time>2021-02-27T10:01:29Z</time>
      </trkpt>
      <trkpt lat="42.98152" lon="0.54083">
        <ele>1465.252</ele>
        <time>2021-02-27T10:01:31Z</time>
      </trkpt>
      <trkpt lat="42.98152" lon="0.54083">
        <ele>1465.259</ele>
        <time>2021-02-27T10:01:33Z</time>
      </trkpt>
      <trkpt lat="42.98152" lon="0.54083">
        <ele>1465.261</ele>
        <time>2021-02-27T10:01:35Z</time>
      </trkpt>
      <trkpt lat="42.98152" lon="0.54083">
        <ele>1465.26</ele>
        <time>2021-02-27T10:01:37Z</time>
      </trkpt>
      <trkpt lat="42.98152" lon="0.54083">
        <ele>1465.263</ele>
        <time>2021-02-27T10:01:39Z</time>
      </trkpt>
      <trkpt lat="42.98152" lon="0.54083">
        <ele>1465.267</ele>
        <time>2021-02-27T10:01:41Z</time>
      </trkpt>
      <trkpt lat="42.98152" lon="0.54083">
        <ele>1465.272</ele>
        <time>2021-02-27T10:01:43Z</time>
      </trkpt>
      <trkpt lat="42.98152" lon="0.54083">
        <ele>1465.27</ele>
        <time>2021-02-27T10:01:45Z</time>
      </trkpt>
      <trkpt lat="42.98152" lon="0.54083">
        <ele>1465.281</ele>
        <time>2021-02-27T10:01:47Z</time>
      </trkpt>
      <trkpt lat="42.98152" lon="0.54083">
        <ele>1465.278</ele>
        <time>2021-02-27T10:01:49Z</time>
      </trkpt>
      <trkpt lat="42.98152" lon="0.54083">
        <ele>1465.279</ele>
        <time>2021-02-27T10:01:51Z</time>
      </trkpt>
      <trkpt lat="42.98152" lon="0.54083">
        <ele>1465.276</ele>
        <time>2021-02-27T10:01:53Z</time>
      </trkpt>
      <trkpt lat="42.98152" lon="0.54083">
        <ele>1465.281</ele>
        <time>2021-02-27T10:01:55Z</time>
      </trkpt>
      <trkpt lat="42.98152" lon="0.54083">
        <ele>1465.289</ele>
        <time>2021-02-27T10:01:57Z</time>
      </trkpt>
      <trkpt lat="42.98152" lon="0.54083">
        <ele>1465.301</ele>
        <time>2021-02-27T10:01:59Z</time>
      </trkpt>
      <trkpt lat="42.98152" lon="0.54083">
        <ele>1465.311</ele>
        <time>2021-02-27T10:02:01Z</time>
      </trkpt>
      <trkpt lat="42.98152" lon="0.54083">
        <ele>1465.325</ele>
        <time>2021-02-27T10:02:03Z</time>
      </trkpt>
      <trkpt lat="42.98152" lon="0.54083">
        <ele>1465.333</ele>
        <time>2021-02-27T10:02:05Z</time>
      </trkpt>
      <trkpt lat="42.98152" lon="0.54083">
        <ele>1465.337</ele>
        <time>2021-02-27T10:02:07Z</time>
      </trkpt>
      <trkpt lat="42.98152" lon="0.54083">
        <ele>1465.351</ele>
        <time>2021-02-27T10:02:09Z</time>
      </trkpt>
      <trkpt lat="42.98152" lon="0.54083">
        <ele>1465.352</ele>
        <time>2021-02-27T10:02:11Z</time>
      </trkpt>
      <trkpt lat="42.98152" lon="0.54083">
        <ele>1465.353</ele>
        <time>2021-02-27T10:02:13Z</time>
      </trkpt>
      <trkpt lat="42.98152" lon="0.54083">
        <ele>1465.356</ele>
        <time>2021-02-27T10:02:15Z</time>
      </trkpt>
      <trkpt lat="42.98152" lon="0.54083">
        <ele>1465.359</ele>
        <time>2021-02-27T10:02:17Z</time>
      </trkpt>
      <trkpt lat="42.98152" lon="0.54083">
        <ele>1465.367</ele>
        <time>2021-02-27T10:02:19Z</time>
      </trkpt>
      <trkpt lat="42.98152" lon="0.54083">
        <ele>1465.346</ele>
        <time>2021-02-27T10:02:21Z</time>
      </trkpt>
      <trkpt lat="42.98152" lon="0.54083">
        <ele>1465.343</ele>
        <time>2021-02-27T10:02:23Z</time>
      </trkpt>
      <trkpt lat="42.98152" lon="0.54083">
        <ele>1465.342</ele>
        <time>2021-02-27T10:02:25Z</time>
      </trkpt>
      <trkpt lat="42.98152" lon="0.54083">
        <ele>1465.349</ele>
        <time>2021-02-27T10:02:27Z</time>
      </trkpt>
      <trkpt lat="42.98152" lon="0.54083">
        <ele>1465.351</ele>
        <time>2021-02-27T10:02:29Z</time>
      </trkpt>
      <trkpt lat="42.98152" lon="0.54083">
        <ele>1465.353</ele>
        <time>2021-02-27T10:02:31Z</time>
      </trkpt>
      <trkpt lat="42.98152" lon="0.54083">
        <ele>1465.359</ele>
        <time>2021-02-27T10:02:33Z</time>
      </trkpt>
      <trkpt lat="42.98152" lon="0.54083">
        <ele>1465.366</ele>
        <time>2021-02-27T10:02:35Z</time>
      </trkpt>
      <trkpt lat="42.98152" lon="0.54083">
        <ele>1465.371</ele>
        <time>2021-02-27T10:02:37Z</time>
      </trkpt>
      <trkpt lat="42.98152" lon="0.54083">
        <ele>1465.376</ele>
        <time>2021-02-27T10:02:39Z</time>
      </trkpt>
      <trkpt lat="42.98152" lon="0.54083">
        <ele>1465.377</ele>
        <time>2021-02-27T10:02:41Z</time>
      </trkpt>
      <trkpt lat="42.98152" lon="0.54083">
        <ele>1465.376</ele>
        <time>2021-02-27T10:02:43Z</time>
      </trkpt>
      <trkpt lat="42.98152" lon="0.54083">
        <ele>1465.378</ele>
        <time>2021-02-27T10:02:45Z</time>
      </trkpt>
      <trkpt lat="42.98152" lon="0.54083">
        <ele>1465.379</ele>
        <time>2021-02-27T10:02:47Z</time>
      </trkpt>
      <trkpt lat="42.98152" lon="0.54083">
        <ele>1465.381</ele>
        <time>2021-02-27T10:02:49Z</time>
      </trkpt>
      <trkpt lat="42.98152" lon="0.54083">
        <ele>1465.381</ele>
        <time>2021-02-27T10:02:51Z</time>
      </trkpt>
      <trkpt lat="42.98152" lon="0.54083">
        <ele>1465.378</ele>
        <time>2021-02-27T10:02:53Z</time>
      </trkpt>
      <trkpt lat="42.98152" lon="0.54083">
        <ele>1465.376</ele>
        <time>2021-02-27T10:02:55Z</time>
      </trkpt>
      <trkpt lat="42.98152" lon="0.54083">
        <ele>1465.375</ele>
        <time>2021-02-27T10:02:57Z</time>
      </trkpt>
      <trkpt lat="42.98152" lon="0.54083">
        <ele>1465.377</ele>
        <time>2021-02-27T10:02:59Z</time>
      </trkpt>
      <trkpt lat="42.98152" lon="0.54083">
        <ele>1465.378</ele>
        <time>2021-02-27T10:03:01Z</time>
      </trkpt>
      <trkpt lat="42.98152" lon="0.54083">
        <ele>1465.376</ele>
        <time>2021-02-27T10:03:03Z</time>
      </trkpt>
      <trkpt lat="42.98152" lon="0.54083">
        <ele>1465.379</ele>
        <time>2021-02-27T10:03:05Z</time>
      </trkpt>
      <trkpt lat="42.98152" lon="0.54083">
        <ele>1465.376</ele>
        <time>2021-02-27T10:03:07Z</time>
      </trkpt>
      <trkpt lat="42.98152" lon="0.54083">
        <ele>1465.377</ele>
        <time>2021-02-27T10:03:09Z</time>
      </trkpt>
      <trkpt lat="42.98152" lon="0.54083">
        <ele>1465.386</ele>
        <time>2021-02-27T10:03:11Z</time>
      </trkpt>
      <trkpt lat="42.98152" lon="0.54083">
        <ele>1465.389</ele>
        <time>2021-02-27T10:03:13Z</time>
      </trkpt>
      <trkpt lat="42.98152" lon="0.54083">
        <ele>1465.397</ele>
        <time>2021-02-27T10:03:15Z</time>
      </trkpt>
      <trkpt lat="42.98152" lon="0.54083">
        <ele>1465.402</ele>
        <time>2021-02-27T10:03:17Z</time>
      </trkpt>
      <trkpt lat="42.98152" lon="0.54083">
        <ele>1465.401</ele>
        <time>2021-02-27T10:03:19Z</time>
      </trkpt>
      <trkpt lat="42.98152" lon="0.54083">
        <ele>1465.395</ele>
        <time>2021-02-27T10:03:21Z</time>
      </trkpt>
      <trkpt lat="42.98152" lon="0.54083">
        <ele>1465.397</ele>
        <time>2021-02-27T10:03:23Z</time>
      </trkpt>
      <trkpt lat="42.98152" lon="0.54083">
        <ele>1465.405</ele>
        <time>2021-02-27T10:03:25Z</time>
      </trkpt>
      <trkpt lat="42.98152" lon="0.54083">
        <ele>1465.405</ele>
        <time>2021-02-27T10:03:27Z</time>
      </trkpt>
      <trkpt lat="42.98152" lon="0.54083">
        <ele>1465.403</ele>
        <time>2021-02-27T10:03:29Z</time>
      </trkpt>
      <trkpt lat="42.98152" lon="0.54083">
        <ele>1465.408</ele>
        <time>2021-02-27T10:03:31Z</time>
      </trkpt>
      <trkpt lat="42.98152" lon="0.54083">
        <ele>1465.409</ele>
        <time>2021-02-27T10:03:33Z</time>
      </trkpt>
      <trkpt lat="42.98152" lon="0.54083">
        <ele>1465.408</ele>
        <time>2021-02-27T10:03:35Z</time>
      </trkpt>
      <trkpt lat="42.98152" lon="0.54083">
        <ele>1465.406</ele>
        <time>2021-02-27T10:03:37Z</time>
      </trkpt>
      <trkpt lat="42.98152" lon="0.54083">
        <ele>1465.405</ele>
        <time>2021-02-27T10:03:39Z</time>
      </trkpt>
      <trkpt lat="42.98152" lon="0.54083">
        <ele>1465.402</ele>
        <time>2021-02-27T10:03:41Z</time>
      </trkpt>
      <trkpt lat="42.98152" lon="0.54083">
        <ele>1465.413</ele>
        <time>2021-02-27T10:03:43Z</time>
      </trkpt>
      <trkpt lat="42.98152" lon="0.54083">
        <ele>1465.417</ele>
        <time>2021-02-27T10:03:45Z</time>
      </trkpt>
      <trkpt lat="42.98152" lon="0.54083">
        <ele>1465.416</ele>
        <time>2021-02-27T10:03:47Z</time>
      </trkpt>
      <trkpt lat="42.98152" lon="0.54083">
        <ele>1465.415</ele>
        <time>2021-02-27T10:03:49Z</time>
      </trkpt>
      <trkpt lat="42.98152" lon="0.54083">
        <ele>1465.41</ele>
        <time>2021-02-27T10:03:51Z</time>
      </trkpt>
      <trkpt lat="42.98152" lon="0.54083">
        <ele>1465.424</ele>
        <time>2021-02-27T10:03:53Z</time>
      </trkpt>
      <trkpt lat="42.98152" lon="0.54083">
        <ele>1465.435</ele>
        <time>2021-02-27T10:03:55Z</time>
      </trkpt>
      <trkpt lat="42.98152" lon="0.54083">
        <ele>1465.441</ele>
        <time>2021-02-27T10:03:57Z</time>
      </trkpt>
      <trkpt lat="42.98152" lon="0.54083">
        <ele>1465.445</ele>
        <time>2021-02-27T10:03:59Z</time>
      </trkpt>
      <trkpt lat="42.98152" lon="0.54083">
        <ele>1465.468</ele>
        <time>2021-02-27T10:04:01Z</time>
      </trkpt>
      <trkpt lat="42.98152" lon="0.54083">
        <ele>1465.483</ele>
        <time>2021-02-27T10:04:03Z</time>
      </trkpt>
      <trkpt lat="42.98152" lon="0.54083">
        <ele>1465.494</ele>
        <time>2021-02-27T10:04:05Z</time>
      </trkpt>
      <trkpt lat="42.98152" lon="0.54083">
        <ele>1465.504</ele>
        <time>2021-02-27T10:04:07Z</time>
      </trkpt>
      <trkpt lat="42.98152" lon="0.54083">
        <ele>1465.509</ele>
        <time>2021-02-27T10:04:09Z</time>
      </trkpt>
      <trkpt lat="42.98152" lon="0.54083">
        <ele>1465.517</ele>
        <time>2021-02-27T10:04:11Z</time>
      </trkpt>
      <trkpt lat="42.98152" lon="0.54083">
        <ele>1465.977</ele>
        <time>2021-02-27T10:04:13Z</time>
      </trkpt>
      <trkpt lat="42.98152" lon="0.54083">
        <ele>1466.007</ele>
        <time>2021-02-27T10:04:15Z</time>
      </trkpt>
      <trkpt lat="42.98152" lon="0.54083">
        <ele>1465.999</ele>
        <time>2021-02-27T10:04:17Z</time>
      </trkpt>
      <trkpt lat="42.98152" lon="0.54083">
        <ele>1465.989</ele>
        <time>2021-02-27T10:04:19Z</time>
      </trkpt>
      <trkpt lat="42.98152" lon="0.54083">
        <ele>1465.99</ele>
        <time>2021-02-27T10:04:21Z</time>
      </trkpt>
      <trkpt lat="42.98152" lon="0.54083">
        <ele>1465.998</ele>
        <time>2021-02-27T10:04:23Z</time>
      </trkpt>
      <trkpt lat="42.98152" lon="0.54083">
        <ele>1466.022</ele>
        <time>2021-02-27T10:04:25Z</time>
      </trkpt>
      <trkpt lat="42.98152" lon="0.54083">
        <ele>1466.044</ele>
        <time>2021-02-27T10:04:27Z</time>
      </trkpt>
      <trkpt lat="42.98152" lon="0.54083">
        <ele>1466.053</ele>
        <time>2021-02-27T10:04:29Z</time>
      </trkpt>
      <trkpt lat="42.98152" lon="0.54083">
        <ele>1466.075</ele>
        <time>2021-02-27T10:04:31Z</time>
      </trkpt>
      <trkpt lat="42.98152" lon="0.54083">
        <ele>1466.101</ele>
        <time>2021-02-27T10:04:33Z</time>
      </trkpt>
      <trkpt lat="42.98152" lon="0.54083">
        <ele>1466.128</ele>
        <time>2021-02-27T10:04:35Z</time>
      </trkpt>
      <trkpt lat="42.98152" lon="0.54083">
        <ele>1466.157</ele>
        <time>2021-02-27T10:04:37Z</time>
      </trkpt>
      <trkpt lat="42.98152" lon="0.54083">
        <ele>1466.178</ele>
        <time>2021-02-27T10:04:39Z</time>
      </trkpt>
      <trkpt lat="42.98152" lon="0.54083">
        <ele>1466.183</ele>
        <time>2021-02-27T10:04:41Z</time>
      </trkpt>
      <trkpt lat="42.98152" lon="0.54083">
        <ele>1466.189</ele>
        <time>2021-02-27T10:04:43Z</time>
      </trkpt>
      <trkpt lat="42.98152" lon="0.54083">
        <ele>1466.484</ele>
        <time>2021-02-27T10:04:45Z</time>
      </trkpt>
      <trkpt lat="42.98152" lon="0.54084">
        <ele>1466.51</ele>
        <time>2021-02-27T10:04:47Z</time>
      </trkpt>
      <trkpt lat="42.98152" lon="0.54084">
        <ele>1466.517</ele>
        <time>2021-02-27T10:04:49Z</time>
      </trkpt>
      <trkpt lat="42.98152" lon="0.54084">
        <ele>1466.517</ele>
        <time>2021-02-27T10:04:51Z</time>
      </trkpt>
      <trkpt lat="42.98152" lon="0.54084">
        <ele>1466.537</ele>
        <time>2021-02-27T10:04:53Z</time>
      </trkpt>
      <trkpt lat="42.98152" lon="0.54084">
        <ele>1466.556</ele>
        <time>2021-02-27T10:04:55Z</time>
      </trkpt>
      <trkpt lat="42.98152" lon="0.54084">
        <ele>1466.574</ele>
        <time>2021-02-27T10:04:57Z</time>
      </trkpt>
      <trkpt lat="42.98152" lon="0.54084">
        <ele>1466.578</ele>
        <time>2021-02-27T10:04:59Z</time>
      </trkpt>
      <trkpt lat="42.98152" lon="0.54084">
        <ele>1466.579</ele>
        <time>2021-02-27T10:05:01Z</time>
      </trkpt>
      <trkpt lat="42.98152" lon="0.54084">
        <ele>1466.576</ele>
        <time>2021-02-27T10:05:03Z</time>
      </trkpt>
      <trkpt lat="42.98152" lon="0.54084">
        <ele>1466.577</ele>
        <time>2021-02-27T10:05:05Z</time>
      </trkpt>
      <trkpt lat="42.98152" lon="0.54084">
        <ele>1466.356</ele>
        <time>2021-02-27T10:05:07Z</time>
      </trkpt>
      <trkpt lat="42.98152" lon="0.54084">
        <ele>1466.358</ele>
        <time>2021-02-27T10:05:09Z</time>
      </trkpt>
      <trkpt lat="42.98152" lon="0.54084">
        <ele>1466.366</ele>
        <time>2021-02-27T10:05:11Z</time>
      </trkpt>
      <trkpt lat="42.98152" lon="0.54084">
        <ele>1466.376</ele>
        <time>2021-02-27T10:05:13Z</time>
      </trkpt>
      <trkpt lat="42.98152" lon="0.54084">
        <ele>1466.382</ele>
        <time>2021-02-27T10:05:15Z</time>
      </trkpt>
      <trkpt lat="42.98152" lon="0.54084">
        <ele>1466.385</ele>
        <time>2021-02-27T10:05:17Z</time>
      </trkpt>
      <trkpt lat="42.98152" lon="0.54084">
        <ele>1466.387</ele>
        <time>2021-02-27T10:05:19Z</time>
      </trkpt>
      <trkpt lat="42.98152" lon="0.54084">
        <ele>1466.151</ele>
        <time>2021-02-27T10:05:21Z</time>
      </trkpt>
      <trkpt lat="42.98152" lon="0.54085">
        <ele>1466.151</ele>
        <time>2021-02-27T10:05:23Z</time>
      </trkpt>
      <trkpt lat="42.98152" lon="0.54085">
        <ele>1466.157</ele>
        <time>2021-02-27T10:05:25Z</time>
      </trkpt>
      <trkpt lat="42.98152" lon="0.54085">
        <ele>1466.158</ele>
        <time>2021-02-27T10:05:27Z</time>
      </trkpt>
      <trkpt lat="42.98152" lon="0.54084">
        <ele>1466.008</ele>
        <time>2021-02-27T10:05:29Z</time>
      </trkpt>
      <trkpt lat="42.98152" lon="0.54084">
        <ele>1465.413</ele>
        <time>2021-02-27T10:05:31Z</time>
      </trkpt>
      <trkpt lat="42.98152" lon="0.54084">
        <ele>1465.425</ele>
        <time>2021-02-27T10:05:33Z</time>
      </trkpt>
      <trkpt lat="42.98151" lon="0.54084">
        <ele>1465.039</ele>
        <time>2021-02-27T10:05:35Z</time>
      </trkpt>
      <trkpt lat="42.9815" lon="0.54086">
        <ele>1464.181</ele>
        <time>2021-02-27T10:05:37Z</time>
      </trkpt>
      <trkpt lat="42.98149" lon="0.54088">
        <ele>1464.127</ele>
        <time>2021-02-27T10:05:39Z</time>
      </trkpt>
      <trkpt lat="42.98148" lon="0.54089">
        <ele>1463.76</ele>
        <time>2021-02-27T10:05:41Z</time>
      </trkpt>
      <trkpt lat="42.98146" lon="0.5409">
        <ele>1463.583</ele>
        <time>2021-02-27T10:05:43Z</time>
      </trkpt>
      <trkpt lat="42.98145" lon="0.54091">
        <ele>1463.478</ele>
        <time>2021-02-27T10:05:45Z</time>
      </trkpt>
      <trkpt lat="42.98144" lon="0.54092">
        <ele>1463.733</ele>
        <time>2021-02-27T10:05:47Z</time>
      </trkpt>
      <trkpt lat="42.98142" lon="0.54093">
        <ele>1463.912</ele>
        <time>2021-02-27T10:05:49Z</time>
      </trkpt>
      <trkpt lat="42.98142" lon="0.54094">
        <ele>1463.917</ele>
        <time>2021-02-27T10:05:51Z</time>
      </trkpt>
      <trkpt lat="42.9814" lon="0.54094">
        <ele>1464.063</ele>
        <time>2021-02-27T10:05:53Z</time>
      </trkpt>
      <trkpt lat="42.98139" lon="0.54094">
        <ele>1464.091</ele>
        <time>2021-02-27T10:05:55Z</time>
      </trkpt>
      <trkpt lat="42.98137" lon="0.54094">
        <ele>1463.352</ele>
        <time>2021-02-27T10:05:57Z</time>
      </trkpt>
      <trkpt lat="42.98134" lon="0.54093">
        <ele>1463.283</ele>
        <time>2021-02-27T10:05:59Z</time>
      </trkpt>
      <trkpt lat="42.98131" lon="0.54093">
        <ele>1463.293</ele>
        <time>2021-02-27T10:06:01Z</time>
      </trkpt>
      <trkpt lat="42.98131" lon="0.54092">
        <ele>1463.636</ele>
        <time>2021-02-27T10:06:03Z</time>
      </trkpt>
      <trkpt lat="42.98129" lon="0.54092">
        <ele>1463.755</ele>
        <time>2021-02-27T10:06:05Z</time>
      </trkpt>
      <trkpt lat="42.98129" lon="0.54094">
        <ele>1464.117</ele>
        <time>2021-02-27T10:06:07Z</time>
      </trkpt>
      <trkpt lat="42.98127" lon="0.54095">
        <ele>1465.781</ele>
        <time>2021-02-27T10:06:09Z</time>
      </trkpt>
      <trkpt lat="42.98126" lon="0.54095">
        <ele>1465.108</ele>
        <time>2021-02-27T10:06:11Z</time>
      </trkpt>
      <trkpt lat="42.98123" lon="0.54095">
        <ele>1465.657</ele>
        <time>2021-02-27T10:06:13Z</time>
      </trkpt>
      <trkpt lat="42.98122" lon="0.54096">
        <ele>1467.431</ele>
        <time>2021-02-27T10:06:15Z</time>
      </trkpt>
      <trkpt lat="42.9812" lon="0.54096">
        <ele>1467.386</ele>
        <time>2021-02-27T10:06:17Z</time>
      </trkpt>
      <trkpt lat="42.98119" lon="0.54097">
        <ele>1468.73</ele>
        <time>2021-02-27T10:06:19Z</time>
      </trkpt>
      <trkpt lat="42.98117" lon="0.54098">
        <ele>1470.279</ele>
        <time>2021-02-27T10:06:21Z</time>
      </trkpt>
      <trkpt lat="42.98115" lon="0.54099">
        <ele>1471.754</ele>
        <time>2021-02-27T10:06:23Z</time>
      </trkpt>
      <trkpt lat="42.98114" lon="0.541">
        <ele>1472.337</ele>
        <time>2021-02-27T10:06:25Z</time>
      </trkpt>
      <trkpt lat="42.98112" lon="0.54099">
        <ele>1470.207</ele>
        <time>2021-02-27T10:06:27Z</time>
      </trkpt>
      <trkpt lat="42.98111" lon="0.54099">
        <ele>1472.304</ele>
        <time>2021-02-27T10:06:29Z</time>
      </trkpt>
      <trkpt lat="42.9811" lon="0.54099">
        <ele>1473.158</ele>
        <time>2021-02-27T10:06:31Z</time>
      </trkpt>
      <trkpt lat="42.98109" lon="0.54099">
        <ele>1472.696</ele>
        <time>2021-02-27T10:06:33Z</time>
      </trkpt>
      <trkpt lat="42.98108" lon="0.54101">
        <ele>1471.825</ele>
        <time>2021-02-27T10:06:35Z</time>
      </trkpt>
      <trkpt lat="42.98106" lon="0.54102">
        <ele>1472.627</ele>
        <time>2021-02-27T10:06:37Z</time>
      </trkpt>
      <trkpt lat="42.98105" lon="0.54102">
        <ele>1473.537</ele>
        <time>2021-02-27T10:06:39Z</time>
      </trkpt>
      <trkpt lat="42.98103" lon="0.54104">
        <ele>1473.485</ele>
        <time>2021-02-27T10:06:41Z</time>
      </trkpt>
      <trkpt lat="42.98102" lon="0.54104">
        <ele>1472.278</ele>
        <time>2021-02-27T10:06:43Z</time>
      </trkpt>
      <trkpt lat="42.98101" lon="0.54106">
        <ele>1472.216</ele>
        <time>2021-02-27T10:06:45Z</time>
      </trkpt>
      <trkpt lat="42.981" lon="0.54107">
        <ele>1472.619</ele>
        <time>2021-02-27T10:06:47Z</time>
      </trkpt>
      <trkpt lat="42.98099" lon="0.54108">
        <ele>1473.467</ele>
        <time>2021-02-27T10:06:49Z</time>
      </trkpt>
      <trkpt lat="42.98098" lon="0.54108">
        <ele>1473.297</ele>
        <time>2021-02-27T10:06:51Z</time>
      </trkpt>
      <trkpt lat="42.98097" lon="0.54108">
        <ele>1475.747</ele>
        <time>2021-02-27T10:06:53Z</time>
      </trkpt>
      <trkpt lat="42.98095" lon="0.54108">
        <ele>1475.886</ele>
        <time>2021-02-27T10:06:55Z</time>
      </trkpt>
      <trkpt lat="42.98094" lon="0.54107">
        <ele>1477.066</ele>
        <time>2021-02-27T10:06:57Z</time>
      </trkpt>
      <trkpt lat="42.98093" lon="0.54107">
        <ele>1477.236</ele>
        <time>2021-02-27T10:06:59Z</time>
      </trkpt>
      <trkpt lat="42.98092" lon="0.54107">
        <ele>1478.077</ele>
        <time>2021-02-27T10:07:01Z</time>
      </trkpt>
      <trkpt lat="42.98091" lon="0.54107">
        <ele>1477.972</ele>
        <time>2021-02-27T10:07:03Z</time>
      </trkpt>
      <trkpt lat="42.98091" lon="0.54108">
        <ele>1477.416</ele>
        <time>2021-02-27T10:07:05Z</time>
      </trkpt>
      <trkpt lat="42.9809" lon="0.54108">
        <ele>1478.472</ele>
        <time>2021-02-27T10:07:07Z</time>
      </trkpt>
      <trkpt lat="42.98088" lon="0.54109">
        <ele>1478.705</ele>
        <time>2021-02-27T10:07:09Z</time>
      </trkpt>
      <trkpt lat="42.98088" lon="0.54109">
        <ele>1479.654</ele>
        <time>2021-02-27T10:07:11Z</time>
      </trkpt>
      <trkpt lat="42.98086" lon="0.54108">
        <ele>1480.369</ele>
        <time>2021-02-27T10:07:13Z</time>
      </trkpt>
      <trkpt lat="42.98085" lon="0.54108">
        <ele>1481.961</ele>
        <time>2021-02-27T10:07:15Z</time>
      </trkpt>
      <trkpt lat="42.98084" lon="0.54108">
        <ele>1482.264</ele>
        <time>2021-02-27T10:07:17Z</time>
      </trkpt>
      <trkpt lat="42.98082" lon="0.54108">
        <ele>1484.523</ele>
        <time>2021-02-27T10:07:19Z</time>
      </trkpt>
      <trkpt lat="42.9808" lon="0.54109">
        <ele>1484.025</ele>
        <time>2021-02-27T10:07:21Z</time>
      </trkpt>
      <trkpt lat="42.98079" lon="0.54109">
        <ele>1483.625</ele>
        <time>2021-02-27T10:07:23Z</time>
      </trkpt>
      <trkpt lat="42.98077" lon="0.54108">
        <ele>1482.408</ele>
        <time>2021-02-27T10:07:25Z</time>
      </trkpt>
      <trkpt lat="42.98076" lon="0.54107">
        <ele>1483.104</ele>
        <time>2021-02-27T10:07:27Z</time>
      </trkpt>
      <trkpt lat="42.98074" lon="0.54107">
        <ele>1484.815</ele>
        <time>2021-02-27T10:07:29Z</time>
      </trkpt>
      <trkpt lat="42.98073" lon="0.54106">
        <ele>1485.561</ele>
        <time>2021-02-27T10:07:31Z</time>
      </trkpt>
      <trkpt lat="42.98071" lon="0.54105">
        <ele>1484.859</ele>
        <time>2021-02-27T10:07:33Z</time>
      </trkpt>
      <trkpt lat="42.98069" lon="0.54105">
        <ele>1484.74</ele>
        <time>2021-02-27T10:07:35Z</time>
      </trkpt>
      <trkpt lat="42.98067" lon="0.54105">
        <ele>1484.899</ele>
        <time>2021-02-27T10:07:37Z</time>
      </trkpt>
      <trkpt lat="42.98065" lon="0.54105">
        <ele>1485.866</ele>
        <time>2021-02-27T10:07:39Z</time>
      </trkpt>
      <trkpt lat="42.98064" lon="0.54106">
        <ele>1487.569</ele>
        <time>2021-02-27T10:07:41Z</time>
      </trkpt>
      <trkpt lat="42.98063" lon="0.54105">
        <ele>1489.308</ele>
        <time>2021-02-27T10:07:43Z</time>
      </trkpt>
      <trkpt lat="42.98061" lon="0.54105">
        <ele>1489.486</ele>
        <time>2021-02-27T10:07:45Z</time>
      </trkpt>
      <trkpt lat="42.98059" lon="0.54105">
        <ele>1490.935</ele>
        <time>2021-02-27T10:07:47Z</time>
      </trkpt>
      <trkpt lat="42.98058" lon="0.54105">
        <ele>1492.007</ele>
        <time>2021-02-27T10:07:49Z</time>
      </trkpt>
      <trkpt lat="42.98057" lon="0.54105">
        <ele>1492.783</ele>
        <time>2021-02-27T10:07:51Z</time>
      </trkpt>
      <trkpt lat="42.98055" lon="0.54106">
        <ele>1493.931</ele>
        <time>2021-02-27T10:07:53Z</time>
      </trkpt>
      <trkpt lat="42.98053" lon="0.54106">
        <ele>1494.004</ele>
        <time>2021-02-27T10:07:55Z</time>
      </trkpt>
      <trkpt lat="42.98052" lon="0.54107">
        <ele>1495.045</ele>
        <time>2021-02-27T10:07:57Z</time>
      </trkpt>
      <trkpt lat="42.9805" lon="0.54107">
        <ele>1496.307</ele>
        <time>2021-02-27T10:07:59Z</time>
      </trkpt>
      <trkpt lat="42.98048" lon="0.54108">
        <ele>1497.769</ele>
        <time>2021-02-27T10:08:01Z</time>
      </trkpt>
      <trkpt lat="42.98046" lon="0.54109">
        <ele>1498.078</ele>
        <time>2021-02-27T10:08:03Z</time>
      </trkpt>
      <trkpt lat="42.98045" lon="0.5411">
        <ele>1498.462</ele>
        <time>2021-02-27T10:08:05Z</time>
      </trkpt>
      <trkpt lat="42.98043" lon="0.54112">
        <ele>1498.61</ele>
        <time>2021-02-27T10:08:07Z</time>
      </trkpt>
      <trkpt lat="42.98042" lon="0.54113">
        <ele>1499.214</ele>
        <time>2021-02-27T10:08:09Z</time>
      </trkpt>
      <trkpt lat="42.9804" lon="0.54114">
        <ele>1498.745</ele>
        <time>2021-02-27T10:08:11Z</time>
      </trkpt>
      <trkpt lat="42.98039" lon="0.54115">
        <ele>1497.95</ele>
        <time>2021-02-27T10:08:13Z</time>
      </trkpt>
      <trkpt lat="42.98038" lon="0.54117">
        <ele>1496.445</ele>
        <time>2021-02-27T10:08:15Z</time>
      </trkpt>
      <trkpt lat="42.98036" lon="0.54119">
        <ele>1495.134</ele>
        <time>2021-02-27T10:08:17Z</time>
      </trkpt>
      <trkpt lat="42.98035" lon="0.54122">
        <ele>1494.909</ele>
        <time>2021-02-27T10:08:19Z</time>
      </trkpt>
      <trkpt lat="42.98033" lon="0.54123">
        <ele>1492.938</ele>
        <time>2021-02-27T10:08:21Z</time>
      </trkpt>
      <trkpt lat="42.98032" lon="0.54125">
        <ele>1493.807</ele>
        <time>2021-02-27T10:08:23Z</time>
      </trkpt>
      <trkpt lat="42.9803" lon="0.54127">
        <ele>1493.959</ele>
        <time>2021-02-27T10:08:25Z</time>
      </trkpt>
      <trkpt lat="42.98029" lon="0.54128">
        <ele>1493.426</ele>
        <time>2021-02-27T10:08:27Z</time>
      </trkpt>
      <trkpt lat="42.98026" lon="0.54128">
        <ele>1493.663</ele>
        <time>2021-02-27T10:08:29Z</time>
      </trkpt>
      <trkpt lat="42.98024" lon="0.5413">
        <ele>1494.706</ele>
        <time>2021-02-27T10:08:31Z</time>
      </trkpt>
      <trkpt lat="42.98022" lon="0.54131">
        <ele>1494.562</ele>
        <time>2021-02-27T10:08:33Z</time>
      </trkpt>
      <trkpt lat="42.98021" lon="0.54131">
        <ele>1494.766</ele>
        <time>2021-02-27T10:08:35Z</time>
      </trkpt>
      <trkpt lat="42.98019" lon="0.5413">
        <ele>1495.705</ele>
        <time>2021-02-27T10:08:37Z</time>
      </trkpt>
      <trkpt lat="42.98018" lon="0.54128">
        <ele>1495.542</ele>
        <time>2021-02-27T10:08:39Z</time>
      </trkpt>
      <trkpt lat="42.98018" lon="0.54127">
        <ele>1494.185</ele>
        <time>2021-02-27T10:08:41Z</time>
      </trkpt>
      <trkpt lat="42.98018" lon="0.54124">
        <ele>1493.018</ele>
        <time>2021-02-27T10:08:43Z</time>
      </trkpt>
      <trkpt lat="42.98019" lon="0.54123">
        <ele>1491.786</ele>
        <time>2021-02-27T10:08:45Z</time>
      </trkpt>
      <trkpt lat="42.98021" lon="0.54122">
        <ele>1491.921</ele>
        <time>2021-02-27T10:08:47Z</time>
      </trkpt>
      <trkpt lat="42.98021" lon="0.5412">
        <ele>1491.207</ele>
        <time>2021-02-27T10:08:49Z</time>
      </trkpt>
      <trkpt lat="42.98023" lon="0.54118">
        <ele>1490.993</ele>
        <time>2021-02-27T10:08:51Z</time>
      </trkpt>
      <trkpt lat="42.98024" lon="0.54117">
        <ele>1492.826</ele>
        <time>2021-02-27T10:08:53Z</time>
      </trkpt>
      <trkpt lat="42.98024" lon="0.54115">
        <ele>1493.327</ele>
        <time>2021-02-27T10:08:55Z</time>
      </trkpt>
      <trkpt lat="42.98025" lon="0.54113">
        <ele>1494.542</ele>
        <time>2021-02-27T10:08:57Z</time>
      </trkpt>
      <trkpt lat="42.98026" lon="0.54111">
        <ele>1495.59</ele>
        <time>2021-02-27T10:08:59Z</time>
      </trkpt>
      <trkpt lat="42.98027" lon="0.5411">
        <ele>1495.736</ele>
        <time>2021-02-27T10:09:01Z</time>
      </trkpt>
      <trkpt lat="42.98027" lon="0.54108">
        <ele>1495.938</ele>
        <time>2021-02-27T10:09:03Z</time>
      </trkpt>
      <trkpt lat="42.98027" lon="0.54106">
        <ele>1496.949</ele>
        <time>2021-02-27T10:09:05Z</time>
      </trkpt>
      <trkpt lat="42.98028" lon="0.54105">
        <ele>1496.491</ele>
        <time>2021-02-27T10:09:07Z</time>
      </trkpt>
      <trkpt lat="42.98029" lon="0.54103">
        <ele>1497.027</ele>
        <time>2021-02-27T10:09:09Z</time>
      </trkpt>
      <trkpt lat="42.98029" lon="0.54101">
        <ele>1497.78</ele>
        <time>2021-02-27T10:09:11Z</time>
      </trkpt>
      <trkpt lat="42.98029" lon="0.54099">
        <ele>1498.345</ele>
        <time>2021-02-27T10:09:13Z</time>
      </trkpt>
      <trkpt lat="42.98029" lon="0.54098">
        <ele>1498.805</ele>
        <time>2021-02-27T10:09:15Z</time>
      </trkpt>
      <trkpt lat="42.9803" lon="0.54096">
        <ele>1498.822</ele>
        <time>2021-02-27T10:09:17Z</time>
      </trkpt>
      <trkpt lat="42.98031" lon="0.54095">
        <ele>1500.644</ele>
        <time>2021-02-27T10:09:19Z</time>
      </trkpt>
      <trkpt lat="42.98032" lon="0.54094">
        <ele>1501.441</ele>
        <time>2021-02-27T10:09:21Z</time>
      </trkpt>
      <trkpt lat="42.98033" lon="0.54093">
        <ele>1502.141</ele>
        <time>2021-02-27T10:09:23Z</time>
      </trkpt>
      <trkpt lat="42.98034" lon="0.54091">
        <ele>1502.417</ele>
        <time>2021-02-27T10:09:25Z</time>
      </trkpt>
      <trkpt lat="42.98034" lon="0.54089">
        <ele>1502.248</ele>
        <time>2021-02-27T10:09:27Z</time>
      </trkpt>
      <trkpt lat="42.98036" lon="0.54087">
        <ele>1501.702</ele>
        <time>2021-02-27T10:09:29Z</time>
      </trkpt>
      <trkpt lat="42.98036" lon="0.54085">
        <ele>1502.211</ele>
        <time>2021-02-27T10:09:31Z</time>
      </trkpt>
      <trkpt lat="42.98037" lon="0.54083">
        <ele>1502.053</ele>
        <time>2021-02-27T10:09:33Z</time>
      </trkpt>
      <trkpt lat="42.98038" lon="0.54082">
        <ele>1500.962</ele>
        <time>2021-02-27T10:09:35Z</time>
      </trkpt>
      <trkpt lat="42.98039" lon="0.5408">
        <ele>1500.466</ele>
        <time>2021-02-27T10:09:37Z</time>
      </trkpt>
      <trkpt lat="42.9804" lon="0.54079">
        <ele>1501.6</ele>
        <time>2021-02-27T10:09:39Z</time>
      </trkpt>
      <trkpt lat="42.9804" lon="0.54077">
        <ele>1502.359</ele>
        <time>2021-02-27T10:09:41Z</time>
      </trkpt>
      <trkpt lat="42.9804" lon="0.54076">
        <ele>1501.611</ele>
        <time>2021-02-27T10:09:43Z</time>
      </trkpt>
      <trkpt lat="42.98041" lon="0.54074">
        <ele>1501.41</ele>
        <time>2021-02-27T10:09:45Z</time>
      </trkpt>
      <trkpt lat="42.98041" lon="0.54072">
        <ele>1502.9</ele>
        <time>2021-02-27T10:09:47Z</time>
      </trkpt>
      <trkpt lat="42.98041" lon="0.5407">
        <ele>1503.437</ele>
        <time>2021-02-27T10:09:49Z</time>
      </trkpt>
      <trkpt lat="42.98042" lon="0.5407">
        <ele>1504.691</ele>
        <time>2021-02-27T10:09:51Z</time>
      </trkpt>
      <trkpt lat="42.98042" lon="0.54069">
        <ele>1504.163</ele>
        <time>2021-02-27T10:09:53Z</time>
      </trkpt>
      <trkpt lat="42.98043" lon="0.54068">
        <ele>1504.135</ele>
        <time>2021-02-27T10:09:55Z</time>
      </trkpt>
      <trkpt lat="42.98044" lon="0.54067">
        <ele>1505.389</ele>
        <time>2021-02-27T10:09:57Z</time>
      </trkpt>
      <trkpt lat="42.98044" lon="0.54065">
        <ele>1505.253</ele>
        <time>2021-02-27T10:09:59Z</time>
      </trkpt>
      <trkpt lat="42.98045" lon="0.54063">
        <ele>1506.203</ele>
        <time>2021-02-27T10:10:01Z</time>
      </trkpt>
      <trkpt lat="42.98047" lon="0.54061">
        <ele>1506.025</ele>
        <time>2021-02-27T10:10:03Z</time>
      </trkpt>
      <trkpt lat="42.98049" lon="0.54059">
        <ele>1505.607</ele>
        <time>2021-02-27T10:10:05Z</time>
      </trkpt>
      <trkpt lat="42.9805" lon="0.54058">
        <ele>1508.112</ele>
        <time>2021-02-27T10:10:07Z</time>
      </trkpt>
      <trkpt lat="42.98052" lon="0.54057">
        <ele>1508.42</ele>
        <time>2021-02-27T10:10:09Z</time>
      </trkpt>
      <trkpt lat="42.98053" lon="0.54055">
        <ele>1509.548</ele>
        <time>2021-02-27T10:10:11Z</time>
      </trkpt>
      <trkpt lat="42.98055" lon="0.54054">
        <ele>1510.824</ele>
        <time>2021-02-27T10:10:13Z</time>
      </trkpt>
      <trkpt lat="42.98056" lon="0.54052">
        <ele>1511.41</ele>
        <time>2021-02-27T10:10:15Z</time>
      </trkpt>
      <trkpt lat="42.98057" lon="0.54049">
        <ele>1512.786</ele>
        <time>2021-02-27T10:10:17Z</time>
      </trkpt>
      <trkpt lat="42.98058" lon="0.54048">
        <ele>1512.975</ele>
        <time>2021-02-27T10:10:19Z</time>
      </trkpt>
      <trkpt lat="42.98058" lon="0.54046">
        <ele>1513.51</ele>
        <time>2021-02-27T10:10:21Z</time>
      </trkpt>
      <trkpt lat="42.9806" lon="0.54044">
        <ele>1513.483</ele>
        <time>2021-02-27T10:10:23Z</time>
      </trkpt>
      <trkpt lat="42.98061" lon="0.54042">
        <ele>1513.313</ele>
        <time>2021-02-27T10:10:25Z</time>
      </trkpt>
      <trkpt lat="42.98062" lon="0.54041">
        <ele>1514.36</ele>
        <time>2021-02-27T10:10:27Z</time>
      </trkpt>
      <trkpt lat="42.98062" lon="0.54039">
        <ele>1514.373</ele>
        <time>2021-02-27T10:10:29Z</time>
      </trkpt>
      <trkpt lat="42.98062" lon="0.54037">
        <ele>1513.507</ele>
        <time>2021-02-27T10:10:31Z</time>
      </trkpt>
      <trkpt lat="42.98063" lon="0.54036">
        <ele>1513.362</ele>
        <time>2021-02-27T10:10:33Z</time>
      </trkpt>
      <trkpt lat="42.98064" lon="0.54034">
        <ele>1513.527</ele>
        <time>2021-02-27T10:10:35Z</time>
      </trkpt>
      <trkpt lat="42.98065" lon="0.54033">
        <ele>1514.079</ele>
        <time>2021-02-27T10:10:37Z</time>
      </trkpt>
      <trkpt lat="42.98066" lon="0.54032">
        <ele>1515.205</ele>
        <time>2021-02-27T10:10:39Z</time>
      </trkpt>
      <trkpt lat="42.98067" lon="0.54031">
        <ele>1516.263</ele>
        <time>2021-02-27T10:10:41Z</time>
      </trkpt>
      <trkpt lat="42.98068" lon="0.5403">
        <ele>1517.073</ele>
        <time>2021-02-27T10:10:43Z</time>
      </trkpt>
      <trkpt lat="42.98069" lon="0.54029">
        <ele>1516.306</ele>
        <time>2021-02-27T10:10:45Z</time>
      </trkpt>
      <trkpt lat="42.9807" lon="0.54028">
        <ele>1516.057</ele>
        <time>2021-02-27T10:10:47Z</time>
      </trkpt>
      <trkpt lat="42.98072" lon="0.54027">
        <ele>1515.033</ele>
        <time>2021-02-27T10:10:49Z</time>
      </trkpt>
      <trkpt lat="42.98072" lon="0.54025">
        <ele>1515.594</ele>
        <time>2021-02-27T10:10:51Z</time>
      </trkpt>
      <trkpt lat="42.98073" lon="0.54023">
        <ele>1515.73</ele>
        <time>2021-02-27T10:10:53Z</time>
      </trkpt>
      <trkpt lat="42.98074" lon="0.54021">
        <ele>1516.542</ele>
        <time>2021-02-27T10:10:55Z</time>
      </trkpt>
      <trkpt lat="42.98075" lon="0.5402">
        <ele>1516.876</ele>
        <time>2021-02-27T10:10:57Z</time>
      </trkpt>
      <trkpt lat="42.98076" lon="0.54018">
        <ele>1516.695</ele>
        <time>2021-02-27T10:10:59Z</time>
      </trkpt>
      <trkpt lat="42.98076" lon="0.54016">
        <ele>1517.823</ele>
        <time>2021-02-27T10:11:01Z</time>
      </trkpt>
      <trkpt lat="42.98077" lon="0.54015">
        <ele>1519.11</ele>
        <time>2021-02-27T10:11:03Z</time>
      </trkpt>
      <trkpt lat="42.98078" lon="0.54014">
        <ele>1520.036</ele>
        <time>2021-02-27T10:11:05Z</time>
      </trkpt>
      <trkpt lat="42.98078" lon="0.54014">
        <ele>1519.716</ele>
        <time>2021-02-27T10:11:07Z</time>
      </trkpt>
      <trkpt lat="42.98078" lon="0.54014">
        <ele>1519.711</ele>
        <time>2021-02-27T10:11:09Z</time>
      </trkpt>
      <trkpt lat="42.98078" lon="0.54013">
        <ele>1519.316</ele>
        <time>2021-02-27T10:11:11Z</time>
      </trkpt>
      <trkpt lat="42.98079" lon="0.54011">
        <ele>1520.479</ele>
        <time>2021-02-27T10:11:13Z</time>
      </trkpt>
      <trkpt lat="42.98079" lon="0.5401">
        <ele>1519.886</ele>
        <time>2021-02-27T10:11:15Z</time>
      </trkpt>
      <trkpt lat="42.98079" lon="0.5401">
        <ele>1519.739</ele>
        <time>2021-02-27T10:11:17Z</time>
      </trkpt>
      <trkpt lat="42.98079" lon="0.54009">
        <ele>1519.617</ele>
        <time>2021-02-27T10:11:19Z</time>
      </trkpt>
      <trkpt lat="42.98079" lon="0.54009">
        <ele>1519.597</ele>
        <time>2021-02-27T10:11:21Z</time>
      </trkpt>
      <trkpt lat="42.98079" lon="0.54009">
        <ele>1519.595</ele>
        <time>2021-02-27T10:11:23Z</time>
      </trkpt>
      <trkpt lat="42.98078" lon="0.54009">
        <ele>1519.594</ele>
        <time>2021-02-27T10:11:25Z</time>
      </trkpt>
      <trkpt lat="42.98078" lon="0.54009">
        <ele>1519.594</ele>
        <time>2021-02-27T10:11:27Z</time>
      </trkpt>
      <trkpt lat="42.98078" lon="0.54009">
        <ele>1519.587</ele>
        <time>2021-02-27T10:11:29Z</time>
      </trkpt>
      <trkpt lat="42.98078" lon="0.54009">
        <ele>1519.566</ele>
        <time>2021-02-27T10:11:31Z</time>
      </trkpt>
      <trkpt lat="42.98078" lon="0.54009">
        <ele>1519.435</ele>
        <time>2021-02-27T10:11:33Z</time>
      </trkpt>
      <trkpt lat="42.98078" lon="0.54007">
        <ele>1518.77</ele>
        <time>2021-02-27T10:11:35Z</time>
      </trkpt>
      <trkpt lat="42.98077" lon="0.54005">
        <ele>1518.217</ele>
        <time>2021-02-27T10:11:37Z</time>
      </trkpt>
      <trkpt lat="42.98076" lon="0.54004">
        <ele>1518.436</ele>
        <time>2021-02-27T10:11:39Z</time>
      </trkpt>
      <trkpt lat="42.98076" lon="0.54003">
        <ele>1518.228</ele>
        <time>2021-02-27T10:11:40Z</time>
      </trkpt>
      <trkpt lat="42.98071" lon="0.54">
        <ele>1517.261</ele>
        <time>2021-02-27T10:11:47Z</time>
      </trkpt>
      <trkpt lat="42.9807" lon="0.53998">
        <ele>1518.48</ele>
        <time>2021-02-27T10:11:49Z</time>
      </trkpt>
      <trkpt lat="42.98069" lon="0.53997">
        <ele>1519.296</ele>
        <time>2021-02-27T10:11:51Z</time>
      </trkpt>
      <trkpt lat="42.98068" lon="0.53996">
        <ele>1520.442</ele>
        <time>2021-02-27T10:11:53Z</time>
      </trkpt>
      <trkpt lat="42.98066" lon="0.53995">
        <ele>1520.988</ele>
        <time>2021-02-27T10:11:55Z</time>
      </trkpt>
      <trkpt lat="42.98064" lon="0.53993">
        <ele>1522.005</ele>
        <time>2021-02-27T10:11:57Z</time>
      </trkpt>
      <trkpt lat="42.98062" lon="0.53992">
        <ele>1522.924</ele>
        <time>2021-02-27T10:11:59Z</time>
      </trkpt>
      <trkpt lat="42.9806" lon="0.53992">
        <ele>1523.53</ele>
        <time>2021-02-27T10:12:01Z</time>
      </trkpt>
      <trkpt lat="42.98059" lon="0.53992">
        <ele>1523.634</ele>
        <time>2021-02-27T10:12:03Z</time>
      </trkpt>
      <trkpt lat="42.98058" lon="0.53992">
        <ele>1524.411</ele>
        <time>2021-02-27T10:12:05Z</time>
      </trkpt>
      <trkpt lat="42.98056" lon="0.53991">
        <ele>1524.364</ele>
        <time>2021-02-27T10:12:07Z</time>
      </trkpt>
      <trkpt lat="42.98054" lon="0.5399">
        <ele>1524.376</ele>
        <time>2021-02-27T10:12:09Z</time>
      </trkpt>
      <trkpt lat="42.98053" lon="0.53989">
        <ele>1524.422</ele>
        <time>2021-02-27T10:12:11Z</time>
      </trkpt>
      <trkpt lat="42.98051" lon="0.53989">
        <ele>1524.133</ele>
        <time>2021-02-27T10:12:13Z</time>
      </trkpt>
      <trkpt lat="42.9805" lon="0.53989">
        <ele>1524.061</ele>
        <time>2021-02-27T10:12:15Z</time>
      </trkpt>
      <trkpt lat="42.98048" lon="0.53988">
        <ele>1524.211</ele>
        <time>2021-02-27T10:12:17Z</time>
      </trkpt>
      <trkpt lat="42.98047" lon="0.53987">
        <ele>1524.944</ele>
        <time>2021-02-27T10:12:19Z</time>
      </trkpt>
      <trkpt lat="42.98046" lon="0.53986">
        <ele>1524.509</ele>
        <time>2021-02-27T10:12:21Z</time>
      </trkpt>
      <trkpt lat="42.98045" lon="0.53985">
        <ele>1524.666</ele>
        <time>2021-02-27T10:12:23Z</time>
      </trkpt>
      <trkpt lat="42.98045" lon="0.53985">
        <ele>1524.672</ele>
        <time>2021-02-27T10:12:25Z</time>
      </trkpt>
      <trkpt lat="42.98045" lon="0.53985">
        <ele>1524.679</ele>
        <time>2021-02-27T10:12:27Z</time>
      </trkpt>
      <trkpt lat="42.98038" lon="0.53986">
        <ele>1525.839</ele>
        <time>2021-02-27T10:12:34Z</time>
      </trkpt>
      <trkpt lat="42.98038" lon="0.53982">
        <ele>1525.83</ele>
        <time>2021-02-27T10:12:36Z</time>
      </trkpt>
      <trkpt lat="42.98037" lon="0.53983">
        <ele>1526.124</ele>
        <time>2021-02-27T10:12:38Z</time>
      </trkpt>
      <trkpt lat="42.98035" lon="0.53984">
        <ele>1526.946</ele>
        <time>2021-02-27T10:12:40Z</time>
      </trkpt>
      <trkpt lat="42.98034" lon="0.53984">
        <ele>1526.039</ele>
        <time>2021-02-27T10:12:42Z</time>
      </trkpt>
      <trkpt lat="42.98033" lon="0.53984">
        <ele>1526.43</ele>
        <time>2021-02-27T10:12:44Z</time>
      </trkpt>
      <trkpt lat="42.98031" lon="0.53983">
        <ele>1526.755</ele>
        <time>2021-02-27T10:12:46Z</time>
      </trkpt>
      <trkpt lat="42.98031" lon="0.53982">
        <ele>1526.935</ele>
        <time>2021-02-27T10:12:48Z</time>
      </trkpt>
      <trkpt lat="42.9803" lon="0.53981">
        <ele>1527.395</ele>
        <time>2021-02-27T10:12:50Z</time>
      </trkpt>
      <trkpt lat="42.9803" lon="0.53981">
        <ele>1527.795</ele>
        <time>2021-02-27T10:12:52Z</time>
      </trkpt>
      <trkpt lat="42.9803" lon="0.53981">
        <ele>1527.797</ele>
        <time>2021-02-27T10:12:54Z</time>
      </trkpt>
      <trkpt lat="42.9803" lon="0.53981">
        <ele>1527.645</ele>
        <time>2021-02-27T10:12:56Z</time>
      </trkpt>
      <trkpt lat="42.9803" lon="0.53981">
        <ele>1527.548</ele>
        <time>2021-02-27T10:12:57Z</time>
      </trkpt>
      <trkpt lat="42.98032" lon="0.53983">
        <ele>1526.209</ele>
        <time>2021-02-27T10:13:03Z</time>
      </trkpt>
      <trkpt lat="42.98032" lon="0.53985">
        <ele>1525.852</ele>
        <time>2021-02-27T10:13:05Z</time>
      </trkpt>
      <trkpt lat="42.98032" lon="0.53987">
        <ele>1526.557</ele>
        <time>2021-02-27T10:13:07Z</time>
      </trkpt>
      <trkpt lat="42.98032" lon="0.53988">
        <ele>1526.499</ele>
        <time>2021-02-27T10:13:09Z</time>
      </trkpt>
      <trkpt lat="42.98033" lon="0.53988">
        <ele>1527.277</ele>
        <time>2021-02-27T10:13:11Z</time>
      </trkpt>
      <trkpt lat="42.98033" lon="0.53988">
        <ele>1527.283</ele>
        <time>2021-02-27T10:13:13Z</time>
      </trkpt>
      <trkpt lat="42.98032" lon="0.53988">
        <ele>1527.637</ele>
        <time>2021-02-27T10:13:15Z</time>
      </trkpt>
      <trkpt lat="42.98033" lon="0.53988">
        <ele>1527.632</ele>
        <time>2021-02-27T10:13:17Z</time>
      </trkpt>
      <trkpt lat="42.98033" lon="0.53988">
        <ele>1527.625</ele>
        <time>2021-02-27T10:13:19Z</time>
      </trkpt>
      <trkpt lat="42.98033" lon="0.53989">
        <ele>1527.626</ele>
        <time>2021-02-27T10:13:21Z</time>
      </trkpt>
      <trkpt lat="42.98033" lon="0.53989">
        <ele>1527.623</ele>
        <time>2021-02-27T10:13:23Z</time>
      </trkpt>
      <trkpt lat="42.98033" lon="0.53989">
        <ele>1527.628</ele>
        <time>2021-02-27T10:13:24Z</time>
      </trkpt>
      <trkpt lat="42.98033" lon="0.53989">
        <ele>1527.619</ele>
        <time>2021-02-27T10:13:30Z</time>
      </trkpt>
      <trkpt lat="42.98033" lon="0.53989">
        <ele>1527.873</ele>
        <time>2021-02-27T10:13:32Z</time>
      </trkpt>
      <trkpt lat="42.98033" lon="0.53989">
        <ele>1528.009</ele>
        <time>2021-02-27T10:13:34Z</time>
      </trkpt>
      <trkpt lat="42.98033" lon="0.5399">
        <ele>1528.007</ele>
        <time>2021-02-27T10:13:36Z</time>
      </trkpt>
      <trkpt lat="42.98034" lon="0.5399">
        <ele>1528.347</ele>
        <time>2021-02-27T10:13:38Z</time>
      </trkpt>
      <trkpt lat="42.98035" lon="0.53991">
        <ele>1527.98</ele>
        <time>2021-02-27T10:13:40Z</time>
      </trkpt>
      <trkpt lat="42.98036" lon="0.53991">
        <ele>1527.516</ele>
        <time>2021-02-27T10:13:42Z</time>
      </trkpt>
      <trkpt lat="42.98036" lon="0.53991">
        <ele>1527.161</ele>
        <time>2021-02-27T10:13:44Z</time>
      </trkpt>
      <trkpt lat="42.98037" lon="0.53991">
        <ele>1526.729</ele>
        <time>2021-02-27T10:13:46Z</time>
      </trkpt>
      <trkpt lat="42.98038" lon="0.53991">
        <ele>1526.466</ele>
        <time>2021-02-27T10:13:48Z</time>
      </trkpt>
      <trkpt lat="42.98039" lon="0.5399">
        <ele>1525.541</ele>
        <time>2021-02-27T10:13:50Z</time>
      </trkpt>
      <trkpt lat="42.98041" lon="0.53991">
        <ele>1524.865</ele>
        <time>2021-02-27T10:13:52Z</time>
      </trkpt>
      <trkpt lat="42.98043" lon="0.53992">
        <ele>1524.694</ele>
        <time>2021-02-27T10:13:54Z</time>
      </trkpt>
      <trkpt lat="42.98044" lon="0.53992">
        <ele>1524.569</ele>
        <time>2021-02-27T10:13:56Z</time>
      </trkpt>
      <trkpt lat="42.98045" lon="0.53992">
        <ele>1524.522</ele>
        <time>2021-02-27T10:13:58Z</time>
      </trkpt>
      <trkpt lat="42.98046" lon="0.53992">
        <ele>1523.651</ele>
        <time>2021-02-27T10:14:00Z</time>
      </trkpt>
      <trkpt lat="42.98047" lon="0.53991">
        <ele>1523.282</ele>
        <time>2021-02-27T10:14:02Z</time>
      </trkpt>
      <trkpt lat="42.98047" lon="0.53989">
        <ele>1522.637</ele>
        <time>2021-02-27T10:14:04Z</time>
      </trkpt>
      <trkpt lat="42.98047" lon="0.53989">
        <ele>1522.67</ele>
        <time>2021-02-27T10:14:06Z</time>
      </trkpt>
      <trkpt lat="42.98047" lon="0.53989">
        <ele>1522.671</ele>
        <time>2021-02-27T10:14:08Z</time>
      </trkpt>
      <trkpt lat="42.98047" lon="0.53989">
        <ele>1522.666</ele>
        <time>2021-02-27T10:14:10Z</time>
      </trkpt>
      <trkpt lat="42.98047" lon="0.53989">
        <ele>1522.669</ele>
        <time>2021-02-27T10:14:12Z</time>
      </trkpt>
      <trkpt lat="42.98047" lon="0.53989">
        <ele>1522.667</ele>
        <time>2021-02-27T10:14:14Z</time>
      </trkpt>
      <trkpt lat="42.98048" lon="0.53989">
        <ele>1522.625</ele>
        <time>2021-02-27T10:14:16Z</time>
      </trkpt>
      <trkpt lat="42.98048" lon="0.53988">
        <ele>1522.176</ele>
        <time>2021-02-27T10:14:18Z</time>
      </trkpt>
      <trkpt lat="42.98046" lon="0.53988">
        <ele>1522.406</ele>
        <time>2021-02-27T10:14:20Z</time>
      </trkpt>
      <trkpt lat="42.98046" lon="0.53988">
        <ele>1522.082</ele>
        <time>2021-02-27T10:14:22Z</time>
      </trkpt>
      <trkpt lat="42.98046" lon="0.53988">
        <ele>1522.086</ele>
        <time>2021-02-27T10:14:24Z</time>
      </trkpt>
      <trkpt lat="42.98048" lon="0.53989">
        <ele>1522.715</ele>
        <time>2021-02-27T10:14:26Z</time>
      </trkpt>
      <trkpt lat="42.98047" lon="0.53989">
        <ele>1522.715</ele>
        <time>2021-02-27T10:14:28Z</time>
      </trkpt>
      <trkpt lat="42.98047" lon="0.53989">
        <ele>1522.712</ele>
        <time>2021-02-27T10:14:30Z</time>
      </trkpt>
      <trkpt lat="42.98047" lon="0.53989">
        <ele>1522.707</ele>
        <time>2021-02-27T10:14:32Z</time>
      </trkpt>
      <trkpt lat="42.98047" lon="0.53989">
        <ele>1522.706</ele>
        <time>2021-02-27T10:14:34Z</time>
      </trkpt>
      <trkpt lat="42.98047" lon="0.53989">
        <ele>1522.713</ele>
        <time>2021-02-27T10:14:36Z</time>
      </trkpt>
      <trkpt lat="42.98047" lon="0.53989">
        <ele>1522.715</ele>
        <time>2021-02-27T10:14:38Z</time>
      </trkpt>
      <trkpt lat="42.98047" lon="0.53989">
        <ele>1522.723</ele>
        <time>2021-02-27T10:14:40Z</time>
      </trkpt>
      <trkpt lat="42.98047" lon="0.53989">
        <ele>1522.723</ele>
        <time>2021-02-27T10:14:42Z</time>
      </trkpt>
      <trkpt lat="42.98047" lon="0.53989">
        <ele>1522.715</ele>
        <time>2021-02-27T10:14:44Z</time>
      </trkpt>
      <trkpt lat="42.98047" lon="0.53989">
        <ele>1522.704</ele>
        <time>2021-02-27T10:14:46Z</time>
      </trkpt>
      <trkpt lat="42.98047" lon="0.53989">
        <ele>1522.694</ele>
        <time>2021-02-27T10:14:48Z</time>
      </trkpt>
      <trkpt lat="42.98047" lon="0.53989">
        <ele>1522.683</ele>
        <time>2021-02-27T10:14:50Z</time>
      </trkpt>
      <trkpt lat="42.98048" lon="0.53989">
        <ele>1522.58</ele>
        <time>2021-02-27T10:14:52Z</time>
      </trkpt>
      <trkpt lat="42.98049" lon="0.5399">
        <ele>1522.325</ele>
        <time>2021-02-27T10:14:54Z</time>
      </trkpt>
      <trkpt lat="42.9805" lon="0.53991">
        <ele>1522.343</ele>
        <time>2021-02-27T10:14:56Z</time>
      </trkpt>
      <trkpt lat="42.98052" lon="0.53992">
        <ele>1522.687</ele>
        <time>2021-02-27T10:14:58Z</time>
      </trkpt>
      <trkpt lat="42.98052" lon="0.53992">
        <ele>1522.855</ele>
        <time>2021-02-27T10:15:00Z</time>
      </trkpt>
      <trkpt lat="42.98052" lon="0.53992">
        <ele>1523.041</ele>
        <time>2021-02-27T10:15:02Z</time>
      </trkpt>
      <trkpt lat="42.98053" lon="0.53992">
        <ele>1522.502</ele>
        <time>2021-02-27T10:15:04Z</time>
      </trkpt>
      <trkpt lat="42.98053" lon="0.53992">
        <ele>1522.703</ele>
        <time>2021-02-27T10:15:06Z</time>
      </trkpt>
      <trkpt lat="42.98055" lon="0.53993">
        <ele>1522.321</ele>
        <time>2021-02-27T10:15:08Z</time>
      </trkpt>
      <trkpt lat="42.98056" lon="0.53993">
        <ele>1522.191</ele>
        <time>2021-02-27T10:15:10Z</time>
      </trkpt>
      <trkpt lat="42.98057" lon="0.53993">
        <ele>1521.766</ele>
        <time>2021-02-27T10:15:12Z</time>
      </trkpt>
      <trkpt lat="42.98057" lon="0.53994">
        <ele>1521.979</ele>
        <time>2021-02-27T10:15:14Z</time>
      </trkpt>
      <trkpt lat="42.98057" lon="0.53994">
        <ele>1521.981</ele>
        <time>2021-02-27T10:15:16Z</time>
      </trkpt>
      <trkpt lat="42.98057" lon="0.53994">
        <ele>1521.981</ele>
        <time>2021-02-27T10:15:18Z</time>
      </trkpt>
      <trkpt lat="42.98057" lon="0.53994">
        <ele>1521.983</ele>
        <time>2021-02-27T10:15:20Z</time>
      </trkpt>
      <trkpt lat="42.98057" lon="0.53994">
        <ele>1521.985</ele>
        <time>2021-02-27T10:15:22Z</time>
      </trkpt>
      <trkpt lat="42.98057" lon="0.53994">
        <ele>1521.979</ele>
        <time>2021-02-27T10:15:24Z</time>
      </trkpt>
      <trkpt lat="42.98057" lon="0.53994">
        <ele>1521.97</ele>
        <time>2021-02-27T10:15:26Z</time>
      </trkpt>
      <trkpt lat="42.98057" lon="0.53994">
        <ele>1521.746</ele>
        <time>2021-02-27T10:15:28Z</time>
      </trkpt>
      <trkpt lat="42.98058" lon="0.53995">
        <ele>1522.099</ele>
        <time>2021-02-27T10:15:30Z</time>
      </trkpt>
      <trkpt lat="42.98058" lon="0.53995">
        <ele>1522.103</ele>
        <time>2021-02-27T10:15:32Z</time>
      </trkpt>
      <trkpt lat="42.98058" lon="0.53995">
        <ele>1522.101</ele>
        <time>2021-02-27T10:15:34Z</time>
      </trkpt>
      <trkpt lat="42.98058" lon="0.53996">
        <ele>1521.917</ele>
        <time>2021-02-27T10:15:36Z</time>
      </trkpt>
      <trkpt lat="42.98059" lon="0.53996">
        <ele>1521.614</ele>
        <time>2021-02-27T10:15:38Z</time>
      </trkpt>
      <trkpt lat="42.98059" lon="0.53996">
        <ele>1521.588</ele>
        <time>2021-02-27T10:15:40Z</time>
      </trkpt>
      <trkpt lat="42.98059" lon="0.53996">
        <ele>1521.569</ele>
        <time>2021-02-27T10:15:42Z</time>
      </trkpt>
      <trkpt lat="42.98059" lon="0.53996">
        <ele>1521.683</ele>
        <time>2021-02-27T10:15:44Z</time>
      </trkpt>
      <trkpt lat="42.98059" lon="0.53996">
        <ele>1521.687</ele>
        <time>2021-02-27T10:15:46Z</time>
      </trkpt>
      <trkpt lat="42.98059" lon="0.53996">
        <ele>1521.696</ele>
        <time>2021-02-27T10:15:48Z</time>
      </trkpt>
      <trkpt lat="42.98059" lon="0.53996">
        <ele>1521.699</ele>
        <time>2021-02-27T10:15:50Z</time>
      </trkpt>
      <trkpt lat="42.98059" lon="0.53996">
        <ele>1521.694</ele>
        <time>2021-02-27T10:15:52Z</time>
      </trkpt>
      <trkpt lat="42.98059" lon="0.53996">
        <ele>1521.695</ele>
        <time>2021-02-27T10:15:54Z</time>
      </trkpt>
      <trkpt lat="42.98059" lon="0.53996">
        <ele>1521.696</ele>
        <time>2021-02-27T10:15:56Z</time>
      </trkpt>
      <trkpt lat="42.98059" lon="0.53996">
        <ele>1521.695</ele>
        <time>2021-02-27T10:15:58Z</time>
      </trkpt>
      <trkpt lat="42.98059" lon="0.53996">
        <ele>1522.383</ele>
        <time>2021-02-27T10:16:00Z</time>
      </trkpt>
      <trkpt lat="42.98059" lon="0.53996">
        <ele>1522.389</ele>
        <time>2021-02-27T10:16:02Z</time>
      </trkpt>
      <trkpt lat="42.98059" lon="0.53996">
        <ele>1522.385</ele>
        <time>2021-02-27T10:16:04Z</time>
      </trkpt>
      <trkpt lat="42.98059" lon="0.53996">
        <ele>1522.253</ele>
        <time>2021-02-27T10:16:06Z</time>
      </trkpt>
      <trkpt lat="42.9806" lon="0.53997">
        <ele>1522.329</ele>
        <time>2021-02-27T10:16:08Z</time>
      </trkpt>
      <trkpt lat="42.98061" lon="0.53996">
        <ele>1521.801</ele>
        <time>2021-02-27T10:16:10Z</time>
      </trkpt>
      <trkpt lat="42.9806" lon="0.53996">
        <ele>1521.553</ele>
        <time>2021-02-27T10:16:12Z</time>
      </trkpt>
      <trkpt lat="42.9806" lon="0.53995">
        <ele>1521.545</ele>
        <time>2021-02-27T10:16:14Z</time>
      </trkpt>
      <trkpt lat="42.9806" lon="0.53995">
        <ele>1521.839</ele>
        <time>2021-02-27T10:16:16Z</time>
      </trkpt>
      <trkpt lat="42.9806" lon="0.53996">
        <ele>1521.403</ele>
        <time>2021-02-27T10:16:18Z</time>
      </trkpt>
      <trkpt lat="42.98061" lon="0.53997">
        <ele>1521.226</ele>
        <time>2021-02-27T10:16:20Z</time>
      </trkpt>
      <trkpt lat="42.98061" lon="0.53997">
        <ele>1521.306</ele>
        <time>2021-02-27T10:16:22Z</time>
      </trkpt>
      <trkpt lat="42.98061" lon="0.53997">
        <ele>1521.489</ele>
        <time>2021-02-27T10:16:24Z</time>
      </trkpt>
      <trkpt lat="42.9806" lon="0.53996">
        <ele>1520.392</ele>
        <time>2021-02-27T10:16:26Z</time>
      </trkpt>
      <trkpt lat="42.9806" lon="0.53997">
        <ele>1519.895</ele>
        <time>2021-02-27T10:16:28Z</time>
      </trkpt>
      <trkpt lat="42.9806" lon="0.53998">
        <ele>1520.058</ele>
        <time>2021-02-27T10:16:30Z</time>
      </trkpt>
      <trkpt lat="42.98061" lon="0.53999">
        <ele>1519.639</ele>
        <time>2021-02-27T10:16:32Z</time>
      </trkpt>
      <trkpt lat="42.98062" lon="0.54">
        <ele>1519.356</ele>
        <time>2021-02-27T10:16:34Z</time>
      </trkpt>
      <trkpt lat="42.98063" lon="0.54001">
        <ele>1519.25</ele>
        <time>2021-02-27T10:16:36Z</time>
      </trkpt>
      <trkpt lat="42.98064" lon="0.54003">
        <ele>1519.286</ele>
        <time>2021-02-27T10:16:38Z</time>
      </trkpt>
      <trkpt lat="42.98065" lon="0.54003">
        <ele>1519.151</ele>
        <time>2021-02-27T10:16:40Z</time>
      </trkpt>
      <trkpt lat="42.98066" lon="0.54004">
        <ele>1518.934</ele>
        <time>2021-02-27T10:16:42Z</time>
      </trkpt>
      <trkpt lat="42.98067" lon="0.54004">
        <ele>1519.44</ele>
        <time>2021-02-27T10:16:44Z</time>
      </trkpt>
      <trkpt lat="42.98067" lon="0.54003">
        <ele>1519.538</ele>
        <time>2021-02-27T10:16:46Z</time>
      </trkpt>
      <trkpt lat="42.98068" lon="0.54002">
        <ele>1519.24</ele>
        <time>2021-02-27T10:16:48Z</time>
      </trkpt>
      <trkpt lat="42.98069" lon="0.54002">
        <ele>1518.675</ele>
        <time>2021-02-27T10:16:50Z</time>
      </trkpt>
      <trkpt lat="42.98071" lon="0.54003">
        <ele>1518.587</ele>
        <time>2021-02-27T10:16:52Z</time>
      </trkpt>
      <trkpt lat="42.98072" lon="0.54005">
        <ele>1518.409</ele>
        <time>2021-02-27T10:16:54Z</time>
      </trkpt>
      <trkpt lat="42.98074" lon="0.54005">
        <ele>1517.756</ele>
        <time>2021-02-27T10:16:56Z</time>
      </trkpt>
      <trkpt lat="42.98075" lon="0.54006">
        <ele>1517.174</ele>
        <time>2021-02-27T10:16:58Z</time>
      </trkpt>
      <trkpt lat="42.98077" lon="0.54006">
        <ele>1516.358</ele>
        <time>2021-02-27T10:17:00Z</time>
      </trkpt>
      <trkpt lat="42.98078" lon="0.54007">
        <ele>1516.129</ele>
        <time>2021-02-27T10:17:02Z</time>
      </trkpt>
      <trkpt lat="42.98079" lon="0.54008">
        <ele>1516.018</ele>
        <time>2021-02-27T10:17:04Z</time>
      </trkpt>
      <trkpt lat="42.98079" lon="0.54008">
        <ele>1516.516</ele>
        <time>2021-02-27T10:17:06Z</time>
      </trkpt>
      <trkpt lat="42.98079" lon="0.54008">
        <ele>1516.569</ele>
        <time>2021-02-27T10:17:08Z</time>
      </trkpt>
      <trkpt lat="42.98079" lon="0.54008">
        <ele>1516.384</ele>
        <time>2021-02-27T10:17:10Z</time>
      </trkpt>
      <trkpt lat="42.98079" lon="0.54009">
        <ele>1516.392</ele>
        <time>2021-02-27T10:17:12Z</time>
      </trkpt>
      <trkpt lat="42.98077" lon="0.54009">
        <ele>1516.017</ele>
        <time>2021-02-27T10:17:14Z</time>
      </trkpt>
      <trkpt lat="42.98077" lon="0.5401">
        <ele>1515.914</ele>
        <time>2021-02-27T10:17:16Z</time>
      </trkpt>
      <trkpt lat="42.98076" lon="0.5401">
        <ele>1516.728</ele>
        <time>2021-02-27T10:17:18Z</time>
      </trkpt>
      <trkpt lat="42.98076" lon="0.5401">
        <ele>1516.662</ele>
        <time>2021-02-27T10:17:20Z</time>
      </trkpt>
      <trkpt lat="42.98075" lon="0.5401">
        <ele>1516.267</ele>
        <time>2021-02-27T10:17:22Z</time>
      </trkpt>
      <trkpt lat="42.98074" lon="0.54011">
        <ele>1515.685</ele>
        <time>2021-02-27T10:17:24Z</time>
      </trkpt>
      <trkpt lat="42.98074" lon="0.54011">
        <ele>1515.948</ele>
        <time>2021-02-27T10:17:26Z</time>
      </trkpt>
      <trkpt lat="42.98075" lon="0.54011">
        <ele>1516.029</ele>
        <time>2021-02-27T10:17:28Z</time>
      </trkpt>
      <trkpt lat="42.98075" lon="0.54011">
        <ele>1515.875</ele>
        <time>2021-02-27T10:17:30Z</time>
      </trkpt>
      <trkpt lat="42.98075" lon="0.54011">
        <ele>1515.873</ele>
        <time>2021-02-27T10:17:32Z</time>
      </trkpt>
      <trkpt lat="42.98074" lon="0.54011">
        <ele>1515.288</ele>
        <time>2021-02-27T10:17:34Z</time>
      </trkpt>
      <trkpt lat="42.98073" lon="0.54011">
        <ele>1514.919</ele>
        <time>2021-02-27T10:17:36Z</time>
      </trkpt>
      <trkpt lat="42.98073" lon="0.54012">
        <ele>1514.972</ele>
        <time>2021-02-27T10:17:38Z</time>
      </trkpt>
      <trkpt lat="42.98073" lon="0.54012">
        <ele>1515.131</ele>
        <time>2021-02-27T10:17:40Z</time>
      </trkpt>
      <trkpt lat="42.98073" lon="0.54012">
        <ele>1515.142</ele>
        <time>2021-02-27T10:17:42Z</time>
      </trkpt>
      <trkpt lat="42.98073" lon="0.54012">
        <ele>1515.147</ele>
        <time>2021-02-27T10:17:44Z</time>
      </trkpt>
      <trkpt lat="42.98072" lon="0.54012">
        <ele>1514.866</ele>
        <time>2021-02-27T10:17:46Z</time>
      </trkpt>
      <trkpt lat="42.98072" lon="0.54012">
        <ele>1515.142</ele>
        <time>2021-02-27T10:17:48Z</time>
      </trkpt>
      <trkpt lat="42.98071" lon="0.54012">
        <ele>1515.349</ele>
        <time>2021-02-27T10:17:50Z</time>
      </trkpt>
      <trkpt lat="42.98071" lon="0.54014">
        <ele>1514.96</ele>
        <time>2021-02-27T10:17:52Z</time>
      </trkpt>
      <trkpt lat="42.98072" lon="0.54015">
        <ele>1514.338</ele>
        <time>2021-02-27T10:17:54Z</time>
      </trkpt>
      <trkpt lat="42.98072" lon="0.54016">
        <ele>1513.936</ele>
        <time>2021-02-27T10:17:56Z</time>
      </trkpt>
      <trkpt lat="42.98072" lon="0.54015">
        <ele>1514.681</ele>
        <time>2021-02-27T10:17:58Z</time>
      </trkpt>
      <trkpt lat="42.98072" lon="0.54015">
        <ele>1514.705</ele>
        <time>2021-02-27T10:18:00Z</time>
      </trkpt>
      <trkpt lat="42.98072" lon="0.54015">
        <ele>1514.736</ele>
        <time>2021-02-27T10:18:02Z</time>
      </trkpt>
      <trkpt lat="42.98072" lon="0.54015">
        <ele>1514.727</ele>
        <time>2021-02-27T10:18:04Z</time>
      </trkpt>
      <trkpt lat="42.98072" lon="0.54015">
        <ele>1515.134</ele>
        <time>2021-02-27T10:18:06Z</time>
      </trkpt>
      <trkpt lat="42.98072" lon="0.54015">
        <ele>1515.132</ele>
        <time>2021-02-27T10:18:08Z</time>
      </trkpt>
      <trkpt lat="42.98072" lon="0.54015">
        <ele>1515.13</ele>
        <time>2021-02-27T10:18:10Z</time>
      </trkpt>
      <trkpt lat="42.98072" lon="0.54014">
        <ele>1515.028</ele>
        <time>2021-02-27T10:18:12Z</time>
      </trkpt>
      <trkpt lat="42.98072" lon="0.54015">
        <ele>1515.031</ele>
        <time>2021-02-27T10:18:14Z</time>
      </trkpt>
      <trkpt lat="42.98072" lon="0.54015">
        <ele>1515.034</ele>
        <time>2021-02-27T10:18:16Z</time>
      </trkpt>
      <trkpt lat="42.98072" lon="0.54015">
        <ele>1515.038</ele>
        <time>2021-02-27T10:18:18Z</time>
      </trkpt>
      <trkpt lat="42.98072" lon="0.54014">
        <ele>1515.672</ele>
        <time>2021-02-27T10:18:25Z</time>
      </trkpt>
      <trkpt lat="42.98071" lon="0.54014">
        <ele>1515.673</ele>
        <time>2021-02-27T10:18:27Z</time>
      </trkpt>
      <trkpt lat="42.98071" lon="0.54014">
        <ele>1515.675</ele>
        <time>2021-02-27T10:18:29Z</time>
      </trkpt>
      <trkpt lat="42.98071" lon="0.54014">
        <ele>1515.659</ele>
        <time>2021-02-27T10:18:31Z</time>
      </trkpt>
      <trkpt lat="42.98071" lon="0.54014">
        <ele>1515.64</ele>
        <time>2021-02-27T10:18:33Z</time>
      </trkpt>
      <trkpt lat="42.98071" lon="0.54014">
        <ele>1515.623</ele>
        <time>2021-02-27T10:18:35Z</time>
      </trkpt>
      <trkpt lat="42.98071" lon="0.54014">
        <ele>1515.615</ele>
        <time>2021-02-27T10:18:37Z</time>
      </trkpt>
      <trkpt lat="42.98071" lon="0.54014">
        <ele>1515.608</ele>
        <time>2021-02-27T10:18:39Z</time>
      </trkpt>
      <trkpt lat="42.98071" lon="0.54014">
        <ele>1515.598</ele>
        <time>2021-02-27T10:18:41Z</time>
      </trkpt>
      <trkpt lat="42.98071" lon="0.54014">
        <ele>1516.011</ele>
        <time>2021-02-27T10:18:43Z</time>
      </trkpt>
      <trkpt lat="42.98071" lon="0.54014">
        <ele>1515.555</ele>
        <time>2021-02-27T10:18:45Z</time>
      </trkpt>
      <trkpt lat="42.98071" lon="0.54015">
        <ele>1515.851</ele>
        <time>2021-02-27T10:18:47Z</time>
      </trkpt>
      <trkpt lat="42.98071" lon="0.54015">
        <ele>1515.857</ele>
        <time>2021-02-27T10:18:48Z</time>
      </trkpt>
      <trkpt lat="42.98071" lon="0.54015">
        <ele>1515.886</ele>
        <time>2021-02-27T10:18:55Z</time>
      </trkpt>
      <trkpt lat="42.98071" lon="0.54015">
        <ele>1516.352</ele>
        <time>2021-02-27T10:18:57Z</time>
      </trkpt>
      <trkpt lat="42.98071" lon="0.54015">
        <ele>1517.015</ele>
        <time>2021-02-27T10:18:59Z</time>
      </trkpt>
      <trkpt lat="42.98071" lon="0.54015">
        <ele>1517.028</ele>
        <time>2021-02-27T10:19:01Z</time>
      </trkpt>
      <trkpt lat="42.98072" lon="0.54015">
        <ele>1517.373</ele>
        <time>2021-02-27T10:19:03Z</time>
      </trkpt>
      <trkpt lat="42.98072" lon="0.54015">
        <ele>1517.633</ele>
        <time>2021-02-27T10:19:05Z</time>
      </trkpt>
      <trkpt lat="42.98072" lon="0.54015">
        <ele>1517.933</ele>
        <time>2021-02-27T10:19:07Z</time>
      </trkpt>
      <trkpt lat="42.98072" lon="0.54015">
        <ele>1517.938</ele>
        <time>2021-02-27T10:19:09Z</time>
      </trkpt>
      <trkpt lat="42.98072" lon="0.54015">
        <ele>1517.982</ele>
        <time>2021-02-27T10:19:11Z</time>
      </trkpt>
      <trkpt lat="42.98072" lon="0.54015">
        <ele>1517.702</ele>
        <time>2021-02-27T10:19:13Z</time>
      </trkpt>
      <trkpt lat="42.98072" lon="0.54015">
        <ele>1517.592</ele>
        <time>2021-02-27T10:19:15Z</time>
      </trkpt>
      <trkpt lat="42.98073" lon="0.54015">
        <ele>1517.584</ele>
        <time>2021-02-27T10:19:17Z</time>
      </trkpt>
      <trkpt lat="42.98073" lon="0.54015">
        <ele>1517.333</ele>
        <time>2021-02-27T10:19:19Z</time>
      </trkpt>
      <trkpt lat="42.98073" lon="0.54015">
        <ele>1517.123</ele>
        <time>2021-02-27T10:19:21Z</time>
      </trkpt>
      <trkpt lat="42.98073" lon="0.54015">
        <ele>1517.108</ele>
        <time>2021-02-27T10:19:23Z</time>
      </trkpt>
      <trkpt lat="42.98072" lon="0.54015">
        <ele>1517.101</ele>
        <time>2021-02-27T10:19:25Z</time>
      </trkpt>
      <trkpt lat="42.98072" lon="0.54015">
        <ele>1517.098</ele>
        <time>2021-02-27T10:19:27Z</time>
      </trkpt>
      <trkpt lat="42.98072" lon="0.54015">
        <ele>1516.89</ele>
        <time>2021-02-27T10:19:29Z</time>
      </trkpt>
      <trkpt lat="42.98072" lon="0.54015">
        <ele>1516.886</ele>
        <time>2021-02-27T10:19:31Z</time>
      </trkpt>
      <trkpt lat="42.98072" lon="0.54015">
        <ele>1516.809</ele>
        <time>2021-02-27T10:19:33Z</time>
      </trkpt>
      <trkpt lat="42.98073" lon="0.54014">
        <ele>1516.784</ele>
        <time>2021-02-27T10:19:35Z</time>
      </trkpt>
      <trkpt lat="42.98074" lon="0.54013">
        <ele>1516.859</ele>
        <time>2021-02-27T10:19:37Z</time>
      </trkpt>
      <trkpt lat="42.98073" lon="0.54011">
        <ele>1517.031</ele>
        <time>2021-02-27T10:19:39Z</time>
      </trkpt>
      <trkpt lat="42.98074" lon="0.5401">
        <ele>1517.485</ele>
        <time>2021-02-27T10:19:41Z</time>
      </trkpt>
      <trkpt lat="42.98074" lon="0.5401">
        <ele>1518.155</ele>
        <time>2021-02-27T10:19:43Z</time>
      </trkpt>
      <trkpt lat="42.98074" lon="0.5401">
        <ele>1518.114</ele>
        <time>2021-02-27T10:19:45Z</time>
      </trkpt>
      <trkpt lat="42.98076" lon="0.54008">
        <ele>1517.985</ele>
        <time>2021-02-27T10:19:47Z</time>
      </trkpt>
      <trkpt lat="42.98077" lon="0.54007">
        <ele>1517.893</ele>
        <time>2021-02-27T10:19:49Z</time>
      </trkpt>
      <trkpt lat="42.98078" lon="0.54004">
        <ele>1517.651</ele>
        <time>2021-02-27T10:19:51Z</time>
      </trkpt>
      <trkpt lat="42.98079" lon="0.54001">
        <ele>1517.79</ele>
        <time>2021-02-27T10:19:53Z</time>
      </trkpt>
      <trkpt lat="42.98079" lon="0.53999">
        <ele>1517.135</ele>
        <time>2021-02-27T10:19:55Z</time>
      </trkpt>
      <trkpt lat="42.98079" lon="0.53996">
        <ele>1517.213</ele>
        <time>2021-02-27T10:19:57Z</time>
      </trkpt>
      <trkpt lat="42.98079" lon="0.53995">
        <ele>1516.68</ele>
        <time>2021-02-27T10:19:59Z</time>
      </trkpt>
      <trkpt lat="42.98079" lon="0.53993">
        <ele>1516.902</ele>
        <time>2021-02-27T10:20:01Z</time>
      </trkpt>
      <trkpt lat="42.98079" lon="0.53991">
        <ele>1516.465</ele>
        <time>2021-02-27T10:20:03Z</time>
      </trkpt>
      <trkpt lat="42.98079" lon="0.53987">
        <ele>1516.526</ele>
        <time>2021-02-27T10:20:05Z</time>
      </trkpt>
      <trkpt lat="42.9808" lon="0.53985">
        <ele>1516.795</ele>
        <time>2021-02-27T10:20:07Z</time>
      </trkpt>
      <trkpt lat="42.9808" lon="0.53983">
        <ele>1516.483</ele>
        <time>2021-02-27T10:20:09Z</time>
      </trkpt>
      <trkpt lat="42.9808" lon="0.5398">
        <ele>1516.769</ele>
        <time>2021-02-27T10:20:11Z</time>
      </trkpt>
      <trkpt lat="42.98081" lon="0.53978">
        <ele>1516.9</ele>
        <time>2021-02-27T10:20:13Z</time>
      </trkpt>
      <trkpt lat="42.98082" lon="0.53975">
        <ele>1516.65</ele>
        <time>2021-02-27T10:20:15Z</time>
      </trkpt>
      <trkpt lat="42.98082" lon="0.53973">
        <ele>1516.457</ele>
        <time>2021-02-27T10:20:17Z</time>
      </trkpt>
      <trkpt lat="42.98083" lon="0.53971">
        <ele>1515.985</ele>
        <time>2021-02-27T10:20:19Z</time>
      </trkpt>
      <trkpt lat="42.98085" lon="0.53969">
        <ele>1516.349</ele>
        <time>2021-02-27T10:20:21Z</time>
      </trkpt>
      <trkpt lat="42.98086" lon="0.53967">
        <ele>1516.855</ele>
        <time>2021-02-27T10:20:23Z</time>
      </trkpt>
      <trkpt lat="42.98087" lon="0.53964">
        <ele>1516.881</ele>
        <time>2021-02-27T10:20:25Z</time>
      </trkpt>
      <trkpt lat="42.98088" lon="0.53962">
        <ele>1516.867</ele>
        <time>2021-02-27T10:20:27Z</time>
      </trkpt>
      <trkpt lat="42.98089" lon="0.5396">
        <ele>1517.655</ele>
        <time>2021-02-27T10:20:29Z</time>
      </trkpt>
      <trkpt lat="42.9809" lon="0.53958">
        <ele>1517.919</ele>
        <time>2021-02-27T10:20:31Z</time>
      </trkpt>
      <trkpt lat="42.9809" lon="0.53955">
        <ele>1518.356</ele>
        <time>2021-02-27T10:20:33Z</time>
      </trkpt>
      <trkpt lat="42.98091" lon="0.53952">
        <ele>1517.999</ele>
        <time>2021-02-27T10:20:35Z</time>
      </trkpt>
      <trkpt lat="42.98091" lon="0.5395">
        <ele>1517.931</ele>
        <time>2021-02-27T10:20:37Z</time>
      </trkpt>
      <trkpt lat="42.98091" lon="0.53947">
        <ele>1518.095</ele>
        <time>2021-02-27T10:20:39Z</time>
      </trkpt>
      <trkpt lat="42.98093" lon="0.53945">
        <ele>1518.424</ele>
        <time>2021-02-27T10:20:41Z</time>
      </trkpt>
      <trkpt lat="42.98094" lon="0.53943">
        <ele>1518.657</ele>
        <time>2021-02-27T10:20:43Z</time>
      </trkpt>
      <trkpt lat="42.98094" lon="0.53941">
        <ele>1518.811</ele>
        <time>2021-02-27T10:20:45Z</time>
      </trkpt>
      <trkpt lat="42.98096" lon="0.53939">
        <ele>1519.224</ele>
        <time>2021-02-27T10:20:47Z</time>
      </trkpt>
      <trkpt lat="42.98097" lon="0.53938">
        <ele>1518.805</ele>
        <time>2021-02-27T10:20:49Z</time>
      </trkpt>
      <trkpt lat="42.98098" lon="0.53936">
        <ele>1519.082</ele>
        <time>2021-02-27T10:20:51Z</time>
      </trkpt>
      <trkpt lat="42.98099" lon="0.53934">
        <ele>1520.358</ele>
        <time>2021-02-27T10:20:53Z</time>
      </trkpt>
      <trkpt lat="42.98101" lon="0.53932">
        <ele>1520.432</ele>
        <time>2021-02-27T10:20:55Z</time>
      </trkpt>
      <trkpt lat="42.98103" lon="0.53931">
        <ele>1520.7</ele>
        <time>2021-02-27T10:20:57Z</time>
      </trkpt>
      <trkpt lat="42.98104" lon="0.53929">
        <ele>1520.749</ele>
        <time>2021-02-27T10:20:59Z</time>
      </trkpt>
      <trkpt lat="42.98105" lon="0.53926">
        <ele>1521.526</ele>
        <time>2021-02-27T10:21:01Z</time>
      </trkpt>
      <trkpt lat="42.98107" lon="0.53924">
        <ele>1521.639</ele>
        <time>2021-02-27T10:21:03Z</time>
      </trkpt>
      <trkpt lat="42.98108" lon="0.53921">
        <ele>1521.856</ele>
        <time>2021-02-27T10:21:05Z</time>
      </trkpt>
      <trkpt lat="42.9811" lon="0.53919">
        <ele>1522.73</ele>
        <time>2021-02-27T10:21:07Z</time>
      </trkpt>
      <trkpt lat="42.98112" lon="0.53918">
        <ele>1522.65</ele>
        <time>2021-02-27T10:21:09Z</time>
      </trkpt>
      <trkpt lat="42.98113" lon="0.53916">
        <ele>1523.156</ele>
        <time>2021-02-27T10:21:11Z</time>
      </trkpt>
      <trkpt lat="42.98115" lon="0.53915">
        <ele>1523.24</ele>
        <time>2021-02-27T10:21:13Z</time>
      </trkpt>
      <trkpt lat="42.98117" lon="0.53914">
        <ele>1523.227</ele>
        <time>2021-02-27T10:21:15Z</time>
      </trkpt>
      <trkpt lat="42.98116" lon="0.53913">
        <ele>1522.866</ele>
        <time>2021-02-27T10:21:17Z</time>
      </trkpt>
      <trkpt lat="42.98116" lon="0.53913">
        <ele>1522.848</ele>
        <time>2021-02-27T10:21:19Z</time>
      </trkpt>
      <trkpt lat="42.98116" lon="0.53912">
        <ele>1522.674</ele>
        <time>2021-02-27T10:21:21Z</time>
      </trkpt>
      <trkpt lat="42.98117" lon="0.5391">
        <ele>1522.689</ele>
        <time>2021-02-27T10:21:23Z</time>
      </trkpt>
      <trkpt lat="42.98118" lon="0.53907">
        <ele>1522.783</ele>
        <time>2021-02-27T10:21:25Z</time>
      </trkpt>
      <trkpt lat="42.98119" lon="0.53905">
        <ele>1522.403</ele>
        <time>2021-02-27T10:21:27Z</time>
      </trkpt>
      <trkpt lat="42.9812" lon="0.53904">
        <ele>1522.26</ele>
        <time>2021-02-27T10:21:29Z</time>
      </trkpt>
      <trkpt lat="42.98121" lon="0.53901">
        <ele>1523.004</ele>
        <time>2021-02-27T10:21:31Z</time>
      </trkpt>
      <trkpt lat="42.98122" lon="0.53899">
        <ele>1522.519</ele>
        <time>2021-02-27T10:21:33Z</time>
      </trkpt>
      <trkpt lat="42.98123" lon="0.53898">
        <ele>1522.727</ele>
        <time>2021-02-27T10:21:35Z</time>
      </trkpt>
      <trkpt lat="42.98124" lon="0.53896">
        <ele>1522.796</ele>
        <time>2021-02-27T10:21:37Z</time>
      </trkpt>
      <trkpt lat="42.98123" lon="0.53896">
        <ele>1522.649</ele>
        <time>2021-02-27T10:21:39Z</time>
      </trkpt>
      <trkpt lat="42.98123" lon="0.53894">
        <ele>1522.195</ele>
        <time>2021-02-27T10:21:41Z</time>
      </trkpt>
      <trkpt lat="42.98123" lon="0.53894">
        <ele>1521.896</ele>
        <time>2021-02-27T10:21:43Z</time>
      </trkpt>
      <trkpt lat="42.98123" lon="0.53894">
        <ele>1521.722</ele>
        <time>2021-02-27T10:21:45Z</time>
      </trkpt>
      <trkpt lat="42.98123" lon="0.53894">
        <ele>1521.421</ele>
        <time>2021-02-27T10:21:47Z</time>
      </trkpt>
      <trkpt lat="42.98122" lon="0.53894">
        <ele>1521.394</ele>
        <time>2021-02-27T10:21:49Z</time>
      </trkpt>
      <trkpt lat="42.98121" lon="0.53893">
        <ele>1521.137</ele>
        <time>2021-02-27T10:21:51Z</time>
      </trkpt>
      <trkpt lat="42.98121" lon="0.53892">
        <ele>1520.937</ele>
        <time>2021-02-27T10:21:53Z</time>
      </trkpt>
      <trkpt lat="42.98121" lon="0.53892">
        <ele>1520.896</ele>
        <time>2021-02-27T10:21:55Z</time>
      </trkpt>
      <trkpt lat="42.98122" lon="0.53892">
        <ele>1521.363</ele>
        <time>2021-02-27T10:21:57Z</time>
      </trkpt>
      <trkpt lat="42.98122" lon="0.53892">
        <ele>1521.011</ele>
        <time>2021-02-27T10:21:59Z</time>
      </trkpt>
      <trkpt lat="42.98121" lon="0.53892">
        <ele>1520.835</ele>
        <time>2021-02-27T10:22:01Z</time>
      </trkpt>
      <trkpt lat="42.98122" lon="0.53892">
        <ele>1521.095</ele>
        <time>2021-02-27T10:22:03Z</time>
      </trkpt>
      <trkpt lat="42.98123" lon="0.53892">
        <ele>1521.151</ele>
        <time>2021-02-27T10:22:05Z</time>
      </trkpt>
      <trkpt lat="42.98125" lon="0.53893">
        <ele>1521.591</ele>
        <time>2021-02-27T10:22:07Z</time>
      </trkpt>
      <trkpt lat="42.98127" lon="0.53892">
        <ele>1521.959</ele>
        <time>2021-02-27T10:22:09Z</time>
      </trkpt>
      <trkpt lat="42.98128" lon="0.53892">
        <ele>1522.468</ele>
        <time>2021-02-27T10:22:11Z</time>
      </trkpt>
      <trkpt lat="42.98128" lon="0.53888">
        <ele>1523.036</ele>
        <time>2021-02-27T10:22:13Z</time>
      </trkpt>
      <trkpt lat="42.9813" lon="0.53886">
        <ele>1523.345</ele>
        <time>2021-02-27T10:22:15Z</time>
      </trkpt>
      <trkpt lat="42.98131" lon="0.53884">
        <ele>1523.603</ele>
        <time>2021-02-27T10:22:17Z</time>
      </trkpt>
      <trkpt lat="42.98132" lon="0.53882">
        <ele>1524.018</ele>
        <time>2021-02-27T10:22:19Z</time>
      </trkpt>
      <trkpt lat="42.98134" lon="0.5388">
        <ele>1524.09</ele>
        <time>2021-02-27T10:22:21Z</time>
      </trkpt>
      <trkpt lat="42.98135" lon="0.53878">
        <ele>1524.318</ele>
        <time>2021-02-27T10:22:23Z</time>
      </trkpt>
      <trkpt lat="42.98136" lon="0.53875">
        <ele>1524.718</ele>
        <time>2021-02-27T10:22:25Z</time>
      </trkpt>
      <trkpt lat="42.98138" lon="0.53874">
        <ele>1524.764</ele>
        <time>2021-02-27T10:22:27Z</time>
      </trkpt>
      <trkpt lat="42.98139" lon="0.53872">
        <ele>1525.385</ele>
        <time>2021-02-27T10:22:29Z</time>
      </trkpt>
      <trkpt lat="42.9814" lon="0.5387">
        <ele>1525.561</ele>
        <time>2021-02-27T10:22:31Z</time>
      </trkpt>
      <trkpt lat="42.98141" lon="0.53867">
        <ele>1525.732</ele>
        <time>2021-02-27T10:22:33Z</time>
      </trkpt>
      <trkpt lat="42.98142" lon="0.53865">
        <ele>1526.2</ele>
        <time>2021-02-27T10:22:35Z</time>
      </trkpt>
      <trkpt lat="42.98143" lon="0.53862">
        <ele>1526.738</ele>
        <time>2021-02-27T10:22:37Z</time>
      </trkpt>
      <trkpt lat="42.98143" lon="0.53861">
        <ele>1526.4</ele>
        <time>2021-02-27T10:22:39Z</time>
      </trkpt>
      <trkpt lat="42.98144" lon="0.5386">
        <ele>1526.614</ele>
        <time>2021-02-27T10:22:41Z</time>
      </trkpt>
      <trkpt lat="42.98145" lon="0.53858">
        <ele>1526.871</ele>
        <time>2021-02-27T10:22:43Z</time>
      </trkpt>
      <trkpt lat="42.98145" lon="0.53856">
        <ele>1526.989</ele>
        <time>2021-02-27T10:22:45Z</time>
      </trkpt>
      <trkpt lat="42.98146" lon="0.53854">
        <ele>1527.5</ele>
        <time>2021-02-27T10:22:47Z</time>
      </trkpt>
      <trkpt lat="42.98146" lon="0.53852">
        <ele>1528.105</ele>
        <time>2021-02-27T10:22:49Z</time>
      </trkpt>
      <trkpt lat="42.98147" lon="0.53849">
        <ele>1527.869</ele>
        <time>2021-02-27T10:22:51Z</time>
      </trkpt>
      <trkpt lat="42.98147" lon="0.53846">
        <ele>1528.063</ele>
        <time>2021-02-27T10:22:53Z</time>
      </trkpt>
      <trkpt lat="42.98148" lon="0.53844">
        <ele>1528.417</ele>
        <time>2021-02-27T10:22:55Z</time>
      </trkpt>
      <trkpt lat="42.98148" lon="0.53841">
        <ele>1528.588</ele>
        <time>2021-02-27T10:22:57Z</time>
      </trkpt>
      <trkpt lat="42.98149" lon="0.53839">
        <ele>1528.693</ele>
        <time>2021-02-27T10:22:59Z</time>
      </trkpt>
      <trkpt lat="42.98149" lon="0.53837">
        <ele>1528.55</ele>
        <time>2021-02-27T10:23:01Z</time>
      </trkpt>
      <trkpt lat="42.9815" lon="0.53835">
        <ele>1528.96</ele>
        <time>2021-02-27T10:23:03Z</time>
      </trkpt>
      <trkpt lat="42.9815" lon="0.53833">
        <ele>1529.597</ele>
        <time>2021-02-27T10:23:05Z</time>
      </trkpt>
      <trkpt lat="42.9815" lon="0.5383">
        <ele>1530.106</ele>
        <time>2021-02-27T10:23:07Z</time>
      </trkpt>
      <trkpt lat="42.9815" lon="0.53829">
        <ele>1530.558</ele>
        <time>2021-02-27T10:23:09Z</time>
      </trkpt>
      <trkpt lat="42.9815" lon="0.53827">
        <ele>1530.914</ele>
        <time>2021-02-27T10:23:11Z</time>
      </trkpt>
      <trkpt lat="42.9815" lon="0.53827">
        <ele>1530.747</ele>
        <time>2021-02-27T10:23:13Z</time>
      </trkpt>
      <trkpt lat="42.9815" lon="0.53827">
        <ele>1530.744</ele>
        <time>2021-02-27T10:23:15Z</time>
      </trkpt>
      <trkpt lat="42.9815" lon="0.53827">
        <ele>1530.789</ele>
        <time>2021-02-27T10:23:16Z</time>
      </trkpt>
      <trkpt lat="42.98154" lon="0.53822">
        <ele>1532.695</ele>
        <time>2021-02-27T10:23:23Z</time>
      </trkpt>
      <trkpt lat="42.98154" lon="0.53819">
        <ele>1532.954</ele>
        <time>2021-02-27T10:23:25Z</time>
      </trkpt>
      <trkpt lat="42.98155" lon="0.53817">
        <ele>1532.983</ele>
        <time>2021-02-27T10:23:27Z</time>
      </trkpt>
      <trkpt lat="42.98155" lon="0.53815">
        <ele>1533.215</ele>
        <time>2021-02-27T10:23:29Z</time>
      </trkpt>
      <trkpt lat="42.98156" lon="0.53813">
        <ele>1533.145</ele>
        <time>2021-02-27T10:23:31Z</time>
      </trkpt>
      <trkpt lat="42.98157" lon="0.53812">
        <ele>1533.09</ele>
        <time>2021-02-27T10:23:33Z</time>
      </trkpt>
      <trkpt lat="42.98158" lon="0.53809">
        <ele>1533.796</ele>
        <time>2021-02-27T10:23:35Z</time>
      </trkpt>
      <trkpt lat="42.98158" lon="0.53806">
        <ele>1533.816</ele>
        <time>2021-02-27T10:23:37Z</time>
      </trkpt>
      <trkpt lat="42.98159" lon="0.53804">
        <ele>1534.445</ele>
        <time>2021-02-27T10:23:39Z</time>
      </trkpt>
      <trkpt lat="42.98159" lon="0.53802">
        <ele>1535.186</ele>
        <time>2021-02-27T10:23:41Z</time>
      </trkpt>
      <trkpt lat="42.9816" lon="0.53799">
        <ele>1536.071</ele>
        <time>2021-02-27T10:23:43Z</time>
      </trkpt>
      <trkpt lat="42.9816" lon="0.53797">
        <ele>1536.062</ele>
        <time>2021-02-27T10:23:45Z</time>
      </trkpt>
      <trkpt lat="42.9816" lon="0.53795">
        <ele>1536.711</ele>
        <time>2021-02-27T10:23:47Z</time>
      </trkpt>
      <trkpt lat="42.98161" lon="0.53792">
        <ele>1536.55</ele>
        <time>2021-02-27T10:23:49Z</time>
      </trkpt>
      <trkpt lat="42.98161" lon="0.53789">
        <ele>1537.691</ele>
        <time>2021-02-27T10:23:51Z</time>
      </trkpt>
      <trkpt lat="42.98161" lon="0.53787">
        <ele>1538.462</ele>
        <time>2021-02-27T10:23:53Z</time>
      </trkpt>
      <trkpt lat="42.9816" lon="0.53785">
        <ele>1538.778</ele>
        <time>2021-02-27T10:23:55Z</time>
      </trkpt>
      <trkpt lat="42.98161" lon="0.53782">
        <ele>1539.195</ele>
        <time>2021-02-27T10:23:57Z</time>
      </trkpt>
      <trkpt lat="42.98161" lon="0.53781">
        <ele>1539.716</ele>
        <time>2021-02-27T10:23:59Z</time>
      </trkpt>
      <trkpt lat="42.98162" lon="0.53779">
        <ele>1540.017</ele>
        <time>2021-02-27T10:24:02Z</time>
      </trkpt>
      <trkpt lat="42.98164" lon="0.53776">
        <ele>1540.095</ele>
        <time>2021-02-27T10:24:04Z</time>
      </trkpt>
      <trkpt lat="42.98164" lon="0.53774">
        <ele>1540.571</ele>
        <time>2021-02-27T10:24:06Z</time>
      </trkpt>
      <trkpt lat="42.98164" lon="0.53772">
        <ele>1539.758</ele>
        <time>2021-02-27T10:24:08Z</time>
      </trkpt>
      <trkpt lat="42.98164" lon="0.53772">
        <ele>1540.467</ele>
        <time>2021-02-27T10:24:10Z</time>
      </trkpt>
      <trkpt lat="42.98164" lon="0.53771">
        <ele>1540.278</ele>
        <time>2021-02-27T10:24:12Z</time>
      </trkpt>
      <trkpt lat="42.98164" lon="0.53771">
        <ele>1540.135</ele>
        <time>2021-02-27T10:24:14Z</time>
      </trkpt>
      <trkpt lat="42.98164" lon="0.53771">
        <ele>1540.125</ele>
        <time>2021-02-27T10:24:15Z</time>
      </trkpt>
      <trkpt lat="42.98163" lon="0.53764">
        <ele>1539.947</ele>
        <time>2021-02-27T10:24:21Z</time>
      </trkpt>
      <trkpt lat="42.98163" lon="0.53762">
        <ele>1540.336</ele>
        <time>2021-02-27T10:24:23Z</time>
      </trkpt>
      <trkpt lat="42.98161" lon="0.5376">
        <ele>1540.935</ele>
        <time>2021-02-27T10:24:25Z</time>
      </trkpt>
      <trkpt lat="42.9816" lon="0.53759">
        <ele>1541.207</ele>
        <time>2021-02-27T10:24:27Z</time>
      </trkpt>
      <trkpt lat="42.98159" lon="0.53758">
        <ele>1540.575</ele>
        <time>2021-02-27T10:24:29Z</time>
      </trkpt>
      <trkpt lat="42.98158" lon="0.53758">
        <ele>1539.615</ele>
        <time>2021-02-27T10:24:31Z</time>
      </trkpt>
      <trkpt lat="42.98158" lon="0.53759">
        <ele>1540.247</ele>
        <time>2021-02-27T10:24:33Z</time>
      </trkpt>
      <trkpt lat="42.98158" lon="0.5376">
        <ele>1540.096</ele>
        <time>2021-02-27T10:24:35Z</time>
      </trkpt>
      <trkpt lat="42.98158" lon="0.5376">
        <ele>1540.115</ele>
        <time>2021-02-27T10:24:37Z</time>
      </trkpt>
      <trkpt lat="42.98158" lon="0.53759">
        <ele>1540.272</ele>
        <time>2021-02-27T10:24:39Z</time>
      </trkpt>
      <trkpt lat="42.98158" lon="0.53759">
        <ele>1540.565</ele>
        <time>2021-02-27T10:24:41Z</time>
      </trkpt>
      <trkpt lat="42.98158" lon="0.5376">
        <ele>1540.483</ele>
        <time>2021-02-27T10:24:42Z</time>
      </trkpt>
      <trkpt lat="42.98159" lon="0.53761">
        <ele>1540.262</ele>
        <time>2021-02-27T10:24:47Z</time>
      </trkpt>
      <trkpt lat="42.98158" lon="0.53759">
        <ele>1539.499</ele>
        <time>2021-02-27T10:24:54Z</time>
      </trkpt>
      <trkpt lat="42.98157" lon="0.5376">
        <ele>1539.649</ele>
        <time>2021-02-27T10:24:56Z</time>
      </trkpt>
      <trkpt lat="42.98157" lon="0.5376">
        <ele>1538.487</ele>
        <time>2021-02-27T10:24:58Z</time>
      </trkpt>
      <trkpt lat="42.98157" lon="0.53759">
        <ele>1538.795</ele>
        <time>2021-02-27T10:25:00Z</time>
      </trkpt>
      <trkpt lat="42.98157" lon="0.53759">
        <ele>1538.775</ele>
        <time>2021-02-27T10:25:02Z</time>
      </trkpt>
      <trkpt lat="42.98157" lon="0.53759">
        <ele>1538.778</ele>
        <time>2021-02-27T10:25:04Z</time>
      </trkpt>
      <trkpt lat="42.98157" lon="0.53759">
        <ele>1538.776</ele>
        <time>2021-02-27T10:25:06Z</time>
      </trkpt>
      <trkpt lat="42.98157" lon="0.53759">
        <ele>1538.57</ele>
        <time>2021-02-27T10:25:08Z</time>
      </trkpt>
      <trkpt lat="42.98157" lon="0.53759">
        <ele>1538.567</ele>
        <time>2021-02-27T10:25:10Z</time>
      </trkpt>
      <trkpt lat="42.98157" lon="0.53759">
        <ele>1538.566</ele>
        <time>2021-02-27T10:25:12Z</time>
      </trkpt>
      <trkpt lat="42.98157" lon="0.53759">
        <ele>1538.566</ele>
        <time>2021-02-27T10:25:14Z</time>
      </trkpt>
      <trkpt lat="42.98157" lon="0.53759">
        <ele>1538.565</ele>
        <time>2021-02-27T10:25:16Z</time>
      </trkpt>
      <trkpt lat="42.98157" lon="0.53759">
        <ele>1538.566</ele>
        <time>2021-02-27T10:25:18Z</time>
      </trkpt>
      <trkpt lat="42.98157" lon="0.53759">
        <ele>1538.567</ele>
        <time>2021-02-27T10:25:20Z</time>
      </trkpt>
      <trkpt lat="42.98157" lon="0.53759">
        <ele>1538.566</ele>
        <time>2021-02-27T10:25:22Z</time>
      </trkpt>
      <trkpt lat="42.98157" lon="0.53759">
        <ele>1538.567</ele>
        <time>2021-02-27T10:25:24Z</time>
      </trkpt>
      <trkpt lat="42.98157" lon="0.53759">
        <ele>1538.567</ele>
        <time>2021-02-27T10:25:26Z</time>
      </trkpt>
      <trkpt lat="42.98157" lon="0.53759">
        <ele>1538.571</ele>
        <time>2021-02-27T10:25:28Z</time>
      </trkpt>
      <trkpt lat="42.98157" lon="0.53759">
        <ele>1538.576</ele>
        <time>2021-02-27T10:25:30Z</time>
      </trkpt>
      <trkpt lat="42.98157" lon="0.53759">
        <ele>1538.58</ele>
        <time>2021-02-27T10:25:32Z</time>
      </trkpt>
      <trkpt lat="42.98157" lon="0.53759">
        <ele>1538.585</ele>
        <time>2021-02-27T10:25:34Z</time>
      </trkpt>
      <trkpt lat="42.98157" lon="0.53759">
        <ele>1538.585</ele>
        <time>2021-02-27T10:25:36Z</time>
      </trkpt>
      <trkpt lat="42.98157" lon="0.53759">
        <ele>1538.579</ele>
        <time>2021-02-27T10:25:38Z</time>
      </trkpt>
      <trkpt lat="42.98157" lon="0.53759">
        <ele>1538.571</ele>
        <time>2021-02-27T10:25:40Z</time>
      </trkpt>
      <trkpt lat="42.98157" lon="0.53759">
        <ele>1538.575</ele>
        <time>2021-02-27T10:25:42Z</time>
      </trkpt>
      <trkpt lat="42.98157" lon="0.53759">
        <ele>1538.579</ele>
        <time>2021-02-27T10:25:44Z</time>
      </trkpt>
      <trkpt lat="42.98157" lon="0.53758">
        <ele>1538.748</ele>
        <time>2021-02-27T10:25:46Z</time>
      </trkpt>
      <trkpt lat="42.98156" lon="0.53758">
        <ele>1538.705</ele>
        <time>2021-02-27T10:25:48Z</time>
      </trkpt>
      <trkpt lat="42.98156" lon="0.53759">
        <ele>1538.657</ele>
        <time>2021-02-27T10:25:50Z</time>
      </trkpt>
      <trkpt lat="42.98156" lon="0.53759">
        <ele>1538.658</ele>
        <time>2021-02-27T10:25:52Z</time>
      </trkpt>
      <trkpt lat="42.98156" lon="0.53759">
        <ele>1538.659</ele>
        <time>2021-02-27T10:25:54Z</time>
      </trkpt>
      <trkpt lat="42.98156" lon="0.53759">
        <ele>1538.66</ele>
        <time>2021-02-27T10:25:56Z</time>
      </trkpt>
      <trkpt lat="42.98156" lon="0.53759">
        <ele>1538.657</ele>
        <time>2021-02-27T10:25:58Z</time>
      </trkpt>
      <trkpt lat="42.98156" lon="0.53759">
        <ele>1538.658</ele>
        <time>2021-02-27T10:26:00Z</time>
      </trkpt>
      <trkpt lat="42.98156" lon="0.53759">
        <ele>1538.659</ele>
        <time>2021-02-27T10:26:02Z</time>
      </trkpt>
      <trkpt lat="42.98156" lon="0.53759">
        <ele>1538.66</ele>
        <time>2021-02-27T10:26:04Z</time>
      </trkpt>
      <trkpt lat="42.98156" lon="0.53759">
        <ele>1538.659</ele>
        <time>2021-02-27T10:26:06Z</time>
      </trkpt>
      <trkpt lat="42.98156" lon="0.53759">
        <ele>1538.659</ele>
        <time>2021-02-27T10:26:08Z</time>
      </trkpt>
      <trkpt lat="42.98156" lon="0.53759">
        <ele>1538.658</ele>
        <time>2021-02-27T10:26:10Z</time>
      </trkpt>
      <trkpt lat="42.98156" lon="0.53759">
        <ele>1538.658</ele>
        <time>2021-02-27T10:26:12Z</time>
      </trkpt>
      <trkpt lat="42.98156" lon="0.53759">
        <ele>1538.659</ele>
        <time>2021-02-27T10:26:14Z</time>
      </trkpt>
      <trkpt lat="42.98156" lon="0.53759">
        <ele>1538.66</ele>
        <time>2021-02-27T10:26:16Z</time>
      </trkpt>
      <trkpt lat="42.98156" lon="0.53759">
        <ele>1538.663</ele>
        <time>2021-02-27T10:26:18Z</time>
      </trkpt>
      <trkpt lat="42.98156" lon="0.53759">
        <ele>1538.662</ele>
        <time>2021-02-27T10:26:20Z</time>
      </trkpt>
      <trkpt lat="42.98156" lon="0.53759">
        <ele>1538.664</ele>
        <time>2021-02-27T10:26:22Z</time>
      </trkpt>
      <trkpt lat="42.98156" lon="0.53759">
        <ele>1538.666</ele>
        <time>2021-02-27T10:26:24Z</time>
      </trkpt>
      <trkpt lat="42.98156" lon="0.53759">
        <ele>1538.666</ele>
        <time>2021-02-27T10:26:26Z</time>
      </trkpt>
      <trkpt lat="42.98156" lon="0.53759">
        <ele>1538.664</ele>
        <time>2021-02-27T10:26:28Z</time>
      </trkpt>
      <trkpt lat="42.98156" lon="0.53759">
        <ele>1538.662</ele>
        <time>2021-02-27T10:26:30Z</time>
      </trkpt>
      <trkpt lat="42.98156" lon="0.53759">
        <ele>1538.969</ele>
        <time>2021-02-27T10:26:32Z</time>
      </trkpt>
      <trkpt lat="42.98156" lon="0.53759">
        <ele>1538.965</ele>
        <time>2021-02-27T10:26:34Z</time>
      </trkpt>
      <trkpt lat="42.98156" lon="0.53759">
        <ele>1538.968</ele>
        <time>2021-02-27T10:26:36Z</time>
      </trkpt>
      <trkpt lat="42.98156" lon="0.53759">
        <ele>1538.966</ele>
        <time>2021-02-27T10:26:38Z</time>
      </trkpt>
      <trkpt lat="42.98156" lon="0.53759">
        <ele>1538.966</ele>
        <time>2021-02-27T10:26:40Z</time>
      </trkpt>
      <trkpt lat="42.98156" lon="0.53759">
        <ele>1538.967</ele>
        <time>2021-02-27T10:26:42Z</time>
      </trkpt>
      <trkpt lat="42.98156" lon="0.53759">
        <ele>1538.818</ele>
        <time>2021-02-27T10:26:44Z</time>
      </trkpt>
      <trkpt lat="42.98156" lon="0.53759">
        <ele>1538.831</ele>
        <time>2021-02-27T10:26:46Z</time>
      </trkpt>
      <trkpt lat="42.98156" lon="0.53759">
        <ele>1538.835</ele>
        <time>2021-02-27T10:26:48Z</time>
      </trkpt>
      <trkpt lat="42.98156" lon="0.53759">
        <ele>1538.841</ele>
        <time>2021-02-27T10:26:50Z</time>
      </trkpt>
      <trkpt lat="42.98156" lon="0.53759">
        <ele>1538.845</ele>
        <time>2021-02-27T10:26:52Z</time>
      </trkpt>
      <trkpt lat="42.98156" lon="0.53759">
        <ele>1538.857</ele>
        <time>2021-02-27T10:26:54Z</time>
      </trkpt>
      <trkpt lat="42.98156" lon="0.53759">
        <ele>1538.864</ele>
        <time>2021-02-27T10:26:56Z</time>
      </trkpt>
      <trkpt lat="42.98156" lon="0.53759">
        <ele>1538.869</ele>
        <time>2021-02-27T10:26:58Z</time>
      </trkpt>
      <trkpt lat="42.98156" lon="0.53759">
        <ele>1539.401</ele>
        <time>2021-02-27T10:27:00Z</time>
      </trkpt>
      <trkpt lat="42.98156" lon="0.53759">
        <ele>1539.4</ele>
        <time>2021-02-27T10:27:02Z</time>
      </trkpt>
      <trkpt lat="42.98156" lon="0.53759">
        <ele>1539.399</ele>
        <time>2021-02-27T10:27:04Z</time>
      </trkpt>
      <trkpt lat="42.98156" lon="0.53759">
        <ele>1539.398</ele>
        <time>2021-02-27T10:27:06Z</time>
      </trkpt>
      <trkpt lat="42.98156" lon="0.53759">
        <ele>1539.397</ele>
        <time>2021-02-27T10:27:08Z</time>
      </trkpt>
      <trkpt lat="42.98156" lon="0.53759">
        <ele>1539.396</ele>
        <time>2021-02-27T10:27:10Z</time>
      </trkpt>
      <trkpt lat="42.98156" lon="0.53759">
        <ele>1539.396</ele>
        <time>2021-02-27T10:27:12Z</time>
      </trkpt>
      <trkpt lat="42.98156" lon="0.5376">
        <ele>1539.186</ele>
        <time>2021-02-27T10:27:14Z</time>
      </trkpt>
      <trkpt lat="42.98156" lon="0.5376">
        <ele>1539.192</ele>
        <time>2021-02-27T10:27:16Z</time>
      </trkpt>
      <trkpt lat="42.98156" lon="0.5376">
        <ele>1539.19</ele>
        <time>2021-02-27T10:27:18Z</time>
      </trkpt>
      <trkpt lat="42.98156" lon="0.5376">
        <ele>1539.193</ele>
        <time>2021-02-27T10:27:20Z</time>
      </trkpt>
      <trkpt lat="42.98156" lon="0.5376">
        <ele>1539.187</ele>
        <time>2021-02-27T10:27:22Z</time>
      </trkpt>
      <trkpt lat="42.98156" lon="0.5376">
        <ele>1539.187</ele>
        <time>2021-02-27T10:27:24Z</time>
      </trkpt>
      <trkpt lat="42.98156" lon="0.5376">
        <ele>1539.192</ele>
        <time>2021-02-27T10:27:26Z</time>
      </trkpt>
      <trkpt lat="42.98156" lon="0.5376">
        <ele>1539.102</ele>
        <time>2021-02-27T10:27:28Z</time>
      </trkpt>
      <trkpt lat="42.98156" lon="0.5376">
        <ele>1538.722</ele>
        <time>2021-02-27T10:27:30Z</time>
      </trkpt>
      <trkpt lat="42.98156" lon="0.5376">
        <ele>1538.758</ele>
        <time>2021-02-27T10:27:32Z</time>
      </trkpt>
      <trkpt lat="42.98156" lon="0.5376">
        <ele>1538.758</ele>
        <time>2021-02-27T10:27:34Z</time>
      </trkpt>
      <trkpt lat="42.98157" lon="0.5376">
        <ele>1538.975</ele>
        <time>2021-02-27T10:27:36Z</time>
      </trkpt>
      <trkpt lat="42.98157" lon="0.5376">
        <ele>1538.421</ele>
        <time>2021-02-27T10:27:38Z</time>
      </trkpt>
      <trkpt lat="42.98157" lon="0.53759">
        <ele>1539.297</ele>
        <time>2021-02-27T10:27:40Z</time>
      </trkpt>
      <trkpt lat="42.98158" lon="0.5376">
        <ele>1539.2</ele>
        <time>2021-02-27T10:27:42Z</time>
      </trkpt>
      <trkpt lat="42.98158" lon="0.53761">
        <ele>1539.215</ele>
        <time>2021-02-27T10:27:44Z</time>
      </trkpt>
      <trkpt lat="42.98158" lon="0.53761">
        <ele>1538.997</ele>
        <time>2021-02-27T10:27:46Z</time>
      </trkpt>
      <trkpt lat="42.98158" lon="0.5376">
        <ele>1538.813</ele>
        <time>2021-02-27T10:27:48Z</time>
      </trkpt>
      <trkpt lat="42.98159" lon="0.5376">
        <ele>1538.878</ele>
        <time>2021-02-27T10:27:50Z</time>
      </trkpt>
      <trkpt lat="42.98159" lon="0.5376">
        <ele>1538.88</ele>
        <time>2021-02-27T10:27:52Z</time>
      </trkpt>
      <trkpt lat="42.98159" lon="0.5376">
        <ele>1538.891</ele>
        <time>2021-02-27T10:27:54Z</time>
      </trkpt>
      <trkpt lat="42.98159" lon="0.5376">
        <ele>1538.895</ele>
        <time>2021-02-27T10:27:56Z</time>
      </trkpt>
      <trkpt lat="42.98159" lon="0.5376">
        <ele>1538.906</ele>
        <time>2021-02-27T10:27:58Z</time>
      </trkpt>
      <trkpt lat="42.98159" lon="0.5376">
        <ele>1538.922</ele>
        <time>2021-02-27T10:28:00Z</time>
      </trkpt>
      <trkpt lat="42.98159" lon="0.5376">
        <ele>1538.944</ele>
        <time>2021-02-27T10:28:02Z</time>
      </trkpt>
      <trkpt lat="42.98159" lon="0.5376">
        <ele>1538.95</ele>
        <time>2021-02-27T10:28:04Z</time>
      </trkpt>
      <trkpt lat="42.98159" lon="0.5376">
        <ele>1538.964</ele>
        <time>2021-02-27T10:28:06Z</time>
      </trkpt>
      <trkpt lat="42.98159" lon="0.5376">
        <ele>1538.969</ele>
        <time>2021-02-27T10:28:08Z</time>
      </trkpt>
      <trkpt lat="42.98159" lon="0.5376">
        <ele>1538.988</ele>
        <time>2021-02-27T10:28:10Z</time>
      </trkpt>
      <trkpt lat="42.98159" lon="0.5376">
        <ele>1538.982</ele>
        <time>2021-02-27T10:28:12Z</time>
      </trkpt>
      <trkpt lat="42.98159" lon="0.5376">
        <ele>1538.976</ele>
        <time>2021-02-27T10:28:14Z</time>
      </trkpt>
      <trkpt lat="42.98159" lon="0.5376">
        <ele>1538.968</ele>
        <time>2021-02-27T10:28:16Z</time>
      </trkpt>
      <trkpt lat="42.98159" lon="0.5376">
        <ele>1538.969</ele>
        <time>2021-02-27T10:28:18Z</time>
      </trkpt>
      <trkpt lat="42.98159" lon="0.5376">
        <ele>1538.967</ele>
        <time>2021-02-27T10:28:20Z</time>
      </trkpt>
      <trkpt lat="42.98159" lon="0.5376">
        <ele>1538.968</ele>
        <time>2021-02-27T10:28:22Z</time>
      </trkpt>
      <trkpt lat="42.98159" lon="0.5376">
        <ele>1538.954</ele>
        <time>2021-02-27T10:28:24Z</time>
      </trkpt>
      <trkpt lat="42.98159" lon="0.5376">
        <ele>1538.944</ele>
        <time>2021-02-27T10:28:26Z</time>
      </trkpt>
      <trkpt lat="42.98159" lon="0.5376">
        <ele>1538.941</ele>
        <time>2021-02-27T10:28:28Z</time>
      </trkpt>
      <trkpt lat="42.98159" lon="0.5376">
        <ele>1539.285</ele>
        <time>2021-02-27T10:28:30Z</time>
      </trkpt>
      <trkpt lat="42.98159" lon="0.53761">
        <ele>1540.009</ele>
        <time>2021-02-27T10:28:32Z</time>
      </trkpt>
      <trkpt lat="42.98159" lon="0.53761">
        <ele>1540.009</ele>
        <time>2021-02-27T10:28:34Z</time>
      </trkpt>
      <trkpt lat="42.98159" lon="0.53761">
        <ele>1540.004</ele>
        <time>2021-02-27T10:28:36Z</time>
      </trkpt>
      <trkpt lat="42.98159" lon="0.53761">
        <ele>1540.721</ele>
        <time>2021-02-27T10:28:38Z</time>
      </trkpt>
      <trkpt lat="42.98159" lon="0.53761">
        <ele>1540.736</ele>
        <time>2021-02-27T10:28:40Z</time>
      </trkpt>
      <trkpt lat="42.98159" lon="0.53761">
        <ele>1540.738</ele>
        <time>2021-02-27T10:28:42Z</time>
      </trkpt>
      <trkpt lat="42.98159" lon="0.53761">
        <ele>1540.747</ele>
        <time>2021-02-27T10:28:44Z</time>
      </trkpt>
      <trkpt lat="42.98159" lon="0.53761">
        <ele>1540.749</ele>
        <time>2021-02-27T10:28:46Z</time>
      </trkpt>
      <trkpt lat="42.98159" lon="0.53761">
        <ele>1540.754</ele>
        <time>2021-02-27T10:28:48Z</time>
      </trkpt>
      <trkpt lat="42.98159" lon="0.53761">
        <ele>1540.756</ele>
        <time>2021-02-27T10:28:50Z</time>
      </trkpt>
      <trkpt lat="42.98159" lon="0.53761">
        <ele>1540.759</ele>
        <time>2021-02-27T10:28:52Z</time>
      </trkpt>
      <trkpt lat="42.98159" lon="0.53761">
        <ele>1540.762</ele>
        <time>2021-02-27T10:28:54Z</time>
      </trkpt>
      <trkpt lat="42.98159" lon="0.53761">
        <ele>1540.774</ele>
        <time>2021-02-27T10:28:56Z</time>
      </trkpt>
      <trkpt lat="42.98159" lon="0.53761">
        <ele>1540.777</ele>
        <time>2021-02-27T10:28:58Z</time>
      </trkpt>
      <trkpt lat="42.98159" lon="0.53761">
        <ele>1540.779</ele>
        <time>2021-02-27T10:29:00Z</time>
      </trkpt>
      <trkpt lat="42.98159" lon="0.53761">
        <ele>1540.775</ele>
        <time>2021-02-27T10:29:02Z</time>
      </trkpt>
      <trkpt lat="42.98159" lon="0.53761">
        <ele>1540.759</ele>
        <time>2021-02-27T10:29:04Z</time>
      </trkpt>
      <trkpt lat="42.98159" lon="0.53761">
        <ele>1540.768</ele>
        <time>2021-02-27T10:29:06Z</time>
      </trkpt>
      <trkpt lat="42.98159" lon="0.53761">
        <ele>1540.774</ele>
        <time>2021-02-27T10:29:08Z</time>
      </trkpt>
      <trkpt lat="42.98159" lon="0.53761">
        <ele>1540.773</ele>
        <time>2021-02-27T10:29:10Z</time>
      </trkpt>
      <trkpt lat="42.98159" lon="0.53761">
        <ele>1540.775</ele>
        <time>2021-02-27T10:29:12Z</time>
      </trkpt>
      <trkpt lat="42.98159" lon="0.53761">
        <ele>1540.767</ele>
        <time>2021-02-27T10:29:14Z</time>
      </trkpt>
      <trkpt lat="42.98159" lon="0.53761">
        <ele>1540.759</ele>
        <time>2021-02-27T10:29:16Z</time>
      </trkpt>
      <trkpt lat="42.98159" lon="0.53761">
        <ele>1540.751</ele>
        <time>2021-02-27T10:29:18Z</time>
      </trkpt>
      <trkpt lat="42.98159" lon="0.53761">
        <ele>1540.747</ele>
        <time>2021-02-27T10:29:20Z</time>
      </trkpt>
      <trkpt lat="42.98159" lon="0.53761">
        <ele>1540.75</ele>
        <time>2021-02-27T10:29:22Z</time>
      </trkpt>
      <trkpt lat="42.98159" lon="0.53761">
        <ele>1540.736</ele>
        <time>2021-02-27T10:29:24Z</time>
      </trkpt>
      <trkpt lat="42.98159" lon="0.53761">
        <ele>1540.733</ele>
        <time>2021-02-27T10:29:26Z</time>
      </trkpt>
      <trkpt lat="42.98159" lon="0.53761">
        <ele>1540.736</ele>
        <time>2021-02-27T10:29:28Z</time>
      </trkpt>
      <trkpt lat="42.98159" lon="0.53761">
        <ele>1540.743</ele>
        <time>2021-02-27T10:29:30Z</time>
      </trkpt>
      <trkpt lat="42.98159" lon="0.53762">
        <ele>1540.293</ele>
        <time>2021-02-27T10:29:32Z</time>
      </trkpt>
      <trkpt lat="42.98159" lon="0.53761">
        <ele>1540.839</ele>
        <time>2021-02-27T10:29:34Z</time>
      </trkpt>
      <trkpt lat="42.98159" lon="0.53761">
        <ele>1540.117</ele>
        <time>2021-02-27T10:29:36Z</time>
      </trkpt>
      <trkpt lat="42.98158" lon="0.5376">
        <ele>1540.863</ele>
        <time>2021-02-27T10:29:38Z</time>
      </trkpt>
      <trkpt lat="42.98159" lon="0.53759">
        <ele>1540.644</ele>
        <time>2021-02-27T10:29:40Z</time>
      </trkpt>
      <trkpt lat="42.98158" lon="0.53757">
        <ele>1541.347</ele>
        <time>2021-02-27T10:29:42Z</time>
      </trkpt>
      <trkpt lat="42.98159" lon="0.53756">
        <ele>1540.601</ele>
        <time>2021-02-27T10:29:44Z</time>
      </trkpt>
      <trkpt lat="42.9816" lon="0.53754">
        <ele>1540.753</ele>
        <time>2021-02-27T10:29:46Z</time>
      </trkpt>
      <trkpt lat="42.9816" lon="0.53752">
        <ele>1540.677</ele>
        <time>2021-02-27T10:29:48Z</time>
      </trkpt>
      <trkpt lat="42.9816" lon="0.5375">
        <ele>1540.607</ele>
        <time>2021-02-27T10:29:50Z</time>
      </trkpt>
      <trkpt lat="42.98161" lon="0.53748">
        <ele>1540.748</ele>
        <time>2021-02-27T10:29:52Z</time>
      </trkpt>
      <trkpt lat="42.98162" lon="0.53746">
        <ele>1540.482</ele>
        <time>2021-02-27T10:29:54Z</time>
      </trkpt>
      <trkpt lat="42.98162" lon="0.53744">
        <ele>1539.731</ele>
        <time>2021-02-27T10:29:56Z</time>
      </trkpt>
      <trkpt lat="42.98162" lon="0.53742">
        <ele>1539.507</ele>
        <time>2021-02-27T10:29:58Z</time>
      </trkpt>
      <trkpt lat="42.98161" lon="0.53741">
        <ele>1539.861</ele>
        <time>2021-02-27T10:30:00Z</time>
      </trkpt>
      <trkpt lat="42.98161" lon="0.53739">
        <ele>1539.709</ele>
        <time>2021-02-27T10:30:02Z</time>
      </trkpt>
      <trkpt lat="42.98161" lon="0.5374">
        <ele>1539.661</ele>
        <time>2021-02-27T10:30:04Z</time>
      </trkpt>
      <trkpt lat="42.98161" lon="0.5374">
        <ele>1539.592</ele>
        <time>2021-02-27T10:30:06Z</time>
      </trkpt>
      <trkpt lat="42.98162" lon="0.5374">
        <ele>1539.419</ele>
        <time>2021-02-27T10:30:08Z</time>
      </trkpt>
      <trkpt lat="42.98163" lon="0.5374">
        <ele>1539.251</ele>
        <time>2021-02-27T10:30:10Z</time>
      </trkpt>
      <trkpt lat="42.98164" lon="0.53741">
        <ele>1539.293</ele>
        <time>2021-02-27T10:30:12Z</time>
      </trkpt>
      <trkpt lat="42.98165" lon="0.53742">
        <ele>1539.732</ele>
        <time>2021-02-27T10:30:14Z</time>
      </trkpt>
      <trkpt lat="42.98165" lon="0.53743">
        <ele>1539.723</ele>
        <time>2021-02-27T10:30:16Z</time>
      </trkpt>
      <trkpt lat="42.98165" lon="0.53743">
        <ele>1539.833</ele>
        <time>2021-02-27T10:30:18Z</time>
      </trkpt>
      <trkpt lat="42.98166" lon="0.53743">
        <ele>1540.272</ele>
        <time>2021-02-27T10:30:20Z</time>
      </trkpt>
      <trkpt lat="42.98166" lon="0.53743">
        <ele>1540.493</ele>
        <time>2021-02-27T10:30:22Z</time>
      </trkpt>
      <trkpt lat="42.98167" lon="0.53743">
        <ele>1541.108</ele>
        <time>2021-02-27T10:30:24Z</time>
      </trkpt>
      <trkpt lat="42.98167" lon="0.53743">
        <ele>1541.108</ele>
        <time>2021-02-27T10:30:26Z</time>
      </trkpt>
      <trkpt lat="42.98167" lon="0.53743">
        <ele>1541.072</ele>
        <time>2021-02-27T10:30:28Z</time>
      </trkpt>
      <trkpt lat="42.98167" lon="0.53743">
        <ele>1541.737</ele>
        <time>2021-02-27T10:30:30Z</time>
      </trkpt>
      <trkpt lat="42.98166" lon="0.53743">
        <ele>1541.753</ele>
        <time>2021-02-27T10:30:32Z</time>
      </trkpt>
      <trkpt lat="42.98166" lon="0.53743">
        <ele>1541.837</ele>
        <time>2021-02-27T10:30:34Z</time>
      </trkpt>
      <trkpt lat="42.98166" lon="0.53743">
        <ele>1541.816</ele>
        <time>2021-02-27T10:30:36Z</time>
      </trkpt>
      <trkpt lat="42.98166" lon="0.53743">
        <ele>1541.813</ele>
        <time>2021-02-27T10:30:38Z</time>
      </trkpt>
      <trkpt lat="42.98166" lon="0.53743">
        <ele>1541.814</ele>
        <time>2021-02-27T10:30:40Z</time>
      </trkpt>
      <trkpt lat="42.98167" lon="0.53743">
        <ele>1542.099</ele>
        <time>2021-02-27T10:30:42Z</time>
      </trkpt>
      <trkpt lat="42.98166" lon="0.53743">
        <ele>1541.945</ele>
        <time>2021-02-27T10:30:44Z</time>
      </trkpt>
      <trkpt lat="42.98166" lon="0.53743">
        <ele>1541.953</ele>
        <time>2021-02-27T10:30:46Z</time>
      </trkpt>
      <trkpt lat="42.98166" lon="0.53743">
        <ele>1541.956</ele>
        <time>2021-02-27T10:30:48Z</time>
      </trkpt>
      <trkpt lat="42.98166" lon="0.53742">
        <ele>1541.822</ele>
        <time>2021-02-27T10:30:50Z</time>
      </trkpt>
      <trkpt lat="42.98166" lon="0.53743">
        <ele>1541.806</ele>
        <time>2021-02-27T10:30:52Z</time>
      </trkpt>
      <trkpt lat="42.98166" lon="0.53743">
        <ele>1541.805</ele>
        <time>2021-02-27T10:30:54Z</time>
      </trkpt>
      <trkpt lat="42.98166" lon="0.53743">
        <ele>1541.806</ele>
        <time>2021-02-27T10:30:56Z</time>
      </trkpt>
      <trkpt lat="42.98166" lon="0.53743">
        <ele>1541.79</ele>
        <time>2021-02-27T10:30:58Z</time>
      </trkpt>
      <trkpt lat="42.98166" lon="0.53742">
        <ele>1541.483</ele>
        <time>2021-02-27T10:31:00Z</time>
      </trkpt>
      <trkpt lat="42.98166" lon="0.53742">
        <ele>1541.487</ele>
        <time>2021-02-27T10:31:02Z</time>
      </trkpt>
      <trkpt lat="42.98166" lon="0.53742">
        <ele>1541.489</ele>
        <time>2021-02-27T10:31:04Z</time>
      </trkpt>
      <trkpt lat="42.98166" lon="0.53742">
        <ele>1541.494</ele>
        <time>2021-02-27T10:31:06Z</time>
      </trkpt>
      <trkpt lat="42.98166" lon="0.53742">
        <ele>1541.496</ele>
        <time>2021-02-27T10:31:08Z</time>
      </trkpt>
      <trkpt lat="42.98166" lon="0.53742">
        <ele>1541.493</ele>
        <time>2021-02-27T10:31:10Z</time>
      </trkpt>
      <trkpt lat="42.98166" lon="0.53742">
        <ele>1541.493</ele>
        <time>2021-02-27T10:31:12Z</time>
      </trkpt>
      <trkpt lat="42.98166" lon="0.53742">
        <ele>1541.496</ele>
        <time>2021-02-27T10:31:14Z</time>
      </trkpt>
      <trkpt lat="42.98166" lon="0.53743">
        <ele>1541.379</ele>
        <time>2021-02-27T10:31:16Z</time>
      </trkpt>
      <trkpt lat="42.98166" lon="0.53743">
        <ele>1541.38</ele>
        <time>2021-02-27T10:31:18Z</time>
      </trkpt>
      <trkpt lat="42.98165" lon="0.53742">
        <ele>1540.897</ele>
        <time>2021-02-27T10:31:20Z</time>
      </trkpt>
      <trkpt lat="42.98165" lon="0.53741">
        <ele>1540.922</ele>
        <time>2021-02-27T10:31:22Z</time>
      </trkpt>
      <trkpt lat="42.98165" lon="0.53741">
        <ele>1540.968</ele>
        <time>2021-02-27T10:31:24Z</time>
      </trkpt>
      <trkpt lat="42.98165" lon="0.53741">
        <ele>1540.974</ele>
        <time>2021-02-27T10:31:26Z</time>
      </trkpt>
      <trkpt lat="42.98165" lon="0.53741">
        <ele>1540.971</ele>
        <time>2021-02-27T10:31:28Z</time>
      </trkpt>
      <trkpt lat="42.98165" lon="0.53741">
        <ele>1540.974</ele>
        <time>2021-02-27T10:31:30Z</time>
      </trkpt>
      <trkpt lat="42.98165" lon="0.53741">
        <ele>1540.98</ele>
        <time>2021-02-27T10:31:32Z</time>
      </trkpt>
      <trkpt lat="42.98165" lon="0.53741">
        <ele>1540.982</ele>
        <time>2021-02-27T10:31:34Z</time>
      </trkpt>
      <trkpt lat="42.98165" lon="0.53741">
        <ele>1540.98</ele>
        <time>2021-02-27T10:31:36Z</time>
      </trkpt>
      <trkpt lat="42.98165" lon="0.53741">
        <ele>1540.979</ele>
        <time>2021-02-27T10:31:38Z</time>
      </trkpt>
      <trkpt lat="42.98165" lon="0.53741">
        <ele>1540.977</ele>
        <time>2021-02-27T10:31:40Z</time>
      </trkpt>
      <trkpt lat="42.98165" lon="0.53741">
        <ele>1540.976</ele>
        <time>2021-02-27T10:31:42Z</time>
      </trkpt>
      <trkpt lat="42.98165" lon="0.53741">
        <ele>1540.786</ele>
        <time>2021-02-27T10:31:44Z</time>
      </trkpt>
      <trkpt lat="42.98165" lon="0.53741">
        <ele>1540.781</ele>
        <time>2021-02-27T10:31:46Z</time>
      </trkpt>
      <trkpt lat="42.98165" lon="0.53742">
        <ele>1540.784</ele>
        <time>2021-02-27T10:31:48Z</time>
      </trkpt>
      <trkpt lat="42.98165" lon="0.53742">
        <ele>1540.786</ele>
        <time>2021-02-27T10:31:50Z</time>
      </trkpt>
      <trkpt lat="42.98164" lon="0.53741">
        <ele>1540.69</ele>
        <time>2021-02-27T10:31:52Z</time>
      </trkpt>
      <trkpt lat="42.98165" lon="0.53741">
        <ele>1540.939</ele>
        <time>2021-02-27T10:31:54Z</time>
      </trkpt>
      <trkpt lat="42.98165" lon="0.53741">
        <ele>1540.937</ele>
        <time>2021-02-27T10:31:56Z</time>
      </trkpt>
      <trkpt lat="42.98165" lon="0.53741">
        <ele>1541.094</ele>
        <time>2021-02-27T10:31:58Z</time>
      </trkpt>
      <trkpt lat="42.98165" lon="0.53741">
        <ele>1541.094</ele>
        <time>2021-02-27T10:32:00Z</time>
      </trkpt>
      <trkpt lat="42.98165" lon="0.53741">
        <ele>1541.098</ele>
        <time>2021-02-27T10:32:02Z</time>
      </trkpt>
      <trkpt lat="42.98165" lon="0.53741">
        <ele>1541.106</ele>
        <time>2021-02-27T10:32:04Z</time>
      </trkpt>
      <trkpt lat="42.98165" lon="0.53741">
        <ele>1541.098</ele>
        <time>2021-02-27T10:32:06Z</time>
      </trkpt>
      <trkpt lat="42.98165" lon="0.53741">
        <ele>1541.093</ele>
        <time>2021-02-27T10:32:08Z</time>
      </trkpt>
      <trkpt lat="42.98165" lon="0.53741">
        <ele>1541.094</ele>
        <time>2021-02-27T10:32:10Z</time>
      </trkpt>
      <trkpt lat="42.98165" lon="0.53741">
        <ele>1541.092</ele>
        <time>2021-02-27T10:32:12Z</time>
      </trkpt>
      <trkpt lat="42.98165" lon="0.53741">
        <ele>1541.09</ele>
        <time>2021-02-27T10:32:14Z</time>
      </trkpt>
      <trkpt lat="42.98165" lon="0.53741">
        <ele>1541.091</ele>
        <time>2021-02-27T10:32:16Z</time>
      </trkpt>
      <trkpt lat="42.98165" lon="0.53741">
        <ele>1541.095</ele>
        <time>2021-02-27T10:32:18Z</time>
      </trkpt>
      <trkpt lat="42.98165" lon="0.53741">
        <ele>1541.098</ele>
        <time>2021-02-27T10:32:20Z</time>
      </trkpt>
      <trkpt lat="42.98165" lon="0.53741">
        <ele>1541.098</ele>
        <time>2021-02-27T10:32:22Z</time>
      </trkpt>
      <trkpt lat="42.98165" lon="0.53741">
        <ele>1541.099</ele>
        <time>2021-02-27T10:32:24Z</time>
      </trkpt>
      <trkpt lat="42.98166" lon="0.53742">
        <ele>1541.384</ele>
        <time>2021-02-27T10:32:26Z</time>
      </trkpt>
      <trkpt lat="42.98166" lon="0.53742">
        <ele>1541.296</ele>
        <time>2021-02-27T10:32:28Z</time>
      </trkpt>
      <trkpt lat="42.98166" lon="0.53742">
        <ele>1541.297</ele>
        <time>2021-02-27T10:32:30Z</time>
      </trkpt>
      <trkpt lat="42.98166" lon="0.53742">
        <ele>1541.303</ele>
        <time>2021-02-27T10:32:32Z</time>
      </trkpt>
      <trkpt lat="42.98166" lon="0.53742">
        <ele>1541.304</ele>
        <time>2021-02-27T10:32:34Z</time>
      </trkpt>
      <trkpt lat="42.98166" lon="0.53742">
        <ele>1541.306</ele>
        <time>2021-02-27T10:32:36Z</time>
      </trkpt>
      <trkpt lat="42.98166" lon="0.53742">
        <ele>1541.306</ele>
        <time>2021-02-27T10:32:38Z</time>
      </trkpt>
      <trkpt lat="42.98166" lon="0.53742">
        <ele>1541.378</ele>
        <time>2021-02-27T10:32:40Z</time>
      </trkpt>
      <trkpt lat="42.98166" lon="0.53742">
        <ele>1541.451</ele>
        <time>2021-02-27T10:32:42Z</time>
      </trkpt>
      <trkpt lat="42.98168" lon="0.53741">
        <ele>1541.218</ele>
        <time>2021-02-27T10:32:44Z</time>
      </trkpt>
      <trkpt lat="42.98168" lon="0.53741">
        <ele>1541.207</ele>
        <time>2021-02-27T10:32:46Z</time>
      </trkpt>
      <trkpt lat="42.98169" lon="0.5374">
        <ele>1540.727</ele>
        <time>2021-02-27T10:32:48Z</time>
      </trkpt>
      <trkpt lat="42.9817" lon="0.53738">
        <ele>1540.582</ele>
        <time>2021-02-27T10:32:50Z</time>
      </trkpt>
      <trkpt lat="42.98171" lon="0.53737">
        <ele>1540.742</ele>
        <time>2021-02-27T10:32:52Z</time>
      </trkpt>
      <trkpt lat="42.98172" lon="0.53736">
        <ele>1541.04</ele>
        <time>2021-02-27T10:32:54Z</time>
      </trkpt>
      <trkpt lat="42.98173" lon="0.53735">
        <ele>1541.017</ele>
        <time>2021-02-27T10:32:56Z</time>
      </trkpt>
      <trkpt lat="42.98174" lon="0.53735">
        <ele>1540.794</ele>
        <time>2021-02-27T10:32:58Z</time>
      </trkpt>
      <trkpt lat="42.98173" lon="0.53734">
        <ele>1541.276</ele>
        <time>2021-02-27T10:33:00Z</time>
      </trkpt>
      <trkpt lat="42.98174" lon="0.53733">
        <ele>1540.968</ele>
        <time>2021-02-27T10:33:02Z</time>
      </trkpt>
      <trkpt lat="42.98174" lon="0.53733">
        <ele>1541.225</ele>
        <time>2021-02-27T10:33:04Z</time>
      </trkpt>
      <trkpt lat="42.98174" lon="0.53733">
        <ele>1541.343</ele>
        <time>2021-02-27T10:33:06Z</time>
      </trkpt>
      <trkpt lat="42.98174" lon="0.53733">
        <ele>1541.347</ele>
        <time>2021-02-27T10:33:08Z</time>
      </trkpt>
      <trkpt lat="42.98174" lon="0.53733">
        <ele>1541.345</ele>
        <time>2021-02-27T10:33:10Z</time>
      </trkpt>
      <trkpt lat="42.98174" lon="0.53733">
        <ele>1541.347</ele>
        <time>2021-02-27T10:33:12Z</time>
      </trkpt>
      <trkpt lat="42.98174" lon="0.53733">
        <ele>1541.347</ele>
        <time>2021-02-27T10:33:14Z</time>
      </trkpt>
      <trkpt lat="42.98174" lon="0.53733">
        <ele>1541.349</ele>
        <time>2021-02-27T10:33:16Z</time>
      </trkpt>
      <trkpt lat="42.98174" lon="0.53733">
        <ele>1541.347</ele>
        <time>2021-02-27T10:33:18Z</time>
      </trkpt>
      <trkpt lat="42.98174" lon="0.53733">
        <ele>1541.346</ele>
        <time>2021-02-27T10:33:20Z</time>
      </trkpt>
      <trkpt lat="42.98174" lon="0.53733">
        <ele>1541.352</ele>
        <time>2021-02-27T10:33:22Z</time>
      </trkpt>
      <trkpt lat="42.98175" lon="0.53732">
        <ele>1541.281</ele>
        <time>2021-02-27T10:33:24Z</time>
      </trkpt>
      <trkpt lat="42.98175" lon="0.53732">
        <ele>1541.31</ele>
        <time>2021-02-27T10:33:26Z</time>
      </trkpt>
      <trkpt lat="42.98175" lon="0.53732">
        <ele>1541.314</ele>
        <time>2021-02-27T10:33:28Z</time>
      </trkpt>
      <trkpt lat="42.98175" lon="0.53733">
        <ele>1541.095</ele>
        <time>2021-02-27T10:33:30Z</time>
      </trkpt>
      <trkpt lat="42.98175" lon="0.53733">
        <ele>1541.641</ele>
        <time>2021-02-27T10:33:32Z</time>
      </trkpt>
      <trkpt lat="42.98175" lon="0.53733">
        <ele>1541.488</ele>
        <time>2021-02-27T10:33:34Z</time>
      </trkpt>
      <trkpt lat="42.98174" lon="0.53734">
        <ele>1540.914</ele>
        <time>2021-02-27T10:33:36Z</time>
      </trkpt>
      <trkpt lat="42.98173" lon="0.53735">
        <ele>1540.372</ele>
        <time>2021-02-27T10:33:38Z</time>
      </trkpt>
      <trkpt lat="42.98172" lon="0.53736">
        <ele>1540.243</ele>
        <time>2021-02-27T10:33:40Z</time>
      </trkpt>
      <trkpt lat="42.98172" lon="0.53736">
        <ele>1540.215</ele>
        <time>2021-02-27T10:33:42Z</time>
      </trkpt>
      <trkpt lat="42.98171" lon="0.53737">
        <ele>1540.335</ele>
        <time>2021-02-27T10:33:44Z</time>
      </trkpt>
      <trkpt lat="42.98171" lon="0.53737">
        <ele>1540.331</ele>
        <time>2021-02-27T10:33:46Z</time>
      </trkpt>
      <trkpt lat="42.98171" lon="0.53737">
        <ele>1540.326</ele>
        <time>2021-02-27T10:33:48Z</time>
      </trkpt>
      <trkpt lat="42.98171" lon="0.53737">
        <ele>1540.32</ele>
        <time>2021-02-27T10:33:50Z</time>
      </trkpt>
      <trkpt lat="42.98171" lon="0.53737">
        <ele>1540.316</ele>
        <time>2021-02-27T10:33:52Z</time>
      </trkpt>
      <trkpt lat="42.98171" lon="0.53737">
        <ele>1540.31</ele>
        <time>2021-02-27T10:33:54Z</time>
      </trkpt>
      <trkpt lat="42.98171" lon="0.53737">
        <ele>1540.31</ele>
        <time>2021-02-27T10:33:56Z</time>
      </trkpt>
      <trkpt lat="42.98171" lon="0.53737">
        <ele>1540.315</ele>
        <time>2021-02-27T10:33:58Z</time>
      </trkpt>
      <trkpt lat="42.98171" lon="0.53738">
        <ele>1540.219</ele>
        <time>2021-02-27T10:34:00Z</time>
      </trkpt>
      <trkpt lat="42.98171" lon="0.53739">
        <ele>1540.211</ele>
        <time>2021-02-27T10:34:02Z</time>
      </trkpt>
      <trkpt lat="42.9817" lon="0.5374">
        <ele>1540.607</ele>
        <time>2021-02-27T10:34:04Z</time>
      </trkpt>
      <trkpt lat="42.98169" lon="0.5374">
        <ele>1540.425</ele>
        <time>2021-02-27T10:34:06Z</time>
      </trkpt>
      <trkpt lat="42.98169" lon="0.5374">
        <ele>1540.354</ele>
        <time>2021-02-27T10:34:08Z</time>
      </trkpt>
      <trkpt lat="42.98169" lon="0.53742">
        <ele>1540.672</ele>
        <time>2021-02-27T10:34:10Z</time>
      </trkpt>
      <trkpt lat="42.98168" lon="0.53743">
        <ele>1540.89</ele>
        <time>2021-02-27T10:34:12Z</time>
      </trkpt>
      <trkpt lat="42.98167" lon="0.53744">
        <ele>1540.869</ele>
        <time>2021-02-27T10:34:14Z</time>
      </trkpt>
      <trkpt lat="42.98167" lon="0.53744">
        <ele>1540.922</ele>
        <time>2021-02-27T10:34:16Z</time>
      </trkpt>
      <trkpt lat="42.98166" lon="0.53745">
        <ele>1541.429</ele>
        <time>2021-02-27T10:34:18Z</time>
      </trkpt>
      <trkpt lat="42.98165" lon="0.53746">
        <ele>1541.668</ele>
        <time>2021-02-27T10:34:20Z</time>
      </trkpt>
      <trkpt lat="42.98165" lon="0.53746">
        <ele>1541.943</ele>
        <time>2021-02-27T10:34:22Z</time>
      </trkpt>
      <trkpt lat="42.98166" lon="0.53746">
        <ele>1541.948</ele>
        <time>2021-02-27T10:34:24Z</time>
      </trkpt>
      <trkpt lat="42.98166" lon="0.53746">
        <ele>1541.95</ele>
        <time>2021-02-27T10:34:26Z</time>
      </trkpt>
      <trkpt lat="42.98166" lon="0.53746">
        <ele>1541.95</ele>
        <time>2021-02-27T10:34:28Z</time>
      </trkpt>
      <trkpt lat="42.98166" lon="0.53746">
        <ele>1541.948</ele>
        <time>2021-02-27T10:34:30Z</time>
      </trkpt>
      <trkpt lat="42.98166" lon="0.53746">
        <ele>1541.948</ele>
        <time>2021-02-27T10:34:31Z</time>
      </trkpt>
      <trkpt lat="42.98166" lon="0.53746">
        <ele>1541.925</ele>
        <time>2021-02-27T10:34:34Z</time>
      </trkpt>
      <trkpt lat="42.98166" lon="0.53746">
        <ele>1541.928</ele>
        <time>2021-02-27T10:34:36Z</time>
      </trkpt>
      <trkpt lat="42.98166" lon="0.53746">
        <ele>1541.928</ele>
        <time>2021-02-27T10:34:38Z</time>
      </trkpt>
      <trkpt lat="42.98165" lon="0.53746">
        <ele>1541.931</ele>
        <time>2021-02-27T10:34:40Z</time>
      </trkpt>
      <trkpt lat="42.98165" lon="0.53746">
        <ele>1541.928</ele>
        <time>2021-02-27T10:34:42Z</time>
      </trkpt>
      <trkpt lat="42.98165" lon="0.53746">
        <ele>1541.933</ele>
        <time>2021-02-27T10:34:44Z</time>
      </trkpt>
      <trkpt lat="42.98165" lon="0.53746">
        <ele>1541.935</ele>
        <time>2021-02-27T10:34:46Z</time>
      </trkpt>
      <trkpt lat="42.98165" lon="0.53746">
        <ele>1541.936</ele>
        <time>2021-02-27T10:34:48Z</time>
      </trkpt>
      <trkpt lat="42.98165" lon="0.53746">
        <ele>1541.852</ele>
        <time>2021-02-27T10:34:50Z</time>
      </trkpt>
      <trkpt lat="42.98165" lon="0.53746">
        <ele>1541.852</ele>
        <time>2021-02-27T10:34:52Z</time>
      </trkpt>
      <trkpt lat="42.98165" lon="0.53746">
        <ele>1541.858</ele>
        <time>2021-02-27T10:34:54Z</time>
      </trkpt>
      <trkpt lat="42.98165" lon="0.53745">
        <ele>1541.939</ele>
        <time>2021-02-27T10:34:56Z</time>
      </trkpt>
      <trkpt lat="42.98165" lon="0.53745">
        <ele>1541.941</ele>
        <time>2021-02-27T10:34:58Z</time>
      </trkpt>
      <trkpt lat="42.98165" lon="0.53745">
        <ele>1541.943</ele>
        <time>2021-02-27T10:35:00Z</time>
      </trkpt>
      <trkpt lat="42.98165" lon="0.53745">
        <ele>1541.981</ele>
        <time>2021-02-27T10:35:02Z</time>
      </trkpt>
      <trkpt lat="42.98165" lon="0.53745">
        <ele>1541.966</ele>
        <time>2021-02-27T10:35:04Z</time>
      </trkpt>
      <trkpt lat="42.98165" lon="0.53745">
        <ele>1541.962</ele>
        <time>2021-02-27T10:35:06Z</time>
      </trkpt>
      <trkpt lat="42.98165" lon="0.53745">
        <ele>1541.961</ele>
        <time>2021-02-27T10:35:08Z</time>
      </trkpt>
      <trkpt lat="42.98165" lon="0.53745">
        <ele>1541.963</ele>
        <time>2021-02-27T10:35:10Z</time>
      </trkpt>
      <trkpt lat="42.98165" lon="0.53745">
        <ele>1541.963</ele>
        <time>2021-02-27T10:35:12Z</time>
      </trkpt>
      <trkpt lat="42.98165" lon="0.53745">
        <ele>1541.963</ele>
        <time>2021-02-27T10:35:14Z</time>
      </trkpt>
      <trkpt lat="42.98165" lon="0.53745">
        <ele>1541.961</ele>
        <time>2021-02-27T10:35:16Z</time>
      </trkpt>
      <trkpt lat="42.98165" lon="0.53745">
        <ele>1541.962</ele>
        <time>2021-02-27T10:35:18Z</time>
      </trkpt>
      <trkpt lat="42.98165" lon="0.53745">
        <ele>1541.962</ele>
        <time>2021-02-27T10:35:20Z</time>
      </trkpt>
      <trkpt lat="42.98165" lon="0.53746">
        <ele>1541.85</ele>
        <time>2021-02-27T10:35:22Z</time>
      </trkpt>
      <trkpt lat="42.98164" lon="0.53747">
        <ele>1542.508</ele>
        <time>2021-02-27T10:35:24Z</time>
      </trkpt>
      <trkpt lat="42.98164" lon="0.53747">
        <ele>1542.85</ele>
        <time>2021-02-27T10:35:26Z</time>
      </trkpt>
      <trkpt lat="42.98164" lon="0.53747">
        <ele>1542.851</ele>
        <time>2021-02-27T10:35:28Z</time>
      </trkpt>
      <trkpt lat="42.98164" lon="0.53747">
        <ele>1542.856</ele>
        <time>2021-02-27T10:35:30Z</time>
      </trkpt>
      <trkpt lat="42.98164" lon="0.53747">
        <ele>1542.858</ele>
        <time>2021-02-27T10:35:32Z</time>
      </trkpt>
      <trkpt lat="42.98164" lon="0.53747">
        <ele>1542.861</ele>
        <time>2021-02-27T10:35:34Z</time>
      </trkpt>
      <trkpt lat="42.98164" lon="0.53747">
        <ele>1543.049</ele>
        <time>2021-02-27T10:35:36Z</time>
      </trkpt>
      <trkpt lat="42.98164" lon="0.53747">
        <ele>1543.097</ele>
        <time>2021-02-27T10:35:38Z</time>
      </trkpt>
      <trkpt lat="42.98164" lon="0.53747">
        <ele>1543.104</ele>
        <time>2021-02-27T10:35:40Z</time>
      </trkpt>
      <trkpt lat="42.98164" lon="0.53747">
        <ele>1543.102</ele>
        <time>2021-02-27T10:35:42Z</time>
      </trkpt>
      <trkpt lat="42.98164" lon="0.53747">
        <ele>1543.098</ele>
        <time>2021-02-27T10:35:44Z</time>
      </trkpt>
      <trkpt lat="42.98163" lon="0.53748">
        <ele>1542.948</ele>
        <time>2021-02-27T10:35:46Z</time>
      </trkpt>
      <trkpt lat="42.98162" lon="0.53748">
        <ele>1543.462</ele>
        <time>2021-02-27T10:35:48Z</time>
      </trkpt>
      <trkpt lat="42.98161" lon="0.53749">
        <ele>1543.815</ele>
        <time>2021-02-27T10:35:50Z</time>
      </trkpt>
      <trkpt lat="42.9816" lon="0.5375">
        <ele>1543.778</ele>
        <time>2021-02-27T10:35:52Z</time>
      </trkpt>
      <trkpt lat="42.9816" lon="0.53751">
        <ele>1543.634</ele>
        <time>2021-02-27T10:35:54Z</time>
      </trkpt>
      <trkpt lat="42.98159" lon="0.53752">
        <ele>1544.194</ele>
        <time>2021-02-27T10:35:56Z</time>
      </trkpt>
      <trkpt lat="42.98159" lon="0.53752">
        <ele>1544.093</ele>
        <time>2021-02-27T10:35:58Z</time>
      </trkpt>
      <trkpt lat="42.98159" lon="0.53752">
        <ele>1544.09</ele>
        <time>2021-02-27T10:36:00Z</time>
      </trkpt>
      <trkpt lat="42.98159" lon="0.53752">
        <ele>1544.084</ele>
        <time>2021-02-27T10:36:02Z</time>
      </trkpt>
      <trkpt lat="42.98159" lon="0.53752">
        <ele>1544.088</ele>
        <time>2021-02-27T10:36:04Z</time>
      </trkpt>
      <trkpt lat="42.98159" lon="0.53752">
        <ele>1544.083</ele>
        <time>2021-02-27T10:36:06Z</time>
      </trkpt>
      <trkpt lat="42.98159" lon="0.53752">
        <ele>1544.084</ele>
        <time>2021-02-27T10:36:08Z</time>
      </trkpt>
      <trkpt lat="42.98159" lon="0.53752">
        <ele>1544.056</ele>
        <time>2021-02-27T10:36:10Z</time>
      </trkpt>
      <trkpt lat="42.98159" lon="0.53752">
        <ele>1544.057</ele>
        <time>2021-02-27T10:36:12Z</time>
      </trkpt>
      <trkpt lat="42.98158" lon="0.53752">
        <ele>1544.053</ele>
        <time>2021-02-27T10:36:14Z</time>
      </trkpt>
      <trkpt lat="42.98158" lon="0.53752">
        <ele>1544.05</ele>
        <time>2021-02-27T10:36:16Z</time>
      </trkpt>
      <trkpt lat="42.98158" lon="0.53752">
        <ele>1543.93</ele>
        <time>2021-02-27T10:36:18Z</time>
      </trkpt>
      <trkpt lat="42.98158" lon="0.53753">
        <ele>1543.604</ele>
        <time>2021-02-27T10:36:20Z</time>
      </trkpt>
      <trkpt lat="42.98157" lon="0.53754">
        <ele>1543.536</ele>
        <time>2021-02-27T10:36:22Z</time>
      </trkpt>
      <trkpt lat="42.98156" lon="0.53755">
        <ele>1543.809</ele>
        <time>2021-02-27T10:36:24Z</time>
      </trkpt>
      <trkpt lat="42.98156" lon="0.53756">
        <ele>1544.073</ele>
        <time>2021-02-27T10:36:26Z</time>
      </trkpt>
      <trkpt lat="42.98155" lon="0.53758">
        <ele>1544.383</ele>
        <time>2021-02-27T10:36:28Z</time>
      </trkpt>
      <trkpt lat="42.98154" lon="0.53759">
        <ele>1544.274</ele>
        <time>2021-02-27T10:36:30Z</time>
      </trkpt>
      <trkpt lat="42.98153" lon="0.53761">
        <ele>1544.504</ele>
        <time>2021-02-27T10:36:32Z</time>
      </trkpt>
      <trkpt lat="42.98153" lon="0.53763">
        <ele>1544.243</ele>
        <time>2021-02-27T10:36:34Z</time>
      </trkpt>
      <trkpt lat="42.98152" lon="0.53765">
        <ele>1543.934</ele>
        <time>2021-02-27T10:36:36Z</time>
      </trkpt>
      <trkpt lat="42.98151" lon="0.53767">
        <ele>1543.091</ele>
        <time>2021-02-27T10:36:38Z</time>
      </trkpt>
      <trkpt lat="42.98151" lon="0.53769">
        <ele>1543.237</ele>
        <time>2021-02-27T10:36:40Z</time>
      </trkpt>
      <trkpt lat="42.9815" lon="0.53769">
        <ele>1543.047</ele>
        <time>2021-02-27T10:36:42Z</time>
      </trkpt>
      <trkpt lat="42.9815" lon="0.53769">
        <ele>1543.041</ele>
        <time>2021-02-27T10:36:44Z</time>
      </trkpt>
      <trkpt lat="42.9815" lon="0.53769">
        <ele>1543.037</ele>
        <time>2021-02-27T10:36:46Z</time>
      </trkpt>
      <trkpt lat="42.9815" lon="0.5377">
        <ele>1543.157</ele>
        <time>2021-02-27T10:36:48Z</time>
      </trkpt>
      <trkpt lat="42.9815" lon="0.5377">
        <ele>1543.158</ele>
        <time>2021-02-27T10:36:50Z</time>
      </trkpt>
      <trkpt lat="42.98151" lon="0.5377">
        <ele>1542.898</ele>
        <time>2021-02-27T10:36:52Z</time>
      </trkpt>
      <trkpt lat="42.98152" lon="0.53769">
        <ele>1542.731</ele>
        <time>2021-02-27T10:36:54Z</time>
      </trkpt>
      <trkpt lat="42.98151" lon="0.53769">
        <ele>1542.915</ele>
        <time>2021-02-27T10:36:56Z</time>
      </trkpt>
      <trkpt lat="42.98151" lon="0.53768">
        <ele>1542.445</ele>
        <time>2021-02-27T10:36:58Z</time>
      </trkpt>
      <trkpt lat="42.9815" lon="0.53767">
        <ele>1542.378</ele>
        <time>2021-02-27T10:37:00Z</time>
      </trkpt>
      <trkpt lat="42.98151" lon="0.53766">
        <ele>1542.178</ele>
        <time>2021-02-27T10:37:02Z</time>
      </trkpt>
      <trkpt lat="42.98151" lon="0.53764">
        <ele>1541.64</ele>
        <time>2021-02-27T10:37:04Z</time>
      </trkpt>
      <trkpt lat="42.98153" lon="0.53764">
        <ele>1541.817</ele>
        <time>2021-02-27T10:37:06Z</time>
      </trkpt>
      <trkpt lat="42.98154" lon="0.53763">
        <ele>1542.196</ele>
        <time>2021-02-27T10:37:08Z</time>
      </trkpt>
      <trkpt lat="42.98155" lon="0.5376">
        <ele>1541.639</ele>
        <time>2021-02-27T10:37:10Z</time>
      </trkpt>
      <trkpt lat="42.98155" lon="0.5376">
        <ele>1541.844</ele>
        <time>2021-02-27T10:37:12Z</time>
      </trkpt>
      <trkpt lat="42.98155" lon="0.5376">
        <ele>1541.844</ele>
        <time>2021-02-27T10:37:14Z</time>
      </trkpt>
      <trkpt lat="42.98155" lon="0.5376">
        <ele>1541.839</ele>
        <time>2021-02-27T10:37:16Z</time>
      </trkpt>
      <trkpt lat="42.98154" lon="0.5376">
        <ele>1541.248</ele>
        <time>2021-02-27T10:37:18Z</time>
      </trkpt>
      <trkpt lat="42.98152" lon="0.53759">
        <ele>1541.284</ele>
        <time>2021-02-27T10:37:20Z</time>
      </trkpt>
      <trkpt lat="42.98152" lon="0.53759">
        <ele>1541.28</ele>
        <time>2021-02-27T10:37:22Z</time>
      </trkpt>
      <trkpt lat="42.98152" lon="0.53759">
        <ele>1541.275</ele>
        <time>2021-02-27T10:37:24Z</time>
      </trkpt>
      <trkpt lat="42.98152" lon="0.53759">
        <ele>1541.275</ele>
        <time>2021-02-27T10:37:26Z</time>
      </trkpt>
      <trkpt lat="42.98152" lon="0.53759">
        <ele>1541.273</ele>
        <time>2021-02-27T10:37:28Z</time>
      </trkpt>
      <trkpt lat="42.98152" lon="0.53759">
        <ele>1541.264</ele>
        <time>2021-02-27T10:37:30Z</time>
      </trkpt>
      <trkpt lat="42.98152" lon="0.53759">
        <ele>1541.26</ele>
        <time>2021-02-27T10:37:32Z</time>
      </trkpt>
      <trkpt lat="42.98152" lon="0.53759">
        <ele>1541.214</ele>
        <time>2021-02-27T10:37:34Z</time>
      </trkpt>
      <trkpt lat="42.98152" lon="0.53759">
        <ele>1541.209</ele>
        <time>2021-02-27T10:37:36Z</time>
      </trkpt>
      <trkpt lat="42.98152" lon="0.53759">
        <ele>1541.208</ele>
        <time>2021-02-27T10:37:38Z</time>
      </trkpt>
      <trkpt lat="42.98152" lon="0.53759">
        <ele>1541.212</ele>
        <time>2021-02-27T10:37:40Z</time>
      </trkpt>
      <trkpt lat="42.98152" lon="0.53759">
        <ele>1541.213</ele>
        <time>2021-02-27T10:37:42Z</time>
      </trkpt>
      <trkpt lat="42.98152" lon="0.53759">
        <ele>1541.482</ele>
        <time>2021-02-27T10:37:44Z</time>
      </trkpt>
      <trkpt lat="42.98152" lon="0.53759">
        <ele>1541.47</ele>
        <time>2021-02-27T10:37:46Z</time>
      </trkpt>
      <trkpt lat="42.98152" lon="0.53759">
        <ele>1541.468</ele>
        <time>2021-02-27T10:37:48Z</time>
      </trkpt>
      <trkpt lat="42.98152" lon="0.53759">
        <ele>1541.478</ele>
        <time>2021-02-27T10:37:50Z</time>
      </trkpt>
      <trkpt lat="42.98152" lon="0.53759">
        <ele>1541.489</ele>
        <time>2021-02-27T10:37:52Z</time>
      </trkpt>
      <trkpt lat="42.98152" lon="0.53759">
        <ele>1541.484</ele>
        <time>2021-02-27T10:37:54Z</time>
      </trkpt>
      <trkpt lat="42.98152" lon="0.5376">
        <ele>1541.116</ele>
        <time>2021-02-27T10:37:56Z</time>
      </trkpt>
      <trkpt lat="42.98153" lon="0.53759">
        <ele>1540.7</ele>
        <time>2021-02-27T10:37:58Z</time>
      </trkpt>
      <trkpt lat="42.98154" lon="0.5376">
        <ele>1540.711</ele>
        <time>2021-02-27T10:38:00Z</time>
      </trkpt>
      <trkpt lat="42.98154" lon="0.5376">
        <ele>1540.712</ele>
        <time>2021-02-27T10:38:02Z</time>
      </trkpt>
      <trkpt lat="42.98154" lon="0.5376">
        <ele>1540.714</ele>
        <time>2021-02-27T10:38:04Z</time>
      </trkpt>
      <trkpt lat="42.98154" lon="0.5376">
        <ele>1540.716</ele>
        <time>2021-02-27T10:38:06Z</time>
      </trkpt>
      <trkpt lat="42.98154" lon="0.5376">
        <ele>1540.72</ele>
        <time>2021-02-27T10:38:08Z</time>
      </trkpt>
      <trkpt lat="42.98153" lon="0.5376">
        <ele>1541.025</ele>
        <time>2021-02-27T10:38:10Z</time>
      </trkpt>
      <trkpt lat="42.98152" lon="0.5376">
        <ele>1541.765</ele>
        <time>2021-02-27T10:38:12Z</time>
      </trkpt>
      <trkpt lat="42.98152" lon="0.5376">
        <ele>1541.769</ele>
        <time>2021-02-27T10:38:14Z</time>
      </trkpt>
      <trkpt lat="42.98152" lon="0.5376">
        <ele>1541.768</ele>
        <time>2021-02-27T10:38:16Z</time>
      </trkpt>
      <trkpt lat="42.98152" lon="0.53761">
        <ele>1541.34</ele>
        <time>2021-02-27T10:38:18Z</time>
      </trkpt>
      <trkpt lat="42.98152" lon="0.53761">
        <ele>1541.15</ele>
        <time>2021-02-27T10:38:20Z</time>
      </trkpt>
      <trkpt lat="42.98151" lon="0.53761">
        <ele>1541.416</ele>
        <time>2021-02-27T10:38:22Z</time>
      </trkpt>
      <trkpt lat="42.98152" lon="0.53761">
        <ele>1541.411</ele>
        <time>2021-02-27T10:38:24Z</time>
      </trkpt>
      <trkpt lat="42.98152" lon="0.53762">
        <ele>1541.493</ele>
        <time>2021-02-27T10:38:26Z</time>
      </trkpt>
      <trkpt lat="42.98152" lon="0.53762">
        <ele>1541.98</ele>
        <time>2021-02-27T10:38:28Z</time>
      </trkpt>
      <trkpt lat="42.98152" lon="0.53761">
        <ele>1542.214</ele>
        <time>2021-02-27T10:38:30Z</time>
      </trkpt>
      <trkpt lat="42.9815" lon="0.53757">
        <ele>1542.493</ele>
        <time>2021-02-27T10:38:32Z</time>
      </trkpt>
      <trkpt lat="42.98151" lon="0.53759">
        <ele>1542.547</ele>
        <time>2021-02-27T10:38:34Z</time>
      </trkpt>
      <trkpt lat="42.98151" lon="0.53759">
        <ele>1542.553</ele>
        <time>2021-02-27T10:38:36Z</time>
      </trkpt>
      <trkpt lat="42.98151" lon="0.53759">
        <ele>1542.559</ele>
        <time>2021-02-27T10:38:38Z</time>
      </trkpt>
      <trkpt lat="42.98151" lon="0.53759">
        <ele>1542.568</ele>
        <time>2021-02-27T10:38:40Z</time>
      </trkpt>
      <trkpt lat="42.98151" lon="0.53759">
        <ele>1542.575</ele>
        <time>2021-02-27T10:38:42Z</time>
      </trkpt>
      <trkpt lat="42.98151" lon="0.53759">
        <ele>1542.316</ele>
        <time>2021-02-27T10:38:44Z</time>
      </trkpt>
      <trkpt lat="42.98151" lon="0.53759">
        <ele>1542.32</ele>
        <time>2021-02-27T10:38:46Z</time>
      </trkpt>
      <trkpt lat="42.98151" lon="0.53759">
        <ele>1542.322</ele>
        <time>2021-02-27T10:38:48Z</time>
      </trkpt>
      <trkpt lat="42.98151" lon="0.53759">
        <ele>1542.321</ele>
        <time>2021-02-27T10:38:50Z</time>
      </trkpt>
      <trkpt lat="42.98151" lon="0.53759">
        <ele>1542.328</ele>
        <time>2021-02-27T10:38:52Z</time>
      </trkpt>
      <trkpt lat="42.98151" lon="0.53759">
        <ele>1542.334</ele>
        <time>2021-02-27T10:38:54Z</time>
      </trkpt>
      <trkpt lat="42.98151" lon="0.53759">
        <ele>1542.804</ele>
        <time>2021-02-27T10:38:56Z</time>
      </trkpt>
      <trkpt lat="42.98152" lon="0.53759">
        <ele>1543.373</ele>
        <time>2021-02-27T10:38:58Z</time>
      </trkpt>
      <trkpt lat="42.98152" lon="0.53758">
        <ele>1542.921</ele>
        <time>2021-02-27T10:39:00Z</time>
      </trkpt>
      <trkpt lat="42.98153" lon="0.53758">
        <ele>1543.159</ele>
        <time>2021-02-27T10:39:02Z</time>
      </trkpt>
      <trkpt lat="42.98153" lon="0.53758">
        <ele>1543.154</ele>
        <time>2021-02-27T10:39:04Z</time>
      </trkpt>
      <trkpt lat="42.98153" lon="0.53758">
        <ele>1543.356</ele>
        <time>2021-02-27T10:39:06Z</time>
      </trkpt>
      <trkpt lat="42.98154" lon="0.53758">
        <ele>1543.329</ele>
        <time>2021-02-27T10:39:08Z</time>
      </trkpt>
      <trkpt lat="42.98154" lon="0.53758">
        <ele>1543.367</ele>
        <time>2021-02-27T10:39:10Z</time>
      </trkpt>
      <trkpt lat="42.98154" lon="0.53757">
        <ele>1543.32</ele>
        <time>2021-02-27T10:39:12Z</time>
      </trkpt>
      <trkpt lat="42.98154" lon="0.53757">
        <ele>1543.143</ele>
        <time>2021-02-27T10:39:14Z</time>
      </trkpt>
      <trkpt lat="42.98154" lon="0.53757">
        <ele>1543.356</ele>
        <time>2021-02-27T10:39:16Z</time>
      </trkpt>
      <trkpt lat="42.98154" lon="0.53757">
        <ele>1543.291</ele>
        <time>2021-02-27T10:39:18Z</time>
      </trkpt>
      <trkpt lat="42.98154" lon="0.53757">
        <ele>1543.317</ele>
        <time>2021-02-27T10:39:20Z</time>
      </trkpt>
      <trkpt lat="42.98154" lon="0.53757">
        <ele>1543.256</ele>
        <time>2021-02-27T10:39:22Z</time>
      </trkpt>
      <trkpt lat="42.98154" lon="0.53757">
        <ele>1543.211</ele>
        <time>2021-02-27T10:39:24Z</time>
      </trkpt>
      <trkpt lat="42.98153" lon="0.53757">
        <ele>1543.164</ele>
        <time>2021-02-27T10:39:26Z</time>
      </trkpt>
      <trkpt lat="42.98154" lon="0.53758">
        <ele>1542.714</ele>
        <time>2021-02-27T10:39:28Z</time>
      </trkpt>
      <trkpt lat="42.98154" lon="0.53759">
        <ele>1542.715</ele>
        <time>2021-02-27T10:39:30Z</time>
      </trkpt>
      <trkpt lat="42.98154" lon="0.53759">
        <ele>1542.717</ele>
        <time>2021-02-27T10:39:32Z</time>
      </trkpt>
      <trkpt lat="42.98154" lon="0.53759">
        <ele>1542.718</ele>
        <time>2021-02-27T10:39:34Z</time>
      </trkpt>
      <trkpt lat="42.98154" lon="0.53759">
        <ele>1542.72</ele>
        <time>2021-02-27T10:39:36Z</time>
      </trkpt>
      <trkpt lat="42.98154" lon="0.53759">
        <ele>1542.724</ele>
        <time>2021-02-27T10:39:38Z</time>
      </trkpt>
      <trkpt lat="42.98154" lon="0.53759">
        <ele>1542.724</ele>
        <time>2021-02-27T10:39:40Z</time>
      </trkpt>
      <trkpt lat="42.98154" lon="0.53758">
        <ele>1542.676</ele>
        <time>2021-02-27T10:39:42Z</time>
      </trkpt>
      <trkpt lat="42.98154" lon="0.53758">
        <ele>1543.153</ele>
        <time>2021-02-27T10:39:44Z</time>
      </trkpt>
      <trkpt lat="42.98154" lon="0.53758">
        <ele>1543.017</ele>
        <time>2021-02-27T10:39:46Z</time>
      </trkpt>
      <trkpt lat="42.98154" lon="0.53758">
        <ele>1543.013</ele>
        <time>2021-02-27T10:39:48Z</time>
      </trkpt>
      <trkpt lat="42.98154" lon="0.53758">
        <ele>1543.016</ele>
        <time>2021-02-27T10:39:50Z</time>
      </trkpt>
      <trkpt lat="42.98154" lon="0.53758">
        <ele>1543.019</ele>
        <time>2021-02-27T10:39:52Z</time>
      </trkpt>
      <trkpt lat="42.98154" lon="0.53758">
        <ele>1543.022</ele>
        <time>2021-02-27T10:39:54Z</time>
      </trkpt>
      <trkpt lat="42.98154" lon="0.53759">
        <ele>1542.744</ele>
        <time>2021-02-27T10:39:56Z</time>
      </trkpt>
      <trkpt lat="42.98154" lon="0.53759">
        <ele>1542.975</ele>
        <time>2021-02-27T10:39:58Z</time>
      </trkpt>
      <trkpt lat="42.98154" lon="0.53759">
        <ele>1542.861</ele>
        <time>2021-02-27T10:40:00Z</time>
      </trkpt>
      <trkpt lat="42.98154" lon="0.53759">
        <ele>1542.662</ele>
        <time>2021-02-27T10:40:02Z</time>
      </trkpt>
      <trkpt lat="42.98155" lon="0.53758">
        <ele>1542.797</ele>
        <time>2021-02-27T10:40:04Z</time>
      </trkpt>
      <trkpt lat="42.98155" lon="0.53758">
        <ele>1542.803</ele>
        <time>2021-02-27T10:40:06Z</time>
      </trkpt>
      <trkpt lat="42.98156" lon="0.53759">
        <ele>1543.17</ele>
        <time>2021-02-27T10:40:08Z</time>
      </trkpt>
      <trkpt lat="42.98156" lon="0.53759">
        <ele>1543.519</ele>
        <time>2021-02-27T10:40:10Z</time>
      </trkpt>
      <trkpt lat="42.98156" lon="0.53759">
        <ele>1543.513</ele>
        <time>2021-02-27T10:40:12Z</time>
      </trkpt>
      <trkpt lat="42.98156" lon="0.53758">
        <ele>1542.985</ele>
        <time>2021-02-27T10:40:14Z</time>
      </trkpt>
      <trkpt lat="42.98155" lon="0.53758">
        <ele>1542.456</ele>
        <time>2021-02-27T10:40:16Z</time>
      </trkpt>
      <trkpt lat="42.98155" lon="0.53759">
        <ele>1542.674</ele>
        <time>2021-02-27T10:40:18Z</time>
      </trkpt>
      <trkpt lat="42.98155" lon="0.53759">
        <ele>1542.669</ele>
        <time>2021-02-27T10:40:20Z</time>
      </trkpt>
      <trkpt lat="42.98155" lon="0.53759">
        <ele>1542.665</ele>
        <time>2021-02-27T10:40:22Z</time>
      </trkpt>
      <trkpt lat="42.98155" lon="0.53759">
        <ele>1542.658</ele>
        <time>2021-02-27T10:40:24Z</time>
      </trkpt>
      <trkpt lat="42.98155" lon="0.53759">
        <ele>1542.657</ele>
        <time>2021-02-27T10:40:26Z</time>
      </trkpt>
      <trkpt lat="42.98155" lon="0.53759">
        <ele>1542.657</ele>
        <time>2021-02-27T10:40:28Z</time>
      </trkpt>
      <trkpt lat="42.98155" lon="0.53759">
        <ele>1542.659</ele>
        <time>2021-02-27T10:40:30Z</time>
      </trkpt>
      <trkpt lat="42.98155" lon="0.53759">
        <ele>1542.662</ele>
        <time>2021-02-27T10:40:32Z</time>
      </trkpt>
      <trkpt lat="42.98155" lon="0.53759">
        <ele>1542.665</ele>
        <time>2021-02-27T10:40:34Z</time>
      </trkpt>
      <trkpt lat="42.98155" lon="0.53759">
        <ele>1542.667</ele>
        <time>2021-02-27T10:40:36Z</time>
      </trkpt>
      <trkpt lat="42.98155" lon="0.53759">
        <ele>1542.669</ele>
        <time>2021-02-27T10:40:38Z</time>
      </trkpt>
      <trkpt lat="42.98155" lon="0.53759">
        <ele>1542.668</ele>
        <time>2021-02-27T10:40:40Z</time>
      </trkpt>
      <trkpt lat="42.98155" lon="0.53759">
        <ele>1543.211</ele>
        <time>2021-02-27T10:40:42Z</time>
      </trkpt>
      <trkpt lat="42.98156" lon="0.53759">
        <ele>1543.392</ele>
        <time>2021-02-27T10:40:44Z</time>
      </trkpt>
      <trkpt lat="42.98156" lon="0.53759">
        <ele>1543.242</ele>
        <time>2021-02-27T10:40:46Z</time>
      </trkpt>
      <trkpt lat="42.98156" lon="0.53759">
        <ele>1543.248</ele>
        <time>2021-02-27T10:40:48Z</time>
      </trkpt>
      <trkpt lat="42.98156" lon="0.53759">
        <ele>1542.796</ele>
        <time>2021-02-27T10:40:50Z</time>
      </trkpt>
      <trkpt lat="42.98156" lon="0.5376">
        <ele>1542.864</ele>
        <time>2021-02-27T10:40:52Z</time>
      </trkpt>
      <trkpt lat="42.98155" lon="0.5376">
        <ele>1542.843</ele>
        <time>2021-02-27T10:40:54Z</time>
      </trkpt>
      <trkpt lat="42.98155" lon="0.5376">
        <ele>1542.251</ele>
        <time>2021-02-27T10:40:56Z</time>
      </trkpt>
      <trkpt lat="42.98155" lon="0.53761">
        <ele>1542.342</ele>
        <time>2021-02-27T10:40:58Z</time>
      </trkpt>
      <trkpt lat="42.98155" lon="0.5376">
        <ele>1541.887</ele>
        <time>2021-02-27T10:41:00Z</time>
      </trkpt>
      <trkpt lat="42.98155" lon="0.5376">
        <ele>1541.889</ele>
        <time>2021-02-27T10:41:02Z</time>
      </trkpt>
      <trkpt lat="42.98155" lon="0.5376">
        <ele>1541.889</ele>
        <time>2021-02-27T10:41:04Z</time>
      </trkpt>
      <trkpt lat="42.98155" lon="0.5376">
        <ele>1541.891</ele>
        <time>2021-02-27T10:41:06Z</time>
      </trkpt>
      <trkpt lat="42.98155" lon="0.5376">
        <ele>1541.397</ele>
        <time>2021-02-27T10:41:08Z</time>
      </trkpt>
      <trkpt lat="42.98156" lon="0.53759">
        <ele>1540.982</ele>
        <time>2021-02-27T10:41:10Z</time>
      </trkpt>
      <trkpt lat="42.98156" lon="0.53759">
        <ele>1541.015</ele>
        <time>2021-02-27T10:41:12Z</time>
      </trkpt>
      <trkpt lat="42.98156" lon="0.53759">
        <ele>1541.012</ele>
        <time>2021-02-27T10:41:14Z</time>
      </trkpt>
      <trkpt lat="42.98156" lon="0.53759">
        <ele>1541.019</ele>
        <time>2021-02-27T10:41:16Z</time>
      </trkpt>
      <trkpt lat="42.98156" lon="0.53759">
        <ele>1541.021</ele>
        <time>2021-02-27T10:41:18Z</time>
      </trkpt>
      <trkpt lat="42.98156" lon="0.53759">
        <ele>1541.022</ele>
        <time>2021-02-27T10:41:20Z</time>
      </trkpt>
      <trkpt lat="42.98156" lon="0.53759">
        <ele>1541.027</ele>
        <time>2021-02-27T10:41:22Z</time>
      </trkpt>
      <trkpt lat="42.98156" lon="0.53759">
        <ele>1541.029</ele>
        <time>2021-02-27T10:41:24Z</time>
      </trkpt>
      <trkpt lat="42.98156" lon="0.53759">
        <ele>1541.033</ele>
        <time>2021-02-27T10:41:26Z</time>
      </trkpt>
      <trkpt lat="42.98156" lon="0.53759">
        <ele>1541.037</ele>
        <time>2021-02-27T10:41:28Z</time>
      </trkpt>
      <trkpt lat="42.98156" lon="0.53758">
        <ele>1540.938</ele>
        <time>2021-02-27T10:41:30Z</time>
      </trkpt>
      <trkpt lat="42.98155" lon="0.53759">
        <ele>1540.705</ele>
        <time>2021-02-27T10:41:32Z</time>
      </trkpt>
      <trkpt lat="42.98154" lon="0.5376">
        <ele>1540.979</ele>
        <time>2021-02-27T10:41:34Z</time>
      </trkpt>
      <trkpt lat="42.98153" lon="0.5376">
        <ele>1540.769</ele>
        <time>2021-02-27T10:41:36Z</time>
      </trkpt>
      <trkpt lat="42.98153" lon="0.53761">
        <ele>1541.364</ele>
        <time>2021-02-27T10:41:38Z</time>
      </trkpt>
      <trkpt lat="42.98152" lon="0.53761">
        <ele>1541.375</ele>
        <time>2021-02-27T10:41:40Z</time>
      </trkpt>
      <trkpt lat="42.98152" lon="0.53761">
        <ele>1541.383</ele>
        <time>2021-02-27T10:41:42Z</time>
      </trkpt>
      <trkpt lat="42.98152" lon="0.53761">
        <ele>1541.39</ele>
        <time>2021-02-27T10:41:44Z</time>
      </trkpt>
      <trkpt lat="42.98152" lon="0.53761">
        <ele>1541.391</ele>
        <time>2021-02-27T10:41:46Z</time>
      </trkpt>
      <trkpt lat="42.98152" lon="0.53761">
        <ele>1541.39</ele>
        <time>2021-02-27T10:41:48Z</time>
      </trkpt>
      <trkpt lat="42.98152" lon="0.53761">
        <ele>1541.387</ele>
        <time>2021-02-27T10:41:50Z</time>
      </trkpt>
      <trkpt lat="42.98152" lon="0.53761">
        <ele>1541.474</ele>
        <time>2021-02-27T10:41:52Z</time>
      </trkpt>
      <trkpt lat="42.98152" lon="0.53762">
        <ele>1541.939</ele>
        <time>2021-02-27T10:41:54Z</time>
      </trkpt>
      <trkpt lat="42.98153" lon="0.53763">
        <ele>1541.626</ele>
        <time>2021-02-27T10:41:56Z</time>
      </trkpt>
      <trkpt lat="42.98154" lon="0.53763">
        <ele>1541.879</ele>
        <time>2021-02-27T10:41:58Z</time>
      </trkpt>
      <trkpt lat="42.98155" lon="0.53764">
        <ele>1542.789</ele>
        <time>2021-02-27T10:42:00Z</time>
      </trkpt>
      <trkpt lat="42.98156" lon="0.53764">
        <ele>1543.035</ele>
        <time>2021-02-27T10:42:02Z</time>
      </trkpt>
      <trkpt lat="42.98156" lon="0.53764">
        <ele>1543.122</ele>
        <time>2021-02-27T10:42:04Z</time>
      </trkpt>
      <trkpt lat="42.98155" lon="0.53764">
        <ele>1543.119</ele>
        <time>2021-02-27T10:42:06Z</time>
      </trkpt>
      <trkpt lat="42.98155" lon="0.53764">
        <ele>1543.125</ele>
        <time>2021-02-27T10:42:08Z</time>
      </trkpt>
      <trkpt lat="42.98155" lon="0.53764">
        <ele>1543.129</ele>
        <time>2021-02-27T10:42:10Z</time>
      </trkpt>
      <trkpt lat="42.98155" lon="0.53764">
        <ele>1543.134</ele>
        <time>2021-02-27T10:42:12Z</time>
      </trkpt>
      <trkpt lat="42.98155" lon="0.53764">
        <ele>1543.135</ele>
        <time>2021-02-27T10:42:14Z</time>
      </trkpt>
      <trkpt lat="42.98155" lon="0.53764">
        <ele>1543.139</ele>
        <time>2021-02-27T10:42:16Z</time>
      </trkpt>
      <trkpt lat="42.98155" lon="0.53764">
        <ele>1543.143</ele>
        <time>2021-02-27T10:42:18Z</time>
      </trkpt>
      <trkpt lat="42.98155" lon="0.53764">
        <ele>1543.148</ele>
        <time>2021-02-27T10:42:20Z</time>
      </trkpt>
      <trkpt lat="42.98155" lon="0.53764">
        <ele>1543.152</ele>
        <time>2021-02-27T10:42:22Z</time>
      </trkpt>
      <trkpt lat="42.98155" lon="0.53764">
        <ele>1543.155</ele>
        <time>2021-02-27T10:42:24Z</time>
      </trkpt>
      <trkpt lat="42.98155" lon="0.53764">
        <ele>1543.16</ele>
        <time>2021-02-27T10:42:26Z</time>
      </trkpt>
      <trkpt lat="42.98155" lon="0.53764">
        <ele>1543.163</ele>
        <time>2021-02-27T10:42:28Z</time>
      </trkpt>
      <trkpt lat="42.98155" lon="0.53764">
        <ele>1543.167</ele>
        <time>2021-02-27T10:42:30Z</time>
      </trkpt>
      <trkpt lat="42.98155" lon="0.53764">
        <ele>1543.166</ele>
        <time>2021-02-27T10:42:32Z</time>
      </trkpt>
      <trkpt lat="42.98155" lon="0.53764">
        <ele>1543.161</ele>
        <time>2021-02-27T10:42:34Z</time>
      </trkpt>
      <trkpt lat="42.98155" lon="0.53764">
        <ele>1543.156</ele>
        <time>2021-02-27T10:42:36Z</time>
      </trkpt>
      <trkpt lat="42.98155" lon="0.53764">
        <ele>1543.16</ele>
        <time>2021-02-27T10:42:38Z</time>
      </trkpt>
      <trkpt lat="42.98155" lon="0.53764">
        <ele>1543.161</ele>
        <time>2021-02-27T10:42:40Z</time>
      </trkpt>
      <trkpt lat="42.98155" lon="0.53764">
        <ele>1543.164</ele>
        <time>2021-02-27T10:42:42Z</time>
      </trkpt>
      <trkpt lat="42.98155" lon="0.53764">
        <ele>1543.167</ele>
        <time>2021-02-27T10:42:44Z</time>
      </trkpt>
      <trkpt lat="42.98155" lon="0.53764">
        <ele>1543.164</ele>
        <time>2021-02-27T10:42:46Z</time>
      </trkpt>
      <trkpt lat="42.98155" lon="0.53764">
        <ele>1543.162</ele>
        <time>2021-02-27T10:42:48Z</time>
      </trkpt>
      <trkpt lat="42.98155" lon="0.53764">
        <ele>1543.16</ele>
        <time>2021-02-27T10:42:50Z</time>
      </trkpt>
      <trkpt lat="42.98155" lon="0.53764">
        <ele>1543.16</ele>
        <time>2021-02-27T10:42:52Z</time>
      </trkpt>
      <trkpt lat="42.98155" lon="0.53764">
        <ele>1543.166</ele>
        <time>2021-02-27T10:42:54Z</time>
      </trkpt>
      <trkpt lat="42.98155" lon="0.53764">
        <ele>1543.178</ele>
        <time>2021-02-27T10:42:56Z</time>
      </trkpt>
      <trkpt lat="42.98155" lon="0.53764">
        <ele>1543.186</ele>
        <time>2021-02-27T10:42:58Z</time>
      </trkpt>
      <trkpt lat="42.98155" lon="0.53764">
        <ele>1543.197</ele>
        <time>2021-02-27T10:43:00Z</time>
      </trkpt>
      <trkpt lat="42.98155" lon="0.53764">
        <ele>1543.201</ele>
        <time>2021-02-27T10:43:02Z</time>
      </trkpt>
      <trkpt lat="42.98155" lon="0.53764">
        <ele>1543.2</ele>
        <time>2021-02-27T10:43:04Z</time>
      </trkpt>
      <trkpt lat="42.98155" lon="0.53764">
        <ele>1543.204</ele>
        <time>2021-02-27T10:43:06Z</time>
      </trkpt>
      <trkpt lat="42.98155" lon="0.53764">
        <ele>1543.211</ele>
        <time>2021-02-27T10:43:08Z</time>
      </trkpt>
      <trkpt lat="42.98155" lon="0.53764">
        <ele>1543.217</ele>
        <time>2021-02-27T10:43:10Z</time>
      </trkpt>
      <trkpt lat="42.98155" lon="0.53764">
        <ele>1543.221</ele>
        <time>2021-02-27T10:43:12Z</time>
      </trkpt>
      <trkpt lat="42.98155" lon="0.53764">
        <ele>1543.223</ele>
        <time>2021-02-27T10:43:14Z</time>
      </trkpt>
      <trkpt lat="42.98155" lon="0.53764">
        <ele>1543.222</ele>
        <time>2021-02-27T10:43:16Z</time>
      </trkpt>
      <trkpt lat="42.98155" lon="0.53764">
        <ele>1543.22</ele>
        <time>2021-02-27T10:43:18Z</time>
      </trkpt>
      <trkpt lat="42.98155" lon="0.53764">
        <ele>1543.218</ele>
        <time>2021-02-27T10:43:20Z</time>
      </trkpt>
      <trkpt lat="42.98155" lon="0.53764">
        <ele>1543.219</ele>
        <time>2021-02-27T10:43:22Z</time>
      </trkpt>
      <trkpt lat="42.98155" lon="0.53764">
        <ele>1542.993</ele>
        <time>2021-02-27T10:43:24Z</time>
      </trkpt>
      <trkpt lat="42.98155" lon="0.53763">
        <ele>1542.993</ele>
        <time>2021-02-27T10:43:26Z</time>
      </trkpt>
      <trkpt lat="42.98155" lon="0.53763">
        <ele>1542.992</ele>
        <time>2021-02-27T10:43:28Z</time>
      </trkpt>
      <trkpt lat="42.98155" lon="0.53763">
        <ele>1542.996</ele>
        <time>2021-02-27T10:43:30Z</time>
      </trkpt>
      <trkpt lat="42.98155" lon="0.53763">
        <ele>1543.001</ele>
        <time>2021-02-27T10:43:32Z</time>
      </trkpt>
      <trkpt lat="42.98155" lon="0.53763">
        <ele>1543.002</ele>
        <time>2021-02-27T10:43:34Z</time>
      </trkpt>
      <trkpt lat="42.98155" lon="0.53763">
        <ele>1542.993</ele>
        <time>2021-02-27T10:43:36Z</time>
      </trkpt>
      <trkpt lat="42.98155" lon="0.53763">
        <ele>1542.999</ele>
        <time>2021-02-27T10:43:38Z</time>
      </trkpt>
      <trkpt lat="42.98155" lon="0.53763">
        <ele>1543.002</ele>
        <time>2021-02-27T10:43:40Z</time>
      </trkpt>
      <trkpt lat="42.98155" lon="0.53763">
        <ele>1543.001</ele>
        <time>2021-02-27T10:43:42Z</time>
      </trkpt>
      <trkpt lat="42.98155" lon="0.53763">
        <ele>1542.996</ele>
        <time>2021-02-27T10:43:44Z</time>
      </trkpt>
      <trkpt lat="42.98155" lon="0.53763">
        <ele>1542.992</ele>
        <time>2021-02-27T10:43:46Z</time>
      </trkpt>
      <trkpt lat="42.98155" lon="0.53763">
        <ele>1542.999</ele>
        <time>2021-02-27T10:43:48Z</time>
      </trkpt>
      <trkpt lat="42.98155" lon="0.53763">
        <ele>1543.009</ele>
        <time>2021-02-27T10:43:50Z</time>
      </trkpt>
      <trkpt lat="42.98155" lon="0.53764">
        <ele>1543.012</ele>
        <time>2021-02-27T10:43:52Z</time>
      </trkpt>
      <trkpt lat="42.98155" lon="0.53764">
        <ele>1543.046</ele>
        <time>2021-02-27T10:43:54Z</time>
      </trkpt>
      <trkpt lat="42.98155" lon="0.53764">
        <ele>1543.048</ele>
        <time>2021-02-27T10:43:56Z</time>
      </trkpt>
      <trkpt lat="42.98155" lon="0.53764">
        <ele>1543.045</ele>
        <time>2021-02-27T10:43:58Z</time>
      </trkpt>
      <trkpt lat="42.98155" lon="0.53764">
        <ele>1543.042</ele>
        <time>2021-02-27T10:44:00Z</time>
      </trkpt>
      <trkpt lat="42.98155" lon="0.53764">
        <ele>1543.039</ele>
        <time>2021-02-27T10:44:02Z</time>
      </trkpt>
      <trkpt lat="42.98155" lon="0.53764">
        <ele>1543.036</ele>
        <time>2021-02-27T10:44:04Z</time>
      </trkpt>
      <trkpt lat="42.98155" lon="0.53764">
        <ele>1543.033</ele>
        <time>2021-02-27T10:44:06Z</time>
      </trkpt>
      <trkpt lat="42.98155" lon="0.53764">
        <ele>1543.027</ele>
        <time>2021-02-27T10:44:08Z</time>
      </trkpt>
      <trkpt lat="42.98155" lon="0.53764">
        <ele>1543.023</ele>
        <time>2021-02-27T10:44:10Z</time>
      </trkpt>
      <trkpt lat="42.98155" lon="0.53764">
        <ele>1543.018</ele>
        <time>2021-02-27T10:44:12Z</time>
      </trkpt>
      <trkpt lat="42.98155" lon="0.53764">
        <ele>1543.016</ele>
        <time>2021-02-27T10:44:14Z</time>
      </trkpt>
      <trkpt lat="42.98155" lon="0.53764">
        <ele>1543.014</ele>
        <time>2021-02-27T10:44:16Z</time>
      </trkpt>
      <trkpt lat="42.98155" lon="0.53764">
        <ele>1543.015</ele>
        <time>2021-02-27T10:44:18Z</time>
      </trkpt>
      <trkpt lat="42.98155" lon="0.53764">
        <ele>1543.019</ele>
        <time>2021-02-27T10:44:20Z</time>
      </trkpt>
      <trkpt lat="42.98155" lon="0.53764">
        <ele>1543.022</ele>
        <time>2021-02-27T10:44:22Z</time>
      </trkpt>
      <trkpt lat="42.98155" lon="0.53764">
        <ele>1543.022</ele>
        <time>2021-02-27T10:44:24Z</time>
      </trkpt>
      <trkpt lat="42.98155" lon="0.53764">
        <ele>1543.023</ele>
        <time>2021-02-27T10:44:26Z</time>
      </trkpt>
      <trkpt lat="42.98155" lon="0.53764">
        <ele>1543.023</ele>
        <time>2021-02-27T10:44:28Z</time>
      </trkpt>
      <trkpt lat="42.98155" lon="0.53764">
        <ele>1543.023</ele>
        <time>2021-02-27T10:44:30Z</time>
      </trkpt>
      <trkpt lat="42.98155" lon="0.53764">
        <ele>1543.022</ele>
        <time>2021-02-27T10:44:32Z</time>
      </trkpt>
      <trkpt lat="42.98155" lon="0.53764">
        <ele>1543.023</ele>
        <time>2021-02-27T10:44:34Z</time>
      </trkpt>
      <trkpt lat="42.98155" lon="0.53764">
        <ele>1543.024</ele>
        <time>2021-02-27T10:44:36Z</time>
      </trkpt>
      <trkpt lat="42.98155" lon="0.53764">
        <ele>1543.023</ele>
        <time>2021-02-27T10:44:38Z</time>
      </trkpt>
      <trkpt lat="42.98155" lon="0.53764">
        <ele>1543.021</ele>
        <time>2021-02-27T10:44:40Z</time>
      </trkpt>
      <trkpt lat="42.98155" lon="0.53764">
        <ele>1543.019</ele>
        <time>2021-02-27T10:44:42Z</time>
      </trkpt>
      <trkpt lat="42.98155" lon="0.53764">
        <ele>1543.018</ele>
        <time>2021-02-27T10:44:44Z</time>
      </trkpt>
      <trkpt lat="42.98155" lon="0.53764">
        <ele>1543.017</ele>
        <time>2021-02-27T10:44:46Z</time>
      </trkpt>
      <trkpt lat="42.98155" lon="0.53764">
        <ele>1543.019</ele>
        <time>2021-02-27T10:44:48Z</time>
      </trkpt>
      <trkpt lat="42.98155" lon="0.53764">
        <ele>1543.015</ele>
        <time>2021-02-27T10:44:50Z</time>
      </trkpt>
      <trkpt lat="42.98155" lon="0.53764">
        <ele>1543.014</ele>
        <time>2021-02-27T10:44:52Z</time>
      </trkpt>
      <trkpt lat="42.98155" lon="0.53764">
        <ele>1543.01</ele>
        <time>2021-02-27T10:44:54Z</time>
      </trkpt>
      <trkpt lat="42.98155" lon="0.53764">
        <ele>1542.901</ele>
        <time>2021-02-27T10:44:56Z</time>
      </trkpt>
      <trkpt lat="42.98156" lon="0.53764">
        <ele>1542.933</ele>
        <time>2021-02-27T10:44:58Z</time>
      </trkpt>
      <trkpt lat="42.98156" lon="0.53763">
        <ele>1542.638</ele>
        <time>2021-02-27T10:45:00Z</time>
      </trkpt>
      <trkpt lat="42.98156" lon="0.53764">
        <ele>1542.68</ele>
        <time>2021-02-27T10:45:02Z</time>
      </trkpt>
      <trkpt lat="42.98158" lon="0.53765">
        <ele>1542.907</ele>
        <time>2021-02-27T10:45:04Z</time>
      </trkpt>
      <trkpt lat="42.98158" lon="0.53765">
        <ele>1542.871</ele>
        <time>2021-02-27T10:45:06Z</time>
      </trkpt>
      <trkpt lat="42.98158" lon="0.53765">
        <ele>1542.874</ele>
        <time>2021-02-27T10:45:08Z</time>
      </trkpt>
      <trkpt lat="42.98158" lon="0.53765">
        <ele>1542.878</ele>
        <time>2021-02-27T10:45:10Z</time>
      </trkpt>
      <trkpt lat="42.98159" lon="0.53765">
        <ele>1543.74</ele>
        <time>2021-02-27T10:45:12Z</time>
      </trkpt>
      <trkpt lat="42.9816" lon="0.53763">
        <ele>1544.725</ele>
        <time>2021-02-27T10:45:14Z</time>
      </trkpt>
      <trkpt lat="42.98159" lon="0.53762">
        <ele>1544.737</ele>
        <time>2021-02-27T10:45:16Z</time>
      </trkpt>
      <trkpt lat="42.98158" lon="0.53762">
        <ele>1544.829</ele>
        <time>2021-02-27T10:45:18Z</time>
      </trkpt>
      <trkpt lat="42.98158" lon="0.53762">
        <ele>1544.189</ele>
        <time>2021-02-27T10:45:20Z</time>
      </trkpt>
      <trkpt lat="42.98158" lon="0.53761">
        <ele>1543.808</ele>
        <time>2021-02-27T10:45:22Z</time>
      </trkpt>
      <trkpt lat="42.98158" lon="0.53762">
        <ele>1543.807</ele>
        <time>2021-02-27T10:45:24Z</time>
      </trkpt>
      <trkpt lat="42.98158" lon="0.53762">
        <ele>1543.807</ele>
        <time>2021-02-27T10:45:26Z</time>
      </trkpt>
      <trkpt lat="42.98158" lon="0.53762">
        <ele>1543.811</ele>
        <time>2021-02-27T10:45:28Z</time>
      </trkpt>
      <trkpt lat="42.98158" lon="0.53761">
        <ele>1543.175</ele>
        <time>2021-02-27T10:45:30Z</time>
      </trkpt>
      <trkpt lat="42.9816" lon="0.5376">
        <ele>1542.331</ele>
        <time>2021-02-27T10:45:32Z</time>
      </trkpt>
      <trkpt lat="42.98159" lon="0.53758">
        <ele>1542.143</ele>
        <time>2021-02-27T10:45:34Z</time>
      </trkpt>
      <trkpt lat="42.98158" lon="0.53756">
        <ele>1541.031</ele>
        <time>2021-02-27T10:45:36Z</time>
      </trkpt>
      <trkpt lat="42.98157" lon="0.53755">
        <ele>1542.171</ele>
        <time>2021-02-27T10:45:38Z</time>
      </trkpt>
      <trkpt lat="42.98157" lon="0.53755">
        <ele>1541.821</ele>
        <time>2021-02-27T10:45:40Z</time>
      </trkpt>
      <trkpt lat="42.98156" lon="0.53756">
        <ele>1541.121</ele>
        <time>2021-02-27T10:45:42Z</time>
      </trkpt>
      <trkpt lat="42.98155" lon="0.53757">
        <ele>1540.428</ele>
        <time>2021-02-27T10:45:44Z</time>
      </trkpt>
      <trkpt lat="42.98155" lon="0.53758">
        <ele>1541.599</ele>
        <time>2021-02-27T10:45:46Z</time>
      </trkpt>
      <trkpt lat="42.98155" lon="0.53758">
        <ele>1541.667</ele>
        <time>2021-02-27T10:45:48Z</time>
      </trkpt>
      <trkpt lat="42.98155" lon="0.5376">
        <ele>1542.186</ele>
        <time>2021-02-27T10:45:50Z</time>
      </trkpt>
      <trkpt lat="42.98156" lon="0.5376">
        <ele>1542.283</ele>
        <time>2021-02-27T10:45:52Z</time>
      </trkpt>
      <trkpt lat="42.98156" lon="0.53761">
        <ele>1542.688</ele>
        <time>2021-02-27T10:45:54Z</time>
      </trkpt>
      <trkpt lat="42.98155" lon="0.53761">
        <ele>1542.713</ele>
        <time>2021-02-27T10:45:56Z</time>
      </trkpt>
      <trkpt lat="42.98155" lon="0.53761">
        <ele>1542.706</ele>
        <time>2021-02-27T10:45:58Z</time>
      </trkpt>
      <trkpt lat="42.98155" lon="0.53761">
        <ele>1542.375</ele>
        <time>2021-02-27T10:46:00Z</time>
      </trkpt>
      <trkpt lat="42.98155" lon="0.53761">
        <ele>1542.014</ele>
        <time>2021-02-27T10:46:03Z</time>
      </trkpt>
      <trkpt lat="42.98155" lon="0.53761">
        <ele>1542.007</ele>
        <time>2021-02-27T10:46:05Z</time>
      </trkpt>
      <trkpt lat="42.98155" lon="0.53761">
        <ele>1542.002</ele>
        <time>2021-02-27T10:46:07Z</time>
      </trkpt>
      <trkpt lat="42.98155" lon="0.53761">
        <ele>1541.45</ele>
        <time>2021-02-27T10:46:09Z</time>
      </trkpt>
      <trkpt lat="42.98155" lon="0.53761">
        <ele>1541.462</ele>
        <time>2021-02-27T10:46:11Z</time>
      </trkpt>
      <trkpt lat="42.98155" lon="0.53761">
        <ele>1541.071</ele>
        <time>2021-02-27T10:46:13Z</time>
      </trkpt>
      <trkpt lat="42.98155" lon="0.53761">
        <ele>1541.021</ele>
        <time>2021-02-27T10:46:15Z</time>
      </trkpt>
      <trkpt lat="42.98155" lon="0.5376">
        <ele>1540.702</ele>
        <time>2021-02-27T10:46:17Z</time>
      </trkpt>
      <trkpt lat="42.98155" lon="0.5376">
        <ele>1540.703</ele>
        <time>2021-02-27T10:46:19Z</time>
      </trkpt>
      <trkpt lat="42.98155" lon="0.53761">
        <ele>1540.267</ele>
        <time>2021-02-27T10:46:21Z</time>
      </trkpt>
      <trkpt lat="42.98154" lon="0.53761">
        <ele>1540.235</ele>
        <time>2021-02-27T10:46:23Z</time>
      </trkpt>
      <trkpt lat="42.98154" lon="0.53761">
        <ele>1540.227</ele>
        <time>2021-02-27T10:46:25Z</time>
      </trkpt>
      <trkpt lat="42.98154" lon="0.5376">
        <ele>1540</ele>
        <time>2021-02-27T10:46:27Z</time>
      </trkpt>
      <trkpt lat="42.98154" lon="0.5376">
        <ele>1539.645</ele>
        <time>2021-02-27T10:46:29Z</time>
      </trkpt>
      <trkpt lat="42.98154" lon="0.5376">
        <ele>1539.563</ele>
        <time>2021-02-27T10:46:31Z</time>
      </trkpt>
      <trkpt lat="42.98154" lon="0.5376">
        <ele>1539.559</ele>
        <time>2021-02-27T10:46:33Z</time>
      </trkpt>
      <trkpt lat="42.98154" lon="0.5376">
        <ele>1539.559</ele>
        <time>2021-02-27T10:46:35Z</time>
      </trkpt>
      <trkpt lat="42.98154" lon="0.5376">
        <ele>1539.555</ele>
        <time>2021-02-27T10:46:37Z</time>
      </trkpt>
      <trkpt lat="42.98154" lon="0.5376">
        <ele>1539.555</ele>
        <time>2021-02-27T10:46:39Z</time>
      </trkpt>
      <trkpt lat="42.98154" lon="0.5376">
        <ele>1539.558</ele>
        <time>2021-02-27T10:46:41Z</time>
      </trkpt>
      <trkpt lat="42.98154" lon="0.5376">
        <ele>1539.559</ele>
        <time>2021-02-27T10:46:43Z</time>
      </trkpt>
      <trkpt lat="42.98154" lon="0.5376">
        <ele>1539.557</ele>
        <time>2021-02-27T10:46:45Z</time>
      </trkpt>
      <trkpt lat="42.98154" lon="0.5376">
        <ele>1539.561</ele>
        <time>2021-02-27T10:46:47Z</time>
      </trkpt>
      <trkpt lat="42.98154" lon="0.5376">
        <ele>1539.563</ele>
        <time>2021-02-27T10:46:49Z</time>
      </trkpt>
      <trkpt lat="42.98154" lon="0.5376">
        <ele>1539.13</ele>
        <time>2021-02-27T10:46:51Z</time>
      </trkpt>
      <trkpt lat="42.98154" lon="0.5376">
        <ele>1539.624</ele>
        <time>2021-02-27T10:46:53Z</time>
      </trkpt>
      <trkpt lat="42.98153" lon="0.5376">
        <ele>1539.374</ele>
        <time>2021-02-27T10:46:55Z</time>
      </trkpt>
      <trkpt lat="42.98153" lon="0.5376">
        <ele>1539.737</ele>
        <time>2021-02-27T10:46:57Z</time>
      </trkpt>
      <trkpt lat="42.98152" lon="0.53761">
        <ele>1540.324</ele>
        <time>2021-02-27T10:46:59Z</time>
      </trkpt>
      <trkpt lat="42.98153" lon="0.53764">
        <ele>1540.331</ele>
        <time>2021-02-27T10:47:01Z</time>
      </trkpt>
      <trkpt lat="42.98153" lon="0.53765">
        <ele>1540.475</ele>
        <time>2021-02-27T10:47:03Z</time>
      </trkpt>
      <trkpt lat="42.98152" lon="0.53765">
        <ele>1540.617</ele>
        <time>2021-02-27T10:47:05Z</time>
      </trkpt>
      <trkpt lat="42.98152" lon="0.53765">
        <ele>1540.62</ele>
        <time>2021-02-27T10:47:07Z</time>
      </trkpt>
      <trkpt lat="42.98152" lon="0.53764">
        <ele>1540.964</ele>
        <time>2021-02-27T10:47:09Z</time>
      </trkpt>
      <trkpt lat="42.98152" lon="0.53762">
        <ele>1541.45</ele>
        <time>2021-02-27T10:47:11Z</time>
      </trkpt>
      <trkpt lat="42.98151" lon="0.53761">
        <ele>1540.84</ele>
        <time>2021-02-27T10:47:13Z</time>
      </trkpt>
      <trkpt lat="42.9815" lon="0.53759">
        <ele>1540.317</ele>
        <time>2021-02-27T10:47:15Z</time>
      </trkpt>
      <trkpt lat="42.9815" lon="0.53757">
        <ele>1540.516</ele>
        <time>2021-02-27T10:47:17Z</time>
      </trkpt>
      <trkpt lat="42.98151" lon="0.53757">
        <ele>1540.498</ele>
        <time>2021-02-27T10:47:19Z</time>
      </trkpt>
      <trkpt lat="42.9815" lon="0.53756">
        <ele>1539.598</ele>
        <time>2021-02-27T10:47:21Z</time>
      </trkpt>
      <trkpt lat="42.9815" lon="0.53756">
        <ele>1539.598</ele>
        <time>2021-02-27T10:47:23Z</time>
      </trkpt>
      <trkpt lat="42.9815" lon="0.53756">
        <ele>1539.602</ele>
        <time>2021-02-27T10:47:25Z</time>
      </trkpt>
      <trkpt lat="42.9815" lon="0.53756">
        <ele>1539.606</ele>
        <time>2021-02-27T10:47:27Z</time>
      </trkpt>
      <trkpt lat="42.9815" lon="0.53756">
        <ele>1539.603</ele>
        <time>2021-02-27T10:47:29Z</time>
      </trkpt>
      <trkpt lat="42.9815" lon="0.53756">
        <ele>1539.604</ele>
        <time>2021-02-27T10:47:31Z</time>
      </trkpt>
      <trkpt lat="42.9815" lon="0.53756">
        <ele>1539.605</ele>
        <time>2021-02-27T10:47:33Z</time>
      </trkpt>
      <trkpt lat="42.9815" lon="0.53756">
        <ele>1539.609</ele>
        <time>2021-02-27T10:47:35Z</time>
      </trkpt>
      <trkpt lat="42.9815" lon="0.53756">
        <ele>1539.611</ele>
        <time>2021-02-27T10:47:37Z</time>
      </trkpt>
      <trkpt lat="42.9815" lon="0.53756">
        <ele>1539.826</ele>
        <time>2021-02-27T10:47:39Z</time>
      </trkpt>
      <trkpt lat="42.9815" lon="0.53757">
        <ele>1539.929</ele>
        <time>2021-02-27T10:47:41Z</time>
      </trkpt>
      <trkpt lat="42.98151" lon="0.53759">
        <ele>1540.202</ele>
        <time>2021-02-27T10:47:43Z</time>
      </trkpt>
      <trkpt lat="42.98152" lon="0.5376">
        <ele>1540.627</ele>
        <time>2021-02-27T10:47:45Z</time>
      </trkpt>
      <trkpt lat="42.98153" lon="0.53761">
        <ele>1540.896</ele>
        <time>2021-02-27T10:47:47Z</time>
      </trkpt>
      <trkpt lat="42.98155" lon="0.53761">
        <ele>1540.959</ele>
        <time>2021-02-27T10:47:49Z</time>
      </trkpt>
      <trkpt lat="42.98155" lon="0.53762">
        <ele>1540.889</ele>
        <time>2021-02-27T10:47:51Z</time>
      </trkpt>
      <trkpt lat="42.98155" lon="0.53762">
        <ele>1540.89</ele>
        <time>2021-02-27T10:47:53Z</time>
      </trkpt>
      <trkpt lat="42.98155" lon="0.53762">
        <ele>1540.888</ele>
        <time>2021-02-27T10:47:55Z</time>
      </trkpt>
      <trkpt lat="42.98155" lon="0.53762">
        <ele>1540.886</ele>
        <time>2021-02-27T10:47:57Z</time>
      </trkpt>
      <trkpt lat="42.98155" lon="0.53762">
        <ele>1540.883</ele>
        <time>2021-02-27T10:47:59Z</time>
      </trkpt>
      <trkpt lat="42.98155" lon="0.53762">
        <ele>1540.88</ele>
        <time>2021-02-27T10:48:01Z</time>
      </trkpt>
      <trkpt lat="42.98155" lon="0.53762">
        <ele>1540.8</ele>
        <time>2021-02-27T10:48:03Z</time>
      </trkpt>
      <trkpt lat="42.98155" lon="0.53762">
        <ele>1540.904</ele>
        <time>2021-02-27T10:48:04Z</time>
      </trkpt>
      <trkpt lat="42.98154" lon="0.53762">
        <ele>1540.912</ele>
        <time>2021-02-27T10:48:07Z</time>
      </trkpt>
      <trkpt lat="42.98154" lon="0.53762">
        <ele>1540.915</ele>
        <time>2021-02-27T10:48:09Z</time>
      </trkpt>
      <trkpt lat="42.98154" lon="0.53762">
        <ele>1540.914</ele>
        <time>2021-02-27T10:48:11Z</time>
      </trkpt>
      <trkpt lat="42.98154" lon="0.53762">
        <ele>1540.915</ele>
        <time>2021-02-27T10:48:13Z</time>
      </trkpt>
      <trkpt lat="42.98154" lon="0.53762">
        <ele>1540.915</ele>
        <time>2021-02-27T10:48:15Z</time>
      </trkpt>
      <trkpt lat="42.98154" lon="0.53762">
        <ele>1540.91</ele>
        <time>2021-02-27T10:48:17Z</time>
      </trkpt>
      <trkpt lat="42.98154" lon="0.53762">
        <ele>1540.913</ele>
        <time>2021-02-27T10:48:19Z</time>
      </trkpt>
      <trkpt lat="42.98154" lon="0.53762">
        <ele>1540.916</ele>
        <time>2021-02-27T10:48:21Z</time>
      </trkpt>
      <trkpt lat="42.98154" lon="0.53762">
        <ele>1540.92</ele>
        <time>2021-02-27T10:48:23Z</time>
      </trkpt>
      <trkpt lat="42.98154" lon="0.53762">
        <ele>1540.92</ele>
        <time>2021-02-27T10:48:25Z</time>
      </trkpt>
      <trkpt lat="42.98154" lon="0.53762">
        <ele>1540.92</ele>
        <time>2021-02-27T10:48:27Z</time>
      </trkpt>
      <trkpt lat="42.98154" lon="0.53762">
        <ele>1540.913</ele>
        <time>2021-02-27T10:48:29Z</time>
      </trkpt>
      <trkpt lat="42.98154" lon="0.53762">
        <ele>1541.241</ele>
        <time>2021-02-27T10:48:31Z</time>
      </trkpt>
      <trkpt lat="42.98154" lon="0.53762">
        <ele>1540.987</ele>
        <time>2021-02-27T10:48:33Z</time>
      </trkpt>
      <trkpt lat="42.98154" lon="0.53762">
        <ele>1540.502</ele>
        <time>2021-02-27T10:48:35Z</time>
      </trkpt>
      <trkpt lat="42.98154" lon="0.53762">
        <ele>1540.508</ele>
        <time>2021-02-27T10:48:37Z</time>
      </trkpt>
      <trkpt lat="42.98154" lon="0.53762">
        <ele>1540.512</ele>
        <time>2021-02-27T10:48:39Z</time>
      </trkpt>
      <trkpt lat="42.98154" lon="0.53762">
        <ele>1540.513</ele>
        <time>2021-02-27T10:48:41Z</time>
      </trkpt>
      <trkpt lat="42.98154" lon="0.53762">
        <ele>1540.515</ele>
        <time>2021-02-27T10:48:43Z</time>
      </trkpt>
      <trkpt lat="42.98154" lon="0.53762">
        <ele>1540.514</ele>
        <time>2021-02-27T10:48:45Z</time>
      </trkpt>
      <trkpt lat="42.98154" lon="0.53762">
        <ele>1540.515</ele>
        <time>2021-02-27T10:48:47Z</time>
      </trkpt>
      <trkpt lat="42.98154" lon="0.53762">
        <ele>1540.544</ele>
        <time>2021-02-27T10:48:49Z</time>
      </trkpt>
      <trkpt lat="42.98154" lon="0.53762">
        <ele>1540.525</ele>
        <time>2021-02-27T10:48:51Z</time>
      </trkpt>
      <trkpt lat="42.98154" lon="0.53762">
        <ele>1540.593</ele>
        <time>2021-02-27T10:48:53Z</time>
      </trkpt>
      <trkpt lat="42.98154" lon="0.53762">
        <ele>1540.593</ele>
        <time>2021-02-27T10:48:55Z</time>
      </trkpt>
      <trkpt lat="42.98154" lon="0.53762">
        <ele>1540.59</ele>
        <time>2021-02-27T10:48:57Z</time>
      </trkpt>
      <trkpt lat="42.98154" lon="0.53762">
        <ele>1540.591</ele>
        <time>2021-02-27T10:48:59Z</time>
      </trkpt>
      <trkpt lat="42.98154" lon="0.53762">
        <ele>1540.59</ele>
        <time>2021-02-27T10:49:01Z</time>
      </trkpt>
      <trkpt lat="42.98154" lon="0.53762">
        <ele>1540.594</ele>
        <time>2021-02-27T10:49:03Z</time>
      </trkpt>
      <trkpt lat="42.98154" lon="0.53762">
        <ele>1540.401</ele>
        <time>2021-02-27T10:49:05Z</time>
      </trkpt>
      <trkpt lat="42.98154" lon="0.53763">
        <ele>1540.334</ele>
        <time>2021-02-27T10:49:07Z</time>
      </trkpt>
      <trkpt lat="42.98154" lon="0.53763">
        <ele>1540.949</ele>
        <time>2021-02-27T10:49:09Z</time>
      </trkpt>
      <trkpt lat="42.98154" lon="0.53763">
        <ele>1540.548</ele>
        <time>2021-02-27T10:49:11Z</time>
      </trkpt>
      <trkpt lat="42.98154" lon="0.53763">
        <ele>1540.545</ele>
        <time>2021-02-27T10:49:13Z</time>
      </trkpt>
      <trkpt lat="42.98154" lon="0.53763">
        <ele>1540.275</ele>
        <time>2021-02-27T10:49:15Z</time>
      </trkpt>
      <trkpt lat="42.98153" lon="0.53762">
        <ele>1540.146</ele>
        <time>2021-02-27T10:49:17Z</time>
      </trkpt>
      <trkpt lat="42.98153" lon="0.53762">
        <ele>1540.608</ele>
        <time>2021-02-27T10:49:19Z</time>
      </trkpt>
      <trkpt lat="42.98153" lon="0.53762">
        <ele>1540.465</ele>
        <time>2021-02-27T10:49:21Z</time>
      </trkpt>
      <trkpt lat="42.98153" lon="0.53762">
        <ele>1540.462</ele>
        <time>2021-02-27T10:49:23Z</time>
      </trkpt>
      <trkpt lat="42.98153" lon="0.53762">
        <ele>1540.46</ele>
        <time>2021-02-27T10:49:25Z</time>
      </trkpt>
      <trkpt lat="42.98153" lon="0.53762">
        <ele>1540.46</ele>
        <time>2021-02-27T10:49:27Z</time>
      </trkpt>
      <trkpt lat="42.98153" lon="0.53762">
        <ele>1540.459</ele>
        <time>2021-02-27T10:49:29Z</time>
      </trkpt>
      <trkpt lat="42.98153" lon="0.53762">
        <ele>1540.463</ele>
        <time>2021-02-27T10:49:31Z</time>
      </trkpt>
      <trkpt lat="42.98153" lon="0.53762">
        <ele>1540.463</ele>
        <time>2021-02-27T10:49:33Z</time>
      </trkpt>
      <trkpt lat="42.98153" lon="0.53762">
        <ele>1540.462</ele>
        <time>2021-02-27T10:49:35Z</time>
      </trkpt>
      <trkpt lat="42.98153" lon="0.53762">
        <ele>1540.461</ele>
        <time>2021-02-27T10:49:37Z</time>
      </trkpt>
      <trkpt lat="42.98153" lon="0.53762">
        <ele>1540.46</ele>
        <time>2021-02-27T10:49:39Z</time>
      </trkpt>
      <trkpt lat="42.98153" lon="0.53762">
        <ele>1540.461</ele>
        <time>2021-02-27T10:49:41Z</time>
      </trkpt>
      <trkpt lat="42.98153" lon="0.53762">
        <ele>1540.463</ele>
        <time>2021-02-27T10:49:43Z</time>
      </trkpt>
      <trkpt lat="42.98153" lon="0.53762">
        <ele>1540.798</ele>
        <time>2021-02-27T10:49:45Z</time>
      </trkpt>
      <trkpt lat="42.98153" lon="0.53762">
        <ele>1540.87</ele>
        <time>2021-02-27T10:49:47Z</time>
      </trkpt>
      <trkpt lat="42.98153" lon="0.53762">
        <ele>1540.872</ele>
        <time>2021-02-27T10:49:49Z</time>
      </trkpt>
      <trkpt lat="42.98153" lon="0.53762">
        <ele>1540.871</ele>
        <time>2021-02-27T10:49:51Z</time>
      </trkpt>
      <trkpt lat="42.98153" lon="0.53762">
        <ele>1540.87</ele>
        <time>2021-02-27T10:49:53Z</time>
      </trkpt>
      <trkpt lat="42.98153" lon="0.53762">
        <ele>1540.869</ele>
        <time>2021-02-27T10:49:55Z</time>
      </trkpt>
      <trkpt lat="42.98153" lon="0.53762">
        <ele>1540.871</ele>
        <time>2021-02-27T10:49:56Z</time>
      </trkpt>
      <trkpt lat="42.98153" lon="0.53762">
        <ele>1541.158</ele>
        <time>2021-02-27T10:49:59Z</time>
      </trkpt>
      <trkpt lat="42.98153" lon="0.53762">
        <ele>1541.17</ele>
        <time>2021-02-27T10:50:01Z</time>
      </trkpt>
      <trkpt lat="42.98153" lon="0.53762">
        <ele>1541.169</ele>
        <time>2021-02-27T10:50:03Z</time>
      </trkpt>
      <trkpt lat="42.98153" lon="0.53762">
        <ele>1541.17</ele>
        <time>2021-02-27T10:50:05Z</time>
      </trkpt>
      <trkpt lat="42.98153" lon="0.53762">
        <ele>1541.171</ele>
        <time>2021-02-27T10:50:07Z</time>
      </trkpt>
      <trkpt lat="42.98153" lon="0.53762">
        <ele>1541.173</ele>
        <time>2021-02-27T10:50:09Z</time>
      </trkpt>
      <trkpt lat="42.98153" lon="0.53762">
        <ele>1541.175</ele>
        <time>2021-02-27T10:50:11Z</time>
      </trkpt>
      <trkpt lat="42.98153" lon="0.53762">
        <ele>1541.179</ele>
        <time>2021-02-27T10:50:13Z</time>
      </trkpt>
      <trkpt lat="42.98153" lon="0.53762">
        <ele>1541.181</ele>
        <time>2021-02-27T10:50:15Z</time>
      </trkpt>
      <trkpt lat="42.98153" lon="0.53762">
        <ele>1541.182</ele>
        <time>2021-02-27T10:50:17Z</time>
      </trkpt>
      <trkpt lat="42.98153" lon="0.53762">
        <ele>1541.183</ele>
        <time>2021-02-27T10:50:19Z</time>
      </trkpt>
      <trkpt lat="42.98153" lon="0.53762">
        <ele>1541.185</ele>
        <time>2021-02-27T10:50:21Z</time>
      </trkpt>
      <trkpt lat="42.98153" lon="0.53762">
        <ele>1541.188</ele>
        <time>2021-02-27T10:50:23Z</time>
      </trkpt>
      <trkpt lat="42.98153" lon="0.53762">
        <ele>1541.187</ele>
        <time>2021-02-27T10:50:25Z</time>
      </trkpt>
      <trkpt lat="42.98153" lon="0.53762">
        <ele>1541.188</ele>
        <time>2021-02-27T10:50:27Z</time>
      </trkpt>
      <trkpt lat="42.98153" lon="0.53762">
        <ele>1541.188</ele>
        <time>2021-02-27T10:50:29Z</time>
      </trkpt>
      <trkpt lat="42.98153" lon="0.53762">
        <ele>1541.191</ele>
        <time>2021-02-27T10:50:31Z</time>
      </trkpt>
      <trkpt lat="42.98153" lon="0.53762">
        <ele>1541.189</ele>
        <time>2021-02-27T10:50:33Z</time>
      </trkpt>
      <trkpt lat="42.98153" lon="0.53762">
        <ele>1541.19</ele>
        <time>2021-02-27T10:50:35Z</time>
      </trkpt>
      <trkpt lat="42.98153" lon="0.53762">
        <ele>1541.188</ele>
        <time>2021-02-27T10:50:37Z</time>
      </trkpt>
      <trkpt lat="42.98153" lon="0.53762">
        <ele>1541.187</ele>
        <time>2021-02-27T10:50:39Z</time>
      </trkpt>
      <trkpt lat="42.98153" lon="0.53762">
        <ele>1541.19</ele>
        <time>2021-02-27T10:50:41Z</time>
      </trkpt>
      <trkpt lat="42.98153" lon="0.53762">
        <ele>1541.192</ele>
        <time>2021-02-27T10:50:44Z</time>
      </trkpt>
      <trkpt lat="42.98153" lon="0.53762">
        <ele>1541.159</ele>
        <time>2021-02-27T10:50:46Z</time>
      </trkpt>
      <trkpt lat="42.98153" lon="0.53761">
        <ele>1541.096</ele>
        <time>2021-02-27T10:50:48Z</time>
      </trkpt>
      <trkpt lat="42.98153" lon="0.53761">
        <ele>1540.74</ele>
        <time>2021-02-27T10:50:50Z</time>
      </trkpt>
      <trkpt lat="42.98153" lon="0.53761">
        <ele>1540.162</ele>
        <time>2021-02-27T10:50:52Z</time>
      </trkpt>
      <trkpt lat="42.98153" lon="0.5376">
        <ele>1540.158</ele>
        <time>2021-02-27T10:50:54Z</time>
      </trkpt>
      <trkpt lat="42.98153" lon="0.53761">
        <ele>1540.719</ele>
        <time>2021-02-27T10:50:56Z</time>
      </trkpt>
      <trkpt lat="42.98154" lon="0.53762">
        <ele>1540.782</ele>
        <time>2021-02-27T10:50:58Z</time>
      </trkpt>
      <trkpt lat="42.98154" lon="0.53762">
        <ele>1540.721</ele>
        <time>2021-02-27T10:51:00Z</time>
      </trkpt>
      <trkpt lat="42.98154" lon="0.53762">
        <ele>1540.717</ele>
        <time>2021-02-27T10:51:02Z</time>
      </trkpt>
      <trkpt lat="42.98154" lon="0.53762">
        <ele>1540.62</ele>
        <time>2021-02-27T10:51:04Z</time>
      </trkpt>
      <trkpt lat="42.98154" lon="0.53762">
        <ele>1540.654</ele>
        <time>2021-02-27T10:51:06Z</time>
      </trkpt>
      <trkpt lat="42.98154" lon="0.53761">
        <ele>1540.469</ele>
        <time>2021-02-27T10:51:08Z</time>
      </trkpt>
      <trkpt lat="42.98154" lon="0.53761">
        <ele>1540.454</ele>
        <time>2021-02-27T10:51:10Z</time>
      </trkpt>
      <trkpt lat="42.98154" lon="0.53761">
        <ele>1540.455</ele>
        <time>2021-02-27T10:51:12Z</time>
      </trkpt>
      <trkpt lat="42.98154" lon="0.53761">
        <ele>1540.454</ele>
        <time>2021-02-27T10:51:14Z</time>
      </trkpt>
      <trkpt lat="42.98154" lon="0.53761">
        <ele>1540.452</ele>
        <time>2021-02-27T10:51:16Z</time>
      </trkpt>
      <trkpt lat="42.98154" lon="0.53761">
        <ele>1540.513</ele>
        <time>2021-02-27T10:51:18Z</time>
      </trkpt>
      <trkpt lat="42.98154" lon="0.53761">
        <ele>1540.599</ele>
        <time>2021-02-27T10:51:20Z</time>
      </trkpt>
      <trkpt lat="42.98154" lon="0.53761">
        <ele>1540.641</ele>
        <time>2021-02-27T10:51:22Z</time>
      </trkpt>
      <trkpt lat="42.98154" lon="0.53761">
        <ele>1540.548</ele>
        <time>2021-02-27T10:51:24Z</time>
      </trkpt>
      <trkpt lat="42.98154" lon="0.53761">
        <ele>1540.459</ele>
        <time>2021-02-27T10:51:26Z</time>
      </trkpt>
      <trkpt lat="42.98154" lon="0.53761">
        <ele>1540.71</ele>
        <time>2021-02-27T10:51:28Z</time>
      </trkpt>
      <trkpt lat="42.98154" lon="0.53761">
        <ele>1541.704</ele>
        <time>2021-02-27T10:51:30Z</time>
      </trkpt>
      <trkpt lat="42.98154" lon="0.53761">
        <ele>1541.886</ele>
        <time>2021-02-27T10:51:32Z</time>
      </trkpt>
      <trkpt lat="42.98154" lon="0.53761">
        <ele>1541.885</ele>
        <time>2021-02-27T10:51:34Z</time>
      </trkpt>
      <trkpt lat="42.98154" lon="0.53761">
        <ele>1541.883</ele>
        <time>2021-02-27T10:51:36Z</time>
      </trkpt>
      <trkpt lat="42.98154" lon="0.53761">
        <ele>1541.88</ele>
        <time>2021-02-27T10:51:38Z</time>
      </trkpt>
      <trkpt lat="42.98154" lon="0.53761">
        <ele>1541.672</ele>
        <time>2021-02-27T10:51:40Z</time>
      </trkpt>
      <trkpt lat="42.98154" lon="0.53761">
        <ele>1541.669</ele>
        <time>2021-02-27T10:51:42Z</time>
      </trkpt>
      <trkpt lat="42.98154" lon="0.53761">
        <ele>1541.608</ele>
        <time>2021-02-27T10:51:44Z</time>
      </trkpt>
      <trkpt lat="42.98154" lon="0.53761">
        <ele>1541.613</ele>
        <time>2021-02-27T10:51:46Z</time>
      </trkpt>
      <trkpt lat="42.98154" lon="0.53761">
        <ele>1541.62</ele>
        <time>2021-02-27T10:51:48Z</time>
      </trkpt>
      <trkpt lat="42.98154" lon="0.53761">
        <ele>1541.686</ele>
        <time>2021-02-27T10:51:50Z</time>
      </trkpt>
      <trkpt lat="42.98154" lon="0.53761">
        <ele>1542.086</ele>
        <time>2021-02-27T10:51:52Z</time>
      </trkpt>
      <trkpt lat="42.98154" lon="0.53761">
        <ele>1542.262</ele>
        <time>2021-02-27T10:51:54Z</time>
      </trkpt>
      <trkpt lat="42.98154" lon="0.53761">
        <ele>1542.264</ele>
        <time>2021-02-27T10:51:56Z</time>
      </trkpt>
      <trkpt lat="42.98154" lon="0.53761">
        <ele>1542.264</ele>
        <time>2021-02-27T10:51:58Z</time>
      </trkpt>
      <trkpt lat="42.98154" lon="0.53761">
        <ele>1542.26</ele>
        <time>2021-02-27T10:52:00Z</time>
      </trkpt>
      <trkpt lat="42.98154" lon="0.53762">
        <ele>1542.392</ele>
        <time>2021-02-27T10:52:02Z</time>
      </trkpt>
      <trkpt lat="42.98154" lon="0.53762">
        <ele>1542.546</ele>
        <time>2021-02-27T10:52:04Z</time>
      </trkpt>
      <trkpt lat="42.98154" lon="0.53762">
        <ele>1542.455</ele>
        <time>2021-02-27T10:52:06Z</time>
      </trkpt>
      <trkpt lat="42.98154" lon="0.53762">
        <ele>1542.417</ele>
        <time>2021-02-27T10:52:08Z</time>
      </trkpt>
      <trkpt lat="42.98154" lon="0.53762">
        <ele>1542.414</ele>
        <time>2021-02-27T10:52:10Z</time>
      </trkpt>
      <trkpt lat="42.98154" lon="0.53762">
        <ele>1542.413</ele>
        <time>2021-02-27T10:52:12Z</time>
      </trkpt>
      <trkpt lat="42.98154" lon="0.53762">
        <ele>1542.41</ele>
        <time>2021-02-27T10:52:14Z</time>
      </trkpt>
      <trkpt lat="42.98154" lon="0.53762">
        <ele>1542.41</ele>
        <time>2021-02-27T10:52:16Z</time>
      </trkpt>
      <trkpt lat="42.98154" lon="0.53762">
        <ele>1542.409</ele>
        <time>2021-02-27T10:52:18Z</time>
      </trkpt>
      <trkpt lat="42.98154" lon="0.53762">
        <ele>1542.41</ele>
        <time>2021-02-27T10:52:20Z</time>
      </trkpt>
      <trkpt lat="42.98154" lon="0.53762">
        <ele>1542.411</ele>
        <time>2021-02-27T10:52:22Z</time>
      </trkpt>
      <trkpt lat="42.98154" lon="0.53762">
        <ele>1542.411</ele>
        <time>2021-02-27T10:52:24Z</time>
      </trkpt>
      <trkpt lat="42.98154" lon="0.53762">
        <ele>1542.411</ele>
        <time>2021-02-27T10:52:26Z</time>
      </trkpt>
      <trkpt lat="42.98154" lon="0.53762">
        <ele>1542.412</ele>
        <time>2021-02-27T10:52:28Z</time>
      </trkpt>
      <trkpt lat="42.98154" lon="0.53762">
        <ele>1542.412</ele>
        <time>2021-02-27T10:52:30Z</time>
      </trkpt>
      <trkpt lat="42.98154" lon="0.53762">
        <ele>1542.41</ele>
        <time>2021-02-27T10:52:32Z</time>
      </trkpt>
      <trkpt lat="42.98154" lon="0.53762">
        <ele>1542.409</ele>
        <time>2021-02-27T10:52:34Z</time>
      </trkpt>
      <trkpt lat="42.98154" lon="0.53762">
        <ele>1542.409</ele>
        <time>2021-02-27T10:52:36Z</time>
      </trkpt>
      <trkpt lat="42.98154" lon="0.53762">
        <ele>1542.408</ele>
        <time>2021-02-27T10:52:38Z</time>
      </trkpt>
      <trkpt lat="42.98154" lon="0.53762">
        <ele>1542.406</ele>
        <time>2021-02-27T10:52:40Z</time>
      </trkpt>
      <trkpt lat="42.98154" lon="0.53762">
        <ele>1542.407</ele>
        <time>2021-02-27T10:52:42Z</time>
      </trkpt>
      <trkpt lat="42.98154" lon="0.53762">
        <ele>1542.406</ele>
        <time>2021-02-27T10:52:44Z</time>
      </trkpt>
      <trkpt lat="42.98154" lon="0.53762">
        <ele>1542.403</ele>
        <time>2021-02-27T10:52:46Z</time>
      </trkpt>
      <trkpt lat="42.98154" lon="0.53762">
        <ele>1542.403</ele>
        <time>2021-02-27T10:52:48Z</time>
      </trkpt>
      <trkpt lat="42.98154" lon="0.53762">
        <ele>1542.401</ele>
        <time>2021-02-27T10:52:50Z</time>
      </trkpt>
      <trkpt lat="42.98154" lon="0.53762">
        <ele>1542.401</ele>
        <time>2021-02-27T10:52:52Z</time>
      </trkpt>
      <trkpt lat="42.98154" lon="0.53762">
        <ele>1542.277</ele>
        <time>2021-02-27T10:52:54Z</time>
      </trkpt>
      <trkpt lat="42.98154" lon="0.53762">
        <ele>1542.283</ele>
        <time>2021-02-27T10:52:56Z</time>
      </trkpt>
      <trkpt lat="42.98154" lon="0.53762">
        <ele>1542.28</ele>
        <time>2021-02-27T10:52:58Z</time>
      </trkpt>
      <trkpt lat="42.98154" lon="0.53762">
        <ele>1542.281</ele>
        <time>2021-02-27T10:53:00Z</time>
      </trkpt>
      <trkpt lat="42.98154" lon="0.53762">
        <ele>1542.281</ele>
        <time>2021-02-27T10:53:02Z</time>
      </trkpt>
      <trkpt lat="42.98154" lon="0.53762">
        <ele>1542.28</ele>
        <time>2021-02-27T10:53:04Z</time>
      </trkpt>
      <trkpt lat="42.98154" lon="0.53762">
        <ele>1542.279</ele>
        <time>2021-02-27T10:53:06Z</time>
      </trkpt>
      <trkpt lat="42.98154" lon="0.53762">
        <ele>1542.281</ele>
        <time>2021-02-27T10:53:08Z</time>
      </trkpt>
      <trkpt lat="42.98154" lon="0.53762">
        <ele>1542.281</ele>
        <time>2021-02-27T10:53:10Z</time>
      </trkpt>
      <trkpt lat="42.98154" lon="0.53762">
        <ele>1542.281</ele>
        <time>2021-02-27T10:53:12Z</time>
      </trkpt>
      <trkpt lat="42.98154" lon="0.53762">
        <ele>1542.28</ele>
        <time>2021-02-27T10:53:14Z</time>
      </trkpt>
      <trkpt lat="42.98154" lon="0.53762">
        <ele>1542.28</ele>
        <time>2021-02-27T10:53:16Z</time>
      </trkpt>
      <trkpt lat="42.98154" lon="0.53762">
        <ele>1542.28</ele>
        <time>2021-02-27T10:53:18Z</time>
      </trkpt>
      <trkpt lat="42.98154" lon="0.53762">
        <ele>1542.281</ele>
        <time>2021-02-27T10:53:20Z</time>
      </trkpt>
      <trkpt lat="42.98154" lon="0.53762">
        <ele>1541.889</ele>
        <time>2021-02-27T10:53:22Z</time>
      </trkpt>
      <trkpt lat="42.98154" lon="0.53762">
        <ele>1541.942</ele>
        <time>2021-02-27T10:53:24Z</time>
      </trkpt>
      <trkpt lat="42.98155" lon="0.53762">
        <ele>1541.936</ele>
        <time>2021-02-27T10:53:26Z</time>
      </trkpt>
      <trkpt lat="42.98155" lon="0.53762">
        <ele>1541.93</ele>
        <time>2021-02-27T10:53:28Z</time>
      </trkpt>
      <trkpt lat="42.98155" lon="0.53762">
        <ele>1541.927</ele>
        <time>2021-02-27T10:53:30Z</time>
      </trkpt>
      <trkpt lat="42.98155" lon="0.53762">
        <ele>1541.931</ele>
        <time>2021-02-27T10:53:32Z</time>
      </trkpt>
      <trkpt lat="42.98155" lon="0.53762">
        <ele>1541.932</ele>
        <time>2021-02-27T10:53:34Z</time>
      </trkpt>
      <trkpt lat="42.98155" lon="0.53762">
        <ele>1541.932</ele>
        <time>2021-02-27T10:53:36Z</time>
      </trkpt>
      <trkpt lat="42.98155" lon="0.53762">
        <ele>1541.933</ele>
        <time>2021-02-27T10:53:38Z</time>
      </trkpt>
      <trkpt lat="42.98155" lon="0.53762">
        <ele>1541.928</ele>
        <time>2021-02-27T10:53:40Z</time>
      </trkpt>
      <trkpt lat="42.98155" lon="0.53762">
        <ele>1541.925</ele>
        <time>2021-02-27T10:53:42Z</time>
      </trkpt>
      <trkpt lat="42.98155" lon="0.53762">
        <ele>1541.93</ele>
        <time>2021-02-27T10:53:44Z</time>
      </trkpt>
      <trkpt lat="42.98155" lon="0.53762">
        <ele>1542.285</ele>
        <time>2021-02-27T10:53:46Z</time>
      </trkpt>
      <trkpt lat="42.98154" lon="0.53762">
        <ele>1542.55</ele>
        <time>2021-02-27T10:53:48Z</time>
      </trkpt>
      <trkpt lat="42.98154" lon="0.53762">
        <ele>1542.181</ele>
        <time>2021-02-27T10:53:50Z</time>
      </trkpt>
      <trkpt lat="42.98154" lon="0.53762">
        <ele>1542.169</ele>
        <time>2021-02-27T10:53:52Z</time>
      </trkpt>
      <trkpt lat="42.98154" lon="0.53762">
        <ele>1542.179</ele>
        <time>2021-02-27T10:53:54Z</time>
      </trkpt>
      <trkpt lat="42.98154" lon="0.53762">
        <ele>1542.179</ele>
        <time>2021-02-27T10:53:56Z</time>
      </trkpt>
      <trkpt lat="42.98154" lon="0.53762">
        <ele>1542.18</ele>
        <time>2021-02-27T10:53:58Z</time>
      </trkpt>
      <trkpt lat="42.98154" lon="0.53762">
        <ele>1542.185</ele>
        <time>2021-02-27T10:54:00Z</time>
      </trkpt>
      <trkpt lat="42.98154" lon="0.53762">
        <ele>1542.184</ele>
        <time>2021-02-27T10:54:02Z</time>
      </trkpt>
      <trkpt lat="42.98154" lon="0.53762">
        <ele>1542.496</ele>
        <time>2021-02-27T10:54:04Z</time>
      </trkpt>
      <trkpt lat="42.98154" lon="0.53761">
        <ele>1542.357</ele>
        <time>2021-02-27T10:54:06Z</time>
      </trkpt>
      <trkpt lat="42.98153" lon="0.53761">
        <ele>1542.098</ele>
        <time>2021-02-27T10:54:08Z</time>
      </trkpt>
      <trkpt lat="42.98152" lon="0.5376">
        <ele>1541.499</ele>
        <time>2021-02-27T10:54:10Z</time>
      </trkpt>
      <trkpt lat="42.98151" lon="0.5376">
        <ele>1541.163</ele>
        <time>2021-02-27T10:54:12Z</time>
      </trkpt>
      <trkpt lat="42.9815" lon="0.5376">
        <ele>1540.944</ele>
        <time>2021-02-27T10:54:14Z</time>
      </trkpt>
      <trkpt lat="42.9815" lon="0.5376">
        <ele>1540.936</ele>
        <time>2021-02-27T10:54:16Z</time>
      </trkpt>
      <trkpt lat="42.9815" lon="0.5376">
        <ele>1540.998</ele>
        <time>2021-02-27T10:54:18Z</time>
      </trkpt>
      <trkpt lat="42.98151" lon="0.53759">
        <ele>1540.89</ele>
        <time>2021-02-27T10:54:20Z</time>
      </trkpt>
      <trkpt lat="42.98152" lon="0.53759">
        <ele>1540.814</ele>
        <time>2021-02-27T10:54:22Z</time>
      </trkpt>
      <trkpt lat="42.98153" lon="0.53759">
        <ele>1540.75</ele>
        <time>2021-02-27T10:54:24Z</time>
      </trkpt>
      <trkpt lat="42.98153" lon="0.53759">
        <ele>1540.672</ele>
        <time>2021-02-27T10:54:26Z</time>
      </trkpt>
      <trkpt lat="42.98153" lon="0.53759">
        <ele>1540.698</ele>
        <time>2021-02-27T10:54:28Z</time>
      </trkpt>
      <trkpt lat="42.98153" lon="0.53759">
        <ele>1540.704</ele>
        <time>2021-02-27T10:54:30Z</time>
      </trkpt>
      <trkpt lat="42.98153" lon="0.53759">
        <ele>1540.706</ele>
        <time>2021-02-27T10:54:32Z</time>
      </trkpt>
      <trkpt lat="42.98153" lon="0.53759">
        <ele>1540.71</ele>
        <time>2021-02-27T10:54:34Z</time>
      </trkpt>
      <trkpt lat="42.98153" lon="0.53759">
        <ele>1540.708</ele>
        <time>2021-02-27T10:54:36Z</time>
      </trkpt>
      <trkpt lat="42.98153" lon="0.53759">
        <ele>1540.707</ele>
        <time>2021-02-27T10:54:38Z</time>
      </trkpt>
      <trkpt lat="42.98153" lon="0.53759">
        <ele>1540.708</ele>
        <time>2021-02-27T10:54:40Z</time>
      </trkpt>
      <trkpt lat="42.98153" lon="0.53759">
        <ele>1540.711</ele>
        <time>2021-02-27T10:54:42Z</time>
      </trkpt>
      <trkpt lat="42.98153" lon="0.53759">
        <ele>1540.712</ele>
        <time>2021-02-27T10:54:44Z</time>
      </trkpt>
      <trkpt lat="42.98153" lon="0.53759">
        <ele>1540.713</ele>
        <time>2021-02-27T10:54:46Z</time>
      </trkpt>
      <trkpt lat="42.98153" lon="0.53759">
        <ele>1540.721</ele>
        <time>2021-02-27T10:54:48Z</time>
      </trkpt>
      <trkpt lat="42.98153" lon="0.53759">
        <ele>1540.725</ele>
        <time>2021-02-27T10:54:50Z</time>
      </trkpt>
      <trkpt lat="42.98153" lon="0.53759">
        <ele>1540.721</ele>
        <time>2021-02-27T10:54:52Z</time>
      </trkpt>
      <trkpt lat="42.98153" lon="0.53759">
        <ele>1540.723</ele>
        <time>2021-02-27T10:54:54Z</time>
      </trkpt>
      <trkpt lat="42.98153" lon="0.53759">
        <ele>1541.274</ele>
        <time>2021-02-27T10:54:56Z</time>
      </trkpt>
      <trkpt lat="42.98154" lon="0.5376">
        <ele>1541.659</ele>
        <time>2021-02-27T10:54:58Z</time>
      </trkpt>
      <trkpt lat="42.98153" lon="0.5376">
        <ele>1541.763</ele>
        <time>2021-02-27T10:55:00Z</time>
      </trkpt>
      <trkpt lat="42.98154" lon="0.53761">
        <ele>1542.563</ele>
        <time>2021-02-27T10:55:02Z</time>
      </trkpt>
      <trkpt lat="42.98154" lon="0.53762">
        <ele>1542.148</ele>
        <time>2021-02-27T10:55:04Z</time>
      </trkpt>
      <trkpt lat="42.98154" lon="0.53762">
        <ele>1542.207</ele>
        <time>2021-02-27T10:55:06Z</time>
      </trkpt>
      <trkpt lat="42.98154" lon="0.53763">
        <ele>1542.203</ele>
        <time>2021-02-27T10:55:08Z</time>
      </trkpt>
      <trkpt lat="42.98154" lon="0.53763">
        <ele>1542.202</ele>
        <time>2021-02-27T10:55:10Z</time>
      </trkpt>
      <trkpt lat="42.98154" lon="0.53763">
        <ele>1542.203</ele>
        <time>2021-02-27T10:55:12Z</time>
      </trkpt>
      <trkpt lat="42.98154" lon="0.53763">
        <ele>1542.203</ele>
        <time>2021-02-27T10:55:14Z</time>
      </trkpt>
      <trkpt lat="42.98154" lon="0.53763">
        <ele>1542.203</ele>
        <time>2021-02-27T10:55:16Z</time>
      </trkpt>
      <trkpt lat="42.98154" lon="0.53763">
        <ele>1542.2</ele>
        <time>2021-02-27T10:55:18Z</time>
      </trkpt>
      <trkpt lat="42.98154" lon="0.53763">
        <ele>1542.198</ele>
        <time>2021-02-27T10:55:20Z</time>
      </trkpt>
      <trkpt lat="42.98154" lon="0.53763">
        <ele>1542.198</ele>
        <time>2021-02-27T10:55:22Z</time>
      </trkpt>
      <trkpt lat="42.98154" lon="0.53763">
        <ele>1542.196</ele>
        <time>2021-02-27T10:55:24Z</time>
      </trkpt>
      <trkpt lat="42.98154" lon="0.53763">
        <ele>1542.193</ele>
        <time>2021-02-27T10:55:26Z</time>
      </trkpt>
      <trkpt lat="42.98154" lon="0.53763">
        <ele>1542.193</ele>
        <time>2021-02-27T10:55:28Z</time>
      </trkpt>
      <trkpt lat="42.98154" lon="0.53763">
        <ele>1542.429</ele>
        <time>2021-02-27T10:55:30Z</time>
      </trkpt>
      <trkpt lat="42.98154" lon="0.53763">
        <ele>1542.519</ele>
        <time>2021-02-27T10:55:32Z</time>
      </trkpt>
      <trkpt lat="42.98154" lon="0.53763">
        <ele>1542.519</ele>
        <time>2021-02-27T10:55:34Z</time>
      </trkpt>
      <trkpt lat="42.98154" lon="0.53762">
        <ele>1542.727</ele>
        <time>2021-02-27T10:55:36Z</time>
      </trkpt>
      <trkpt lat="42.98154" lon="0.53762">
        <ele>1543.582</ele>
        <time>2021-02-27T10:55:38Z</time>
      </trkpt>
      <trkpt lat="42.98155" lon="0.53762">
        <ele>1543.589</ele>
        <time>2021-02-27T10:55:40Z</time>
      </trkpt>
      <trkpt lat="42.98155" lon="0.53762">
        <ele>1543.593</ele>
        <time>2021-02-27T10:55:42Z</time>
      </trkpt>
      <trkpt lat="42.98154" lon="0.53762">
        <ele>1543.325</ele>
        <time>2021-02-27T10:55:44Z</time>
      </trkpt>
      <trkpt lat="42.98154" lon="0.53762">
        <ele>1543.327</ele>
        <time>2021-02-27T10:55:46Z</time>
      </trkpt>
      <trkpt lat="42.98154" lon="0.53762">
        <ele>1543.322</ele>
        <time>2021-02-27T10:55:48Z</time>
      </trkpt>
      <trkpt lat="42.98154" lon="0.53762">
        <ele>1543.318</ele>
        <time>2021-02-27T10:55:50Z</time>
      </trkpt>
      <trkpt lat="42.98154" lon="0.53762">
        <ele>1543.316</ele>
        <time>2021-02-27T10:55:52Z</time>
      </trkpt>
      <trkpt lat="42.98154" lon="0.53762">
        <ele>1543.713</ele>
        <time>2021-02-27T10:55:54Z</time>
      </trkpt>
      <trkpt lat="42.98154" lon="0.53762">
        <ele>1543.716</ele>
        <time>2021-02-27T10:55:56Z</time>
      </trkpt>
      <trkpt lat="42.98154" lon="0.53762">
        <ele>1543.58</ele>
        <time>2021-02-27T10:55:58Z</time>
      </trkpt>
      <trkpt lat="42.98154" lon="0.53762">
        <ele>1543.584</ele>
        <time>2021-02-27T10:56:00Z</time>
      </trkpt>
      <trkpt lat="42.98154" lon="0.53762">
        <ele>1543.582</ele>
        <time>2021-02-27T10:56:02Z</time>
      </trkpt>
      <trkpt lat="42.98154" lon="0.53762">
        <ele>1543.585</ele>
        <time>2021-02-27T10:56:04Z</time>
      </trkpt>
      <trkpt lat="42.98154" lon="0.53763">
        <ele>1543.303</ele>
        <time>2021-02-27T10:56:06Z</time>
      </trkpt>
      <trkpt lat="42.98154" lon="0.53762">
        <ele>1543.245</ele>
        <time>2021-02-27T10:56:08Z</time>
      </trkpt>
      <trkpt lat="42.98154" lon="0.53762">
        <ele>1543.241</ele>
        <time>2021-02-27T10:56:10Z</time>
      </trkpt>
      <trkpt lat="42.98154" lon="0.53762">
        <ele>1543.236</ele>
        <time>2021-02-27T10:56:12Z</time>
      </trkpt>
      <trkpt lat="42.98154" lon="0.53762">
        <ele>1543.235</ele>
        <time>2021-02-27T10:56:14Z</time>
      </trkpt>
      <trkpt lat="42.98154" lon="0.53762">
        <ele>1543.233</ele>
        <time>2021-02-27T10:56:16Z</time>
      </trkpt>
      <trkpt lat="42.98154" lon="0.53762">
        <ele>1543.233</ele>
        <time>2021-02-27T10:56:18Z</time>
      </trkpt>
      <trkpt lat="42.98154" lon="0.53762">
        <ele>1543.358</ele>
        <time>2021-02-27T10:56:20Z</time>
      </trkpt>
      <trkpt lat="42.98154" lon="0.53762">
        <ele>1543.358</ele>
        <time>2021-02-27T10:56:22Z</time>
      </trkpt>
      <trkpt lat="42.98154" lon="0.53762">
        <ele>1543.358</ele>
        <time>2021-02-27T10:56:24Z</time>
      </trkpt>
      <trkpt lat="42.98154" lon="0.53762">
        <ele>1543.359</ele>
        <time>2021-02-27T10:56:26Z</time>
      </trkpt>
      <trkpt lat="42.98154" lon="0.53762">
        <ele>1543.356</ele>
        <time>2021-02-27T10:56:28Z</time>
      </trkpt>
      <trkpt lat="42.98154" lon="0.53762">
        <ele>1543.516</ele>
        <time>2021-02-27T10:56:30Z</time>
      </trkpt>
      <trkpt lat="42.98154" lon="0.53762">
        <ele>1543.514</ele>
        <time>2021-02-27T10:56:32Z</time>
      </trkpt>
      <trkpt lat="42.98154" lon="0.53762">
        <ele>1543.511</ele>
        <time>2021-02-27T10:56:34Z</time>
      </trkpt>
      <trkpt lat="42.98154" lon="0.53762">
        <ele>1543.511</ele>
        <time>2021-02-27T10:56:36Z</time>
      </trkpt>
      <trkpt lat="42.98154" lon="0.53762">
        <ele>1543.515</ele>
        <time>2021-02-27T10:56:38Z</time>
      </trkpt>
      <trkpt lat="42.98154" lon="0.53762">
        <ele>1543.516</ele>
        <time>2021-02-27T10:56:40Z</time>
      </trkpt>
      <trkpt lat="42.98154" lon="0.53762">
        <ele>1543.518</ele>
        <time>2021-02-27T10:56:42Z</time>
      </trkpt>
      <trkpt lat="42.98154" lon="0.53762">
        <ele>1543.533</ele>
        <time>2021-02-27T10:56:44Z</time>
      </trkpt>
      <trkpt lat="42.98154" lon="0.53761">
        <ele>1543.62</ele>
        <time>2021-02-27T10:56:46Z</time>
      </trkpt>
      <trkpt lat="42.98154" lon="0.53759">
        <ele>1543.314</ele>
        <time>2021-02-27T10:56:48Z</time>
      </trkpt>
      <trkpt lat="42.98154" lon="0.53758">
        <ele>1543.154</ele>
        <time>2021-02-27T10:56:50Z</time>
      </trkpt>
      <trkpt lat="42.98155" lon="0.53757">
        <ele>1543.435</ele>
        <time>2021-02-27T10:56:52Z</time>
      </trkpt>
      <trkpt lat="42.98155" lon="0.53756">
        <ele>1542.949</ele>
        <time>2021-02-27T10:56:54Z</time>
      </trkpt>
      <trkpt lat="42.98156" lon="0.53755">
        <ele>1543.407</ele>
        <time>2021-02-27T10:56:56Z</time>
      </trkpt>
      <trkpt lat="42.98155" lon="0.53755">
        <ele>1543.406</ele>
        <time>2021-02-27T10:56:58Z</time>
      </trkpt>
      <trkpt lat="42.98155" lon="0.53755">
        <ele>1543.399</ele>
        <time>2021-02-27T10:57:00Z</time>
      </trkpt>
      <trkpt lat="42.98155" lon="0.53755">
        <ele>1543.395</ele>
        <time>2021-02-27T10:57:02Z</time>
      </trkpt>
      <trkpt lat="42.98155" lon="0.53755">
        <ele>1543.395</ele>
        <time>2021-02-27T10:57:04Z</time>
      </trkpt>
      <trkpt lat="42.98155" lon="0.53755">
        <ele>1543.392</ele>
        <time>2021-02-27T10:57:06Z</time>
      </trkpt>
      <trkpt lat="42.98155" lon="0.53756">
        <ele>1543.247</ele>
        <time>2021-02-27T10:57:08Z</time>
      </trkpt>
      <trkpt lat="42.98155" lon="0.53756">
        <ele>1543.22</ele>
        <time>2021-02-27T10:57:10Z</time>
      </trkpt>
      <trkpt lat="42.98155" lon="0.53756">
        <ele>1543.32</ele>
        <time>2021-02-27T10:57:12Z</time>
      </trkpt>
      <trkpt lat="42.98155" lon="0.53756">
        <ele>1543.318</ele>
        <time>2021-02-27T10:57:14Z</time>
      </trkpt>
      <trkpt lat="42.98155" lon="0.53756">
        <ele>1543.317</ele>
        <time>2021-02-27T10:57:16Z</time>
      </trkpt>
      <trkpt lat="42.98155" lon="0.53756">
        <ele>1543.32</ele>
        <time>2021-02-27T10:57:18Z</time>
      </trkpt>
      <trkpt lat="42.98155" lon="0.53756">
        <ele>1543.319</ele>
        <time>2021-02-27T10:57:20Z</time>
      </trkpt>
      <trkpt lat="42.98155" lon="0.53756">
        <ele>1543.319</ele>
        <time>2021-02-27T10:57:22Z</time>
      </trkpt>
      <trkpt lat="42.98155" lon="0.53756">
        <ele>1543.316</ele>
        <time>2021-02-27T10:57:24Z</time>
      </trkpt>
      <trkpt lat="42.98155" lon="0.53756">
        <ele>1543.308</ele>
        <time>2021-02-27T10:57:26Z</time>
      </trkpt>
      <trkpt lat="42.98154" lon="0.53757">
        <ele>1542.848</ele>
        <time>2021-02-27T10:57:28Z</time>
      </trkpt>
      <trkpt lat="42.98155" lon="0.53759">
        <ele>1542.61</ele>
        <time>2021-02-27T10:57:30Z</time>
      </trkpt>
      <trkpt lat="42.98155" lon="0.5376">
        <ele>1542.414</ele>
        <time>2021-02-27T10:57:32Z</time>
      </trkpt>
      <trkpt lat="42.98155" lon="0.53761">
        <ele>1543.014</ele>
        <time>2021-02-27T10:57:34Z</time>
      </trkpt>
      <trkpt lat="42.98155" lon="0.53761">
        <ele>1543.018</ele>
        <time>2021-02-27T10:57:36Z</time>
      </trkpt>
      <trkpt lat="42.98155" lon="0.53761">
        <ele>1543.023</ele>
        <time>2021-02-27T10:57:38Z</time>
      </trkpt>
      <trkpt lat="42.98155" lon="0.53762">
        <ele>1542.745</ele>
        <time>2021-02-27T10:57:40Z</time>
      </trkpt>
      <trkpt lat="42.98155" lon="0.53762">
        <ele>1542.867</ele>
        <time>2021-02-27T10:57:42Z</time>
      </trkpt>
      <trkpt lat="42.98154" lon="0.53762">
        <ele>1542.908</ele>
        <time>2021-02-27T10:57:44Z</time>
      </trkpt>
      <trkpt lat="42.98154" lon="0.53762">
        <ele>1542.909</ele>
        <time>2021-02-27T10:57:46Z</time>
      </trkpt>
      <trkpt lat="42.98154" lon="0.53762">
        <ele>1542.917</ele>
        <time>2021-02-27T10:57:48Z</time>
      </trkpt>
      <trkpt lat="42.98154" lon="0.53762">
        <ele>1542.915</ele>
        <time>2021-02-27T10:57:49Z</time>
      </trkpt>
      <trkpt lat="42.98154" lon="0.53762">
        <ele>1542.587</ele>
        <time>2021-02-27T10:57:52Z</time>
      </trkpt>
      <trkpt lat="42.98154" lon="0.53762">
        <ele>1542.588</ele>
        <time>2021-02-27T10:57:54Z</time>
      </trkpt>
      <trkpt lat="42.98154" lon="0.53762">
        <ele>1542.593</ele>
        <time>2021-02-27T10:57:56Z</time>
      </trkpt>
      <trkpt lat="42.98154" lon="0.53762">
        <ele>1542.814</ele>
        <time>2021-02-27T10:57:58Z</time>
      </trkpt>
      <trkpt lat="42.98154" lon="0.53762">
        <ele>1542.832</ele>
        <time>2021-02-27T10:58:00Z</time>
      </trkpt>
      <trkpt lat="42.98154" lon="0.53762">
        <ele>1542.835</ele>
        <time>2021-02-27T10:58:02Z</time>
      </trkpt>
      <trkpt lat="42.98154" lon="0.53761">
        <ele>1543.192</ele>
        <time>2021-02-27T10:58:04Z</time>
      </trkpt>
      <trkpt lat="42.98153" lon="0.5376">
        <ele>1543.285</ele>
        <time>2021-02-27T10:58:06Z</time>
      </trkpt>
      <trkpt lat="42.98153" lon="0.53758">
        <ele>1543.606</ele>
        <time>2021-02-27T10:58:08Z</time>
      </trkpt>
      <trkpt lat="42.98154" lon="0.53759">
        <ele>1543.104</ele>
        <time>2021-02-27T10:58:10Z</time>
      </trkpt>
      <trkpt lat="42.98155" lon="0.53758">
        <ele>1542.793</ele>
        <time>2021-02-27T10:58:12Z</time>
      </trkpt>
      <trkpt lat="42.98155" lon="0.53758">
        <ele>1542.789</ele>
        <time>2021-02-27T10:58:14Z</time>
      </trkpt>
      <trkpt lat="42.98155" lon="0.53758">
        <ele>1542.499</ele>
        <time>2021-02-27T10:58:16Z</time>
      </trkpt>
      <trkpt lat="42.98155" lon="0.53758">
        <ele>1542.505</ele>
        <time>2021-02-27T10:58:18Z</time>
      </trkpt>
      <trkpt lat="42.98155" lon="0.53758">
        <ele>1542.508</ele>
        <time>2021-02-27T10:58:20Z</time>
      </trkpt>
      <trkpt lat="42.98155" lon="0.53758">
        <ele>1542.508</ele>
        <time>2021-02-27T10:58:22Z</time>
      </trkpt>
      <trkpt lat="42.98155" lon="0.53758">
        <ele>1542.505</ele>
        <time>2021-02-27T10:58:24Z</time>
      </trkpt>
      <trkpt lat="42.98155" lon="0.53758">
        <ele>1542.716</ele>
        <time>2021-02-27T10:58:26Z</time>
      </trkpt>
      <trkpt lat="42.98155" lon="0.53758">
        <ele>1542.708</ele>
        <time>2021-02-27T10:58:28Z</time>
      </trkpt>
      <trkpt lat="42.98155" lon="0.53758">
        <ele>1542.703</ele>
        <time>2021-02-27T10:58:30Z</time>
      </trkpt>
      <trkpt lat="42.98155" lon="0.53758">
        <ele>1542.704</ele>
        <time>2021-02-27T10:58:32Z</time>
      </trkpt>
      <trkpt lat="42.98155" lon="0.53758">
        <ele>1542.706</ele>
        <time>2021-02-27T10:58:34Z</time>
      </trkpt>
      <trkpt lat="42.98155" lon="0.53758">
        <ele>1542.708</ele>
        <time>2021-02-27T10:58:36Z</time>
      </trkpt>
      <trkpt lat="42.98155" lon="0.53758">
        <ele>1542.708</ele>
        <time>2021-02-27T10:58:38Z</time>
      </trkpt>
      <trkpt lat="42.98155" lon="0.53758">
        <ele>1542.711</ele>
        <time>2021-02-27T10:58:40Z</time>
      </trkpt>
      <trkpt lat="42.98155" lon="0.53758">
        <ele>1542.713</ele>
        <time>2021-02-27T10:58:42Z</time>
      </trkpt>
      <trkpt lat="42.98155" lon="0.53758">
        <ele>1542.716</ele>
        <time>2021-02-27T10:58:44Z</time>
      </trkpt>
      <trkpt lat="42.98155" lon="0.53758">
        <ele>1542.717</ele>
        <time>2021-02-27T10:58:45Z</time>
      </trkpt>
      <trkpt lat="42.98155" lon="0.53758">
        <ele>1542.712</ele>
        <time>2021-02-27T10:58:48Z</time>
      </trkpt>
      <trkpt lat="42.98155" lon="0.53758">
        <ele>1542.717</ele>
        <time>2021-02-27T10:58:50Z</time>
      </trkpt>
      <trkpt lat="42.98155" lon="0.53758">
        <ele>1542.719</ele>
        <time>2021-02-27T10:58:52Z</time>
      </trkpt>
      <trkpt lat="42.98155" lon="0.53758">
        <ele>1542.724</ele>
        <time>2021-02-27T10:58:54Z</time>
      </trkpt>
      <trkpt lat="42.98155" lon="0.53758">
        <ele>1542.724</ele>
        <time>2021-02-27T10:58:56Z</time>
      </trkpt>
      <trkpt lat="42.98155" lon="0.53758">
        <ele>1542.725</ele>
        <time>2021-02-27T10:58:58Z</time>
      </trkpt>
      <trkpt lat="42.98155" lon="0.53758">
        <ele>1542.725</ele>
        <time>2021-02-27T10:59:00Z</time>
      </trkpt>
      <trkpt lat="42.98155" lon="0.53758">
        <ele>1542.724</ele>
        <time>2021-02-27T10:59:02Z</time>
      </trkpt>
      <trkpt lat="42.98155" lon="0.53758">
        <ele>1542.722</ele>
        <time>2021-02-27T10:59:04Z</time>
      </trkpt>
      <trkpt lat="42.98155" lon="0.53758">
        <ele>1542.718</ele>
        <time>2021-02-27T10:59:06Z</time>
      </trkpt>
      <trkpt lat="42.98155" lon="0.53758">
        <ele>1542.72</ele>
        <time>2021-02-27T10:59:08Z</time>
      </trkpt>
      <trkpt lat="42.98155" lon="0.53758">
        <ele>1542.72</ele>
        <time>2021-02-27T10:59:10Z</time>
      </trkpt>
      <trkpt lat="42.98155" lon="0.53758">
        <ele>1542.722</ele>
        <time>2021-02-27T10:59:12Z</time>
      </trkpt>
      <trkpt lat="42.98155" lon="0.53758">
        <ele>1542.724</ele>
        <time>2021-02-27T10:59:14Z</time>
      </trkpt>
      <trkpt lat="42.98155" lon="0.53758">
        <ele>1542.722</ele>
        <time>2021-02-27T10:59:16Z</time>
      </trkpt>
      <trkpt lat="42.98155" lon="0.53758">
        <ele>1542.725</ele>
        <time>2021-02-27T10:59:18Z</time>
      </trkpt>
      <trkpt lat="42.98155" lon="0.53758">
        <ele>1542.731</ele>
        <time>2021-02-27T10:59:20Z</time>
      </trkpt>
      <trkpt lat="42.98155" lon="0.53758">
        <ele>1542.737</ele>
        <time>2021-02-27T10:59:22Z</time>
      </trkpt>
      <trkpt lat="42.98155" lon="0.53758">
        <ele>1542.739</ele>
        <time>2021-02-27T10:59:24Z</time>
      </trkpt>
      <trkpt lat="42.98155" lon="0.53758">
        <ele>1542.747</ele>
        <time>2021-02-27T10:59:26Z</time>
      </trkpt>
      <trkpt lat="42.98155" lon="0.53758">
        <ele>1542.754</ele>
        <time>2021-02-27T10:59:28Z</time>
      </trkpt>
      <trkpt lat="42.98155" lon="0.53758">
        <ele>1542.76</ele>
        <time>2021-02-27T10:59:30Z</time>
      </trkpt>
      <trkpt lat="42.98155" lon="0.53758">
        <ele>1542.79</ele>
        <time>2021-02-27T10:59:32Z</time>
      </trkpt>
      <trkpt lat="42.98155" lon="0.53758">
        <ele>1542.798</ele>
        <time>2021-02-27T10:59:34Z</time>
      </trkpt>
      <trkpt lat="42.98155" lon="0.53758">
        <ele>1542.935</ele>
        <time>2021-02-27T10:59:36Z</time>
      </trkpt>
      <trkpt lat="42.98155" lon="0.53758">
        <ele>1542.906</ele>
        <time>2021-02-27T10:59:38Z</time>
      </trkpt>
      <trkpt lat="42.98155" lon="0.53758">
        <ele>1542.931</ele>
        <time>2021-02-27T10:59:40Z</time>
      </trkpt>
      <trkpt lat="42.98155" lon="0.53758">
        <ele>1542.933</ele>
        <time>2021-02-27T10:59:42Z</time>
      </trkpt>
      <trkpt lat="42.98155" lon="0.53758">
        <ele>1542.935</ele>
        <time>2021-02-27T10:59:44Z</time>
      </trkpt>
      <trkpt lat="42.98155" lon="0.53758">
        <ele>1542.936</ele>
        <time>2021-02-27T10:59:46Z</time>
      </trkpt>
      <trkpt lat="42.98155" lon="0.53758">
        <ele>1542.939</ele>
        <time>2021-02-27T10:59:48Z</time>
      </trkpt>
      <trkpt lat="42.98155" lon="0.53758">
        <ele>1542.94</ele>
        <time>2021-02-27T10:59:50Z</time>
      </trkpt>
      <trkpt lat="42.98155" lon="0.53758">
        <ele>1542.941</ele>
        <time>2021-02-27T10:59:52Z</time>
      </trkpt>
      <trkpt lat="42.98155" lon="0.53758">
        <ele>1542.94</ele>
        <time>2021-02-27T10:59:54Z</time>
      </trkpt>
      <trkpt lat="42.98155" lon="0.53758">
        <ele>1543.248</ele>
        <time>2021-02-27T10:59:56Z</time>
      </trkpt>
      <trkpt lat="42.98155" lon="0.53759">
        <ele>1543.25</ele>
        <time>2021-02-27T10:59:58Z</time>
      </trkpt>
      <trkpt lat="42.98155" lon="0.53759">
        <ele>1543.433</ele>
        <time>2021-02-27T11:00:00Z</time>
      </trkpt>
      <trkpt lat="42.98155" lon="0.53759">
        <ele>1543.425</ele>
        <time>2021-02-27T11:00:02Z</time>
      </trkpt>
      <trkpt lat="42.98155" lon="0.53759">
        <ele>1543.42</ele>
        <time>2021-02-27T11:00:04Z</time>
      </trkpt>
      <trkpt lat="42.98155" lon="0.53759">
        <ele>1543.416</ele>
        <time>2021-02-27T11:00:06Z</time>
      </trkpt>
      <trkpt lat="42.98155" lon="0.53759">
        <ele>1543.414</ele>
        <time>2021-02-27T11:00:08Z</time>
      </trkpt>
      <trkpt lat="42.98155" lon="0.53759">
        <ele>1543.414</ele>
        <time>2021-02-27T11:00:10Z</time>
      </trkpt>
      <trkpt lat="42.98155" lon="0.53759">
        <ele>1543.415</ele>
        <time>2021-02-27T11:00:12Z</time>
      </trkpt>
      <trkpt lat="42.98155" lon="0.53759">
        <ele>1543.42</ele>
        <time>2021-02-27T11:00:14Z</time>
      </trkpt>
      <trkpt lat="42.98155" lon="0.53759">
        <ele>1543.421</ele>
        <time>2021-02-27T11:00:16Z</time>
      </trkpt>
      <trkpt lat="42.98155" lon="0.53759">
        <ele>1543.419</ele>
        <time>2021-02-27T11:00:18Z</time>
      </trkpt>
      <trkpt lat="42.98155" lon="0.53758">
        <ele>1543.415</ele>
        <time>2021-02-27T11:00:20Z</time>
      </trkpt>
      <trkpt lat="42.98155" lon="0.53758">
        <ele>1543.41</ele>
        <time>2021-02-27T11:00:22Z</time>
      </trkpt>
      <trkpt lat="42.98155" lon="0.53758">
        <ele>1543.409</ele>
        <time>2021-02-27T11:00:24Z</time>
      </trkpt>
      <trkpt lat="42.98155" lon="0.53759">
        <ele>1543.653</ele>
        <time>2021-02-27T11:00:26Z</time>
      </trkpt>
      <trkpt lat="42.98154" lon="0.53759">
        <ele>1543.62</ele>
        <time>2021-02-27T11:00:28Z</time>
      </trkpt>
      <trkpt lat="42.98154" lon="0.53759">
        <ele>1543.618</ele>
        <time>2021-02-27T11:00:30Z</time>
      </trkpt>
      <trkpt lat="42.98154" lon="0.53759">
        <ele>1543.618</ele>
        <time>2021-02-27T11:00:32Z</time>
      </trkpt>
      <trkpt lat="42.98154" lon="0.53759">
        <ele>1543.621</ele>
        <time>2021-02-27T11:00:34Z</time>
      </trkpt>
      <trkpt lat="42.98154" lon="0.53759">
        <ele>1543.621</ele>
        <time>2021-02-27T11:00:36Z</time>
      </trkpt>
      <trkpt lat="42.98154" lon="0.53759">
        <ele>1543.626</ele>
        <time>2021-02-27T11:00:38Z</time>
      </trkpt>
      <trkpt lat="42.98154" lon="0.53759">
        <ele>1543.621</ele>
        <time>2021-02-27T11:00:40Z</time>
      </trkpt>
      <trkpt lat="42.98154" lon="0.53759">
        <ele>1543.617</ele>
        <time>2021-02-27T11:00:42Z</time>
      </trkpt>
      <trkpt lat="42.98154" lon="0.53759">
        <ele>1543.613</ele>
        <time>2021-02-27T11:00:44Z</time>
      </trkpt>
      <trkpt lat="42.98154" lon="0.53759">
        <ele>1543.615</ele>
        <time>2021-02-27T11:00:46Z</time>
      </trkpt>
      <trkpt lat="42.98154" lon="0.53759">
        <ele>1543.613</ele>
        <time>2021-02-27T11:00:48Z</time>
      </trkpt>
      <trkpt lat="42.98154" lon="0.53759">
        <ele>1543.617</ele>
        <time>2021-02-27T11:00:50Z</time>
      </trkpt>
      <trkpt lat="42.98154" lon="0.53759">
        <ele>1543.615</ele>
        <time>2021-02-27T11:00:52Z</time>
      </trkpt>
      <trkpt lat="42.98154" lon="0.53759">
        <ele>1543.618</ele>
        <time>2021-02-27T11:00:54Z</time>
      </trkpt>
      <trkpt lat="42.98154" lon="0.53759">
        <ele>1543.621</ele>
        <time>2021-02-27T11:00:56Z</time>
      </trkpt>
      <trkpt lat="42.98154" lon="0.53759">
        <ele>1543.629</ele>
        <time>2021-02-27T11:00:58Z</time>
      </trkpt>
      <trkpt lat="42.98154" lon="0.53759">
        <ele>1543.633</ele>
        <time>2021-02-27T11:01:00Z</time>
      </trkpt>
      <trkpt lat="42.98154" lon="0.53759">
        <ele>1543.64</ele>
        <time>2021-02-27T11:01:02Z</time>
      </trkpt>
      <trkpt lat="42.98154" lon="0.53759">
        <ele>1543.643</ele>
        <time>2021-02-27T11:01:04Z</time>
      </trkpt>
      <trkpt lat="42.98154" lon="0.53759">
        <ele>1543.645</ele>
        <time>2021-02-27T11:01:06Z</time>
      </trkpt>
      <trkpt lat="42.98154" lon="0.53759">
        <ele>1543.648</ele>
        <time>2021-02-27T11:01:08Z</time>
      </trkpt>
      <trkpt lat="42.98154" lon="0.53759">
        <ele>1543.652</ele>
        <time>2021-02-27T11:01:10Z</time>
      </trkpt>
      <trkpt lat="42.98155" lon="0.53759">
        <ele>1543.651</ele>
        <time>2021-02-27T11:01:12Z</time>
      </trkpt>
      <trkpt lat="42.98155" lon="0.53759">
        <ele>1543.648</ele>
        <time>2021-02-27T11:01:14Z</time>
      </trkpt>
      <trkpt lat="42.98155" lon="0.53759">
        <ele>1543.647</ele>
        <time>2021-02-27T11:01:16Z</time>
      </trkpt>
      <trkpt lat="42.98155" lon="0.53759">
        <ele>1543.651</ele>
        <time>2021-02-27T11:01:18Z</time>
      </trkpt>
      <trkpt lat="42.98155" lon="0.53759">
        <ele>1543.656</ele>
        <time>2021-02-27T11:01:20Z</time>
      </trkpt>
      <trkpt lat="42.98155" lon="0.53759">
        <ele>1543.659</ele>
        <time>2021-02-27T11:01:22Z</time>
      </trkpt>
      <trkpt lat="42.98155" lon="0.53759">
        <ele>1543.662</ele>
        <time>2021-02-27T11:01:24Z</time>
      </trkpt>
      <trkpt lat="42.98155" lon="0.53759">
        <ele>1543.669</ele>
        <time>2021-02-27T11:01:26Z</time>
      </trkpt>
      <trkpt lat="42.98155" lon="0.53759">
        <ele>1543.672</ele>
        <time>2021-02-27T11:01:29Z</time>
      </trkpt>
      <trkpt lat="42.98155" lon="0.53759">
        <ele>1543.675</ele>
        <time>2021-02-27T11:01:31Z</time>
      </trkpt>
      <trkpt lat="42.98155" lon="0.53759">
        <ele>1543.702</ele>
        <time>2021-02-27T11:01:33Z</time>
      </trkpt>
      <trkpt lat="42.98155" lon="0.5376">
        <ele>1543.705</ele>
        <time>2021-02-27T11:01:35Z</time>
      </trkpt>
      <trkpt lat="42.98155" lon="0.5376">
        <ele>1543.81</ele>
        <time>2021-02-27T11:01:37Z</time>
      </trkpt>
      <trkpt lat="42.98155" lon="0.5376">
        <ele>1543.812</ele>
        <time>2021-02-27T11:01:39Z</time>
      </trkpt>
      <trkpt lat="42.98155" lon="0.5376">
        <ele>1543.816</ele>
        <time>2021-02-27T11:01:41Z</time>
      </trkpt>
      <trkpt lat="42.98155" lon="0.5376">
        <ele>1543.817</ele>
        <time>2021-02-27T11:01:43Z</time>
      </trkpt>
      <trkpt lat="42.98155" lon="0.5376">
        <ele>1543.819</ele>
        <time>2021-02-27T11:01:45Z</time>
      </trkpt>
      <trkpt lat="42.98155" lon="0.5376">
        <ele>1543.824</ele>
        <time>2021-02-27T11:01:47Z</time>
      </trkpt>
      <trkpt lat="42.98155" lon="0.5376">
        <ele>1543.827</ele>
        <time>2021-02-27T11:01:49Z</time>
      </trkpt>
      <trkpt lat="42.98155" lon="0.5376">
        <ele>1543.827</ele>
        <time>2021-02-27T11:01:51Z</time>
      </trkpt>
      <trkpt lat="42.98155" lon="0.5376">
        <ele>1543.831</ele>
        <time>2021-02-27T11:01:53Z</time>
      </trkpt>
      <trkpt lat="42.98155" lon="0.5376">
        <ele>1543.827</ele>
        <time>2021-02-27T11:01:55Z</time>
      </trkpt>
      <trkpt lat="42.98155" lon="0.5376">
        <ele>1543.822</ele>
        <time>2021-02-27T11:01:57Z</time>
      </trkpt>
      <trkpt lat="42.98155" lon="0.5376">
        <ele>1543.824</ele>
        <time>2021-02-27T11:01:59Z</time>
      </trkpt>
      <trkpt lat="42.98155" lon="0.5376">
        <ele>1543.819</ele>
        <time>2021-02-27T11:02:01Z</time>
      </trkpt>
      <trkpt lat="42.98155" lon="0.5376">
        <ele>1543.823</ele>
        <time>2021-02-27T11:02:03Z</time>
      </trkpt>
      <trkpt lat="42.98155" lon="0.5376">
        <ele>1543.823</ele>
        <time>2021-02-27T11:02:05Z</time>
      </trkpt>
      <trkpt lat="42.98155" lon="0.5376">
        <ele>1543.822</ele>
        <time>2021-02-27T11:02:07Z</time>
      </trkpt>
      <trkpt lat="42.98155" lon="0.5376">
        <ele>1543.822</ele>
        <time>2021-02-27T11:02:09Z</time>
      </trkpt>
      <trkpt lat="42.98155" lon="0.5376">
        <ele>1543.821</ele>
        <time>2021-02-27T11:02:11Z</time>
      </trkpt>
      <trkpt lat="42.98155" lon="0.5376">
        <ele>1543.815</ele>
        <time>2021-02-27T11:02:13Z</time>
      </trkpt>
      <trkpt lat="42.98155" lon="0.5376">
        <ele>1543.971</ele>
        <time>2021-02-27T11:02:15Z</time>
      </trkpt>
      <trkpt lat="42.98155" lon="0.53759">
        <ele>1544.097</ele>
        <time>2021-02-27T11:02:17Z</time>
      </trkpt>
      <trkpt lat="42.98155" lon="0.53759">
        <ele>1544.097</ele>
        <time>2021-02-27T11:02:19Z</time>
      </trkpt>
      <trkpt lat="42.98155" lon="0.53759">
        <ele>1544.105</ele>
        <time>2021-02-27T11:02:21Z</time>
      </trkpt>
      <trkpt lat="42.98155" lon="0.53759">
        <ele>1544.109</ele>
        <time>2021-02-27T11:02:23Z</time>
      </trkpt>
      <trkpt lat="42.98155" lon="0.53759">
        <ele>1544.112</ele>
        <time>2021-02-27T11:02:25Z</time>
      </trkpt>
      <trkpt lat="42.98155" lon="0.53759">
        <ele>1544.108</ele>
        <time>2021-02-27T11:02:27Z</time>
      </trkpt>
      <trkpt lat="42.98155" lon="0.53759">
        <ele>1544.111</ele>
        <time>2021-02-27T11:02:29Z</time>
      </trkpt>
      <trkpt lat="42.98155" lon="0.53759">
        <ele>1544.114</ele>
        <time>2021-02-27T11:02:31Z</time>
      </trkpt>
      <trkpt lat="42.98155" lon="0.53759">
        <ele>1544.11</ele>
        <time>2021-02-27T11:02:33Z</time>
      </trkpt>
      <trkpt lat="42.98155" lon="0.53759">
        <ele>1544.113</ele>
        <time>2021-02-27T11:02:35Z</time>
      </trkpt>
      <trkpt lat="42.98155" lon="0.53759">
        <ele>1544.11</ele>
        <time>2021-02-27T11:02:37Z</time>
      </trkpt>
      <trkpt lat="42.98155" lon="0.53759">
        <ele>1544.115</ele>
        <time>2021-02-27T11:02:39Z</time>
      </trkpt>
      <trkpt lat="42.98155" lon="0.53759">
        <ele>1544.116</ele>
        <time>2021-02-27T11:02:41Z</time>
      </trkpt>
      <trkpt lat="42.98155" lon="0.53759">
        <ele>1544.116</ele>
        <time>2021-02-27T11:02:43Z</time>
      </trkpt>
      <trkpt lat="42.98155" lon="0.53759">
        <ele>1544.114</ele>
        <time>2021-02-27T11:02:45Z</time>
      </trkpt>
      <trkpt lat="42.98155" lon="0.53759">
        <ele>1544.106</ele>
        <time>2021-02-27T11:02:47Z</time>
      </trkpt>
      <trkpt lat="42.98155" lon="0.53759">
        <ele>1543.934</ele>
        <time>2021-02-27T11:02:49Z</time>
      </trkpt>
      <trkpt lat="42.98155" lon="0.53759">
        <ele>1543.85</ele>
        <time>2021-02-27T11:02:51Z</time>
      </trkpt>
      <trkpt lat="42.98155" lon="0.53759">
        <ele>1543.852</ele>
        <time>2021-02-27T11:02:53Z</time>
      </trkpt>
      <trkpt lat="42.98155" lon="0.53759">
        <ele>1543.855</ele>
        <time>2021-02-27T11:02:55Z</time>
      </trkpt>
      <trkpt lat="42.98155" lon="0.53759">
        <ele>1543.855</ele>
        <time>2021-02-27T11:02:57Z</time>
      </trkpt>
      <trkpt lat="42.98155" lon="0.53759">
        <ele>1543.852</ele>
        <time>2021-02-27T11:02:59Z</time>
      </trkpt>
      <trkpt lat="42.98155" lon="0.53759">
        <ele>1543.735</ele>
        <time>2021-02-27T11:03:01Z</time>
      </trkpt>
      <trkpt lat="42.98155" lon="0.5376">
        <ele>1543.556</ele>
        <time>2021-02-27T11:03:03Z</time>
      </trkpt>
      <trkpt lat="42.98155" lon="0.53759">
        <ele>1543.937</ele>
        <time>2021-02-27T11:03:05Z</time>
      </trkpt>
      <trkpt lat="42.98155" lon="0.53759">
        <ele>1543.945</ele>
        <time>2021-02-27T11:03:07Z</time>
      </trkpt>
      <trkpt lat="42.98155" lon="0.53759">
        <ele>1543.95</ele>
        <time>2021-02-27T11:03:09Z</time>
      </trkpt>
      <trkpt lat="42.98155" lon="0.53759">
        <ele>1543.951</ele>
        <time>2021-02-27T11:03:11Z</time>
      </trkpt>
      <trkpt lat="42.98155" lon="0.53759">
        <ele>1543.949</ele>
        <time>2021-02-27T11:03:13Z</time>
      </trkpt>
      <trkpt lat="42.98155" lon="0.53759">
        <ele>1543.946</ele>
        <time>2021-02-27T11:03:15Z</time>
      </trkpt>
      <trkpt lat="42.98155" lon="0.53759">
        <ele>1543.945</ele>
        <time>2021-02-27T11:03:17Z</time>
      </trkpt>
      <trkpt lat="42.98155" lon="0.53759">
        <ele>1543.943</ele>
        <time>2021-02-27T11:03:19Z</time>
      </trkpt>
      <trkpt lat="42.98155" lon="0.53759">
        <ele>1544.136</ele>
        <time>2021-02-27T11:03:21Z</time>
      </trkpt>
      <trkpt lat="42.98154" lon="0.53759">
        <ele>1544.636</ele>
        <time>2021-02-27T11:03:23Z</time>
      </trkpt>
      <trkpt lat="42.98154" lon="0.53759">
        <ele>1544.641</ele>
        <time>2021-02-27T11:03:25Z</time>
      </trkpt>
      <trkpt lat="42.98154" lon="0.53759">
        <ele>1544.644</ele>
        <time>2021-02-27T11:03:27Z</time>
      </trkpt>
      <trkpt lat="42.98154" lon="0.53759">
        <ele>1544.646</ele>
        <time>2021-02-27T11:03:29Z</time>
      </trkpt>
      <trkpt lat="42.98154" lon="0.53759">
        <ele>1544.648</ele>
        <time>2021-02-27T11:03:31Z</time>
      </trkpt>
      <trkpt lat="42.98154" lon="0.53759">
        <ele>1544.774</ele>
        <time>2021-02-27T11:03:33Z</time>
      </trkpt>
      <trkpt lat="42.98154" lon="0.53759">
        <ele>1544.763</ele>
        <time>2021-02-27T11:03:35Z</time>
      </trkpt>
      <trkpt lat="42.98154" lon="0.53759">
        <ele>1544.755</ele>
        <time>2021-02-27T11:03:37Z</time>
      </trkpt>
      <trkpt lat="42.98154" lon="0.53759">
        <ele>1543.558</ele>
        <time>2021-02-27T11:03:39Z</time>
      </trkpt>
      <trkpt lat="42.98155" lon="0.5376">
        <ele>1542.945</ele>
        <time>2021-02-27T11:03:41Z</time>
      </trkpt>
      <trkpt lat="42.98155" lon="0.53761">
        <ele>1543.086</ele>
        <time>2021-02-27T11:03:43Z</time>
      </trkpt>
      <trkpt lat="42.98155" lon="0.53761">
        <ele>1543.083</ele>
        <time>2021-02-27T11:03:45Z</time>
      </trkpt>
      <trkpt lat="42.98155" lon="0.53761">
        <ele>1544.095</ele>
        <time>2021-02-27T11:03:47Z</time>
      </trkpt>
      <trkpt lat="42.98155" lon="0.53761">
        <ele>1544.066</ele>
        <time>2021-02-27T11:03:49Z</time>
      </trkpt>
      <trkpt lat="42.98155" lon="0.53761">
        <ele>1544.067</ele>
        <time>2021-02-27T11:03:51Z</time>
      </trkpt>
      <trkpt lat="42.98155" lon="0.53761">
        <ele>1544.074</ele>
        <time>2021-02-27T11:03:53Z</time>
      </trkpt>
      <trkpt lat="42.98155" lon="0.53761">
        <ele>1544.08</ele>
        <time>2021-02-27T11:03:55Z</time>
      </trkpt>
      <trkpt lat="42.98155" lon="0.53761">
        <ele>1544.082</ele>
        <time>2021-02-27T11:03:57Z</time>
      </trkpt>
      <trkpt lat="42.98155" lon="0.53761">
        <ele>1544.019</ele>
        <time>2021-02-27T11:03:59Z</time>
      </trkpt>
      <trkpt lat="42.98156" lon="0.53761">
        <ele>1544.427</ele>
        <time>2021-02-27T11:04:01Z</time>
      </trkpt>
      <trkpt lat="42.98155" lon="0.53762">
        <ele>1544.642</ele>
        <time>2021-02-27T11:04:03Z</time>
      </trkpt>
      <trkpt lat="42.98154" lon="0.53762">
        <ele>1544.496</ele>
        <time>2021-02-27T11:04:05Z</time>
      </trkpt>
      <trkpt lat="42.98155" lon="0.53763">
        <ele>1545.053</ele>
        <time>2021-02-27T11:04:07Z</time>
      </trkpt>
      <trkpt lat="42.98155" lon="0.53763">
        <ele>1545.05</ele>
        <time>2021-02-27T11:04:09Z</time>
      </trkpt>
      <trkpt lat="42.98155" lon="0.53763">
        <ele>1545.153</ele>
        <time>2021-02-27T11:04:11Z</time>
      </trkpt>
      <trkpt lat="42.98155" lon="0.53763">
        <ele>1545.17</ele>
        <time>2021-02-27T11:04:13Z</time>
      </trkpt>
      <trkpt lat="42.98155" lon="0.53763">
        <ele>1545.006</ele>
        <time>2021-02-27T11:04:15Z</time>
      </trkpt>
      <trkpt lat="42.98155" lon="0.53763">
        <ele>1544.999</ele>
        <time>2021-02-27T11:04:17Z</time>
      </trkpt>
      <trkpt lat="42.98155" lon="0.53763">
        <ele>1544.997</ele>
        <time>2021-02-27T11:04:19Z</time>
      </trkpt>
      <trkpt lat="42.98155" lon="0.53763">
        <ele>1544.973</ele>
        <time>2021-02-27T11:04:21Z</time>
      </trkpt>
      <trkpt lat="42.98155" lon="0.53763">
        <ele>1545.616</ele>
        <time>2021-02-27T11:04:23Z</time>
      </trkpt>
      <trkpt lat="42.98155" lon="0.53763">
        <ele>1545.619</ele>
        <time>2021-02-27T11:04:25Z</time>
      </trkpt>
      <trkpt lat="42.98155" lon="0.53763">
        <ele>1545.627</ele>
        <time>2021-02-27T11:04:27Z</time>
      </trkpt>
      <trkpt lat="42.98155" lon="0.53763">
        <ele>1545.63</ele>
        <time>2021-02-27T11:04:29Z</time>
      </trkpt>
      <trkpt lat="42.98155" lon="0.53763">
        <ele>1545.63</ele>
        <time>2021-02-27T11:04:31Z</time>
      </trkpt>
      <trkpt lat="42.98155" lon="0.53762">
        <ele>1545.634</ele>
        <time>2021-02-27T11:04:33Z</time>
      </trkpt>
      <trkpt lat="42.98155" lon="0.53762">
        <ele>1546.379</ele>
        <time>2021-02-27T11:04:35Z</time>
      </trkpt>
      <trkpt lat="42.98155" lon="0.53762">
        <ele>1546.012</ele>
        <time>2021-02-27T11:04:37Z</time>
      </trkpt>
      <trkpt lat="42.98155" lon="0.53762">
        <ele>1545.43</ele>
        <time>2021-02-27T11:04:39Z</time>
      </trkpt>
      <trkpt lat="42.98155" lon="0.53762">
        <ele>1545.451</ele>
        <time>2021-02-27T11:04:41Z</time>
      </trkpt>
      <trkpt lat="42.98155" lon="0.53762">
        <ele>1545.447</ele>
        <time>2021-02-27T11:04:43Z</time>
      </trkpt>
      <trkpt lat="42.98155" lon="0.53762">
        <ele>1545.445</ele>
        <time>2021-02-27T11:04:45Z</time>
      </trkpt>
      <trkpt lat="42.98155" lon="0.53762">
        <ele>1545.444</ele>
        <time>2021-02-27T11:04:47Z</time>
      </trkpt>
      <trkpt lat="42.98155" lon="0.53762">
        <ele>1545.438</ele>
        <time>2021-02-27T11:04:49Z</time>
      </trkpt>
      <trkpt lat="42.98155" lon="0.53762">
        <ele>1545.435</ele>
        <time>2021-02-27T11:04:51Z</time>
      </trkpt>
      <trkpt lat="42.98155" lon="0.53762">
        <ele>1545.434</ele>
        <time>2021-02-27T11:04:53Z</time>
      </trkpt>
      <trkpt lat="42.98155" lon="0.53762">
        <ele>1545.432</ele>
        <time>2021-02-27T11:04:55Z</time>
      </trkpt>
      <trkpt lat="42.98155" lon="0.53762">
        <ele>1545.432</ele>
        <time>2021-02-27T11:04:57Z</time>
      </trkpt>
      <trkpt lat="42.98155" lon="0.53762">
        <ele>1545.43</ele>
        <time>2021-02-27T11:04:59Z</time>
      </trkpt>
      <trkpt lat="42.98155" lon="0.53762">
        <ele>1545.429</ele>
        <time>2021-02-27T11:05:01Z</time>
      </trkpt>
      <trkpt lat="42.98155" lon="0.53762">
        <ele>1545.429</ele>
        <time>2021-02-27T11:05:04Z</time>
      </trkpt>
      <trkpt lat="42.98155" lon="0.53761">
        <ele>1545.782</ele>
        <time>2021-02-27T11:05:06Z</time>
      </trkpt>
      <trkpt lat="42.98155" lon="0.53761">
        <ele>1545.773</ele>
        <time>2021-02-27T11:05:08Z</time>
      </trkpt>
      <trkpt lat="42.98155" lon="0.53761">
        <ele>1545.764</ele>
        <time>2021-02-27T11:05:10Z</time>
      </trkpt>
      <trkpt lat="42.98154" lon="0.53761">
        <ele>1545.559</ele>
        <time>2021-02-27T11:05:12Z</time>
      </trkpt>
      <trkpt lat="42.98154" lon="0.5376">
        <ele>1545.71</ele>
        <time>2021-02-27T11:05:14Z</time>
      </trkpt>
      <trkpt lat="42.98153" lon="0.53759">
        <ele>1545.99</ele>
        <time>2021-02-27T11:05:16Z</time>
      </trkpt>
      <trkpt lat="42.98153" lon="0.53759">
        <ele>1545.969</ele>
        <time>2021-02-27T11:05:18Z</time>
      </trkpt>
      <trkpt lat="42.98153" lon="0.53759">
        <ele>1545.971</ele>
        <time>2021-02-27T11:05:20Z</time>
      </trkpt>
      <trkpt lat="42.98153" lon="0.53759">
        <ele>1545.975</ele>
        <time>2021-02-27T11:05:22Z</time>
      </trkpt>
      <trkpt lat="42.98153" lon="0.5376">
        <ele>1545.97</ele>
        <time>2021-02-27T11:05:24Z</time>
      </trkpt>
      <trkpt lat="42.98153" lon="0.5376">
        <ele>1546.151</ele>
        <time>2021-02-27T11:05:26Z</time>
      </trkpt>
      <trkpt lat="42.98153" lon="0.5376">
        <ele>1546.154</ele>
        <time>2021-02-27T11:05:28Z</time>
      </trkpt>
      <trkpt lat="42.98153" lon="0.5376">
        <ele>1546.158</ele>
        <time>2021-02-27T11:05:30Z</time>
      </trkpt>
      <trkpt lat="42.98153" lon="0.5376">
        <ele>1546.16</ele>
        <time>2021-02-27T11:05:32Z</time>
      </trkpt>
      <trkpt lat="42.98153" lon="0.5376">
        <ele>1546.156</ele>
        <time>2021-02-27T11:05:34Z</time>
      </trkpt>
      <trkpt lat="42.98153" lon="0.5376">
        <ele>1546.156</ele>
        <time>2021-02-27T11:05:36Z</time>
      </trkpt>
      <trkpt lat="42.98153" lon="0.5376">
        <ele>1546.153</ele>
        <time>2021-02-27T11:05:38Z</time>
      </trkpt>
      <trkpt lat="42.98153" lon="0.5376">
        <ele>1546.146</ele>
        <time>2021-02-27T11:05:40Z</time>
      </trkpt>
      <trkpt lat="42.98154" lon="0.53759">
        <ele>1546.263</ele>
        <time>2021-02-27T11:05:42Z</time>
      </trkpt>
      <trkpt lat="42.98154" lon="0.5376">
        <ele>1546.172</ele>
        <time>2021-02-27T11:05:44Z</time>
      </trkpt>
      <trkpt lat="42.98154" lon="0.5376">
        <ele>1546.07</ele>
        <time>2021-02-27T11:05:46Z</time>
      </trkpt>
      <trkpt lat="42.98154" lon="0.5376">
        <ele>1546.07</ele>
        <time>2021-02-27T11:05:48Z</time>
      </trkpt>
      <trkpt lat="42.98154" lon="0.5376">
        <ele>1546.066</ele>
        <time>2021-02-27T11:05:50Z</time>
      </trkpt>
      <trkpt lat="42.98154" lon="0.5376">
        <ele>1546.062</ele>
        <time>2021-02-27T11:05:52Z</time>
      </trkpt>
      <trkpt lat="42.98154" lon="0.53759">
        <ele>1546.063</ele>
        <time>2021-02-27T11:05:54Z</time>
      </trkpt>
      <trkpt lat="42.98154" lon="0.53759">
        <ele>1546.065</ele>
        <time>2021-02-27T11:05:56Z</time>
      </trkpt>
      <trkpt lat="42.98154" lon="0.53759">
        <ele>1546.06</ele>
        <time>2021-02-27T11:05:58Z</time>
      </trkpt>
      <trkpt lat="42.98154" lon="0.53759">
        <ele>1546.058</ele>
        <time>2021-02-27T11:06:00Z</time>
      </trkpt>
      <trkpt lat="42.98154" lon="0.53759">
        <ele>1546.054</ele>
        <time>2021-02-27T11:06:02Z</time>
      </trkpt>
      <trkpt lat="42.98154" lon="0.53759">
        <ele>1546.053</ele>
        <time>2021-02-27T11:06:04Z</time>
      </trkpt>
      <trkpt lat="42.98154" lon="0.5376">
        <ele>1546.006</ele>
        <time>2021-02-27T11:06:06Z</time>
      </trkpt>
      <trkpt lat="42.98154" lon="0.5376">
        <ele>1546.047</ele>
        <time>2021-02-27T11:06:08Z</time>
      </trkpt>
      <trkpt lat="42.98154" lon="0.5376">
        <ele>1546.054</ele>
        <time>2021-02-27T11:06:10Z</time>
      </trkpt>
      <trkpt lat="42.98154" lon="0.5376">
        <ele>1546.428</ele>
        <time>2021-02-27T11:06:12Z</time>
      </trkpt>
      <trkpt lat="42.98154" lon="0.5376">
        <ele>1546.26</ele>
        <time>2021-02-27T11:06:14Z</time>
      </trkpt>
      <trkpt lat="42.98154" lon="0.5376">
        <ele>1546.257</ele>
        <time>2021-02-27T11:06:16Z</time>
      </trkpt>
      <trkpt lat="42.98154" lon="0.5376">
        <ele>1546.258</ele>
        <time>2021-02-27T11:06:18Z</time>
      </trkpt>
      <trkpt lat="42.98154" lon="0.5376">
        <ele>1546.259</ele>
        <time>2021-02-27T11:06:19Z</time>
      </trkpt>
      <trkpt lat="42.98154" lon="0.5376">
        <ele>1546.252</ele>
        <time>2021-02-27T11:06:22Z</time>
      </trkpt>
      <trkpt lat="42.98154" lon="0.5376">
        <ele>1546.252</ele>
        <time>2021-02-27T11:06:24Z</time>
      </trkpt>
      <trkpt lat="42.98154" lon="0.5376">
        <ele>1546.249</ele>
        <time>2021-02-27T11:06:26Z</time>
      </trkpt>
      <trkpt lat="42.98154" lon="0.5376">
        <ele>1546.247</ele>
        <time>2021-02-27T11:06:28Z</time>
      </trkpt>
      <trkpt lat="42.98154" lon="0.5376">
        <ele>1546.243</ele>
        <time>2021-02-27T11:06:30Z</time>
      </trkpt>
      <trkpt lat="42.98155" lon="0.5376">
        <ele>1546.205</ele>
        <time>2021-02-27T11:06:32Z</time>
      </trkpt>
      <trkpt lat="42.98154" lon="0.53759">
        <ele>1546.187</ele>
        <time>2021-02-27T11:06:34Z</time>
      </trkpt>
      <trkpt lat="42.98154" lon="0.53759">
        <ele>1545.831</ele>
        <time>2021-02-27T11:06:36Z</time>
      </trkpt>
      <trkpt lat="42.98154" lon="0.53759">
        <ele>1545.821</ele>
        <time>2021-02-27T11:06:38Z</time>
      </trkpt>
      <trkpt lat="42.98154" lon="0.53759">
        <ele>1545.816</ele>
        <time>2021-02-27T11:06:40Z</time>
      </trkpt>
      <trkpt lat="42.98154" lon="0.53759">
        <ele>1545.795</ele>
        <time>2021-02-27T11:06:42Z</time>
      </trkpt>
      <trkpt lat="42.98154" lon="0.53758">
        <ele>1545.506</ele>
        <time>2021-02-27T11:06:44Z</time>
      </trkpt>
      <trkpt lat="42.98154" lon="0.53759">
        <ele>1545.516</ele>
        <time>2021-02-27T11:06:45Z</time>
      </trkpt>
      <trkpt lat="42.98155" lon="0.5376">
        <ele>1544.353</ele>
        <time>2021-02-27T11:06:52Z</time>
      </trkpt>
      <trkpt lat="42.98155" lon="0.5376">
        <ele>1544.357</ele>
        <time>2021-02-27T11:06:54Z</time>
      </trkpt>
      <trkpt lat="42.98155" lon="0.5376">
        <ele>1544.36</ele>
        <time>2021-02-27T11:06:56Z</time>
      </trkpt>
      <trkpt lat="42.98155" lon="0.5376">
        <ele>1544.362</ele>
        <time>2021-02-27T11:06:58Z</time>
      </trkpt>
      <trkpt lat="42.98155" lon="0.5376">
        <ele>1544.361</ele>
        <time>2021-02-27T11:07:00Z</time>
      </trkpt>
      <trkpt lat="42.98155" lon="0.5376">
        <ele>1544.4</ele>
        <time>2021-02-27T11:07:02Z</time>
      </trkpt>
      <trkpt lat="42.98155" lon="0.5376">
        <ele>1544.399</ele>
        <time>2021-02-27T11:07:04Z</time>
      </trkpt>
      <trkpt lat="42.98155" lon="0.5376">
        <ele>1544.397</ele>
        <time>2021-02-27T11:07:06Z</time>
      </trkpt>
      <trkpt lat="42.98155" lon="0.5376">
        <ele>1544.395</ele>
        <time>2021-02-27T11:07:08Z</time>
      </trkpt>
      <trkpt lat="42.98155" lon="0.5376">
        <ele>1544.392</ele>
        <time>2021-02-27T11:07:10Z</time>
      </trkpt>
      <trkpt lat="42.98155" lon="0.5376">
        <ele>1544.392</ele>
        <time>2021-02-27T11:07:12Z</time>
      </trkpt>
      <trkpt lat="42.98155" lon="0.5376">
        <ele>1544.394</ele>
        <time>2021-02-27T11:07:14Z</time>
      </trkpt>
      <trkpt lat="42.98155" lon="0.5376">
        <ele>1544.393</ele>
        <time>2021-02-27T11:07:16Z</time>
      </trkpt>
      <trkpt lat="42.98155" lon="0.5376">
        <ele>1544.392</ele>
        <time>2021-02-27T11:07:19Z</time>
      </trkpt>
      <trkpt lat="42.98155" lon="0.5376">
        <ele>1544.391</ele>
        <time>2021-02-27T11:07:21Z</time>
      </trkpt>
      <trkpt lat="42.98155" lon="0.5376">
        <ele>1544.391</ele>
        <time>2021-02-27T11:07:23Z</time>
      </trkpt>
      <trkpt lat="42.98155" lon="0.5376">
        <ele>1544.388</ele>
        <time>2021-02-27T11:07:25Z</time>
      </trkpt>
      <trkpt lat="42.98155" lon="0.5376">
        <ele>1544.789</ele>
        <time>2021-02-27T11:07:27Z</time>
      </trkpt>
      <trkpt lat="42.98155" lon="0.5376">
        <ele>1544.802</ele>
        <time>2021-02-27T11:07:29Z</time>
      </trkpt>
      <trkpt lat="42.98155" lon="0.5376">
        <ele>1544.802</ele>
        <time>2021-02-27T11:07:31Z</time>
      </trkpt>
      <trkpt lat="42.98155" lon="0.5376">
        <ele>1544.8</ele>
        <time>2021-02-27T11:07:33Z</time>
      </trkpt>
      <trkpt lat="42.98155" lon="0.5376">
        <ele>1544.798</ele>
        <time>2021-02-27T11:07:35Z</time>
      </trkpt>
      <trkpt lat="42.98155" lon="0.53759">
        <ele>1544.702</ele>
        <time>2021-02-27T11:07:37Z</time>
      </trkpt>
      <trkpt lat="42.98155" lon="0.53759">
        <ele>1544.74</ele>
        <time>2021-02-27T11:07:39Z</time>
      </trkpt>
      <trkpt lat="42.98154" lon="0.53759">
        <ele>1544.451</ele>
        <time>2021-02-27T11:07:41Z</time>
      </trkpt>
      <trkpt lat="42.98154" lon="0.5376">
        <ele>1543.778</ele>
        <time>2021-02-27T11:07:43Z</time>
      </trkpt>
      <trkpt lat="42.98154" lon="0.5376">
        <ele>1543.685</ele>
        <time>2021-02-27T11:07:45Z</time>
      </trkpt>
      <trkpt lat="42.98154" lon="0.53759">
        <ele>1543.46</ele>
        <time>2021-02-27T11:07:47Z</time>
      </trkpt>
      <trkpt lat="42.98154" lon="0.53759">
        <ele>1543.465</ele>
        <time>2021-02-27T11:07:49Z</time>
      </trkpt>
      <trkpt lat="42.98154" lon="0.53759">
        <ele>1543.314</ele>
        <time>2021-02-27T11:07:51Z</time>
      </trkpt>
      <trkpt lat="42.98154" lon="0.53759">
        <ele>1542.993</ele>
        <time>2021-02-27T11:07:53Z</time>
      </trkpt>
      <trkpt lat="42.98154" lon="0.53759">
        <ele>1542.985</ele>
        <time>2021-02-27T11:07:55Z</time>
      </trkpt>
      <trkpt lat="42.98154" lon="0.53759">
        <ele>1542.983</ele>
        <time>2021-02-27T11:07:57Z</time>
      </trkpt>
      <trkpt lat="42.98154" lon="0.53759">
        <ele>1542.98</ele>
        <time>2021-02-27T11:07:59Z</time>
      </trkpt>
      <trkpt lat="42.98154" lon="0.53759">
        <ele>1542.98</ele>
        <time>2021-02-27T11:08:01Z</time>
      </trkpt>
      <trkpt lat="42.98154" lon="0.53759">
        <ele>1542.98</ele>
        <time>2021-02-27T11:08:03Z</time>
      </trkpt>
      <trkpt lat="42.98154" lon="0.53759">
        <ele>1542.981</ele>
        <time>2021-02-27T11:08:05Z</time>
      </trkpt>
      <trkpt lat="42.98154" lon="0.53759">
        <ele>1542.981</ele>
        <time>2021-02-27T11:08:07Z</time>
      </trkpt>
      <trkpt lat="42.98154" lon="0.53759">
        <ele>1542.981</ele>
        <time>2021-02-27T11:08:09Z</time>
      </trkpt>
      <trkpt lat="42.98154" lon="0.53759">
        <ele>1542.98</ele>
        <time>2021-02-27T11:08:12Z</time>
      </trkpt>
      <trkpt lat="42.98154" lon="0.53759">
        <ele>1542.979</ele>
        <time>2021-02-27T11:08:14Z</time>
      </trkpt>
      <trkpt lat="42.98154" lon="0.53759">
        <ele>1542.98</ele>
        <time>2021-02-27T11:08:16Z</time>
      </trkpt>
      <trkpt lat="42.98154" lon="0.53759">
        <ele>1542.975</ele>
        <time>2021-02-27T11:08:18Z</time>
      </trkpt>
      <trkpt lat="42.98154" lon="0.53759">
        <ele>1542.972</ele>
        <time>2021-02-27T11:08:20Z</time>
      </trkpt>
      <trkpt lat="42.98154" lon="0.53759">
        <ele>1542.968</ele>
        <time>2021-02-27T11:08:22Z</time>
      </trkpt>
      <trkpt lat="42.98154" lon="0.53759">
        <ele>1542.963</ele>
        <time>2021-02-27T11:08:24Z</time>
      </trkpt>
      <trkpt lat="42.98154" lon="0.53759">
        <ele>1542.961</ele>
        <time>2021-02-27T11:08:26Z</time>
      </trkpt>
      <trkpt lat="42.98154" lon="0.53759">
        <ele>1542.961</ele>
        <time>2021-02-27T11:08:28Z</time>
      </trkpt>
      <trkpt lat="42.98154" lon="0.53759">
        <ele>1542.961</ele>
        <time>2021-02-27T11:08:30Z</time>
      </trkpt>
      <trkpt lat="42.98154" lon="0.53759">
        <ele>1542.96</ele>
        <time>2021-02-27T11:08:32Z</time>
      </trkpt>
      <trkpt lat="42.98154" lon="0.53759">
        <ele>1542.957</ele>
        <time>2021-02-27T11:08:34Z</time>
      </trkpt>
      <trkpt lat="42.98154" lon="0.53759">
        <ele>1542.956</ele>
        <time>2021-02-27T11:08:36Z</time>
      </trkpt>
      <trkpt lat="42.98154" lon="0.53759">
        <ele>1542.955</ele>
        <time>2021-02-27T11:08:38Z</time>
      </trkpt>
      <trkpt lat="42.98154" lon="0.53759">
        <ele>1542.955</ele>
        <time>2021-02-27T11:08:40Z</time>
      </trkpt>
      <trkpt lat="42.98154" lon="0.53759">
        <ele>1542.955</ele>
        <time>2021-02-27T11:08:42Z</time>
      </trkpt>
      <trkpt lat="42.98154" lon="0.53759">
        <ele>1542.955</ele>
        <time>2021-02-27T11:08:44Z</time>
      </trkpt>
      <trkpt lat="42.98154" lon="0.53759">
        <ele>1542.953</ele>
        <time>2021-02-27T11:08:46Z</time>
      </trkpt>
      <trkpt lat="42.98154" lon="0.53759">
        <ele>1542.951</ele>
        <time>2021-02-27T11:08:48Z</time>
      </trkpt>
      <trkpt lat="42.98154" lon="0.53759">
        <ele>1542.946</ele>
        <time>2021-02-27T11:08:50Z</time>
      </trkpt>
      <trkpt lat="42.98154" lon="0.53759">
        <ele>1542.946</ele>
        <time>2021-02-27T11:08:52Z</time>
      </trkpt>
      <trkpt lat="42.98154" lon="0.53759">
        <ele>1542.947</ele>
        <time>2021-02-27T11:08:54Z</time>
      </trkpt>
      <trkpt lat="42.98154" lon="0.53759">
        <ele>1542.95</ele>
        <time>2021-02-27T11:08:56Z</time>
      </trkpt>
      <trkpt lat="42.98154" lon="0.53759">
        <ele>1542.948</ele>
        <time>2021-02-27T11:08:58Z</time>
      </trkpt>
      <trkpt lat="42.98154" lon="0.53759">
        <ele>1542.946</ele>
        <time>2021-02-27T11:09:00Z</time>
      </trkpt>
      <trkpt lat="42.98154" lon="0.53759">
        <ele>1542.947</ele>
        <time>2021-02-27T11:09:02Z</time>
      </trkpt>
      <trkpt lat="42.98154" lon="0.53759">
        <ele>1542.947</ele>
        <time>2021-02-27T11:09:04Z</time>
      </trkpt>
      <trkpt lat="42.98154" lon="0.53759">
        <ele>1542.947</ele>
        <time>2021-02-27T11:09:06Z</time>
      </trkpt>
      <trkpt lat="42.98154" lon="0.53759">
        <ele>1542.943</ele>
        <time>2021-02-27T11:09:08Z</time>
      </trkpt>
      <trkpt lat="42.98154" lon="0.53759">
        <ele>1542.94</ele>
        <time>2021-02-27T11:09:10Z</time>
      </trkpt>
      <trkpt lat="42.98154" lon="0.53759">
        <ele>1542.938</ele>
        <time>2021-02-27T11:09:12Z</time>
      </trkpt>
      <trkpt lat="42.98154" lon="0.53759">
        <ele>1542.939</ele>
        <time>2021-02-27T11:09:14Z</time>
      </trkpt>
      <trkpt lat="42.98154" lon="0.53759">
        <ele>1542.941</ele>
        <time>2021-02-27T11:09:16Z</time>
      </trkpt>
      <trkpt lat="42.98154" lon="0.53759">
        <ele>1542.94</ele>
        <time>2021-02-27T11:09:18Z</time>
      </trkpt>
      <trkpt lat="42.98154" lon="0.53759">
        <ele>1542.941</ele>
        <time>2021-02-27T11:09:20Z</time>
      </trkpt>
      <trkpt lat="42.98154" lon="0.53759">
        <ele>1542.939</ele>
        <time>2021-02-27T11:09:22Z</time>
      </trkpt>
      <trkpt lat="42.98154" lon="0.53759">
        <ele>1542.939</ele>
        <time>2021-02-27T11:09:24Z</time>
      </trkpt>
      <trkpt lat="42.98154" lon="0.53759">
        <ele>1542.937</ele>
        <time>2021-02-27T11:09:26Z</time>
      </trkpt>
      <trkpt lat="42.98154" lon="0.53759">
        <ele>1542.935</ele>
        <time>2021-02-27T11:09:28Z</time>
      </trkpt>
      <trkpt lat="42.98154" lon="0.53759">
        <ele>1542.936</ele>
        <time>2021-02-27T11:09:30Z</time>
      </trkpt>
      <trkpt lat="42.98154" lon="0.53759">
        <ele>1542.935</ele>
        <time>2021-02-27T11:09:32Z</time>
      </trkpt>
      <trkpt lat="42.98154" lon="0.53759">
        <ele>1542.936</ele>
        <time>2021-02-27T11:09:34Z</time>
      </trkpt>
      <trkpt lat="42.98154" lon="0.53759">
        <ele>1542.938</ele>
        <time>2021-02-27T11:09:36Z</time>
      </trkpt>
      <trkpt lat="42.98154" lon="0.53759">
        <ele>1542.936</ele>
        <time>2021-02-27T11:09:38Z</time>
      </trkpt>
      <trkpt lat="42.98154" lon="0.53759">
        <ele>1542.936</ele>
        <time>2021-02-27T11:09:40Z</time>
      </trkpt>
      <trkpt lat="42.98154" lon="0.53759">
        <ele>1542.938</ele>
        <time>2021-02-27T11:09:42Z</time>
      </trkpt>
      <trkpt lat="42.98154" lon="0.53759">
        <ele>1542.938</ele>
        <time>2021-02-27T11:09:44Z</time>
      </trkpt>
      <trkpt lat="42.98154" lon="0.53759">
        <ele>1542.939</ele>
        <time>2021-02-27T11:09:46Z</time>
      </trkpt>
      <trkpt lat="42.98154" lon="0.53759">
        <ele>1542.934</ele>
        <time>2021-02-27T11:09:48Z</time>
      </trkpt>
      <trkpt lat="42.98154" lon="0.53759">
        <ele>1542.932</ele>
        <time>2021-02-27T11:09:50Z</time>
      </trkpt>
      <trkpt lat="42.98154" lon="0.53759">
        <ele>1542.933</ele>
        <time>2021-02-27T11:09:52Z</time>
      </trkpt>
      <trkpt lat="42.98154" lon="0.53759">
        <ele>1542.934</ele>
        <time>2021-02-27T11:09:54Z</time>
      </trkpt>
      <trkpt lat="42.98154" lon="0.53759">
        <ele>1542.935</ele>
        <time>2021-02-27T11:09:56Z</time>
      </trkpt>
      <trkpt lat="42.98154" lon="0.53759">
        <ele>1542.934</ele>
        <time>2021-02-27T11:09:58Z</time>
      </trkpt>
      <trkpt lat="42.98154" lon="0.53759">
        <ele>1542.934</ele>
        <time>2021-02-27T11:10:00Z</time>
      </trkpt>
      <trkpt lat="42.98154" lon="0.53759">
        <ele>1542.931</ele>
        <time>2021-02-27T11:10:02Z</time>
      </trkpt>
      <trkpt lat="42.98154" lon="0.53759">
        <ele>1542.932</ele>
        <time>2021-02-27T11:10:04Z</time>
      </trkpt>
      <trkpt lat="42.98154" lon="0.53759">
        <ele>1542.93</ele>
        <time>2021-02-27T11:10:06Z</time>
      </trkpt>
      <trkpt lat="42.98154" lon="0.53759">
        <ele>1542.928</ele>
        <time>2021-02-27T11:10:08Z</time>
      </trkpt>
      <trkpt lat="42.98154" lon="0.53759">
        <ele>1542.928</ele>
        <time>2021-02-27T11:10:10Z</time>
      </trkpt>
      <trkpt lat="42.98154" lon="0.53759">
        <ele>1542.924</ele>
        <time>2021-02-27T11:10:12Z</time>
      </trkpt>
      <trkpt lat="42.98154" lon="0.53759">
        <ele>1542.922</ele>
        <time>2021-02-27T11:10:14Z</time>
      </trkpt>
      <trkpt lat="42.98154" lon="0.53759">
        <ele>1542.92</ele>
        <time>2021-02-27T11:10:16Z</time>
      </trkpt>
      <trkpt lat="42.98154" lon="0.53759">
        <ele>1542.923</ele>
        <time>2021-02-27T11:10:18Z</time>
      </trkpt>
      <trkpt lat="42.98154" lon="0.53759">
        <ele>1542.926</ele>
        <time>2021-02-27T11:10:20Z</time>
      </trkpt>
      <trkpt lat="42.98154" lon="0.53759">
        <ele>1542.925</ele>
        <time>2021-02-27T11:10:22Z</time>
      </trkpt>
      <trkpt lat="42.98154" lon="0.53759">
        <ele>1542.926</ele>
        <time>2021-02-27T11:10:24Z</time>
      </trkpt>
      <trkpt lat="42.98154" lon="0.53759">
        <ele>1542.926</ele>
        <time>2021-02-27T11:10:26Z</time>
      </trkpt>
      <trkpt lat="42.98154" lon="0.53759">
        <ele>1542.928</ele>
        <time>2021-02-27T11:10:28Z</time>
      </trkpt>
      <trkpt lat="42.98154" lon="0.53759">
        <ele>1542.928</ele>
        <time>2021-02-27T11:10:30Z</time>
      </trkpt>
      <trkpt lat="42.98154" lon="0.53759">
        <ele>1542.93</ele>
        <time>2021-02-27T11:10:32Z</time>
      </trkpt>
      <trkpt lat="42.98154" lon="0.53759">
        <ele>1542.93</ele>
        <time>2021-02-27T11:10:34Z</time>
      </trkpt>
      <trkpt lat="42.98154" lon="0.53759">
        <ele>1542.927</ele>
        <time>2021-02-27T11:10:36Z</time>
      </trkpt>
      <trkpt lat="42.98154" lon="0.53759">
        <ele>1542.927</ele>
        <time>2021-02-27T11:10:38Z</time>
      </trkpt>
      <trkpt lat="42.98154" lon="0.53759">
        <ele>1542.928</ele>
        <time>2021-02-27T11:10:40Z</time>
      </trkpt>
      <trkpt lat="42.98154" lon="0.53759">
        <ele>1542.927</ele>
        <time>2021-02-27T11:10:42Z</time>
      </trkpt>
      <trkpt lat="42.98154" lon="0.53759">
        <ele>1542.929</ele>
        <time>2021-02-27T11:10:44Z</time>
      </trkpt>
      <trkpt lat="42.98154" lon="0.53759">
        <ele>1542.929</ele>
        <time>2021-02-27T11:10:46Z</time>
      </trkpt>
      <trkpt lat="42.98154" lon="0.53759">
        <ele>1542.928</ele>
        <time>2021-02-27T11:10:48Z</time>
      </trkpt>
      <trkpt lat="42.98154" lon="0.53759">
        <ele>1542.929</ele>
        <time>2021-02-27T11:10:50Z</time>
      </trkpt>
      <trkpt lat="42.98154" lon="0.53759">
        <ele>1542.932</ele>
        <time>2021-02-27T11:10:52Z</time>
      </trkpt>
      <trkpt lat="42.98154" lon="0.53759">
        <ele>1542.93</ele>
        <time>2021-02-27T11:10:54Z</time>
      </trkpt>
      <trkpt lat="42.98154" lon="0.53759">
        <ele>1542.929</ele>
        <time>2021-02-27T11:10:56Z</time>
      </trkpt>
      <trkpt lat="42.98154" lon="0.53759">
        <ele>1542.929</ele>
        <time>2021-02-27T11:10:58Z</time>
      </trkpt>
      <trkpt lat="42.98154" lon="0.53759">
        <ele>1542.928</ele>
        <time>2021-02-27T11:11:00Z</time>
      </trkpt>
      <trkpt lat="42.98154" lon="0.53759">
        <ele>1542.928</ele>
        <time>2021-02-27T11:11:02Z</time>
      </trkpt>
      <trkpt lat="42.98154" lon="0.53759">
        <ele>1542.926</ele>
        <time>2021-02-27T11:11:04Z</time>
      </trkpt>
      <trkpt lat="42.98154" lon="0.53759">
        <ele>1542.924</ele>
        <time>2021-02-27T11:11:06Z</time>
      </trkpt>
      <trkpt lat="42.98154" lon="0.53759">
        <ele>1542.926</ele>
        <time>2021-02-27T11:11:08Z</time>
      </trkpt>
      <trkpt lat="42.98154" lon="0.53759">
        <ele>1542.927</ele>
        <time>2021-02-27T11:11:10Z</time>
      </trkpt>
      <trkpt lat="42.98154" lon="0.53759">
        <ele>1542.925</ele>
        <time>2021-02-27T11:11:12Z</time>
      </trkpt>
      <trkpt lat="42.98154" lon="0.53759">
        <ele>1542.925</ele>
        <time>2021-02-27T11:11:14Z</time>
      </trkpt>
      <trkpt lat="42.98154" lon="0.53759">
        <ele>1542.925</ele>
        <time>2021-02-27T11:11:16Z</time>
      </trkpt>
      <trkpt lat="42.98154" lon="0.53759">
        <ele>1542.927</ele>
        <time>2021-02-27T11:11:18Z</time>
      </trkpt>
      <trkpt lat="42.98154" lon="0.53759">
        <ele>1542.927</ele>
        <time>2021-02-27T11:11:20Z</time>
      </trkpt>
      <trkpt lat="42.98154" lon="0.53759">
        <ele>1542.925</ele>
        <time>2021-02-27T11:11:22Z</time>
      </trkpt>
      <trkpt lat="42.98154" lon="0.53759">
        <ele>1542.926</ele>
        <time>2021-02-27T11:11:24Z</time>
      </trkpt>
      <trkpt lat="42.98154" lon="0.53759">
        <ele>1542.928</ele>
        <time>2021-02-27T11:11:26Z</time>
      </trkpt>
      <trkpt lat="42.98154" lon="0.53759">
        <ele>1542.927</ele>
        <time>2021-02-27T11:11:28Z</time>
      </trkpt>
      <trkpt lat="42.98154" lon="0.53759">
        <ele>1542.923</ele>
        <time>2021-02-27T11:11:30Z</time>
      </trkpt>
      <trkpt lat="42.98154" lon="0.53759">
        <ele>1542.922</ele>
        <time>2021-02-27T11:11:32Z</time>
      </trkpt>
      <trkpt lat="42.98154" lon="0.53759">
        <ele>1542.921</ele>
        <time>2021-02-27T11:11:34Z</time>
      </trkpt>
      <trkpt lat="42.98154" lon="0.53759">
        <ele>1542.921</ele>
        <time>2021-02-27T11:11:36Z</time>
      </trkpt>
      <trkpt lat="42.98154" lon="0.53759">
        <ele>1542.922</ele>
        <time>2021-02-27T11:11:38Z</time>
      </trkpt>
      <trkpt lat="42.98154" lon="0.53759">
        <ele>1542.92</ele>
        <time>2021-02-27T11:11:40Z</time>
      </trkpt>
      <trkpt lat="42.98154" lon="0.53759">
        <ele>1542.92</ele>
        <time>2021-02-27T11:11:42Z</time>
      </trkpt>
      <trkpt lat="42.98154" lon="0.53759">
        <ele>1542.921</ele>
        <time>2021-02-27T11:11:44Z</time>
      </trkpt>
      <trkpt lat="42.98154" lon="0.53759">
        <ele>1542.923</ele>
        <time>2021-02-27T11:11:46Z</time>
      </trkpt>
      <trkpt lat="42.98154" lon="0.53759">
        <ele>1542.923</ele>
        <time>2021-02-27T11:11:48Z</time>
      </trkpt>
      <trkpt lat="42.98154" lon="0.53759">
        <ele>1542.923</ele>
        <time>2021-02-27T11:11:50Z</time>
      </trkpt>
      <trkpt lat="42.98154" lon="0.53759">
        <ele>1542.921</ele>
        <time>2021-02-27T11:11:52Z</time>
      </trkpt>
      <trkpt lat="42.98154" lon="0.53759">
        <ele>1542.919</ele>
        <time>2021-02-27T11:11:54Z</time>
      </trkpt>
      <trkpt lat="42.98154" lon="0.53759">
        <ele>1542.916</ele>
        <time>2021-02-27T11:11:56Z</time>
      </trkpt>
      <trkpt lat="42.98154" lon="0.53759">
        <ele>1542.916</ele>
        <time>2021-02-27T11:11:58Z</time>
      </trkpt>
      <trkpt lat="42.98154" lon="0.53759">
        <ele>1542.917</ele>
        <time>2021-02-27T11:12:00Z</time>
      </trkpt>
      <trkpt lat="42.98154" lon="0.53759">
        <ele>1542.919</ele>
        <time>2021-02-27T11:12:02Z</time>
      </trkpt>
      <trkpt lat="42.98154" lon="0.53759">
        <ele>1542.918</ele>
        <time>2021-02-27T11:12:04Z</time>
      </trkpt>
      <trkpt lat="42.98154" lon="0.53759">
        <ele>1542.919</ele>
        <time>2021-02-27T11:12:06Z</time>
      </trkpt>
      <trkpt lat="42.98154" lon="0.53759">
        <ele>1542.918</ele>
        <time>2021-02-27T11:12:08Z</time>
      </trkpt>
      <trkpt lat="42.98154" lon="0.53759">
        <ele>1542.917</ele>
        <time>2021-02-27T11:12:10Z</time>
      </trkpt>
      <trkpt lat="42.98154" lon="0.53759">
        <ele>1542.916</ele>
        <time>2021-02-27T11:12:12Z</time>
      </trkpt>
      <trkpt lat="42.98154" lon="0.53759">
        <ele>1542.912</ele>
        <time>2021-02-27T11:12:14Z</time>
      </trkpt>
      <trkpt lat="42.98154" lon="0.53759">
        <ele>1542.908</ele>
        <time>2021-02-27T11:12:16Z</time>
      </trkpt>
      <trkpt lat="42.98154" lon="0.53759">
        <ele>1542.909</ele>
        <time>2021-02-27T11:12:18Z</time>
      </trkpt>
      <trkpt lat="42.98154" lon="0.53759">
        <ele>1542.908</ele>
        <time>2021-02-27T11:12:20Z</time>
      </trkpt>
      <trkpt lat="42.98154" lon="0.53759">
        <ele>1542.909</ele>
        <time>2021-02-27T11:12:22Z</time>
      </trkpt>
      <trkpt lat="42.98154" lon="0.53759">
        <ele>1542.908</ele>
        <time>2021-02-27T11:12:24Z</time>
      </trkpt>
      <trkpt lat="42.98154" lon="0.53759">
        <ele>1542.909</ele>
        <time>2021-02-27T11:12:26Z</time>
      </trkpt>
      <trkpt lat="42.98154" lon="0.53759">
        <ele>1542.913</ele>
        <time>2021-02-27T11:12:28Z</time>
      </trkpt>
      <trkpt lat="42.98154" lon="0.53759">
        <ele>1542.913</ele>
        <time>2021-02-27T11:12:30Z</time>
      </trkpt>
      <trkpt lat="42.98154" lon="0.53759">
        <ele>1542.913</ele>
        <time>2021-02-27T11:12:32Z</time>
      </trkpt>
      <trkpt lat="42.98154" lon="0.53759">
        <ele>1542.914</ele>
        <time>2021-02-27T11:12:34Z</time>
      </trkpt>
      <trkpt lat="42.98154" lon="0.53759">
        <ele>1542.913</ele>
        <time>2021-02-27T11:12:36Z</time>
      </trkpt>
      <trkpt lat="42.98154" lon="0.53759">
        <ele>1542.914</ele>
        <time>2021-02-27T11:12:38Z</time>
      </trkpt>
      <trkpt lat="42.98154" lon="0.53759">
        <ele>1542.913</ele>
        <time>2021-02-27T11:12:40Z</time>
      </trkpt>
      <trkpt lat="42.98154" lon="0.53759">
        <ele>1542.912</ele>
        <time>2021-02-27T11:12:42Z</time>
      </trkpt>
      <trkpt lat="42.98154" lon="0.53759">
        <ele>1542.913</ele>
        <time>2021-02-27T11:12:44Z</time>
      </trkpt>
      <trkpt lat="42.98154" lon="0.53759">
        <ele>1542.912</ele>
        <time>2021-02-27T11:12:46Z</time>
      </trkpt>
      <trkpt lat="42.98154" lon="0.53759">
        <ele>1542.913</ele>
        <time>2021-02-27T11:12:48Z</time>
      </trkpt>
      <trkpt lat="42.98154" lon="0.53759">
        <ele>1542.912</ele>
        <time>2021-02-27T11:12:50Z</time>
      </trkpt>
      <trkpt lat="42.98154" lon="0.53759">
        <ele>1542.912</ele>
        <time>2021-02-27T11:12:52Z</time>
      </trkpt>
      <trkpt lat="42.98154" lon="0.53759">
        <ele>1542.908</ele>
        <time>2021-02-27T11:12:54Z</time>
      </trkpt>
      <trkpt lat="42.98154" lon="0.53759">
        <ele>1542.909</ele>
        <time>2021-02-27T11:12:56Z</time>
      </trkpt>
      <trkpt lat="42.98154" lon="0.53759">
        <ele>1542.908</ele>
        <time>2021-02-27T11:12:58Z</time>
      </trkpt>
      <trkpt lat="42.98154" lon="0.53759">
        <ele>1542.906</ele>
        <time>2021-02-27T11:13:00Z</time>
      </trkpt>
      <trkpt lat="42.98154" lon="0.53759">
        <ele>1542.904</ele>
        <time>2021-02-27T11:13:02Z</time>
      </trkpt>
      <trkpt lat="42.98154" lon="0.53759">
        <ele>1542.905</ele>
        <time>2021-02-27T11:13:04Z</time>
      </trkpt>
      <trkpt lat="42.98154" lon="0.53759">
        <ele>1542.906</ele>
        <time>2021-02-27T11:13:06Z</time>
      </trkpt>
      <trkpt lat="42.98154" lon="0.53759">
        <ele>1542.906</ele>
        <time>2021-02-27T11:13:08Z</time>
      </trkpt>
      <trkpt lat="42.98154" lon="0.53759">
        <ele>1542.904</ele>
        <time>2021-02-27T11:13:10Z</time>
      </trkpt>
      <trkpt lat="42.98154" lon="0.53759">
        <ele>1542.901</ele>
        <time>2021-02-27T11:13:12Z</time>
      </trkpt>
      <trkpt lat="42.98154" lon="0.53759">
        <ele>1542.902</ele>
        <time>2021-02-27T11:13:14Z</time>
      </trkpt>
      <trkpt lat="42.98154" lon="0.53759">
        <ele>1542.901</ele>
        <time>2021-02-27T11:13:16Z</time>
      </trkpt>
      <trkpt lat="42.98154" lon="0.53759">
        <ele>1542.903</ele>
        <time>2021-02-27T11:13:18Z</time>
      </trkpt>
      <trkpt lat="42.98154" lon="0.53759">
        <ele>1542.904</ele>
        <time>2021-02-27T11:13:20Z</time>
      </trkpt>
      <trkpt lat="42.98154" lon="0.53759">
        <ele>1542.902</ele>
        <time>2021-02-27T11:13:22Z</time>
      </trkpt>
      <trkpt lat="42.98154" lon="0.53759">
        <ele>1542.902</ele>
        <time>2021-02-27T11:13:24Z</time>
      </trkpt>
      <trkpt lat="42.98154" lon="0.53759">
        <ele>1542.899</ele>
        <time>2021-02-27T11:13:26Z</time>
      </trkpt>
      <trkpt lat="42.98154" lon="0.53759">
        <ele>1542.898</ele>
        <time>2021-02-27T11:13:28Z</time>
      </trkpt>
      <trkpt lat="42.98154" lon="0.53759">
        <ele>1542.898</ele>
        <time>2021-02-27T11:13:30Z</time>
      </trkpt>
      <trkpt lat="42.98154" lon="0.53759">
        <ele>1542.897</ele>
        <time>2021-02-27T11:13:32Z</time>
      </trkpt>
      <trkpt lat="42.98154" lon="0.53759">
        <ele>1542.897</ele>
        <time>2021-02-27T11:13:34Z</time>
      </trkpt>
      <trkpt lat="42.98154" lon="0.53759">
        <ele>1542.895</ele>
        <time>2021-02-27T11:13:36Z</time>
      </trkpt>
      <trkpt lat="42.98154" lon="0.53759">
        <ele>1542.892</ele>
        <time>2021-02-27T11:13:38Z</time>
      </trkpt>
      <trkpt lat="42.98154" lon="0.53759">
        <ele>1542.89</ele>
        <time>2021-02-27T11:13:40Z</time>
      </trkpt>
      <trkpt lat="42.98154" lon="0.53759">
        <ele>1542.887</ele>
        <time>2021-02-27T11:13:42Z</time>
      </trkpt>
      <trkpt lat="42.98154" lon="0.53759">
        <ele>1542.885</ele>
        <time>2021-02-27T11:13:44Z</time>
      </trkpt>
      <trkpt lat="42.98154" lon="0.53759">
        <ele>1542.885</ele>
        <time>2021-02-27T11:13:46Z</time>
      </trkpt>
      <trkpt lat="42.98154" lon="0.53759">
        <ele>1542.885</ele>
        <time>2021-02-27T11:13:48Z</time>
      </trkpt>
      <trkpt lat="42.98154" lon="0.53759">
        <ele>1542.883</ele>
        <time>2021-02-27T11:13:50Z</time>
      </trkpt>
      <trkpt lat="42.98154" lon="0.53759">
        <ele>1542.881</ele>
        <time>2021-02-27T11:13:52Z</time>
      </trkpt>
      <trkpt lat="42.98154" lon="0.53759">
        <ele>1542.879</ele>
        <time>2021-02-27T11:13:54Z</time>
      </trkpt>
      <trkpt lat="42.98154" lon="0.53759">
        <ele>1542.879</ele>
        <time>2021-02-27T11:13:56Z</time>
      </trkpt>
      <trkpt lat="42.98154" lon="0.53759">
        <ele>1542.88</ele>
        <time>2021-02-27T11:13:58Z</time>
      </trkpt>
      <trkpt lat="42.98154" lon="0.53759">
        <ele>1542.879</ele>
        <time>2021-02-27T11:14:00Z</time>
      </trkpt>
      <trkpt lat="42.98154" lon="0.53759">
        <ele>1542.879</ele>
        <time>2021-02-27T11:14:02Z</time>
      </trkpt>
      <trkpt lat="42.98154" lon="0.53759">
        <ele>1542.878</ele>
        <time>2021-02-27T11:14:04Z</time>
      </trkpt>
      <trkpt lat="42.98154" lon="0.53759">
        <ele>1542.876</ele>
        <time>2021-02-27T11:14:06Z</time>
      </trkpt>
      <trkpt lat="42.98154" lon="0.53759">
        <ele>1542.874</ele>
        <time>2021-02-27T11:14:08Z</time>
      </trkpt>
      <trkpt lat="42.98154" lon="0.53759">
        <ele>1542.871</ele>
        <time>2021-02-27T11:14:10Z</time>
      </trkpt>
      <trkpt lat="42.98154" lon="0.53759">
        <ele>1542.873</ele>
        <time>2021-02-27T11:14:12Z</time>
      </trkpt>
      <trkpt lat="42.98154" lon="0.53759">
        <ele>1542.874</ele>
        <time>2021-02-27T11:14:14Z</time>
      </trkpt>
      <trkpt lat="42.98154" lon="0.53759">
        <ele>1542.872</ele>
        <time>2021-02-27T11:14:16Z</time>
      </trkpt>
      <trkpt lat="42.98154" lon="0.53759">
        <ele>1542.87</ele>
        <time>2021-02-27T11:14:18Z</time>
      </trkpt>
      <trkpt lat="42.98154" lon="0.53759">
        <ele>1542.87</ele>
        <time>2021-02-27T11:14:20Z</time>
      </trkpt>
      <trkpt lat="42.98154" lon="0.53759">
        <ele>1542.868</ele>
        <time>2021-02-27T11:14:22Z</time>
      </trkpt>
      <trkpt lat="42.98154" lon="0.53759">
        <ele>1542.867</ele>
        <time>2021-02-27T11:14:24Z</time>
      </trkpt>
      <trkpt lat="42.98154" lon="0.53759">
        <ele>1542.867</ele>
        <time>2021-02-27T11:14:26Z</time>
      </trkpt>
      <trkpt lat="42.98154" lon="0.53759">
        <ele>1542.866</ele>
        <time>2021-02-27T11:14:28Z</time>
      </trkpt>
      <trkpt lat="42.98154" lon="0.53759">
        <ele>1542.867</ele>
        <time>2021-02-27T11:14:30Z</time>
      </trkpt>
      <trkpt lat="42.98154" lon="0.53759">
        <ele>1542.867</ele>
        <time>2021-02-27T11:14:32Z</time>
      </trkpt>
      <trkpt lat="42.98154" lon="0.53759">
        <ele>1542.867</ele>
        <time>2021-02-27T11:14:34Z</time>
      </trkpt>
      <trkpt lat="42.98154" lon="0.53759">
        <ele>1542.866</ele>
        <time>2021-02-27T11:14:36Z</time>
      </trkpt>
      <trkpt lat="42.98154" lon="0.53759">
        <ele>1542.864</ele>
        <time>2021-02-27T11:14:38Z</time>
      </trkpt>
      <trkpt lat="42.98154" lon="0.53759">
        <ele>1542.862</ele>
        <time>2021-02-27T11:14:40Z</time>
      </trkpt>
      <trkpt lat="42.98154" lon="0.53759">
        <ele>1542.86</ele>
        <time>2021-02-27T11:14:42Z</time>
      </trkpt>
      <trkpt lat="42.98154" lon="0.53759">
        <ele>1542.858</ele>
        <time>2021-02-27T11:14:44Z</time>
      </trkpt>
      <trkpt lat="42.98154" lon="0.53759">
        <ele>1542.856</ele>
        <time>2021-02-27T11:14:46Z</time>
      </trkpt>
      <trkpt lat="42.98154" lon="0.53759">
        <ele>1542.857</ele>
        <time>2021-02-27T11:14:48Z</time>
      </trkpt>
      <trkpt lat="42.98154" lon="0.53759">
        <ele>1542.856</ele>
        <time>2021-02-27T11:14:50Z</time>
      </trkpt>
      <trkpt lat="42.98154" lon="0.53759">
        <ele>1542.855</ele>
        <time>2021-02-27T11:14:52Z</time>
      </trkpt>
      <trkpt lat="42.98154" lon="0.53759">
        <ele>1542.853</ele>
        <time>2021-02-27T11:14:54Z</time>
      </trkpt>
      <trkpt lat="42.98154" lon="0.53759">
        <ele>1542.852</ele>
        <time>2021-02-27T11:14:56Z</time>
      </trkpt>
      <trkpt lat="42.98154" lon="0.53759">
        <ele>1542.849</ele>
        <time>2021-02-27T11:14:58Z</time>
      </trkpt>
      <trkpt lat="42.98154" lon="0.53759">
        <ele>1542.847</ele>
        <time>2021-02-27T11:15:00Z</time>
      </trkpt>
      <trkpt lat="42.98154" lon="0.53759">
        <ele>1542.843</ele>
        <time>2021-02-27T11:15:02Z</time>
      </trkpt>
      <trkpt lat="42.98154" lon="0.53759">
        <ele>1542.843</ele>
        <time>2021-02-27T11:15:04Z</time>
      </trkpt>
      <trkpt lat="42.98154" lon="0.53759">
        <ele>1542.844</ele>
        <time>2021-02-27T11:15:06Z</time>
      </trkpt>
      <trkpt lat="42.98154" lon="0.53759">
        <ele>1542.842</ele>
        <time>2021-02-27T11:15:08Z</time>
      </trkpt>
      <trkpt lat="42.98154" lon="0.53759">
        <ele>1542.841</ele>
        <time>2021-02-27T11:15:10Z</time>
      </trkpt>
      <trkpt lat="42.98154" lon="0.53759">
        <ele>1542.84</ele>
        <time>2021-02-27T11:15:12Z</time>
      </trkpt>
      <trkpt lat="42.98154" lon="0.53759">
        <ele>1542.838</ele>
        <time>2021-02-27T11:15:14Z</time>
      </trkpt>
      <trkpt lat="42.98154" lon="0.53759">
        <ele>1542.836</ele>
        <time>2021-02-27T11:15:16Z</time>
      </trkpt>
      <trkpt lat="42.98154" lon="0.53759">
        <ele>1542.834</ele>
        <time>2021-02-27T11:15:18Z</time>
      </trkpt>
      <trkpt lat="42.98154" lon="0.53759">
        <ele>1542.834</ele>
        <time>2021-02-27T11:15:20Z</time>
      </trkpt>
      <trkpt lat="42.98154" lon="0.53759">
        <ele>1542.832</ele>
        <time>2021-02-27T11:15:22Z</time>
      </trkpt>
      <trkpt lat="42.98154" lon="0.53759">
        <ele>1542.831</ele>
        <time>2021-02-27T11:15:24Z</time>
      </trkpt>
      <trkpt lat="42.98154" lon="0.53759">
        <ele>1542.829</ele>
        <time>2021-02-27T11:15:26Z</time>
      </trkpt>
      <trkpt lat="42.98154" lon="0.53759">
        <ele>1542.831</ele>
        <time>2021-02-27T11:15:28Z</time>
      </trkpt>
      <trkpt lat="42.98154" lon="0.53759">
        <ele>1542.832</ele>
        <time>2021-02-27T11:15:30Z</time>
      </trkpt>
      <trkpt lat="42.98154" lon="0.53759">
        <ele>1542.832</ele>
        <time>2021-02-27T11:15:32Z</time>
      </trkpt>
      <trkpt lat="42.98154" lon="0.53759">
        <ele>1542.829</ele>
        <time>2021-02-27T11:15:34Z</time>
      </trkpt>
      <trkpt lat="42.98154" lon="0.53759">
        <ele>1542.83</ele>
        <time>2021-02-27T11:15:36Z</time>
      </trkpt>
      <trkpt lat="42.98154" lon="0.53759">
        <ele>1542.827</ele>
        <time>2021-02-27T11:15:38Z</time>
      </trkpt>
      <trkpt lat="42.98154" lon="0.53759">
        <ele>1542.823</ele>
        <time>2021-02-27T11:15:40Z</time>
      </trkpt>
      <trkpt lat="42.98154" lon="0.53759">
        <ele>1542.823</ele>
        <time>2021-02-27T11:15:42Z</time>
      </trkpt>
      <trkpt lat="42.98154" lon="0.53759">
        <ele>1542.822</ele>
        <time>2021-02-27T11:15:44Z</time>
      </trkpt>
      <trkpt lat="42.98154" lon="0.53759">
        <ele>1542.818</ele>
        <time>2021-02-27T11:15:46Z</time>
      </trkpt>
      <trkpt lat="42.98154" lon="0.53759">
        <ele>1542.814</ele>
        <time>2021-02-27T11:15:48Z</time>
      </trkpt>
      <trkpt lat="42.98154" lon="0.53759">
        <ele>1542.814</ele>
        <time>2021-02-27T11:15:50Z</time>
      </trkpt>
      <trkpt lat="42.98154" lon="0.53759">
        <ele>1542.813</ele>
        <time>2021-02-27T11:15:52Z</time>
      </trkpt>
      <trkpt lat="42.98154" lon="0.53759">
        <ele>1542.812</ele>
        <time>2021-02-27T11:15:54Z</time>
      </trkpt>
      <trkpt lat="42.98154" lon="0.53759">
        <ele>1542.814</ele>
        <time>2021-02-27T11:15:56Z</time>
      </trkpt>
      <trkpt lat="42.98154" lon="0.53759">
        <ele>1542.81</ele>
        <time>2021-02-27T11:15:58Z</time>
      </trkpt>
      <trkpt lat="42.98154" lon="0.53759">
        <ele>1542.812</ele>
        <time>2021-02-27T11:16:00Z</time>
      </trkpt>
      <trkpt lat="42.98154" lon="0.53759">
        <ele>1542.809</ele>
        <time>2021-02-27T11:16:02Z</time>
      </trkpt>
      <trkpt lat="42.98154" lon="0.53759">
        <ele>1542.808</ele>
        <time>2021-02-27T11:16:04Z</time>
      </trkpt>
      <trkpt lat="42.98154" lon="0.53759">
        <ele>1542.808</ele>
        <time>2021-02-27T11:16:06Z</time>
      </trkpt>
      <trkpt lat="42.98154" lon="0.53759">
        <ele>1542.808</ele>
        <time>2021-02-27T11:16:08Z</time>
      </trkpt>
      <trkpt lat="42.98154" lon="0.53759">
        <ele>1542.808</ele>
        <time>2021-02-27T11:16:10Z</time>
      </trkpt>
      <trkpt lat="42.98154" lon="0.53759">
        <ele>1542.807</ele>
        <time>2021-02-27T11:16:12Z</time>
      </trkpt>
      <trkpt lat="42.98154" lon="0.53759">
        <ele>1542.808</ele>
        <time>2021-02-27T11:16:14Z</time>
      </trkpt>
      <trkpt lat="42.98154" lon="0.53759">
        <ele>1542.807</ele>
        <time>2021-02-27T11:16:16Z</time>
      </trkpt>
      <trkpt lat="42.98154" lon="0.53759">
        <ele>1542.805</ele>
        <time>2021-02-27T11:16:18Z</time>
      </trkpt>
      <trkpt lat="42.98154" lon="0.53759">
        <ele>1542.803</ele>
        <time>2021-02-27T11:16:20Z</time>
      </trkpt>
      <trkpt lat="42.98154" lon="0.53759">
        <ele>1542.801</ele>
        <time>2021-02-27T11:16:22Z</time>
      </trkpt>
      <trkpt lat="42.98154" lon="0.53759">
        <ele>1542.8</ele>
        <time>2021-02-27T11:16:24Z</time>
      </trkpt>
      <trkpt lat="42.98154" lon="0.53759">
        <ele>1542.8</ele>
        <time>2021-02-27T11:16:26Z</time>
      </trkpt>
      <trkpt lat="42.98154" lon="0.53759">
        <ele>1542.798</ele>
        <time>2021-02-27T11:16:28Z</time>
      </trkpt>
      <trkpt lat="42.98154" lon="0.53759">
        <ele>1542.797</ele>
        <time>2021-02-27T11:16:30Z</time>
      </trkpt>
      <trkpt lat="42.98154" lon="0.53759">
        <ele>1542.797</ele>
        <time>2021-02-27T11:16:32Z</time>
      </trkpt>
      <trkpt lat="42.98154" lon="0.53759">
        <ele>1542.796</ele>
        <time>2021-02-27T11:16:34Z</time>
      </trkpt>
      <trkpt lat="42.98154" lon="0.53759">
        <ele>1542.794</ele>
        <time>2021-02-27T11:16:36Z</time>
      </trkpt>
      <trkpt lat="42.98154" lon="0.53759">
        <ele>1542.793</ele>
        <time>2021-02-27T11:16:38Z</time>
      </trkpt>
      <trkpt lat="42.98154" lon="0.53759">
        <ele>1542.795</ele>
        <time>2021-02-27T11:16:40Z</time>
      </trkpt>
      <trkpt lat="42.98154" lon="0.53759">
        <ele>1542.793</ele>
        <time>2021-02-27T11:16:42Z</time>
      </trkpt>
      <trkpt lat="42.98154" lon="0.53759">
        <ele>1542.793</ele>
        <time>2021-02-27T11:16:44Z</time>
      </trkpt>
      <trkpt lat="42.98154" lon="0.53759">
        <ele>1542.792</ele>
        <time>2021-02-27T11:16:46Z</time>
      </trkpt>
      <trkpt lat="42.98154" lon="0.53759">
        <ele>1542.791</ele>
        <time>2021-02-27T11:16:48Z</time>
      </trkpt>
      <trkpt lat="42.98154" lon="0.53759">
        <ele>1542.791</ele>
        <time>2021-02-27T11:16:50Z</time>
      </trkpt>
      <trkpt lat="42.98154" lon="0.53759">
        <ele>1542.791</ele>
        <time>2021-02-27T11:16:52Z</time>
      </trkpt>
      <trkpt lat="42.98154" lon="0.53759">
        <ele>1542.791</ele>
        <time>2021-02-27T11:16:54Z</time>
      </trkpt>
      <trkpt lat="42.98154" lon="0.53759">
        <ele>1542.79</ele>
        <time>2021-02-27T11:16:56Z</time>
      </trkpt>
      <trkpt lat="42.98154" lon="0.53759">
        <ele>1542.789</ele>
        <time>2021-02-27T11:16:58Z</time>
      </trkpt>
      <trkpt lat="42.98154" lon="0.53759">
        <ele>1542.789</ele>
        <time>2021-02-27T11:17:00Z</time>
      </trkpt>
      <trkpt lat="42.98154" lon="0.53759">
        <ele>1542.788</ele>
        <time>2021-02-27T11:17:02Z</time>
      </trkpt>
      <trkpt lat="42.98154" lon="0.53759">
        <ele>1542.788</ele>
        <time>2021-02-27T11:17:04Z</time>
      </trkpt>
      <trkpt lat="42.98154" lon="0.53759">
        <ele>1542.787</ele>
        <time>2021-02-27T11:17:06Z</time>
      </trkpt>
      <trkpt lat="42.98154" lon="0.53759">
        <ele>1542.785</ele>
        <time>2021-02-27T11:17:08Z</time>
      </trkpt>
      <trkpt lat="42.98154" lon="0.53759">
        <ele>1542.784</ele>
        <time>2021-02-27T11:17:10Z</time>
      </trkpt>
      <trkpt lat="42.98154" lon="0.53759">
        <ele>1542.781</ele>
        <time>2021-02-27T11:17:12Z</time>
      </trkpt>
      <trkpt lat="42.98154" lon="0.53759">
        <ele>1542.778</ele>
        <time>2021-02-27T11:17:14Z</time>
      </trkpt>
      <trkpt lat="42.98154" lon="0.53759">
        <ele>1542.777</ele>
        <time>2021-02-27T11:17:16Z</time>
      </trkpt>
      <trkpt lat="42.98154" lon="0.53759">
        <ele>1542.775</ele>
        <time>2021-02-27T11:17:18Z</time>
      </trkpt>
      <trkpt lat="42.98154" lon="0.53759">
        <ele>1542.774</ele>
        <time>2021-02-27T11:17:20Z</time>
      </trkpt>
      <trkpt lat="42.98154" lon="0.53759">
        <ele>1542.772</ele>
        <time>2021-02-27T11:17:22Z</time>
      </trkpt>
      <trkpt lat="42.98154" lon="0.53759">
        <ele>1542.769</ele>
        <time>2021-02-27T11:17:24Z</time>
      </trkpt>
      <trkpt lat="42.98154" lon="0.53759">
        <ele>1542.768</ele>
        <time>2021-02-27T11:17:26Z</time>
      </trkpt>
      <trkpt lat="42.98154" lon="0.53759">
        <ele>1542.766</ele>
        <time>2021-02-27T11:17:28Z</time>
      </trkpt>
      <trkpt lat="42.98154" lon="0.53759">
        <ele>1542.766</ele>
        <time>2021-02-27T11:17:30Z</time>
      </trkpt>
      <trkpt lat="42.98154" lon="0.53759">
        <ele>1542.764</ele>
        <time>2021-02-27T11:17:32Z</time>
      </trkpt>
      <trkpt lat="42.98154" lon="0.53759">
        <ele>1542.762</ele>
        <time>2021-02-27T11:17:34Z</time>
      </trkpt>
      <trkpt lat="42.98154" lon="0.53759">
        <ele>1542.759</ele>
        <time>2021-02-27T11:17:35Z</time>
      </trkpt>
      <trkpt lat="42.98154" lon="0.53759">
        <ele>1542.756</ele>
        <time>2021-02-27T11:17:38Z</time>
      </trkpt>
      <trkpt lat="42.98154" lon="0.53759">
        <ele>1542.755</ele>
        <time>2021-02-27T11:17:40Z</time>
      </trkpt>
      <trkpt lat="42.98154" lon="0.53759">
        <ele>1542.753</ele>
        <time>2021-02-27T11:17:42Z</time>
      </trkpt>
      <trkpt lat="42.98154" lon="0.53759">
        <ele>1542.753</ele>
        <time>2021-02-27T11:17:44Z</time>
      </trkpt>
      <trkpt lat="42.98154" lon="0.53759">
        <ele>1542.752</ele>
        <time>2021-02-27T11:17:46Z</time>
      </trkpt>
      <trkpt lat="42.98154" lon="0.53759">
        <ele>1542.754</ele>
        <time>2021-02-27T11:17:48Z</time>
      </trkpt>
      <trkpt lat="42.98154" lon="0.53759">
        <ele>1542.758</ele>
        <time>2021-02-27T11:17:50Z</time>
      </trkpt>
      <trkpt lat="42.98154" lon="0.5376">
        <ele>1542.368</ele>
        <time>2021-02-27T11:17:52Z</time>
      </trkpt>
      <trkpt lat="42.98154" lon="0.5376">
        <ele>1542.556</ele>
        <time>2021-02-27T11:17:54Z</time>
      </trkpt>
      <trkpt lat="42.98154" lon="0.53762">
        <ele>1542.931</ele>
        <time>2021-02-27T11:17:56Z</time>
      </trkpt>
      <trkpt lat="42.98154" lon="0.53763">
        <ele>1542.827</ele>
        <time>2021-02-27T11:17:58Z</time>
      </trkpt>
      <trkpt lat="42.98154" lon="0.53763">
        <ele>1542.803</ele>
        <time>2021-02-27T11:18:00Z</time>
      </trkpt>
      <trkpt lat="42.98154" lon="0.53763">
        <ele>1542.79</ele>
        <time>2021-02-27T11:18:02Z</time>
      </trkpt>
      <trkpt lat="42.98154" lon="0.53763">
        <ele>1542.785</ele>
        <time>2021-02-27T11:18:04Z</time>
      </trkpt>
      <trkpt lat="42.98154" lon="0.53763">
        <ele>1542.782</ele>
        <time>2021-02-27T11:18:06Z</time>
      </trkpt>
      <trkpt lat="42.98154" lon="0.53763">
        <ele>1542.78</ele>
        <time>2021-02-27T11:18:08Z</time>
      </trkpt>
      <trkpt lat="42.98154" lon="0.53763">
        <ele>1542.778</ele>
        <time>2021-02-27T11:18:10Z</time>
      </trkpt>
      <trkpt lat="42.98155" lon="0.53762">
        <ele>1543.816</ele>
        <time>2021-02-27T11:18:12Z</time>
      </trkpt>
      <trkpt lat="42.98155" lon="0.53762">
        <ele>1543.818</ele>
        <time>2021-02-27T11:18:14Z</time>
      </trkpt>
      <trkpt lat="42.98155" lon="0.53762">
        <ele>1543.817</ele>
        <time>2021-02-27T11:18:16Z</time>
      </trkpt>
      <trkpt lat="42.98155" lon="0.53762">
        <ele>1543.819</ele>
        <time>2021-02-27T11:18:18Z</time>
      </trkpt>
      <trkpt lat="42.98154" lon="0.53761">
        <ele>1544.152</ele>
        <time>2021-02-27T11:18:20Z</time>
      </trkpt>
      <trkpt lat="42.98154" lon="0.5376">
        <ele>1543.85</ele>
        <time>2021-02-27T11:18:22Z</time>
      </trkpt>
      <trkpt lat="42.98155" lon="0.53758">
        <ele>1543.307</ele>
        <time>2021-02-27T11:18:24Z</time>
      </trkpt>
      <trkpt lat="42.98155" lon="0.53758">
        <ele>1543.305</ele>
        <time>2021-02-27T11:18:26Z</time>
      </trkpt>
      <trkpt lat="42.98155" lon="0.53758">
        <ele>1543.305</ele>
        <time>2021-02-27T11:18:28Z</time>
      </trkpt>
      <trkpt lat="42.98155" lon="0.53758">
        <ele>1543.305</ele>
        <time>2021-02-27T11:18:30Z</time>
      </trkpt>
      <trkpt lat="42.98155" lon="0.53758">
        <ele>1543.459</ele>
        <time>2021-02-27T11:18:32Z</time>
      </trkpt>
      <trkpt lat="42.98155" lon="0.53759">
        <ele>1543.011</ele>
        <time>2021-02-27T11:18:34Z</time>
      </trkpt>
      <trkpt lat="42.98155" lon="0.5376">
        <ele>1542.889</ele>
        <time>2021-02-27T11:18:36Z</time>
      </trkpt>
      <trkpt lat="42.98155" lon="0.5376">
        <ele>1542.971</ele>
        <time>2021-02-27T11:18:38Z</time>
      </trkpt>
      <trkpt lat="42.98154" lon="0.53759">
        <ele>1543.424</ele>
        <time>2021-02-27T11:18:40Z</time>
      </trkpt>
      <trkpt lat="42.98154" lon="0.53759">
        <ele>1543.715</ele>
        <time>2021-02-27T11:18:42Z</time>
      </trkpt>
      <trkpt lat="42.98154" lon="0.53759">
        <ele>1543.724</ele>
        <time>2021-02-27T11:18:44Z</time>
      </trkpt>
      <trkpt lat="42.98154" lon="0.53759">
        <ele>1543.726</ele>
        <time>2021-02-27T11:18:46Z</time>
      </trkpt>
      <trkpt lat="42.98154" lon="0.53759">
        <ele>1543.732</ele>
        <time>2021-02-27T11:18:48Z</time>
      </trkpt>
      <trkpt lat="42.98154" lon="0.53759">
        <ele>1543.734</ele>
        <time>2021-02-27T11:18:50Z</time>
      </trkpt>
      <trkpt lat="42.98154" lon="0.53759">
        <ele>1543.734</ele>
        <time>2021-02-27T11:18:52Z</time>
      </trkpt>
      <trkpt lat="42.98154" lon="0.53759">
        <ele>1543.735</ele>
        <time>2021-02-27T11:18:54Z</time>
      </trkpt>
      <trkpt lat="42.98154" lon="0.53759">
        <ele>1543.736</ele>
        <time>2021-02-27T11:18:56Z</time>
      </trkpt>
      <trkpt lat="42.98154" lon="0.53759">
        <ele>1543.736</ele>
        <time>2021-02-27T11:18:58Z</time>
      </trkpt>
      <trkpt lat="42.98154" lon="0.53759">
        <ele>1543.736</ele>
        <time>2021-02-27T11:19:00Z</time>
      </trkpt>
      <trkpt lat="42.98154" lon="0.53759">
        <ele>1544.05</ele>
        <time>2021-02-27T11:19:02Z</time>
      </trkpt>
      <trkpt lat="42.98154" lon="0.53756">
        <ele>1543.518</ele>
        <time>2021-02-27T11:19:04Z</time>
      </trkpt>
      <trkpt lat="42.98155" lon="0.53755">
        <ele>1543.308</ele>
        <time>2021-02-27T11:19:06Z</time>
      </trkpt>
      <trkpt lat="42.98155" lon="0.53755">
        <ele>1543.293</ele>
        <time>2021-02-27T11:19:08Z</time>
      </trkpt>
      <trkpt lat="42.98155" lon="0.53756">
        <ele>1543.129</ele>
        <time>2021-02-27T11:19:10Z</time>
      </trkpt>
      <trkpt lat="42.98154" lon="0.53757">
        <ele>1543.035</ele>
        <time>2021-02-27T11:19:12Z</time>
      </trkpt>
      <trkpt lat="42.98154" lon="0.53757">
        <ele>1543.135</ele>
        <time>2021-02-27T11:19:14Z</time>
      </trkpt>
      <trkpt lat="42.98154" lon="0.53758">
        <ele>1543.401</ele>
        <time>2021-02-27T11:19:16Z</time>
      </trkpt>
      <trkpt lat="42.98154" lon="0.53758">
        <ele>1543.936</ele>
        <time>2021-02-27T11:19:18Z</time>
      </trkpt>
      <trkpt lat="42.98154" lon="0.53758">
        <ele>1543.953</ele>
        <time>2021-02-27T11:19:20Z</time>
      </trkpt>
      <trkpt lat="42.98154" lon="0.53758">
        <ele>1543.957</ele>
        <time>2021-02-27T11:19:22Z</time>
      </trkpt>
      <trkpt lat="42.98154" lon="0.53758">
        <ele>1544.558</ele>
        <time>2021-02-27T11:19:24Z</time>
      </trkpt>
      <trkpt lat="42.98154" lon="0.53758">
        <ele>1544.067</ele>
        <time>2021-02-27T11:19:26Z</time>
      </trkpt>
      <trkpt lat="42.98154" lon="0.53759">
        <ele>1543.59</ele>
        <time>2021-02-27T11:19:28Z</time>
      </trkpt>
      <trkpt lat="42.98154" lon="0.5376">
        <ele>1542.213</ele>
        <time>2021-02-27T11:19:30Z</time>
      </trkpt>
      <trkpt lat="42.98155" lon="0.5376">
        <ele>1542.75</ele>
        <time>2021-02-27T11:19:32Z</time>
      </trkpt>
      <trkpt lat="42.98155" lon="0.53758">
        <ele>1543.399</ele>
        <time>2021-02-27T11:19:34Z</time>
      </trkpt>
      <trkpt lat="42.98155" lon="0.53758">
        <ele>1543.408</ele>
        <time>2021-02-27T11:19:36Z</time>
      </trkpt>
      <trkpt lat="42.98155" lon="0.53758">
        <ele>1543.401</ele>
        <time>2021-02-27T11:19:38Z</time>
      </trkpt>
      <trkpt lat="42.98155" lon="0.53758">
        <ele>1543.398</ele>
        <time>2021-02-27T11:19:40Z</time>
      </trkpt>
      <trkpt lat="42.98155" lon="0.53758">
        <ele>1543.4</ele>
        <time>2021-02-27T11:19:42Z</time>
      </trkpt>
      <trkpt lat="42.98155" lon="0.53758">
        <ele>1543.4</ele>
        <time>2021-02-27T11:19:44Z</time>
      </trkpt>
      <trkpt lat="42.98155" lon="0.53758">
        <ele>1543.403</ele>
        <time>2021-02-27T11:19:46Z</time>
      </trkpt>
      <trkpt lat="42.98155" lon="0.53758">
        <ele>1543.402</ele>
        <time>2021-02-27T11:19:48Z</time>
      </trkpt>
      <trkpt lat="42.98155" lon="0.53758">
        <ele>1543.404</ele>
        <time>2021-02-27T11:19:50Z</time>
      </trkpt>
      <trkpt lat="42.98155" lon="0.53758">
        <ele>1543.41</ele>
        <time>2021-02-27T11:19:52Z</time>
      </trkpt>
      <trkpt lat="42.98155" lon="0.53758">
        <ele>1543.409</ele>
        <time>2021-02-27T11:19:54Z</time>
      </trkpt>
      <trkpt lat="42.98155" lon="0.53758">
        <ele>1543.408</ele>
        <time>2021-02-27T11:19:56Z</time>
      </trkpt>
      <trkpt lat="42.98155" lon="0.53758">
        <ele>1543.41</ele>
        <time>2021-02-27T11:19:58Z</time>
      </trkpt>
      <trkpt lat="42.98155" lon="0.53758">
        <ele>1543.41</ele>
        <time>2021-02-27T11:20:00Z</time>
      </trkpt>
      <trkpt lat="42.98155" lon="0.53758">
        <ele>1543.414</ele>
        <time>2021-02-27T11:20:02Z</time>
      </trkpt>
      <trkpt lat="42.98155" lon="0.53758">
        <ele>1543.414</ele>
        <time>2021-02-27T11:20:04Z</time>
      </trkpt>
      <trkpt lat="42.98155" lon="0.53758">
        <ele>1543.414</ele>
        <time>2021-02-27T11:20:06Z</time>
      </trkpt>
      <trkpt lat="42.98155" lon="0.53758">
        <ele>1543.413</ele>
        <time>2021-02-27T11:20:08Z</time>
      </trkpt>
      <trkpt lat="42.98155" lon="0.53758">
        <ele>1543.415</ele>
        <time>2021-02-27T11:20:10Z</time>
      </trkpt>
      <trkpt lat="42.98155" lon="0.53758">
        <ele>1543.417</ele>
        <time>2021-02-27T11:20:12Z</time>
      </trkpt>
      <trkpt lat="42.98155" lon="0.53758">
        <ele>1543.42</ele>
        <time>2021-02-27T11:20:14Z</time>
      </trkpt>
      <trkpt lat="42.98155" lon="0.53758">
        <ele>1543.42</ele>
        <time>2021-02-27T11:20:16Z</time>
      </trkpt>
      <trkpt lat="42.98155" lon="0.53758">
        <ele>1543.423</ele>
        <time>2021-02-27T11:20:18Z</time>
      </trkpt>
      <trkpt lat="42.98155" lon="0.53758">
        <ele>1543.43</ele>
        <time>2021-02-27T11:20:20Z</time>
      </trkpt>
      <trkpt lat="42.98155" lon="0.53758">
        <ele>1543.435</ele>
        <time>2021-02-27T11:20:22Z</time>
      </trkpt>
      <trkpt lat="42.98155" lon="0.53758">
        <ele>1543.436</ele>
        <time>2021-02-27T11:20:24Z</time>
      </trkpt>
      <trkpt lat="42.98155" lon="0.53758">
        <ele>1543.438</ele>
        <time>2021-02-27T11:20:26Z</time>
      </trkpt>
      <trkpt lat="42.98155" lon="0.53758">
        <ele>1543.439</ele>
        <time>2021-02-27T11:20:28Z</time>
      </trkpt>
      <trkpt lat="42.98155" lon="0.53758">
        <ele>1543.439</ele>
        <time>2021-02-27T11:20:30Z</time>
      </trkpt>
      <trkpt lat="42.98155" lon="0.53758">
        <ele>1543.443</ele>
        <time>2021-02-27T11:20:32Z</time>
      </trkpt>
      <trkpt lat="42.98155" lon="0.53758">
        <ele>1543.442</ele>
        <time>2021-02-27T11:20:34Z</time>
      </trkpt>
      <trkpt lat="42.98155" lon="0.53758">
        <ele>1543.442</ele>
        <time>2021-02-27T11:20:36Z</time>
      </trkpt>
      <trkpt lat="42.98155" lon="0.53758">
        <ele>1543.448</ele>
        <time>2021-02-27T11:20:38Z</time>
      </trkpt>
      <trkpt lat="42.98155" lon="0.53758">
        <ele>1543.449</ele>
        <time>2021-02-27T11:20:40Z</time>
      </trkpt>
      <trkpt lat="42.98155" lon="0.53758">
        <ele>1543.451</ele>
        <time>2021-02-27T11:20:42Z</time>
      </trkpt>
      <trkpt lat="42.98155" lon="0.53758">
        <ele>1543.451</ele>
        <time>2021-02-27T11:20:44Z</time>
      </trkpt>
      <trkpt lat="42.98155" lon="0.53758">
        <ele>1543.454</ele>
        <time>2021-02-27T11:20:46Z</time>
      </trkpt>
      <trkpt lat="42.98155" lon="0.53758">
        <ele>1543.457</ele>
        <time>2021-02-27T11:20:48Z</time>
      </trkpt>
      <trkpt lat="42.98155" lon="0.53758">
        <ele>1543.461</ele>
        <time>2021-02-27T11:20:50Z</time>
      </trkpt>
      <trkpt lat="42.98155" lon="0.53758">
        <ele>1543.59</ele>
        <time>2021-02-27T11:20:52Z</time>
      </trkpt>
      <trkpt lat="42.98155" lon="0.53758">
        <ele>1543.524</ele>
        <time>2021-02-27T11:20:54Z</time>
      </trkpt>
      <trkpt lat="42.98155" lon="0.53758">
        <ele>1543.528</ele>
        <time>2021-02-27T11:20:56Z</time>
      </trkpt>
      <trkpt lat="42.98155" lon="0.53758">
        <ele>1543.532</ele>
        <time>2021-02-27T11:20:58Z</time>
      </trkpt>
      <trkpt lat="42.98155" lon="0.53758">
        <ele>1543.533</ele>
        <time>2021-02-27T11:21:00Z</time>
      </trkpt>
      <trkpt lat="42.98155" lon="0.53758">
        <ele>1543.535</ele>
        <time>2021-02-27T11:21:02Z</time>
      </trkpt>
      <trkpt lat="42.98155" lon="0.53758">
        <ele>1543.537</ele>
        <time>2021-02-27T11:21:04Z</time>
      </trkpt>
      <trkpt lat="42.98155" lon="0.53758">
        <ele>1543.537</ele>
        <time>2021-02-27T11:21:06Z</time>
      </trkpt>
      <trkpt lat="42.98155" lon="0.53758">
        <ele>1543.537</ele>
        <time>2021-02-27T11:21:08Z</time>
      </trkpt>
      <trkpt lat="42.98155" lon="0.53758">
        <ele>1543.54</ele>
        <time>2021-02-27T11:21:10Z</time>
      </trkpt>
      <trkpt lat="42.98155" lon="0.53758">
        <ele>1543.539</ele>
        <time>2021-02-27T11:21:12Z</time>
      </trkpt>
      <trkpt lat="42.98155" lon="0.53758">
        <ele>1543.538</ele>
        <time>2021-02-27T11:21:14Z</time>
      </trkpt>
      <trkpt lat="42.98155" lon="0.53758">
        <ele>1543.537</ele>
        <time>2021-02-27T11:21:16Z</time>
      </trkpt>
      <trkpt lat="42.98155" lon="0.53758">
        <ele>1543.538</ele>
        <time>2021-02-27T11:21:18Z</time>
      </trkpt>
      <trkpt lat="42.98155" lon="0.53758">
        <ele>1543.539</ele>
        <time>2021-02-27T11:21:20Z</time>
      </trkpt>
      <trkpt lat="42.98155" lon="0.53758">
        <ele>1543.539</ele>
        <time>2021-02-27T11:21:22Z</time>
      </trkpt>
      <trkpt lat="42.98155" lon="0.53758">
        <ele>1543.544</ele>
        <time>2021-02-27T11:21:25Z</time>
      </trkpt>
      <trkpt lat="42.98155" lon="0.53758">
        <ele>1543.543</ele>
        <time>2021-02-27T11:21:27Z</time>
      </trkpt>
      <trkpt lat="42.98155" lon="0.53758">
        <ele>1543.546</ele>
        <time>2021-02-27T11:21:29Z</time>
      </trkpt>
      <trkpt lat="42.98155" lon="0.53758">
        <ele>1543.548</ele>
        <time>2021-02-27T11:21:31Z</time>
      </trkpt>
      <trkpt lat="42.98155" lon="0.53758">
        <ele>1543.548</ele>
        <time>2021-02-27T11:21:33Z</time>
      </trkpt>
      <trkpt lat="42.98155" lon="0.53758">
        <ele>1543.55</ele>
        <time>2021-02-27T11:21:35Z</time>
      </trkpt>
      <trkpt lat="42.98155" lon="0.53758">
        <ele>1543.553</ele>
        <time>2021-02-27T11:21:37Z</time>
      </trkpt>
      <trkpt lat="42.98155" lon="0.53758">
        <ele>1543.556</ele>
        <time>2021-02-27T11:21:39Z</time>
      </trkpt>
      <trkpt lat="42.98155" lon="0.53758">
        <ele>1543.556</ele>
        <time>2021-02-27T11:21:41Z</time>
      </trkpt>
      <trkpt lat="42.98155" lon="0.53758">
        <ele>1543.556</ele>
        <time>2021-02-27T11:21:43Z</time>
      </trkpt>
      <trkpt lat="42.98155" lon="0.53758">
        <ele>1543.556</ele>
        <time>2021-02-27T11:21:45Z</time>
      </trkpt>
      <trkpt lat="42.98155" lon="0.53758">
        <ele>1543.556</ele>
        <time>2021-02-27T11:21:47Z</time>
      </trkpt>
      <trkpt lat="42.98155" lon="0.53758">
        <ele>1543.557</ele>
        <time>2021-02-27T11:21:49Z</time>
      </trkpt>
      <trkpt lat="42.98155" lon="0.53758">
        <ele>1543.556</ele>
        <time>2021-02-27T11:21:51Z</time>
      </trkpt>
      <trkpt lat="42.98155" lon="0.53758">
        <ele>1543.56</ele>
        <time>2021-02-27T11:21:53Z</time>
      </trkpt>
      <trkpt lat="42.98155" lon="0.53758">
        <ele>1543.559</ele>
        <time>2021-02-27T11:21:55Z</time>
      </trkpt>
      <trkpt lat="42.98155" lon="0.53758">
        <ele>1543.561</ele>
        <time>2021-02-27T11:21:57Z</time>
      </trkpt>
      <trkpt lat="42.98155" lon="0.53758">
        <ele>1543.563</ele>
        <time>2021-02-27T11:21:59Z</time>
      </trkpt>
      <trkpt lat="42.98155" lon="0.53758">
        <ele>1543.562</ele>
        <time>2021-02-27T11:22:01Z</time>
      </trkpt>
      <trkpt lat="42.98155" lon="0.53758">
        <ele>1543.562</ele>
        <time>2021-02-27T11:22:03Z</time>
      </trkpt>
      <trkpt lat="42.98155" lon="0.53758">
        <ele>1543.565</ele>
        <time>2021-02-27T11:22:05Z</time>
      </trkpt>
      <trkpt lat="42.98155" lon="0.53758">
        <ele>1543.565</ele>
        <time>2021-02-27T11:22:07Z</time>
      </trkpt>
      <trkpt lat="42.98155" lon="0.53758">
        <ele>1543.564</ele>
        <time>2021-02-27T11:22:09Z</time>
      </trkpt>
      <trkpt lat="42.98155" lon="0.53758">
        <ele>1543.563</ele>
        <time>2021-02-27T11:22:11Z</time>
      </trkpt>
      <trkpt lat="42.98155" lon="0.53758">
        <ele>1543.563</ele>
        <time>2021-02-27T11:22:13Z</time>
      </trkpt>
      <trkpt lat="42.98155" lon="0.53758">
        <ele>1543.565</ele>
        <time>2021-02-27T11:22:15Z</time>
      </trkpt>
      <trkpt lat="42.98155" lon="0.53758">
        <ele>1543.571</ele>
        <time>2021-02-27T11:22:17Z</time>
      </trkpt>
      <trkpt lat="42.98155" lon="0.53758">
        <ele>1543.577</ele>
        <time>2021-02-27T11:22:19Z</time>
      </trkpt>
      <trkpt lat="42.98155" lon="0.53758">
        <ele>1543.58</ele>
        <time>2021-02-27T11:22:21Z</time>
      </trkpt>
      <trkpt lat="42.98155" lon="0.53758">
        <ele>1543.587</ele>
        <time>2021-02-27T11:22:23Z</time>
      </trkpt>
      <trkpt lat="42.98155" lon="0.53758">
        <ele>1543.593</ele>
        <time>2021-02-27T11:22:25Z</time>
      </trkpt>
      <trkpt lat="42.98155" lon="0.53758">
        <ele>1543.596</ele>
        <time>2021-02-27T11:22:27Z</time>
      </trkpt>
      <trkpt lat="42.98155" lon="0.53758">
        <ele>1543.594</ele>
        <time>2021-02-27T11:22:29Z</time>
      </trkpt>
      <trkpt lat="42.98155" lon="0.53758">
        <ele>1543.593</ele>
        <time>2021-02-27T11:22:31Z</time>
      </trkpt>
      <trkpt lat="42.98155" lon="0.53758">
        <ele>1543.592</ele>
        <time>2021-02-27T11:22:33Z</time>
      </trkpt>
      <trkpt lat="42.98155" lon="0.53758">
        <ele>1543.598</ele>
        <time>2021-02-27T11:22:35Z</time>
      </trkpt>
      <trkpt lat="42.98155" lon="0.53758">
        <ele>1543.599</ele>
        <time>2021-02-27T11:22:37Z</time>
      </trkpt>
      <trkpt lat="42.98155" lon="0.53758">
        <ele>1543.603</ele>
        <time>2021-02-27T11:22:39Z</time>
      </trkpt>
      <trkpt lat="42.98155" lon="0.53758">
        <ele>1543.607</ele>
        <time>2021-02-27T11:22:41Z</time>
      </trkpt>
      <trkpt lat="42.98155" lon="0.53758">
        <ele>1543.607</ele>
        <time>2021-02-27T11:22:43Z</time>
      </trkpt>
      <trkpt lat="42.98155" lon="0.53758">
        <ele>1543.607</ele>
        <time>2021-02-27T11:22:45Z</time>
      </trkpt>
      <trkpt lat="42.98155" lon="0.53758">
        <ele>1543.611</ele>
        <time>2021-02-27T11:22:47Z</time>
      </trkpt>
      <trkpt lat="42.98155" lon="0.53758">
        <ele>1543.617</ele>
        <time>2021-02-27T11:22:49Z</time>
      </trkpt>
      <trkpt lat="42.98155" lon="0.53758">
        <ele>1543.618</ele>
        <time>2021-02-27T11:22:51Z</time>
      </trkpt>
      <trkpt lat="42.98155" lon="0.53758">
        <ele>1543.618</ele>
        <time>2021-02-27T11:22:53Z</time>
      </trkpt>
      <trkpt lat="42.98155" lon="0.53758">
        <ele>1543.622</ele>
        <time>2021-02-27T11:22:55Z</time>
      </trkpt>
      <trkpt lat="42.98155" lon="0.53758">
        <ele>1543.628</ele>
        <time>2021-02-27T11:22:57Z</time>
      </trkpt>
      <trkpt lat="42.98155" lon="0.53758">
        <ele>1543.635</ele>
        <time>2021-02-27T11:22:59Z</time>
      </trkpt>
      <trkpt lat="42.98155" lon="0.53758">
        <ele>1543.64</ele>
        <time>2021-02-27T11:23:01Z</time>
      </trkpt>
      <trkpt lat="42.98155" lon="0.53758">
        <ele>1543.639</ele>
        <time>2021-02-27T11:23:03Z</time>
      </trkpt>
      <trkpt lat="42.98155" lon="0.53758">
        <ele>1543.641</ele>
        <time>2021-02-27T11:23:05Z</time>
      </trkpt>
      <trkpt lat="42.98155" lon="0.53758">
        <ele>1543.645</ele>
        <time>2021-02-27T11:23:07Z</time>
      </trkpt>
      <trkpt lat="42.98155" lon="0.53758">
        <ele>1543.651</ele>
        <time>2021-02-27T11:23:09Z</time>
      </trkpt>
      <trkpt lat="42.98155" lon="0.53758">
        <ele>1543.659</ele>
        <time>2021-02-27T11:23:11Z</time>
      </trkpt>
      <trkpt lat="42.98155" lon="0.53758">
        <ele>1543.664</ele>
        <time>2021-02-27T11:23:13Z</time>
      </trkpt>
      <trkpt lat="42.98155" lon="0.53758">
        <ele>1543.667</ele>
        <time>2021-02-27T11:23:15Z</time>
      </trkpt>
      <trkpt lat="42.98155" lon="0.53758">
        <ele>1543.668</ele>
        <time>2021-02-27T11:23:17Z</time>
      </trkpt>
      <trkpt lat="42.98155" lon="0.53758">
        <ele>1543.666</ele>
        <time>2021-02-27T11:23:19Z</time>
      </trkpt>
      <trkpt lat="42.98155" lon="0.53758">
        <ele>1543.666</ele>
        <time>2021-02-27T11:23:21Z</time>
      </trkpt>
      <trkpt lat="42.98155" lon="0.53758">
        <ele>1543.666</ele>
        <time>2021-02-27T11:23:23Z</time>
      </trkpt>
      <trkpt lat="42.98155" lon="0.53758">
        <ele>1543.78</ele>
        <time>2021-02-27T11:23:25Z</time>
      </trkpt>
      <trkpt lat="42.98155" lon="0.53758">
        <ele>1543.773</ele>
        <time>2021-02-27T11:23:27Z</time>
      </trkpt>
      <trkpt lat="42.98155" lon="0.53757">
        <ele>1543.777</ele>
        <time>2021-02-27T11:23:29Z</time>
      </trkpt>
      <trkpt lat="42.98155" lon="0.53757">
        <ele>1543.779</ele>
        <time>2021-02-27T11:23:31Z</time>
      </trkpt>
      <trkpt lat="42.98155" lon="0.53757">
        <ele>1543.78</ele>
        <time>2021-02-27T11:23:33Z</time>
      </trkpt>
      <trkpt lat="42.98155" lon="0.53757">
        <ele>1543.781</ele>
        <time>2021-02-27T11:23:35Z</time>
      </trkpt>
      <trkpt lat="42.98155" lon="0.53757">
        <ele>1543.787</ele>
        <time>2021-02-27T11:23:37Z</time>
      </trkpt>
      <trkpt lat="42.98155" lon="0.53757">
        <ele>1543.79</ele>
        <time>2021-02-27T11:23:39Z</time>
      </trkpt>
      <trkpt lat="42.98155" lon="0.53757">
        <ele>1543.792</ele>
        <time>2021-02-27T11:23:41Z</time>
      </trkpt>
      <trkpt lat="42.98155" lon="0.53757">
        <ele>1543.796</ele>
        <time>2021-02-27T11:23:43Z</time>
      </trkpt>
      <trkpt lat="42.98155" lon="0.53757">
        <ele>1543.799</ele>
        <time>2021-02-27T11:23:45Z</time>
      </trkpt>
      <trkpt lat="42.98155" lon="0.53757">
        <ele>1543.803</ele>
        <time>2021-02-27T11:23:47Z</time>
      </trkpt>
      <trkpt lat="42.98155" lon="0.53757">
        <ele>1543.804</ele>
        <time>2021-02-27T11:23:49Z</time>
      </trkpt>
      <trkpt lat="42.98155" lon="0.53757">
        <ele>1543.81</ele>
        <time>2021-02-27T11:23:51Z</time>
      </trkpt>
      <trkpt lat="42.98155" lon="0.53757">
        <ele>1543.81</ele>
        <time>2021-02-27T11:23:53Z</time>
      </trkpt>
      <trkpt lat="42.98155" lon="0.53757">
        <ele>1543.81</ele>
        <time>2021-02-27T11:23:55Z</time>
      </trkpt>
      <trkpt lat="42.98155" lon="0.53757">
        <ele>1543.812</ele>
        <time>2021-02-27T11:23:57Z</time>
      </trkpt>
      <trkpt lat="42.98155" lon="0.53757">
        <ele>1543.816</ele>
        <time>2021-02-27T11:23:59Z</time>
      </trkpt>
      <trkpt lat="42.98155" lon="0.53757">
        <ele>1543.818</ele>
        <time>2021-02-27T11:24:01Z</time>
      </trkpt>
      <trkpt lat="42.98155" lon="0.53757">
        <ele>1543.848</ele>
        <time>2021-02-27T11:24:03Z</time>
      </trkpt>
      <trkpt lat="42.98155" lon="0.53757">
        <ele>1543.837</ele>
        <time>2021-02-27T11:24:05Z</time>
      </trkpt>
      <trkpt lat="42.98155" lon="0.53757">
        <ele>1543.837</ele>
        <time>2021-02-27T11:24:07Z</time>
      </trkpt>
      <trkpt lat="42.98155" lon="0.53757">
        <ele>1543.839</ele>
        <time>2021-02-27T11:24:09Z</time>
      </trkpt>
      <trkpt lat="42.98155" lon="0.53757">
        <ele>1543.841</ele>
        <time>2021-02-27T11:24:11Z</time>
      </trkpt>
      <trkpt lat="42.98155" lon="0.53757">
        <ele>1543.842</ele>
        <time>2021-02-27T11:24:13Z</time>
      </trkpt>
      <trkpt lat="42.98155" lon="0.53757">
        <ele>1543.839</ele>
        <time>2021-02-27T11:24:15Z</time>
      </trkpt>
      <trkpt lat="42.98155" lon="0.53757">
        <ele>1543.84</ele>
        <time>2021-02-27T11:24:17Z</time>
      </trkpt>
      <trkpt lat="42.98155" lon="0.53757">
        <ele>1543.838</ele>
        <time>2021-02-27T11:24:19Z</time>
      </trkpt>
      <trkpt lat="42.98155" lon="0.53757">
        <ele>1543.842</ele>
        <time>2021-02-27T11:24:21Z</time>
      </trkpt>
      <trkpt lat="42.98155" lon="0.53757">
        <ele>1543.841</ele>
        <time>2021-02-27T11:24:23Z</time>
      </trkpt>
      <trkpt lat="42.98155" lon="0.53757">
        <ele>1543.843</ele>
        <time>2021-02-27T11:24:25Z</time>
      </trkpt>
      <trkpt lat="42.98155" lon="0.53757">
        <ele>1543.842</ele>
        <time>2021-02-27T11:24:27Z</time>
      </trkpt>
      <trkpt lat="42.98155" lon="0.53757">
        <ele>1543.843</ele>
        <time>2021-02-27T11:24:29Z</time>
      </trkpt>
      <trkpt lat="42.98155" lon="0.53757">
        <ele>1543.847</ele>
        <time>2021-02-27T11:24:31Z</time>
      </trkpt>
      <trkpt lat="42.98155" lon="0.53757">
        <ele>1543.849</ele>
        <time>2021-02-27T11:24:33Z</time>
      </trkpt>
      <trkpt lat="42.98155" lon="0.53757">
        <ele>1543.852</ele>
        <time>2021-02-27T11:24:35Z</time>
      </trkpt>
      <trkpt lat="42.98155" lon="0.53757">
        <ele>1543.855</ele>
        <time>2021-02-27T11:24:37Z</time>
      </trkpt>
      <trkpt lat="42.98155" lon="0.53757">
        <ele>1543.857</ele>
        <time>2021-02-27T11:24:39Z</time>
      </trkpt>
      <trkpt lat="42.98155" lon="0.53757">
        <ele>1543.859</ele>
        <time>2021-02-27T11:24:41Z</time>
      </trkpt>
      <trkpt lat="42.98155" lon="0.53757">
        <ele>1543.864</ele>
        <time>2021-02-27T11:24:43Z</time>
      </trkpt>
      <trkpt lat="42.98155" lon="0.53757">
        <ele>1543.864</ele>
        <time>2021-02-27T11:24:45Z</time>
      </trkpt>
      <trkpt lat="42.98155" lon="0.53757">
        <ele>1543.863</ele>
        <time>2021-02-27T11:24:47Z</time>
      </trkpt>
      <trkpt lat="42.98155" lon="0.53757">
        <ele>1543.868</ele>
        <time>2021-02-27T11:24:49Z</time>
      </trkpt>
      <trkpt lat="42.98155" lon="0.53757">
        <ele>1543.868</ele>
        <time>2021-02-27T11:24:51Z</time>
      </trkpt>
      <trkpt lat="42.98155" lon="0.53757">
        <ele>1543.869</ele>
        <time>2021-02-27T11:24:53Z</time>
      </trkpt>
      <trkpt lat="42.98155" lon="0.53757">
        <ele>1543.867</ele>
        <time>2021-02-27T11:24:55Z</time>
      </trkpt>
      <trkpt lat="42.98155" lon="0.53757">
        <ele>1543.866</ele>
        <time>2021-02-27T11:24:57Z</time>
      </trkpt>
      <trkpt lat="42.98155" lon="0.53757">
        <ele>1543.865</ele>
        <time>2021-02-27T11:24:59Z</time>
      </trkpt>
      <trkpt lat="42.98155" lon="0.53757">
        <ele>1543.863</ele>
        <time>2021-02-27T11:25:01Z</time>
      </trkpt>
      <trkpt lat="42.98155" lon="0.53757">
        <ele>1543.863</ele>
        <time>2021-02-27T11:25:03Z</time>
      </trkpt>
      <trkpt lat="42.98155" lon="0.53757">
        <ele>1543.865</ele>
        <time>2021-02-27T11:25:05Z</time>
      </trkpt>
      <trkpt lat="42.98155" lon="0.53757">
        <ele>1543.87</ele>
        <time>2021-02-27T11:25:07Z</time>
      </trkpt>
      <trkpt lat="42.98155" lon="0.53757">
        <ele>1543.87</ele>
        <time>2021-02-27T11:25:09Z</time>
      </trkpt>
      <trkpt lat="42.98155" lon="0.53757">
        <ele>1543.872</ele>
        <time>2021-02-27T11:25:11Z</time>
      </trkpt>
      <trkpt lat="42.98155" lon="0.53757">
        <ele>1543.874</ele>
        <time>2021-02-27T11:25:13Z</time>
      </trkpt>
      <trkpt lat="42.98155" lon="0.53757">
        <ele>1543.872</ele>
        <time>2021-02-27T11:25:15Z</time>
      </trkpt>
      <trkpt lat="42.98155" lon="0.53757">
        <ele>1543.869</ele>
        <time>2021-02-27T11:25:17Z</time>
      </trkpt>
      <trkpt lat="42.98155" lon="0.53757">
        <ele>1543.87</ele>
        <time>2021-02-27T11:25:19Z</time>
      </trkpt>
      <trkpt lat="42.98155" lon="0.53757">
        <ele>1543.869</ele>
        <time>2021-02-27T11:25:21Z</time>
      </trkpt>
      <trkpt lat="42.98155" lon="0.53757">
        <ele>1543.872</ele>
        <time>2021-02-27T11:25:23Z</time>
      </trkpt>
      <trkpt lat="42.98155" lon="0.53757">
        <ele>1543.874</ele>
        <time>2021-02-27T11:25:25Z</time>
      </trkpt>
      <trkpt lat="42.98155" lon="0.53757">
        <ele>1543.88</ele>
        <time>2021-02-27T11:25:27Z</time>
      </trkpt>
      <trkpt lat="42.98155" lon="0.53757">
        <ele>1543.88</ele>
        <time>2021-02-27T11:25:29Z</time>
      </trkpt>
      <trkpt lat="42.98155" lon="0.53757">
        <ele>1543.882</ele>
        <time>2021-02-27T11:25:31Z</time>
      </trkpt>
      <trkpt lat="42.98155" lon="0.53757">
        <ele>1543.882</ele>
        <time>2021-02-27T11:25:33Z</time>
      </trkpt>
      <trkpt lat="42.98155" lon="0.53757">
        <ele>1543.884</ele>
        <time>2021-02-27T11:25:35Z</time>
      </trkpt>
      <trkpt lat="42.98155" lon="0.53757">
        <ele>1543.884</ele>
        <time>2021-02-27T11:25:37Z</time>
      </trkpt>
      <trkpt lat="42.98155" lon="0.53757">
        <ele>1543.884</ele>
        <time>2021-02-27T11:25:39Z</time>
      </trkpt>
      <trkpt lat="42.98155" lon="0.53757">
        <ele>1543.886</ele>
        <time>2021-02-27T11:25:41Z</time>
      </trkpt>
      <trkpt lat="42.98155" lon="0.53757">
        <ele>1543.887</ele>
        <time>2021-02-27T11:25:43Z</time>
      </trkpt>
      <trkpt lat="42.98155" lon="0.53757">
        <ele>1543.884</ele>
        <time>2021-02-27T11:25:45Z</time>
      </trkpt>
      <trkpt lat="42.98155" lon="0.53757">
        <ele>1543.879</ele>
        <time>2021-02-27T11:25:47Z</time>
      </trkpt>
      <trkpt lat="42.98155" lon="0.53757">
        <ele>1543.88</ele>
        <time>2021-02-27T11:25:49Z</time>
      </trkpt>
      <trkpt lat="42.98155" lon="0.53757">
        <ele>1543.879</ele>
        <time>2021-02-27T11:25:51Z</time>
      </trkpt>
      <trkpt lat="42.98155" lon="0.53757">
        <ele>1543.879</ele>
        <time>2021-02-27T11:25:53Z</time>
      </trkpt>
      <trkpt lat="42.98155" lon="0.53757">
        <ele>1543.878</ele>
        <time>2021-02-27T11:25:55Z</time>
      </trkpt>
      <trkpt lat="42.98155" lon="0.53757">
        <ele>1543.965</ele>
        <time>2021-02-27T11:25:57Z</time>
      </trkpt>
      <trkpt lat="42.98155" lon="0.53757">
        <ele>1543.957</ele>
        <time>2021-02-27T11:25:59Z</time>
      </trkpt>
      <trkpt lat="42.98155" lon="0.53757">
        <ele>1543.954</ele>
        <time>2021-02-27T11:26:01Z</time>
      </trkpt>
      <trkpt lat="42.98155" lon="0.53757">
        <ele>1543.955</ele>
        <time>2021-02-27T11:26:03Z</time>
      </trkpt>
      <trkpt lat="42.98155" lon="0.53757">
        <ele>1543.954</ele>
        <time>2021-02-27T11:26:05Z</time>
      </trkpt>
      <trkpt lat="42.98155" lon="0.53757">
        <ele>1543.958</ele>
        <time>2021-02-27T11:26:07Z</time>
      </trkpt>
      <trkpt lat="42.98155" lon="0.53757">
        <ele>1543.957</ele>
        <time>2021-02-27T11:26:09Z</time>
      </trkpt>
      <trkpt lat="42.98155" lon="0.53757">
        <ele>1543.959</ele>
        <time>2021-02-27T11:26:11Z</time>
      </trkpt>
      <trkpt lat="42.98155" lon="0.53757">
        <ele>1543.959</ele>
        <time>2021-02-27T11:26:13Z</time>
      </trkpt>
      <trkpt lat="42.98155" lon="0.53757">
        <ele>1543.96</ele>
        <time>2021-02-27T11:26:15Z</time>
      </trkpt>
      <trkpt lat="42.98155" lon="0.53757">
        <ele>1543.958</ele>
        <time>2021-02-27T11:26:17Z</time>
      </trkpt>
      <trkpt lat="42.98155" lon="0.53757">
        <ele>1543.96</ele>
        <time>2021-02-27T11:26:19Z</time>
      </trkpt>
      <trkpt lat="42.98155" lon="0.53757">
        <ele>1543.962</ele>
        <time>2021-02-27T11:26:21Z</time>
      </trkpt>
      <trkpt lat="42.98155" lon="0.53757">
        <ele>1543.967</ele>
        <time>2021-02-27T11:26:23Z</time>
      </trkpt>
      <trkpt lat="42.98155" lon="0.53757">
        <ele>1543.968</ele>
        <time>2021-02-27T11:26:25Z</time>
      </trkpt>
      <trkpt lat="42.98155" lon="0.53757">
        <ele>1543.966</ele>
        <time>2021-02-27T11:26:27Z</time>
      </trkpt>
      <trkpt lat="42.98155" lon="0.53757">
        <ele>1543.966</ele>
        <time>2021-02-27T11:26:29Z</time>
      </trkpt>
      <trkpt lat="42.98155" lon="0.53757">
        <ele>1543.967</ele>
        <time>2021-02-27T11:26:31Z</time>
      </trkpt>
      <trkpt lat="42.98155" lon="0.53757">
        <ele>1543.966</ele>
        <time>2021-02-27T11:26:33Z</time>
      </trkpt>
      <trkpt lat="42.98155" lon="0.53757">
        <ele>1543.968</ele>
        <time>2021-02-27T11:26:35Z</time>
      </trkpt>
      <trkpt lat="42.98155" lon="0.53757">
        <ele>1543.977</ele>
        <time>2021-02-27T11:26:37Z</time>
      </trkpt>
      <trkpt lat="42.98155" lon="0.53757">
        <ele>1543.979</ele>
        <time>2021-02-27T11:26:39Z</time>
      </trkpt>
      <trkpt lat="42.98155" lon="0.53757">
        <ele>1543.984</ele>
        <time>2021-02-27T11:26:41Z</time>
      </trkpt>
      <trkpt lat="42.98155" lon="0.53757">
        <ele>1543.988</ele>
        <time>2021-02-27T11:26:43Z</time>
      </trkpt>
      <trkpt lat="42.98155" lon="0.53757">
        <ele>1543.993</ele>
        <time>2021-02-27T11:26:45Z</time>
      </trkpt>
      <trkpt lat="42.98155" lon="0.53757">
        <ele>1543.995</ele>
        <time>2021-02-27T11:26:47Z</time>
      </trkpt>
      <trkpt lat="42.98155" lon="0.53757">
        <ele>1543.998</ele>
        <time>2021-02-27T11:26:49Z</time>
      </trkpt>
      <trkpt lat="42.98155" lon="0.53757">
        <ele>1543.996</ele>
        <time>2021-02-27T11:26:51Z</time>
      </trkpt>
      <trkpt lat="42.98155" lon="0.53757">
        <ele>1544.007</ele>
        <time>2021-02-27T11:26:53Z</time>
      </trkpt>
      <trkpt lat="42.98155" lon="0.53757">
        <ele>1544.006</ele>
        <time>2021-02-27T11:26:55Z</time>
      </trkpt>
      <trkpt lat="42.98155" lon="0.53757">
        <ele>1544.004</ele>
        <time>2021-02-27T11:26:57Z</time>
      </trkpt>
      <trkpt lat="42.98155" lon="0.53757">
        <ele>1543.999</ele>
        <time>2021-02-27T11:26:59Z</time>
      </trkpt>
      <trkpt lat="42.98155" lon="0.53757">
        <ele>1543.992</ele>
        <time>2021-02-27T11:27:01Z</time>
      </trkpt>
      <trkpt lat="42.98155" lon="0.53757">
        <ele>1543.986</ele>
        <time>2021-02-27T11:27:03Z</time>
      </trkpt>
      <trkpt lat="42.98155" lon="0.53757">
        <ele>1543.985</ele>
        <time>2021-02-27T11:27:05Z</time>
      </trkpt>
      <trkpt lat="42.98155" lon="0.53757">
        <ele>1543.984</ele>
        <time>2021-02-27T11:27:07Z</time>
      </trkpt>
      <trkpt lat="42.98155" lon="0.53757">
        <ele>1543.987</ele>
        <time>2021-02-27T11:27:09Z</time>
      </trkpt>
      <trkpt lat="42.98155" lon="0.53757">
        <ele>1543.992</ele>
        <time>2021-02-27T11:27:11Z</time>
      </trkpt>
      <trkpt lat="42.98155" lon="0.53757">
        <ele>1543.996</ele>
        <time>2021-02-27T11:27:13Z</time>
      </trkpt>
      <trkpt lat="42.98155" lon="0.53757">
        <ele>1543.998</ele>
        <time>2021-02-27T11:27:15Z</time>
      </trkpt>
      <trkpt lat="42.98155" lon="0.53757">
        <ele>1544</ele>
        <time>2021-02-27T11:27:17Z</time>
      </trkpt>
      <trkpt lat="42.98155" lon="0.53757">
        <ele>1544.001</ele>
        <time>2021-02-27T11:27:19Z</time>
      </trkpt>
      <trkpt lat="42.98155" lon="0.53757">
        <ele>1544.003</ele>
        <time>2021-02-27T11:27:21Z</time>
      </trkpt>
      <trkpt lat="42.98155" lon="0.53757">
        <ele>1544.005</ele>
        <time>2021-02-27T11:27:23Z</time>
      </trkpt>
      <trkpt lat="42.98155" lon="0.53757">
        <ele>1544.005</ele>
        <time>2021-02-27T11:27:25Z</time>
      </trkpt>
      <trkpt lat="42.98155" lon="0.53757">
        <ele>1544.005</ele>
        <time>2021-02-27T11:27:27Z</time>
      </trkpt>
      <trkpt lat="42.98155" lon="0.53757">
        <ele>1544.004</ele>
        <time>2021-02-27T11:27:29Z</time>
      </trkpt>
      <trkpt lat="42.98155" lon="0.53757">
        <ele>1544.006</ele>
        <time>2021-02-27T11:27:31Z</time>
      </trkpt>
      <trkpt lat="42.98155" lon="0.53757">
        <ele>1544.009</ele>
        <time>2021-02-27T11:27:33Z</time>
      </trkpt>
      <trkpt lat="42.98155" lon="0.53757">
        <ele>1544.012</ele>
        <time>2021-02-27T11:27:35Z</time>
      </trkpt>
      <trkpt lat="42.98155" lon="0.53757">
        <ele>1544.013</ele>
        <time>2021-02-27T11:27:37Z</time>
      </trkpt>
      <trkpt lat="42.98155" lon="0.53757">
        <ele>1544.014</ele>
        <time>2021-02-27T11:27:39Z</time>
      </trkpt>
      <trkpt lat="42.98155" lon="0.53757">
        <ele>1544.013</ele>
        <time>2021-02-27T11:27:41Z</time>
      </trkpt>
      <trkpt lat="42.98155" lon="0.53757">
        <ele>1544.012</ele>
        <time>2021-02-27T11:27:43Z</time>
      </trkpt>
      <trkpt lat="42.98155" lon="0.53757">
        <ele>1544.013</ele>
        <time>2021-02-27T11:27:45Z</time>
      </trkpt>
      <trkpt lat="42.98155" lon="0.53757">
        <ele>1544.016</ele>
        <time>2021-02-27T11:27:47Z</time>
      </trkpt>
      <trkpt lat="42.98155" lon="0.53757">
        <ele>1544.017</ele>
        <time>2021-02-27T11:27:49Z</time>
      </trkpt>
      <trkpt lat="42.98155" lon="0.53757">
        <ele>1544.021</ele>
        <time>2021-02-27T11:27:51Z</time>
      </trkpt>
      <trkpt lat="42.98155" lon="0.53757">
        <ele>1544.024</ele>
        <time>2021-02-27T11:27:53Z</time>
      </trkpt>
      <trkpt lat="42.98155" lon="0.53757">
        <ele>1544.028</ele>
        <time>2021-02-27T11:27:55Z</time>
      </trkpt>
      <trkpt lat="42.98155" lon="0.53757">
        <ele>1544.028</ele>
        <time>2021-02-27T11:27:57Z</time>
      </trkpt>
      <trkpt lat="42.98155" lon="0.53757">
        <ele>1544.026</ele>
        <time>2021-02-27T11:27:59Z</time>
      </trkpt>
      <trkpt lat="42.98155" lon="0.53757">
        <ele>1544.028</ele>
        <time>2021-02-27T11:28:01Z</time>
      </trkpt>
      <trkpt lat="42.98155" lon="0.53757">
        <ele>1544.03</ele>
        <time>2021-02-27T11:28:03Z</time>
      </trkpt>
      <trkpt lat="42.98155" lon="0.53757">
        <ele>1544.031</ele>
        <time>2021-02-27T11:28:05Z</time>
      </trkpt>
      <trkpt lat="42.98155" lon="0.53757">
        <ele>1544.03</ele>
        <time>2021-02-27T11:28:07Z</time>
      </trkpt>
      <trkpt lat="42.98155" lon="0.53757">
        <ele>1544.032</ele>
        <time>2021-02-27T11:28:09Z</time>
      </trkpt>
      <trkpt lat="42.98156" lon="0.53757">
        <ele>1544.333</ele>
        <time>2021-02-27T11:28:11Z</time>
      </trkpt>
      <trkpt lat="42.98156" lon="0.53757">
        <ele>1544.399</ele>
        <time>2021-02-27T11:28:13Z</time>
      </trkpt>
      <trkpt lat="42.98156" lon="0.53757">
        <ele>1544.401</ele>
        <time>2021-02-27T11:28:15Z</time>
      </trkpt>
      <trkpt lat="42.98156" lon="0.53757">
        <ele>1544.406</ele>
        <time>2021-02-27T11:28:17Z</time>
      </trkpt>
      <trkpt lat="42.98156" lon="0.53757">
        <ele>1544.414</ele>
        <time>2021-02-27T11:28:19Z</time>
      </trkpt>
      <trkpt lat="42.98156" lon="0.53757">
        <ele>1544.422</ele>
        <time>2021-02-27T11:28:21Z</time>
      </trkpt>
      <trkpt lat="42.98156" lon="0.53757">
        <ele>1544.43</ele>
        <time>2021-02-27T11:28:23Z</time>
      </trkpt>
      <trkpt lat="42.98156" lon="0.53757">
        <ele>1544.434</ele>
        <time>2021-02-27T11:28:25Z</time>
      </trkpt>
      <trkpt lat="42.98156" lon="0.53757">
        <ele>1544.44</ele>
        <time>2021-02-27T11:28:27Z</time>
      </trkpt>
      <trkpt lat="42.98156" lon="0.53757">
        <ele>1544.444</ele>
        <time>2021-02-27T11:28:29Z</time>
      </trkpt>
      <trkpt lat="42.98156" lon="0.53757">
        <ele>1544.449</ele>
        <time>2021-02-27T11:28:31Z</time>
      </trkpt>
      <trkpt lat="42.98156" lon="0.53757">
        <ele>1544.452</ele>
        <time>2021-02-27T11:28:33Z</time>
      </trkpt>
      <trkpt lat="42.98156" lon="0.53757">
        <ele>1544.457</ele>
        <time>2021-02-27T11:28:35Z</time>
      </trkpt>
      <trkpt lat="42.98156" lon="0.53757">
        <ele>1544.46</ele>
        <time>2021-02-27T11:28:37Z</time>
      </trkpt>
      <trkpt lat="42.98156" lon="0.53757">
        <ele>1544.463</ele>
        <time>2021-02-27T11:28:39Z</time>
      </trkpt>
      <trkpt lat="42.98156" lon="0.53757">
        <ele>1544.463</ele>
        <time>2021-02-27T11:28:41Z</time>
      </trkpt>
      <trkpt lat="42.98156" lon="0.53757">
        <ele>1544.466</ele>
        <time>2021-02-27T11:28:43Z</time>
      </trkpt>
      <trkpt lat="42.98156" lon="0.53757">
        <ele>1544.468</ele>
        <time>2021-02-27T11:28:45Z</time>
      </trkpt>
      <trkpt lat="42.98156" lon="0.53757">
        <ele>1544.473</ele>
        <time>2021-02-27T11:28:47Z</time>
      </trkpt>
      <trkpt lat="42.98156" lon="0.53757">
        <ele>1544.475</ele>
        <time>2021-02-27T11:28:49Z</time>
      </trkpt>
      <trkpt lat="42.98156" lon="0.53757">
        <ele>1544.475</ele>
        <time>2021-02-27T11:28:51Z</time>
      </trkpt>
      <trkpt lat="42.98156" lon="0.53757">
        <ele>1544.476</ele>
        <time>2021-02-27T11:28:53Z</time>
      </trkpt>
      <trkpt lat="42.98156" lon="0.53757">
        <ele>1544.476</ele>
        <time>2021-02-27T11:28:55Z</time>
      </trkpt>
      <trkpt lat="42.98156" lon="0.53757">
        <ele>1544.744</ele>
        <time>2021-02-27T11:28:57Z</time>
      </trkpt>
      <trkpt lat="42.98156" lon="0.53757">
        <ele>1544.751</ele>
        <time>2021-02-27T11:28:59Z</time>
      </trkpt>
      <trkpt lat="42.98156" lon="0.53757">
        <ele>1544.756</ele>
        <time>2021-02-27T11:29:01Z</time>
      </trkpt>
      <trkpt lat="42.98156" lon="0.53757">
        <ele>1544.412</ele>
        <time>2021-02-27T11:29:03Z</time>
      </trkpt>
      <trkpt lat="42.98156" lon="0.53757">
        <ele>1544.417</ele>
        <time>2021-02-27T11:29:05Z</time>
      </trkpt>
      <trkpt lat="42.98156" lon="0.53757">
        <ele>1544.418</ele>
        <time>2021-02-27T11:29:07Z</time>
      </trkpt>
      <trkpt lat="42.98156" lon="0.53757">
        <ele>1544.416</ele>
        <time>2021-02-27T11:29:09Z</time>
      </trkpt>
      <trkpt lat="42.98156" lon="0.53757">
        <ele>1544.414</ele>
        <time>2021-02-27T11:29:11Z</time>
      </trkpt>
      <trkpt lat="42.98156" lon="0.53757">
        <ele>1544.416</ele>
        <time>2021-02-27T11:29:13Z</time>
      </trkpt>
      <trkpt lat="42.98156" lon="0.53757">
        <ele>1544.416</ele>
        <time>2021-02-27T11:29:15Z</time>
      </trkpt>
      <trkpt lat="42.98156" lon="0.53757">
        <ele>1544.417</ele>
        <time>2021-02-27T11:29:17Z</time>
      </trkpt>
      <trkpt lat="42.98156" lon="0.53757">
        <ele>1544.42</ele>
        <time>2021-02-27T11:29:19Z</time>
      </trkpt>
      <trkpt lat="42.98156" lon="0.53757">
        <ele>1544.422</ele>
        <time>2021-02-27T11:29:21Z</time>
      </trkpt>
      <trkpt lat="42.98156" lon="0.53757">
        <ele>1544.421</ele>
        <time>2021-02-27T11:29:23Z</time>
      </trkpt>
      <trkpt lat="42.98156" lon="0.53757">
        <ele>1544.42</ele>
        <time>2021-02-27T11:29:25Z</time>
      </trkpt>
      <trkpt lat="42.98156" lon="0.53757">
        <ele>1544.422</ele>
        <time>2021-02-27T11:29:27Z</time>
      </trkpt>
      <trkpt lat="42.98156" lon="0.53757">
        <ele>1544.431</ele>
        <time>2021-02-27T11:29:29Z</time>
      </trkpt>
      <trkpt lat="42.98156" lon="0.53757">
        <ele>1544.431</ele>
        <time>2021-02-27T11:29:31Z</time>
      </trkpt>
      <trkpt lat="42.98156" lon="0.53757">
        <ele>1544.43</ele>
        <time>2021-02-27T11:29:33Z</time>
      </trkpt>
      <trkpt lat="42.98156" lon="0.53757">
        <ele>1544.427</ele>
        <time>2021-02-27T11:29:35Z</time>
      </trkpt>
      <trkpt lat="42.98156" lon="0.53757">
        <ele>1544.427</ele>
        <time>2021-02-27T11:29:37Z</time>
      </trkpt>
      <trkpt lat="42.98156" lon="0.53757">
        <ele>1544.426</ele>
        <time>2021-02-27T11:29:39Z</time>
      </trkpt>
      <trkpt lat="42.98156" lon="0.53757">
        <ele>1544.426</ele>
        <time>2021-02-27T11:29:41Z</time>
      </trkpt>
      <trkpt lat="42.98156" lon="0.53757">
        <ele>1544.427</ele>
        <time>2021-02-27T11:29:43Z</time>
      </trkpt>
      <trkpt lat="42.98156" lon="0.53757">
        <ele>1544.426</ele>
        <time>2021-02-27T11:29:45Z</time>
      </trkpt>
      <trkpt lat="42.98156" lon="0.53757">
        <ele>1544.431</ele>
        <time>2021-02-27T11:29:47Z</time>
      </trkpt>
      <trkpt lat="42.98156" lon="0.53757">
        <ele>1544.434</ele>
        <time>2021-02-27T11:29:49Z</time>
      </trkpt>
      <trkpt lat="42.98156" lon="0.53757">
        <ele>1544.434</ele>
        <time>2021-02-27T11:29:51Z</time>
      </trkpt>
      <trkpt lat="42.98156" lon="0.53757">
        <ele>1544.436</ele>
        <time>2021-02-27T11:29:53Z</time>
      </trkpt>
      <trkpt lat="42.98156" lon="0.53757">
        <ele>1544.44</ele>
        <time>2021-02-27T11:29:55Z</time>
      </trkpt>
      <trkpt lat="42.98156" lon="0.53757">
        <ele>1544.448</ele>
        <time>2021-02-27T11:29:57Z</time>
      </trkpt>
      <trkpt lat="42.98156" lon="0.53757">
        <ele>1544.453</ele>
        <time>2021-02-27T11:29:59Z</time>
      </trkpt>
      <trkpt lat="42.98156" lon="0.53757">
        <ele>1544.457</ele>
        <time>2021-02-27T11:30:01Z</time>
      </trkpt>
      <trkpt lat="42.98156" lon="0.53757">
        <ele>1544.459</ele>
        <time>2021-02-27T11:30:03Z</time>
      </trkpt>
      <trkpt lat="42.98156" lon="0.53757">
        <ele>1544.462</ele>
        <time>2021-02-27T11:30:05Z</time>
      </trkpt>
      <trkpt lat="42.98156" lon="0.53757">
        <ele>1544.466</ele>
        <time>2021-02-27T11:30:07Z</time>
      </trkpt>
      <trkpt lat="42.98156" lon="0.53757">
        <ele>1544.473</ele>
        <time>2021-02-27T11:30:09Z</time>
      </trkpt>
      <trkpt lat="42.98156" lon="0.53757">
        <ele>1544.48</ele>
        <time>2021-02-27T11:30:11Z</time>
      </trkpt>
      <trkpt lat="42.98156" lon="0.53757">
        <ele>1544.483</ele>
        <time>2021-02-27T11:30:13Z</time>
      </trkpt>
      <trkpt lat="42.98156" lon="0.53757">
        <ele>1544.488</ele>
        <time>2021-02-27T11:30:15Z</time>
      </trkpt>
      <trkpt lat="42.98156" lon="0.53757">
        <ele>1544.486</ele>
        <time>2021-02-27T11:30:17Z</time>
      </trkpt>
      <trkpt lat="42.98156" lon="0.53757">
        <ele>1544.484</ele>
        <time>2021-02-27T11:30:19Z</time>
      </trkpt>
      <trkpt lat="42.98156" lon="0.53757">
        <ele>1544.481</ele>
        <time>2021-02-27T11:30:21Z</time>
      </trkpt>
      <trkpt lat="42.98156" lon="0.53757">
        <ele>1544.483</ele>
        <time>2021-02-27T11:30:23Z</time>
      </trkpt>
      <trkpt lat="42.98156" lon="0.53757">
        <ele>1544.486</ele>
        <time>2021-02-27T11:30:25Z</time>
      </trkpt>
      <trkpt lat="42.98156" lon="0.53757">
        <ele>1544.491</ele>
        <time>2021-02-27T11:30:27Z</time>
      </trkpt>
      <trkpt lat="42.98156" lon="0.53757">
        <ele>1544.49</ele>
        <time>2021-02-27T11:30:29Z</time>
      </trkpt>
      <trkpt lat="42.98156" lon="0.53757">
        <ele>1544.49</ele>
        <time>2021-02-27T11:30:31Z</time>
      </trkpt>
      <trkpt lat="42.98156" lon="0.53757">
        <ele>1544.49</ele>
        <time>2021-02-27T11:30:33Z</time>
      </trkpt>
      <trkpt lat="42.98156" lon="0.53757">
        <ele>1544.492</ele>
        <time>2021-02-27T11:30:35Z</time>
      </trkpt>
      <trkpt lat="42.98156" lon="0.53757">
        <ele>1544.492</ele>
        <time>2021-02-27T11:30:37Z</time>
      </trkpt>
      <trkpt lat="42.98156" lon="0.53757">
        <ele>1544.492</ele>
        <time>2021-02-27T11:30:39Z</time>
      </trkpt>
      <trkpt lat="42.98156" lon="0.53757">
        <ele>1544.495</ele>
        <time>2021-02-27T11:30:41Z</time>
      </trkpt>
      <trkpt lat="42.98156" lon="0.53757">
        <ele>1544.428</ele>
        <time>2021-02-27T11:30:43Z</time>
      </trkpt>
      <trkpt lat="42.98156" lon="0.53757">
        <ele>1544.251</ele>
        <time>2021-02-27T11:30:45Z</time>
      </trkpt>
      <trkpt lat="42.98154" lon="0.53759">
        <ele>1543.914</ele>
        <time>2021-02-27T11:30:47Z</time>
      </trkpt>
      <trkpt lat="42.98154" lon="0.53761">
        <ele>1544.103</ele>
        <time>2021-02-27T11:30:49Z</time>
      </trkpt>
      <trkpt lat="42.98155" lon="0.53762">
        <ele>1544.225</ele>
        <time>2021-02-27T11:30:51Z</time>
      </trkpt>
      <trkpt lat="42.98155" lon="0.53763">
        <ele>1544.229</ele>
        <time>2021-02-27T11:30:53Z</time>
      </trkpt>
      <trkpt lat="42.98155" lon="0.53763">
        <ele>1544.23</ele>
        <time>2021-02-27T11:30:55Z</time>
      </trkpt>
      <trkpt lat="42.98155" lon="0.53763">
        <ele>1544.23</ele>
        <time>2021-02-27T11:30:57Z</time>
      </trkpt>
      <trkpt lat="42.98155" lon="0.53763">
        <ele>1544.387</ele>
        <time>2021-02-27T11:30:59Z</time>
      </trkpt>
      <trkpt lat="42.98155" lon="0.53763">
        <ele>1544.414</ele>
        <time>2021-02-27T11:31:01Z</time>
      </trkpt>
      <trkpt lat="42.98154" lon="0.53762">
        <ele>1544.488</ele>
        <time>2021-02-27T11:31:03Z</time>
      </trkpt>
      <trkpt lat="42.98154" lon="0.5376">
        <ele>1544.496</ele>
        <time>2021-02-27T11:31:05Z</time>
      </trkpt>
      <trkpt lat="42.98154" lon="0.53759">
        <ele>1544.363</ele>
        <time>2021-02-27T11:31:07Z</time>
      </trkpt>
      <trkpt lat="42.98154" lon="0.53758">
        <ele>1544.228</ele>
        <time>2021-02-27T11:31:09Z</time>
      </trkpt>
      <trkpt lat="42.98154" lon="0.53757">
        <ele>1544.232</ele>
        <time>2021-02-27T11:31:11Z</time>
      </trkpt>
      <trkpt lat="42.98154" lon="0.53756">
        <ele>1544.38</ele>
        <time>2021-02-27T11:31:13Z</time>
      </trkpt>
      <trkpt lat="42.98154" lon="0.53756">
        <ele>1544.379</ele>
        <time>2021-02-27T11:31:15Z</time>
      </trkpt>
      <trkpt lat="42.98154" lon="0.53756">
        <ele>1544.376</ele>
        <time>2021-02-27T11:31:17Z</time>
      </trkpt>
      <trkpt lat="42.98154" lon="0.53756">
        <ele>1544.374</ele>
        <time>2021-02-27T11:31:19Z</time>
      </trkpt>
      <trkpt lat="42.98154" lon="0.53756">
        <ele>1544.375</ele>
        <time>2021-02-27T11:31:21Z</time>
      </trkpt>
      <trkpt lat="42.98154" lon="0.53756">
        <ele>1544.374</ele>
        <time>2021-02-27T11:31:23Z</time>
      </trkpt>
      <trkpt lat="42.98154" lon="0.53756">
        <ele>1544.375</ele>
        <time>2021-02-27T11:31:25Z</time>
      </trkpt>
      <trkpt lat="42.98154" lon="0.53756">
        <ele>1544.374</ele>
        <time>2021-02-27T11:31:27Z</time>
      </trkpt>
      <trkpt lat="42.98154" lon="0.53756">
        <ele>1544.374</ele>
        <time>2021-02-27T11:31:29Z</time>
      </trkpt>
      <trkpt lat="42.98154" lon="0.53756">
        <ele>1544.375</ele>
        <time>2021-02-27T11:31:31Z</time>
      </trkpt>
      <trkpt lat="42.98154" lon="0.53756">
        <ele>1544.373</ele>
        <time>2021-02-27T11:31:33Z</time>
      </trkpt>
      <trkpt lat="42.98154" lon="0.53756">
        <ele>1544.371</ele>
        <time>2021-02-27T11:31:35Z</time>
      </trkpt>
      <trkpt lat="42.98154" lon="0.53756">
        <ele>1544.369</ele>
        <time>2021-02-27T11:31:37Z</time>
      </trkpt>
      <trkpt lat="42.98154" lon="0.53756">
        <ele>1544.369</ele>
        <time>2021-02-27T11:31:39Z</time>
      </trkpt>
      <trkpt lat="42.98154" lon="0.53756">
        <ele>1544.435</ele>
        <time>2021-02-27T11:31:41Z</time>
      </trkpt>
      <trkpt lat="42.98154" lon="0.53756">
        <ele>1544.43</ele>
        <time>2021-02-27T11:31:43Z</time>
      </trkpt>
      <trkpt lat="42.98154" lon="0.53756">
        <ele>1544.432</ele>
        <time>2021-02-27T11:31:45Z</time>
      </trkpt>
      <trkpt lat="42.98154" lon="0.53756">
        <ele>1544.433</ele>
        <time>2021-02-27T11:31:47Z</time>
      </trkpt>
      <trkpt lat="42.98154" lon="0.53756">
        <ele>1544.429</ele>
        <time>2021-02-27T11:31:49Z</time>
      </trkpt>
      <trkpt lat="42.98154" lon="0.53756">
        <ele>1544.428</ele>
        <time>2021-02-27T11:31:51Z</time>
      </trkpt>
      <trkpt lat="42.98154" lon="0.53756">
        <ele>1544.277</ele>
        <time>2021-02-27T11:31:53Z</time>
      </trkpt>
      <trkpt lat="42.98154" lon="0.53756">
        <ele>1544.272</ele>
        <time>2021-02-27T11:31:55Z</time>
      </trkpt>
      <trkpt lat="42.98154" lon="0.53756">
        <ele>1544.267</ele>
        <time>2021-02-27T11:31:57Z</time>
      </trkpt>
      <trkpt lat="42.98154" lon="0.53756">
        <ele>1544.262</ele>
        <time>2021-02-27T11:31:59Z</time>
      </trkpt>
      <trkpt lat="42.98154" lon="0.53756">
        <ele>1544.262</ele>
        <time>2021-02-27T11:32:01Z</time>
      </trkpt>
      <trkpt lat="42.98154" lon="0.53756">
        <ele>1544.263</ele>
        <time>2021-02-27T11:32:03Z</time>
      </trkpt>
      <trkpt lat="42.98154" lon="0.53756">
        <ele>1544.26</ele>
        <time>2021-02-27T11:32:05Z</time>
      </trkpt>
      <trkpt lat="42.98154" lon="0.53756">
        <ele>1544.257</ele>
        <time>2021-02-27T11:32:07Z</time>
      </trkpt>
      <trkpt lat="42.98154" lon="0.53756">
        <ele>1544.259</ele>
        <time>2021-02-27T11:32:09Z</time>
      </trkpt>
      <trkpt lat="42.98154" lon="0.53756">
        <ele>1544.257</ele>
        <time>2021-02-27T11:32:11Z</time>
      </trkpt>
      <trkpt lat="42.98154" lon="0.53756">
        <ele>1544.255</ele>
        <time>2021-02-27T11:32:13Z</time>
      </trkpt>
      <trkpt lat="42.98154" lon="0.53756">
        <ele>1544.256</ele>
        <time>2021-02-27T11:32:15Z</time>
      </trkpt>
      <trkpt lat="42.98154" lon="0.53756">
        <ele>1544.253</ele>
        <time>2021-02-27T11:32:17Z</time>
      </trkpt>
      <trkpt lat="42.98154" lon="0.53756">
        <ele>1544.253</ele>
        <time>2021-02-27T11:32:19Z</time>
      </trkpt>
      <trkpt lat="42.98154" lon="0.53756">
        <ele>1544.255</ele>
        <time>2021-02-27T11:32:21Z</time>
      </trkpt>
      <trkpt lat="42.98154" lon="0.53756">
        <ele>1544.258</ele>
        <time>2021-02-27T11:32:23Z</time>
      </trkpt>
      <trkpt lat="42.98154" lon="0.53756">
        <ele>1544.26</ele>
        <time>2021-02-27T11:32:25Z</time>
      </trkpt>
      <trkpt lat="42.98154" lon="0.53756">
        <ele>1544.256</ele>
        <time>2021-02-27T11:32:27Z</time>
      </trkpt>
      <trkpt lat="42.98154" lon="0.53756">
        <ele>1544.253</ele>
        <time>2021-02-27T11:32:29Z</time>
      </trkpt>
      <trkpt lat="42.98154" lon="0.53756">
        <ele>1544.45</ele>
        <time>2021-02-27T11:32:31Z</time>
      </trkpt>
      <trkpt lat="42.98154" lon="0.53756">
        <ele>1544.446</ele>
        <time>2021-02-27T11:32:33Z</time>
      </trkpt>
      <trkpt lat="42.98154" lon="0.53756">
        <ele>1544.443</ele>
        <time>2021-02-27T11:32:35Z</time>
      </trkpt>
      <trkpt lat="42.98154" lon="0.53756">
        <ele>1544.439</ele>
        <time>2021-02-27T11:32:37Z</time>
      </trkpt>
      <trkpt lat="42.98154" lon="0.53756">
        <ele>1544.284</ele>
        <time>2021-02-27T11:32:39Z</time>
      </trkpt>
      <trkpt lat="42.98154" lon="0.53756">
        <ele>1544.285</ele>
        <time>2021-02-27T11:32:41Z</time>
      </trkpt>
      <trkpt lat="42.98154" lon="0.53756">
        <ele>1544.284</ele>
        <time>2021-02-27T11:32:43Z</time>
      </trkpt>
      <trkpt lat="42.98154" lon="0.53756">
        <ele>1544.284</ele>
        <time>2021-02-27T11:32:45Z</time>
      </trkpt>
      <trkpt lat="42.98154" lon="0.53756">
        <ele>1544.282</ele>
        <time>2021-02-27T11:32:47Z</time>
      </trkpt>
      <trkpt lat="42.98154" lon="0.53756">
        <ele>1544.282</ele>
        <time>2021-02-27T11:32:49Z</time>
      </trkpt>
      <trkpt lat="42.98154" lon="0.53756">
        <ele>1544.281</ele>
        <time>2021-02-27T11:32:51Z</time>
      </trkpt>
      <trkpt lat="42.98154" lon="0.53756">
        <ele>1544.28</ele>
        <time>2021-02-27T11:32:53Z</time>
      </trkpt>
      <trkpt lat="42.98154" lon="0.53756">
        <ele>1544.279</ele>
        <time>2021-02-27T11:32:55Z</time>
      </trkpt>
      <trkpt lat="42.98154" lon="0.53756">
        <ele>1544.278</ele>
        <time>2021-02-27T11:32:57Z</time>
      </trkpt>
      <trkpt lat="42.98154" lon="0.53756">
        <ele>1544.279</ele>
        <time>2021-02-27T11:32:59Z</time>
      </trkpt>
      <trkpt lat="42.98154" lon="0.53756">
        <ele>1544.282</ele>
        <time>2021-02-27T11:33:01Z</time>
      </trkpt>
      <trkpt lat="42.98154" lon="0.53756">
        <ele>1544.282</ele>
        <time>2021-02-27T11:33:03Z</time>
      </trkpt>
      <trkpt lat="42.98154" lon="0.53756">
        <ele>1544.284</ele>
        <time>2021-02-27T11:33:05Z</time>
      </trkpt>
      <trkpt lat="42.98154" lon="0.53756">
        <ele>1544.288</ele>
        <time>2021-02-27T11:33:07Z</time>
      </trkpt>
      <trkpt lat="42.98154" lon="0.53756">
        <ele>1544.29</ele>
        <time>2021-02-27T11:33:09Z</time>
      </trkpt>
      <trkpt lat="42.98154" lon="0.53756">
        <ele>1544.29</ele>
        <time>2021-02-27T11:33:11Z</time>
      </trkpt>
      <trkpt lat="42.98154" lon="0.53756">
        <ele>1544.289</ele>
        <time>2021-02-27T11:33:13Z</time>
      </trkpt>
      <trkpt lat="42.98154" lon="0.53756">
        <ele>1544.289</ele>
        <time>2021-02-27T11:33:15Z</time>
      </trkpt>
      <trkpt lat="42.98155" lon="0.53757">
        <ele>1544.11</ele>
        <time>2021-02-27T11:33:17Z</time>
      </trkpt>
      <trkpt lat="42.98155" lon="0.53757">
        <ele>1544.207</ele>
        <time>2021-02-27T11:33:19Z</time>
      </trkpt>
      <trkpt lat="42.98155" lon="0.53757">
        <ele>1544.21</ele>
        <time>2021-02-27T11:33:21Z</time>
      </trkpt>
      <trkpt lat="42.98155" lon="0.53757">
        <ele>1544.214</ele>
        <time>2021-02-27T11:33:23Z</time>
      </trkpt>
      <trkpt lat="42.98155" lon="0.53757">
        <ele>1544.216</ele>
        <time>2021-02-27T11:33:25Z</time>
      </trkpt>
      <trkpt lat="42.98155" lon="0.53757">
        <ele>1544.215</ele>
        <time>2021-02-27T11:33:27Z</time>
      </trkpt>
      <trkpt lat="42.98155" lon="0.53757">
        <ele>1544.214</ele>
        <time>2021-02-27T11:33:29Z</time>
      </trkpt>
      <trkpt lat="42.98155" lon="0.53757">
        <ele>1544.215</ele>
        <time>2021-02-27T11:33:31Z</time>
      </trkpt>
      <trkpt lat="42.98155" lon="0.53757">
        <ele>1544.212</ele>
        <time>2021-02-27T11:33:33Z</time>
      </trkpt>
      <trkpt lat="42.98155" lon="0.53757">
        <ele>1544.21</ele>
        <time>2021-02-27T11:33:35Z</time>
      </trkpt>
      <trkpt lat="42.98155" lon="0.53757">
        <ele>1544.209</ele>
        <time>2021-02-27T11:33:37Z</time>
      </trkpt>
      <trkpt lat="42.98155" lon="0.53757">
        <ele>1544.21</ele>
        <time>2021-02-27T11:33:39Z</time>
      </trkpt>
      <trkpt lat="42.98155" lon="0.53757">
        <ele>1544.212</ele>
        <time>2021-02-27T11:33:41Z</time>
      </trkpt>
      <trkpt lat="42.98155" lon="0.53757">
        <ele>1544.214</ele>
        <time>2021-02-27T11:33:43Z</time>
      </trkpt>
      <trkpt lat="42.98155" lon="0.53757">
        <ele>1544.214</ele>
        <time>2021-02-27T11:33:45Z</time>
      </trkpt>
      <trkpt lat="42.98155" lon="0.53757">
        <ele>1544.214</ele>
        <time>2021-02-27T11:33:47Z</time>
      </trkpt>
      <trkpt lat="42.98155" lon="0.53757">
        <ele>1544.214</ele>
        <time>2021-02-27T11:33:49Z</time>
      </trkpt>
      <trkpt lat="42.98155" lon="0.53757">
        <ele>1544.218</ele>
        <time>2021-02-27T11:33:51Z</time>
      </trkpt>
      <trkpt lat="42.98155" lon="0.53757">
        <ele>1544.661</ele>
        <time>2021-02-27T11:33:53Z</time>
      </trkpt>
      <trkpt lat="42.98156" lon="0.53757">
        <ele>1544.267</ele>
        <time>2021-02-27T11:33:55Z</time>
      </trkpt>
      <trkpt lat="42.98157" lon="0.53757">
        <ele>1544.529</ele>
        <time>2021-02-27T11:33:57Z</time>
      </trkpt>
      <trkpt lat="42.98157" lon="0.53757">
        <ele>1544.481</ele>
        <time>2021-02-27T11:33:59Z</time>
      </trkpt>
      <trkpt lat="42.98158" lon="0.53757">
        <ele>1544.444</ele>
        <time>2021-02-27T11:34:01Z</time>
      </trkpt>
      <trkpt lat="42.98158" lon="0.53757">
        <ele>1544.435</ele>
        <time>2021-02-27T11:34:03Z</time>
      </trkpt>
      <trkpt lat="42.98158" lon="0.53757">
        <ele>1544.233</ele>
        <time>2021-02-27T11:34:05Z</time>
      </trkpt>
      <trkpt lat="42.98157" lon="0.53759">
        <ele>1544.005</ele>
        <time>2021-02-27T11:34:07Z</time>
      </trkpt>
      <trkpt lat="42.98157" lon="0.5376">
        <ele>1544.139</ele>
        <time>2021-02-27T11:34:09Z</time>
      </trkpt>
      <trkpt lat="42.98157" lon="0.5376">
        <ele>1544.139</ele>
        <time>2021-02-27T11:34:11Z</time>
      </trkpt>
      <trkpt lat="42.98157" lon="0.5376">
        <ele>1544.085</ele>
        <time>2021-02-27T11:34:13Z</time>
      </trkpt>
      <trkpt lat="42.98157" lon="0.5376">
        <ele>1544.082</ele>
        <time>2021-02-27T11:34:15Z</time>
      </trkpt>
      <trkpt lat="42.98157" lon="0.5376">
        <ele>1544.078</ele>
        <time>2021-02-27T11:34:17Z</time>
      </trkpt>
      <trkpt lat="42.98157" lon="0.5376">
        <ele>1544.076</ele>
        <time>2021-02-27T11:34:19Z</time>
      </trkpt>
      <trkpt lat="42.98156" lon="0.5376">
        <ele>1544.162</ele>
        <time>2021-02-27T11:34:21Z</time>
      </trkpt>
      <trkpt lat="42.98155" lon="0.5376">
        <ele>1544.019</ele>
        <time>2021-02-27T11:34:23Z</time>
      </trkpt>
      <trkpt lat="42.98155" lon="0.5376">
        <ele>1543.767</ele>
        <time>2021-02-27T11:34:25Z</time>
      </trkpt>
      <trkpt lat="42.98155" lon="0.5376">
        <ele>1543.751</ele>
        <time>2021-02-27T11:34:27Z</time>
      </trkpt>
      <trkpt lat="42.98155" lon="0.5376">
        <ele>1543.748</ele>
        <time>2021-02-27T11:34:29Z</time>
      </trkpt>
      <trkpt lat="42.98155" lon="0.5376">
        <ele>1543.747</ele>
        <time>2021-02-27T11:34:31Z</time>
      </trkpt>
      <trkpt lat="42.98155" lon="0.5376">
        <ele>1543.743</ele>
        <time>2021-02-27T11:34:33Z</time>
      </trkpt>
      <trkpt lat="42.98155" lon="0.5376">
        <ele>1543.74</ele>
        <time>2021-02-27T11:34:35Z</time>
      </trkpt>
      <trkpt lat="42.98155" lon="0.5376">
        <ele>1543.736</ele>
        <time>2021-02-27T11:34:37Z</time>
      </trkpt>
      <trkpt lat="42.98155" lon="0.5376">
        <ele>1543.735</ele>
        <time>2021-02-27T11:34:39Z</time>
      </trkpt>
      <trkpt lat="42.98155" lon="0.5376">
        <ele>1543.736</ele>
        <time>2021-02-27T11:34:41Z</time>
      </trkpt>
      <trkpt lat="42.98155" lon="0.5376">
        <ele>1543.733</ele>
        <time>2021-02-27T11:34:43Z</time>
      </trkpt>
      <trkpt lat="42.98155" lon="0.5376">
        <ele>1543.732</ele>
        <time>2021-02-27T11:34:45Z</time>
      </trkpt>
      <trkpt lat="42.98155" lon="0.5376">
        <ele>1543.731</ele>
        <time>2021-02-27T11:34:47Z</time>
      </trkpt>
      <trkpt lat="42.98155" lon="0.5376">
        <ele>1543.86</ele>
        <time>2021-02-27T11:34:49Z</time>
      </trkpt>
      <trkpt lat="42.98155" lon="0.5376">
        <ele>1543.859</ele>
        <time>2021-02-27T11:34:51Z</time>
      </trkpt>
      <trkpt lat="42.98155" lon="0.5376">
        <ele>1543.608</ele>
        <time>2021-02-27T11:34:53Z</time>
      </trkpt>
      <trkpt lat="42.98155" lon="0.5376">
        <ele>1543.594</ele>
        <time>2021-02-27T11:34:55Z</time>
      </trkpt>
      <trkpt lat="42.98155" lon="0.5376">
        <ele>1543.584</ele>
        <time>2021-02-27T11:34:57Z</time>
      </trkpt>
      <trkpt lat="42.98155" lon="0.5376">
        <ele>1543.579</ele>
        <time>2021-02-27T11:34:59Z</time>
      </trkpt>
      <trkpt lat="42.98155" lon="0.5376">
        <ele>1543.573</ele>
        <time>2021-02-27T11:35:01Z</time>
      </trkpt>
      <trkpt lat="42.98155" lon="0.5376">
        <ele>1543.57</ele>
        <time>2021-02-27T11:35:03Z</time>
      </trkpt>
      <trkpt lat="42.98155" lon="0.5376">
        <ele>1543.568</ele>
        <time>2021-02-27T11:35:05Z</time>
      </trkpt>
      <trkpt lat="42.98155" lon="0.5376">
        <ele>1543.568</ele>
        <time>2021-02-27T11:35:07Z</time>
      </trkpt>
      <trkpt lat="42.98155" lon="0.5376">
        <ele>1543.568</ele>
        <time>2021-02-27T11:35:09Z</time>
      </trkpt>
      <trkpt lat="42.98155" lon="0.5376">
        <ele>1543.568</ele>
        <time>2021-02-27T11:35:11Z</time>
      </trkpt>
      <trkpt lat="42.98155" lon="0.5376">
        <ele>1543.568</ele>
        <time>2021-02-27T11:35:13Z</time>
      </trkpt>
      <trkpt lat="42.98155" lon="0.5376">
        <ele>1543.566</ele>
        <time>2021-02-27T11:35:15Z</time>
      </trkpt>
      <trkpt lat="42.98155" lon="0.5376">
        <ele>1543.562</ele>
        <time>2021-02-27T11:35:17Z</time>
      </trkpt>
      <trkpt lat="42.98155" lon="0.5376">
        <ele>1543.554</ele>
        <time>2021-02-27T11:35:19Z</time>
      </trkpt>
      <trkpt lat="42.98155" lon="0.5376">
        <ele>1543.549</ele>
        <time>2021-02-27T11:35:21Z</time>
      </trkpt>
      <trkpt lat="42.98155" lon="0.5376">
        <ele>1543.547</ele>
        <time>2021-02-27T11:35:23Z</time>
      </trkpt>
      <trkpt lat="42.98155" lon="0.5376">
        <ele>1543.548</ele>
        <time>2021-02-27T11:35:25Z</time>
      </trkpt>
      <trkpt lat="42.98155" lon="0.5376">
        <ele>1543.545</ele>
        <time>2021-02-27T11:35:27Z</time>
      </trkpt>
      <trkpt lat="42.98155" lon="0.5376">
        <ele>1543.546</ele>
        <time>2021-02-27T11:35:29Z</time>
      </trkpt>
      <trkpt lat="42.98155" lon="0.5376">
        <ele>1543.545</ele>
        <time>2021-02-27T11:35:31Z</time>
      </trkpt>
      <trkpt lat="42.98155" lon="0.5376">
        <ele>1543.545</ele>
        <time>2021-02-27T11:35:33Z</time>
      </trkpt>
      <trkpt lat="42.98155" lon="0.5376">
        <ele>1543.544</ele>
        <time>2021-02-27T11:35:35Z</time>
      </trkpt>
      <trkpt lat="42.98155" lon="0.5376">
        <ele>1543.545</ele>
        <time>2021-02-27T11:35:37Z</time>
      </trkpt>
      <trkpt lat="42.98155" lon="0.5376">
        <ele>1543.551</ele>
        <time>2021-02-27T11:35:39Z</time>
      </trkpt>
      <trkpt lat="42.98155" lon="0.5376">
        <ele>1543.554</ele>
        <time>2021-02-27T11:35:41Z</time>
      </trkpt>
      <trkpt lat="42.98155" lon="0.5376">
        <ele>1543.555</ele>
        <time>2021-02-27T11:35:43Z</time>
      </trkpt>
      <trkpt lat="42.98155" lon="0.5376">
        <ele>1543.558</ele>
        <time>2021-02-27T11:35:45Z</time>
      </trkpt>
      <trkpt lat="42.98155" lon="0.5376">
        <ele>1543.559</ele>
        <time>2021-02-27T11:35:47Z</time>
      </trkpt>
      <trkpt lat="42.98155" lon="0.5376">
        <ele>1543.56</ele>
        <time>2021-02-27T11:35:49Z</time>
      </trkpt>
      <trkpt lat="42.98155" lon="0.5376">
        <ele>1543.559</ele>
        <time>2021-02-27T11:35:51Z</time>
      </trkpt>
      <trkpt lat="42.98155" lon="0.5376">
        <ele>1543.555</ele>
        <time>2021-02-27T11:35:53Z</time>
      </trkpt>
      <trkpt lat="42.98155" lon="0.5376">
        <ele>1543.55</ele>
        <time>2021-02-27T11:35:55Z</time>
      </trkpt>
      <trkpt lat="42.98155" lon="0.5376">
        <ele>1543.545</ele>
        <time>2021-02-27T11:35:57Z</time>
      </trkpt>
      <trkpt lat="42.98155" lon="0.5376">
        <ele>1543.542</ele>
        <time>2021-02-27T11:35:59Z</time>
      </trkpt>
      <trkpt lat="42.98156" lon="0.5376">
        <ele>1543.381</ele>
        <time>2021-02-27T11:36:01Z</time>
      </trkpt>
      <trkpt lat="42.98156" lon="0.5376">
        <ele>1543.365</ele>
        <time>2021-02-27T11:36:03Z</time>
      </trkpt>
      <trkpt lat="42.98156" lon="0.5376">
        <ele>1543.357</ele>
        <time>2021-02-27T11:36:05Z</time>
      </trkpt>
      <trkpt lat="42.98156" lon="0.5376">
        <ele>1543.351</ele>
        <time>2021-02-27T11:36:07Z</time>
      </trkpt>
      <trkpt lat="42.98156" lon="0.5376">
        <ele>1543.347</ele>
        <time>2021-02-27T11:36:09Z</time>
      </trkpt>
      <trkpt lat="42.98156" lon="0.5376">
        <ele>1543.342</ele>
        <time>2021-02-27T11:36:11Z</time>
      </trkpt>
      <trkpt lat="42.98156" lon="0.5376">
        <ele>1543.338</ele>
        <time>2021-02-27T11:36:13Z</time>
      </trkpt>
      <trkpt lat="42.98156" lon="0.5376">
        <ele>1543.337</ele>
        <time>2021-02-27T11:36:15Z</time>
      </trkpt>
      <trkpt lat="42.98156" lon="0.5376">
        <ele>1543.335</ele>
        <time>2021-02-27T11:36:17Z</time>
      </trkpt>
      <trkpt lat="42.98156" lon="0.5376">
        <ele>1543.333</ele>
        <time>2021-02-27T11:36:19Z</time>
      </trkpt>
      <trkpt lat="42.98156" lon="0.5376">
        <ele>1543.331</ele>
        <time>2021-02-27T11:36:21Z</time>
      </trkpt>
      <trkpt lat="42.98156" lon="0.5376">
        <ele>1543.329</ele>
        <time>2021-02-27T11:36:23Z</time>
      </trkpt>
      <trkpt lat="42.98156" lon="0.5376">
        <ele>1543.328</ele>
        <time>2021-02-27T11:36:25Z</time>
      </trkpt>
      <trkpt lat="42.98156" lon="0.5376">
        <ele>1543.325</ele>
        <time>2021-02-27T11:36:27Z</time>
      </trkpt>
      <trkpt lat="42.98156" lon="0.5376">
        <ele>1543.324</ele>
        <time>2021-02-27T11:36:29Z</time>
      </trkpt>
      <trkpt lat="42.98156" lon="0.53759">
        <ele>1543.324</ele>
        <time>2021-02-27T11:36:31Z</time>
      </trkpt>
      <trkpt lat="42.98156" lon="0.53759">
        <ele>1543.322</ele>
        <time>2021-02-27T11:36:33Z</time>
      </trkpt>
      <trkpt lat="42.98156" lon="0.53759">
        <ele>1543.322</ele>
        <time>2021-02-27T11:36:35Z</time>
      </trkpt>
      <trkpt lat="42.98156" lon="0.53759">
        <ele>1543.321</ele>
        <time>2021-02-27T11:36:37Z</time>
      </trkpt>
      <trkpt lat="42.98156" lon="0.53759">
        <ele>1543.321</ele>
        <time>2021-02-27T11:36:39Z</time>
      </trkpt>
      <trkpt lat="42.98156" lon="0.53759">
        <ele>1543.321</ele>
        <time>2021-02-27T11:36:41Z</time>
      </trkpt>
      <trkpt lat="42.98156" lon="0.53759">
        <ele>1543.32</ele>
        <time>2021-02-27T11:36:43Z</time>
      </trkpt>
      <trkpt lat="42.98156" lon="0.53759">
        <ele>1543.319</ele>
        <time>2021-02-27T11:36:45Z</time>
      </trkpt>
      <trkpt lat="42.98156" lon="0.53759">
        <ele>1543.319</ele>
        <time>2021-02-27T11:36:47Z</time>
      </trkpt>
      <trkpt lat="42.98156" lon="0.53759">
        <ele>1543.318</ele>
        <time>2021-02-27T11:36:49Z</time>
      </trkpt>
      <trkpt lat="42.98156" lon="0.53759">
        <ele>1543.318</ele>
        <time>2021-02-27T11:36:51Z</time>
      </trkpt>
      <trkpt lat="42.98156" lon="0.53759">
        <ele>1543.317</ele>
        <time>2021-02-27T11:36:53Z</time>
      </trkpt>
      <trkpt lat="42.98156" lon="0.53759">
        <ele>1543.318</ele>
        <time>2021-02-27T11:36:55Z</time>
      </trkpt>
      <trkpt lat="42.98156" lon="0.53759">
        <ele>1543.319</ele>
        <time>2021-02-27T11:36:57Z</time>
      </trkpt>
      <trkpt lat="42.98156" lon="0.53759">
        <ele>1543.317</ele>
        <time>2021-02-27T11:36:59Z</time>
      </trkpt>
      <trkpt lat="42.98156" lon="0.53759">
        <ele>1543.317</ele>
        <time>2021-02-27T11:37:01Z</time>
      </trkpt>
      <trkpt lat="42.98156" lon="0.53759">
        <ele>1543.315</ele>
        <time>2021-02-27T11:37:03Z</time>
      </trkpt>
      <trkpt lat="42.98156" lon="0.53759">
        <ele>1543.314</ele>
        <time>2021-02-27T11:37:05Z</time>
      </trkpt>
      <trkpt lat="42.98156" lon="0.53759">
        <ele>1543.314</ele>
        <time>2021-02-27T11:37:07Z</time>
      </trkpt>
      <trkpt lat="42.98156" lon="0.53759">
        <ele>1543.315</ele>
        <time>2021-02-27T11:37:09Z</time>
      </trkpt>
      <trkpt lat="42.98156" lon="0.53759">
        <ele>1543.314</ele>
        <time>2021-02-27T11:37:11Z</time>
      </trkpt>
      <trkpt lat="42.98156" lon="0.53759">
        <ele>1543.313</ele>
        <time>2021-02-27T11:37:13Z</time>
      </trkpt>
      <trkpt lat="42.98156" lon="0.53759">
        <ele>1543.312</ele>
        <time>2021-02-27T11:37:15Z</time>
      </trkpt>
      <trkpt lat="42.98156" lon="0.53759">
        <ele>1543.312</ele>
        <time>2021-02-27T11:37:17Z</time>
      </trkpt>
      <trkpt lat="42.98156" lon="0.53759">
        <ele>1543.311</ele>
        <time>2021-02-27T11:37:19Z</time>
      </trkpt>
      <trkpt lat="42.98156" lon="0.53759">
        <ele>1543.312</ele>
        <time>2021-02-27T11:37:21Z</time>
      </trkpt>
      <trkpt lat="42.98156" lon="0.53759">
        <ele>1543.311</ele>
        <time>2021-02-27T11:37:23Z</time>
      </trkpt>
      <trkpt lat="42.98156" lon="0.53759">
        <ele>1543.31</ele>
        <time>2021-02-27T11:37:25Z</time>
      </trkpt>
      <trkpt lat="42.98156" lon="0.53759">
        <ele>1543.308</ele>
        <time>2021-02-27T11:37:27Z</time>
      </trkpt>
      <trkpt lat="42.98156" lon="0.53759">
        <ele>1543.308</ele>
        <time>2021-02-27T11:37:29Z</time>
      </trkpt>
      <trkpt lat="42.98156" lon="0.53759">
        <ele>1543.31</ele>
        <time>2021-02-27T11:37:31Z</time>
      </trkpt>
      <trkpt lat="42.98156" lon="0.53759">
        <ele>1543.311</ele>
        <time>2021-02-27T11:37:33Z</time>
      </trkpt>
      <trkpt lat="42.98156" lon="0.53759">
        <ele>1543.311</ele>
        <time>2021-02-27T11:37:35Z</time>
      </trkpt>
      <trkpt lat="42.98156" lon="0.53759">
        <ele>1543.311</ele>
        <time>2021-02-27T11:37:37Z</time>
      </trkpt>
      <trkpt lat="42.98156" lon="0.53759">
        <ele>1543.311</ele>
        <time>2021-02-27T11:37:39Z</time>
      </trkpt>
      <trkpt lat="42.98156" lon="0.53759">
        <ele>1543.31</ele>
        <time>2021-02-27T11:37:41Z</time>
      </trkpt>
      <trkpt lat="42.98156" lon="0.53759">
        <ele>1543.313</ele>
        <time>2021-02-27T11:37:43Z</time>
      </trkpt>
      <trkpt lat="42.98156" lon="0.53759">
        <ele>1543.312</ele>
        <time>2021-02-27T11:37:45Z</time>
      </trkpt>
      <trkpt lat="42.98156" lon="0.53759">
        <ele>1543.312</ele>
        <time>2021-02-27T11:37:47Z</time>
      </trkpt>
      <trkpt lat="42.98156" lon="0.53759">
        <ele>1543.31</ele>
        <time>2021-02-27T11:37:49Z</time>
      </trkpt>
      <trkpt lat="42.98156" lon="0.53759">
        <ele>1543.309</ele>
        <time>2021-02-27T11:37:51Z</time>
      </trkpt>
      <trkpt lat="42.98156" lon="0.53759">
        <ele>1543.309</ele>
        <time>2021-02-27T11:37:53Z</time>
      </trkpt>
      <trkpt lat="42.98156" lon="0.5376">
        <ele>1543.362</ele>
        <time>2021-02-27T11:37:55Z</time>
      </trkpt>
      <trkpt lat="42.98156" lon="0.5376">
        <ele>1543.37</ele>
        <time>2021-02-27T11:37:57Z</time>
      </trkpt>
      <trkpt lat="42.98156" lon="0.5376">
        <ele>1543.376</ele>
        <time>2021-02-27T11:37:59Z</time>
      </trkpt>
      <trkpt lat="42.98156" lon="0.5376">
        <ele>1543.381</ele>
        <time>2021-02-27T11:38:01Z</time>
      </trkpt>
      <trkpt lat="42.98156" lon="0.5376">
        <ele>1543.381</ele>
        <time>2021-02-27T11:38:03Z</time>
      </trkpt>
      <trkpt lat="42.98156" lon="0.5376">
        <ele>1543.381</ele>
        <time>2021-02-27T11:38:05Z</time>
      </trkpt>
      <trkpt lat="42.98156" lon="0.5376">
        <ele>1543.386</ele>
        <time>2021-02-27T11:38:07Z</time>
      </trkpt>
      <trkpt lat="42.98156" lon="0.5376">
        <ele>1543.385</ele>
        <time>2021-02-27T11:38:09Z</time>
      </trkpt>
      <trkpt lat="42.98156" lon="0.5376">
        <ele>1543.385</ele>
        <time>2021-02-27T11:38:11Z</time>
      </trkpt>
      <trkpt lat="42.98156" lon="0.5376">
        <ele>1543.382</ele>
        <time>2021-02-27T11:38:13Z</time>
      </trkpt>
      <trkpt lat="42.98156" lon="0.5376">
        <ele>1543.802</ele>
        <time>2021-02-27T11:38:15Z</time>
      </trkpt>
      <trkpt lat="42.98156" lon="0.5376">
        <ele>1543.725</ele>
        <time>2021-02-27T11:38:17Z</time>
      </trkpt>
      <trkpt lat="42.98156" lon="0.5376">
        <ele>1543.303</ele>
        <time>2021-02-27T11:38:19Z</time>
      </trkpt>
      <trkpt lat="42.98155" lon="0.5376">
        <ele>1543.302</ele>
        <time>2021-02-27T11:38:21Z</time>
      </trkpt>
      <trkpt lat="42.98155" lon="0.5376">
        <ele>1543.299</ele>
        <time>2021-02-27T11:38:23Z</time>
      </trkpt>
      <trkpt lat="42.98155" lon="0.53761">
        <ele>1543.475</ele>
        <time>2021-02-27T11:38:25Z</time>
      </trkpt>
      <trkpt lat="42.98155" lon="0.53761">
        <ele>1543.611</ele>
        <time>2021-02-27T11:38:27Z</time>
      </trkpt>
      <trkpt lat="42.98155" lon="0.53761">
        <ele>1543.62</ele>
        <time>2021-02-27T11:38:29Z</time>
      </trkpt>
      <trkpt lat="42.98155" lon="0.53761">
        <ele>1543.621</ele>
        <time>2021-02-27T11:38:31Z</time>
      </trkpt>
      <trkpt lat="42.98155" lon="0.53761">
        <ele>1543.623</ele>
        <time>2021-02-27T11:38:33Z</time>
      </trkpt>
      <trkpt lat="42.98155" lon="0.53761">
        <ele>1543.625</ele>
        <time>2021-02-27T11:38:35Z</time>
      </trkpt>
      <trkpt lat="42.98155" lon="0.53761">
        <ele>1543.626</ele>
        <time>2021-02-27T11:38:37Z</time>
      </trkpt>
      <trkpt lat="42.98155" lon="0.53761">
        <ele>1543.626</ele>
        <time>2021-02-27T11:38:39Z</time>
      </trkpt>
      <trkpt lat="42.98155" lon="0.53761">
        <ele>1543.626</ele>
        <time>2021-02-27T11:38:41Z</time>
      </trkpt>
      <trkpt lat="42.98155" lon="0.53761">
        <ele>1543.626</ele>
        <time>2021-02-27T11:38:43Z</time>
      </trkpt>
      <trkpt lat="42.98155" lon="0.53761">
        <ele>1543.624</ele>
        <time>2021-02-27T11:38:45Z</time>
      </trkpt>
      <trkpt lat="42.98155" lon="0.53761">
        <ele>1543.623</ele>
        <time>2021-02-27T11:38:47Z</time>
      </trkpt>
      <trkpt lat="42.98155" lon="0.53761">
        <ele>1543.621</ele>
        <time>2021-02-27T11:38:49Z</time>
      </trkpt>
      <trkpt lat="42.98155" lon="0.53761">
        <ele>1543.621</ele>
        <time>2021-02-27T11:38:51Z</time>
      </trkpt>
      <trkpt lat="42.98155" lon="0.53761">
        <ele>1543.621</ele>
        <time>2021-02-27T11:38:53Z</time>
      </trkpt>
      <trkpt lat="42.98155" lon="0.53761">
        <ele>1543.62</ele>
        <time>2021-02-27T11:38:55Z</time>
      </trkpt>
      <trkpt lat="42.98155" lon="0.53761">
        <ele>1543.621</ele>
        <time>2021-02-27T11:38:57Z</time>
      </trkpt>
      <trkpt lat="42.98155" lon="0.53761">
        <ele>1543.62</ele>
        <time>2021-02-27T11:38:59Z</time>
      </trkpt>
      <trkpt lat="42.98155" lon="0.53761">
        <ele>1543.618</ele>
        <time>2021-02-27T11:39:01Z</time>
      </trkpt>
      <trkpt lat="42.98155" lon="0.53761">
        <ele>1543.616</ele>
        <time>2021-02-27T11:39:03Z</time>
      </trkpt>
      <trkpt lat="42.98155" lon="0.53761">
        <ele>1543.619</ele>
        <time>2021-02-27T11:39:05Z</time>
      </trkpt>
      <trkpt lat="42.98155" lon="0.53761">
        <ele>1543.62</ele>
        <time>2021-02-27T11:39:07Z</time>
      </trkpt>
      <trkpt lat="42.98155" lon="0.53761">
        <ele>1543.621</ele>
        <time>2021-02-27T11:39:09Z</time>
      </trkpt>
      <trkpt lat="42.98155" lon="0.53761">
        <ele>1543.622</ele>
        <time>2021-02-27T11:39:11Z</time>
      </trkpt>
      <trkpt lat="42.98155" lon="0.53761">
        <ele>1543.62</ele>
        <time>2021-02-27T11:39:13Z</time>
      </trkpt>
      <trkpt lat="42.98155" lon="0.53761">
        <ele>1543.618</ele>
        <time>2021-02-27T11:39:15Z</time>
      </trkpt>
      <trkpt lat="42.98155" lon="0.53761">
        <ele>1543.618</ele>
        <time>2021-02-27T11:39:17Z</time>
      </trkpt>
      <trkpt lat="42.98155" lon="0.53761">
        <ele>1543.62</ele>
        <time>2021-02-27T11:39:19Z</time>
      </trkpt>
      <trkpt lat="42.98155" lon="0.53761">
        <ele>1543.619</ele>
        <time>2021-02-27T11:39:21Z</time>
      </trkpt>
      <trkpt lat="42.98155" lon="0.53761">
        <ele>1543.615</ele>
        <time>2021-02-27T11:39:23Z</time>
      </trkpt>
      <trkpt lat="42.98155" lon="0.53761">
        <ele>1543.611</ele>
        <time>2021-02-27T11:39:25Z</time>
      </trkpt>
      <trkpt lat="42.98155" lon="0.53761">
        <ele>1543.606</ele>
        <time>2021-02-27T11:39:27Z</time>
      </trkpt>
      <trkpt lat="42.98155" lon="0.53761">
        <ele>1543.602</ele>
        <time>2021-02-27T11:39:29Z</time>
      </trkpt>
      <trkpt lat="42.98155" lon="0.53761">
        <ele>1543.6</ele>
        <time>2021-02-27T11:39:31Z</time>
      </trkpt>
      <trkpt lat="42.98155" lon="0.53761">
        <ele>1543.597</ele>
        <time>2021-02-27T11:39:33Z</time>
      </trkpt>
      <trkpt lat="42.98155" lon="0.53761">
        <ele>1543.595</ele>
        <time>2021-02-27T11:39:35Z</time>
      </trkpt>
      <trkpt lat="42.98155" lon="0.53761">
        <ele>1543.595</ele>
        <time>2021-02-27T11:39:37Z</time>
      </trkpt>
      <trkpt lat="42.98155" lon="0.53761">
        <ele>1543.596</ele>
        <time>2021-02-27T11:39:39Z</time>
      </trkpt>
      <trkpt lat="42.98155" lon="0.53761">
        <ele>1543.596</ele>
        <time>2021-02-27T11:39:41Z</time>
      </trkpt>
      <trkpt lat="42.98155" lon="0.53761">
        <ele>1543.596</ele>
        <time>2021-02-27T11:39:43Z</time>
      </trkpt>
      <trkpt lat="42.98155" lon="0.53761">
        <ele>1543.596</ele>
        <time>2021-02-27T11:39:45Z</time>
      </trkpt>
      <trkpt lat="42.98155" lon="0.53761">
        <ele>1543.593</ele>
        <time>2021-02-27T11:39:47Z</time>
      </trkpt>
      <trkpt lat="42.98155" lon="0.53761">
        <ele>1543.591</ele>
        <time>2021-02-27T11:39:49Z</time>
      </trkpt>
      <trkpt lat="42.98155" lon="0.53761">
        <ele>1543.589</ele>
        <time>2021-02-27T11:39:51Z</time>
      </trkpt>
      <trkpt lat="42.98155" lon="0.53761">
        <ele>1543.589</ele>
        <time>2021-02-27T11:39:53Z</time>
      </trkpt>
      <trkpt lat="42.98155" lon="0.53761">
        <ele>1543.588</ele>
        <time>2021-02-27T11:39:55Z</time>
      </trkpt>
      <trkpt lat="42.98155" lon="0.53761">
        <ele>1543.584</ele>
        <time>2021-02-27T11:39:57Z</time>
      </trkpt>
      <trkpt lat="42.98155" lon="0.53761">
        <ele>1543.58</ele>
        <time>2021-02-27T11:39:59Z</time>
      </trkpt>
      <trkpt lat="42.98155" lon="0.53761">
        <ele>1543.581</ele>
        <time>2021-02-27T11:40:01Z</time>
      </trkpt>
      <trkpt lat="42.98155" lon="0.53761">
        <ele>1543.584</ele>
        <time>2021-02-27T11:40:03Z</time>
      </trkpt>
      <trkpt lat="42.98155" lon="0.53761">
        <ele>1543.585</ele>
        <time>2021-02-27T11:40:05Z</time>
      </trkpt>
      <trkpt lat="42.98155" lon="0.53761">
        <ele>1543.585</ele>
        <time>2021-02-27T11:40:07Z</time>
      </trkpt>
      <trkpt lat="42.98155" lon="0.53761">
        <ele>1543.586</ele>
        <time>2021-02-27T11:40:09Z</time>
      </trkpt>
      <trkpt lat="42.98155" lon="0.53761">
        <ele>1543.584</ele>
        <time>2021-02-27T11:40:11Z</time>
      </trkpt>
      <trkpt lat="42.98155" lon="0.53761">
        <ele>1543.586</ele>
        <time>2021-02-27T11:40:13Z</time>
      </trkpt>
      <trkpt lat="42.98155" lon="0.53761">
        <ele>1543.587</ele>
        <time>2021-02-27T11:40:15Z</time>
      </trkpt>
      <trkpt lat="42.98155" lon="0.53761">
        <ele>1543.588</ele>
        <time>2021-02-27T11:40:17Z</time>
      </trkpt>
      <trkpt lat="42.98155" lon="0.53761">
        <ele>1543.588</ele>
        <time>2021-02-27T11:40:19Z</time>
      </trkpt>
      <trkpt lat="42.98155" lon="0.53761">
        <ele>1543.588</ele>
        <time>2021-02-27T11:40:21Z</time>
      </trkpt>
      <trkpt lat="42.98155" lon="0.53761">
        <ele>1543.589</ele>
        <time>2021-02-27T11:40:23Z</time>
      </trkpt>
      <trkpt lat="42.98155" lon="0.53761">
        <ele>1543.246</ele>
        <time>2021-02-27T11:40:25Z</time>
      </trkpt>
      <trkpt lat="42.98155" lon="0.53761">
        <ele>1543.257</ele>
        <time>2021-02-27T11:40:27Z</time>
      </trkpt>
      <trkpt lat="42.98155" lon="0.53761">
        <ele>1543.261</ele>
        <time>2021-02-27T11:40:29Z</time>
      </trkpt>
      <trkpt lat="42.98155" lon="0.53761">
        <ele>1543.262</ele>
        <time>2021-02-27T11:40:31Z</time>
      </trkpt>
      <trkpt lat="42.98155" lon="0.53761">
        <ele>1543.264</ele>
        <time>2021-02-27T11:40:33Z</time>
      </trkpt>
      <trkpt lat="42.98155" lon="0.53761">
        <ele>1543.267</ele>
        <time>2021-02-27T11:40:35Z</time>
      </trkpt>
      <trkpt lat="42.98155" lon="0.53761">
        <ele>1543.264</ele>
        <time>2021-02-27T11:40:37Z</time>
      </trkpt>
      <trkpt lat="42.98155" lon="0.53761">
        <ele>1543.266</ele>
        <time>2021-02-27T11:40:39Z</time>
      </trkpt>
      <trkpt lat="42.98155" lon="0.5376">
        <ele>1543.363</ele>
        <time>2021-02-27T11:40:41Z</time>
      </trkpt>
      <trkpt lat="42.98155" lon="0.5376">
        <ele>1543.384</ele>
        <time>2021-02-27T11:40:43Z</time>
      </trkpt>
      <trkpt lat="42.98155" lon="0.5376">
        <ele>1543.387</ele>
        <time>2021-02-27T11:40:45Z</time>
      </trkpt>
      <trkpt lat="42.98155" lon="0.5376">
        <ele>1543.385</ele>
        <time>2021-02-27T11:40:47Z</time>
      </trkpt>
      <trkpt lat="42.98155" lon="0.5376">
        <ele>1543.385</ele>
        <time>2021-02-27T11:40:49Z</time>
      </trkpt>
      <trkpt lat="42.98155" lon="0.5376">
        <ele>1543.386</ele>
        <time>2021-02-27T11:40:51Z</time>
      </trkpt>
      <trkpt lat="42.98155" lon="0.5376">
        <ele>1543.383</ele>
        <time>2021-02-27T11:40:53Z</time>
      </trkpt>
      <trkpt lat="42.98155" lon="0.5376">
        <ele>1543.386</ele>
        <time>2021-02-27T11:40:55Z</time>
      </trkpt>
      <trkpt lat="42.98155" lon="0.5376">
        <ele>1543.386</ele>
        <time>2021-02-27T11:40:57Z</time>
      </trkpt>
      <trkpt lat="42.98155" lon="0.5376">
        <ele>1543.383</ele>
        <time>2021-02-27T11:40:59Z</time>
      </trkpt>
      <trkpt lat="42.98155" lon="0.5376">
        <ele>1543.382</ele>
        <time>2021-02-27T11:41:01Z</time>
      </trkpt>
      <trkpt lat="42.98155" lon="0.5376">
        <ele>1543.384</ele>
        <time>2021-02-27T11:41:03Z</time>
      </trkpt>
      <trkpt lat="42.98155" lon="0.5376">
        <ele>1543.383</ele>
        <time>2021-02-27T11:41:05Z</time>
      </trkpt>
      <trkpt lat="42.98155" lon="0.5376">
        <ele>1543.381</ele>
        <time>2021-02-27T11:41:07Z</time>
      </trkpt>
      <trkpt lat="42.98155" lon="0.5376">
        <ele>1543.381</ele>
        <time>2021-02-27T11:41:09Z</time>
      </trkpt>
      <trkpt lat="42.98155" lon="0.5376">
        <ele>1543.375</ele>
        <time>2021-02-27T11:41:11Z</time>
      </trkpt>
      <trkpt lat="42.98155" lon="0.5376">
        <ele>1543.369</ele>
        <time>2021-02-27T11:41:13Z</time>
      </trkpt>
      <trkpt lat="42.98155" lon="0.5376">
        <ele>1543.365</ele>
        <time>2021-02-27T11:41:15Z</time>
      </trkpt>
      <trkpt lat="42.98155" lon="0.5376">
        <ele>1543.365</ele>
        <time>2021-02-27T11:41:17Z</time>
      </trkpt>
      <trkpt lat="42.98155" lon="0.5376">
        <ele>1543.366</ele>
        <time>2021-02-27T11:41:19Z</time>
      </trkpt>
      <trkpt lat="42.98155" lon="0.5376">
        <ele>1543.366</ele>
        <time>2021-02-27T11:41:21Z</time>
      </trkpt>
      <trkpt lat="42.98155" lon="0.5376">
        <ele>1543.367</ele>
        <time>2021-02-27T11:41:23Z</time>
      </trkpt>
      <trkpt lat="42.98155" lon="0.5376">
        <ele>1543.368</ele>
        <time>2021-02-27T11:41:25Z</time>
      </trkpt>
      <trkpt lat="42.98155" lon="0.5376">
        <ele>1543.369</ele>
        <time>2021-02-27T11:41:27Z</time>
      </trkpt>
      <trkpt lat="42.98155" lon="0.5376">
        <ele>1543.368</ele>
        <time>2021-02-27T11:41:29Z</time>
      </trkpt>
      <trkpt lat="42.98155" lon="0.5376">
        <ele>1543.368</ele>
        <time>2021-02-27T11:41:31Z</time>
      </trkpt>
      <trkpt lat="42.98155" lon="0.5376">
        <ele>1543.368</ele>
        <time>2021-02-27T11:41:33Z</time>
      </trkpt>
      <trkpt lat="42.98155" lon="0.5376">
        <ele>1543.366</ele>
        <time>2021-02-27T11:41:35Z</time>
      </trkpt>
      <trkpt lat="42.98155" lon="0.5376">
        <ele>1543.364</ele>
        <time>2021-02-27T11:41:37Z</time>
      </trkpt>
      <trkpt lat="42.98155" lon="0.5376">
        <ele>1543.365</ele>
        <time>2021-02-27T11:41:39Z</time>
      </trkpt>
      <trkpt lat="42.98155" lon="0.5376">
        <ele>1543.447</ele>
        <time>2021-02-27T11:41:41Z</time>
      </trkpt>
      <trkpt lat="42.98155" lon="0.5376">
        <ele>1543.446</ele>
        <time>2021-02-27T11:41:43Z</time>
      </trkpt>
      <trkpt lat="42.98155" lon="0.5376">
        <ele>1543.134</ele>
        <time>2021-02-27T11:41:45Z</time>
      </trkpt>
      <trkpt lat="42.98154" lon="0.5376">
        <ele>1543.6</ele>
        <time>2021-02-27T11:41:47Z</time>
      </trkpt>
      <trkpt lat="42.98154" lon="0.53762">
        <ele>1542.853</ele>
        <time>2021-02-27T11:41:49Z</time>
      </trkpt>
      <trkpt lat="42.98154" lon="0.53763">
        <ele>1542.949</ele>
        <time>2021-02-27T11:41:51Z</time>
      </trkpt>
      <trkpt lat="42.98154" lon="0.53763">
        <ele>1542.969</ele>
        <time>2021-02-27T11:41:53Z</time>
      </trkpt>
      <trkpt lat="42.98154" lon="0.53763">
        <ele>1542.969</ele>
        <time>2021-02-27T11:41:55Z</time>
      </trkpt>
      <trkpt lat="42.98154" lon="0.53763">
        <ele>1542.968</ele>
        <time>2021-02-27T11:41:57Z</time>
      </trkpt>
      <trkpt lat="42.98154" lon="0.53763">
        <ele>1542.97</ele>
        <time>2021-02-27T11:41:59Z</time>
      </trkpt>
      <trkpt lat="42.98154" lon="0.53763">
        <ele>1542.972</ele>
        <time>2021-02-27T11:42:01Z</time>
      </trkpt>
      <trkpt lat="42.98154" lon="0.53763">
        <ele>1542.973</ele>
        <time>2021-02-27T11:42:03Z</time>
      </trkpt>
      <trkpt lat="42.98154" lon="0.53763">
        <ele>1542.975</ele>
        <time>2021-02-27T11:42:05Z</time>
      </trkpt>
      <trkpt lat="42.98154" lon="0.53763">
        <ele>1542.975</ele>
        <time>2021-02-27T11:42:07Z</time>
      </trkpt>
      <trkpt lat="42.98154" lon="0.53763">
        <ele>1542.975</ele>
        <time>2021-02-27T11:42:09Z</time>
      </trkpt>
      <trkpt lat="42.98154" lon="0.53763">
        <ele>1542.975</ele>
        <time>2021-02-27T11:42:10Z</time>
      </trkpt>
      <trkpt lat="42.98154" lon="0.53763">
        <ele>1542.975</ele>
        <time>2021-02-27T11:42:13Z</time>
      </trkpt>
      <trkpt lat="42.98154" lon="0.53763">
        <ele>1543.035</ele>
        <time>2021-02-27T11:42:15Z</time>
      </trkpt>
      <trkpt lat="42.98153" lon="0.53761">
        <ele>1542.68</ele>
        <time>2021-02-27T11:42:17Z</time>
      </trkpt>
      <trkpt lat="42.98154" lon="0.5376">
        <ele>1542.667</ele>
        <time>2021-02-27T11:42:19Z</time>
      </trkpt>
      <trkpt lat="42.98155" lon="0.5376">
        <ele>1542.67</ele>
        <time>2021-02-27T11:42:21Z</time>
      </trkpt>
      <trkpt lat="42.98155" lon="0.53761">
        <ele>1542.309</ele>
        <time>2021-02-27T11:42:23Z</time>
      </trkpt>
      <trkpt lat="42.98154" lon="0.53762">
        <ele>1542.382</ele>
        <time>2021-02-27T11:42:25Z</time>
      </trkpt>
      <trkpt lat="42.98155" lon="0.53763">
        <ele>1542.394</ele>
        <time>2021-02-27T11:42:27Z</time>
      </trkpt>
      <trkpt lat="42.98155" lon="0.53763">
        <ele>1542.381</ele>
        <time>2021-02-27T11:42:29Z</time>
      </trkpt>
      <trkpt lat="42.98155" lon="0.53763">
        <ele>1542.378</ele>
        <time>2021-02-27T11:42:31Z</time>
      </trkpt>
      <trkpt lat="42.98155" lon="0.53763">
        <ele>1542.378</ele>
        <time>2021-02-27T11:42:33Z</time>
      </trkpt>
      <trkpt lat="42.98155" lon="0.53763">
        <ele>1542.379</ele>
        <time>2021-02-27T11:42:35Z</time>
      </trkpt>
      <trkpt lat="42.98155" lon="0.53763">
        <ele>1542.379</ele>
        <time>2021-02-27T11:42:37Z</time>
      </trkpt>
      <trkpt lat="42.98155" lon="0.53763">
        <ele>1542.378</ele>
        <time>2021-02-27T11:42:39Z</time>
      </trkpt>
      <trkpt lat="42.98155" lon="0.53763">
        <ele>1542.377</ele>
        <time>2021-02-27T11:42:41Z</time>
      </trkpt>
      <trkpt lat="42.98155" lon="0.53763">
        <ele>1542.378</ele>
        <time>2021-02-27T11:42:43Z</time>
      </trkpt>
      <trkpt lat="42.98155" lon="0.53763">
        <ele>1542.377</ele>
        <time>2021-02-27T11:42:45Z</time>
      </trkpt>
      <trkpt lat="42.98155" lon="0.53763">
        <ele>1542.375</ele>
        <time>2021-02-27T11:42:47Z</time>
      </trkpt>
      <trkpt lat="42.98155" lon="0.53763">
        <ele>1542.374</ele>
        <time>2021-02-27T11:42:49Z</time>
      </trkpt>
      <trkpt lat="42.98155" lon="0.53763">
        <ele>1542.372</ele>
        <time>2021-02-27T11:42:51Z</time>
      </trkpt>
      <trkpt lat="42.98155" lon="0.53763">
        <ele>1542.37</ele>
        <time>2021-02-27T11:42:53Z</time>
      </trkpt>
      <trkpt lat="42.98155" lon="0.53763">
        <ele>1542.372</ele>
        <time>2021-02-27T11:42:55Z</time>
      </trkpt>
      <trkpt lat="42.98155" lon="0.53763">
        <ele>1542.187</ele>
        <time>2021-02-27T11:42:57Z</time>
      </trkpt>
      <trkpt lat="42.98155" lon="0.53762">
        <ele>1542.036</ele>
        <time>2021-02-27T11:42:59Z</time>
      </trkpt>
      <trkpt lat="42.98155" lon="0.53761">
        <ele>1542.126</ele>
        <time>2021-02-27T11:43:01Z</time>
      </trkpt>
      <trkpt lat="42.98154" lon="0.5376">
        <ele>1541.963</ele>
        <time>2021-02-27T11:43:03Z</time>
      </trkpt>
      <trkpt lat="42.98155" lon="0.5376">
        <ele>1542.099</ele>
        <time>2021-02-27T11:43:05Z</time>
      </trkpt>
      <trkpt lat="42.98154" lon="0.5376">
        <ele>1542.103</ele>
        <time>2021-02-27T11:43:07Z</time>
      </trkpt>
      <trkpt lat="42.98154" lon="0.5376">
        <ele>1542.101</ele>
        <time>2021-02-27T11:43:09Z</time>
      </trkpt>
      <trkpt lat="42.98154" lon="0.5376">
        <ele>1542.102</ele>
        <time>2021-02-27T11:43:11Z</time>
      </trkpt>
      <trkpt lat="42.98154" lon="0.5376">
        <ele>1542.1</ele>
        <time>2021-02-27T11:43:13Z</time>
      </trkpt>
      <trkpt lat="42.98154" lon="0.5376">
        <ele>1541.99</ele>
        <time>2021-02-27T11:43:15Z</time>
      </trkpt>
      <trkpt lat="42.98154" lon="0.53759">
        <ele>1542.259</ele>
        <time>2021-02-27T11:43:17Z</time>
      </trkpt>
      <trkpt lat="42.98154" lon="0.53759">
        <ele>1542.256</ele>
        <time>2021-02-27T11:43:19Z</time>
      </trkpt>
      <trkpt lat="42.98154" lon="0.53759">
        <ele>1542.26</ele>
        <time>2021-02-27T11:43:21Z</time>
      </trkpt>
      <trkpt lat="42.98154" lon="0.53759">
        <ele>1542.261</ele>
        <time>2021-02-27T11:43:23Z</time>
      </trkpt>
      <trkpt lat="42.98154" lon="0.53759">
        <ele>1542.264</ele>
        <time>2021-02-27T11:43:25Z</time>
      </trkpt>
      <trkpt lat="42.98154" lon="0.53759">
        <ele>1542.266</ele>
        <time>2021-02-27T11:43:27Z</time>
      </trkpt>
      <trkpt lat="42.98154" lon="0.53759">
        <ele>1542.269</ele>
        <time>2021-02-27T11:43:29Z</time>
      </trkpt>
      <trkpt lat="42.98154" lon="0.53759">
        <ele>1542.274</ele>
        <time>2021-02-27T11:43:31Z</time>
      </trkpt>
      <trkpt lat="42.98155" lon="0.53759">
        <ele>1542.433</ele>
        <time>2021-02-27T11:43:33Z</time>
      </trkpt>
      <trkpt lat="42.98155" lon="0.53758">
        <ele>1543.181</ele>
        <time>2021-02-27T11:43:35Z</time>
      </trkpt>
      <trkpt lat="42.98155" lon="0.53758">
        <ele>1543.2</ele>
        <time>2021-02-27T11:43:37Z</time>
      </trkpt>
      <trkpt lat="42.98155" lon="0.53758">
        <ele>1543.203</ele>
        <time>2021-02-27T11:43:39Z</time>
      </trkpt>
      <trkpt lat="42.98155" lon="0.53758">
        <ele>1543.209</ele>
        <time>2021-02-27T11:43:41Z</time>
      </trkpt>
      <trkpt lat="42.98155" lon="0.53758">
        <ele>1543.214</ele>
        <time>2021-02-27T11:43:43Z</time>
      </trkpt>
      <trkpt lat="42.98155" lon="0.53758">
        <ele>1543.218</ele>
        <time>2021-02-27T11:43:45Z</time>
      </trkpt>
      <trkpt lat="42.98155" lon="0.53758">
        <ele>1543.215</ele>
        <time>2021-02-27T11:43:47Z</time>
      </trkpt>
      <trkpt lat="42.98155" lon="0.53758">
        <ele>1543.213</ele>
        <time>2021-02-27T11:43:49Z</time>
      </trkpt>
      <trkpt lat="42.98155" lon="0.53758">
        <ele>1543.217</ele>
        <time>2021-02-27T11:43:51Z</time>
      </trkpt>
      <trkpt lat="42.98155" lon="0.53758">
        <ele>1543.215</ele>
        <time>2021-02-27T11:43:53Z</time>
      </trkpt>
      <trkpt lat="42.98155" lon="0.53758">
        <ele>1543.212</ele>
        <time>2021-02-27T11:43:55Z</time>
      </trkpt>
      <trkpt lat="42.98155" lon="0.53758">
        <ele>1543.214</ele>
        <time>2021-02-27T11:43:57Z</time>
      </trkpt>
      <trkpt lat="42.98155" lon="0.53758">
        <ele>1543.085</ele>
        <time>2021-02-27T11:43:59Z</time>
      </trkpt>
      <trkpt lat="42.98156" lon="0.53758">
        <ele>1543.154</ele>
        <time>2021-02-27T11:44:01Z</time>
      </trkpt>
      <trkpt lat="42.98156" lon="0.53758">
        <ele>1542.613</ele>
        <time>2021-02-27T11:44:03Z</time>
      </trkpt>
      <trkpt lat="42.98156" lon="0.53757">
        <ele>1543.046</ele>
        <time>2021-02-27T11:44:05Z</time>
      </trkpt>
      <trkpt lat="42.98156" lon="0.53758">
        <ele>1543.048</ele>
        <time>2021-02-27T11:44:07Z</time>
      </trkpt>
      <trkpt lat="42.98156" lon="0.53758">
        <ele>1543.05</ele>
        <time>2021-02-27T11:44:09Z</time>
      </trkpt>
      <trkpt lat="42.98156" lon="0.53758">
        <ele>1543.051</ele>
        <time>2021-02-27T11:44:11Z</time>
      </trkpt>
      <trkpt lat="42.98156" lon="0.53758">
        <ele>1543.054</ele>
        <time>2021-02-27T11:44:13Z</time>
      </trkpt>
      <trkpt lat="42.98155" lon="0.53758">
        <ele>1543.241</ele>
        <time>2021-02-27T11:44:15Z</time>
      </trkpt>
      <trkpt lat="42.98155" lon="0.53758">
        <ele>1543.241</ele>
        <time>2021-02-27T11:44:17Z</time>
      </trkpt>
      <trkpt lat="42.98155" lon="0.53758">
        <ele>1543.238</ele>
        <time>2021-02-27T11:44:19Z</time>
      </trkpt>
      <trkpt lat="42.98155" lon="0.53758">
        <ele>1543.237</ele>
        <time>2021-02-27T11:44:21Z</time>
      </trkpt>
      <trkpt lat="42.98155" lon="0.53758">
        <ele>1543.237</ele>
        <time>2021-02-27T11:44:23Z</time>
      </trkpt>
      <trkpt lat="42.98155" lon="0.53758">
        <ele>1543.238</ele>
        <time>2021-02-27T11:44:25Z</time>
      </trkpt>
      <trkpt lat="42.98155" lon="0.53758">
        <ele>1543.238</ele>
        <time>2021-02-27T11:44:27Z</time>
      </trkpt>
      <trkpt lat="42.98155" lon="0.53758">
        <ele>1543.239</ele>
        <time>2021-02-27T11:44:29Z</time>
      </trkpt>
      <trkpt lat="42.98155" lon="0.53758">
        <ele>1543.238</ele>
        <time>2021-02-27T11:44:31Z</time>
      </trkpt>
      <trkpt lat="42.98155" lon="0.53758">
        <ele>1543.237</ele>
        <time>2021-02-27T11:44:33Z</time>
      </trkpt>
      <trkpt lat="42.98155" lon="0.53758">
        <ele>1543.237</ele>
        <time>2021-02-27T11:44:35Z</time>
      </trkpt>
      <trkpt lat="42.98155" lon="0.53758">
        <ele>1543.237</ele>
        <time>2021-02-27T11:44:37Z</time>
      </trkpt>
      <trkpt lat="42.98155" lon="0.53758">
        <ele>1543.235</ele>
        <time>2021-02-27T11:44:39Z</time>
      </trkpt>
      <trkpt lat="42.98155" lon="0.53758">
        <ele>1543.233</ele>
        <time>2021-02-27T11:44:41Z</time>
      </trkpt>
      <trkpt lat="42.98156" lon="0.53758">
        <ele>1543.05</ele>
        <time>2021-02-27T11:44:43Z</time>
      </trkpt>
      <trkpt lat="42.98155" lon="0.53759">
        <ele>1543.168</ele>
        <time>2021-02-27T11:44:45Z</time>
      </trkpt>
      <trkpt lat="42.98154" lon="0.53759">
        <ele>1543.787</ele>
        <time>2021-02-27T11:44:47Z</time>
      </trkpt>
      <trkpt lat="42.98154" lon="0.5376">
        <ele>1543.854</ele>
        <time>2021-02-27T11:44:49Z</time>
      </trkpt>
      <trkpt lat="42.98154" lon="0.5376">
        <ele>1543.851</ele>
        <time>2021-02-27T11:44:51Z</time>
      </trkpt>
      <trkpt lat="42.98154" lon="0.5376">
        <ele>1543.85</ele>
        <time>2021-02-27T11:44:53Z</time>
      </trkpt>
      <trkpt lat="42.98154" lon="0.5376">
        <ele>1543.848</ele>
        <time>2021-02-27T11:44:55Z</time>
      </trkpt>
      <trkpt lat="42.98154" lon="0.5376">
        <ele>1543.846</ele>
        <time>2021-02-27T11:44:57Z</time>
      </trkpt>
      <trkpt lat="42.98154" lon="0.5376">
        <ele>1543.845</ele>
        <time>2021-02-27T11:44:59Z</time>
      </trkpt>
      <trkpt lat="42.98154" lon="0.5376">
        <ele>1543.842</ele>
        <time>2021-02-27T11:45:01Z</time>
      </trkpt>
      <trkpt lat="42.98154" lon="0.5376">
        <ele>1543.843</ele>
        <time>2021-02-27T11:45:03Z</time>
      </trkpt>
      <trkpt lat="42.98154" lon="0.5376">
        <ele>1543.839</ele>
        <time>2021-02-27T11:45:05Z</time>
      </trkpt>
      <trkpt lat="42.98154" lon="0.5376">
        <ele>1543.836</ele>
        <time>2021-02-27T11:45:07Z</time>
      </trkpt>
      <trkpt lat="42.98154" lon="0.5376">
        <ele>1543.834</ele>
        <time>2021-02-27T11:45:09Z</time>
      </trkpt>
      <trkpt lat="42.98154" lon="0.5376">
        <ele>1543.834</ele>
        <time>2021-02-27T11:45:11Z</time>
      </trkpt>
      <trkpt lat="42.98154" lon="0.5376">
        <ele>1543.833</ele>
        <time>2021-02-27T11:45:13Z</time>
      </trkpt>
      <trkpt lat="42.98154" lon="0.5376">
        <ele>1543.832</ele>
        <time>2021-02-27T11:45:15Z</time>
      </trkpt>
      <trkpt lat="42.98154" lon="0.5376">
        <ele>1543.828</ele>
        <time>2021-02-27T11:45:17Z</time>
      </trkpt>
      <trkpt lat="42.98154" lon="0.5376">
        <ele>1543.826</ele>
        <time>2021-02-27T11:45:19Z</time>
      </trkpt>
      <trkpt lat="42.98154" lon="0.5376">
        <ele>1543.734</ele>
        <time>2021-02-27T11:45:21Z</time>
      </trkpt>
      <trkpt lat="42.98154" lon="0.53759">
        <ele>1543.734</ele>
        <time>2021-02-27T11:45:23Z</time>
      </trkpt>
      <trkpt lat="42.98154" lon="0.53759">
        <ele>1543.73</ele>
        <time>2021-02-27T11:45:25Z</time>
      </trkpt>
      <trkpt lat="42.98154" lon="0.53759">
        <ele>1543.729</ele>
        <time>2021-02-27T11:45:27Z</time>
      </trkpt>
      <trkpt lat="42.98154" lon="0.53759">
        <ele>1543.729</ele>
        <time>2021-02-27T11:45:29Z</time>
      </trkpt>
      <trkpt lat="42.98154" lon="0.53759">
        <ele>1543.723</ele>
        <time>2021-02-27T11:45:31Z</time>
      </trkpt>
      <trkpt lat="42.98154" lon="0.53759">
        <ele>1543.72</ele>
        <time>2021-02-27T11:45:33Z</time>
      </trkpt>
      <trkpt lat="42.98154" lon="0.53759">
        <ele>1543.721</ele>
        <time>2021-02-27T11:45:35Z</time>
      </trkpt>
      <trkpt lat="42.98154" lon="0.53759">
        <ele>1543.722</ele>
        <time>2021-02-27T11:45:37Z</time>
      </trkpt>
      <trkpt lat="42.98154" lon="0.53759">
        <ele>1543.72</ele>
        <time>2021-02-27T11:45:39Z</time>
      </trkpt>
      <trkpt lat="42.98154" lon="0.53759">
        <ele>1543.717</ele>
        <time>2021-02-27T11:45:41Z</time>
      </trkpt>
      <trkpt lat="42.98154" lon="0.53759">
        <ele>1543.716</ele>
        <time>2021-02-27T11:45:43Z</time>
      </trkpt>
      <trkpt lat="42.98154" lon="0.53759">
        <ele>1543.715</ele>
        <time>2021-02-27T11:45:45Z</time>
      </trkpt>
      <trkpt lat="42.98154" lon="0.53759">
        <ele>1543.711</ele>
        <time>2021-02-27T11:45:47Z</time>
      </trkpt>
      <trkpt lat="42.98154" lon="0.53759">
        <ele>1543.708</ele>
        <time>2021-02-27T11:45:49Z</time>
      </trkpt>
      <trkpt lat="42.98154" lon="0.53759">
        <ele>1543.705</ele>
        <time>2021-02-27T11:45:51Z</time>
      </trkpt>
      <trkpt lat="42.98154" lon="0.53759">
        <ele>1543.704</ele>
        <time>2021-02-27T11:45:53Z</time>
      </trkpt>
      <trkpt lat="42.98154" lon="0.53759">
        <ele>1543.701</ele>
        <time>2021-02-27T11:45:55Z</time>
      </trkpt>
      <trkpt lat="42.98154" lon="0.53759">
        <ele>1543.703</ele>
        <time>2021-02-27T11:45:57Z</time>
      </trkpt>
      <trkpt lat="42.98154" lon="0.53759">
        <ele>1543.7</ele>
        <time>2021-02-27T11:45:59Z</time>
      </trkpt>
      <trkpt lat="42.98154" lon="0.53759">
        <ele>1543.701</ele>
        <time>2021-02-27T11:46:01Z</time>
      </trkpt>
      <trkpt lat="42.98154" lon="0.53759">
        <ele>1543.699</ele>
        <time>2021-02-27T11:46:03Z</time>
      </trkpt>
      <trkpt lat="42.98154" lon="0.53759">
        <ele>1543.701</ele>
        <time>2021-02-27T11:46:05Z</time>
      </trkpt>
      <trkpt lat="42.98154" lon="0.53759">
        <ele>1543.955</ele>
        <time>2021-02-27T11:46:07Z</time>
      </trkpt>
      <trkpt lat="42.98154" lon="0.53759">
        <ele>1543.325</ele>
        <time>2021-02-27T11:46:09Z</time>
      </trkpt>
      <trkpt lat="42.98154" lon="0.53759">
        <ele>1543.105</ele>
        <time>2021-02-27T11:46:11Z</time>
      </trkpt>
      <trkpt lat="42.98154" lon="0.53759">
        <ele>1543.094</ele>
        <time>2021-02-27T11:46:13Z</time>
      </trkpt>
      <trkpt lat="42.98154" lon="0.53759">
        <ele>1543.09</ele>
        <time>2021-02-27T11:46:15Z</time>
      </trkpt>
      <trkpt lat="42.98154" lon="0.53759">
        <ele>1543.083</ele>
        <time>2021-02-27T11:46:17Z</time>
      </trkpt>
      <trkpt lat="42.98154" lon="0.53759">
        <ele>1543.08</ele>
        <time>2021-02-27T11:46:19Z</time>
      </trkpt>
      <trkpt lat="42.98154" lon="0.53759">
        <ele>1543.077</ele>
        <time>2021-02-27T11:46:21Z</time>
      </trkpt>
      <trkpt lat="42.98154" lon="0.53759">
        <ele>1543.073</ele>
        <time>2021-02-27T11:46:23Z</time>
      </trkpt>
      <trkpt lat="42.98154" lon="0.53759">
        <ele>1543.071</ele>
        <time>2021-02-27T11:46:25Z</time>
      </trkpt>
      <trkpt lat="42.98154" lon="0.53759">
        <ele>1543.069</ele>
        <time>2021-02-27T11:46:27Z</time>
      </trkpt>
      <trkpt lat="42.98154" lon="0.53759">
        <ele>1543.068</ele>
        <time>2021-02-27T11:46:29Z</time>
      </trkpt>
      <trkpt lat="42.98154" lon="0.53759">
        <ele>1543.067</ele>
        <time>2021-02-27T11:46:31Z</time>
      </trkpt>
      <trkpt lat="42.98154" lon="0.53759">
        <ele>1543.066</ele>
        <time>2021-02-27T11:46:33Z</time>
      </trkpt>
      <trkpt lat="42.98154" lon="0.53759">
        <ele>1543.065</ele>
        <time>2021-02-27T11:46:35Z</time>
      </trkpt>
      <trkpt lat="42.98154" lon="0.53759">
        <ele>1543.064</ele>
        <time>2021-02-27T11:46:37Z</time>
      </trkpt>
      <trkpt lat="42.98154" lon="0.53759">
        <ele>1543.064</ele>
        <time>2021-02-27T11:46:39Z</time>
      </trkpt>
      <trkpt lat="42.98154" lon="0.53759">
        <ele>1543.065</ele>
        <time>2021-02-27T11:46:41Z</time>
      </trkpt>
      <trkpt lat="42.98154" lon="0.53759">
        <ele>1543.063</ele>
        <time>2021-02-27T11:46:43Z</time>
      </trkpt>
      <trkpt lat="42.98154" lon="0.53759">
        <ele>1543.083</ele>
        <time>2021-02-27T11:46:45Z</time>
      </trkpt>
      <trkpt lat="42.98154" lon="0.53759">
        <ele>1542.959</ele>
        <time>2021-02-27T11:46:47Z</time>
      </trkpt>
      <trkpt lat="42.98154" lon="0.53759">
        <ele>1542.957</ele>
        <time>2021-02-27T11:46:49Z</time>
      </trkpt>
      <trkpt lat="42.98154" lon="0.53759">
        <ele>1542.958</ele>
        <time>2021-02-27T11:46:51Z</time>
      </trkpt>
      <trkpt lat="42.98154" lon="0.53759">
        <ele>1542.956</ele>
        <time>2021-02-27T11:46:53Z</time>
      </trkpt>
      <trkpt lat="42.98154" lon="0.53759">
        <ele>1542.954</ele>
        <time>2021-02-27T11:46:55Z</time>
      </trkpt>
      <trkpt lat="42.98154" lon="0.53759">
        <ele>1542.952</ele>
        <time>2021-02-27T11:46:57Z</time>
      </trkpt>
      <trkpt lat="42.98154" lon="0.53759">
        <ele>1542.951</ele>
        <time>2021-02-27T11:46:59Z</time>
      </trkpt>
      <trkpt lat="42.98154" lon="0.53759">
        <ele>1542.949</ele>
        <time>2021-02-27T11:47:01Z</time>
      </trkpt>
      <trkpt lat="42.98154" lon="0.53759">
        <ele>1542.953</ele>
        <time>2021-02-27T11:47:03Z</time>
      </trkpt>
      <trkpt lat="42.98154" lon="0.53759">
        <ele>1542.952</ele>
        <time>2021-02-27T11:47:05Z</time>
      </trkpt>
      <trkpt lat="42.98154" lon="0.53759">
        <ele>1542.953</ele>
        <time>2021-02-27T11:47:07Z</time>
      </trkpt>
      <trkpt lat="42.98154" lon="0.53759">
        <ele>1542.952</ele>
        <time>2021-02-27T11:47:09Z</time>
      </trkpt>
      <trkpt lat="42.98154" lon="0.53759">
        <ele>1542.953</ele>
        <time>2021-02-27T11:47:11Z</time>
      </trkpt>
      <trkpt lat="42.98154" lon="0.53759">
        <ele>1542.953</ele>
        <time>2021-02-27T11:47:13Z</time>
      </trkpt>
      <trkpt lat="42.98154" lon="0.53759">
        <ele>1542.952</ele>
        <time>2021-02-27T11:47:15Z</time>
      </trkpt>
      <trkpt lat="42.98154" lon="0.53759">
        <ele>1542.951</ele>
        <time>2021-02-27T11:47:17Z</time>
      </trkpt>
      <trkpt lat="42.98154" lon="0.53759">
        <ele>1542.949</ele>
        <time>2021-02-27T11:47:19Z</time>
      </trkpt>
      <trkpt lat="42.98154" lon="0.53759">
        <ele>1542.949</ele>
        <time>2021-02-27T11:47:21Z</time>
      </trkpt>
      <trkpt lat="42.98154" lon="0.53759">
        <ele>1542.95</ele>
        <time>2021-02-27T11:47:23Z</time>
      </trkpt>
      <trkpt lat="42.98154" lon="0.53759">
        <ele>1542.951</ele>
        <time>2021-02-27T11:47:25Z</time>
      </trkpt>
      <trkpt lat="42.98154" lon="0.53759">
        <ele>1542.951</ele>
        <time>2021-02-27T11:47:27Z</time>
      </trkpt>
      <trkpt lat="42.98154" lon="0.53759">
        <ele>1542.952</ele>
        <time>2021-02-27T11:47:29Z</time>
      </trkpt>
      <trkpt lat="42.98154" lon="0.53759">
        <ele>1542.951</ele>
        <time>2021-02-27T11:47:31Z</time>
      </trkpt>
      <trkpt lat="42.98154" lon="0.53759">
        <ele>1542.952</ele>
        <time>2021-02-27T11:47:33Z</time>
      </trkpt>
      <trkpt lat="42.98154" lon="0.53759">
        <ele>1542.952</ele>
        <time>2021-02-27T11:47:35Z</time>
      </trkpt>
      <trkpt lat="42.98154" lon="0.53759">
        <ele>1542.951</ele>
        <time>2021-02-27T11:47:37Z</time>
      </trkpt>
      <trkpt lat="42.98154" lon="0.53759">
        <ele>1542.952</ele>
        <time>2021-02-27T11:47:39Z</time>
      </trkpt>
      <trkpt lat="42.98154" lon="0.53759">
        <ele>1542.952</ele>
        <time>2021-02-27T11:47:41Z</time>
      </trkpt>
      <trkpt lat="42.98154" lon="0.53759">
        <ele>1542.956</ele>
        <time>2021-02-27T11:47:43Z</time>
      </trkpt>
      <trkpt lat="42.98154" lon="0.53759">
        <ele>1542.955</ele>
        <time>2021-02-27T11:47:45Z</time>
      </trkpt>
      <trkpt lat="42.98154" lon="0.53759">
        <ele>1542.956</ele>
        <time>2021-02-27T11:47:47Z</time>
      </trkpt>
      <trkpt lat="42.98154" lon="0.53759">
        <ele>1543.023</ele>
        <time>2021-02-27T11:47:49Z</time>
      </trkpt>
      <trkpt lat="42.98154" lon="0.53759">
        <ele>1543.176</ele>
        <time>2021-02-27T11:47:51Z</time>
      </trkpt>
      <trkpt lat="42.98154" lon="0.5376">
        <ele>1543.121</ele>
        <time>2021-02-27T11:47:53Z</time>
      </trkpt>
      <trkpt lat="42.98154" lon="0.5376">
        <ele>1543.103</ele>
        <time>2021-02-27T11:47:55Z</time>
      </trkpt>
      <trkpt lat="42.98154" lon="0.5376">
        <ele>1543.097</ele>
        <time>2021-02-27T11:47:57Z</time>
      </trkpt>
      <trkpt lat="42.98154" lon="0.5376">
        <ele>1543.093</ele>
        <time>2021-02-27T11:47:59Z</time>
      </trkpt>
      <trkpt lat="42.98154" lon="0.5376">
        <ele>1543.09</ele>
        <time>2021-02-27T11:48:01Z</time>
      </trkpt>
      <trkpt lat="42.98154" lon="0.5376">
        <ele>1543.086</ele>
        <time>2021-02-27T11:48:03Z</time>
      </trkpt>
      <trkpt lat="42.98154" lon="0.5376">
        <ele>1543.085</ele>
        <time>2021-02-27T11:48:05Z</time>
      </trkpt>
      <trkpt lat="42.98154" lon="0.5376">
        <ele>1543.084</ele>
        <time>2021-02-27T11:48:07Z</time>
      </trkpt>
      <trkpt lat="42.98154" lon="0.5376">
        <ele>1543.083</ele>
        <time>2021-02-27T11:48:09Z</time>
      </trkpt>
      <trkpt lat="42.98154" lon="0.5376">
        <ele>1543.083</ele>
        <time>2021-02-27T11:48:11Z</time>
      </trkpt>
      <trkpt lat="42.98154" lon="0.5376">
        <ele>1543.08</ele>
        <time>2021-02-27T11:48:13Z</time>
      </trkpt>
      <trkpt lat="42.98154" lon="0.5376">
        <ele>1543.079</ele>
        <time>2021-02-27T11:48:16Z</time>
      </trkpt>
      <trkpt lat="42.98154" lon="0.5376">
        <ele>1543.081</ele>
        <time>2021-02-27T11:48:18Z</time>
      </trkpt>
      <trkpt lat="42.98154" lon="0.5376">
        <ele>1543.081</ele>
        <time>2021-02-27T11:48:20Z</time>
      </trkpt>
      <trkpt lat="42.98154" lon="0.5376">
        <ele>1543.077</ele>
        <time>2021-02-27T11:48:22Z</time>
      </trkpt>
      <trkpt lat="42.98154" lon="0.5376">
        <ele>1543.077</ele>
        <time>2021-02-27T11:48:24Z</time>
      </trkpt>
      <trkpt lat="42.98154" lon="0.5376">
        <ele>1543.076</ele>
        <time>2021-02-27T11:48:26Z</time>
      </trkpt>
      <trkpt lat="42.98154" lon="0.5376">
        <ele>1543.076</ele>
        <time>2021-02-27T11:48:28Z</time>
      </trkpt>
      <trkpt lat="42.98154" lon="0.5376">
        <ele>1543.075</ele>
        <time>2021-02-27T11:48:30Z</time>
      </trkpt>
      <trkpt lat="42.98154" lon="0.5376">
        <ele>1543.072</ele>
        <time>2021-02-27T11:48:32Z</time>
      </trkpt>
      <trkpt lat="42.98154" lon="0.5376">
        <ele>1543.123</ele>
        <time>2021-02-27T11:48:34Z</time>
      </trkpt>
      <trkpt lat="42.98154" lon="0.5376">
        <ele>1542.948</ele>
        <time>2021-02-27T11:48:36Z</time>
      </trkpt>
      <trkpt lat="42.98154" lon="0.5376">
        <ele>1542.937</ele>
        <time>2021-02-27T11:48:38Z</time>
      </trkpt>
      <trkpt lat="42.98154" lon="0.5376">
        <ele>1542.6</ele>
        <time>2021-02-27T11:48:40Z</time>
      </trkpt>
      <trkpt lat="42.98154" lon="0.53761">
        <ele>1542.593</ele>
        <time>2021-02-27T11:48:42Z</time>
      </trkpt>
      <trkpt lat="42.98154" lon="0.53761">
        <ele>1542.593</ele>
        <time>2021-02-27T11:48:44Z</time>
      </trkpt>
      <trkpt lat="42.98154" lon="0.53761">
        <ele>1542.593</ele>
        <time>2021-02-27T11:48:46Z</time>
      </trkpt>
      <trkpt lat="42.98154" lon="0.5376">
        <ele>1542.548</ele>
        <time>2021-02-27T11:48:48Z</time>
      </trkpt>
      <trkpt lat="42.98154" lon="0.5376">
        <ele>1542.644</ele>
        <time>2021-02-27T11:48:50Z</time>
      </trkpt>
      <trkpt lat="42.98153" lon="0.5376">
        <ele>1542.988</ele>
        <time>2021-02-27T11:48:52Z</time>
      </trkpt>
      <trkpt lat="42.98153" lon="0.53759">
        <ele>1543.145</ele>
        <time>2021-02-27T11:48:54Z</time>
      </trkpt>
      <trkpt lat="42.98153" lon="0.53758">
        <ele>1543.174</ele>
        <time>2021-02-27T11:48:56Z</time>
      </trkpt>
      <trkpt lat="42.98153" lon="0.53757">
        <ele>1543.749</ele>
        <time>2021-02-27T11:48:58Z</time>
      </trkpt>
      <trkpt lat="42.98153" lon="0.53757">
        <ele>1543.753</ele>
        <time>2021-02-27T11:49:00Z</time>
      </trkpt>
      <trkpt lat="42.98153" lon="0.53757">
        <ele>1543.749</ele>
        <time>2021-02-27T11:49:02Z</time>
      </trkpt>
      <trkpt lat="42.98153" lon="0.53757">
        <ele>1543.747</ele>
        <time>2021-02-27T11:49:04Z</time>
      </trkpt>
      <trkpt lat="42.98153" lon="0.53757">
        <ele>1543.748</ele>
        <time>2021-02-27T11:49:06Z</time>
      </trkpt>
      <trkpt lat="42.98153" lon="0.53757">
        <ele>1543.747</ele>
        <time>2021-02-27T11:49:08Z</time>
      </trkpt>
      <trkpt lat="42.98153" lon="0.53757">
        <ele>1543.746</ele>
        <time>2021-02-27T11:49:10Z</time>
      </trkpt>
      <trkpt lat="42.98153" lon="0.53757">
        <ele>1543.563</ele>
        <time>2021-02-27T11:49:12Z</time>
      </trkpt>
      <trkpt lat="42.98153" lon="0.53757">
        <ele>1543.721</ele>
        <time>2021-02-27T11:49:14Z</time>
      </trkpt>
      <trkpt lat="42.98153" lon="0.53756">
        <ele>1543.91</ele>
        <time>2021-02-27T11:49:16Z</time>
      </trkpt>
      <trkpt lat="42.98153" lon="0.53756">
        <ele>1543.912</ele>
        <time>2021-02-27T11:49:18Z</time>
      </trkpt>
      <trkpt lat="42.98153" lon="0.53756">
        <ele>1543.913</ele>
        <time>2021-02-27T11:49:20Z</time>
      </trkpt>
      <trkpt lat="42.98153" lon="0.53756">
        <ele>1543.912</ele>
        <time>2021-02-27T11:49:22Z</time>
      </trkpt>
      <trkpt lat="42.98153" lon="0.53756">
        <ele>1543.912</ele>
        <time>2021-02-27T11:49:24Z</time>
      </trkpt>
      <trkpt lat="42.98153" lon="0.53756">
        <ele>1543.909</ele>
        <time>2021-02-27T11:49:26Z</time>
      </trkpt>
      <trkpt lat="42.98153" lon="0.53756">
        <ele>1543.913</ele>
        <time>2021-02-27T11:49:28Z</time>
      </trkpt>
      <trkpt lat="42.98153" lon="0.53756">
        <ele>1543.772</ele>
        <time>2021-02-27T11:49:30Z</time>
      </trkpt>
      <trkpt lat="42.98153" lon="0.53757">
        <ele>1543.519</ele>
        <time>2021-02-27T11:49:32Z</time>
      </trkpt>
      <trkpt lat="42.98153" lon="0.53757">
        <ele>1543.176</ele>
        <time>2021-02-27T11:49:34Z</time>
      </trkpt>
      <trkpt lat="42.98154" lon="0.53757">
        <ele>1542.887</ele>
        <time>2021-02-27T11:49:36Z</time>
      </trkpt>
      <trkpt lat="42.98155" lon="0.53756">
        <ele>1542.9</ele>
        <time>2021-02-27T11:49:38Z</time>
      </trkpt>
      <trkpt lat="42.98155" lon="0.53756">
        <ele>1542.894</ele>
        <time>2021-02-27T11:49:40Z</time>
      </trkpt>
      <trkpt lat="42.98155" lon="0.53756">
        <ele>1542.575</ele>
        <time>2021-02-27T11:49:42Z</time>
      </trkpt>
      <trkpt lat="42.98155" lon="0.53756">
        <ele>1542.347</ele>
        <time>2021-02-27T11:49:44Z</time>
      </trkpt>
      <trkpt lat="42.98155" lon="0.53754">
        <ele>1542.451</ele>
        <time>2021-02-27T11:49:46Z</time>
      </trkpt>
      <trkpt lat="42.98157" lon="0.53753">
        <ele>1542.273</ele>
        <time>2021-02-27T11:49:48Z</time>
      </trkpt>
      <trkpt lat="42.98158" lon="0.53753">
        <ele>1541.58</ele>
        <time>2021-02-27T11:49:50Z</time>
      </trkpt>
      <trkpt lat="42.98159" lon="0.53755">
        <ele>1541.208</ele>
        <time>2021-02-27T11:49:52Z</time>
      </trkpt>
      <trkpt lat="42.9816" lon="0.53755">
        <ele>1541.07</ele>
        <time>2021-02-27T11:49:54Z</time>
      </trkpt>
      <trkpt lat="42.9816" lon="0.53753">
        <ele>1541.117</ele>
        <time>2021-02-27T11:49:56Z</time>
      </trkpt>
      <trkpt lat="42.98159" lon="0.53753">
        <ele>1541.231</ele>
        <time>2021-02-27T11:49:58Z</time>
      </trkpt>
      <trkpt lat="42.98159" lon="0.53752">
        <ele>1541.39</ele>
        <time>2021-02-27T11:50:00Z</time>
      </trkpt>
      <trkpt lat="42.98158" lon="0.53752">
        <ele>1541.993</ele>
        <time>2021-02-27T11:50:02Z</time>
      </trkpt>
      <trkpt lat="42.98158" lon="0.53752">
        <ele>1542.074</ele>
        <time>2021-02-27T11:50:04Z</time>
      </trkpt>
      <trkpt lat="42.98158" lon="0.53752">
        <ele>1542.064</ele>
        <time>2021-02-27T11:50:06Z</time>
      </trkpt>
      <trkpt lat="42.98158" lon="0.53753">
        <ele>1542.014</ele>
        <time>2021-02-27T11:50:08Z</time>
      </trkpt>
      <trkpt lat="42.98158" lon="0.53754">
        <ele>1541.677</ele>
        <time>2021-02-27T11:50:10Z</time>
      </trkpt>
      <trkpt lat="42.98158" lon="0.53755">
        <ele>1541.29</ele>
        <time>2021-02-27T11:50:12Z</time>
      </trkpt>
      <trkpt lat="42.98158" lon="0.53754">
        <ele>1541.417</ele>
        <time>2021-02-27T11:50:14Z</time>
      </trkpt>
      <trkpt lat="42.98158" lon="0.53753">
        <ele>1541.231</ele>
        <time>2021-02-27T11:50:16Z</time>
      </trkpt>
      <trkpt lat="42.98158" lon="0.53753">
        <ele>1541.313</ele>
        <time>2021-02-27T11:50:18Z</time>
      </trkpt>
      <trkpt lat="42.98158" lon="0.53753">
        <ele>1541.32</ele>
        <time>2021-02-27T11:50:20Z</time>
      </trkpt>
      <trkpt lat="42.98158" lon="0.53752">
        <ele>1541.702</ele>
        <time>2021-02-27T11:50:22Z</time>
      </trkpt>
      <trkpt lat="42.98157" lon="0.53752">
        <ele>1541.75</ele>
        <time>2021-02-27T11:50:24Z</time>
      </trkpt>
      <trkpt lat="42.98157" lon="0.53752">
        <ele>1541.686</ele>
        <time>2021-02-27T11:50:26Z</time>
      </trkpt>
      <trkpt lat="42.98156" lon="0.53751">
        <ele>1541.687</ele>
        <time>2021-02-27T11:50:28Z</time>
      </trkpt>
      <trkpt lat="42.98156" lon="0.53751">
        <ele>1541.705</ele>
        <time>2021-02-27T11:50:30Z</time>
      </trkpt>
      <trkpt lat="42.98156" lon="0.53751">
        <ele>1541.707</ele>
        <time>2021-02-27T11:50:32Z</time>
      </trkpt>
      <trkpt lat="42.98156" lon="0.53751">
        <ele>1541.71</ele>
        <time>2021-02-27T11:50:34Z</time>
      </trkpt>
      <trkpt lat="42.98156" lon="0.53751">
        <ele>1541.66</ele>
        <time>2021-02-27T11:50:36Z</time>
      </trkpt>
      <trkpt lat="42.98157" lon="0.53752">
        <ele>1541.504</ele>
        <time>2021-02-27T11:50:38Z</time>
      </trkpt>
      <trkpt lat="42.98157" lon="0.53753">
        <ele>1541.837</ele>
        <time>2021-02-27T11:50:40Z</time>
      </trkpt>
      <trkpt lat="42.98157" lon="0.53753">
        <ele>1541.39</ele>
        <time>2021-02-27T11:50:42Z</time>
      </trkpt>
      <trkpt lat="42.98156" lon="0.53754">
        <ele>1542.115</ele>
        <time>2021-02-27T11:50:44Z</time>
      </trkpt>
      <trkpt lat="42.98156" lon="0.53754">
        <ele>1542.024</ele>
        <time>2021-02-27T11:50:46Z</time>
      </trkpt>
      <trkpt lat="42.98157" lon="0.53754">
        <ele>1541.959</ele>
        <time>2021-02-27T11:50:48Z</time>
      </trkpt>
      <trkpt lat="42.98157" lon="0.53754">
        <ele>1541.954</ele>
        <time>2021-02-27T11:50:50Z</time>
      </trkpt>
      <trkpt lat="42.98157" lon="0.53754">
        <ele>1541.954</ele>
        <time>2021-02-27T11:50:52Z</time>
      </trkpt>
      <trkpt lat="42.98157" lon="0.53754">
        <ele>1542.149</ele>
        <time>2021-02-27T11:50:54Z</time>
      </trkpt>
      <trkpt lat="42.98157" lon="0.53754">
        <ele>1542.192</ele>
        <time>2021-02-27T11:50:56Z</time>
      </trkpt>
      <trkpt lat="42.98157" lon="0.53754">
        <ele>1542.203</ele>
        <time>2021-02-27T11:50:58Z</time>
      </trkpt>
      <trkpt lat="42.98157" lon="0.53754">
        <ele>1542.199</ele>
        <time>2021-02-27T11:51:00Z</time>
      </trkpt>
      <trkpt lat="42.98157" lon="0.53754">
        <ele>1542.252</ele>
        <time>2021-02-27T11:51:02Z</time>
      </trkpt>
      <trkpt lat="42.98157" lon="0.53754">
        <ele>1542.339</ele>
        <time>2021-02-27T11:51:04Z</time>
      </trkpt>
      <trkpt lat="42.98157" lon="0.53754">
        <ele>1542.14</ele>
        <time>2021-02-27T11:51:06Z</time>
      </trkpt>
      <trkpt lat="42.98157" lon="0.53754">
        <ele>1542.399</ele>
        <time>2021-02-27T11:51:08Z</time>
      </trkpt>
      <trkpt lat="42.98157" lon="0.53753">
        <ele>1542.505</ele>
        <time>2021-02-27T11:51:10Z</time>
      </trkpt>
      <trkpt lat="42.98157" lon="0.53753">
        <ele>1542.506</ele>
        <time>2021-02-27T11:51:12Z</time>
      </trkpt>
      <trkpt lat="42.98157" lon="0.53753">
        <ele>1542.502</ele>
        <time>2021-02-27T11:51:14Z</time>
      </trkpt>
      <trkpt lat="42.98157" lon="0.53753">
        <ele>1542.501</ele>
        <time>2021-02-27T11:51:16Z</time>
      </trkpt>
      <trkpt lat="42.98157" lon="0.53753">
        <ele>1542.498</ele>
        <time>2021-02-27T11:51:18Z</time>
      </trkpt>
      <trkpt lat="42.98157" lon="0.53753">
        <ele>1542.498</ele>
        <time>2021-02-27T11:51:20Z</time>
      </trkpt>
      <trkpt lat="42.98158" lon="0.53753">
        <ele>1542.859</ele>
        <time>2021-02-27T11:51:22Z</time>
      </trkpt>
      <trkpt lat="42.98158" lon="0.53753">
        <ele>1542.857</ele>
        <time>2021-02-27T11:51:24Z</time>
      </trkpt>
      <trkpt lat="42.98158" lon="0.53753">
        <ele>1542.846</ele>
        <time>2021-02-27T11:51:26Z</time>
      </trkpt>
      <trkpt lat="42.98158" lon="0.53753">
        <ele>1542.929</ele>
        <time>2021-02-27T11:51:28Z</time>
      </trkpt>
      <trkpt lat="42.98158" lon="0.53753">
        <ele>1542.93</ele>
        <time>2021-02-27T11:51:30Z</time>
      </trkpt>
      <trkpt lat="42.98158" lon="0.53753">
        <ele>1542.927</ele>
        <time>2021-02-27T11:51:32Z</time>
      </trkpt>
      <trkpt lat="42.98158" lon="0.53753">
        <ele>1542.927</ele>
        <time>2021-02-27T11:51:34Z</time>
      </trkpt>
      <trkpt lat="42.98158" lon="0.53753">
        <ele>1542.924</ele>
        <time>2021-02-27T11:51:36Z</time>
      </trkpt>
      <trkpt lat="42.98158" lon="0.53753">
        <ele>1542.922</ele>
        <time>2021-02-27T11:51:38Z</time>
      </trkpt>
      <trkpt lat="42.98157" lon="0.53753">
        <ele>1542.925</ele>
        <time>2021-02-27T11:51:40Z</time>
      </trkpt>
      <trkpt lat="42.98157" lon="0.53753">
        <ele>1543.045</ele>
        <time>2021-02-27T11:51:42Z</time>
      </trkpt>
      <trkpt lat="42.98157" lon="0.53753">
        <ele>1543.307</ele>
        <time>2021-02-27T11:51:44Z</time>
      </trkpt>
      <trkpt lat="42.98157" lon="0.53753">
        <ele>1543.308</ele>
        <time>2021-02-27T11:51:46Z</time>
      </trkpt>
      <trkpt lat="42.98157" lon="0.53753">
        <ele>1543.31</ele>
        <time>2021-02-27T11:51:48Z</time>
      </trkpt>
      <trkpt lat="42.98157" lon="0.53753">
        <ele>1543.31</ele>
        <time>2021-02-27T11:51:50Z</time>
      </trkpt>
      <trkpt lat="42.98157" lon="0.53753">
        <ele>1543.308</ele>
        <time>2021-02-27T11:51:52Z</time>
      </trkpt>
      <trkpt lat="42.98157" lon="0.53753">
        <ele>1543.304</ele>
        <time>2021-02-27T11:51:54Z</time>
      </trkpt>
      <trkpt lat="42.98157" lon="0.53753">
        <ele>1543.301</ele>
        <time>2021-02-27T11:51:56Z</time>
      </trkpt>
      <trkpt lat="42.98157" lon="0.53753">
        <ele>1543.224</ele>
        <time>2021-02-27T11:51:58Z</time>
      </trkpt>
      <trkpt lat="42.98157" lon="0.53753">
        <ele>1543.222</ele>
        <time>2021-02-27T11:52:00Z</time>
      </trkpt>
      <trkpt lat="42.98157" lon="0.53753">
        <ele>1543.222</ele>
        <time>2021-02-27T11:52:02Z</time>
      </trkpt>
      <trkpt lat="42.98157" lon="0.53753">
        <ele>1543.224</ele>
        <time>2021-02-27T11:52:04Z</time>
      </trkpt>
      <trkpt lat="42.98157" lon="0.53753">
        <ele>1543.177</ele>
        <time>2021-02-27T11:52:06Z</time>
      </trkpt>
      <trkpt lat="42.98157" lon="0.53754">
        <ele>1543.175</ele>
        <time>2021-02-27T11:52:08Z</time>
      </trkpt>
      <trkpt lat="42.98157" lon="0.53754">
        <ele>1543.17</ele>
        <time>2021-02-27T11:52:10Z</time>
      </trkpt>
      <trkpt lat="42.98157" lon="0.53754">
        <ele>1543.169</ele>
        <time>2021-02-27T11:52:12Z</time>
      </trkpt>
      <trkpt lat="42.98157" lon="0.53754">
        <ele>1543.171</ele>
        <time>2021-02-27T11:52:14Z</time>
      </trkpt>
      <trkpt lat="42.98157" lon="0.53754">
        <ele>1542.973</ele>
        <time>2021-02-27T11:52:16Z</time>
      </trkpt>
      <trkpt lat="42.98157" lon="0.53753">
        <ele>1542.971</ele>
        <time>2021-02-27T11:52:18Z</time>
      </trkpt>
      <trkpt lat="42.98157" lon="0.53753">
        <ele>1542.974</ele>
        <time>2021-02-27T11:52:20Z</time>
      </trkpt>
      <trkpt lat="42.98157" lon="0.53753">
        <ele>1542.974</ele>
        <time>2021-02-27T11:52:22Z</time>
      </trkpt>
      <trkpt lat="42.98157" lon="0.53753">
        <ele>1542.974</ele>
        <time>2021-02-27T11:52:24Z</time>
      </trkpt>
      <trkpt lat="42.98157" lon="0.53753">
        <ele>1542.975</ele>
        <time>2021-02-27T11:52:26Z</time>
      </trkpt>
      <trkpt lat="42.98157" lon="0.53753">
        <ele>1542.973</ele>
        <time>2021-02-27T11:52:28Z</time>
      </trkpt>
      <trkpt lat="42.98157" lon="0.53754">
        <ele>1542.806</ele>
        <time>2021-02-27T11:52:30Z</time>
      </trkpt>
      <trkpt lat="42.98157" lon="0.53754">
        <ele>1542.807</ele>
        <time>2021-02-27T11:52:32Z</time>
      </trkpt>
      <trkpt lat="42.98157" lon="0.53754">
        <ele>1542.81</ele>
        <time>2021-02-27T11:52:34Z</time>
      </trkpt>
      <trkpt lat="42.98157" lon="0.53754">
        <ele>1542.811</ele>
        <time>2021-02-27T11:52:36Z</time>
      </trkpt>
      <trkpt lat="42.98157" lon="0.53754">
        <ele>1542.541</ele>
        <time>2021-02-27T11:52:38Z</time>
      </trkpt>
      <trkpt lat="42.98157" lon="0.53754">
        <ele>1542.548</ele>
        <time>2021-02-27T11:52:40Z</time>
      </trkpt>
      <trkpt lat="42.98157" lon="0.53754">
        <ele>1542.549</ele>
        <time>2021-02-27T11:52:42Z</time>
      </trkpt>
      <trkpt lat="42.98157" lon="0.53754">
        <ele>1542.568</ele>
        <time>2021-02-27T11:52:44Z</time>
      </trkpt>
      <trkpt lat="42.98157" lon="0.53754">
        <ele>1542.573</ele>
        <time>2021-02-27T11:52:46Z</time>
      </trkpt>
      <trkpt lat="42.98157" lon="0.53754">
        <ele>1542.575</ele>
        <time>2021-02-27T11:52:48Z</time>
      </trkpt>
      <trkpt lat="42.98157" lon="0.53754">
        <ele>1542.58</ele>
        <time>2021-02-27T11:52:50Z</time>
      </trkpt>
      <trkpt lat="42.98157" lon="0.53754">
        <ele>1542.581</ele>
        <time>2021-02-27T11:52:52Z</time>
      </trkpt>
      <trkpt lat="42.98157" lon="0.53754">
        <ele>1542.581</ele>
        <time>2021-02-27T11:52:54Z</time>
      </trkpt>
      <trkpt lat="42.98157" lon="0.53754">
        <ele>1542.582</ele>
        <time>2021-02-27T11:52:56Z</time>
      </trkpt>
      <trkpt lat="42.98157" lon="0.53754">
        <ele>1542.584</ele>
        <time>2021-02-27T11:52:58Z</time>
      </trkpt>
      <trkpt lat="42.98157" lon="0.53754">
        <ele>1542.584</ele>
        <time>2021-02-27T11:53:00Z</time>
      </trkpt>
      <trkpt lat="42.98157" lon="0.53754">
        <ele>1542.584</ele>
        <time>2021-02-27T11:53:02Z</time>
      </trkpt>
      <trkpt lat="42.98157" lon="0.53754">
        <ele>1542.651</ele>
        <time>2021-02-27T11:53:04Z</time>
      </trkpt>
      <trkpt lat="42.98157" lon="0.53754">
        <ele>1542.847</ele>
        <time>2021-02-27T11:53:06Z</time>
      </trkpt>
      <trkpt lat="42.98157" lon="0.53754">
        <ele>1542.849</ele>
        <time>2021-02-27T11:53:08Z</time>
      </trkpt>
      <trkpt lat="42.98157" lon="0.53754">
        <ele>1542.853</ele>
        <time>2021-02-27T11:53:10Z</time>
      </trkpt>
      <trkpt lat="42.98157" lon="0.53754">
        <ele>1542.854</ele>
        <time>2021-02-27T11:53:12Z</time>
      </trkpt>
      <trkpt lat="42.98157" lon="0.53754">
        <ele>1542.855</ele>
        <time>2021-02-27T11:53:14Z</time>
      </trkpt>
      <trkpt lat="42.98157" lon="0.53754">
        <ele>1542.855</ele>
        <time>2021-02-27T11:53:16Z</time>
      </trkpt>
      <trkpt lat="42.98157" lon="0.53754">
        <ele>1542.858</ele>
        <time>2021-02-27T11:53:18Z</time>
      </trkpt>
      <trkpt lat="42.98157" lon="0.53754">
        <ele>1542.809</ele>
        <time>2021-02-27T11:53:20Z</time>
      </trkpt>
      <trkpt lat="42.98157" lon="0.53754">
        <ele>1542.814</ele>
        <time>2021-02-27T11:53:22Z</time>
      </trkpt>
      <trkpt lat="42.98157" lon="0.53754">
        <ele>1542.816</ele>
        <time>2021-02-27T11:53:24Z</time>
      </trkpt>
      <trkpt lat="42.98157" lon="0.53754">
        <ele>1542.821</ele>
        <time>2021-02-27T11:53:26Z</time>
      </trkpt>
      <trkpt lat="42.98157" lon="0.53754">
        <ele>1542.822</ele>
        <time>2021-02-27T11:53:28Z</time>
      </trkpt>
      <trkpt lat="42.98157" lon="0.53754">
        <ele>1542.823</ele>
        <time>2021-02-27T11:53:30Z</time>
      </trkpt>
      <trkpt lat="42.98157" lon="0.53754">
        <ele>1542.825</ele>
        <time>2021-02-27T11:53:32Z</time>
      </trkpt>
      <trkpt lat="42.98157" lon="0.53754">
        <ele>1542.85</ele>
        <time>2021-02-27T11:53:34Z</time>
      </trkpt>
      <trkpt lat="42.98157" lon="0.53754">
        <ele>1542.849</ele>
        <time>2021-02-27T11:53:36Z</time>
      </trkpt>
      <trkpt lat="42.98157" lon="0.53754">
        <ele>1542.85</ele>
        <time>2021-02-27T11:53:38Z</time>
      </trkpt>
      <trkpt lat="42.98157" lon="0.53754">
        <ele>1542.851</ele>
        <time>2021-02-27T11:53:40Z</time>
      </trkpt>
      <trkpt lat="42.98157" lon="0.53754">
        <ele>1542.851</ele>
        <time>2021-02-27T11:53:42Z</time>
      </trkpt>
      <trkpt lat="42.98157" lon="0.53754">
        <ele>1542.851</ele>
        <time>2021-02-27T11:53:44Z</time>
      </trkpt>
      <trkpt lat="42.98157" lon="0.53754">
        <ele>1542.851</ele>
        <time>2021-02-27T11:53:46Z</time>
      </trkpt>
      <trkpt lat="42.98157" lon="0.53754">
        <ele>1542.854</ele>
        <time>2021-02-27T11:53:48Z</time>
      </trkpt>
      <trkpt lat="42.98157" lon="0.53754">
        <ele>1542.834</ele>
        <time>2021-02-27T11:53:50Z</time>
      </trkpt>
      <trkpt lat="42.98157" lon="0.53754">
        <ele>1542.834</ele>
        <time>2021-02-27T11:53:52Z</time>
      </trkpt>
      <trkpt lat="42.98157" lon="0.53754">
        <ele>1542.835</ele>
        <time>2021-02-27T11:53:54Z</time>
      </trkpt>
      <trkpt lat="42.98157" lon="0.53754">
        <ele>1542.834</ele>
        <time>2021-02-27T11:53:56Z</time>
      </trkpt>
      <trkpt lat="42.98157" lon="0.53754">
        <ele>1542.833</ele>
        <time>2021-02-27T11:53:58Z</time>
      </trkpt>
      <trkpt lat="42.98157" lon="0.53754">
        <ele>1542.919</ele>
        <time>2021-02-27T11:54:00Z</time>
      </trkpt>
      <trkpt lat="42.98157" lon="0.53754">
        <ele>1542.975</ele>
        <time>2021-02-27T11:54:02Z</time>
      </trkpt>
      <trkpt lat="42.98157" lon="0.53754">
        <ele>1542.98</ele>
        <time>2021-02-27T11:54:04Z</time>
      </trkpt>
      <trkpt lat="42.98157" lon="0.53754">
        <ele>1542.984</ele>
        <time>2021-02-27T11:54:06Z</time>
      </trkpt>
      <trkpt lat="42.98157" lon="0.53754">
        <ele>1542.985</ele>
        <time>2021-02-27T11:54:08Z</time>
      </trkpt>
      <trkpt lat="42.98157" lon="0.53754">
        <ele>1542.989</ele>
        <time>2021-02-27T11:54:10Z</time>
      </trkpt>
      <trkpt lat="42.98157" lon="0.53754">
        <ele>1542.992</ele>
        <time>2021-02-27T11:54:12Z</time>
      </trkpt>
      <trkpt lat="42.98157" lon="0.53755">
        <ele>1543.117</ele>
        <time>2021-02-27T11:54:14Z</time>
      </trkpt>
      <trkpt lat="42.98157" lon="0.53755">
        <ele>1543.387</ele>
        <time>2021-02-27T11:54:16Z</time>
      </trkpt>
      <trkpt lat="42.98157" lon="0.53755">
        <ele>1543.398</ele>
        <time>2021-02-27T11:54:18Z</time>
      </trkpt>
      <trkpt lat="42.98157" lon="0.53755">
        <ele>1543.4</ele>
        <time>2021-02-27T11:54:20Z</time>
      </trkpt>
      <trkpt lat="42.98156" lon="0.53755">
        <ele>1543.377</ele>
        <time>2021-02-27T11:54:22Z</time>
      </trkpt>
      <trkpt lat="42.98156" lon="0.53755">
        <ele>1543.371</ele>
        <time>2021-02-27T11:54:24Z</time>
      </trkpt>
      <trkpt lat="42.98156" lon="0.53754">
        <ele>1543.412</ele>
        <time>2021-02-27T11:54:26Z</time>
      </trkpt>
      <trkpt lat="42.98156" lon="0.53754">
        <ele>1543.405</ele>
        <time>2021-02-27T11:54:28Z</time>
      </trkpt>
      <trkpt lat="42.98156" lon="0.53754">
        <ele>1543.406</ele>
        <time>2021-02-27T11:54:30Z</time>
      </trkpt>
      <trkpt lat="42.98156" lon="0.53754">
        <ele>1543.409</ele>
        <time>2021-02-27T11:54:32Z</time>
      </trkpt>
      <trkpt lat="42.98156" lon="0.53754">
        <ele>1543.408</ele>
        <time>2021-02-27T11:54:34Z</time>
      </trkpt>
      <trkpt lat="42.98156" lon="0.53754">
        <ele>1543.41</ele>
        <time>2021-02-27T11:54:36Z</time>
      </trkpt>
      <trkpt lat="42.98156" lon="0.53754">
        <ele>1543.412</ele>
        <time>2021-02-27T11:54:38Z</time>
      </trkpt>
      <trkpt lat="42.98156" lon="0.53754">
        <ele>1543.411</ele>
        <time>2021-02-27T11:54:40Z</time>
      </trkpt>
      <trkpt lat="42.98156" lon="0.53754">
        <ele>1543.412</ele>
        <time>2021-02-27T11:54:42Z</time>
      </trkpt>
      <trkpt lat="42.98156" lon="0.53754">
        <ele>1543.415</ele>
        <time>2021-02-27T11:54:44Z</time>
      </trkpt>
      <trkpt lat="42.98156" lon="0.53754">
        <ele>1543.413</ele>
        <time>2021-02-27T11:54:46Z</time>
      </trkpt>
      <trkpt lat="42.98156" lon="0.53754">
        <ele>1543.411</ele>
        <time>2021-02-27T11:54:48Z</time>
      </trkpt>
      <trkpt lat="42.98156" lon="0.53754">
        <ele>1543.41</ele>
        <time>2021-02-27T11:54:50Z</time>
      </trkpt>
      <trkpt lat="42.98156" lon="0.53754">
        <ele>1543.412</ele>
        <time>2021-02-27T11:54:52Z</time>
      </trkpt>
      <trkpt lat="42.98156" lon="0.53754">
        <ele>1543.414</ele>
        <time>2021-02-27T11:54:54Z</time>
      </trkpt>
      <trkpt lat="42.98156" lon="0.53754">
        <ele>1543.414</ele>
        <time>2021-02-27T11:54:56Z</time>
      </trkpt>
      <trkpt lat="42.98156" lon="0.53754">
        <ele>1543.415</ele>
        <time>2021-02-27T11:54:58Z</time>
      </trkpt>
      <trkpt lat="42.98156" lon="0.53754">
        <ele>1543.417</ele>
        <time>2021-02-27T11:55:00Z</time>
      </trkpt>
      <trkpt lat="42.98156" lon="0.53754">
        <ele>1543.422</ele>
        <time>2021-02-27T11:55:02Z</time>
      </trkpt>
      <trkpt lat="42.98156" lon="0.53754">
        <ele>1543.421</ele>
        <time>2021-02-27T11:55:04Z</time>
      </trkpt>
      <trkpt lat="42.98156" lon="0.53754">
        <ele>1543.425</ele>
        <time>2021-02-27T11:55:06Z</time>
      </trkpt>
      <trkpt lat="42.98156" lon="0.53754">
        <ele>1543.423</ele>
        <time>2021-02-27T11:55:08Z</time>
      </trkpt>
      <trkpt lat="42.98156" lon="0.53754">
        <ele>1543.426</ele>
        <time>2021-02-27T11:55:10Z</time>
      </trkpt>
      <trkpt lat="42.98156" lon="0.53754">
        <ele>1543.43</ele>
        <time>2021-02-27T11:55:12Z</time>
      </trkpt>
      <trkpt lat="42.98156" lon="0.53754">
        <ele>1543.432</ele>
        <time>2021-02-27T11:55:14Z</time>
      </trkpt>
      <trkpt lat="42.98156" lon="0.53754">
        <ele>1543.433</ele>
        <time>2021-02-27T11:55:16Z</time>
      </trkpt>
      <trkpt lat="42.98156" lon="0.53754">
        <ele>1543.47</ele>
        <time>2021-02-27T11:55:18Z</time>
      </trkpt>
      <trkpt lat="42.98157" lon="0.53754">
        <ele>1543.467</ele>
        <time>2021-02-27T11:55:20Z</time>
      </trkpt>
      <trkpt lat="42.98157" lon="0.53754">
        <ele>1543.474</ele>
        <time>2021-02-27T11:55:22Z</time>
      </trkpt>
      <trkpt lat="42.98157" lon="0.53754">
        <ele>1543.478</ele>
        <time>2021-02-27T11:55:24Z</time>
      </trkpt>
      <trkpt lat="42.98157" lon="0.53754">
        <ele>1543.482</ele>
        <time>2021-02-27T11:55:26Z</time>
      </trkpt>
      <trkpt lat="42.98156" lon="0.53755">
        <ele>1543.572</ele>
        <time>2021-02-27T11:55:28Z</time>
      </trkpt>
      <trkpt lat="42.98156" lon="0.53755">
        <ele>1543.566</ele>
        <time>2021-02-27T11:55:30Z</time>
      </trkpt>
      <trkpt lat="42.98156" lon="0.53755">
        <ele>1543.565</ele>
        <time>2021-02-27T11:55:32Z</time>
      </trkpt>
      <trkpt lat="42.98156" lon="0.53755">
        <ele>1543.462</ele>
        <time>2021-02-27T11:55:34Z</time>
      </trkpt>
      <trkpt lat="42.98156" lon="0.53754">
        <ele>1543.712</ele>
        <time>2021-02-27T11:55:36Z</time>
      </trkpt>
      <trkpt lat="42.98156" lon="0.53755">
        <ele>1544.004</ele>
        <time>2021-02-27T11:55:38Z</time>
      </trkpt>
      <trkpt lat="42.98156" lon="0.53755">
        <ele>1544.012</ele>
        <time>2021-02-27T11:55:40Z</time>
      </trkpt>
      <trkpt lat="42.98156" lon="0.53755">
        <ele>1544.012</ele>
        <time>2021-02-27T11:55:42Z</time>
      </trkpt>
      <trkpt lat="42.98156" lon="0.53755">
        <ele>1544.426</ele>
        <time>2021-02-27T11:55:44Z</time>
      </trkpt>
      <trkpt lat="42.98156" lon="0.53755">
        <ele>1544.415</ele>
        <time>2021-02-27T11:55:46Z</time>
      </trkpt>
      <trkpt lat="42.98156" lon="0.53755">
        <ele>1544.42</ele>
        <time>2021-02-27T11:55:48Z</time>
      </trkpt>
      <trkpt lat="42.98156" lon="0.53755">
        <ele>1544.421</ele>
        <time>2021-02-27T11:55:50Z</time>
      </trkpt>
      <trkpt lat="42.98156" lon="0.53755">
        <ele>1544.424</ele>
        <time>2021-02-27T11:55:52Z</time>
      </trkpt>
      <trkpt lat="42.98156" lon="0.53755">
        <ele>1544.425</ele>
        <time>2021-02-27T11:55:54Z</time>
      </trkpt>
      <trkpt lat="42.98156" lon="0.53755">
        <ele>1544.426</ele>
        <time>2021-02-27T11:55:56Z</time>
      </trkpt>
      <trkpt lat="42.98156" lon="0.53755">
        <ele>1544.282</ele>
        <time>2021-02-27T11:55:58Z</time>
      </trkpt>
      <trkpt lat="42.98156" lon="0.53755">
        <ele>1544.197</ele>
        <time>2021-02-27T11:56:00Z</time>
      </trkpt>
      <trkpt lat="42.98156" lon="0.53754">
        <ele>1544.25</ele>
        <time>2021-02-27T11:56:02Z</time>
      </trkpt>
      <trkpt lat="42.98156" lon="0.53755">
        <ele>1544.246</ele>
        <time>2021-02-27T11:56:04Z</time>
      </trkpt>
      <trkpt lat="42.98156" lon="0.53755">
        <ele>1544.437</ele>
        <time>2021-02-27T11:56:06Z</time>
      </trkpt>
      <trkpt lat="42.98156" lon="0.53755">
        <ele>1544.437</ele>
        <time>2021-02-27T11:56:08Z</time>
      </trkpt>
      <trkpt lat="42.98156" lon="0.53755">
        <ele>1544.439</ele>
        <time>2021-02-27T11:56:10Z</time>
      </trkpt>
      <trkpt lat="42.98156" lon="0.53755">
        <ele>1544.44</ele>
        <time>2021-02-27T11:56:12Z</time>
      </trkpt>
      <trkpt lat="42.98156" lon="0.53755">
        <ele>1544.442</ele>
        <time>2021-02-27T11:56:14Z</time>
      </trkpt>
      <trkpt lat="42.98156" lon="0.53755">
        <ele>1544.442</ele>
        <time>2021-02-27T11:56:16Z</time>
      </trkpt>
      <trkpt lat="42.98156" lon="0.53755">
        <ele>1544.444</ele>
        <time>2021-02-27T11:56:18Z</time>
      </trkpt>
      <trkpt lat="42.98156" lon="0.53755">
        <ele>1544.443</ele>
        <time>2021-02-27T11:56:20Z</time>
      </trkpt>
      <trkpt lat="42.98156" lon="0.53755">
        <ele>1544.445</ele>
        <time>2021-02-27T11:56:22Z</time>
      </trkpt>
      <trkpt lat="42.98156" lon="0.53755">
        <ele>1544.446</ele>
        <time>2021-02-27T11:56:24Z</time>
      </trkpt>
      <trkpt lat="42.98156" lon="0.53755">
        <ele>1544.446</ele>
        <time>2021-02-27T11:56:27Z</time>
      </trkpt>
      <trkpt lat="42.98156" lon="0.53755">
        <ele>1544.45</ele>
        <time>2021-02-27T11:56:29Z</time>
      </trkpt>
      <trkpt lat="42.98156" lon="0.53755">
        <ele>1544.513</ele>
        <time>2021-02-27T11:56:31Z</time>
      </trkpt>
      <trkpt lat="42.98156" lon="0.53755">
        <ele>1544.742</ele>
        <time>2021-02-27T11:56:33Z</time>
      </trkpt>
      <trkpt lat="42.98156" lon="0.53755">
        <ele>1544.751</ele>
        <time>2021-02-27T11:56:35Z</time>
      </trkpt>
      <trkpt lat="42.98156" lon="0.53755">
        <ele>1544.912</ele>
        <time>2021-02-27T11:56:37Z</time>
      </trkpt>
      <trkpt lat="42.98156" lon="0.53755">
        <ele>1544.911</ele>
        <time>2021-02-27T11:56:39Z</time>
      </trkpt>
      <trkpt lat="42.98156" lon="0.53755">
        <ele>1544.909</ele>
        <time>2021-02-27T11:56:41Z</time>
      </trkpt>
      <trkpt lat="42.98156" lon="0.53755">
        <ele>1544.907</ele>
        <time>2021-02-27T11:56:43Z</time>
      </trkpt>
      <trkpt lat="42.98156" lon="0.53755">
        <ele>1544.906</ele>
        <time>2021-02-27T11:56:45Z</time>
      </trkpt>
      <trkpt lat="42.98156" lon="0.53755">
        <ele>1544.907</ele>
        <time>2021-02-27T11:56:47Z</time>
      </trkpt>
      <trkpt lat="42.98156" lon="0.53755">
        <ele>1544.907</ele>
        <time>2021-02-27T11:56:49Z</time>
      </trkpt>
      <trkpt lat="42.98156" lon="0.53755">
        <ele>1544.906</ele>
        <time>2021-02-27T11:56:51Z</time>
      </trkpt>
      <trkpt lat="42.98156" lon="0.53755">
        <ele>1545.152</ele>
        <time>2021-02-27T11:56:53Z</time>
      </trkpt>
      <trkpt lat="42.98156" lon="0.53755">
        <ele>1544.95</ele>
        <time>2021-02-27T11:56:55Z</time>
      </trkpt>
      <trkpt lat="42.98156" lon="0.53755">
        <ele>1544.941</ele>
        <time>2021-02-27T11:56:57Z</time>
      </trkpt>
      <trkpt lat="42.98156" lon="0.53755">
        <ele>1544.975</ele>
        <time>2021-02-27T11:56:59Z</time>
      </trkpt>
      <trkpt lat="42.98156" lon="0.53755">
        <ele>1544.979</ele>
        <time>2021-02-27T11:57:01Z</time>
      </trkpt>
      <trkpt lat="42.98156" lon="0.53755">
        <ele>1544.979</ele>
        <time>2021-02-27T11:57:03Z</time>
      </trkpt>
      <trkpt lat="42.98156" lon="0.53755">
        <ele>1544.978</ele>
        <time>2021-02-27T11:57:05Z</time>
      </trkpt>
      <trkpt lat="42.98156" lon="0.53755">
        <ele>1544.978</ele>
        <time>2021-02-27T11:57:07Z</time>
      </trkpt>
      <trkpt lat="42.98156" lon="0.53755">
        <ele>1544.975</ele>
        <time>2021-02-27T11:57:09Z</time>
      </trkpt>
      <trkpt lat="42.98156" lon="0.53755">
        <ele>1544.977</ele>
        <time>2021-02-27T11:57:11Z</time>
      </trkpt>
      <trkpt lat="42.98156" lon="0.53755">
        <ele>1544.976</ele>
        <time>2021-02-27T11:57:13Z</time>
      </trkpt>
      <trkpt lat="42.98156" lon="0.53755">
        <ele>1544.978</ele>
        <time>2021-02-27T11:57:15Z</time>
      </trkpt>
      <trkpt lat="42.98156" lon="0.53755">
        <ele>1544.976</ele>
        <time>2021-02-27T11:57:17Z</time>
      </trkpt>
      <trkpt lat="42.98156" lon="0.53755">
        <ele>1544.976</ele>
        <time>2021-02-27T11:57:19Z</time>
      </trkpt>
      <trkpt lat="42.98156" lon="0.53755">
        <ele>1544.978</ele>
        <time>2021-02-27T11:57:21Z</time>
      </trkpt>
      <trkpt lat="42.98156" lon="0.53755">
        <ele>1544.977</ele>
        <time>2021-02-27T11:57:23Z</time>
      </trkpt>
      <trkpt lat="42.98156" lon="0.53755">
        <ele>1544.976</ele>
        <time>2021-02-27T11:57:25Z</time>
      </trkpt>
      <trkpt lat="42.98156" lon="0.53755">
        <ele>1544.973</ele>
        <time>2021-02-27T11:57:27Z</time>
      </trkpt>
      <trkpt lat="42.98156" lon="0.53755">
        <ele>1544.974</ele>
        <time>2021-02-27T11:57:29Z</time>
      </trkpt>
      <trkpt lat="42.98156" lon="0.53755">
        <ele>1544.942</ele>
        <time>2021-02-27T11:57:31Z</time>
      </trkpt>
      <trkpt lat="42.98156" lon="0.53755">
        <ele>1544.944</ele>
        <time>2021-02-27T11:57:33Z</time>
      </trkpt>
      <trkpt lat="42.98156" lon="0.53755">
        <ele>1544.945</ele>
        <time>2021-02-27T11:57:35Z</time>
      </trkpt>
      <trkpt lat="42.98156" lon="0.53755">
        <ele>1544.945</ele>
        <time>2021-02-27T11:57:37Z</time>
      </trkpt>
      <trkpt lat="42.98156" lon="0.53755">
        <ele>1544.961</ele>
        <time>2021-02-27T11:57:39Z</time>
      </trkpt>
      <trkpt lat="42.98156" lon="0.53755">
        <ele>1544.964</ele>
        <time>2021-02-27T11:57:41Z</time>
      </trkpt>
      <trkpt lat="42.98156" lon="0.53755">
        <ele>1544.965</ele>
        <time>2021-02-27T11:57:43Z</time>
      </trkpt>
      <trkpt lat="42.98156" lon="0.53755">
        <ele>1544.968</ele>
        <time>2021-02-27T11:57:45Z</time>
      </trkpt>
      <trkpt lat="42.98156" lon="0.53755">
        <ele>1544.97</ele>
        <time>2021-02-27T11:57:47Z</time>
      </trkpt>
      <trkpt lat="42.98156" lon="0.53755">
        <ele>1544.972</ele>
        <time>2021-02-27T11:57:49Z</time>
      </trkpt>
      <trkpt lat="42.98156" lon="0.53755">
        <ele>1544.974</ele>
        <time>2021-02-27T11:57:51Z</time>
      </trkpt>
      <trkpt lat="42.98156" lon="0.53755">
        <ele>1544.752</ele>
        <time>2021-02-27T11:57:53Z</time>
      </trkpt>
      <trkpt lat="42.98156" lon="0.53755">
        <ele>1544.768</ele>
        <time>2021-02-27T11:57:55Z</time>
      </trkpt>
      <trkpt lat="42.98156" lon="0.53755">
        <ele>1544.767</ele>
        <time>2021-02-27T11:57:57Z</time>
      </trkpt>
      <trkpt lat="42.98156" lon="0.53755">
        <ele>1544.767</ele>
        <time>2021-02-27T11:57:59Z</time>
      </trkpt>
      <trkpt lat="42.98156" lon="0.53755">
        <ele>1544.768</ele>
        <time>2021-02-27T11:58:01Z</time>
      </trkpt>
      <trkpt lat="42.98156" lon="0.53755">
        <ele>1544.769</ele>
        <time>2021-02-27T11:58:03Z</time>
      </trkpt>
      <trkpt lat="42.98156" lon="0.53755">
        <ele>1544.769</ele>
        <time>2021-02-27T11:58:05Z</time>
      </trkpt>
      <trkpt lat="42.98156" lon="0.53755">
        <ele>1544.772</ele>
        <time>2021-02-27T11:58:07Z</time>
      </trkpt>
      <trkpt lat="42.98156" lon="0.53755">
        <ele>1544.772</ele>
        <time>2021-02-27T11:58:09Z</time>
      </trkpt>
      <trkpt lat="42.98156" lon="0.53755">
        <ele>1544.772</ele>
        <time>2021-02-27T11:58:10Z</time>
      </trkpt>
      <trkpt lat="42.98156" lon="0.53755">
        <ele>1544.773</ele>
        <time>2021-02-27T11:58:13Z</time>
      </trkpt>
      <trkpt lat="42.98156" lon="0.53755">
        <ele>1544.77</ele>
        <time>2021-02-27T11:58:16Z</time>
      </trkpt>
      <trkpt lat="42.98156" lon="0.53755">
        <ele>1544.767</ele>
        <time>2021-02-27T11:58:18Z</time>
      </trkpt>
      <trkpt lat="42.98156" lon="0.53755">
        <ele>1544.764</ele>
        <time>2021-02-27T11:58:20Z</time>
      </trkpt>
      <trkpt lat="42.98156" lon="0.53755">
        <ele>1544.76</ele>
        <time>2021-02-27T11:58:22Z</time>
      </trkpt>
      <trkpt lat="42.98156" lon="0.53755">
        <ele>1544.761</ele>
        <time>2021-02-27T11:58:24Z</time>
      </trkpt>
      <trkpt lat="42.98156" lon="0.53755">
        <ele>1544.759</ele>
        <time>2021-02-27T11:58:26Z</time>
      </trkpt>
      <trkpt lat="42.98156" lon="0.53755">
        <ele>1544.757</ele>
        <time>2021-02-27T11:58:28Z</time>
      </trkpt>
      <trkpt lat="42.98156" lon="0.53755">
        <ele>1544.758</ele>
        <time>2021-02-27T11:58:30Z</time>
      </trkpt>
      <trkpt lat="42.98156" lon="0.53755">
        <ele>1544.757</ele>
        <time>2021-02-27T11:58:32Z</time>
      </trkpt>
      <trkpt lat="42.98156" lon="0.53755">
        <ele>1544.757</ele>
        <time>2021-02-27T11:58:34Z</time>
      </trkpt>
      <trkpt lat="42.98156" lon="0.53755">
        <ele>1544.754</ele>
        <time>2021-02-27T11:58:35Z</time>
      </trkpt>
      <trkpt lat="42.98156" lon="0.53755">
        <ele>1544.753</ele>
        <time>2021-02-27T11:58:38Z</time>
      </trkpt>
      <trkpt lat="42.98156" lon="0.53755">
        <ele>1544.748</ele>
        <time>2021-02-27T11:58:40Z</time>
      </trkpt>
      <trkpt lat="42.98156" lon="0.53755">
        <ele>1544.583</ele>
        <time>2021-02-27T11:58:42Z</time>
      </trkpt>
      <trkpt lat="42.98156" lon="0.53755">
        <ele>1544.797</ele>
        <time>2021-02-27T11:58:44Z</time>
      </trkpt>
      <trkpt lat="42.98156" lon="0.53755">
        <ele>1544.705</ele>
        <time>2021-02-27T11:58:46Z</time>
      </trkpt>
      <trkpt lat="42.98156" lon="0.53755">
        <ele>1544.706</ele>
        <time>2021-02-27T11:58:48Z</time>
      </trkpt>
      <trkpt lat="42.98156" lon="0.53755">
        <ele>1544.704</ele>
        <time>2021-02-27T11:58:50Z</time>
      </trkpt>
      <trkpt lat="42.98156" lon="0.53755">
        <ele>1544.703</ele>
        <time>2021-02-27T11:58:52Z</time>
      </trkpt>
      <trkpt lat="42.98156" lon="0.53755">
        <ele>1544.704</ele>
        <time>2021-02-27T11:58:54Z</time>
      </trkpt>
      <trkpt lat="42.98156" lon="0.53755">
        <ele>1544.704</ele>
        <time>2021-02-27T11:58:56Z</time>
      </trkpt>
      <trkpt lat="42.98156" lon="0.53755">
        <ele>1544.702</ele>
        <time>2021-02-27T11:58:58Z</time>
      </trkpt>
      <trkpt lat="42.98156" lon="0.53755">
        <ele>1544.703</ele>
        <time>2021-02-27T11:59:00Z</time>
      </trkpt>
      <trkpt lat="42.98156" lon="0.53755">
        <ele>1544.703</ele>
        <time>2021-02-27T11:59:02Z</time>
      </trkpt>
      <trkpt lat="42.98156" lon="0.53755">
        <ele>1544.827</ele>
        <time>2021-02-27T11:59:04Z</time>
      </trkpt>
      <trkpt lat="42.98156" lon="0.53756">
        <ele>1544.62</ele>
        <time>2021-02-27T11:59:06Z</time>
      </trkpt>
      <trkpt lat="42.98156" lon="0.53756">
        <ele>1544.627</ele>
        <time>2021-02-27T11:59:08Z</time>
      </trkpt>
      <trkpt lat="42.98156" lon="0.53756">
        <ele>1544.629</ele>
        <time>2021-02-27T11:59:10Z</time>
      </trkpt>
      <trkpt lat="42.98156" lon="0.53756">
        <ele>1544.63</ele>
        <time>2021-02-27T11:59:12Z</time>
      </trkpt>
      <trkpt lat="42.98156" lon="0.53756">
        <ele>1544.631</ele>
        <time>2021-02-27T11:59:14Z</time>
      </trkpt>
      <trkpt lat="42.98156" lon="0.53756">
        <ele>1544.629</ele>
        <time>2021-02-27T11:59:16Z</time>
      </trkpt>
      <trkpt lat="42.98156" lon="0.53756">
        <ele>1544.629</ele>
        <time>2021-02-27T11:59:18Z</time>
      </trkpt>
      <trkpt lat="42.98156" lon="0.53756">
        <ele>1544.629</ele>
        <time>2021-02-27T11:59:20Z</time>
      </trkpt>
      <trkpt lat="42.98156" lon="0.53756">
        <ele>1544.632</ele>
        <time>2021-02-27T11:59:22Z</time>
      </trkpt>
      <trkpt lat="42.98156" lon="0.53756">
        <ele>1544.63</ele>
        <time>2021-02-27T11:59:24Z</time>
      </trkpt>
      <trkpt lat="42.98156" lon="0.53756">
        <ele>1544.395</ele>
        <time>2021-02-27T11:59:26Z</time>
      </trkpt>
      <trkpt lat="42.98156" lon="0.53756">
        <ele>1544.49</ele>
        <time>2021-02-27T11:59:28Z</time>
      </trkpt>
      <trkpt lat="42.98156" lon="0.53756">
        <ele>1544.493</ele>
        <time>2021-02-27T11:59:30Z</time>
      </trkpt>
      <trkpt lat="42.98156" lon="0.53756">
        <ele>1544.495</ele>
        <time>2021-02-27T11:59:32Z</time>
      </trkpt>
      <trkpt lat="42.98156" lon="0.53756">
        <ele>1544.493</ele>
        <time>2021-02-27T11:59:34Z</time>
      </trkpt>
      <trkpt lat="42.98156" lon="0.53756">
        <ele>1544.491</ele>
        <time>2021-02-27T11:59:36Z</time>
      </trkpt>
      <trkpt lat="42.98156" lon="0.53756">
        <ele>1544.488</ele>
        <time>2021-02-27T11:59:38Z</time>
      </trkpt>
      <trkpt lat="42.98156" lon="0.53755">
        <ele>1544.574</ele>
        <time>2021-02-27T11:59:40Z</time>
      </trkpt>
      <trkpt lat="42.98156" lon="0.53755">
        <ele>1544.565</ele>
        <time>2021-02-27T11:59:42Z</time>
      </trkpt>
      <trkpt lat="42.98156" lon="0.53755">
        <ele>1545.062</ele>
        <time>2021-02-27T11:59:45Z</time>
      </trkpt>
      <trkpt lat="42.98156" lon="0.53755">
        <ele>1544.982</ele>
        <time>2021-02-27T11:59:47Z</time>
      </trkpt>
      <trkpt lat="42.98156" lon="0.53755">
        <ele>1544.991</ele>
        <time>2021-02-27T11:59:49Z</time>
      </trkpt>
      <trkpt lat="42.98156" lon="0.53755">
        <ele>1544.991</ele>
        <time>2021-02-27T11:59:51Z</time>
      </trkpt>
      <trkpt lat="42.98156" lon="0.53755">
        <ele>1544.995</ele>
        <time>2021-02-27T11:59:53Z</time>
      </trkpt>
      <trkpt lat="42.98156" lon="0.53755">
        <ele>1544.998</ele>
        <time>2021-02-27T11:59:55Z</time>
      </trkpt>
      <trkpt lat="42.98156" lon="0.53755">
        <ele>1544.997</ele>
        <time>2021-02-27T11:59:57Z</time>
      </trkpt>
      <trkpt lat="42.98156" lon="0.53755">
        <ele>1544.993</ele>
        <time>2021-02-27T11:59:59Z</time>
      </trkpt>
      <trkpt lat="42.98156" lon="0.53755">
        <ele>1544.993</ele>
        <time>2021-02-27T12:00:01Z</time>
      </trkpt>
      <trkpt lat="42.98156" lon="0.53755">
        <ele>1544.993</ele>
        <time>2021-02-27T12:00:03Z</time>
      </trkpt>
      <trkpt lat="42.98156" lon="0.53755">
        <ele>1544.993</ele>
        <time>2021-02-27T12:00:05Z</time>
      </trkpt>
      <trkpt lat="42.98156" lon="0.53755">
        <ele>1544.991</ele>
        <time>2021-02-27T12:00:07Z</time>
      </trkpt>
      <trkpt lat="42.98156" lon="0.53755">
        <ele>1544.99</ele>
        <time>2021-02-27T12:00:09Z</time>
      </trkpt>
      <trkpt lat="42.98156" lon="0.53755">
        <ele>1544.993</ele>
        <time>2021-02-27T12:00:11Z</time>
      </trkpt>
      <trkpt lat="42.98156" lon="0.53755">
        <ele>1544.99</ele>
        <time>2021-02-27T12:00:13Z</time>
      </trkpt>
      <trkpt lat="42.98156" lon="0.53755">
        <ele>1544.988</ele>
        <time>2021-02-27T12:00:15Z</time>
      </trkpt>
      <trkpt lat="42.98156" lon="0.53755">
        <ele>1545.117</ele>
        <time>2021-02-27T12:00:17Z</time>
      </trkpt>
      <trkpt lat="42.98156" lon="0.53756">
        <ele>1545.116</ele>
        <time>2021-02-27T12:00:19Z</time>
      </trkpt>
      <trkpt lat="42.98156" lon="0.53756">
        <ele>1545.114</ele>
        <time>2021-02-27T12:00:21Z</time>
      </trkpt>
      <trkpt lat="42.98156" lon="0.53756">
        <ele>1545.117</ele>
        <time>2021-02-27T12:00:23Z</time>
      </trkpt>
      <trkpt lat="42.98156" lon="0.53756">
        <ele>1545.119</ele>
        <time>2021-02-27T12:00:25Z</time>
      </trkpt>
      <trkpt lat="42.98156" lon="0.53756">
        <ele>1545.119</ele>
        <time>2021-02-27T12:00:27Z</time>
      </trkpt>
      <trkpt lat="42.98156" lon="0.53756">
        <ele>1545.117</ele>
        <time>2021-02-27T12:00:29Z</time>
      </trkpt>
      <trkpt lat="42.98156" lon="0.53756">
        <ele>1545.114</ele>
        <time>2021-02-27T12:00:31Z</time>
      </trkpt>
      <trkpt lat="42.98156" lon="0.53756">
        <ele>1545.115</ele>
        <time>2021-02-27T12:00:33Z</time>
      </trkpt>
      <trkpt lat="42.98156" lon="0.53756">
        <ele>1545.115</ele>
        <time>2021-02-27T12:00:35Z</time>
      </trkpt>
      <trkpt lat="42.98156" lon="0.53756">
        <ele>1545.116</ele>
        <time>2021-02-27T12:00:37Z</time>
      </trkpt>
      <trkpt lat="42.98156" lon="0.53756">
        <ele>1545.116</ele>
        <time>2021-02-27T12:00:39Z</time>
      </trkpt>
      <trkpt lat="42.98156" lon="0.53756">
        <ele>1545.114</ele>
        <time>2021-02-27T12:00:41Z</time>
      </trkpt>
      <trkpt lat="42.98156" lon="0.53756">
        <ele>1545.112</ele>
        <time>2021-02-27T12:00:43Z</time>
      </trkpt>
      <trkpt lat="42.98156" lon="0.53756">
        <ele>1545.111</ele>
        <time>2021-02-27T12:00:45Z</time>
      </trkpt>
      <trkpt lat="42.98156" lon="0.53756">
        <ele>1545.111</ele>
        <time>2021-02-27T12:00:47Z</time>
      </trkpt>
      <trkpt lat="42.98156" lon="0.53756">
        <ele>1545.11</ele>
        <time>2021-02-27T12:00:49Z</time>
      </trkpt>
      <trkpt lat="42.98156" lon="0.53756">
        <ele>1545.109</ele>
        <time>2021-02-27T12:00:51Z</time>
      </trkpt>
      <trkpt lat="42.98156" lon="0.53756">
        <ele>1545.108</ele>
        <time>2021-02-27T12:00:53Z</time>
      </trkpt>
      <trkpt lat="42.98156" lon="0.53756">
        <ele>1545.107</ele>
        <time>2021-02-27T12:00:55Z</time>
      </trkpt>
      <trkpt lat="42.98156" lon="0.53756">
        <ele>1545.106</ele>
        <time>2021-02-27T12:00:57Z</time>
      </trkpt>
      <trkpt lat="42.98156" lon="0.53756">
        <ele>1545.104</ele>
        <time>2021-02-27T12:00:59Z</time>
      </trkpt>
      <trkpt lat="42.98156" lon="0.53756">
        <ele>1545.107</ele>
        <time>2021-02-27T12:01:01Z</time>
      </trkpt>
      <trkpt lat="42.98156" lon="0.53756">
        <ele>1545.108</ele>
        <time>2021-02-27T12:01:04Z</time>
      </trkpt>
      <trkpt lat="42.98156" lon="0.53756">
        <ele>1545.107</ele>
        <time>2021-02-27T12:01:06Z</time>
      </trkpt>
      <trkpt lat="42.98156" lon="0.53756">
        <ele>1545.108</ele>
        <time>2021-02-27T12:01:08Z</time>
      </trkpt>
      <trkpt lat="42.98156" lon="0.53756">
        <ele>1545.107</ele>
        <time>2021-02-27T12:01:10Z</time>
      </trkpt>
      <trkpt lat="42.98156" lon="0.53755">
        <ele>1545.062</ele>
        <time>2021-02-27T12:01:12Z</time>
      </trkpt>
      <trkpt lat="42.98155" lon="0.53754">
        <ele>1544.607</ele>
        <time>2021-02-27T12:01:14Z</time>
      </trkpt>
      <trkpt lat="42.98154" lon="0.53754">
        <ele>1544.546</ele>
        <time>2021-02-27T12:01:16Z</time>
      </trkpt>
      <trkpt lat="42.98153" lon="0.53753">
        <ele>1544.234</ele>
        <time>2021-02-27T12:01:18Z</time>
      </trkpt>
      <trkpt lat="42.98152" lon="0.53753">
        <ele>1543.922</ele>
        <time>2021-02-27T12:01:20Z</time>
      </trkpt>
      <trkpt lat="42.98152" lon="0.53753">
        <ele>1543.81</ele>
        <time>2021-02-27T12:01:22Z</time>
      </trkpt>
      <trkpt lat="42.98152" lon="0.53753">
        <ele>1543.811</ele>
        <time>2021-02-27T12:01:24Z</time>
      </trkpt>
      <trkpt lat="42.98152" lon="0.53753">
        <ele>1543.813</ele>
        <time>2021-02-27T12:01:26Z</time>
      </trkpt>
      <trkpt lat="42.98152" lon="0.53753">
        <ele>1543.81</ele>
        <time>2021-02-27T12:01:28Z</time>
      </trkpt>
      <trkpt lat="42.98152" lon="0.53753">
        <ele>1543.811</ele>
        <time>2021-02-27T12:01:30Z</time>
      </trkpt>
      <trkpt lat="42.98152" lon="0.53753">
        <ele>1543.812</ele>
        <time>2021-02-27T12:01:32Z</time>
      </trkpt>
      <trkpt lat="42.98152" lon="0.53753">
        <ele>1543.809</ele>
        <time>2021-02-27T12:01:34Z</time>
      </trkpt>
      <trkpt lat="42.98151" lon="0.53753">
        <ele>1543.574</ele>
        <time>2021-02-27T12:01:36Z</time>
      </trkpt>
      <trkpt lat="42.98152" lon="0.53754">
        <ele>1543.52</ele>
        <time>2021-02-27T12:01:38Z</time>
      </trkpt>
      <trkpt lat="42.98152" lon="0.53756">
        <ele>1543.633</ele>
        <time>2021-02-27T12:01:40Z</time>
      </trkpt>
      <trkpt lat="42.98152" lon="0.53758">
        <ele>1543.54</ele>
        <time>2021-02-27T12:01:42Z</time>
      </trkpt>
      <trkpt lat="42.98152" lon="0.5376">
        <ele>1543.921</ele>
        <time>2021-02-27T12:01:44Z</time>
      </trkpt>
      <trkpt lat="42.98152" lon="0.53762">
        <ele>1544.417</ele>
        <time>2021-02-27T12:01:46Z</time>
      </trkpt>
      <trkpt lat="42.98152" lon="0.53763">
        <ele>1544.638</ele>
        <time>2021-02-27T12:01:48Z</time>
      </trkpt>
      <trkpt lat="42.98153" lon="0.53764">
        <ele>1544.947</ele>
        <time>2021-02-27T12:01:50Z</time>
      </trkpt>
      <trkpt lat="42.98153" lon="0.5376">
        <ele>1545.121</ele>
        <time>2021-02-27T12:01:52Z</time>
      </trkpt>
      <trkpt lat="42.98153" lon="0.53759">
        <ele>1545.042</ele>
        <time>2021-02-27T12:01:54Z</time>
      </trkpt>
      <trkpt lat="42.98153" lon="0.53759">
        <ele>1544.862</ele>
        <time>2021-02-27T12:01:56Z</time>
      </trkpt>
      <trkpt lat="42.98153" lon="0.53758">
        <ele>1545.442</ele>
        <time>2021-02-27T12:01:58Z</time>
      </trkpt>
      <trkpt lat="42.98153" lon="0.53758">
        <ele>1545.461</ele>
        <time>2021-02-27T12:02:00Z</time>
      </trkpt>
      <trkpt lat="42.98153" lon="0.53758">
        <ele>1545.416</ele>
        <time>2021-02-27T12:02:02Z</time>
      </trkpt>
      <trkpt lat="42.98153" lon="0.53758">
        <ele>1545.531</ele>
        <time>2021-02-27T12:02:04Z</time>
      </trkpt>
      <trkpt lat="42.98153" lon="0.53758">
        <ele>1545.504</ele>
        <time>2021-02-27T12:02:06Z</time>
      </trkpt>
      <trkpt lat="42.98153" lon="0.53758">
        <ele>1545.505</ele>
        <time>2021-02-27T12:02:08Z</time>
      </trkpt>
      <trkpt lat="42.98153" lon="0.53758">
        <ele>1545.505</ele>
        <time>2021-02-27T12:02:10Z</time>
      </trkpt>
      <trkpt lat="42.98153" lon="0.53758">
        <ele>1545.369</ele>
        <time>2021-02-27T12:02:12Z</time>
      </trkpt>
      <trkpt lat="42.98153" lon="0.53758">
        <ele>1545.365</ele>
        <time>2021-02-27T12:02:14Z</time>
      </trkpt>
      <trkpt lat="42.98153" lon="0.53758">
        <ele>1545.364</ele>
        <time>2021-02-27T12:02:16Z</time>
      </trkpt>
      <trkpt lat="42.98153" lon="0.53758">
        <ele>1545.365</ele>
        <time>2021-02-27T12:02:18Z</time>
      </trkpt>
      <trkpt lat="42.98153" lon="0.53758">
        <ele>1545.364</ele>
        <time>2021-02-27T12:02:20Z</time>
      </trkpt>
      <trkpt lat="42.98153" lon="0.53758">
        <ele>1545.357</ele>
        <time>2021-02-27T12:02:22Z</time>
      </trkpt>
      <trkpt lat="42.98153" lon="0.53758">
        <ele>1545.358</ele>
        <time>2021-02-27T12:02:24Z</time>
      </trkpt>
      <trkpt lat="42.98153" lon="0.53758">
        <ele>1545.357</ele>
        <time>2021-02-27T12:02:26Z</time>
      </trkpt>
      <trkpt lat="42.98153" lon="0.53758">
        <ele>1545.353</ele>
        <time>2021-02-27T12:02:28Z</time>
      </trkpt>
      <trkpt lat="42.98153" lon="0.53758">
        <ele>1545.349</ele>
        <time>2021-02-27T12:02:30Z</time>
      </trkpt>
      <trkpt lat="42.98153" lon="0.53758">
        <ele>1545.347</ele>
        <time>2021-02-27T12:02:32Z</time>
      </trkpt>
      <trkpt lat="42.98153" lon="0.53758">
        <ele>1545.485</ele>
        <time>2021-02-27T12:02:34Z</time>
      </trkpt>
      <trkpt lat="42.98153" lon="0.53758">
        <ele>1545.481</ele>
        <time>2021-02-27T12:02:36Z</time>
      </trkpt>
      <trkpt lat="42.98153" lon="0.53759">
        <ele>1545.363</ele>
        <time>2021-02-27T12:02:38Z</time>
      </trkpt>
      <trkpt lat="42.98153" lon="0.53762">
        <ele>1546.053</ele>
        <time>2021-02-27T12:02:40Z</time>
      </trkpt>
      <trkpt lat="42.98155" lon="0.53763">
        <ele>1545.831</ele>
        <time>2021-02-27T12:02:42Z</time>
      </trkpt>
      <trkpt lat="42.98155" lon="0.53763">
        <ele>1545.379</ele>
        <time>2021-02-27T12:02:44Z</time>
      </trkpt>
      <trkpt lat="42.98155" lon="0.53762">
        <ele>1545.376</ele>
        <time>2021-02-27T12:02:46Z</time>
      </trkpt>
      <trkpt lat="42.98155" lon="0.53762">
        <ele>1545.374</ele>
        <time>2021-02-27T12:02:48Z</time>
      </trkpt>
      <trkpt lat="42.98155" lon="0.53762">
        <ele>1545.372</ele>
        <time>2021-02-27T12:02:50Z</time>
      </trkpt>
      <trkpt lat="42.98155" lon="0.53762">
        <ele>1545.371</ele>
        <time>2021-02-27T12:02:52Z</time>
      </trkpt>
      <trkpt lat="42.98155" lon="0.53762">
        <ele>1545.37</ele>
        <time>2021-02-27T12:02:54Z</time>
      </trkpt>
      <trkpt lat="42.98155" lon="0.53762">
        <ele>1545.369</ele>
        <time>2021-02-27T12:02:56Z</time>
      </trkpt>
      <trkpt lat="42.98155" lon="0.53762">
        <ele>1545.367</ele>
        <time>2021-02-27T12:02:58Z</time>
      </trkpt>
      <trkpt lat="42.98155" lon="0.53762">
        <ele>1545.367</ele>
        <time>2021-02-27T12:03:00Z</time>
      </trkpt>
      <trkpt lat="42.98155" lon="0.53762">
        <ele>1545.366</ele>
        <time>2021-02-27T12:03:02Z</time>
      </trkpt>
      <trkpt lat="42.98155" lon="0.53762">
        <ele>1545.365</ele>
        <time>2021-02-27T12:03:04Z</time>
      </trkpt>
      <trkpt lat="42.98155" lon="0.53762">
        <ele>1545.364</ele>
        <time>2021-02-27T12:03:06Z</time>
      </trkpt>
      <trkpt lat="42.98155" lon="0.53763">
        <ele>1545.392</ele>
        <time>2021-02-27T12:03:08Z</time>
      </trkpt>
      <trkpt lat="42.98154" lon="0.53763">
        <ele>1545.398</ele>
        <time>2021-02-27T12:03:10Z</time>
      </trkpt>
      <trkpt lat="42.98154" lon="0.53763">
        <ele>1545.343</ele>
        <time>2021-02-27T12:03:12Z</time>
      </trkpt>
      <trkpt lat="42.98154" lon="0.53762">
        <ele>1545.342</ele>
        <time>2021-02-27T12:03:14Z</time>
      </trkpt>
      <trkpt lat="42.98154" lon="0.53762">
        <ele>1545.339</ele>
        <time>2021-02-27T12:03:16Z</time>
      </trkpt>
      <trkpt lat="42.98154" lon="0.53762">
        <ele>1544.975</ele>
        <time>2021-02-27T12:03:18Z</time>
      </trkpt>
      <trkpt lat="42.98154" lon="0.53763">
        <ele>1544.557</ele>
        <time>2021-02-27T12:03:20Z</time>
      </trkpt>
      <trkpt lat="42.98154" lon="0.53763">
        <ele>1544.248</ele>
        <time>2021-02-27T12:03:22Z</time>
      </trkpt>
      <trkpt lat="42.98153" lon="0.53763">
        <ele>1544.156</ele>
        <time>2021-02-27T12:03:24Z</time>
      </trkpt>
      <trkpt lat="42.98153" lon="0.53763">
        <ele>1544.154</ele>
        <time>2021-02-27T12:03:26Z</time>
      </trkpt>
      <trkpt lat="42.98153" lon="0.53763">
        <ele>1544.15</ele>
        <time>2021-02-27T12:03:28Z</time>
      </trkpt>
      <trkpt lat="42.98153" lon="0.53763">
        <ele>1544.145</ele>
        <time>2021-02-27T12:03:30Z</time>
      </trkpt>
      <trkpt lat="42.98153" lon="0.53763">
        <ele>1544.139</ele>
        <time>2021-02-27T12:03:32Z</time>
      </trkpt>
      <trkpt lat="42.98153" lon="0.53763">
        <ele>1544.136</ele>
        <time>2021-02-27T12:03:34Z</time>
      </trkpt>
      <trkpt lat="42.98153" lon="0.53763">
        <ele>1544.131</ele>
        <time>2021-02-27T12:03:36Z</time>
      </trkpt>
      <trkpt lat="42.98153" lon="0.53763">
        <ele>1544.128</ele>
        <time>2021-02-27T12:03:38Z</time>
      </trkpt>
      <trkpt lat="42.98153" lon="0.53763">
        <ele>1544.122</ele>
        <time>2021-02-27T12:03:40Z</time>
      </trkpt>
      <trkpt lat="42.98153" lon="0.53763">
        <ele>1544.118</ele>
        <time>2021-02-27T12:03:42Z</time>
      </trkpt>
      <trkpt lat="42.98153" lon="0.53763">
        <ele>1544.027</ele>
        <time>2021-02-27T12:03:44Z</time>
      </trkpt>
      <trkpt lat="42.98153" lon="0.53764">
        <ele>1543.579</ele>
        <time>2021-02-27T12:03:46Z</time>
      </trkpt>
      <trkpt lat="42.98153" lon="0.53764">
        <ele>1543.443</ele>
        <time>2021-02-27T12:03:48Z</time>
      </trkpt>
      <trkpt lat="42.98153" lon="0.53764">
        <ele>1543.428</ele>
        <time>2021-02-27T12:03:50Z</time>
      </trkpt>
      <trkpt lat="42.98153" lon="0.53764">
        <ele>1543.419</ele>
        <time>2021-02-27T12:03:52Z</time>
      </trkpt>
      <trkpt lat="42.98153" lon="0.53764">
        <ele>1543.413</ele>
        <time>2021-02-27T12:03:54Z</time>
      </trkpt>
      <trkpt lat="42.98153" lon="0.53764">
        <ele>1543.41</ele>
        <time>2021-02-27T12:03:56Z</time>
      </trkpt>
      <trkpt lat="42.98153" lon="0.53764">
        <ele>1543.408</ele>
        <time>2021-02-27T12:03:58Z</time>
      </trkpt>
      <trkpt lat="42.98153" lon="0.53764">
        <ele>1543.409</ele>
        <time>2021-02-27T12:04:00Z</time>
      </trkpt>
      <trkpt lat="42.98153" lon="0.53764">
        <ele>1543.409</ele>
        <time>2021-02-27T12:04:02Z</time>
      </trkpt>
      <trkpt lat="42.98153" lon="0.53764">
        <ele>1543.476</ele>
        <time>2021-02-27T12:04:04Z</time>
      </trkpt>
      <trkpt lat="42.98154" lon="0.53764">
        <ele>1543.439</ele>
        <time>2021-02-27T12:04:06Z</time>
      </trkpt>
      <trkpt lat="42.98154" lon="0.53764">
        <ele>1543.439</ele>
        <time>2021-02-27T12:04:08Z</time>
      </trkpt>
      <trkpt lat="42.98154" lon="0.53764">
        <ele>1543.438</ele>
        <time>2021-02-27T12:04:10Z</time>
      </trkpt>
      <trkpt lat="42.98154" lon="0.53764">
        <ele>1543.425</ele>
        <time>2021-02-27T12:04:12Z</time>
      </trkpt>
      <trkpt lat="42.98154" lon="0.53764">
        <ele>1543.42</ele>
        <time>2021-02-27T12:04:14Z</time>
      </trkpt>
      <trkpt lat="42.98154" lon="0.53764">
        <ele>1543.415</ele>
        <time>2021-02-27T12:04:16Z</time>
      </trkpt>
      <trkpt lat="42.98154" lon="0.53764">
        <ele>1543.413</ele>
        <time>2021-02-27T12:04:18Z</time>
      </trkpt>
      <trkpt lat="42.98154" lon="0.53764">
        <ele>1543.413</ele>
        <time>2021-02-27T12:04:20Z</time>
      </trkpt>
      <trkpt lat="42.98154" lon="0.53764">
        <ele>1543.411</ele>
        <time>2021-02-27T12:04:22Z</time>
      </trkpt>
      <trkpt lat="42.98153" lon="0.53763">
        <ele>1543.088</ele>
        <time>2021-02-27T12:04:24Z</time>
      </trkpt>
      <trkpt lat="42.98154" lon="0.53763">
        <ele>1542.983</ele>
        <time>2021-02-27T12:04:26Z</time>
      </trkpt>
      <trkpt lat="42.98154" lon="0.53763">
        <ele>1542.975</ele>
        <time>2021-02-27T12:04:28Z</time>
      </trkpt>
      <trkpt lat="42.98154" lon="0.53763">
        <ele>1542.973</ele>
        <time>2021-02-27T12:04:30Z</time>
      </trkpt>
      <trkpt lat="42.98154" lon="0.53763">
        <ele>1542.979</ele>
        <time>2021-02-27T12:04:32Z</time>
      </trkpt>
      <trkpt lat="42.98154" lon="0.53762">
        <ele>1542.793</ele>
        <time>2021-02-27T12:04:34Z</time>
      </trkpt>
      <trkpt lat="42.98154" lon="0.53762">
        <ele>1542.787</ele>
        <time>2021-02-27T12:04:36Z</time>
      </trkpt>
      <trkpt lat="42.98154" lon="0.53762">
        <ele>1542.782</ele>
        <time>2021-02-27T12:04:38Z</time>
      </trkpt>
      <trkpt lat="42.98154" lon="0.53762">
        <ele>1542.78</ele>
        <time>2021-02-27T12:04:40Z</time>
      </trkpt>
      <trkpt lat="42.98154" lon="0.53762">
        <ele>1542.78</ele>
        <time>2021-02-27T12:04:42Z</time>
      </trkpt>
      <trkpt lat="42.98154" lon="0.53762">
        <ele>1542.781</ele>
        <time>2021-02-27T12:04:44Z</time>
      </trkpt>
      <trkpt lat="42.98154" lon="0.53762">
        <ele>1542.785</ele>
        <time>2021-02-27T12:04:46Z</time>
      </trkpt>
      <trkpt lat="42.98154" lon="0.53762">
        <ele>1542.787</ele>
        <time>2021-02-27T12:04:48Z</time>
      </trkpt>
      <trkpt lat="42.98154" lon="0.53762">
        <ele>1542.788</ele>
        <time>2021-02-27T12:04:50Z</time>
      </trkpt>
      <trkpt lat="42.98154" lon="0.53762">
        <ele>1542.784</ele>
        <time>2021-02-27T12:04:52Z</time>
      </trkpt>
      <trkpt lat="42.98154" lon="0.53762">
        <ele>1542.775</ele>
        <time>2021-02-27T12:04:54Z</time>
      </trkpt>
      <trkpt lat="42.98154" lon="0.53762">
        <ele>1542.766</ele>
        <time>2021-02-27T12:04:56Z</time>
      </trkpt>
      <trkpt lat="42.98154" lon="0.53762">
        <ele>1542.712</ele>
        <time>2021-02-27T12:04:58Z</time>
      </trkpt>
      <trkpt lat="42.98154" lon="0.53762">
        <ele>1542.702</ele>
        <time>2021-02-27T12:05:00Z</time>
      </trkpt>
      <trkpt lat="42.98154" lon="0.53762">
        <ele>1542.695</ele>
        <time>2021-02-27T12:05:02Z</time>
      </trkpt>
      <trkpt lat="42.98154" lon="0.53762">
        <ele>1542.69</ele>
        <time>2021-02-27T12:05:04Z</time>
      </trkpt>
      <trkpt lat="42.98154" lon="0.53762">
        <ele>1542.686</ele>
        <time>2021-02-27T12:05:06Z</time>
      </trkpt>
      <trkpt lat="42.98154" lon="0.53762">
        <ele>1542.681</ele>
        <time>2021-02-27T12:05:08Z</time>
      </trkpt>
      <trkpt lat="42.98154" lon="0.53762">
        <ele>1542.676</ele>
        <time>2021-02-27T12:05:10Z</time>
      </trkpt>
      <trkpt lat="42.98154" lon="0.53762">
        <ele>1542.674</ele>
        <time>2021-02-27T12:05:12Z</time>
      </trkpt>
      <trkpt lat="42.98154" lon="0.53762">
        <ele>1542.672</ele>
        <time>2021-02-27T12:05:14Z</time>
      </trkpt>
      <trkpt lat="42.98154" lon="0.53762">
        <ele>1542.671</ele>
        <time>2021-02-27T12:05:16Z</time>
      </trkpt>
      <trkpt lat="42.98154" lon="0.53762">
        <ele>1542.672</ele>
        <time>2021-02-27T12:05:18Z</time>
      </trkpt>
      <trkpt lat="42.98154" lon="0.53762">
        <ele>1542.67</ele>
        <time>2021-02-27T12:05:20Z</time>
      </trkpt>
      <trkpt lat="42.98154" lon="0.53762">
        <ele>1542.67</ele>
        <time>2021-02-27T12:05:22Z</time>
      </trkpt>
      <trkpt lat="42.98154" lon="0.53762">
        <ele>1542.666</ele>
        <time>2021-02-27T12:05:24Z</time>
      </trkpt>
      <trkpt lat="42.98154" lon="0.53762">
        <ele>1542.664</ele>
        <time>2021-02-27T12:05:26Z</time>
      </trkpt>
      <trkpt lat="42.98154" lon="0.53762">
        <ele>1542.663</ele>
        <time>2021-02-27T12:05:28Z</time>
      </trkpt>
      <trkpt lat="42.98154" lon="0.53762">
        <ele>1542.662</ele>
        <time>2021-02-27T12:05:30Z</time>
      </trkpt>
      <trkpt lat="42.98154" lon="0.53762">
        <ele>1542.661</ele>
        <time>2021-02-27T12:05:32Z</time>
      </trkpt>
      <trkpt lat="42.98154" lon="0.53762">
        <ele>1542.659</ele>
        <time>2021-02-27T12:05:34Z</time>
      </trkpt>
      <trkpt lat="42.98154" lon="0.53762">
        <ele>1542.433</ele>
        <time>2021-02-27T12:05:36Z</time>
      </trkpt>
      <trkpt lat="42.98154" lon="0.53762">
        <ele>1542.313</ele>
        <time>2021-02-27T12:05:38Z</time>
      </trkpt>
      <trkpt lat="42.98154" lon="0.53761">
        <ele>1541.688</ele>
        <time>2021-02-27T12:05:40Z</time>
      </trkpt>
      <trkpt lat="42.98154" lon="0.53762">
        <ele>1541.67</ele>
        <time>2021-02-27T12:05:42Z</time>
      </trkpt>
      <trkpt lat="42.98154" lon="0.53762">
        <ele>1541.668</ele>
        <time>2021-02-27T12:05:44Z</time>
      </trkpt>
      <trkpt lat="42.98154" lon="0.53762">
        <ele>1541.666</ele>
        <time>2021-02-27T12:05:46Z</time>
      </trkpt>
      <trkpt lat="42.98154" lon="0.53762">
        <ele>1541.665</ele>
        <time>2021-02-27T12:05:48Z</time>
      </trkpt>
      <trkpt lat="42.98154" lon="0.53762">
        <ele>1541.66</ele>
        <time>2021-02-27T12:05:50Z</time>
      </trkpt>
      <trkpt lat="42.98154" lon="0.53762">
        <ele>1541.658</ele>
        <time>2021-02-27T12:05:52Z</time>
      </trkpt>
      <trkpt lat="42.98154" lon="0.53762">
        <ele>1541.66</ele>
        <time>2021-02-27T12:05:54Z</time>
      </trkpt>
      <trkpt lat="42.98154" lon="0.53762">
        <ele>1541.66</ele>
        <time>2021-02-27T12:05:56Z</time>
      </trkpt>
      <trkpt lat="42.98154" lon="0.53762">
        <ele>1541.662</ele>
        <time>2021-02-27T12:05:58Z</time>
      </trkpt>
      <trkpt lat="42.98154" lon="0.53762">
        <ele>1541.66</ele>
        <time>2021-02-27T12:06:00Z</time>
      </trkpt>
      <trkpt lat="42.98154" lon="0.53762">
        <ele>1541.659</ele>
        <time>2021-02-27T12:06:02Z</time>
      </trkpt>
      <trkpt lat="42.98154" lon="0.53762">
        <ele>1541.656</ele>
        <time>2021-02-27T12:06:04Z</time>
      </trkpt>
      <trkpt lat="42.98154" lon="0.53762">
        <ele>1541.655</ele>
        <time>2021-02-27T12:06:06Z</time>
      </trkpt>
      <trkpt lat="42.98154" lon="0.53762">
        <ele>1541.658</ele>
        <time>2021-02-27T12:06:08Z</time>
      </trkpt>
      <trkpt lat="42.98154" lon="0.53762">
        <ele>1541.66</ele>
        <time>2021-02-27T12:06:10Z</time>
      </trkpt>
      <trkpt lat="42.98154" lon="0.53762">
        <ele>1541.662</ele>
        <time>2021-02-27T12:06:12Z</time>
      </trkpt>
      <trkpt lat="42.98154" lon="0.53762">
        <ele>1541.661</ele>
        <time>2021-02-27T12:06:14Z</time>
      </trkpt>
      <trkpt lat="42.98154" lon="0.53762">
        <ele>1541.66</ele>
        <time>2021-02-27T12:06:16Z</time>
      </trkpt>
      <trkpt lat="42.98154" lon="0.53762">
        <ele>1541.657</ele>
        <time>2021-02-27T12:06:18Z</time>
      </trkpt>
      <trkpt lat="42.98154" lon="0.53762">
        <ele>1541.658</ele>
        <time>2021-02-27T12:06:20Z</time>
      </trkpt>
      <trkpt lat="42.98154" lon="0.53762">
        <ele>1541.656</ele>
        <time>2021-02-27T12:06:22Z</time>
      </trkpt>
      <trkpt lat="42.98154" lon="0.53762">
        <ele>1541.659</ele>
        <time>2021-02-27T12:06:24Z</time>
      </trkpt>
      <trkpt lat="42.98154" lon="0.53762">
        <ele>1541.659</ele>
        <time>2021-02-27T12:06:26Z</time>
      </trkpt>
      <trkpt lat="42.98154" lon="0.53762">
        <ele>1541.658</ele>
        <time>2021-02-27T12:06:28Z</time>
      </trkpt>
      <trkpt lat="42.98154" lon="0.53762">
        <ele>1541.657</ele>
        <time>2021-02-27T12:06:30Z</time>
      </trkpt>
      <trkpt lat="42.98154" lon="0.53762">
        <ele>1541.658</ele>
        <time>2021-02-27T12:06:32Z</time>
      </trkpt>
      <trkpt lat="42.98154" lon="0.53762">
        <ele>1541.659</ele>
        <time>2021-02-27T12:06:34Z</time>
      </trkpt>
      <trkpt lat="42.98154" lon="0.53762">
        <ele>1541.656</ele>
        <time>2021-02-27T12:06:36Z</time>
      </trkpt>
      <trkpt lat="42.98154" lon="0.53762">
        <ele>1541.655</ele>
        <time>2021-02-27T12:06:38Z</time>
      </trkpt>
      <trkpt lat="42.98154" lon="0.53762">
        <ele>1541.653</ele>
        <time>2021-02-27T12:06:40Z</time>
      </trkpt>
      <trkpt lat="42.98154" lon="0.53762">
        <ele>1541.652</ele>
        <time>2021-02-27T12:06:42Z</time>
      </trkpt>
      <trkpt lat="42.98154" lon="0.53762">
        <ele>1541.653</ele>
        <time>2021-02-27T12:06:44Z</time>
      </trkpt>
      <trkpt lat="42.98154" lon="0.53762">
        <ele>1541.654</ele>
        <time>2021-02-27T12:06:46Z</time>
      </trkpt>
      <trkpt lat="42.98154" lon="0.53762">
        <ele>1541.652</ele>
        <time>2021-02-27T12:06:48Z</time>
      </trkpt>
      <trkpt lat="42.98154" lon="0.53762">
        <ele>1541.654</ele>
        <time>2021-02-27T12:06:50Z</time>
      </trkpt>
      <trkpt lat="42.98154" lon="0.53762">
        <ele>1541.652</ele>
        <time>2021-02-27T12:06:52Z</time>
      </trkpt>
      <trkpt lat="42.98154" lon="0.53762">
        <ele>1541.653</ele>
        <time>2021-02-27T12:06:54Z</time>
      </trkpt>
      <trkpt lat="42.98154" lon="0.53762">
        <ele>1541.654</ele>
        <time>2021-02-27T12:06:56Z</time>
      </trkpt>
      <trkpt lat="42.98154" lon="0.53762">
        <ele>1541.656</ele>
        <time>2021-02-27T12:06:58Z</time>
      </trkpt>
      <trkpt lat="42.98154" lon="0.53762">
        <ele>1541.654</ele>
        <time>2021-02-27T12:07:00Z</time>
      </trkpt>
      <trkpt lat="42.98154" lon="0.53762">
        <ele>1541.655</ele>
        <time>2021-02-27T12:07:02Z</time>
      </trkpt>
      <trkpt lat="42.98154" lon="0.53762">
        <ele>1541.652</ele>
        <time>2021-02-27T12:07:04Z</time>
      </trkpt>
      <trkpt lat="42.98154" lon="0.53762">
        <ele>1541.651</ele>
        <time>2021-02-27T12:07:06Z</time>
      </trkpt>
      <trkpt lat="42.98154" lon="0.53762">
        <ele>1541.652</ele>
        <time>2021-02-27T12:07:08Z</time>
      </trkpt>
      <trkpt lat="42.98154" lon="0.53762">
        <ele>1541.653</ele>
        <time>2021-02-27T12:07:10Z</time>
      </trkpt>
      <trkpt lat="42.98154" lon="0.53762">
        <ele>1541.652</ele>
        <time>2021-02-27T12:07:12Z</time>
      </trkpt>
      <trkpt lat="42.98154" lon="0.53762">
        <ele>1541.65</ele>
        <time>2021-02-27T12:07:14Z</time>
      </trkpt>
      <trkpt lat="42.98154" lon="0.53762">
        <ele>1542.102</ele>
        <time>2021-02-27T12:07:16Z</time>
      </trkpt>
      <trkpt lat="42.98154" lon="0.53762">
        <ele>1542.022</ele>
        <time>2021-02-27T12:07:18Z</time>
      </trkpt>
      <trkpt lat="42.98154" lon="0.5376">
        <ele>1542.071</ele>
        <time>2021-02-27T12:07:20Z</time>
      </trkpt>
      <trkpt lat="42.98155" lon="0.5376">
        <ele>1542.323</ele>
        <time>2021-02-27T12:07:22Z</time>
      </trkpt>
      <trkpt lat="42.98156" lon="0.5376">
        <ele>1542.45</ele>
        <time>2021-02-27T12:07:24Z</time>
      </trkpt>
      <trkpt lat="42.98156" lon="0.5376">
        <ele>1542.45</ele>
        <time>2021-02-27T12:07:26Z</time>
      </trkpt>
      <trkpt lat="42.98156" lon="0.5376">
        <ele>1542.449</ele>
        <time>2021-02-27T12:07:28Z</time>
      </trkpt>
      <trkpt lat="42.98156" lon="0.5376">
        <ele>1542.448</ele>
        <time>2021-02-27T12:07:30Z</time>
      </trkpt>
      <trkpt lat="42.98156" lon="0.5376">
        <ele>1542.447</ele>
        <time>2021-02-27T12:07:32Z</time>
      </trkpt>
      <trkpt lat="42.98156" lon="0.5376">
        <ele>1542.447</ele>
        <time>2021-02-27T12:07:34Z</time>
      </trkpt>
      <trkpt lat="42.98156" lon="0.5376">
        <ele>1542.449</ele>
        <time>2021-02-27T12:07:36Z</time>
      </trkpt>
      <trkpt lat="42.98156" lon="0.5376">
        <ele>1542.449</ele>
        <time>2021-02-27T12:07:38Z</time>
      </trkpt>
      <trkpt lat="42.98156" lon="0.5376">
        <ele>1542.447</ele>
        <time>2021-02-27T12:07:40Z</time>
      </trkpt>
      <trkpt lat="42.98156" lon="0.5376">
        <ele>1542.445</ele>
        <time>2021-02-27T12:07:42Z</time>
      </trkpt>
      <trkpt lat="42.98156" lon="0.5376">
        <ele>1542.445</ele>
        <time>2021-02-27T12:07:44Z</time>
      </trkpt>
      <trkpt lat="42.98156" lon="0.5376">
        <ele>1542.445</ele>
        <time>2021-02-27T12:07:46Z</time>
      </trkpt>
      <trkpt lat="42.98156" lon="0.5376">
        <ele>1542.445</ele>
        <time>2021-02-27T12:07:48Z</time>
      </trkpt>
      <trkpt lat="42.98156" lon="0.5376">
        <ele>1542.442</ele>
        <time>2021-02-27T12:07:50Z</time>
      </trkpt>
      <trkpt lat="42.98156" lon="0.5376">
        <ele>1542.441</ele>
        <time>2021-02-27T12:07:52Z</time>
      </trkpt>
      <trkpt lat="42.98156" lon="0.5376">
        <ele>1542.439</ele>
        <time>2021-02-27T12:07:54Z</time>
      </trkpt>
      <trkpt lat="42.98156" lon="0.5376">
        <ele>1542.439</ele>
        <time>2021-02-27T12:07:56Z</time>
      </trkpt>
      <trkpt lat="42.98156" lon="0.5376">
        <ele>1542.438</ele>
        <time>2021-02-27T12:07:58Z</time>
      </trkpt>
      <trkpt lat="42.98156" lon="0.5376">
        <ele>1542.437</ele>
        <time>2021-02-27T12:08:00Z</time>
      </trkpt>
      <trkpt lat="42.98156" lon="0.5376">
        <ele>1542.434</ele>
        <time>2021-02-27T12:08:02Z</time>
      </trkpt>
      <trkpt lat="42.98156" lon="0.5376">
        <ele>1542.434</ele>
        <time>2021-02-27T12:08:04Z</time>
      </trkpt>
      <trkpt lat="42.98156" lon="0.5376">
        <ele>1542.434</ele>
        <time>2021-02-27T12:08:06Z</time>
      </trkpt>
      <trkpt lat="42.98156" lon="0.5376">
        <ele>1542.439</ele>
        <time>2021-02-27T12:08:08Z</time>
      </trkpt>
      <trkpt lat="42.98156" lon="0.5376">
        <ele>1542.441</ele>
        <time>2021-02-27T12:08:10Z</time>
      </trkpt>
      <trkpt lat="42.98156" lon="0.5376">
        <ele>1542.441</ele>
        <time>2021-02-27T12:08:12Z</time>
      </trkpt>
      <trkpt lat="42.98156" lon="0.5376">
        <ele>1542.441</ele>
        <time>2021-02-27T12:08:14Z</time>
      </trkpt>
      <trkpt lat="42.98156" lon="0.5376">
        <ele>1542.444</ele>
        <time>2021-02-27T12:08:16Z</time>
      </trkpt>
      <trkpt lat="42.98156" lon="0.5376">
        <ele>1542.446</ele>
        <time>2021-02-27T12:08:18Z</time>
      </trkpt>
      <trkpt lat="42.98156" lon="0.5376">
        <ele>1542.445</ele>
        <time>2021-02-27T12:08:20Z</time>
      </trkpt>
      <trkpt lat="42.98156" lon="0.5376">
        <ele>1542.446</ele>
        <time>2021-02-27T12:08:22Z</time>
      </trkpt>
      <trkpt lat="42.98156" lon="0.5376">
        <ele>1542.445</ele>
        <time>2021-02-27T12:08:24Z</time>
      </trkpt>
      <trkpt lat="42.98156" lon="0.5376">
        <ele>1542.608</ele>
        <time>2021-02-27T12:08:26Z</time>
      </trkpt>
      <trkpt lat="42.98156" lon="0.5376">
        <ele>1542.678</ele>
        <time>2021-02-27T12:08:28Z</time>
      </trkpt>
      <trkpt lat="42.98156" lon="0.5376">
        <ele>1542.378</ele>
        <time>2021-02-27T12:08:30Z</time>
      </trkpt>
      <trkpt lat="42.98156" lon="0.5376">
        <ele>1542.375</ele>
        <time>2021-02-27T12:08:32Z</time>
      </trkpt>
      <trkpt lat="42.98156" lon="0.5376">
        <ele>1542.374</ele>
        <time>2021-02-27T12:08:34Z</time>
      </trkpt>
      <trkpt lat="42.98156" lon="0.5376">
        <ele>1542.376</ele>
        <time>2021-02-27T12:08:36Z</time>
      </trkpt>
      <trkpt lat="42.98156" lon="0.5376">
        <ele>1542.372</ele>
        <time>2021-02-27T12:08:38Z</time>
      </trkpt>
      <trkpt lat="42.98156" lon="0.5376">
        <ele>1542.374</ele>
        <time>2021-02-27T12:08:40Z</time>
      </trkpt>
      <trkpt lat="42.98156" lon="0.5376">
        <ele>1542.374</ele>
        <time>2021-02-27T12:08:42Z</time>
      </trkpt>
      <trkpt lat="42.98156" lon="0.5376">
        <ele>1542.369</ele>
        <time>2021-02-27T12:08:44Z</time>
      </trkpt>
      <trkpt lat="42.98156" lon="0.5376">
        <ele>1542.257</ele>
        <time>2021-02-27T12:08:46Z</time>
      </trkpt>
      <trkpt lat="42.98156" lon="0.5376">
        <ele>1542.253</ele>
        <time>2021-02-27T12:08:48Z</time>
      </trkpt>
      <trkpt lat="42.98156" lon="0.5376">
        <ele>1542.25</ele>
        <time>2021-02-27T12:08:50Z</time>
      </trkpt>
      <trkpt lat="42.98156" lon="0.5376">
        <ele>1542.247</ele>
        <time>2021-02-27T12:08:52Z</time>
      </trkpt>
      <trkpt lat="42.98156" lon="0.5376">
        <ele>1542.248</ele>
        <time>2021-02-27T12:08:54Z</time>
      </trkpt>
      <trkpt lat="42.98156" lon="0.5376">
        <ele>1542.246</ele>
        <time>2021-02-27T12:08:56Z</time>
      </trkpt>
      <trkpt lat="42.98156" lon="0.5376">
        <ele>1542.249</ele>
        <time>2021-02-27T12:08:58Z</time>
      </trkpt>
      <trkpt lat="42.98156" lon="0.5376">
        <ele>1542.251</ele>
        <time>2021-02-27T12:09:00Z</time>
      </trkpt>
      <trkpt lat="42.98156" lon="0.5376">
        <ele>1542.247</ele>
        <time>2021-02-27T12:09:02Z</time>
      </trkpt>
      <trkpt lat="42.98156" lon="0.5376">
        <ele>1542.249</ele>
        <time>2021-02-27T12:09:04Z</time>
      </trkpt>
      <trkpt lat="42.98156" lon="0.5376">
        <ele>1542.484</ele>
        <time>2021-02-27T12:09:06Z</time>
      </trkpt>
      <trkpt lat="42.98156" lon="0.5376">
        <ele>1542.49</ele>
        <time>2021-02-27T12:09:08Z</time>
      </trkpt>
      <trkpt lat="42.98156" lon="0.5376">
        <ele>1542.493</ele>
        <time>2021-02-27T12:09:10Z</time>
      </trkpt>
      <trkpt lat="42.98156" lon="0.5376">
        <ele>1542.492</ele>
        <time>2021-02-27T12:09:12Z</time>
      </trkpt>
      <trkpt lat="42.98156" lon="0.5376">
        <ele>1542.496</ele>
        <time>2021-02-27T12:09:14Z</time>
      </trkpt>
      <trkpt lat="42.98156" lon="0.5376">
        <ele>1542.498</ele>
        <time>2021-02-27T12:09:16Z</time>
      </trkpt>
      <trkpt lat="42.98156" lon="0.5376">
        <ele>1542.495</ele>
        <time>2021-02-27T12:09:18Z</time>
      </trkpt>
      <trkpt lat="42.98156" lon="0.5376">
        <ele>1542.495</ele>
        <time>2021-02-27T12:09:20Z</time>
      </trkpt>
      <trkpt lat="42.98156" lon="0.5376">
        <ele>1542.498</ele>
        <time>2021-02-27T12:09:22Z</time>
      </trkpt>
      <trkpt lat="42.98156" lon="0.5376">
        <ele>1542.502</ele>
        <time>2021-02-27T12:09:24Z</time>
      </trkpt>
      <trkpt lat="42.98156" lon="0.53761">
        <ele>1542.825</ele>
        <time>2021-02-27T12:09:26Z</time>
      </trkpt>
      <trkpt lat="42.98156" lon="0.53761">
        <ele>1542.834</ele>
        <time>2021-02-27T12:09:28Z</time>
      </trkpt>
      <trkpt lat="42.98156" lon="0.53761">
        <ele>1542.835</ele>
        <time>2021-02-27T12:09:30Z</time>
      </trkpt>
      <trkpt lat="42.98156" lon="0.53761">
        <ele>1542.837</ele>
        <time>2021-02-27T12:09:32Z</time>
      </trkpt>
      <trkpt lat="42.98156" lon="0.53761">
        <ele>1542.836</ele>
        <time>2021-02-27T12:09:34Z</time>
      </trkpt>
      <trkpt lat="42.98156" lon="0.53761">
        <ele>1542.988</ele>
        <time>2021-02-27T12:09:36Z</time>
      </trkpt>
      <trkpt lat="42.98156" lon="0.53761">
        <ele>1542.991</ele>
        <time>2021-02-27T12:09:38Z</time>
      </trkpt>
      <trkpt lat="42.98156" lon="0.53761">
        <ele>1542.988</ele>
        <time>2021-02-27T12:09:40Z</time>
      </trkpt>
      <trkpt lat="42.98156" lon="0.53761">
        <ele>1542.943</ele>
        <time>2021-02-27T12:09:42Z</time>
      </trkpt>
      <trkpt lat="42.98156" lon="0.5376">
        <ele>1542.418</ele>
        <time>2021-02-27T12:09:44Z</time>
      </trkpt>
      <trkpt lat="42.98156" lon="0.5376">
        <ele>1542.425</ele>
        <time>2021-02-27T12:09:46Z</time>
      </trkpt>
      <trkpt lat="42.98156" lon="0.5376">
        <ele>1542.425</ele>
        <time>2021-02-27T12:09:48Z</time>
      </trkpt>
      <trkpt lat="42.98156" lon="0.5376">
        <ele>1542.428</ele>
        <time>2021-02-27T12:09:50Z</time>
      </trkpt>
      <trkpt lat="42.98156" lon="0.5376">
        <ele>1542.426</ele>
        <time>2021-02-27T12:09:52Z</time>
      </trkpt>
      <trkpt lat="42.98156" lon="0.5376">
        <ele>1542.428</ele>
        <time>2021-02-27T12:09:54Z</time>
      </trkpt>
      <trkpt lat="42.98156" lon="0.5376">
        <ele>1542.429</ele>
        <time>2021-02-27T12:09:56Z</time>
      </trkpt>
      <trkpt lat="42.98156" lon="0.5376">
        <ele>1542.426</ele>
        <time>2021-02-27T12:09:58Z</time>
      </trkpt>
      <trkpt lat="42.98156" lon="0.5376">
        <ele>1542.424</ele>
        <time>2021-02-27T12:10:00Z</time>
      </trkpt>
      <trkpt lat="42.98156" lon="0.5376">
        <ele>1542.425</ele>
        <time>2021-02-27T12:10:02Z</time>
      </trkpt>
      <trkpt lat="42.98156" lon="0.5376">
        <ele>1542.419</ele>
        <time>2021-02-27T12:10:04Z</time>
      </trkpt>
      <trkpt lat="42.98156" lon="0.53761">
        <ele>1542.464</ele>
        <time>2021-02-27T12:10:06Z</time>
      </trkpt>
      <trkpt lat="42.98156" lon="0.53761">
        <ele>1542.409</ele>
        <time>2021-02-27T12:10:08Z</time>
      </trkpt>
      <trkpt lat="42.98156" lon="0.53762">
        <ele>1542.471</ele>
        <time>2021-02-27T12:10:10Z</time>
      </trkpt>
      <trkpt lat="42.98156" lon="0.53763">
        <ele>1542.132</ele>
        <time>2021-02-27T12:10:12Z</time>
      </trkpt>
      <trkpt lat="42.98155" lon="0.53764">
        <ele>1542.222</ele>
        <time>2021-02-27T12:10:14Z</time>
      </trkpt>
      <trkpt lat="42.98155" lon="0.53765">
        <ele>1542.648</ele>
        <time>2021-02-27T12:10:16Z</time>
      </trkpt>
      <trkpt lat="42.98155" lon="0.53765">
        <ele>1542.49</ele>
        <time>2021-02-27T12:10:18Z</time>
      </trkpt>
      <trkpt lat="42.98155" lon="0.53765">
        <ele>1542.315</ele>
        <time>2021-02-27T12:10:20Z</time>
      </trkpt>
      <trkpt lat="42.98155" lon="0.53764">
        <ele>1542.317</ele>
        <time>2021-02-27T12:10:22Z</time>
      </trkpt>
      <trkpt lat="42.98155" lon="0.53764">
        <ele>1542.317</ele>
        <time>2021-02-27T12:10:24Z</time>
      </trkpt>
      <trkpt lat="42.98155" lon="0.53765">
        <ele>1542.226</ele>
        <time>2021-02-27T12:10:26Z</time>
      </trkpt>
      <trkpt lat="42.98155" lon="0.53764">
        <ele>1542.088</ele>
        <time>2021-02-27T12:10:28Z</time>
      </trkpt>
      <trkpt lat="42.98155" lon="0.53764">
        <ele>1542.084</ele>
        <time>2021-02-27T12:10:30Z</time>
      </trkpt>
      <trkpt lat="42.98155" lon="0.53764">
        <ele>1542.082</ele>
        <time>2021-02-27T12:10:32Z</time>
      </trkpt>
      <trkpt lat="42.98155" lon="0.53764">
        <ele>1542.079</ele>
        <time>2021-02-27T12:10:34Z</time>
      </trkpt>
      <trkpt lat="42.98155" lon="0.53764">
        <ele>1542.085</ele>
        <time>2021-02-27T12:10:36Z</time>
      </trkpt>
      <trkpt lat="42.98155" lon="0.53764">
        <ele>1542.087</ele>
        <time>2021-02-27T12:10:38Z</time>
      </trkpt>
      <trkpt lat="42.98155" lon="0.53764">
        <ele>1542.087</ele>
        <time>2021-02-27T12:10:40Z</time>
      </trkpt>
      <trkpt lat="42.98155" lon="0.53764">
        <ele>1542.086</ele>
        <time>2021-02-27T12:10:42Z</time>
      </trkpt>
      <trkpt lat="42.98155" lon="0.53764">
        <ele>1542.09</ele>
        <time>2021-02-27T12:10:44Z</time>
      </trkpt>
      <trkpt lat="42.98155" lon="0.53764">
        <ele>1542.083</ele>
        <time>2021-02-27T12:10:46Z</time>
      </trkpt>
      <trkpt lat="42.98155" lon="0.53764">
        <ele>1541.945</ele>
        <time>2021-02-27T12:10:48Z</time>
      </trkpt>
      <trkpt lat="42.98155" lon="0.53764">
        <ele>1541.927</ele>
        <time>2021-02-27T12:10:50Z</time>
      </trkpt>
      <trkpt lat="42.98155" lon="0.53764">
        <ele>1541.918</ele>
        <time>2021-02-27T12:10:52Z</time>
      </trkpt>
      <trkpt lat="42.98155" lon="0.53764">
        <ele>1541.914</ele>
        <time>2021-02-27T12:10:54Z</time>
      </trkpt>
      <trkpt lat="42.98155" lon="0.53765">
        <ele>1541.749</ele>
        <time>2021-02-27T12:10:56Z</time>
      </trkpt>
      <trkpt lat="42.98155" lon="0.53766">
        <ele>1540.559</ele>
        <time>2021-02-27T12:10:58Z</time>
      </trkpt>
      <trkpt lat="42.98155" lon="0.53765">
        <ele>1540.485</ele>
        <time>2021-02-27T12:11:00Z</time>
      </trkpt>
      <trkpt lat="42.98155" lon="0.53765">
        <ele>1540.502</ele>
        <time>2021-02-27T12:11:02Z</time>
      </trkpt>
      <trkpt lat="42.98155" lon="0.53765">
        <ele>1540.498</ele>
        <time>2021-02-27T12:11:04Z</time>
      </trkpt>
      <trkpt lat="42.98155" lon="0.53765">
        <ele>1540.493</ele>
        <time>2021-02-27T12:11:06Z</time>
      </trkpt>
      <trkpt lat="42.98155" lon="0.53765">
        <ele>1540.49</ele>
        <time>2021-02-27T12:11:08Z</time>
      </trkpt>
      <trkpt lat="42.98155" lon="0.53765">
        <ele>1540.488</ele>
        <time>2021-02-27T12:11:10Z</time>
      </trkpt>
      <trkpt lat="42.98155" lon="0.53765">
        <ele>1540.488</ele>
        <time>2021-02-27T12:11:12Z</time>
      </trkpt>
      <trkpt lat="42.98155" lon="0.53765">
        <ele>1540.484</ele>
        <time>2021-02-27T12:11:14Z</time>
      </trkpt>
      <trkpt lat="42.98155" lon="0.53765">
        <ele>1540.48</ele>
        <time>2021-02-27T12:11:16Z</time>
      </trkpt>
      <trkpt lat="42.98155" lon="0.53765">
        <ele>1540.47</ele>
        <time>2021-02-27T12:11:18Z</time>
      </trkpt>
      <trkpt lat="42.98154" lon="0.53764">
        <ele>1540.514</ele>
        <time>2021-02-27T12:11:20Z</time>
      </trkpt>
      <trkpt lat="42.98153" lon="0.53763">
        <ele>1540.35</ele>
        <time>2021-02-27T12:11:22Z</time>
      </trkpt>
      <trkpt lat="42.98154" lon="0.53761">
        <ele>1540.566</ele>
        <time>2021-02-27T12:11:24Z</time>
      </trkpt>
      <trkpt lat="42.98156" lon="0.53759">
        <ele>1540.125</ele>
        <time>2021-02-27T12:11:26Z</time>
      </trkpt>
      <trkpt lat="42.98158" lon="0.53759">
        <ele>1539.156</ele>
        <time>2021-02-27T12:11:28Z</time>
      </trkpt>
      <trkpt lat="42.9816" lon="0.5376">
        <ele>1539.008</ele>
        <time>2021-02-27T12:11:30Z</time>
      </trkpt>
      <trkpt lat="42.9816" lon="0.53762">
        <ele>1541.623</ele>
        <time>2021-02-27T12:11:32Z</time>
      </trkpt>
      <trkpt lat="42.98159" lon="0.53764">
        <ele>1541.635</ele>
        <time>2021-02-27T12:11:34Z</time>
      </trkpt>
      <trkpt lat="42.98158" lon="0.53764">
        <ele>1540.927</ele>
        <time>2021-02-27T12:11:36Z</time>
      </trkpt>
      <trkpt lat="42.98158" lon="0.53764">
        <ele>1540.927</ele>
        <time>2021-02-27T12:11:38Z</time>
      </trkpt>
      <trkpt lat="42.98158" lon="0.53764">
        <ele>1540.572</ele>
        <time>2021-02-27T12:11:40Z</time>
      </trkpt>
      <trkpt lat="42.98158" lon="0.53764">
        <ele>1540.575</ele>
        <time>2021-02-27T12:11:42Z</time>
      </trkpt>
      <trkpt lat="42.98158" lon="0.53764">
        <ele>1540.456</ele>
        <time>2021-02-27T12:11:44Z</time>
      </trkpt>
      <trkpt lat="42.98158" lon="0.53764">
        <ele>1540.451</ele>
        <time>2021-02-27T12:11:46Z</time>
      </trkpt>
      <trkpt lat="42.98158" lon="0.53764">
        <ele>1540.445</ele>
        <time>2021-02-27T12:11:48Z</time>
      </trkpt>
      <trkpt lat="42.98158" lon="0.53764">
        <ele>1540.445</ele>
        <time>2021-02-27T12:11:50Z</time>
      </trkpt>
      <trkpt lat="42.98158" lon="0.53764">
        <ele>1540.443</ele>
        <time>2021-02-27T12:11:52Z</time>
      </trkpt>
      <trkpt lat="42.98158" lon="0.53764">
        <ele>1540.443</ele>
        <time>2021-02-27T12:11:54Z</time>
      </trkpt>
      <trkpt lat="42.98158" lon="0.53764">
        <ele>1540.447</ele>
        <time>2021-02-27T12:11:56Z</time>
      </trkpt>
      <trkpt lat="42.98158" lon="0.53764">
        <ele>1540.445</ele>
        <time>2021-02-27T12:11:58Z</time>
      </trkpt>
      <trkpt lat="42.98158" lon="0.53764">
        <ele>1540.443</ele>
        <time>2021-02-27T12:12:00Z</time>
      </trkpt>
      <trkpt lat="42.98158" lon="0.53764">
        <ele>1540.441</ele>
        <time>2021-02-27T12:12:02Z</time>
      </trkpt>
      <trkpt lat="42.98158" lon="0.53764">
        <ele>1540.439</ele>
        <time>2021-02-27T12:12:04Z</time>
      </trkpt>
      <trkpt lat="42.98158" lon="0.53764">
        <ele>1540.439</ele>
        <time>2021-02-27T12:12:06Z</time>
      </trkpt>
      <trkpt lat="42.98158" lon="0.53764">
        <ele>1540.44</ele>
        <time>2021-02-27T12:12:08Z</time>
      </trkpt>
      <trkpt lat="42.98158" lon="0.53764">
        <ele>1540.438</ele>
        <time>2021-02-27T12:12:10Z</time>
      </trkpt>
      <trkpt lat="42.98158" lon="0.53764">
        <ele>1540.436</ele>
        <time>2021-02-27T12:12:12Z</time>
      </trkpt>
      <trkpt lat="42.98158" lon="0.53764">
        <ele>1540.438</ele>
        <time>2021-02-27T12:12:14Z</time>
      </trkpt>
      <trkpt lat="42.98158" lon="0.53764">
        <ele>1540.434</ele>
        <time>2021-02-27T12:12:16Z</time>
      </trkpt>
      <trkpt lat="42.98158" lon="0.53764">
        <ele>1540.433</ele>
        <time>2021-02-27T12:12:18Z</time>
      </trkpt>
      <trkpt lat="42.98158" lon="0.53764">
        <ele>1540.428</ele>
        <time>2021-02-27T12:12:20Z</time>
      </trkpt>
      <trkpt lat="42.98158" lon="0.53764">
        <ele>1540.427</ele>
        <time>2021-02-27T12:12:22Z</time>
      </trkpt>
      <trkpt lat="42.98158" lon="0.53764">
        <ele>1540.429</ele>
        <time>2021-02-27T12:12:24Z</time>
      </trkpt>
      <trkpt lat="42.98158" lon="0.53764">
        <ele>1540.428</ele>
        <time>2021-02-27T12:12:26Z</time>
      </trkpt>
      <trkpt lat="42.98158" lon="0.53764">
        <ele>1540.426</ele>
        <time>2021-02-27T12:12:28Z</time>
      </trkpt>
      <trkpt lat="42.98158" lon="0.53763">
        <ele>1540.498</ele>
        <time>2021-02-27T12:12:30Z</time>
      </trkpt>
      <trkpt lat="42.98157" lon="0.53763">
        <ele>1539.983</ele>
        <time>2021-02-27T12:12:32Z</time>
      </trkpt>
      <trkpt lat="42.98157" lon="0.53763">
        <ele>1540.366</ele>
        <time>2021-02-27T12:12:34Z</time>
      </trkpt>
      <trkpt lat="42.98157" lon="0.53763">
        <ele>1540.458</ele>
        <time>2021-02-27T12:12:36Z</time>
      </trkpt>
      <trkpt lat="42.98157" lon="0.53763">
        <ele>1540.455</ele>
        <time>2021-02-27T12:12:38Z</time>
      </trkpt>
      <trkpt lat="42.98158" lon="0.53762">
        <ele>1540.471</ele>
        <time>2021-02-27T12:12:40Z</time>
      </trkpt>
      <trkpt lat="42.98158" lon="0.53762">
        <ele>1540.472</ele>
        <time>2021-02-27T12:12:42Z</time>
      </trkpt>
      <trkpt lat="42.98158" lon="0.53762">
        <ele>1540.412</ele>
        <time>2021-02-27T12:12:44Z</time>
      </trkpt>
      <trkpt lat="42.98158" lon="0.53762">
        <ele>1540.053</ele>
        <time>2021-02-27T12:12:46Z</time>
      </trkpt>
      <trkpt lat="42.98158" lon="0.53762">
        <ele>1540.049</ele>
        <time>2021-02-27T12:12:48Z</time>
      </trkpt>
      <trkpt lat="42.98158" lon="0.53762">
        <ele>1540.054</ele>
        <time>2021-02-27T12:12:50Z</time>
      </trkpt>
      <trkpt lat="42.98158" lon="0.53761">
        <ele>1539.584</ele>
        <time>2021-02-27T12:12:52Z</time>
      </trkpt>
      <trkpt lat="42.98157" lon="0.5376">
        <ele>1540.092</ele>
        <time>2021-02-27T12:12:54Z</time>
      </trkpt>
      <trkpt lat="42.98157" lon="0.53758">
        <ele>1540.467</ele>
        <time>2021-02-27T12:12:56Z</time>
      </trkpt>
      <trkpt lat="42.98157" lon="0.53757">
        <ele>1540.623</ele>
        <time>2021-02-27T12:12:58Z</time>
      </trkpt>
      <trkpt lat="42.98157" lon="0.53756">
        <ele>1540.631</ele>
        <time>2021-02-27T12:13:00Z</time>
      </trkpt>
      <trkpt lat="42.98157" lon="0.53757">
        <ele>1540.887</ele>
        <time>2021-02-27T12:13:02Z</time>
      </trkpt>
      <trkpt lat="42.98156" lon="0.53757">
        <ele>1540.849</ele>
        <time>2021-02-27T12:13:04Z</time>
      </trkpt>
      <trkpt lat="42.98156" lon="0.53757">
        <ele>1540.309</ele>
        <time>2021-02-27T12:13:06Z</time>
      </trkpt>
      <trkpt lat="42.98156" lon="0.53757">
        <ele>1540.294</ele>
        <time>2021-02-27T12:13:08Z</time>
      </trkpt>
      <trkpt lat="42.98156" lon="0.53757">
        <ele>1540.288</ele>
        <time>2021-02-27T12:13:10Z</time>
      </trkpt>
      <trkpt lat="42.98156" lon="0.53757">
        <ele>1540.287</ele>
        <time>2021-02-27T12:13:12Z</time>
      </trkpt>
      <trkpt lat="42.98156" lon="0.53757">
        <ele>1540.287</ele>
        <time>2021-02-27T12:13:13Z</time>
      </trkpt>
      <trkpt lat="42.98156" lon="0.53758">
        <ele>1540.711</ele>
        <time>2021-02-27T12:13:16Z</time>
      </trkpt>
      <trkpt lat="42.98156" lon="0.53758">
        <ele>1540.718</ele>
        <time>2021-02-27T12:13:18Z</time>
      </trkpt>
      <trkpt lat="42.98156" lon="0.53758">
        <ele>1540.718</ele>
        <time>2021-02-27T12:13:20Z</time>
      </trkpt>
      <trkpt lat="42.98155" lon="0.53758">
        <ele>1540.864</ele>
        <time>2021-02-27T12:13:22Z</time>
      </trkpt>
      <trkpt lat="42.98155" lon="0.53759">
        <ele>1540.939</ele>
        <time>2021-02-27T12:13:24Z</time>
      </trkpt>
      <trkpt lat="42.98154" lon="0.53759">
        <ele>1541.151</ele>
        <time>2021-02-27T12:13:26Z</time>
      </trkpt>
      <trkpt lat="42.98154" lon="0.5376">
        <ele>1540.997</ele>
        <time>2021-02-27T12:13:28Z</time>
      </trkpt>
      <trkpt lat="42.98154" lon="0.5376">
        <ele>1540.973</ele>
        <time>2021-02-27T12:13:30Z</time>
      </trkpt>
      <trkpt lat="42.98154" lon="0.5376">
        <ele>1541.253</ele>
        <time>2021-02-27T12:13:32Z</time>
      </trkpt>
      <trkpt lat="42.98154" lon="0.5376">
        <ele>1541.379</ele>
        <time>2021-02-27T12:13:34Z</time>
      </trkpt>
      <trkpt lat="42.98154" lon="0.5376">
        <ele>1541.376</ele>
        <time>2021-02-27T12:13:36Z</time>
      </trkpt>
      <trkpt lat="42.98154" lon="0.53759">
        <ele>1541.243</ele>
        <time>2021-02-27T12:13:38Z</time>
      </trkpt>
      <trkpt lat="42.98154" lon="0.53759">
        <ele>1541.237</ele>
        <time>2021-02-27T12:13:40Z</time>
      </trkpt>
      <trkpt lat="42.98154" lon="0.53759">
        <ele>1541.232</ele>
        <time>2021-02-27T12:13:42Z</time>
      </trkpt>
      <trkpt lat="42.98154" lon="0.5376">
        <ele>1541.229</ele>
        <time>2021-02-27T12:13:44Z</time>
      </trkpt>
      <trkpt lat="42.98155" lon="0.53759">
        <ele>1541.093</ele>
        <time>2021-02-27T12:13:46Z</time>
      </trkpt>
      <trkpt lat="42.98155" lon="0.53759">
        <ele>1541.423</ele>
        <time>2021-02-27T12:13:48Z</time>
      </trkpt>
      <trkpt lat="42.98155" lon="0.53759">
        <ele>1540.996</ele>
        <time>2021-02-27T12:13:50Z</time>
      </trkpt>
      <trkpt lat="42.98155" lon="0.53759">
        <ele>1540.99</ele>
        <time>2021-02-27T12:13:52Z</time>
      </trkpt>
      <trkpt lat="42.98155" lon="0.53759">
        <ele>1540.987</ele>
        <time>2021-02-27T12:13:54Z</time>
      </trkpt>
      <trkpt lat="42.98155" lon="0.53759">
        <ele>1540.98</ele>
        <time>2021-02-27T12:13:56Z</time>
      </trkpt>
      <trkpt lat="42.98155" lon="0.53759">
        <ele>1540.979</ele>
        <time>2021-02-27T12:13:58Z</time>
      </trkpt>
      <trkpt lat="42.98155" lon="0.53759">
        <ele>1540.982</ele>
        <time>2021-02-27T12:14:00Z</time>
      </trkpt>
      <trkpt lat="42.98155" lon="0.53759">
        <ele>1540.976</ele>
        <time>2021-02-27T12:14:02Z</time>
      </trkpt>
      <trkpt lat="42.98155" lon="0.53759">
        <ele>1540.975</ele>
        <time>2021-02-27T12:14:04Z</time>
      </trkpt>
      <trkpt lat="42.98155" lon="0.53759">
        <ele>1540.968</ele>
        <time>2021-02-27T12:14:06Z</time>
      </trkpt>
      <trkpt lat="42.98155" lon="0.53759">
        <ele>1540.963</ele>
        <time>2021-02-27T12:14:08Z</time>
      </trkpt>
      <trkpt lat="42.98155" lon="0.53759">
        <ele>1540.958</ele>
        <time>2021-02-27T12:14:10Z</time>
      </trkpt>
      <trkpt lat="42.98155" lon="0.53759">
        <ele>1540.955</ele>
        <time>2021-02-27T12:14:12Z</time>
      </trkpt>
      <trkpt lat="42.98155" lon="0.53759">
        <ele>1540.956</ele>
        <time>2021-02-27T12:14:14Z</time>
      </trkpt>
      <trkpt lat="42.98155" lon="0.53759">
        <ele>1540.955</ele>
        <time>2021-02-27T12:14:16Z</time>
      </trkpt>
      <trkpt lat="42.98155" lon="0.53759">
        <ele>1540.953</ele>
        <time>2021-02-27T12:14:18Z</time>
      </trkpt>
      <trkpt lat="42.98155" lon="0.53759">
        <ele>1540.947</ele>
        <time>2021-02-27T12:14:20Z</time>
      </trkpt>
      <trkpt lat="42.98155" lon="0.53759">
        <ele>1540.941</ele>
        <time>2021-02-27T12:14:22Z</time>
      </trkpt>
      <trkpt lat="42.98155" lon="0.53759">
        <ele>1541.001</ele>
        <time>2021-02-27T12:14:24Z</time>
      </trkpt>
      <trkpt lat="42.98155" lon="0.53758">
        <ele>1541.005</ele>
        <time>2021-02-27T12:14:26Z</time>
      </trkpt>
      <trkpt lat="42.98155" lon="0.53758">
        <ele>1541.006</ele>
        <time>2021-02-27T12:14:28Z</time>
      </trkpt>
      <trkpt lat="42.98155" lon="0.53758">
        <ele>1541.004</ele>
        <time>2021-02-27T12:14:30Z</time>
      </trkpt>
      <trkpt lat="42.98155" lon="0.53758">
        <ele>1541.004</ele>
        <time>2021-02-27T12:14:32Z</time>
      </trkpt>
      <trkpt lat="42.98155" lon="0.53758">
        <ele>1541.003</ele>
        <time>2021-02-27T12:14:34Z</time>
      </trkpt>
      <trkpt lat="42.98155" lon="0.53758">
        <ele>1541.224</ele>
        <time>2021-02-27T12:14:36Z</time>
      </trkpt>
      <trkpt lat="42.98155" lon="0.53759">
        <ele>1541.269</ele>
        <time>2021-02-27T12:14:38Z</time>
      </trkpt>
      <trkpt lat="42.98156" lon="0.53758">
        <ele>1541.575</ele>
        <time>2021-02-27T12:14:40Z</time>
      </trkpt>
      <trkpt lat="42.98156" lon="0.53758">
        <ele>1540.912</ele>
        <time>2021-02-27T12:14:42Z</time>
      </trkpt>
      <trkpt lat="42.98156" lon="0.53758">
        <ele>1540.913</ele>
        <time>2021-02-27T12:14:44Z</time>
      </trkpt>
      <trkpt lat="42.98156" lon="0.53758">
        <ele>1540.907</ele>
        <time>2021-02-27T12:14:46Z</time>
      </trkpt>
      <trkpt lat="42.98156" lon="0.53758">
        <ele>1540.394</ele>
        <time>2021-02-27T12:14:48Z</time>
      </trkpt>
      <trkpt lat="42.98157" lon="0.53756">
        <ele>1540.468</ele>
        <time>2021-02-27T12:14:50Z</time>
      </trkpt>
      <trkpt lat="42.98158" lon="0.53752">
        <ele>1540.674</ele>
        <time>2021-02-27T12:14:52Z</time>
      </trkpt>
      <trkpt lat="42.9816" lon="0.53751">
        <ele>1540.491</ele>
        <time>2021-02-27T12:14:54Z</time>
      </trkpt>
      <trkpt lat="42.98161" lon="0.5375">
        <ele>1540.013</ele>
        <time>2021-02-27T12:14:56Z</time>
      </trkpt>
      <trkpt lat="42.98162" lon="0.53747">
        <ele>1540.096</ele>
        <time>2021-02-27T12:14:58Z</time>
      </trkpt>
      <trkpt lat="42.98163" lon="0.53745">
        <ele>1540.263</ele>
        <time>2021-02-27T12:15:00Z</time>
      </trkpt>
      <trkpt lat="42.98164" lon="0.53742">
        <ele>1540.11</ele>
        <time>2021-02-27T12:15:02Z</time>
      </trkpt>
      <trkpt lat="42.98165" lon="0.5374">
        <ele>1540.337</ele>
        <time>2021-02-27T12:15:04Z</time>
      </trkpt>
      <trkpt lat="42.98167" lon="0.53738">
        <ele>1540.865</ele>
        <time>2021-02-27T12:15:06Z</time>
      </trkpt>
      <trkpt lat="42.98168" lon="0.53735">
        <ele>1541.142</ele>
        <time>2021-02-27T12:15:08Z</time>
      </trkpt>
      <trkpt lat="42.98169" lon="0.53733">
        <ele>1540.953</ele>
        <time>2021-02-27T12:15:10Z</time>
      </trkpt>
      <trkpt lat="42.98169" lon="0.53731">
        <ele>1540.526</ele>
        <time>2021-02-27T12:15:12Z</time>
      </trkpt>
      <trkpt lat="42.9817" lon="0.53729">
        <ele>1540.275</ele>
        <time>2021-02-27T12:15:14Z</time>
      </trkpt>
      <trkpt lat="42.98172" lon="0.53727">
        <ele>1540.053</ele>
        <time>2021-02-27T12:15:16Z</time>
      </trkpt>
      <trkpt lat="42.98174" lon="0.53726">
        <ele>1539.775</ele>
        <time>2021-02-27T12:15:18Z</time>
      </trkpt>
      <trkpt lat="42.98176" lon="0.53726">
        <ele>1539.666</ele>
        <time>2021-02-27T12:15:20Z</time>
      </trkpt>
      <trkpt lat="42.98177" lon="0.53725">
        <ele>1539.213</ele>
        <time>2021-02-27T12:15:22Z</time>
      </trkpt>
      <trkpt lat="42.98179" lon="0.53725">
        <ele>1538.776</ele>
        <time>2021-02-27T12:15:24Z</time>
      </trkpt>
      <trkpt lat="42.98181" lon="0.53724">
        <ele>1538.263</ele>
        <time>2021-02-27T12:15:26Z</time>
      </trkpt>
      <trkpt lat="42.98182" lon="0.53722">
        <ele>1538.692</ele>
        <time>2021-02-27T12:15:28Z</time>
      </trkpt>
      <trkpt lat="42.98184" lon="0.53721">
        <ele>1538.267</ele>
        <time>2021-02-27T12:15:30Z</time>
      </trkpt>
      <trkpt lat="42.98186" lon="0.53718">
        <ele>1537.898</ele>
        <time>2021-02-27T12:15:32Z</time>
      </trkpt>
      <trkpt lat="42.98187" lon="0.53717">
        <ele>1537.812</ele>
        <time>2021-02-27T12:15:34Z</time>
      </trkpt>
      <trkpt lat="42.98189" lon="0.53715">
        <ele>1537.481</ele>
        <time>2021-02-27T12:15:36Z</time>
      </trkpt>
      <trkpt lat="42.9819" lon="0.53713">
        <ele>1536.842</ele>
        <time>2021-02-27T12:15:38Z</time>
      </trkpt>
      <trkpt lat="42.98192" lon="0.53711">
        <ele>1536.473</ele>
        <time>2021-02-27T12:15:40Z</time>
      </trkpt>
      <trkpt lat="42.98193" lon="0.53709">
        <ele>1535.949</ele>
        <time>2021-02-27T12:15:42Z</time>
      </trkpt>
      <trkpt lat="42.98195" lon="0.53707">
        <ele>1535.927</ele>
        <time>2021-02-27T12:15:44Z</time>
      </trkpt>
      <trkpt lat="42.98196" lon="0.53705">
        <ele>1535.799</ele>
        <time>2021-02-27T12:15:46Z</time>
      </trkpt>
      <trkpt lat="42.98197" lon="0.53704">
        <ele>1536.08</ele>
        <time>2021-02-27T12:15:48Z</time>
      </trkpt>
      <trkpt lat="42.98199" lon="0.53702">
        <ele>1536.406</ele>
        <time>2021-02-27T12:15:50Z</time>
      </trkpt>
      <trkpt lat="42.982" lon="0.537">
        <ele>1536.105</ele>
        <time>2021-02-27T12:15:52Z</time>
      </trkpt>
      <trkpt lat="42.98201" lon="0.53698">
        <ele>1536.162</ele>
        <time>2021-02-27T12:15:54Z</time>
      </trkpt>
      <trkpt lat="42.98202" lon="0.53697">
        <ele>1535.366</ele>
        <time>2021-02-27T12:15:56Z</time>
      </trkpt>
      <trkpt lat="42.98204" lon="0.53695">
        <ele>1535.207</ele>
        <time>2021-02-27T12:15:58Z</time>
      </trkpt>
      <trkpt lat="42.98205" lon="0.53695">
        <ele>1534.963</ele>
        <time>2021-02-27T12:16:00Z</time>
      </trkpt>
      <trkpt lat="42.98207" lon="0.53695">
        <ele>1534.101</ele>
        <time>2021-02-27T12:16:02Z</time>
      </trkpt>
      <trkpt lat="42.98209" lon="0.53694">
        <ele>1534.353</ele>
        <time>2021-02-27T12:16:04Z</time>
      </trkpt>
      <trkpt lat="42.9821" lon="0.53692">
        <ele>1534.225</ele>
        <time>2021-02-27T12:16:06Z</time>
      </trkpt>
      <trkpt lat="42.98211" lon="0.53691">
        <ele>1533.609</ele>
        <time>2021-02-27T12:16:08Z</time>
      </trkpt>
      <trkpt lat="42.98212" lon="0.53689">
        <ele>1533.066</ele>
        <time>2021-02-27T12:16:10Z</time>
      </trkpt>
      <trkpt lat="42.98213" lon="0.53687">
        <ele>1532.616</ele>
        <time>2021-02-27T12:16:12Z</time>
      </trkpt>
      <trkpt lat="42.98215" lon="0.53685">
        <ele>1532.176</ele>
        <time>2021-02-27T12:16:14Z</time>
      </trkpt>
      <trkpt lat="42.98216" lon="0.53684">
        <ele>1531.624</ele>
        <time>2021-02-27T12:16:16Z</time>
      </trkpt>
      <trkpt lat="42.98217" lon="0.53682">
        <ele>1531.574</ele>
        <time>2021-02-27T12:16:18Z</time>
      </trkpt>
      <trkpt lat="42.98218" lon="0.5368">
        <ele>1531.71</ele>
        <time>2021-02-27T12:16:20Z</time>
      </trkpt>
      <trkpt lat="42.98219" lon="0.53678">
        <ele>1531.769</ele>
        <time>2021-02-27T12:16:22Z</time>
      </trkpt>
      <trkpt lat="42.98219" lon="0.53676">
        <ele>1531.555</ele>
        <time>2021-02-27T12:16:24Z</time>
      </trkpt>
      <trkpt lat="42.9822" lon="0.53674">
        <ele>1531.736</ele>
        <time>2021-02-27T12:16:26Z</time>
      </trkpt>
      <trkpt lat="42.9822" lon="0.53671">
        <ele>1531.522</ele>
        <time>2021-02-27T12:16:28Z</time>
      </trkpt>
      <trkpt lat="42.98221" lon="0.53669">
        <ele>1531.616</ele>
        <time>2021-02-27T12:16:30Z</time>
      </trkpt>
      <trkpt lat="42.98222" lon="0.53667">
        <ele>1530.986</ele>
        <time>2021-02-27T12:16:32Z</time>
      </trkpt>
      <trkpt lat="42.98223" lon="0.53665">
        <ele>1530.949</ele>
        <time>2021-02-27T12:16:34Z</time>
      </trkpt>
      <trkpt lat="42.98224" lon="0.53664">
        <ele>1530.879</ele>
        <time>2021-02-27T12:16:36Z</time>
      </trkpt>
      <trkpt lat="42.98225" lon="0.53662">
        <ele>1530.796</ele>
        <time>2021-02-27T12:16:38Z</time>
      </trkpt>
      <trkpt lat="42.98226" lon="0.5366">
        <ele>1530.185</ele>
        <time>2021-02-27T12:16:40Z</time>
      </trkpt>
      <trkpt lat="42.98227" lon="0.53657">
        <ele>1530.156</ele>
        <time>2021-02-27T12:16:42Z</time>
      </trkpt>
      <trkpt lat="42.98228" lon="0.53655">
        <ele>1529.902</ele>
        <time>2021-02-27T12:16:44Z</time>
      </trkpt>
      <trkpt lat="42.98229" lon="0.53653">
        <ele>1529.841</ele>
        <time>2021-02-27T12:16:46Z</time>
      </trkpt>
      <trkpt lat="42.98231" lon="0.53651">
        <ele>1529.423</ele>
        <time>2021-02-27T12:16:48Z</time>
      </trkpt>
      <trkpt lat="42.98232" lon="0.53649">
        <ele>1529.695</ele>
        <time>2021-02-27T12:16:50Z</time>
      </trkpt>
      <trkpt lat="42.98233" lon="0.53648">
        <ele>1529.967</ele>
        <time>2021-02-27T12:16:52Z</time>
      </trkpt>
      <trkpt lat="42.98234" lon="0.53647">
        <ele>1530.043</ele>
        <time>2021-02-27T12:16:54Z</time>
      </trkpt>
      <trkpt lat="42.98236" lon="0.53645">
        <ele>1530.708</ele>
        <time>2021-02-27T12:16:56Z</time>
      </trkpt>
      <trkpt lat="42.98236" lon="0.53644">
        <ele>1530.361</ele>
        <time>2021-02-27T12:16:58Z</time>
      </trkpt>
      <trkpt lat="42.98236" lon="0.53643">
        <ele>1530.419</ele>
        <time>2021-02-27T12:17:00Z</time>
      </trkpt>
      <trkpt lat="42.98236" lon="0.53643">
        <ele>1530.416</ele>
        <time>2021-02-27T12:17:02Z</time>
      </trkpt>
      <trkpt lat="42.98236" lon="0.53642">
        <ele>1530.368</ele>
        <time>2021-02-27T12:17:04Z</time>
      </trkpt>
      <trkpt lat="42.98237" lon="0.53641">
        <ele>1530.637</ele>
        <time>2021-02-27T12:17:06Z</time>
      </trkpt>
      <trkpt lat="42.98238" lon="0.53639">
        <ele>1530.482</ele>
        <time>2021-02-27T12:17:08Z</time>
      </trkpt>
      <trkpt lat="42.98239" lon="0.53637">
        <ele>1530.618</ele>
        <time>2021-02-27T12:17:10Z</time>
      </trkpt>
      <trkpt lat="42.9824" lon="0.53635">
        <ele>1530.592</ele>
        <time>2021-02-27T12:17:12Z</time>
      </trkpt>
      <trkpt lat="42.98242" lon="0.53633">
        <ele>1530.582</ele>
        <time>2021-02-27T12:17:14Z</time>
      </trkpt>
      <trkpt lat="42.98243" lon="0.53631">
        <ele>1530.951</ele>
        <time>2021-02-27T12:17:16Z</time>
      </trkpt>
      <trkpt lat="42.98244" lon="0.53629">
        <ele>1531.073</ele>
        <time>2021-02-27T12:17:18Z</time>
      </trkpt>
      <trkpt lat="42.98245" lon="0.53627">
        <ele>1531.206</ele>
        <time>2021-02-27T12:17:20Z</time>
      </trkpt>
      <trkpt lat="42.98246" lon="0.53625">
        <ele>1530.81</ele>
        <time>2021-02-27T12:17:22Z</time>
      </trkpt>
      <trkpt lat="42.98248" lon="0.53624">
        <ele>1530.775</ele>
        <time>2021-02-27T12:17:24Z</time>
      </trkpt>
      <trkpt lat="42.98249" lon="0.53622">
        <ele>1529.952</ele>
        <time>2021-02-27T12:17:26Z</time>
      </trkpt>
      <trkpt lat="42.98251" lon="0.5362">
        <ele>1529.732</ele>
        <time>2021-02-27T12:17:28Z</time>
      </trkpt>
      <trkpt lat="42.98252" lon="0.53618">
        <ele>1529.819</ele>
        <time>2021-02-27T12:17:30Z</time>
      </trkpt>
      <trkpt lat="42.98253" lon="0.53616">
        <ele>1529.623</ele>
        <time>2021-02-27T12:17:32Z</time>
      </trkpt>
      <trkpt lat="42.98254" lon="0.53613">
        <ele>1529.123</ele>
        <time>2021-02-27T12:17:34Z</time>
      </trkpt>
      <trkpt lat="42.98255" lon="0.53611">
        <ele>1528.991</ele>
        <time>2021-02-27T12:17:36Z</time>
      </trkpt>
      <trkpt lat="42.98257" lon="0.53609">
        <ele>1529.5</ele>
        <time>2021-02-27T12:17:38Z</time>
      </trkpt>
      <trkpt lat="42.98258" lon="0.53607">
        <ele>1529.006</ele>
        <time>2021-02-27T12:17:40Z</time>
      </trkpt>
      <trkpt lat="42.9826" lon="0.53606">
        <ele>1528.921</ele>
        <time>2021-02-27T12:17:42Z</time>
      </trkpt>
      <trkpt lat="42.98261" lon="0.53604">
        <ele>1528.587</ele>
        <time>2021-02-27T12:17:44Z</time>
      </trkpt>
      <trkpt lat="42.98263" lon="0.53602">
        <ele>1528.632</ele>
        <time>2021-02-27T12:17:46Z</time>
      </trkpt>
      <trkpt lat="42.98265" lon="0.53601">
        <ele>1527.946</ele>
        <time>2021-02-27T12:17:48Z</time>
      </trkpt>
      <trkpt lat="42.98266" lon="0.53599">
        <ele>1527.59</ele>
        <time>2021-02-27T12:17:50Z</time>
      </trkpt>
      <trkpt lat="42.98268" lon="0.53597">
        <ele>1527.298</ele>
        <time>2021-02-27T12:17:52Z</time>
      </trkpt>
      <trkpt lat="42.9827" lon="0.53595">
        <ele>1527.014</ele>
        <time>2021-02-27T12:17:54Z</time>
      </trkpt>
      <trkpt lat="42.98272" lon="0.53592">
        <ele>1526.36</ele>
        <time>2021-02-27T12:17:56Z</time>
      </trkpt>
      <trkpt lat="42.98273" lon="0.5359">
        <ele>1526.14</ele>
        <time>2021-02-27T12:17:58Z</time>
      </trkpt>
      <trkpt lat="42.98275" lon="0.53589">
        <ele>1526.195</ele>
        <time>2021-02-27T12:18:00Z</time>
      </trkpt>
      <trkpt lat="42.98276" lon="0.53586">
        <ele>1525.71</ele>
        <time>2021-02-27T12:18:02Z</time>
      </trkpt>
      <trkpt lat="42.98278" lon="0.53584">
        <ele>1525.068</ele>
        <time>2021-02-27T12:18:04Z</time>
      </trkpt>
      <trkpt lat="42.9828" lon="0.53583">
        <ele>1525.305</ele>
        <time>2021-02-27T12:18:06Z</time>
      </trkpt>
      <trkpt lat="42.98282" lon="0.53581">
        <ele>1525.087</ele>
        <time>2021-02-27T12:18:08Z</time>
      </trkpt>
      <trkpt lat="42.98283" lon="0.53579">
        <ele>1524.744</ele>
        <time>2021-02-27T12:18:10Z</time>
      </trkpt>
      <trkpt lat="42.98285" lon="0.53577">
        <ele>1524.383</ele>
        <time>2021-02-27T12:18:12Z</time>
      </trkpt>
      <trkpt lat="42.98287" lon="0.53576">
        <ele>1523.818</ele>
        <time>2021-02-27T12:18:14Z</time>
      </trkpt>
      <trkpt lat="42.98289" lon="0.53575">
        <ele>1523.731</ele>
        <time>2021-02-27T12:18:16Z</time>
      </trkpt>
      <trkpt lat="42.98291" lon="0.53573">
        <ele>1523.137</ele>
        <time>2021-02-27T12:18:18Z</time>
      </trkpt>
      <trkpt lat="42.98293" lon="0.53572">
        <ele>1523.012</ele>
        <time>2021-02-27T12:18:20Z</time>
      </trkpt>
      <trkpt lat="42.98294" lon="0.5357">
        <ele>1522.537</ele>
        <time>2021-02-27T12:18:22Z</time>
      </trkpt>
      <trkpt lat="42.98296" lon="0.53568">
        <ele>1522.628</ele>
        <time>2021-02-27T12:18:24Z</time>
      </trkpt>
      <trkpt lat="42.98298" lon="0.53566">
        <ele>1522.527</ele>
        <time>2021-02-27T12:18:26Z</time>
      </trkpt>
      <trkpt lat="42.98299" lon="0.53565">
        <ele>1521.603</ele>
        <time>2021-02-27T12:18:28Z</time>
      </trkpt>
      <trkpt lat="42.98301" lon="0.53563">
        <ele>1520.416</ele>
        <time>2021-02-27T12:18:30Z</time>
      </trkpt>
      <trkpt lat="42.98303" lon="0.53561">
        <ele>1519.554</ele>
        <time>2021-02-27T12:18:32Z</time>
      </trkpt>
      <trkpt lat="42.98304" lon="0.5356">
        <ele>1518.841</ele>
        <time>2021-02-27T12:18:34Z</time>
      </trkpt>
      <trkpt lat="42.98306" lon="0.53559">
        <ele>1518.297</ele>
        <time>2021-02-27T12:18:36Z</time>
      </trkpt>
      <trkpt lat="42.98308" lon="0.53558">
        <ele>1517.78</ele>
        <time>2021-02-27T12:18:38Z</time>
      </trkpt>
      <trkpt lat="42.9831" lon="0.53557">
        <ele>1518.149</ele>
        <time>2021-02-27T12:18:40Z</time>
      </trkpt>
      <trkpt lat="42.98312" lon="0.53555">
        <ele>1517.937</ele>
        <time>2021-02-27T12:18:42Z</time>
      </trkpt>
      <trkpt lat="42.98314" lon="0.53552">
        <ele>1518.397</ele>
        <time>2021-02-27T12:18:44Z</time>
      </trkpt>
      <trkpt lat="42.98315" lon="0.5355">
        <ele>1518.705</ele>
        <time>2021-02-27T12:18:46Z</time>
      </trkpt>
      <trkpt lat="42.98316" lon="0.53548">
        <ele>1518.907</ele>
        <time>2021-02-27T12:18:48Z</time>
      </trkpt>
      <trkpt lat="42.98317" lon="0.53546">
        <ele>1518.605</ele>
        <time>2021-02-27T12:18:50Z</time>
      </trkpt>
      <trkpt lat="42.98318" lon="0.53544">
        <ele>1518.078</ele>
        <time>2021-02-27T12:18:52Z</time>
      </trkpt>
      <trkpt lat="42.98319" lon="0.53541">
        <ele>1517.506</ele>
        <time>2021-02-27T12:18:54Z</time>
      </trkpt>
      <trkpt lat="42.9832" lon="0.53539">
        <ele>1517.509</ele>
        <time>2021-02-27T12:18:56Z</time>
      </trkpt>
      <trkpt lat="42.98321" lon="0.53536">
        <ele>1517.053</ele>
        <time>2021-02-27T12:18:58Z</time>
      </trkpt>
      <trkpt lat="42.98322" lon="0.53534">
        <ele>1517.302</ele>
        <time>2021-02-27T12:19:00Z</time>
      </trkpt>
      <trkpt lat="42.98323" lon="0.53531">
        <ele>1517.491</ele>
        <time>2021-02-27T12:19:02Z</time>
      </trkpt>
      <trkpt lat="42.98324" lon="0.53529">
        <ele>1516.702</ele>
        <time>2021-02-27T12:19:04Z</time>
      </trkpt>
      <trkpt lat="42.98325" lon="0.53526">
        <ele>1516.042</ele>
        <time>2021-02-27T12:19:06Z</time>
      </trkpt>
      <trkpt lat="42.98325" lon="0.53523">
        <ele>1516.018</ele>
        <time>2021-02-27T12:19:08Z</time>
      </trkpt>
      <trkpt lat="42.98327" lon="0.53521">
        <ele>1515.285</ele>
        <time>2021-02-27T12:19:10Z</time>
      </trkpt>
      <trkpt lat="42.98328" lon="0.53518">
        <ele>1515.593</ele>
        <time>2021-02-27T12:19:12Z</time>
      </trkpt>
      <trkpt lat="42.98329" lon="0.53515">
        <ele>1515.476</ele>
        <time>2021-02-27T12:19:14Z</time>
      </trkpt>
      <trkpt lat="42.9833" lon="0.53513">
        <ele>1515.212</ele>
        <time>2021-02-27T12:19:16Z</time>
      </trkpt>
      <trkpt lat="42.98331" lon="0.53511">
        <ele>1514.91</ele>
        <time>2021-02-27T12:19:18Z</time>
      </trkpt>
      <trkpt lat="42.98332" lon="0.53508">
        <ele>1514.727</ele>
        <time>2021-02-27T12:19:20Z</time>
      </trkpt>
      <trkpt lat="42.98334" lon="0.53507">
        <ele>1514.734</ele>
        <time>2021-02-27T12:19:22Z</time>
      </trkpt>
      <trkpt lat="42.98335" lon="0.53504">
        <ele>1515.056</ele>
        <time>2021-02-27T12:19:24Z</time>
      </trkpt>
      <trkpt lat="42.98338" lon="0.53501">
        <ele>1514.731</ele>
        <time>2021-02-27T12:19:27Z</time>
      </trkpt>
      <trkpt lat="42.9834" lon="0.535">
        <ele>1514.465</ele>
        <time>2021-02-27T12:19:29Z</time>
      </trkpt>
      <trkpt lat="42.98342" lon="0.53498">
        <ele>1514.158</ele>
        <time>2021-02-27T12:19:31Z</time>
      </trkpt>
      <trkpt lat="42.98344" lon="0.53497">
        <ele>1513.791</ele>
        <time>2021-02-27T12:19:33Z</time>
      </trkpt>
      <trkpt lat="42.98346" lon="0.53496">
        <ele>1513.319</ele>
        <time>2021-02-27T12:19:35Z</time>
      </trkpt>
      <trkpt lat="42.98347" lon="0.53494">
        <ele>1512.732</ele>
        <time>2021-02-27T12:19:37Z</time>
      </trkpt>
      <trkpt lat="42.98348" lon="0.53492">
        <ele>1512.204</ele>
        <time>2021-02-27T12:19:39Z</time>
      </trkpt>
      <trkpt lat="42.9835" lon="0.5349">
        <ele>1511.429</ele>
        <time>2021-02-27T12:19:41Z</time>
      </trkpt>
      <trkpt lat="42.98351" lon="0.53488">
        <ele>1509.634</ele>
        <time>2021-02-27T12:19:43Z</time>
      </trkpt>
      <trkpt lat="42.98353" lon="0.53488">
        <ele>1509.189</ele>
        <time>2021-02-27T12:19:45Z</time>
      </trkpt>
      <trkpt lat="42.98354" lon="0.53486">
        <ele>1509.288</ele>
        <time>2021-02-27T12:19:47Z</time>
      </trkpt>
      <trkpt lat="42.98355" lon="0.53484">
        <ele>1508.847</ele>
        <time>2021-02-27T12:19:49Z</time>
      </trkpt>
      <trkpt lat="42.98356" lon="0.53482">
        <ele>1508.591</ele>
        <time>2021-02-27T12:19:51Z</time>
      </trkpt>
      <trkpt lat="42.98356" lon="0.5348">
        <ele>1507.974</ele>
        <time>2021-02-27T12:19:53Z</time>
      </trkpt>
      <trkpt lat="42.98357" lon="0.53477">
        <ele>1508.431</ele>
        <time>2021-02-27T12:19:55Z</time>
      </trkpt>
      <trkpt lat="42.98357" lon="0.53476">
        <ele>1507.585</ele>
        <time>2021-02-27T12:19:57Z</time>
      </trkpt>
      <trkpt lat="42.98358" lon="0.53473">
        <ele>1508.791</ele>
        <time>2021-02-27T12:19:59Z</time>
      </trkpt>
      <trkpt lat="42.98358" lon="0.53471">
        <ele>1507.972</ele>
        <time>2021-02-27T12:20:01Z</time>
      </trkpt>
      <trkpt lat="42.98358" lon="0.53468">
        <ele>1507.267</ele>
        <time>2021-02-27T12:20:03Z</time>
      </trkpt>
      <trkpt lat="42.98358" lon="0.53467">
        <ele>1507.562</ele>
        <time>2021-02-27T12:20:04Z</time>
      </trkpt>
      <trkpt lat="42.98359" lon="0.53464">
        <ele>1506.839</ele>
        <time>2021-02-27T12:20:07Z</time>
      </trkpt>
      <trkpt lat="42.9836" lon="0.53462">
        <ele>1506.81</ele>
        <time>2021-02-27T12:20:09Z</time>
      </trkpt>
      <trkpt lat="42.98361" lon="0.53461">
        <ele>1506.058</ele>
        <time>2021-02-27T12:20:11Z</time>
      </trkpt>
      <trkpt lat="42.98362" lon="0.53459">
        <ele>1505.315</ele>
        <time>2021-02-27T12:20:13Z</time>
      </trkpt>
      <trkpt lat="42.98363" lon="0.53457">
        <ele>1506.217</ele>
        <time>2021-02-27T12:20:15Z</time>
      </trkpt>
      <trkpt lat="42.98365" lon="0.53456">
        <ele>1505.937</ele>
        <time>2021-02-27T12:20:17Z</time>
      </trkpt>
      <trkpt lat="42.98367" lon="0.53454">
        <ele>1505.663</ele>
        <time>2021-02-27T12:20:19Z</time>
      </trkpt>
      <trkpt lat="42.98368" lon="0.53453">
        <ele>1506.546</ele>
        <time>2021-02-27T12:20:21Z</time>
      </trkpt>
      <trkpt lat="42.98369" lon="0.53451">
        <ele>1505.411</ele>
        <time>2021-02-27T12:20:23Z</time>
      </trkpt>
      <trkpt lat="42.98369" lon="0.53448">
        <ele>1505.539</ele>
        <time>2021-02-27T12:20:25Z</time>
      </trkpt>
      <trkpt lat="42.9837" lon="0.53446">
        <ele>1504.25</ele>
        <time>2021-02-27T12:20:27Z</time>
      </trkpt>
      <trkpt lat="42.9837" lon="0.53444">
        <ele>1504.067</ele>
        <time>2021-02-27T12:20:29Z</time>
      </trkpt>
      <trkpt lat="42.98371" lon="0.53442">
        <ele>1503.677</ele>
        <time>2021-02-27T12:20:31Z</time>
      </trkpt>
      <trkpt lat="42.98371" lon="0.53441">
        <ele>1503.428</ele>
        <time>2021-02-27T12:20:33Z</time>
      </trkpt>
      <trkpt lat="42.98372" lon="0.53438">
        <ele>1503.074</ele>
        <time>2021-02-27T12:20:35Z</time>
      </trkpt>
      <trkpt lat="42.98374" lon="0.53436">
        <ele>1501.9</ele>
        <time>2021-02-27T12:20:37Z</time>
      </trkpt>
      <trkpt lat="42.98375" lon="0.53434">
        <ele>1502.161</ele>
        <time>2021-02-27T12:20:39Z</time>
      </trkpt>
      <trkpt lat="42.98377" lon="0.53432">
        <ele>1502.323</ele>
        <time>2021-02-27T12:20:41Z</time>
      </trkpt>
      <trkpt lat="42.98377" lon="0.5343">
        <ele>1502.33</ele>
        <time>2021-02-27T12:20:43Z</time>
      </trkpt>
      <trkpt lat="42.98378" lon="0.53428">
        <ele>1502.269</ele>
        <time>2021-02-27T12:20:45Z</time>
      </trkpt>
      <trkpt lat="42.98379" lon="0.53426">
        <ele>1502.774</ele>
        <time>2021-02-27T12:20:47Z</time>
      </trkpt>
      <trkpt lat="42.9838" lon="0.53426">
        <ele>1501.288</ele>
        <time>2021-02-27T12:20:49Z</time>
      </trkpt>
      <trkpt lat="42.98382" lon="0.53425">
        <ele>1500.61</ele>
        <time>2021-02-27T12:20:51Z</time>
      </trkpt>
      <trkpt lat="42.98383" lon="0.53424">
        <ele>1499.664</ele>
        <time>2021-02-27T12:20:53Z</time>
      </trkpt>
      <trkpt lat="42.98385" lon="0.53423">
        <ele>1499.629</ele>
        <time>2021-02-27T12:20:55Z</time>
      </trkpt>
      <trkpt lat="42.98386" lon="0.53422">
        <ele>1499.985</ele>
        <time>2021-02-27T12:20:56Z</time>
      </trkpt>
      <trkpt lat="42.98388" lon="0.5342">
        <ele>1499.965</ele>
        <time>2021-02-27T12:20:59Z</time>
      </trkpt>
      <trkpt lat="42.98389" lon="0.53418">
        <ele>1499.326</ele>
        <time>2021-02-27T12:21:01Z</time>
      </trkpt>
      <trkpt lat="42.9839" lon="0.53416">
        <ele>1499.043</ele>
        <time>2021-02-27T12:21:03Z</time>
      </trkpt>
      <trkpt lat="42.98391" lon="0.53415">
        <ele>1498.792</ele>
        <time>2021-02-27T12:21:05Z</time>
      </trkpt>
      <trkpt lat="42.98393" lon="0.53414">
        <ele>1498.587</ele>
        <time>2021-02-27T12:21:07Z</time>
      </trkpt>
      <trkpt lat="42.98393" lon="0.53412">
        <ele>1496.968</ele>
        <time>2021-02-27T12:21:09Z</time>
      </trkpt>
      <trkpt lat="42.98394" lon="0.5341">
        <ele>1497.221</ele>
        <time>2021-02-27T12:21:11Z</time>
      </trkpt>
      <trkpt lat="42.98395" lon="0.53408">
        <ele>1495.824</ele>
        <time>2021-02-27T12:21:13Z</time>
      </trkpt>
      <trkpt lat="42.98394" lon="0.53405">
        <ele>1494.819</ele>
        <time>2021-02-27T12:21:15Z</time>
      </trkpt>
      <trkpt lat="42.98395" lon="0.53403">
        <ele>1493.573</ele>
        <time>2021-02-27T12:21:17Z</time>
      </trkpt>
      <trkpt lat="42.98395" lon="0.534">
        <ele>1493.742</ele>
        <time>2021-02-27T12:21:19Z</time>
      </trkpt>
      <trkpt lat="42.98395" lon="0.53398">
        <ele>1494.024</ele>
        <time>2021-02-27T12:21:21Z</time>
      </trkpt>
      <trkpt lat="42.98396" lon="0.53396">
        <ele>1495.104</ele>
        <time>2021-02-27T12:21:23Z</time>
      </trkpt>
      <trkpt lat="42.98396" lon="0.53393">
        <ele>1495.098</ele>
        <time>2021-02-27T12:21:25Z</time>
      </trkpt>
      <trkpt lat="42.98397" lon="0.53391">
        <ele>1494.932</ele>
        <time>2021-02-27T12:21:27Z</time>
      </trkpt>
      <trkpt lat="42.98398" lon="0.53389">
        <ele>1495.494</ele>
        <time>2021-02-27T12:21:29Z</time>
      </trkpt>
      <trkpt lat="42.98399" lon="0.53387">
        <ele>1495.455</ele>
        <time>2021-02-27T12:21:31Z</time>
      </trkpt>
      <trkpt lat="42.98399" lon="0.53386">
        <ele>1495.55</ele>
        <time>2021-02-27T12:21:33Z</time>
      </trkpt>
      <trkpt lat="42.984" lon="0.53383">
        <ele>1494.6</ele>
        <time>2021-02-27T12:21:35Z</time>
      </trkpt>
      <trkpt lat="42.98401" lon="0.53381">
        <ele>1494.489</ele>
        <time>2021-02-27T12:21:37Z</time>
      </trkpt>
      <trkpt lat="42.98402" lon="0.5338">
        <ele>1493.41</ele>
        <time>2021-02-27T12:21:39Z</time>
      </trkpt>
      <trkpt lat="42.98402" lon="0.53378">
        <ele>1492.783</ele>
        <time>2021-02-27T12:21:41Z</time>
      </trkpt>
      <trkpt lat="42.98403" lon="0.53375">
        <ele>1493.56</ele>
        <time>2021-02-27T12:21:43Z</time>
      </trkpt>
      <trkpt lat="42.98404" lon="0.53374">
        <ele>1493.2</ele>
        <time>2021-02-27T12:21:45Z</time>
      </trkpt>
      <trkpt lat="42.98406" lon="0.53372">
        <ele>1492.376</ele>
        <time>2021-02-27T12:21:47Z</time>
      </trkpt>
      <trkpt lat="42.98407" lon="0.5337">
        <ele>1492.923</ele>
        <time>2021-02-27T12:21:49Z</time>
      </trkpt>
      <trkpt lat="42.98408" lon="0.53368">
        <ele>1493.16</ele>
        <time>2021-02-27T12:21:51Z</time>
      </trkpt>
      <trkpt lat="42.98408" lon="0.53368">
        <ele>1493.55</ele>
        <time>2021-02-27T12:21:53Z</time>
      </trkpt>
      <trkpt lat="42.9841" lon="0.53366">
        <ele>1493.511</ele>
        <time>2021-02-27T12:21:55Z</time>
      </trkpt>
      <trkpt lat="42.98411" lon="0.53365">
        <ele>1493.195</ele>
        <time>2021-02-27T12:21:57Z</time>
      </trkpt>
      <trkpt lat="42.98412" lon="0.53364">
        <ele>1493.255</ele>
        <time>2021-02-27T12:21:59Z</time>
      </trkpt>
      <trkpt lat="42.98414" lon="0.53364">
        <ele>1492.291</ele>
        <time>2021-02-27T12:22:01Z</time>
      </trkpt>
      <trkpt lat="42.98415" lon="0.53364">
        <ele>1492.249</ele>
        <time>2021-02-27T12:22:03Z</time>
      </trkpt>
      <trkpt lat="42.98417" lon="0.53363">
        <ele>1492.06</ele>
        <time>2021-02-27T12:22:05Z</time>
      </trkpt>
      <trkpt lat="42.98418" lon="0.53362">
        <ele>1492.075</ele>
        <time>2021-02-27T12:22:07Z</time>
      </trkpt>
      <trkpt lat="42.9842" lon="0.53361">
        <ele>1492.837</ele>
        <time>2021-02-27T12:22:09Z</time>
      </trkpt>
      <trkpt lat="42.98421" lon="0.5336">
        <ele>1492.833</ele>
        <time>2021-02-27T12:22:11Z</time>
      </trkpt>
      <trkpt lat="42.98423" lon="0.53359">
        <ele>1493.18</ele>
        <time>2021-02-27T12:22:13Z</time>
      </trkpt>
      <trkpt lat="42.98424" lon="0.53357">
        <ele>1494.719</ele>
        <time>2021-02-27T12:22:15Z</time>
      </trkpt>
      <trkpt lat="42.98425" lon="0.53357">
        <ele>1495.88</ele>
        <time>2021-02-27T12:22:17Z</time>
      </trkpt>
      <trkpt lat="42.98425" lon="0.53357">
        <ele>1495.881</ele>
        <time>2021-02-27T12:22:19Z</time>
      </trkpt>
      <trkpt lat="42.98425" lon="0.53357">
        <ele>1495.88</ele>
        <time>2021-02-27T12:22:21Z</time>
      </trkpt>
      <trkpt lat="42.98425" lon="0.53356">
        <ele>1495.745</ele>
        <time>2021-02-27T12:22:23Z</time>
      </trkpt>
      <trkpt lat="42.98425" lon="0.53355">
        <ele>1495.408</ele>
        <time>2021-02-27T12:22:25Z</time>
      </trkpt>
      <trkpt lat="42.98427" lon="0.53354">
        <ele>1495.808</ele>
        <time>2021-02-27T12:22:27Z</time>
      </trkpt>
      <trkpt lat="42.98427" lon="0.53351">
        <ele>1494.272</ele>
        <time>2021-02-27T12:22:29Z</time>
      </trkpt>
      <trkpt lat="42.98427" lon="0.5335">
        <ele>1494.459</ele>
        <time>2021-02-27T12:22:31Z</time>
      </trkpt>
      <trkpt lat="42.98427" lon="0.5335">
        <ele>1494.444</ele>
        <time>2021-02-27T12:22:33Z</time>
      </trkpt>
      <trkpt lat="42.98427" lon="0.5335">
        <ele>1494.424</ele>
        <time>2021-02-27T12:22:35Z</time>
      </trkpt>
      <trkpt lat="42.98427" lon="0.53349">
        <ele>1493.148</ele>
        <time>2021-02-27T12:22:37Z</time>
      </trkpt>
      <trkpt lat="42.98427" lon="0.53347">
        <ele>1491.957</ele>
        <time>2021-02-27T12:22:39Z</time>
      </trkpt>
      <trkpt lat="42.98426" lon="0.53347">
        <ele>1492.283</ele>
        <time>2021-02-27T12:22:41Z</time>
      </trkpt>
      <trkpt lat="42.98428" lon="0.53345">
        <ele>1491.607</ele>
        <time>2021-02-27T12:22:43Z</time>
      </trkpt>
      <trkpt lat="42.98428" lon="0.53345">
        <ele>1491.947</ele>
        <time>2021-02-27T12:22:45Z</time>
      </trkpt>
      <trkpt lat="42.98428" lon="0.53344">
        <ele>1491.798</ele>
        <time>2021-02-27T12:22:47Z</time>
      </trkpt>
      <trkpt lat="42.98428" lon="0.53343">
        <ele>1491.345</ele>
        <time>2021-02-27T12:22:49Z</time>
      </trkpt>
      <trkpt lat="42.98428" lon="0.53342">
        <ele>1490.319</ele>
        <time>2021-02-27T12:22:51Z</time>
      </trkpt>
      <trkpt lat="42.98428" lon="0.53341">
        <ele>1490.936</ele>
        <time>2021-02-27T12:22:53Z</time>
      </trkpt>
      <trkpt lat="42.9843" lon="0.5334">
        <ele>1491.847</ele>
        <time>2021-02-27T12:22:55Z</time>
      </trkpt>
      <trkpt lat="42.98431" lon="0.53341">
        <ele>1491.405</ele>
        <time>2021-02-27T12:22:57Z</time>
      </trkpt>
      <trkpt lat="42.98431" lon="0.53341">
        <ele>1491.313</ele>
        <time>2021-02-27T12:22:59Z</time>
      </trkpt>
      <trkpt lat="42.98431" lon="0.53341">
        <ele>1491.008</ele>
        <time>2021-02-27T12:23:01Z</time>
      </trkpt>
      <trkpt lat="42.98433" lon="0.5334">
        <ele>1490.155</ele>
        <time>2021-02-27T12:23:03Z</time>
      </trkpt>
      <trkpt lat="42.98433" lon="0.5334">
        <ele>1491.428</ele>
        <time>2021-02-27T12:23:05Z</time>
      </trkpt>
      <trkpt lat="42.98434" lon="0.53338">
        <ele>1491.784</ele>
        <time>2021-02-27T12:23:07Z</time>
      </trkpt>
      <trkpt lat="42.98435" lon="0.53337">
        <ele>1490.099</ele>
        <time>2021-02-27T12:23:09Z</time>
      </trkpt>
      <trkpt lat="42.98436" lon="0.53336">
        <ele>1489.249</ele>
        <time>2021-02-27T12:23:11Z</time>
      </trkpt>
      <trkpt lat="42.98436" lon="0.53336">
        <ele>1490.385</ele>
        <time>2021-02-27T12:23:13Z</time>
      </trkpt>
      <trkpt lat="42.98435" lon="0.53336">
        <ele>1490.372</ele>
        <time>2021-02-27T12:23:15Z</time>
      </trkpt>
      <trkpt lat="42.98436" lon="0.53335">
        <ele>1490.223</ele>
        <time>2021-02-27T12:23:17Z</time>
      </trkpt>
      <trkpt lat="42.98437" lon="0.53333">
        <ele>1490.046</ele>
        <time>2021-02-27T12:23:19Z</time>
      </trkpt>
      <trkpt lat="42.98438" lon="0.53332">
        <ele>1490.64</ele>
        <time>2021-02-27T12:23:21Z</time>
      </trkpt>
      <trkpt lat="42.98438" lon="0.5333">
        <ele>1488.638</ele>
        <time>2021-02-27T12:23:23Z</time>
      </trkpt>
      <trkpt lat="42.98439" lon="0.5333">
        <ele>1487.464</ele>
        <time>2021-02-27T12:23:25Z</time>
      </trkpt>
      <trkpt lat="42.9844" lon="0.53329">
        <ele>1487.529</ele>
        <time>2021-02-27T12:23:27Z</time>
      </trkpt>
      <trkpt lat="42.98441" lon="0.53328">
        <ele>1487.432</ele>
        <time>2021-02-27T12:23:29Z</time>
      </trkpt>
      <trkpt lat="42.98442" lon="0.53327">
        <ele>1487.459</ele>
        <time>2021-02-27T12:23:31Z</time>
      </trkpt>
      <trkpt lat="42.98443" lon="0.53327">
        <ele>1484.938</ele>
        <time>2021-02-27T12:23:33Z</time>
      </trkpt>
      <trkpt lat="42.98443" lon="0.53327">
        <ele>1483.712</ele>
        <time>2021-02-27T12:23:35Z</time>
      </trkpt>
      <trkpt lat="42.98444" lon="0.53326">
        <ele>1483.822</ele>
        <time>2021-02-27T12:23:37Z</time>
      </trkpt>
      <trkpt lat="42.98445" lon="0.53324">
        <ele>1482.332</ele>
        <time>2021-02-27T12:23:39Z</time>
      </trkpt>
      <trkpt lat="42.98445" lon="0.53323">
        <ele>1481.512</ele>
        <time>2021-02-27T12:23:41Z</time>
      </trkpt>
      <trkpt lat="42.98446" lon="0.53322">
        <ele>1481.501</ele>
        <time>2021-02-27T12:23:43Z</time>
      </trkpt>
      <trkpt lat="42.98447" lon="0.53321">
        <ele>1482.427</ele>
        <time>2021-02-27T12:23:45Z</time>
      </trkpt>
      <trkpt lat="42.98448" lon="0.53322">
        <ele>1481.676</ele>
        <time>2021-02-27T12:23:47Z</time>
      </trkpt>
      <trkpt lat="42.98448" lon="0.53323">
        <ele>1480.886</ele>
        <time>2021-02-27T12:23:49Z</time>
      </trkpt>
      <trkpt lat="42.98449" lon="0.53323">
        <ele>1480.65</ele>
        <time>2021-02-27T12:23:51Z</time>
      </trkpt>
      <trkpt lat="42.9845" lon="0.53322">
        <ele>1480.196</ele>
        <time>2021-02-27T12:23:53Z</time>
      </trkpt>
      <trkpt lat="42.98451" lon="0.53322">
        <ele>1478.951</ele>
        <time>2021-02-27T12:23:55Z</time>
      </trkpt>
      <trkpt lat="42.98452" lon="0.5332">
        <ele>1478.621</ele>
        <time>2021-02-27T12:23:57Z</time>
      </trkpt>
      <trkpt lat="42.98452" lon="0.53318">
        <ele>1477.882</ele>
        <time>2021-02-27T12:23:59Z</time>
      </trkpt>
      <trkpt lat="42.98453" lon="0.53315">
        <ele>1478.382</ele>
        <time>2021-02-27T12:24:01Z</time>
      </trkpt>
      <trkpt lat="42.98454" lon="0.53314">
        <ele>1478.586</ele>
        <time>2021-02-27T12:24:03Z</time>
      </trkpt>
      <trkpt lat="42.98454" lon="0.53313">
        <ele>1477.956</ele>
        <time>2021-02-27T12:24:05Z</time>
      </trkpt>
      <trkpt lat="42.98455" lon="0.53311">
        <ele>1478.114</ele>
        <time>2021-02-27T12:24:07Z</time>
      </trkpt>
      <trkpt lat="42.98456" lon="0.53308">
        <ele>1478.106</ele>
        <time>2021-02-27T12:24:09Z</time>
      </trkpt>
      <trkpt lat="42.98457" lon="0.53305">
        <ele>1479.113</ele>
        <time>2021-02-27T12:24:11Z</time>
      </trkpt>
      <trkpt lat="42.98457" lon="0.53303">
        <ele>1478.555</ele>
        <time>2021-02-27T12:24:13Z</time>
      </trkpt>
      <trkpt lat="42.98458" lon="0.53302">
        <ele>1478.461</ele>
        <time>2021-02-27T12:24:15Z</time>
      </trkpt>
      <trkpt lat="42.98459" lon="0.53301">
        <ele>1478.407</ele>
        <time>2021-02-27T12:24:17Z</time>
      </trkpt>
      <trkpt lat="42.9846" lon="0.533">
        <ele>1478.618</ele>
        <time>2021-02-27T12:24:19Z</time>
      </trkpt>
      <trkpt lat="42.98461" lon="0.53297">
        <ele>1477.548</ele>
        <time>2021-02-27T12:24:21Z</time>
      </trkpt>
      <trkpt lat="42.98461" lon="0.53295">
        <ele>1476.732</ele>
        <time>2021-02-27T12:24:23Z</time>
      </trkpt>
      <trkpt lat="42.98461" lon="0.53293">
        <ele>1476.703</ele>
        <time>2021-02-27T12:24:25Z</time>
      </trkpt>
      <trkpt lat="42.98461" lon="0.53292">
        <ele>1475.798</ele>
        <time>2021-02-27T12:24:27Z</time>
      </trkpt>
      <trkpt lat="42.98462" lon="0.5329">
        <ele>1474.903</ele>
        <time>2021-02-27T12:24:29Z</time>
      </trkpt>
      <trkpt lat="42.98462" lon="0.53288">
        <ele>1474.136</ele>
        <time>2021-02-27T12:24:31Z</time>
      </trkpt>
      <trkpt lat="42.98463" lon="0.53286">
        <ele>1473.456</ele>
        <time>2021-02-27T12:24:33Z</time>
      </trkpt>
      <trkpt lat="42.98463" lon="0.53285">
        <ele>1473.067</ele>
        <time>2021-02-27T12:24:35Z</time>
      </trkpt>
      <trkpt lat="42.98463" lon="0.53283">
        <ele>1472.655</ele>
        <time>2021-02-27T12:24:37Z</time>
      </trkpt>
      <trkpt lat="42.98464" lon="0.53281">
        <ele>1472.654</ele>
        <time>2021-02-27T12:24:39Z</time>
      </trkpt>
      <trkpt lat="42.98464" lon="0.53279">
        <ele>1471.901</ele>
        <time>2021-02-27T12:24:41Z</time>
      </trkpt>
      <trkpt lat="42.98464" lon="0.53278">
        <ele>1470.501</ele>
        <time>2021-02-27T12:24:43Z</time>
      </trkpt>
      <trkpt lat="42.98464" lon="0.53276">
        <ele>1470.145</ele>
        <time>2021-02-27T12:24:45Z</time>
      </trkpt>
      <trkpt lat="42.98465" lon="0.53275">
        <ele>1469.101</ele>
        <time>2021-02-27T12:24:47Z</time>
      </trkpt>
      <trkpt lat="42.98466" lon="0.53273">
        <ele>1470.086</ele>
        <time>2021-02-27T12:24:49Z</time>
      </trkpt>
      <trkpt lat="42.98467" lon="0.53271">
        <ele>1469.149</ele>
        <time>2021-02-27T12:24:51Z</time>
      </trkpt>
      <trkpt lat="42.98468" lon="0.53269">
        <ele>1468.969</ele>
        <time>2021-02-27T12:24:53Z</time>
      </trkpt>
      <trkpt lat="42.98469" lon="0.53267">
        <ele>1469.347</ele>
        <time>2021-02-27T12:24:55Z</time>
      </trkpt>
      <trkpt lat="42.9847" lon="0.53266">
        <ele>1469.606</ele>
        <time>2021-02-27T12:24:57Z</time>
      </trkpt>
      <trkpt lat="42.98471" lon="0.53264">
        <ele>1468.247</ele>
        <time>2021-02-27T12:24:59Z</time>
      </trkpt>
      <trkpt lat="42.98472" lon="0.53262">
        <ele>1468.629</ele>
        <time>2021-02-27T12:25:01Z</time>
      </trkpt>
      <trkpt lat="42.98473" lon="0.5326">
        <ele>1469.368</ele>
        <time>2021-02-27T12:25:03Z</time>
      </trkpt>
      <trkpt lat="42.98473" lon="0.53258">
        <ele>1468.898</ele>
        <time>2021-02-27T12:25:05Z</time>
      </trkpt>
      <trkpt lat="42.98473" lon="0.53255">
        <ele>1469.335</ele>
        <time>2021-02-27T12:25:07Z</time>
      </trkpt>
      <trkpt lat="42.98474" lon="0.53253">
        <ele>1469.265</ele>
        <time>2021-02-27T12:25:09Z</time>
      </trkpt>
      <trkpt lat="42.98474" lon="0.53251">
        <ele>1468.596</ele>
        <time>2021-02-27T12:25:11Z</time>
      </trkpt>
      <trkpt lat="42.98474" lon="0.53248">
        <ele>1468.007</ele>
        <time>2021-02-27T12:25:13Z</time>
      </trkpt>
      <trkpt lat="42.98474" lon="0.53247">
        <ele>1467.066</ele>
        <time>2021-02-27T12:25:15Z</time>
      </trkpt>
      <trkpt lat="42.98475" lon="0.53244">
        <ele>1468.051</ele>
        <time>2021-02-27T12:25:17Z</time>
      </trkpt>
      <trkpt lat="42.98476" lon="0.53243">
        <ele>1467.375</ele>
        <time>2021-02-27T12:25:19Z</time>
      </trkpt>
      <trkpt lat="42.98476" lon="0.53241">
        <ele>1466.135</ele>
        <time>2021-02-27T12:25:21Z</time>
      </trkpt>
      <trkpt lat="42.98477" lon="0.53238">
        <ele>1466.221</ele>
        <time>2021-02-27T12:25:23Z</time>
      </trkpt>
      <trkpt lat="42.98478" lon="0.53235">
        <ele>1465.761</ele>
        <time>2021-02-27T12:25:25Z</time>
      </trkpt>
      <trkpt lat="42.9848" lon="0.53231">
        <ele>1466.496</ele>
        <time>2021-02-27T12:25:27Z</time>
      </trkpt>
      <trkpt lat="42.9848" lon="0.53229">
        <ele>1467.691</ele>
        <time>2021-02-27T12:25:29Z</time>
      </trkpt>
      <trkpt lat="42.98481" lon="0.53226">
        <ele>1467.477</ele>
        <time>2021-02-27T12:25:31Z</time>
      </trkpt>
      <trkpt lat="42.98482" lon="0.53223">
        <ele>1467.662</ele>
        <time>2021-02-27T12:25:33Z</time>
      </trkpt>
      <trkpt lat="42.98483" lon="0.53221">
        <ele>1467.207</ele>
        <time>2021-02-27T12:25:35Z</time>
      </trkpt>
      <trkpt lat="42.98483" lon="0.5322">
        <ele>1465.955</ele>
        <time>2021-02-27T12:25:37Z</time>
      </trkpt>
      <trkpt lat="42.98485" lon="0.53216">
        <ele>1464.988</ele>
        <time>2021-02-27T12:25:39Z</time>
      </trkpt>
      <trkpt lat="42.98485" lon="0.53214">
        <ele>1464.983</ele>
        <time>2021-02-27T12:25:41Z</time>
      </trkpt>
      <trkpt lat="42.98486" lon="0.53213">
        <ele>1465.895</ele>
        <time>2021-02-27T12:25:43Z</time>
      </trkpt>
      <trkpt lat="42.98487" lon="0.53212">
        <ele>1465.677</ele>
        <time>2021-02-27T12:25:45Z</time>
      </trkpt>
      <trkpt lat="42.98488" lon="0.53211">
        <ele>1465.306</ele>
        <time>2021-02-27T12:25:47Z</time>
      </trkpt>
      <trkpt lat="42.98489" lon="0.53209">
        <ele>1465.438</ele>
        <time>2021-02-27T12:25:49Z</time>
      </trkpt>
      <trkpt lat="42.9849" lon="0.53208">
        <ele>1465.48</ele>
        <time>2021-02-27T12:25:51Z</time>
      </trkpt>
      <trkpt lat="42.98491" lon="0.53206">
        <ele>1465.262</ele>
        <time>2021-02-27T12:25:53Z</time>
      </trkpt>
      <trkpt lat="42.98493" lon="0.53205">
        <ele>1466.545</ele>
        <time>2021-02-27T12:25:55Z</time>
      </trkpt>
      <trkpt lat="42.98494" lon="0.53203">
        <ele>1465.834</ele>
        <time>2021-02-27T12:25:57Z</time>
      </trkpt>
      <trkpt lat="42.98495" lon="0.53202">
        <ele>1465.813</ele>
        <time>2021-02-27T12:25:59Z</time>
      </trkpt>
      <trkpt lat="42.98496" lon="0.53201">
        <ele>1464.5</ele>
        <time>2021-02-27T12:26:01Z</time>
      </trkpt>
      <trkpt lat="42.98497" lon="0.53199">
        <ele>1464.327</ele>
        <time>2021-02-27T12:26:03Z</time>
      </trkpt>
      <trkpt lat="42.98498" lon="0.53198">
        <ele>1463.499</ele>
        <time>2021-02-27T12:26:05Z</time>
      </trkpt>
      <trkpt lat="42.98499" lon="0.53196">
        <ele>1463.336</ele>
        <time>2021-02-27T12:26:07Z</time>
      </trkpt>
      <trkpt lat="42.985" lon="0.53194">
        <ele>1463.08</ele>
        <time>2021-02-27T12:26:09Z</time>
      </trkpt>
      <trkpt lat="42.98501" lon="0.53194">
        <ele>1461.915</ele>
        <time>2021-02-27T12:26:11Z</time>
      </trkpt>
      <trkpt lat="42.98502" lon="0.53192">
        <ele>1461.65</ele>
        <time>2021-02-27T12:26:13Z</time>
      </trkpt>
      <trkpt lat="42.98501" lon="0.53192">
        <ele>1461.301</ele>
        <time>2021-02-27T12:26:15Z</time>
      </trkpt>
      <trkpt lat="42.98501" lon="0.53192">
        <ele>1461.285</ele>
        <time>2021-02-27T12:26:17Z</time>
      </trkpt>
      <trkpt lat="42.98501" lon="0.53192">
        <ele>1461.322</ele>
        <time>2021-02-27T12:26:19Z</time>
      </trkpt>
      <trkpt lat="42.98501" lon="0.53192">
        <ele>1461.035</ele>
        <time>2021-02-27T12:26:21Z</time>
      </trkpt>
      <trkpt lat="42.98501" lon="0.53192">
        <ele>1461.049</ele>
        <time>2021-02-27T12:26:23Z</time>
      </trkpt>
      <trkpt lat="42.98501" lon="0.53192">
        <ele>1460.839</ele>
        <time>2021-02-27T12:26:25Z</time>
      </trkpt>
      <trkpt lat="42.98501" lon="0.53191">
        <ele>1460.855</ele>
        <time>2021-02-27T12:26:27Z</time>
      </trkpt>
      <trkpt lat="42.98501" lon="0.53191">
        <ele>1460.857</ele>
        <time>2021-02-27T12:26:29Z</time>
      </trkpt>
      <trkpt lat="42.98501" lon="0.53191">
        <ele>1460.862</ele>
        <time>2021-02-27T12:26:31Z</time>
      </trkpt>
      <trkpt lat="42.98501" lon="0.53191">
        <ele>1460.874</ele>
        <time>2021-02-27T12:26:33Z</time>
      </trkpt>
      <trkpt lat="42.98502" lon="0.53191">
        <ele>1460.881</ele>
        <time>2021-02-27T12:26:35Z</time>
      </trkpt>
      <trkpt lat="42.98503" lon="0.53189">
        <ele>1461.088</ele>
        <time>2021-02-27T12:26:37Z</time>
      </trkpt>
      <trkpt lat="42.98503" lon="0.53188">
        <ele>1461.006</ele>
        <time>2021-02-27T12:26:39Z</time>
      </trkpt>
      <trkpt lat="42.98503" lon="0.53186">
        <ele>1459.919</ele>
        <time>2021-02-27T12:26:41Z</time>
      </trkpt>
      <trkpt lat="42.98504" lon="0.53185">
        <ele>1459.321</ele>
        <time>2021-02-27T12:26:43Z</time>
      </trkpt>
      <trkpt lat="42.98505" lon="0.53184">
        <ele>1459.26</ele>
        <time>2021-02-27T12:26:45Z</time>
      </trkpt>
      <trkpt lat="42.98506" lon="0.53182">
        <ele>1458.787</ele>
        <time>2021-02-27T12:26:47Z</time>
      </trkpt>
      <trkpt lat="42.98506" lon="0.5318">
        <ele>1458.5</ele>
        <time>2021-02-27T12:26:49Z</time>
      </trkpt>
      <trkpt lat="42.98507" lon="0.53178">
        <ele>1457.779</ele>
        <time>2021-02-27T12:26:52Z</time>
      </trkpt>
      <trkpt lat="42.98507" lon="0.53176">
        <ele>1457.74</ele>
        <time>2021-02-27T12:26:54Z</time>
      </trkpt>
      <trkpt lat="42.98507" lon="0.53174">
        <ele>1456.495</ele>
        <time>2021-02-27T12:26:56Z</time>
      </trkpt>
      <trkpt lat="42.98507" lon="0.53173">
        <ele>1455.688</ele>
        <time>2021-02-27T12:26:58Z</time>
      </trkpt>
      <trkpt lat="42.98507" lon="0.53171">
        <ele>1456.117</ele>
        <time>2021-02-27T12:27:00Z</time>
      </trkpt>
      <trkpt lat="42.98508" lon="0.5317">
        <ele>1455.22</ele>
        <time>2021-02-27T12:27:02Z</time>
      </trkpt>
      <trkpt lat="42.98509" lon="0.53168">
        <ele>1453.81</ele>
        <time>2021-02-27T12:27:04Z</time>
      </trkpt>
      <trkpt lat="42.98511" lon="0.53166">
        <ele>1453.725</ele>
        <time>2021-02-27T12:27:06Z</time>
      </trkpt>
      <trkpt lat="42.98512" lon="0.53165">
        <ele>1453.206</ele>
        <time>2021-02-27T12:27:08Z</time>
      </trkpt>
      <trkpt lat="42.98513" lon="0.53163">
        <ele>1452.706</ele>
        <time>2021-02-27T12:27:10Z</time>
      </trkpt>
      <trkpt lat="42.98515" lon="0.53161">
        <ele>1451.483</ele>
        <time>2021-02-27T12:27:12Z</time>
      </trkpt>
      <trkpt lat="42.98516" lon="0.5316">
        <ele>1452.162</ele>
        <time>2021-02-27T12:27:14Z</time>
      </trkpt>
      <trkpt lat="42.98517" lon="0.53158">
        <ele>1452.763</ele>
        <time>2021-02-27T12:27:16Z</time>
      </trkpt>
      <trkpt lat="42.98518" lon="0.53156">
        <ele>1452.609</ele>
        <time>2021-02-27T12:27:18Z</time>
      </trkpt>
      <trkpt lat="42.98519" lon="0.53154">
        <ele>1452.209</ele>
        <time>2021-02-27T12:27:20Z</time>
      </trkpt>
      <trkpt lat="42.9852" lon="0.53152">
        <ele>1451.159</ele>
        <time>2021-02-27T12:27:22Z</time>
      </trkpt>
      <trkpt lat="42.98521" lon="0.5315">
        <ele>1450.379</ele>
        <time>2021-02-27T12:27:24Z</time>
      </trkpt>
      <trkpt lat="42.98522" lon="0.53149">
        <ele>1450.349</ele>
        <time>2021-02-27T12:27:25Z</time>
      </trkpt>
      <trkpt lat="42.98524" lon="0.53142">
        <ele>1449.07</ele>
        <time>2021-02-27T12:27:31Z</time>
      </trkpt>
      <trkpt lat="42.98525" lon="0.53141">
        <ele>1448.669</ele>
        <time>2021-02-27T12:27:33Z</time>
      </trkpt>
      <trkpt lat="42.98526" lon="0.5314">
        <ele>1449.37</ele>
        <time>2021-02-27T12:27:35Z</time>
      </trkpt>
      <trkpt lat="42.98527" lon="0.53139">
        <ele>1448.404</ele>
        <time>2021-02-27T12:27:37Z</time>
      </trkpt>
      <trkpt lat="42.98528" lon="0.53137">
        <ele>1448.949</ele>
        <time>2021-02-27T12:27:39Z</time>
      </trkpt>
      <trkpt lat="42.98529" lon="0.53136">
        <ele>1448.675</ele>
        <time>2021-02-27T12:27:41Z</time>
      </trkpt>
      <trkpt lat="42.9853" lon="0.53134">
        <ele>1447.796</ele>
        <time>2021-02-27T12:27:43Z</time>
      </trkpt>
      <trkpt lat="42.98532" lon="0.53132">
        <ele>1447.449</ele>
        <time>2021-02-27T12:27:45Z</time>
      </trkpt>
      <trkpt lat="42.98533" lon="0.5313">
        <ele>1446.248</ele>
        <time>2021-02-27T12:27:47Z</time>
      </trkpt>
      <trkpt lat="42.98535" lon="0.53128">
        <ele>1445.846</ele>
        <time>2021-02-27T12:27:49Z</time>
      </trkpt>
      <trkpt lat="42.98535" lon="0.53125">
        <ele>1445.54</ele>
        <time>2021-02-27T12:27:51Z</time>
      </trkpt>
      <trkpt lat="42.98535" lon="0.53124">
        <ele>1444.901</ele>
        <time>2021-02-27T12:27:53Z</time>
      </trkpt>
      <trkpt lat="42.98536" lon="0.53122">
        <ele>1445.317</ele>
        <time>2021-02-27T12:27:55Z</time>
      </trkpt>
      <trkpt lat="42.98536" lon="0.53121">
        <ele>1444.437</ele>
        <time>2021-02-27T12:27:57Z</time>
      </trkpt>
      <trkpt lat="42.98537" lon="0.5312">
        <ele>1443.301</ele>
        <time>2021-02-27T12:27:59Z</time>
      </trkpt>
      <trkpt lat="42.98537" lon="0.53118">
        <ele>1442.566</ele>
        <time>2021-02-27T12:28:01Z</time>
      </trkpt>
      <trkpt lat="42.98538" lon="0.53116">
        <ele>1441.778</ele>
        <time>2021-02-27T12:28:03Z</time>
      </trkpt>
      <trkpt lat="42.98539" lon="0.53115">
        <ele>1441.025</ele>
        <time>2021-02-27T12:28:05Z</time>
      </trkpt>
      <trkpt lat="42.9854" lon="0.53114">
        <ele>1440.608</ele>
        <time>2021-02-27T12:28:06Z</time>
      </trkpt>
      <trkpt lat="42.98541" lon="0.5311">
        <ele>1440.558</ele>
        <time>2021-02-27T12:28:09Z</time>
      </trkpt>
      <trkpt lat="42.98543" lon="0.53108">
        <ele>1439.667</ele>
        <time>2021-02-27T12:28:11Z</time>
      </trkpt>
      <trkpt lat="42.98544" lon="0.53106">
        <ele>1440.18</ele>
        <time>2021-02-27T12:28:13Z</time>
      </trkpt>
      <trkpt lat="42.98545" lon="0.53104">
        <ele>1440.342</ele>
        <time>2021-02-27T12:28:15Z</time>
      </trkpt>
      <trkpt lat="42.98547" lon="0.53102">
        <ele>1440.077</ele>
        <time>2021-02-27T12:28:17Z</time>
      </trkpt>
      <trkpt lat="42.98549" lon="0.53099">
        <ele>1438.867</ele>
        <time>2021-02-27T12:28:19Z</time>
      </trkpt>
      <trkpt lat="42.98549" lon="0.53097">
        <ele>1437.75</ele>
        <time>2021-02-27T12:28:21Z</time>
      </trkpt>
      <trkpt lat="42.9855" lon="0.53095">
        <ele>1438.425</ele>
        <time>2021-02-27T12:28:23Z</time>
      </trkpt>
      <trkpt lat="42.98551" lon="0.53092">
        <ele>1438.064</ele>
        <time>2021-02-27T12:28:25Z</time>
      </trkpt>
      <trkpt lat="42.98553" lon="0.53091">
        <ele>1437.529</ele>
        <time>2021-02-27T12:28:27Z</time>
      </trkpt>
      <trkpt lat="42.98554" lon="0.53089">
        <ele>1436.917</ele>
        <time>2021-02-27T12:28:29Z</time>
      </trkpt>
      <trkpt lat="42.98555" lon="0.53087">
        <ele>1435.591</ele>
        <time>2021-02-27T12:28:31Z</time>
      </trkpt>
      <trkpt lat="42.98556" lon="0.53085">
        <ele>1435.54</ele>
        <time>2021-02-27T12:28:33Z</time>
      </trkpt>
      <trkpt lat="42.98556" lon="0.53083">
        <ele>1435.363</ele>
        <time>2021-02-27T12:28:35Z</time>
      </trkpt>
      <trkpt lat="42.98557" lon="0.53082">
        <ele>1435.458</ele>
        <time>2021-02-27T12:28:37Z</time>
      </trkpt>
      <trkpt lat="42.98558" lon="0.5308">
        <ele>1435.804</ele>
        <time>2021-02-27T12:28:39Z</time>
      </trkpt>
      <trkpt lat="42.98559" lon="0.53078">
        <ele>1436.651</ele>
        <time>2021-02-27T12:28:41Z</time>
      </trkpt>
      <trkpt lat="42.9856" lon="0.53076">
        <ele>1436.373</ele>
        <time>2021-02-27T12:28:43Z</time>
      </trkpt>
      <trkpt lat="42.9856" lon="0.53075">
        <ele>1435.824</ele>
        <time>2021-02-27T12:28:45Z</time>
      </trkpt>
      <trkpt lat="42.9856" lon="0.53075">
        <ele>1435.896</ele>
        <time>2021-02-27T12:28:47Z</time>
      </trkpt>
      <trkpt lat="42.9856" lon="0.53075">
        <ele>1435.897</ele>
        <time>2021-02-27T12:28:49Z</time>
      </trkpt>
      <trkpt lat="42.9856" lon="0.53075">
        <ele>1435.902</ele>
        <time>2021-02-27T12:28:51Z</time>
      </trkpt>
      <trkpt lat="42.9856" lon="0.53075">
        <ele>1435.894</ele>
        <time>2021-02-27T12:28:53Z</time>
      </trkpt>
      <trkpt lat="42.9856" lon="0.53075">
        <ele>1435.892</ele>
        <time>2021-02-27T12:28:55Z</time>
      </trkpt>
      <trkpt lat="42.9856" lon="0.53074">
        <ele>1435.443</ele>
        <time>2021-02-27T12:28:57Z</time>
      </trkpt>
      <trkpt lat="42.9856" lon="0.53074">
        <ele>1436.443</ele>
        <time>2021-02-27T12:28:59Z</time>
      </trkpt>
      <trkpt lat="42.98562" lon="0.53072">
        <ele>1437.179</ele>
        <time>2021-02-27T12:29:01Z</time>
      </trkpt>
      <trkpt lat="42.98562" lon="0.53072">
        <ele>1436.952</ele>
        <time>2021-02-27T12:29:03Z</time>
      </trkpt>
      <trkpt lat="42.98564" lon="0.53071">
        <ele>1436.863</ele>
        <time>2021-02-27T12:29:05Z</time>
      </trkpt>
      <trkpt lat="42.98564" lon="0.53071">
        <ele>1435.645</ele>
        <time>2021-02-27T12:29:07Z</time>
      </trkpt>
      <trkpt lat="42.98566" lon="0.53069">
        <ele>1435.373</ele>
        <time>2021-02-27T12:29:09Z</time>
      </trkpt>
      <trkpt lat="42.98567" lon="0.5307">
        <ele>1435.872</ele>
        <time>2021-02-27T12:29:11Z</time>
      </trkpt>
      <trkpt lat="42.98569" lon="0.5307">
        <ele>1436.487</ele>
        <time>2021-02-27T12:29:13Z</time>
      </trkpt>
      <trkpt lat="42.9857" lon="0.5307">
        <ele>1436.864</ele>
        <time>2021-02-27T12:29:15Z</time>
      </trkpt>
      <trkpt lat="42.9857" lon="0.53069">
        <ele>1436.903</ele>
        <time>2021-02-27T12:29:17Z</time>
      </trkpt>
      <trkpt lat="42.9857" lon="0.53069">
        <ele>1436.91</ele>
        <time>2021-02-27T12:29:19Z</time>
      </trkpt>
      <trkpt lat="42.9857" lon="0.53069">
        <ele>1436.908</ele>
        <time>2021-02-27T12:29:21Z</time>
      </trkpt>
      <trkpt lat="42.9857" lon="0.53069">
        <ele>1437.364</ele>
        <time>2021-02-27T12:29:23Z</time>
      </trkpt>
      <trkpt lat="42.98571" lon="0.53069">
        <ele>1437.372</ele>
        <time>2021-02-27T12:29:25Z</time>
      </trkpt>
      <trkpt lat="42.98571" lon="0.53068">
        <ele>1436.984</ele>
        <time>2021-02-27T12:29:27Z</time>
      </trkpt>
      <trkpt lat="42.98572" lon="0.53066">
        <ele>1436.321</ele>
        <time>2021-02-27T12:29:29Z</time>
      </trkpt>
      <trkpt lat="42.98573" lon="0.53065">
        <ele>1434.963</ele>
        <time>2021-02-27T12:29:31Z</time>
      </trkpt>
      <trkpt lat="42.98574" lon="0.53063">
        <ele>1434.432</ele>
        <time>2021-02-27T12:29:33Z</time>
      </trkpt>
      <trkpt lat="42.98576" lon="0.53062">
        <ele>1435.101</ele>
        <time>2021-02-27T12:29:35Z</time>
      </trkpt>
      <trkpt lat="42.98577" lon="0.53061">
        <ele>1434.938</ele>
        <time>2021-02-27T12:29:37Z</time>
      </trkpt>
      <trkpt lat="42.98578" lon="0.5306">
        <ele>1434.038</ele>
        <time>2021-02-27T12:29:39Z</time>
      </trkpt>
      <trkpt lat="42.9858" lon="0.53059">
        <ele>1433.814</ele>
        <time>2021-02-27T12:29:41Z</time>
      </trkpt>
      <trkpt lat="42.98582" lon="0.53058">
        <ele>1432.373</ele>
        <time>2021-02-27T12:29:43Z</time>
      </trkpt>
      <trkpt lat="42.98583" lon="0.53057">
        <ele>1431.966</ele>
        <time>2021-02-27T12:29:45Z</time>
      </trkpt>
      <trkpt lat="42.98584" lon="0.53056">
        <ele>1431.249</ele>
        <time>2021-02-27T12:29:47Z</time>
      </trkpt>
      <trkpt lat="42.98585" lon="0.53054">
        <ele>1430.95</ele>
        <time>2021-02-27T12:29:49Z</time>
      </trkpt>
      <trkpt lat="42.98586" lon="0.53051">
        <ele>1428.866</ele>
        <time>2021-02-27T12:29:51Z</time>
      </trkpt>
      <trkpt lat="42.98586" lon="0.53049">
        <ele>1427.524</ele>
        <time>2021-02-27T12:29:53Z</time>
      </trkpt>
      <trkpt lat="42.98587" lon="0.53047">
        <ele>1427.104</ele>
        <time>2021-02-27T12:29:55Z</time>
      </trkpt>
      <trkpt lat="42.98588" lon="0.53045">
        <ele>1427.61</ele>
        <time>2021-02-27T12:29:57Z</time>
      </trkpt>
      <trkpt lat="42.98588" lon="0.53042">
        <ele>1427.08</ele>
        <time>2021-02-27T12:29:59Z</time>
      </trkpt>
      <trkpt lat="42.98589" lon="0.5304">
        <ele>1425.918</ele>
        <time>2021-02-27T12:30:01Z</time>
      </trkpt>
      <trkpt lat="42.9859" lon="0.53037">
        <ele>1424.155</ele>
        <time>2021-02-27T12:30:03Z</time>
      </trkpt>
      <trkpt lat="42.98591" lon="0.53035">
        <ele>1424.106</ele>
        <time>2021-02-27T12:30:05Z</time>
      </trkpt>
      <trkpt lat="42.98592" lon="0.53033">
        <ele>1423.93</ele>
        <time>2021-02-27T12:30:07Z</time>
      </trkpt>
      <trkpt lat="42.98592" lon="0.5303">
        <ele>1422.358</ele>
        <time>2021-02-27T12:30:09Z</time>
      </trkpt>
      <trkpt lat="42.98592" lon="0.53028">
        <ele>1421.276</ele>
        <time>2021-02-27T12:30:11Z</time>
      </trkpt>
      <trkpt lat="42.98592" lon="0.53026">
        <ele>1421.156</ele>
        <time>2021-02-27T12:30:13Z</time>
      </trkpt>
      <trkpt lat="42.98592" lon="0.53024">
        <ele>1420.565</ele>
        <time>2021-02-27T12:30:15Z</time>
      </trkpt>
      <trkpt lat="42.98593" lon="0.53021">
        <ele>1421.194</ele>
        <time>2021-02-27T12:30:17Z</time>
      </trkpt>
      <trkpt lat="42.98595" lon="0.53019">
        <ele>1420.487</ele>
        <time>2021-02-27T12:30:19Z</time>
      </trkpt>
      <trkpt lat="42.98596" lon="0.53016">
        <ele>1421.967</ele>
        <time>2021-02-27T12:30:21Z</time>
      </trkpt>
      <trkpt lat="42.98596" lon="0.53013">
        <ele>1421.502</ele>
        <time>2021-02-27T12:30:23Z</time>
      </trkpt>
      <trkpt lat="42.98596" lon="0.53011">
        <ele>1420.781</ele>
        <time>2021-02-27T12:30:25Z</time>
      </trkpt>
      <trkpt lat="42.98597" lon="0.53009">
        <ele>1420.745</ele>
        <time>2021-02-27T12:30:27Z</time>
      </trkpt>
      <trkpt lat="42.98597" lon="0.53007">
        <ele>1420.463</ele>
        <time>2021-02-27T12:30:29Z</time>
      </trkpt>
      <trkpt lat="42.98598" lon="0.53005">
        <ele>1419.641</ele>
        <time>2021-02-27T12:30:31Z</time>
      </trkpt>
      <trkpt lat="42.98598" lon="0.53003">
        <ele>1418.818</ele>
        <time>2021-02-27T12:30:33Z</time>
      </trkpt>
      <trkpt lat="42.98598" lon="0.53001">
        <ele>1418.216</ele>
        <time>2021-02-27T12:30:35Z</time>
      </trkpt>
      <trkpt lat="42.98598" lon="0.52999">
        <ele>1417.896</ele>
        <time>2021-02-27T12:30:37Z</time>
      </trkpt>
      <trkpt lat="42.98598" lon="0.52997">
        <ele>1418.32</ele>
        <time>2021-02-27T12:30:39Z</time>
      </trkpt>
      <trkpt lat="42.98599" lon="0.52995">
        <ele>1417.722</ele>
        <time>2021-02-27T12:30:41Z</time>
      </trkpt>
      <trkpt lat="42.986" lon="0.52992">
        <ele>1418.002</ele>
        <time>2021-02-27T12:30:43Z</time>
      </trkpt>
      <trkpt lat="42.98601" lon="0.5299">
        <ele>1418.156</ele>
        <time>2021-02-27T12:30:45Z</time>
      </trkpt>
      <trkpt lat="42.98602" lon="0.52988">
        <ele>1418.094</ele>
        <time>2021-02-27T12:30:47Z</time>
      </trkpt>
      <trkpt lat="42.98603" lon="0.52985">
        <ele>1417.294</ele>
        <time>2021-02-27T12:30:49Z</time>
      </trkpt>
      <trkpt lat="42.98604" lon="0.52983">
        <ele>1416.523</ele>
        <time>2021-02-27T12:30:51Z</time>
      </trkpt>
      <trkpt lat="42.98604" lon="0.52981">
        <ele>1415.909</ele>
        <time>2021-02-27T12:30:53Z</time>
      </trkpt>
      <trkpt lat="42.98605" lon="0.52978">
        <ele>1415.864</ele>
        <time>2021-02-27T12:30:55Z</time>
      </trkpt>
      <trkpt lat="42.98606" lon="0.52976">
        <ele>1415.898</ele>
        <time>2021-02-27T12:30:57Z</time>
      </trkpt>
      <trkpt lat="42.98607" lon="0.52974">
        <ele>1416.401</ele>
        <time>2021-02-27T12:30:59Z</time>
      </trkpt>
      <trkpt lat="42.98607" lon="0.52971">
        <ele>1416.215</ele>
        <time>2021-02-27T12:31:01Z</time>
      </trkpt>
      <trkpt lat="42.98608" lon="0.5297">
        <ele>1414.372</ele>
        <time>2021-02-27T12:31:03Z</time>
      </trkpt>
      <trkpt lat="42.98608" lon="0.52967">
        <ele>1414.648</ele>
        <time>2021-02-27T12:31:05Z</time>
      </trkpt>
      <trkpt lat="42.98609" lon="0.52965">
        <ele>1414.177</ele>
        <time>2021-02-27T12:31:07Z</time>
      </trkpt>
      <trkpt lat="42.9861" lon="0.52963">
        <ele>1413.321</ele>
        <time>2021-02-27T12:31:09Z</time>
      </trkpt>
      <trkpt lat="42.98609" lon="0.5296">
        <ele>1412.502</ele>
        <time>2021-02-27T12:31:11Z</time>
      </trkpt>
      <trkpt lat="42.9861" lon="0.52958">
        <ele>1412.653</ele>
        <time>2021-02-27T12:31:13Z</time>
      </trkpt>
      <trkpt lat="42.98611" lon="0.52955">
        <ele>1412.709</ele>
        <time>2021-02-27T12:31:15Z</time>
      </trkpt>
      <trkpt lat="42.98612" lon="0.52951">
        <ele>1412.711</ele>
        <time>2021-02-27T12:31:17Z</time>
      </trkpt>
      <trkpt lat="42.98613" lon="0.52948">
        <ele>1414.171</ele>
        <time>2021-02-27T12:31:19Z</time>
      </trkpt>
      <trkpt lat="42.98614" lon="0.52946">
        <ele>1413.593</ele>
        <time>2021-02-27T12:31:21Z</time>
      </trkpt>
      <trkpt lat="42.98615" lon="0.52944">
        <ele>1413.097</ele>
        <time>2021-02-27T12:31:23Z</time>
      </trkpt>
      <trkpt lat="42.98615" lon="0.52942">
        <ele>1413.235</ele>
        <time>2021-02-27T12:31:25Z</time>
      </trkpt>
      <trkpt lat="42.98616" lon="0.52941">
        <ele>1412.261</ele>
        <time>2021-02-27T12:31:27Z</time>
      </trkpt>
      <trkpt lat="42.98616" lon="0.52939">
        <ele>1412.002</ele>
        <time>2021-02-27T12:31:29Z</time>
      </trkpt>
      <trkpt lat="42.98616" lon="0.52937">
        <ele>1411.779</ele>
        <time>2021-02-27T12:31:31Z</time>
      </trkpt>
      <trkpt lat="42.98617" lon="0.52936">
        <ele>1410.618</ele>
        <time>2021-02-27T12:31:33Z</time>
      </trkpt>
      <trkpt lat="42.98618" lon="0.52934">
        <ele>1411.442</ele>
        <time>2021-02-27T12:31:35Z</time>
      </trkpt>
      <trkpt lat="42.98619" lon="0.52932">
        <ele>1411.526</ele>
        <time>2021-02-27T12:31:37Z</time>
      </trkpt>
      <trkpt lat="42.98619" lon="0.5293">
        <ele>1411.346</ele>
        <time>2021-02-27T12:31:39Z</time>
      </trkpt>
      <trkpt lat="42.98619" lon="0.52926">
        <ele>1411.919</ele>
        <time>2021-02-27T12:31:41Z</time>
      </trkpt>
      <trkpt lat="42.9862" lon="0.52924">
        <ele>1411.474</ele>
        <time>2021-02-27T12:31:43Z</time>
      </trkpt>
      <trkpt lat="42.98621" lon="0.52922">
        <ele>1411.49</ele>
        <time>2021-02-27T12:31:45Z</time>
      </trkpt>
      <trkpt lat="42.98622" lon="0.52923">
        <ele>1412.091</ele>
        <time>2021-02-27T12:31:47Z</time>
      </trkpt>
      <trkpt lat="42.98623" lon="0.52924">
        <ele>1412.667</ele>
        <time>2021-02-27T12:31:49Z</time>
      </trkpt>
      <trkpt lat="42.98623" lon="0.52924">
        <ele>1412.716</ele>
        <time>2021-02-27T12:31:51Z</time>
      </trkpt>
      <trkpt lat="42.98623" lon="0.52924">
        <ele>1412.719</ele>
        <time>2021-02-27T12:31:53Z</time>
      </trkpt>
      <trkpt lat="42.98623" lon="0.52924">
        <ele>1412.716</ele>
        <time>2021-02-27T12:31:55Z</time>
      </trkpt>
      <trkpt lat="42.98623" lon="0.52924">
        <ele>1412.722</ele>
        <time>2021-02-27T12:31:57Z</time>
      </trkpt>
      <trkpt lat="42.98624" lon="0.52923">
        <ele>1412.881</ele>
        <time>2021-02-27T12:31:59Z</time>
      </trkpt>
      <trkpt lat="42.98625" lon="0.52922">
        <ele>1412.426</ele>
        <time>2021-02-27T12:32:01Z</time>
      </trkpt>
      <trkpt lat="42.98625" lon="0.52922">
        <ele>1412.449</ele>
        <time>2021-02-27T12:32:03Z</time>
      </trkpt>
      <trkpt lat="42.98625" lon="0.52922">
        <ele>1412.679</ele>
        <time>2021-02-27T12:32:05Z</time>
      </trkpt>
      <trkpt lat="42.98626" lon="0.5292">
        <ele>1412.121</ele>
        <time>2021-02-27T12:32:07Z</time>
      </trkpt>
      <trkpt lat="42.98627" lon="0.52918">
        <ele>1411.603</ele>
        <time>2021-02-27T12:32:09Z</time>
      </trkpt>
      <trkpt lat="42.98628" lon="0.52916">
        <ele>1412.481</ele>
        <time>2021-02-27T12:32:11Z</time>
      </trkpt>
      <trkpt lat="42.98628" lon="0.52916">
        <ele>1412.641</ele>
        <time>2021-02-27T12:32:13Z</time>
      </trkpt>
      <trkpt lat="42.98628" lon="0.52916">
        <ele>1412.655</ele>
        <time>2021-02-27T12:32:15Z</time>
      </trkpt>
      <trkpt lat="42.98628" lon="0.52916">
        <ele>1412.684</ele>
        <time>2021-02-27T12:32:17Z</time>
      </trkpt>
      <trkpt lat="42.98628" lon="0.52916">
        <ele>1412.694</ele>
        <time>2021-02-27T12:32:19Z</time>
      </trkpt>
      <trkpt lat="42.98628" lon="0.52916">
        <ele>1412.69</ele>
        <time>2021-02-27T12:32:21Z</time>
      </trkpt>
      <trkpt lat="42.98628" lon="0.52916">
        <ele>1412.693</ele>
        <time>2021-02-27T12:32:23Z</time>
      </trkpt>
      <trkpt lat="42.98628" lon="0.52916">
        <ele>1412.695</ele>
        <time>2021-02-27T12:32:25Z</time>
      </trkpt>
      <trkpt lat="42.98628" lon="0.52916">
        <ele>1412.695</ele>
        <time>2021-02-27T12:32:27Z</time>
      </trkpt>
      <trkpt lat="42.98629" lon="0.52917">
        <ele>1412.378</ele>
        <time>2021-02-27T12:32:29Z</time>
      </trkpt>
      <trkpt lat="42.98629" lon="0.52917">
        <ele>1412.346</ele>
        <time>2021-02-27T12:32:31Z</time>
      </trkpt>
      <trkpt lat="42.98629" lon="0.52917">
        <ele>1412.346</ele>
        <time>2021-02-27T12:32:33Z</time>
      </trkpt>
      <trkpt lat="42.98629" lon="0.52917">
        <ele>1412.341</ele>
        <time>2021-02-27T12:32:35Z</time>
      </trkpt>
      <trkpt lat="42.98629" lon="0.52917">
        <ele>1412.377</ele>
        <time>2021-02-27T12:32:37Z</time>
      </trkpt>
      <trkpt lat="42.98629" lon="0.52917">
        <ele>1412.338</ele>
        <time>2021-02-27T12:32:39Z</time>
      </trkpt>
      <trkpt lat="42.98629" lon="0.52917">
        <ele>1412.328</ele>
        <time>2021-02-27T12:32:41Z</time>
      </trkpt>
      <trkpt lat="42.98629" lon="0.52917">
        <ele>1412.312</ele>
        <time>2021-02-27T12:32:43Z</time>
      </trkpt>
      <trkpt lat="42.98629" lon="0.52917">
        <ele>1412.299</ele>
        <time>2021-02-27T12:32:45Z</time>
      </trkpt>
      <trkpt lat="42.98629" lon="0.52917">
        <ele>1412.287</ele>
        <time>2021-02-27T12:32:47Z</time>
      </trkpt>
      <trkpt lat="42.98629" lon="0.52917">
        <ele>1412.281</ele>
        <time>2021-02-27T12:32:49Z</time>
      </trkpt>
      <trkpt lat="42.98629" lon="0.52917">
        <ele>1412.268</ele>
        <time>2021-02-27T12:32:51Z</time>
      </trkpt>
      <trkpt lat="42.98629" lon="0.52917">
        <ele>1412.259</ele>
        <time>2021-02-27T12:32:53Z</time>
      </trkpt>
      <trkpt lat="42.98629" lon="0.52917">
        <ele>1412.255</ele>
        <time>2021-02-27T12:32:55Z</time>
      </trkpt>
      <trkpt lat="42.98629" lon="0.52917">
        <ele>1412.251</ele>
        <time>2021-02-27T12:32:57Z</time>
      </trkpt>
      <trkpt lat="42.98629" lon="0.52918">
        <ele>1412.329</ele>
        <time>2021-02-27T12:32:59Z</time>
      </trkpt>
      <trkpt lat="42.98629" lon="0.52918">
        <ele>1412.298</ele>
        <time>2021-02-27T12:33:01Z</time>
      </trkpt>
      <trkpt lat="42.9863" lon="0.52921">
        <ele>1412.024</ele>
        <time>2021-02-27T12:33:03Z</time>
      </trkpt>
      <trkpt lat="42.9863" lon="0.52923">
        <ele>1411.49</ele>
        <time>2021-02-27T12:33:05Z</time>
      </trkpt>
      <trkpt lat="42.98632" lon="0.52925">
        <ele>1410.922</ele>
        <time>2021-02-27T12:33:07Z</time>
      </trkpt>
      <trkpt lat="42.98632" lon="0.52925">
        <ele>1410.85</ele>
        <time>2021-02-27T12:33:09Z</time>
      </trkpt>
      <trkpt lat="42.98632" lon="0.52925">
        <ele>1410.836</ele>
        <time>2021-02-27T12:33:11Z</time>
      </trkpt>
      <trkpt lat="42.98632" lon="0.52925">
        <ele>1410.819</ele>
        <time>2021-02-27T12:33:13Z</time>
      </trkpt>
      <trkpt lat="42.98633" lon="0.52925">
        <ele>1410.813</ele>
        <time>2021-02-27T12:33:15Z</time>
      </trkpt>
      <trkpt lat="42.98633" lon="0.52925">
        <ele>1410.811</ele>
        <time>2021-02-27T12:33:17Z</time>
      </trkpt>
      <trkpt lat="42.98633" lon="0.52925">
        <ele>1410.145</ele>
        <time>2021-02-27T12:33:19Z</time>
      </trkpt>
      <trkpt lat="42.98632" lon="0.52925">
        <ele>1409.31</ele>
        <time>2021-02-27T12:33:21Z</time>
      </trkpt>
      <trkpt lat="42.98632" lon="0.52925">
        <ele>1409.303</ele>
        <time>2021-02-27T12:33:23Z</time>
      </trkpt>
      <trkpt lat="42.98632" lon="0.52925">
        <ele>1409.3</ele>
        <time>2021-02-27T12:33:25Z</time>
      </trkpt>
      <trkpt lat="42.98631" lon="0.52925">
        <ele>1408.699</ele>
        <time>2021-02-27T12:33:27Z</time>
      </trkpt>
      <trkpt lat="42.98632" lon="0.52927">
        <ele>1409.202</ele>
        <time>2021-02-27T12:33:29Z</time>
      </trkpt>
      <trkpt lat="42.98632" lon="0.52929">
        <ele>1408.46</ele>
        <time>2021-02-27T12:33:31Z</time>
      </trkpt>
      <trkpt lat="42.98631" lon="0.52932">
        <ele>1407.227</ele>
        <time>2021-02-27T12:33:33Z</time>
      </trkpt>
      <trkpt lat="42.98632" lon="0.52935">
        <ele>1407.073</ele>
        <time>2021-02-27T12:33:35Z</time>
      </trkpt>
      <trkpt lat="42.98633" lon="0.52936">
        <ele>1406.431</ele>
        <time>2021-02-27T12:33:37Z</time>
      </trkpt>
      <trkpt lat="42.98632" lon="0.52938">
        <ele>1406.804</ele>
        <time>2021-02-27T12:33:39Z</time>
      </trkpt>
      <trkpt lat="42.98632" lon="0.5294">
        <ele>1407.5</ele>
        <time>2021-02-27T12:33:41Z</time>
      </trkpt>
      <trkpt lat="42.98632" lon="0.52943">
        <ele>1407.484</ele>
        <time>2021-02-27T12:33:43Z</time>
      </trkpt>
      <trkpt lat="42.98633" lon="0.52945">
        <ele>1407.338</ele>
        <time>2021-02-27T12:33:45Z</time>
      </trkpt>
      <trkpt lat="42.98633" lon="0.52947">
        <ele>1406.59</ele>
        <time>2021-02-27T12:33:47Z</time>
      </trkpt>
      <trkpt lat="42.98633" lon="0.52951">
        <ele>1407.599</ele>
        <time>2021-02-27T12:33:49Z</time>
      </trkpt>
      <trkpt lat="42.98633" lon="0.52953">
        <ele>1407.08</ele>
        <time>2021-02-27T12:33:51Z</time>
      </trkpt>
      <trkpt lat="42.98633" lon="0.52955">
        <ele>1407.054</ele>
        <time>2021-02-27T12:33:53Z</time>
      </trkpt>
      <trkpt lat="42.98633" lon="0.52958">
        <ele>1407.175</ele>
        <time>2021-02-27T12:33:55Z</time>
      </trkpt>
      <trkpt lat="42.98633" lon="0.52962">
        <ele>1407.668</ele>
        <time>2021-02-27T12:33:57Z</time>
      </trkpt>
      <trkpt lat="42.98634" lon="0.52964">
        <ele>1408.561</ele>
        <time>2021-02-27T12:33:59Z</time>
      </trkpt>
      <trkpt lat="42.98634" lon="0.52967">
        <ele>1408.838</ele>
        <time>2021-02-27T12:34:01Z</time>
      </trkpt>
      <trkpt lat="42.98634" lon="0.5297">
        <ele>1409.414</ele>
        <time>2021-02-27T12:34:03Z</time>
      </trkpt>
      <trkpt lat="42.98634" lon="0.52973">
        <ele>1409.79</ele>
        <time>2021-02-27T12:34:05Z</time>
      </trkpt>
      <trkpt lat="42.98633" lon="0.52975">
        <ele>1410.218</ele>
        <time>2021-02-27T12:34:07Z</time>
      </trkpt>
      <trkpt lat="42.98633" lon="0.52977">
        <ele>1409.616</ele>
        <time>2021-02-27T12:34:09Z</time>
      </trkpt>
      <trkpt lat="42.98633" lon="0.5298">
        <ele>1410.009</ele>
        <time>2021-02-27T12:34:11Z</time>
      </trkpt>
      <trkpt lat="42.98633" lon="0.52981">
        <ele>1409.214</ele>
        <time>2021-02-27T12:34:13Z</time>
      </trkpt>
      <trkpt lat="42.98633" lon="0.52983">
        <ele>1409.693</ele>
        <time>2021-02-27T12:34:15Z</time>
      </trkpt>
      <trkpt lat="42.98633" lon="0.52985">
        <ele>1409.432</ele>
        <time>2021-02-27T12:34:17Z</time>
      </trkpt>
      <trkpt lat="42.98633" lon="0.52987">
        <ele>1408.468</ele>
        <time>2021-02-27T12:34:19Z</time>
      </trkpt>
      <trkpt lat="42.98632" lon="0.52988">
        <ele>1407.363</ele>
        <time>2021-02-27T12:34:21Z</time>
      </trkpt>
      <trkpt lat="42.98632" lon="0.52991">
        <ele>1406.795</ele>
        <time>2021-02-27T12:34:23Z</time>
      </trkpt>
      <trkpt lat="42.98632" lon="0.52993">
        <ele>1405.616</ele>
        <time>2021-02-27T12:34:25Z</time>
      </trkpt>
      <trkpt lat="42.98631" lon="0.52994">
        <ele>1405.237</ele>
        <time>2021-02-27T12:34:27Z</time>
      </trkpt>
      <trkpt lat="42.98631" lon="0.52996">
        <ele>1404.246</ele>
        <time>2021-02-27T12:34:29Z</time>
      </trkpt>
      <trkpt lat="42.98631" lon="0.52999">
        <ele>1404.27</ele>
        <time>2021-02-27T12:34:31Z</time>
      </trkpt>
      <trkpt lat="42.98631" lon="0.53">
        <ele>1404.368</ele>
        <time>2021-02-27T12:34:33Z</time>
      </trkpt>
      <trkpt lat="42.98631" lon="0.53002">
        <ele>1404.831</ele>
        <time>2021-02-27T12:34:35Z</time>
      </trkpt>
      <trkpt lat="42.98631" lon="0.53003">
        <ele>1405.25</ele>
        <time>2021-02-27T12:34:37Z</time>
      </trkpt>
      <trkpt lat="42.98631" lon="0.53005">
        <ele>1405.314</ele>
        <time>2021-02-27T12:34:39Z</time>
      </trkpt>
      <trkpt lat="42.98631" lon="0.53007">
        <ele>1405.941</ele>
        <time>2021-02-27T12:34:41Z</time>
      </trkpt>
      <trkpt lat="42.98631" lon="0.5301">
        <ele>1407.528</ele>
        <time>2021-02-27T12:34:43Z</time>
      </trkpt>
      <trkpt lat="42.98631" lon="0.53011">
        <ele>1407.977</ele>
        <time>2021-02-27T12:34:45Z</time>
      </trkpt>
      <trkpt lat="42.9863" lon="0.53013">
        <ele>1407.044</ele>
        <time>2021-02-27T12:34:47Z</time>
      </trkpt>
      <trkpt lat="42.9863" lon="0.53015">
        <ele>1408.607</ele>
        <time>2021-02-27T12:34:49Z</time>
      </trkpt>
      <trkpt lat="42.98628" lon="0.53017">
        <ele>1409.053</ele>
        <time>2021-02-27T12:34:51Z</time>
      </trkpt>
      <trkpt lat="42.98628" lon="0.53017">
        <ele>1409.067</ele>
        <time>2021-02-27T12:34:53Z</time>
      </trkpt>
      <trkpt lat="42.98628" lon="0.53017">
        <ele>1409.092</ele>
        <time>2021-02-27T12:34:54Z</time>
      </trkpt>
      <trkpt lat="42.98628" lon="0.53017">
        <ele>1409.095</ele>
        <time>2021-02-27T12:34:57Z</time>
      </trkpt>
      <trkpt lat="42.98628" lon="0.53018">
        <ele>1409.151</ele>
        <time>2021-02-27T12:34:59Z</time>
      </trkpt>
      <trkpt lat="42.98628" lon="0.53019">
        <ele>1409.003</ele>
        <time>2021-02-27T12:35:01Z</time>
      </trkpt>
      <trkpt lat="42.98627" lon="0.53022">
        <ele>1409.884</ele>
        <time>2021-02-27T12:35:03Z</time>
      </trkpt>
      <trkpt lat="42.98628" lon="0.53024">
        <ele>1409.677</ele>
        <time>2021-02-27T12:35:05Z</time>
      </trkpt>
      <trkpt lat="42.98628" lon="0.53027">
        <ele>1409.683</ele>
        <time>2021-02-27T12:35:07Z</time>
      </trkpt>
      <trkpt lat="42.98628" lon="0.53029">
        <ele>1408.496</ele>
        <time>2021-02-27T12:35:09Z</time>
      </trkpt>
      <trkpt lat="42.98628" lon="0.53031">
        <ele>1408.083</ele>
        <time>2021-02-27T12:35:11Z</time>
      </trkpt>
      <trkpt lat="42.98628" lon="0.53033">
        <ele>1408.013</ele>
        <time>2021-02-27T12:35:13Z</time>
      </trkpt>
      <trkpt lat="42.98627" lon="0.53035">
        <ele>1407.79</ele>
        <time>2021-02-27T12:35:15Z</time>
      </trkpt>
      <trkpt lat="42.98627" lon="0.53036">
        <ele>1407.534</ele>
        <time>2021-02-27T12:35:17Z</time>
      </trkpt>
      <trkpt lat="42.98627" lon="0.53037">
        <ele>1407.185</ele>
        <time>2021-02-27T12:35:19Z</time>
      </trkpt>
      <trkpt lat="42.98627" lon="0.5304">
        <ele>1406.555</ele>
        <time>2021-02-27T12:35:21Z</time>
      </trkpt>
      <trkpt lat="42.98627" lon="0.53042">
        <ele>1405.576</ele>
        <time>2021-02-27T12:35:23Z</time>
      </trkpt>
      <trkpt lat="42.98627" lon="0.53044">
        <ele>1403.806</ele>
        <time>2021-02-27T12:35:25Z</time>
      </trkpt>
      <trkpt lat="42.98627" lon="0.53046">
        <ele>1403.445</ele>
        <time>2021-02-27T12:35:27Z</time>
      </trkpt>
      <trkpt lat="42.98627" lon="0.53048">
        <ele>1402.171</ele>
        <time>2021-02-27T12:35:29Z</time>
      </trkpt>
      <trkpt lat="42.98626" lon="0.5305">
        <ele>1402.209</ele>
        <time>2021-02-27T12:35:31Z</time>
      </trkpt>
      <trkpt lat="42.98627" lon="0.53051">
        <ele>1401.398</ele>
        <time>2021-02-27T12:35:33Z</time>
      </trkpt>
      <trkpt lat="42.98626" lon="0.53053">
        <ele>1400.393</ele>
        <time>2021-02-27T12:35:35Z</time>
      </trkpt>
      <trkpt lat="42.98626" lon="0.53055">
        <ele>1400.074</ele>
        <time>2021-02-27T12:35:37Z</time>
      </trkpt>
      <trkpt lat="42.98626" lon="0.53056">
        <ele>1398.652</ele>
        <time>2021-02-27T12:35:39Z</time>
      </trkpt>
      <trkpt lat="42.98627" lon="0.53059">
        <ele>1399.16</ele>
        <time>2021-02-27T12:35:41Z</time>
      </trkpt>
      <trkpt lat="42.98627" lon="0.5306">
        <ele>1398.594</ele>
        <time>2021-02-27T12:35:43Z</time>
      </trkpt>
      <trkpt lat="42.98627" lon="0.53062">
        <ele>1399.597</ele>
        <time>2021-02-27T12:35:45Z</time>
      </trkpt>
      <trkpt lat="42.98628" lon="0.53065">
        <ele>1399.126</ele>
        <time>2021-02-27T12:35:47Z</time>
      </trkpt>
      <trkpt lat="42.98629" lon="0.53067">
        <ele>1398.717</ele>
        <time>2021-02-27T12:35:49Z</time>
      </trkpt>
      <trkpt lat="42.98629" lon="0.53068">
        <ele>1398.821</ele>
        <time>2021-02-27T12:35:51Z</time>
      </trkpt>
      <trkpt lat="42.9863" lon="0.53071">
        <ele>1398.907</ele>
        <time>2021-02-27T12:35:53Z</time>
      </trkpt>
      <trkpt lat="42.9863" lon="0.53073">
        <ele>1398.324</ele>
        <time>2021-02-27T12:35:55Z</time>
      </trkpt>
      <trkpt lat="42.9863" lon="0.53076">
        <ele>1397.001</ele>
        <time>2021-02-27T12:35:57Z</time>
      </trkpt>
      <trkpt lat="42.9863" lon="0.53078">
        <ele>1397.226</ele>
        <time>2021-02-27T12:35:59Z</time>
      </trkpt>
      <trkpt lat="42.98631" lon="0.53081">
        <ele>1397.728</ele>
        <time>2021-02-27T12:36:01Z</time>
      </trkpt>
      <trkpt lat="42.98632" lon="0.53083">
        <ele>1398.331</ele>
        <time>2021-02-27T12:36:03Z</time>
      </trkpt>
      <trkpt lat="42.98632" lon="0.53085">
        <ele>1397.956</ele>
        <time>2021-02-27T12:36:05Z</time>
      </trkpt>
      <trkpt lat="42.98632" lon="0.53087">
        <ele>1398.369</ele>
        <time>2021-02-27T12:36:07Z</time>
      </trkpt>
      <trkpt lat="42.98632" lon="0.53089">
        <ele>1398.89</ele>
        <time>2021-02-27T12:36:09Z</time>
      </trkpt>
      <trkpt lat="42.98633" lon="0.53091">
        <ele>1398.949</ele>
        <time>2021-02-27T12:36:11Z</time>
      </trkpt>
      <trkpt lat="42.98633" lon="0.53093">
        <ele>1399.514</ele>
        <time>2021-02-27T12:36:13Z</time>
      </trkpt>
      <trkpt lat="42.98634" lon="0.53095">
        <ele>1399.234</ele>
        <time>2021-02-27T12:36:15Z</time>
      </trkpt>
      <trkpt lat="42.98634" lon="0.53096">
        <ele>1399.494</ele>
        <time>2021-02-27T12:36:17Z</time>
      </trkpt>
      <trkpt lat="42.98635" lon="0.53098">
        <ele>1398.89</ele>
        <time>2021-02-27T12:36:19Z</time>
      </trkpt>
      <trkpt lat="42.98636" lon="0.531">
        <ele>1399.18</ele>
        <time>2021-02-27T12:36:21Z</time>
      </trkpt>
      <trkpt lat="42.98635" lon="0.53101">
        <ele>1397.742</ele>
        <time>2021-02-27T12:36:23Z</time>
      </trkpt>
      <trkpt lat="42.98635" lon="0.53103">
        <ele>1397.443</ele>
        <time>2021-02-27T12:36:25Z</time>
      </trkpt>
      <trkpt lat="42.98636" lon="0.53105">
        <ele>1396.652</ele>
        <time>2021-02-27T12:36:27Z</time>
      </trkpt>
      <trkpt lat="42.98636" lon="0.53107">
        <ele>1396.099</ele>
        <time>2021-02-27T12:36:29Z</time>
      </trkpt>
      <trkpt lat="42.98636" lon="0.53109">
        <ele>1395.627</ele>
        <time>2021-02-27T12:36:31Z</time>
      </trkpt>
      <trkpt lat="42.98637" lon="0.5311">
        <ele>1395.739</ele>
        <time>2021-02-27T12:36:33Z</time>
      </trkpt>
      <trkpt lat="42.98638" lon="0.53111">
        <ele>1394.342</ele>
        <time>2021-02-27T12:36:35Z</time>
      </trkpt>
      <trkpt lat="42.98638" lon="0.53113">
        <ele>1394.287</ele>
        <time>2021-02-27T12:36:37Z</time>
      </trkpt>
      <trkpt lat="42.98638" lon="0.53115">
        <ele>1394.313</ele>
        <time>2021-02-27T12:36:39Z</time>
      </trkpt>
      <trkpt lat="42.98639" lon="0.53118">
        <ele>1394.183</ele>
        <time>2021-02-27T12:36:41Z</time>
      </trkpt>
      <trkpt lat="42.9864" lon="0.53121">
        <ele>1395.023</ele>
        <time>2021-02-27T12:36:43Z</time>
      </trkpt>
      <trkpt lat="42.9864" lon="0.53124">
        <ele>1394.147</ele>
        <time>2021-02-27T12:36:45Z</time>
      </trkpt>
      <trkpt lat="42.98641" lon="0.53127">
        <ele>1394.067</ele>
        <time>2021-02-27T12:36:47Z</time>
      </trkpt>
      <trkpt lat="42.98641" lon="0.5313">
        <ele>1394.189</ele>
        <time>2021-02-27T12:36:49Z</time>
      </trkpt>
      <trkpt lat="42.98642" lon="0.53133">
        <ele>1394.256</ele>
        <time>2021-02-27T12:36:51Z</time>
      </trkpt>
      <trkpt lat="42.98641" lon="0.53136">
        <ele>1393.836</ele>
        <time>2021-02-27T12:36:53Z</time>
      </trkpt>
      <trkpt lat="42.98641" lon="0.53139">
        <ele>1393.536</ele>
        <time>2021-02-27T12:36:55Z</time>
      </trkpt>
      <trkpt lat="42.98641" lon="0.53141">
        <ele>1394.599</ele>
        <time>2021-02-27T12:36:57Z</time>
      </trkpt>
      <trkpt lat="42.98642" lon="0.53142">
        <ele>1396.265</ele>
        <time>2021-02-27T12:36:59Z</time>
      </trkpt>
      <trkpt lat="42.98643" lon="0.53145">
        <ele>1396.755</ele>
        <time>2021-02-27T12:37:01Z</time>
      </trkpt>
      <trkpt lat="42.98642" lon="0.53146">
        <ele>1396.833</ele>
        <time>2021-02-27T12:37:03Z</time>
      </trkpt>
      <trkpt lat="42.98642" lon="0.53148">
        <ele>1397.559</ele>
        <time>2021-02-27T12:37:05Z</time>
      </trkpt>
      <trkpt lat="42.98641" lon="0.53151">
        <ele>1397.387</ele>
        <time>2021-02-27T12:37:07Z</time>
      </trkpt>
      <trkpt lat="42.98641" lon="0.53152">
        <ele>1397.596</ele>
        <time>2021-02-27T12:37:09Z</time>
      </trkpt>
      <trkpt lat="42.9864" lon="0.53154">
        <ele>1397.624</ele>
        <time>2021-02-27T12:37:11Z</time>
      </trkpt>
      <trkpt lat="42.98638" lon="0.53155">
        <ele>1397.351</ele>
        <time>2021-02-27T12:37:13Z</time>
      </trkpt>
      <trkpt lat="42.98638" lon="0.53158">
        <ele>1396.978</ele>
        <time>2021-02-27T12:37:15Z</time>
      </trkpt>
      <trkpt lat="42.98637" lon="0.53161">
        <ele>1396.623</ele>
        <time>2021-02-27T12:37:17Z</time>
      </trkpt>
      <trkpt lat="42.98637" lon="0.53162">
        <ele>1396.953</ele>
        <time>2021-02-27T12:37:19Z</time>
      </trkpt>
      <trkpt lat="42.98637" lon="0.53163">
        <ele>1397.377</ele>
        <time>2021-02-27T12:37:21Z</time>
      </trkpt>
      <trkpt lat="42.98637" lon="0.53165">
        <ele>1398.259</ele>
        <time>2021-02-27T12:37:23Z</time>
      </trkpt>
      <trkpt lat="42.98637" lon="0.53165">
        <ele>1398.26</ele>
        <time>2021-02-27T12:37:25Z</time>
      </trkpt>
      <trkpt lat="42.98637" lon="0.53165">
        <ele>1398.262</ele>
        <time>2021-02-27T12:37:27Z</time>
      </trkpt>
      <trkpt lat="42.98637" lon="0.53165">
        <ele>1398.259</ele>
        <time>2021-02-27T12:37:29Z</time>
      </trkpt>
      <trkpt lat="42.98637" lon="0.53165">
        <ele>1398.095</ele>
        <time>2021-02-27T12:37:31Z</time>
      </trkpt>
      <trkpt lat="42.98636" lon="0.53165">
        <ele>1398.025</ele>
        <time>2021-02-27T12:37:33Z</time>
      </trkpt>
      <trkpt lat="42.98636" lon="0.53168">
        <ele>1399.411</ele>
        <time>2021-02-27T12:37:35Z</time>
      </trkpt>
      <trkpt lat="42.98635" lon="0.53171">
        <ele>1399.336</ele>
        <time>2021-02-27T12:37:37Z</time>
      </trkpt>
      <trkpt lat="42.98635" lon="0.53174">
        <ele>1401.144</ele>
        <time>2021-02-27T12:37:39Z</time>
      </trkpt>
      <trkpt lat="42.98635" lon="0.53174">
        <ele>1402.14</ele>
        <time>2021-02-27T12:37:41Z</time>
      </trkpt>
      <trkpt lat="42.98634" lon="0.53175">
        <ele>1403.669</ele>
        <time>2021-02-27T12:37:43Z</time>
      </trkpt>
      <trkpt lat="42.98634" lon="0.53177">
        <ele>1403.039</ele>
        <time>2021-02-27T12:37:45Z</time>
      </trkpt>
      <trkpt lat="42.98634" lon="0.53179">
        <ele>1403.854</ele>
        <time>2021-02-27T12:37:47Z</time>
      </trkpt>
      <trkpt lat="42.98633" lon="0.53181">
        <ele>1404.388</ele>
        <time>2021-02-27T12:37:49Z</time>
      </trkpt>
      <trkpt lat="42.98632" lon="0.53183">
        <ele>1403.82</ele>
        <time>2021-02-27T12:37:51Z</time>
      </trkpt>
      <trkpt lat="42.98632" lon="0.53185">
        <ele>1403.103</ele>
        <time>2021-02-27T12:37:53Z</time>
      </trkpt>
      <trkpt lat="42.98631" lon="0.53187">
        <ele>1404.036</ele>
        <time>2021-02-27T12:37:55Z</time>
      </trkpt>
      <trkpt lat="42.98631" lon="0.53189">
        <ele>1405.025</ele>
        <time>2021-02-27T12:37:57Z</time>
      </trkpt>
      <trkpt lat="42.98631" lon="0.53191">
        <ele>1404.982</ele>
        <time>2021-02-27T12:37:59Z</time>
      </trkpt>
      <trkpt lat="42.98631" lon="0.53193">
        <ele>1404.772</ele>
        <time>2021-02-27T12:38:01Z</time>
      </trkpt>
      <trkpt lat="42.9863" lon="0.53196">
        <ele>1404.373</ele>
        <time>2021-02-27T12:38:03Z</time>
      </trkpt>
      <trkpt lat="42.9863" lon="0.53199">
        <ele>1404.802</ele>
        <time>2021-02-27T12:38:05Z</time>
      </trkpt>
      <trkpt lat="42.98629" lon="0.53201">
        <ele>1404.369</ele>
        <time>2021-02-27T12:38:07Z</time>
      </trkpt>
      <trkpt lat="42.98627" lon="0.53203">
        <ele>1404.302</ele>
        <time>2021-02-27T12:38:09Z</time>
      </trkpt>
      <trkpt lat="42.98627" lon="0.53206">
        <ele>1405.137</ele>
        <time>2021-02-27T12:38:11Z</time>
      </trkpt>
      <trkpt lat="42.98626" lon="0.53208">
        <ele>1405.324</ele>
        <time>2021-02-27T12:38:13Z</time>
      </trkpt>
      <trkpt lat="42.98626" lon="0.5321">
        <ele>1406.43</ele>
        <time>2021-02-27T12:38:15Z</time>
      </trkpt>
      <trkpt lat="42.98625" lon="0.53213">
        <ele>1407.604</ele>
        <time>2021-02-27T12:38:17Z</time>
      </trkpt>
      <trkpt lat="42.98624" lon="0.53216">
        <ele>1407.616</ele>
        <time>2021-02-27T12:38:19Z</time>
      </trkpt>
      <trkpt lat="42.98623" lon="0.53218">
        <ele>1407.502</ele>
        <time>2021-02-27T12:38:21Z</time>
      </trkpt>
      <trkpt lat="42.98623" lon="0.53221">
        <ele>1408.637</ele>
        <time>2021-02-27T12:38:23Z</time>
      </trkpt>
      <trkpt lat="42.98623" lon="0.53223">
        <ele>1409.158</ele>
        <time>2021-02-27T12:38:25Z</time>
      </trkpt>
      <trkpt lat="42.98622" lon="0.53225">
        <ele>1411.594</ele>
        <time>2021-02-27T12:38:27Z</time>
      </trkpt>
      <trkpt lat="42.98621" lon="0.53227">
        <ele>1411.858</ele>
        <time>2021-02-27T12:38:29Z</time>
      </trkpt>
      <trkpt lat="42.98619" lon="0.53228">
        <ele>1411.075</ele>
        <time>2021-02-27T12:38:31Z</time>
      </trkpt>
      <trkpt lat="42.98618" lon="0.5323">
        <ele>1410.953</ele>
        <time>2021-02-27T12:38:33Z</time>
      </trkpt>
      <trkpt lat="42.98617" lon="0.53232">
        <ele>1411.265</ele>
        <time>2021-02-27T12:38:35Z</time>
      </trkpt>
      <trkpt lat="42.98616" lon="0.53234">
        <ele>1411.521</ele>
        <time>2021-02-27T12:38:37Z</time>
      </trkpt>
      <trkpt lat="42.98615" lon="0.53236">
        <ele>1411.066</ele>
        <time>2021-02-27T12:38:39Z</time>
      </trkpt>
      <trkpt lat="42.98614" lon="0.53239">
        <ele>1411.599</ele>
        <time>2021-02-27T12:38:41Z</time>
      </trkpt>
      <trkpt lat="42.98613" lon="0.5324">
        <ele>1411.899</ele>
        <time>2021-02-27T12:38:43Z</time>
      </trkpt>
      <trkpt lat="42.98613" lon="0.53242">
        <ele>1412.718</ele>
        <time>2021-02-27T12:38:45Z</time>
      </trkpt>
      <trkpt lat="42.98612" lon="0.53244">
        <ele>1413.843</ele>
        <time>2021-02-27T12:38:47Z</time>
      </trkpt>
      <trkpt lat="42.98612" lon="0.53246">
        <ele>1415.358</ele>
        <time>2021-02-27T12:38:49Z</time>
      </trkpt>
      <trkpt lat="42.98611" lon="0.53248">
        <ele>1417.052</ele>
        <time>2021-02-27T12:38:51Z</time>
      </trkpt>
      <trkpt lat="42.98611" lon="0.5325">
        <ele>1417.808</ele>
        <time>2021-02-27T12:38:53Z</time>
      </trkpt>
      <trkpt lat="42.9861" lon="0.53251">
        <ele>1417.555</ele>
        <time>2021-02-27T12:38:55Z</time>
      </trkpt>
      <trkpt lat="42.98609" lon="0.53253">
        <ele>1418.748</ele>
        <time>2021-02-27T12:38:57Z</time>
      </trkpt>
      <trkpt lat="42.98607" lon="0.53255">
        <ele>1417.275</ele>
        <time>2021-02-27T12:38:59Z</time>
      </trkpt>
      <trkpt lat="42.98606" lon="0.53257">
        <ele>1416.705</ele>
        <time>2021-02-27T12:39:01Z</time>
      </trkpt>
      <trkpt lat="42.98606" lon="0.53259">
        <ele>1416.519</ele>
        <time>2021-02-27T12:39:03Z</time>
      </trkpt>
      <trkpt lat="42.98604" lon="0.53261">
        <ele>1416.048</ele>
        <time>2021-02-27T12:39:05Z</time>
      </trkpt>
      <trkpt lat="42.98603" lon="0.53262">
        <ele>1415.59</ele>
        <time>2021-02-27T12:39:07Z</time>
      </trkpt>
      <trkpt lat="42.98602" lon="0.53262">
        <ele>1415.046</ele>
        <time>2021-02-27T12:39:09Z</time>
      </trkpt>
      <trkpt lat="42.98601" lon="0.53264">
        <ele>1414.739</ele>
        <time>2021-02-27T12:39:11Z</time>
      </trkpt>
      <trkpt lat="42.986" lon="0.53265">
        <ele>1415.071</ele>
        <time>2021-02-27T12:39:13Z</time>
      </trkpt>
      <trkpt lat="42.98599" lon="0.53267">
        <ele>1415.552</ele>
        <time>2021-02-27T12:39:15Z</time>
      </trkpt>
      <trkpt lat="42.98598" lon="0.53268">
        <ele>1415.705</ele>
        <time>2021-02-27T12:39:17Z</time>
      </trkpt>
      <trkpt lat="42.98596" lon="0.53269">
        <ele>1414.995</ele>
        <time>2021-02-27T12:39:19Z</time>
      </trkpt>
      <trkpt lat="42.98596" lon="0.53269">
        <ele>1414.856</ele>
        <time>2021-02-27T12:39:20Z</time>
      </trkpt>
      <trkpt lat="42.98594" lon="0.53271">
        <ele>1415.946</ele>
        <time>2021-02-27T12:39:23Z</time>
      </trkpt>
      <trkpt lat="42.98592" lon="0.53273">
        <ele>1417.762</ele>
        <time>2021-02-27T12:39:26Z</time>
      </trkpt>
      <trkpt lat="42.98591" lon="0.53274">
        <ele>1416.427</ele>
        <time>2021-02-27T12:39:28Z</time>
      </trkpt>
      <trkpt lat="42.9859" lon="0.53275">
        <ele>1417.24</ele>
        <time>2021-02-27T12:39:30Z</time>
      </trkpt>
      <trkpt lat="42.98589" lon="0.53277">
        <ele>1415.887</ele>
        <time>2021-02-27T12:39:32Z</time>
      </trkpt>
      <trkpt lat="42.98588" lon="0.53278">
        <ele>1417.286</ele>
        <time>2021-02-27T12:39:34Z</time>
      </trkpt>
      <trkpt lat="42.98586" lon="0.5328">
        <ele>1416.849</ele>
        <time>2021-02-27T12:39:36Z</time>
      </trkpt>
      <trkpt lat="42.98585" lon="0.53281">
        <ele>1415.349</ele>
        <time>2021-02-27T12:39:38Z</time>
      </trkpt>
      <trkpt lat="42.98584" lon="0.53283">
        <ele>1415.378</ele>
        <time>2021-02-27T12:39:40Z</time>
      </trkpt>
      <trkpt lat="42.98583" lon="0.53284">
        <ele>1415.47</ele>
        <time>2021-02-27T12:39:42Z</time>
      </trkpt>
      <trkpt lat="42.98582" lon="0.53286">
        <ele>1416.471</ele>
        <time>2021-02-27T12:39:44Z</time>
      </trkpt>
      <trkpt lat="42.9858" lon="0.53287">
        <ele>1416.939</ele>
        <time>2021-02-27T12:39:46Z</time>
      </trkpt>
      <trkpt lat="42.98579" lon="0.53288">
        <ele>1417.262</ele>
        <time>2021-02-27T12:39:48Z</time>
      </trkpt>
      <trkpt lat="42.98578" lon="0.53289">
        <ele>1417.279</ele>
        <time>2021-02-27T12:39:50Z</time>
      </trkpt>
      <trkpt lat="42.98577" lon="0.53291">
        <ele>1417.514</ele>
        <time>2021-02-27T12:39:52Z</time>
      </trkpt>
      <trkpt lat="42.98576" lon="0.53292">
        <ele>1417.206</ele>
        <time>2021-02-27T12:39:54Z</time>
      </trkpt>
      <trkpt lat="42.98574" lon="0.53294">
        <ele>1416.905</ele>
        <time>2021-02-27T12:39:56Z</time>
      </trkpt>
      <trkpt lat="42.98573" lon="0.53295">
        <ele>1417.754</ele>
        <time>2021-02-27T12:39:58Z</time>
      </trkpt>
      <trkpt lat="42.98572" lon="0.53297">
        <ele>1418.547</ele>
        <time>2021-02-27T12:40:00Z</time>
      </trkpt>
      <trkpt lat="42.98571" lon="0.53298">
        <ele>1418.602</ele>
        <time>2021-02-27T12:40:02Z</time>
      </trkpt>
      <trkpt lat="42.9857" lon="0.53299">
        <ele>1419.838</ele>
        <time>2021-02-27T12:40:04Z</time>
      </trkpt>
      <trkpt lat="42.98569" lon="0.53301">
        <ele>1420.962</ele>
        <time>2021-02-27T12:40:06Z</time>
      </trkpt>
      <trkpt lat="42.98568" lon="0.53303">
        <ele>1421.695</ele>
        <time>2021-02-27T12:40:08Z</time>
      </trkpt>
      <trkpt lat="42.98567" lon="0.53305">
        <ele>1421.502</ele>
        <time>2021-02-27T12:40:10Z</time>
      </trkpt>
      <trkpt lat="42.98565" lon="0.53308">
        <ele>1423.249</ele>
        <time>2021-02-27T12:40:13Z</time>
      </trkpt>
      <trkpt lat="42.98564" lon="0.53309">
        <ele>1422.857</ele>
        <time>2021-02-27T12:40:15Z</time>
      </trkpt>
      <trkpt lat="42.98563" lon="0.53311">
        <ele>1423.472</ele>
        <time>2021-02-27T12:40:17Z</time>
      </trkpt>
      <trkpt lat="42.98562" lon="0.53314">
        <ele>1421.817</ele>
        <time>2021-02-27T12:40:19Z</time>
      </trkpt>
      <trkpt lat="42.9856" lon="0.53316">
        <ele>1422.519</ele>
        <time>2021-02-27T12:40:21Z</time>
      </trkpt>
      <trkpt lat="42.98559" lon="0.53318">
        <ele>1423.419</ele>
        <time>2021-02-27T12:40:23Z</time>
      </trkpt>
      <trkpt lat="42.98558" lon="0.5332">
        <ele>1422.968</ele>
        <time>2021-02-27T12:40:25Z</time>
      </trkpt>
      <trkpt lat="42.98557" lon="0.53321">
        <ele>1421.948</ele>
        <time>2021-02-27T12:40:27Z</time>
      </trkpt>
      <trkpt lat="42.98556" lon="0.53323">
        <ele>1422.34</ele>
        <time>2021-02-27T12:40:29Z</time>
      </trkpt>
      <trkpt lat="42.98555" lon="0.53325">
        <ele>1422.478</ele>
        <time>2021-02-27T12:40:31Z</time>
      </trkpt>
      <trkpt lat="42.98554" lon="0.53326">
        <ele>1422.714</ele>
        <time>2021-02-27T12:40:33Z</time>
      </trkpt>
      <trkpt lat="42.98553" lon="0.53328">
        <ele>1421.192</ele>
        <time>2021-02-27T12:40:35Z</time>
      </trkpt>
      <trkpt lat="42.98552" lon="0.53329">
        <ele>1421.34</ele>
        <time>2021-02-27T12:40:37Z</time>
      </trkpt>
      <trkpt lat="42.98551" lon="0.53331">
        <ele>1420.489</ele>
        <time>2021-02-27T12:40:39Z</time>
      </trkpt>
      <trkpt lat="42.98549" lon="0.53332">
        <ele>1418.957</ele>
        <time>2021-02-27T12:40:41Z</time>
      </trkpt>
      <trkpt lat="42.98548" lon="0.53334">
        <ele>1418.618</ele>
        <time>2021-02-27T12:40:43Z</time>
      </trkpt>
      <trkpt lat="42.98547" lon="0.53336">
        <ele>1417.238</ele>
        <time>2021-02-27T12:40:45Z</time>
      </trkpt>
      <trkpt lat="42.98546" lon="0.53338">
        <ele>1416.316</ele>
        <time>2021-02-27T12:40:47Z</time>
      </trkpt>
      <trkpt lat="42.98544" lon="0.5334">
        <ele>1416.578</ele>
        <time>2021-02-27T12:40:49Z</time>
      </trkpt>
      <trkpt lat="42.98543" lon="0.53343">
        <ele>1416.535</ele>
        <time>2021-02-27T12:40:51Z</time>
      </trkpt>
      <trkpt lat="42.98542" lon="0.53345">
        <ele>1416.819</ele>
        <time>2021-02-27T12:40:53Z</time>
      </trkpt>
      <trkpt lat="42.98541" lon="0.53348">
        <ele>1417.292</ele>
        <time>2021-02-27T12:40:55Z</time>
      </trkpt>
      <trkpt lat="42.98539" lon="0.5335">
        <ele>1416.25</ele>
        <time>2021-02-27T12:40:57Z</time>
      </trkpt>
      <trkpt lat="42.98538" lon="0.53352">
        <ele>1415.708</ele>
        <time>2021-02-27T12:40:59Z</time>
      </trkpt>
      <trkpt lat="42.98537" lon="0.53355">
        <ele>1415.821</ele>
        <time>2021-02-27T12:41:01Z</time>
      </trkpt>
      <trkpt lat="42.98535" lon="0.53358">
        <ele>1416.106</ele>
        <time>2021-02-27T12:41:03Z</time>
      </trkpt>
      <trkpt lat="42.98535" lon="0.53361">
        <ele>1416.922</ele>
        <time>2021-02-27T12:41:05Z</time>
      </trkpt>
      <trkpt lat="42.98534" lon="0.53363">
        <ele>1417.741</ele>
        <time>2021-02-27T12:41:07Z</time>
      </trkpt>
      <trkpt lat="42.98533" lon="0.53365">
        <ele>1417.934</ele>
        <time>2021-02-27T12:41:09Z</time>
      </trkpt>
      <trkpt lat="42.98531" lon="0.53366">
        <ele>1418.167</ele>
        <time>2021-02-27T12:41:11Z</time>
      </trkpt>
      <trkpt lat="42.9853" lon="0.53369">
        <ele>1418.473</ele>
        <time>2021-02-27T12:41:13Z</time>
      </trkpt>
      <trkpt lat="42.98529" lon="0.53373">
        <ele>1418.664</ele>
        <time>2021-02-27T12:41:15Z</time>
      </trkpt>
      <trkpt lat="42.98528" lon="0.53376">
        <ele>1418.023</ele>
        <time>2021-02-27T12:41:17Z</time>
      </trkpt>
      <trkpt lat="42.98526" lon="0.53378">
        <ele>1417.12</ele>
        <time>2021-02-27T12:41:19Z</time>
      </trkpt>
      <trkpt lat="42.98525" lon="0.53381">
        <ele>1417.44</ele>
        <time>2021-02-27T12:41:21Z</time>
      </trkpt>
      <trkpt lat="42.98524" lon="0.53384">
        <ele>1416.426</ele>
        <time>2021-02-27T12:41:23Z</time>
      </trkpt>
      <trkpt lat="42.98523" lon="0.53387">
        <ele>1417.237</ele>
        <time>2021-02-27T12:41:25Z</time>
      </trkpt>
      <trkpt lat="42.98521" lon="0.53389">
        <ele>1416.343</ele>
        <time>2021-02-27T12:41:27Z</time>
      </trkpt>
      <trkpt lat="42.9852" lon="0.53391">
        <ele>1415.956</ele>
        <time>2021-02-27T12:41:29Z</time>
      </trkpt>
      <trkpt lat="42.98519" lon="0.53394">
        <ele>1416.539</ele>
        <time>2021-02-27T12:41:31Z</time>
      </trkpt>
      <trkpt lat="42.98517" lon="0.53396">
        <ele>1417.001</ele>
        <time>2021-02-27T12:41:33Z</time>
      </trkpt>
      <trkpt lat="42.98516" lon="0.53398">
        <ele>1415.516</ele>
        <time>2021-02-27T12:41:35Z</time>
      </trkpt>
      <trkpt lat="42.98514" lon="0.53399">
        <ele>1415.562</ele>
        <time>2021-02-27T12:41:37Z</time>
      </trkpt>
      <trkpt lat="42.98513" lon="0.53403">
        <ele>1417.568</ele>
        <time>2021-02-27T12:41:39Z</time>
      </trkpt>
      <trkpt lat="42.98512" lon="0.53404">
        <ele>1417.358</ele>
        <time>2021-02-27T12:41:41Z</time>
      </trkpt>
      <trkpt lat="42.9851" lon="0.53407">
        <ele>1417.607</ele>
        <time>2021-02-27T12:41:43Z</time>
      </trkpt>
      <trkpt lat="42.98509" lon="0.53408">
        <ele>1417.587</ele>
        <time>2021-02-27T12:41:45Z</time>
      </trkpt>
      <trkpt lat="42.98507" lon="0.5341">
        <ele>1416.972</ele>
        <time>2021-02-27T12:41:47Z</time>
      </trkpt>
      <trkpt lat="42.98507" lon="0.53412">
        <ele>1417.102</ele>
        <time>2021-02-27T12:41:49Z</time>
      </trkpt>
      <trkpt lat="42.98506" lon="0.53415">
        <ele>1417.992</ele>
        <time>2021-02-27T12:41:51Z</time>
      </trkpt>
      <trkpt lat="42.98504" lon="0.53416">
        <ele>1418.646</ele>
        <time>2021-02-27T12:41:53Z</time>
      </trkpt>
      <trkpt lat="42.98503" lon="0.53418">
        <ele>1418.003</ele>
        <time>2021-02-27T12:41:55Z</time>
      </trkpt>
      <trkpt lat="42.98503" lon="0.53421">
        <ele>1418.491</ele>
        <time>2021-02-27T12:41:57Z</time>
      </trkpt>
      <trkpt lat="42.98501" lon="0.53423">
        <ele>1417.911</ele>
        <time>2021-02-27T12:41:59Z</time>
      </trkpt>
      <trkpt lat="42.985" lon="0.53425">
        <ele>1416.813</ele>
        <time>2021-02-27T12:42:01Z</time>
      </trkpt>
      <trkpt lat="42.98498" lon="0.53427">
        <ele>1416.167</ele>
        <time>2021-02-27T12:42:03Z</time>
      </trkpt>
      <trkpt lat="42.98497" lon="0.53429">
        <ele>1416.058</ele>
        <time>2021-02-27T12:42:05Z</time>
      </trkpt>
      <trkpt lat="42.98497" lon="0.53431">
        <ele>1416.632</ele>
        <time>2021-02-27T12:42:07Z</time>
      </trkpt>
      <trkpt lat="42.98495" lon="0.53433">
        <ele>1416.76</ele>
        <time>2021-02-27T12:42:09Z</time>
      </trkpt>
      <trkpt lat="42.98494" lon="0.53435">
        <ele>1415.872</ele>
        <time>2021-02-27T12:42:11Z</time>
      </trkpt>
      <trkpt lat="42.98493" lon="0.53438">
        <ele>1416.31</ele>
        <time>2021-02-27T12:42:13Z</time>
      </trkpt>
      <trkpt lat="42.98491" lon="0.5344">
        <ele>1416.617</ele>
        <time>2021-02-27T12:42:15Z</time>
      </trkpt>
      <trkpt lat="42.9849" lon="0.53443">
        <ele>1416.458</ele>
        <time>2021-02-27T12:42:17Z</time>
      </trkpt>
      <trkpt lat="42.98489" lon="0.53444">
        <ele>1416.763</ele>
        <time>2021-02-27T12:42:19Z</time>
      </trkpt>
      <trkpt lat="42.98488" lon="0.53446">
        <ele>1416.054</ele>
        <time>2021-02-27T12:42:21Z</time>
      </trkpt>
      <trkpt lat="42.98487" lon="0.53448">
        <ele>1416.888</ele>
        <time>2021-02-27T12:42:23Z</time>
      </trkpt>
      <trkpt lat="42.98486" lon="0.53451">
        <ele>1417.358</ele>
        <time>2021-02-27T12:42:25Z</time>
      </trkpt>
      <trkpt lat="42.98485" lon="0.53453">
        <ele>1417.139</ele>
        <time>2021-02-27T12:42:27Z</time>
      </trkpt>
      <trkpt lat="42.98484" lon="0.53456">
        <ele>1417.645</ele>
        <time>2021-02-27T12:42:29Z</time>
      </trkpt>
      <trkpt lat="42.98483" lon="0.53459">
        <ele>1419.114</ele>
        <time>2021-02-27T12:42:31Z</time>
      </trkpt>
      <trkpt lat="42.98481" lon="0.53461">
        <ele>1418.372</ele>
        <time>2021-02-27T12:42:33Z</time>
      </trkpt>
      <trkpt lat="42.9848" lon="0.53463">
        <ele>1417.691</ele>
        <time>2021-02-27T12:42:35Z</time>
      </trkpt>
      <trkpt lat="42.98478" lon="0.53465">
        <ele>1418.167</ele>
        <time>2021-02-27T12:42:37Z</time>
      </trkpt>
      <trkpt lat="42.98477" lon="0.53468">
        <ele>1418.357</ele>
        <time>2021-02-27T12:42:39Z</time>
      </trkpt>
      <trkpt lat="42.98476" lon="0.5347">
        <ele>1418.831</ele>
        <time>2021-02-27T12:42:41Z</time>
      </trkpt>
      <trkpt lat="42.98475" lon="0.53472">
        <ele>1419.007</ele>
        <time>2021-02-27T12:42:43Z</time>
      </trkpt>
      <trkpt lat="42.98474" lon="0.53475">
        <ele>1420.452</ele>
        <time>2021-02-27T12:42:45Z</time>
      </trkpt>
      <trkpt lat="42.98473" lon="0.53477">
        <ele>1420.312</ele>
        <time>2021-02-27T12:42:47Z</time>
      </trkpt>
      <trkpt lat="42.98472" lon="0.53479">
        <ele>1420.148</ele>
        <time>2021-02-27T12:42:49Z</time>
      </trkpt>
      <trkpt lat="42.98471" lon="0.53481">
        <ele>1419.784</ele>
        <time>2021-02-27T12:42:51Z</time>
      </trkpt>
      <trkpt lat="42.9847" lon="0.53483">
        <ele>1419.329</ele>
        <time>2021-02-27T12:42:53Z</time>
      </trkpt>
      <trkpt lat="42.98469" lon="0.53486">
        <ele>1418.608</ele>
        <time>2021-02-27T12:42:55Z</time>
      </trkpt>
      <trkpt lat="42.98467" lon="0.53487">
        <ele>1417.938</ele>
        <time>2021-02-27T12:42:57Z</time>
      </trkpt>
      <trkpt lat="42.98466" lon="0.53489">
        <ele>1417.196</ele>
        <time>2021-02-27T12:42:59Z</time>
      </trkpt>
      <trkpt lat="42.98465" lon="0.53492">
        <ele>1418.544</ele>
        <time>2021-02-27T12:43:01Z</time>
      </trkpt>
      <trkpt lat="42.98464" lon="0.53494">
        <ele>1416.884</ele>
        <time>2021-02-27T12:43:03Z</time>
      </trkpt>
      <trkpt lat="42.98463" lon="0.53496">
        <ele>1417.37</ele>
        <time>2021-02-27T12:43:05Z</time>
      </trkpt>
      <trkpt lat="42.98461" lon="0.53498">
        <ele>1417.512</ele>
        <time>2021-02-27T12:43:07Z</time>
      </trkpt>
      <trkpt lat="42.98459" lon="0.535">
        <ele>1415.868</ele>
        <time>2021-02-27T12:43:09Z</time>
      </trkpt>
      <trkpt lat="42.98458" lon="0.53502">
        <ele>1414.704</ele>
        <time>2021-02-27T12:43:11Z</time>
      </trkpt>
      <trkpt lat="42.98457" lon="0.53503">
        <ele>1413.799</ele>
        <time>2021-02-27T12:43:13Z</time>
      </trkpt>
      <trkpt lat="42.98456" lon="0.53505">
        <ele>1413.576</ele>
        <time>2021-02-27T12:43:15Z</time>
      </trkpt>
      <trkpt lat="42.98455" lon="0.53508">
        <ele>1412.282</ele>
        <time>2021-02-27T12:43:17Z</time>
      </trkpt>
      <trkpt lat="42.98454" lon="0.5351">
        <ele>1411.897</ele>
        <time>2021-02-27T12:43:19Z</time>
      </trkpt>
      <trkpt lat="42.98452" lon="0.53512">
        <ele>1411.65</ele>
        <time>2021-02-27T12:43:21Z</time>
      </trkpt>
      <trkpt lat="42.98451" lon="0.53514">
        <ele>1411.988</ele>
        <time>2021-02-27T12:43:23Z</time>
      </trkpt>
      <trkpt lat="42.98451" lon="0.53517">
        <ele>1412.869</ele>
        <time>2021-02-27T12:43:25Z</time>
      </trkpt>
      <trkpt lat="42.9845" lon="0.53519">
        <ele>1412.55</ele>
        <time>2021-02-27T12:43:27Z</time>
      </trkpt>
      <trkpt lat="42.98448" lon="0.53522">
        <ele>1411.796</ele>
        <time>2021-02-27T12:43:29Z</time>
      </trkpt>
      <trkpt lat="42.98447" lon="0.53524">
        <ele>1411.777</ele>
        <time>2021-02-27T12:43:31Z</time>
      </trkpt>
      <trkpt lat="42.98446" lon="0.53527">
        <ele>1412.044</ele>
        <time>2021-02-27T12:43:33Z</time>
      </trkpt>
      <trkpt lat="42.98445" lon="0.53529">
        <ele>1410.746</ele>
        <time>2021-02-27T12:43:35Z</time>
      </trkpt>
      <trkpt lat="42.98444" lon="0.53532">
        <ele>1412.099</ele>
        <time>2021-02-27T12:43:37Z</time>
      </trkpt>
      <trkpt lat="42.98443" lon="0.53534">
        <ele>1411.56</ele>
        <time>2021-02-27T12:43:39Z</time>
      </trkpt>
      <trkpt lat="42.98442" lon="0.53538">
        <ele>1411.951</ele>
        <time>2021-02-27T12:43:41Z</time>
      </trkpt>
      <trkpt lat="42.98441" lon="0.53542">
        <ele>1414.015</ele>
        <time>2021-02-27T12:43:43Z</time>
      </trkpt>
      <trkpt lat="42.98441" lon="0.53545">
        <ele>1414.98</ele>
        <time>2021-02-27T12:43:45Z</time>
      </trkpt>
      <trkpt lat="42.98441" lon="0.53548">
        <ele>1415.777</ele>
        <time>2021-02-27T12:43:47Z</time>
      </trkpt>
      <trkpt lat="42.98441" lon="0.5355">
        <ele>1415.47</ele>
        <time>2021-02-27T12:43:49Z</time>
      </trkpt>
      <trkpt lat="42.9844" lon="0.53553">
        <ele>1416.494</ele>
        <time>2021-02-27T12:43:51Z</time>
      </trkpt>
      <trkpt lat="42.98439" lon="0.53556">
        <ele>1415.876</ele>
        <time>2021-02-27T12:43:53Z</time>
      </trkpt>
      <trkpt lat="42.98438" lon="0.53558">
        <ele>1415.682</ele>
        <time>2021-02-27T12:43:55Z</time>
      </trkpt>
      <trkpt lat="42.98437" lon="0.5356">
        <ele>1414.881</ele>
        <time>2021-02-27T12:43:57Z</time>
      </trkpt>
      <trkpt lat="42.98437" lon="0.53563">
        <ele>1414.174</ele>
        <time>2021-02-27T12:43:59Z</time>
      </trkpt>
      <trkpt lat="42.98436" lon="0.53566">
        <ele>1413.999</ele>
        <time>2021-02-27T12:44:01Z</time>
      </trkpt>
      <trkpt lat="42.98435" lon="0.53569">
        <ele>1414.625</ele>
        <time>2021-02-27T12:44:03Z</time>
      </trkpt>
      <trkpt lat="42.98434" lon="0.53572">
        <ele>1413.906</ele>
        <time>2021-02-27T12:44:05Z</time>
      </trkpt>
      <trkpt lat="42.98433" lon="0.53575">
        <ele>1415.18</ele>
        <time>2021-02-27T12:44:07Z</time>
      </trkpt>
      <trkpt lat="42.98432" lon="0.53577">
        <ele>1413.559</ele>
        <time>2021-02-27T12:44:09Z</time>
      </trkpt>
      <trkpt lat="42.98431" lon="0.5358">
        <ele>1413.476</ele>
        <time>2021-02-27T12:44:11Z</time>
      </trkpt>
      <trkpt lat="42.98431" lon="0.53581">
        <ele>1412.037</ele>
        <time>2021-02-27T12:44:12Z</time>
      </trkpt>
      <trkpt lat="42.98429" lon="0.53585">
        <ele>1411.457</ele>
        <time>2021-02-27T12:44:15Z</time>
      </trkpt>
      <trkpt lat="42.98428" lon="0.53588">
        <ele>1412.015</ele>
        <time>2021-02-27T12:44:17Z</time>
      </trkpt>
      <trkpt lat="42.98427" lon="0.53591">
        <ele>1413.719</ele>
        <time>2021-02-27T12:44:19Z</time>
      </trkpt>
      <trkpt lat="42.98426" lon="0.53594">
        <ele>1414.636</ele>
        <time>2021-02-27T12:44:21Z</time>
      </trkpt>
      <trkpt lat="42.98426" lon="0.53598">
        <ele>1414.895</ele>
        <time>2021-02-27T12:44:23Z</time>
      </trkpt>
      <trkpt lat="42.98425" lon="0.53602">
        <ele>1415.441</ele>
        <time>2021-02-27T12:44:25Z</time>
      </trkpt>
      <trkpt lat="42.98425" lon="0.53606">
        <ele>1415.668</ele>
        <time>2021-02-27T12:44:27Z</time>
      </trkpt>
      <trkpt lat="42.98424" lon="0.53609">
        <ele>1415.244</ele>
        <time>2021-02-27T12:44:29Z</time>
      </trkpt>
      <trkpt lat="42.98424" lon="0.53612">
        <ele>1416.949</ele>
        <time>2021-02-27T12:44:31Z</time>
      </trkpt>
      <trkpt lat="42.98423" lon="0.53616">
        <ele>1417.399</ele>
        <time>2021-02-27T12:44:33Z</time>
      </trkpt>
      <trkpt lat="42.98421" lon="0.53618">
        <ele>1415.75</ele>
        <time>2021-02-27T12:44:35Z</time>
      </trkpt>
      <trkpt lat="42.9842" lon="0.5362">
        <ele>1415.204</ele>
        <time>2021-02-27T12:44:37Z</time>
      </trkpt>
      <trkpt lat="42.98419" lon="0.53623">
        <ele>1415.61</ele>
        <time>2021-02-27T12:44:39Z</time>
      </trkpt>
      <trkpt lat="42.98418" lon="0.53627">
        <ele>1418.174</ele>
        <time>2021-02-27T12:44:41Z</time>
      </trkpt>
      <trkpt lat="42.98418" lon="0.5363">
        <ele>1418.44</ele>
        <time>2021-02-27T12:44:43Z</time>
      </trkpt>
      <trkpt lat="42.98416" lon="0.53632">
        <ele>1416.768</ele>
        <time>2021-02-27T12:44:45Z</time>
      </trkpt>
      <trkpt lat="42.98416" lon="0.53635">
        <ele>1415.446</ele>
        <time>2021-02-27T12:44:47Z</time>
      </trkpt>
      <trkpt lat="42.98415" lon="0.53638">
        <ele>1414.311</ele>
        <time>2021-02-27T12:44:49Z</time>
      </trkpt>
      <trkpt lat="42.98414" lon="0.53641">
        <ele>1413.619</ele>
        <time>2021-02-27T12:44:51Z</time>
      </trkpt>
      <trkpt lat="42.98413" lon="0.53643">
        <ele>1414.024</ele>
        <time>2021-02-27T12:44:53Z</time>
      </trkpt>
      <trkpt lat="42.98412" lon="0.53646">
        <ele>1414.763</ele>
        <time>2021-02-27T12:44:55Z</time>
      </trkpt>
      <trkpt lat="42.98411" lon="0.53649">
        <ele>1415.664</ele>
        <time>2021-02-27T12:44:57Z</time>
      </trkpt>
      <trkpt lat="42.9841" lon="0.53652">
        <ele>1416.68</ele>
        <time>2021-02-27T12:44:59Z</time>
      </trkpt>
      <trkpt lat="42.98409" lon="0.53655">
        <ele>1416.922</ele>
        <time>2021-02-27T12:45:01Z</time>
      </trkpt>
      <trkpt lat="42.98408" lon="0.53658">
        <ele>1417.082</ele>
        <time>2021-02-27T12:45:03Z</time>
      </trkpt>
      <trkpt lat="42.98407" lon="0.53662">
        <ele>1418.104</ele>
        <time>2021-02-27T12:45:05Z</time>
      </trkpt>
      <trkpt lat="42.98407" lon="0.53665">
        <ele>1418.588</ele>
        <time>2021-02-27T12:45:07Z</time>
      </trkpt>
      <trkpt lat="42.98406" lon="0.53667">
        <ele>1417.06</ele>
        <time>2021-02-27T12:45:09Z</time>
      </trkpt>
      <trkpt lat="42.98405" lon="0.53669">
        <ele>1417.174</ele>
        <time>2021-02-27T12:45:11Z</time>
      </trkpt>
      <trkpt lat="42.98404" lon="0.53672">
        <ele>1417.711</ele>
        <time>2021-02-27T12:45:13Z</time>
      </trkpt>
      <trkpt lat="42.98403" lon="0.53676">
        <ele>1419.322</ele>
        <time>2021-02-27T12:45:15Z</time>
      </trkpt>
      <trkpt lat="42.98402" lon="0.53678">
        <ele>1420.318</ele>
        <time>2021-02-27T12:45:17Z</time>
      </trkpt>
      <trkpt lat="42.98402" lon="0.53681">
        <ele>1421.456</ele>
        <time>2021-02-27T12:45:19Z</time>
      </trkpt>
      <trkpt lat="42.98401" lon="0.53683">
        <ele>1422.352</ele>
        <time>2021-02-27T12:45:20Z</time>
      </trkpt>
      <trkpt lat="42.98399" lon="0.53687">
        <ele>1424.412</ele>
        <time>2021-02-27T12:45:23Z</time>
      </trkpt>
      <trkpt lat="42.98399" lon="0.5369">
        <ele>1425.012</ele>
        <time>2021-02-27T12:45:25Z</time>
      </trkpt>
      <trkpt lat="42.98398" lon="0.53692">
        <ele>1425.258</ele>
        <time>2021-02-27T12:45:27Z</time>
      </trkpt>
      <trkpt lat="42.98397" lon="0.53693">
        <ele>1425.365</ele>
        <time>2021-02-27T12:45:29Z</time>
      </trkpt>
      <trkpt lat="42.98397" lon="0.53693">
        <ele>1425.46</ele>
        <time>2021-02-27T12:45:31Z</time>
      </trkpt>
      <trkpt lat="42.98397" lon="0.53693">
        <ele>1425.54</ele>
        <time>2021-02-27T12:45:33Z</time>
      </trkpt>
      <trkpt lat="42.98397" lon="0.53694">
        <ele>1426.728</ele>
        <time>2021-02-27T12:45:35Z</time>
      </trkpt>
      <trkpt lat="42.98397" lon="0.53695">
        <ele>1426.954</ele>
        <time>2021-02-27T12:45:37Z</time>
      </trkpt>
      <trkpt lat="42.98397" lon="0.53695">
        <ele>1426.962</ele>
        <time>2021-02-27T12:45:39Z</time>
      </trkpt>
      <trkpt lat="42.98397" lon="0.53695">
        <ele>1426.983</ele>
        <time>2021-02-27T12:45:41Z</time>
      </trkpt>
      <trkpt lat="42.98397" lon="0.53695">
        <ele>1427.013</ele>
        <time>2021-02-27T12:45:43Z</time>
      </trkpt>
      <trkpt lat="42.98397" lon="0.53695">
        <ele>1426.904</ele>
        <time>2021-02-27T12:45:45Z</time>
      </trkpt>
      <trkpt lat="42.98397" lon="0.53696">
        <ele>1426.946</ele>
        <time>2021-02-27T12:45:47Z</time>
      </trkpt>
      <trkpt lat="42.98397" lon="0.53696">
        <ele>1427.172</ele>
        <time>2021-02-27T12:45:49Z</time>
      </trkpt>
      <trkpt lat="42.98397" lon="0.53697">
        <ele>1428.391</ele>
        <time>2021-02-27T12:45:51Z</time>
      </trkpt>
      <trkpt lat="42.98397" lon="0.53698">
        <ele>1428.437</ele>
        <time>2021-02-27T12:45:53Z</time>
      </trkpt>
      <trkpt lat="42.98397" lon="0.53698">
        <ele>1428.499</ele>
        <time>2021-02-27T12:45:55Z</time>
      </trkpt>
      <trkpt lat="42.98397" lon="0.53698">
        <ele>1428.566</ele>
        <time>2021-02-27T12:45:57Z</time>
      </trkpt>
      <trkpt lat="42.98397" lon="0.53698">
        <ele>1428.619</ele>
        <time>2021-02-27T12:45:59Z</time>
      </trkpt>
      <trkpt lat="42.98397" lon="0.53698">
        <ele>1428.661</ele>
        <time>2021-02-27T12:46:01Z</time>
      </trkpt>
      <trkpt lat="42.98397" lon="0.53698">
        <ele>1428.77</ele>
        <time>2021-02-27T12:46:03Z</time>
      </trkpt>
      <trkpt lat="42.98397" lon="0.53698">
        <ele>1428.9</ele>
        <time>2021-02-27T12:46:05Z</time>
      </trkpt>
      <trkpt lat="42.98397" lon="0.53698">
        <ele>1429.009</ele>
        <time>2021-02-27T12:46:07Z</time>
      </trkpt>
      <trkpt lat="42.98397" lon="0.53699">
        <ele>1430.916</ele>
        <time>2021-02-27T12:46:09Z</time>
      </trkpt>
      <trkpt lat="42.98398" lon="0.537">
        <ele>1430.944</ele>
        <time>2021-02-27T12:46:11Z</time>
      </trkpt>
      <trkpt lat="42.98398" lon="0.537">
        <ele>1430.959</ele>
        <time>2021-02-27T12:46:13Z</time>
      </trkpt>
      <trkpt lat="42.98398" lon="0.537">
        <ele>1430.982</ele>
        <time>2021-02-27T12:46:15Z</time>
      </trkpt>
      <trkpt lat="42.98398" lon="0.537">
        <ele>1431.029</ele>
        <time>2021-02-27T12:46:17Z</time>
      </trkpt>
      <trkpt lat="42.98398" lon="0.537">
        <ele>1430.776</ele>
        <time>2021-02-27T12:46:19Z</time>
      </trkpt>
      <trkpt lat="42.98398" lon="0.537">
        <ele>1430.805</ele>
        <time>2021-02-27T12:46:21Z</time>
      </trkpt>
      <trkpt lat="42.98398" lon="0.537">
        <ele>1430.811</ele>
        <time>2021-02-27T12:46:23Z</time>
      </trkpt>
      <trkpt lat="42.98398" lon="0.537">
        <ele>1430.826</ele>
        <time>2021-02-27T12:46:25Z</time>
      </trkpt>
      <trkpt lat="42.98398" lon="0.537">
        <ele>1430.854</ele>
        <time>2021-02-27T12:46:27Z</time>
      </trkpt>
      <trkpt lat="42.98397" lon="0.537">
        <ele>1431.728</ele>
        <time>2021-02-27T12:46:29Z</time>
      </trkpt>
      <trkpt lat="42.98397" lon="0.537">
        <ele>1431.868</ele>
        <time>2021-02-27T12:46:31Z</time>
      </trkpt>
      <trkpt lat="42.98397" lon="0.53701">
        <ele>1431.933</ele>
        <time>2021-02-27T12:46:33Z</time>
      </trkpt>
      <trkpt lat="42.98397" lon="0.53701">
        <ele>1431.983</ele>
        <time>2021-02-27T12:46:35Z</time>
      </trkpt>
      <trkpt lat="42.98397" lon="0.53701">
        <ele>1432.01</ele>
        <time>2021-02-27T12:46:37Z</time>
      </trkpt>
      <trkpt lat="42.98397" lon="0.53701">
        <ele>1432.375</ele>
        <time>2021-02-27T12:46:39Z</time>
      </trkpt>
      <trkpt lat="42.98397" lon="0.53701">
        <ele>1432.466</ele>
        <time>2021-02-27T12:46:41Z</time>
      </trkpt>
      <trkpt lat="42.98397" lon="0.53701">
        <ele>1432.43</ele>
        <time>2021-02-27T12:46:43Z</time>
      </trkpt>
      <trkpt lat="42.98397" lon="0.53702">
        <ele>1432.471</ele>
        <time>2021-02-27T12:46:45Z</time>
      </trkpt>
      <trkpt lat="42.98398" lon="0.53702">
        <ele>1432.745</ele>
        <time>2021-02-27T12:46:47Z</time>
      </trkpt>
      <trkpt lat="42.98398" lon="0.53702">
        <ele>1432.814</ele>
        <time>2021-02-27T12:46:49Z</time>
      </trkpt>
      <trkpt lat="42.98398" lon="0.53703">
        <ele>1432.867</ele>
        <time>2021-02-27T12:46:51Z</time>
      </trkpt>
      <trkpt lat="42.98398" lon="0.53705">
        <ele>1433.923</ele>
        <time>2021-02-27T12:46:53Z</time>
      </trkpt>
      <trkpt lat="42.98397" lon="0.53707">
        <ele>1434.382</ele>
        <time>2021-02-27T12:46:55Z</time>
      </trkpt>
      <trkpt lat="42.98397" lon="0.53709">
        <ele>1436.031</ele>
        <time>2021-02-27T12:46:57Z</time>
      </trkpt>
      <trkpt lat="42.98397" lon="0.53713">
        <ele>1436.344</ele>
        <time>2021-02-27T12:46:59Z</time>
      </trkpt>
      <trkpt lat="42.98396" lon="0.53716">
        <ele>1436.524</ele>
        <time>2021-02-27T12:47:01Z</time>
      </trkpt>
      <trkpt lat="42.98395" lon="0.53719">
        <ele>1436.73</ele>
        <time>2021-02-27T12:47:03Z</time>
      </trkpt>
      <trkpt lat="42.98393" lon="0.53721">
        <ele>1436.492</ele>
        <time>2021-02-27T12:47:05Z</time>
      </trkpt>
      <trkpt lat="42.98392" lon="0.53724">
        <ele>1437.409</ele>
        <time>2021-02-27T12:47:07Z</time>
      </trkpt>
      <trkpt lat="42.9839" lon="0.53727">
        <ele>1438.217</ele>
        <time>2021-02-27T12:47:09Z</time>
      </trkpt>
      <trkpt lat="42.98389" lon="0.53729">
        <ele>1437.778</ele>
        <time>2021-02-27T12:47:11Z</time>
      </trkpt>
      <trkpt lat="42.98388" lon="0.53732">
        <ele>1438.36</ele>
        <time>2021-02-27T12:47:13Z</time>
      </trkpt>
      <trkpt lat="42.98387" lon="0.53735">
        <ele>1438.956</ele>
        <time>2021-02-27T12:47:15Z</time>
      </trkpt>
      <trkpt lat="42.98386" lon="0.53739">
        <ele>1439.206</ele>
        <time>2021-02-27T12:47:17Z</time>
      </trkpt>
      <trkpt lat="42.98385" lon="0.53742">
        <ele>1438.595</ele>
        <time>2021-02-27T12:47:19Z</time>
      </trkpt>
      <trkpt lat="42.98385" lon="0.53745">
        <ele>1437.758</ele>
        <time>2021-02-27T12:47:21Z</time>
      </trkpt>
      <trkpt lat="42.98385" lon="0.53749">
        <ele>1437.967</ele>
        <time>2021-02-27T12:47:23Z</time>
      </trkpt>
      <trkpt lat="42.98384" lon="0.53752">
        <ele>1437.702</ele>
        <time>2021-02-27T12:47:25Z</time>
      </trkpt>
      <trkpt lat="42.98384" lon="0.53755">
        <ele>1437.768</ele>
        <time>2021-02-27T12:47:27Z</time>
      </trkpt>
      <trkpt lat="42.98385" lon="0.53758">
        <ele>1437.068</ele>
        <time>2021-02-27T12:47:29Z</time>
      </trkpt>
      <trkpt lat="42.98385" lon="0.53761">
        <ele>1437.951</ele>
        <time>2021-02-27T12:47:31Z</time>
      </trkpt>
      <trkpt lat="42.98383" lon="0.53764">
        <ele>1437.967</ele>
        <time>2021-02-27T12:47:33Z</time>
      </trkpt>
      <trkpt lat="42.98382" lon="0.53766">
        <ele>1437.748</ele>
        <time>2021-02-27T12:47:35Z</time>
      </trkpt>
      <trkpt lat="42.98382" lon="0.53769">
        <ele>1437.541</ele>
        <time>2021-02-27T12:47:37Z</time>
      </trkpt>
      <trkpt lat="42.98383" lon="0.53772">
        <ele>1438.618</ele>
        <time>2021-02-27T12:47:39Z</time>
      </trkpt>
      <trkpt lat="42.98383" lon="0.53775">
        <ele>1440.016</ele>
        <time>2021-02-27T12:47:41Z</time>
      </trkpt>
      <trkpt lat="42.98381" lon="0.53777">
        <ele>1440.667</ele>
        <time>2021-02-27T12:47:43Z</time>
      </trkpt>
      <trkpt lat="42.9838" lon="0.53778">
        <ele>1441.203</ele>
        <time>2021-02-27T12:47:45Z</time>
      </trkpt>
      <trkpt lat="42.98381" lon="0.53781">
        <ele>1443.45</ele>
        <time>2021-02-27T12:47:47Z</time>
      </trkpt>
      <trkpt lat="42.98381" lon="0.53783">
        <ele>1444.332</ele>
        <time>2021-02-27T12:47:49Z</time>
      </trkpt>
      <trkpt lat="42.98382" lon="0.53786">
        <ele>1443.798</ele>
        <time>2021-02-27T12:47:51Z</time>
      </trkpt>
      <trkpt lat="42.98381" lon="0.53788">
        <ele>1444.353</ele>
        <time>2021-02-27T12:47:53Z</time>
      </trkpt>
      <trkpt lat="42.98382" lon="0.53791">
        <ele>1442.922</ele>
        <time>2021-02-27T12:47:55Z</time>
      </trkpt>
      <trkpt lat="42.98382" lon="0.53793">
        <ele>1440.713</ele>
        <time>2021-02-27T12:47:57Z</time>
      </trkpt>
      <trkpt lat="42.98383" lon="0.53795">
        <ele>1441.228</ele>
        <time>2021-02-27T12:47:59Z</time>
      </trkpt>
      <trkpt lat="42.98383" lon="0.53798">
        <ele>1441.595</ele>
        <time>2021-02-27T12:48:01Z</time>
      </trkpt>
      <trkpt lat="42.98384" lon="0.538">
        <ele>1441.197</ele>
        <time>2021-02-27T12:48:03Z</time>
      </trkpt>
      <trkpt lat="42.98385" lon="0.53803">
        <ele>1440.663</ele>
        <time>2021-02-27T12:48:05Z</time>
      </trkpt>
      <trkpt lat="42.98385" lon="0.53806">
        <ele>1441.258</ele>
        <time>2021-02-27T12:48:07Z</time>
      </trkpt>
      <trkpt lat="42.98385" lon="0.53808">
        <ele>1439.98</ele>
        <time>2021-02-27T12:48:09Z</time>
      </trkpt>
      <trkpt lat="42.98385" lon="0.53811">
        <ele>1439.674</ele>
        <time>2021-02-27T12:48:11Z</time>
      </trkpt>
      <trkpt lat="42.98385" lon="0.53813">
        <ele>1440.288</ele>
        <time>2021-02-27T12:48:13Z</time>
      </trkpt>
      <trkpt lat="42.98385" lon="0.53816">
        <ele>1439.183</ele>
        <time>2021-02-27T12:48:15Z</time>
      </trkpt>
      <trkpt lat="42.98385" lon="0.53819">
        <ele>1438.705</ele>
        <time>2021-02-27T12:48:17Z</time>
      </trkpt>
      <trkpt lat="42.98385" lon="0.53822">
        <ele>1438.274</ele>
        <time>2021-02-27T12:48:19Z</time>
      </trkpt>
      <trkpt lat="42.98385" lon="0.53825">
        <ele>1438.131</ele>
        <time>2021-02-27T12:48:21Z</time>
      </trkpt>
      <trkpt lat="42.98385" lon="0.53828">
        <ele>1438.027</ele>
        <time>2021-02-27T12:48:23Z</time>
      </trkpt>
      <trkpt lat="42.98385" lon="0.53831">
        <ele>1437.27</ele>
        <time>2021-02-27T12:48:25Z</time>
      </trkpt>
      <trkpt lat="42.98385" lon="0.53833">
        <ele>1436.327</ele>
        <time>2021-02-27T12:48:27Z</time>
      </trkpt>
      <trkpt lat="42.98385" lon="0.53835">
        <ele>1434.478</ele>
        <time>2021-02-27T12:48:29Z</time>
      </trkpt>
      <trkpt lat="42.98385" lon="0.53838">
        <ele>1434.907</ele>
        <time>2021-02-27T12:48:31Z</time>
      </trkpt>
      <trkpt lat="42.98386" lon="0.5384">
        <ele>1435.015</ele>
        <time>2021-02-27T12:48:33Z</time>
      </trkpt>
      <trkpt lat="42.98386" lon="0.53843">
        <ele>1434.947</ele>
        <time>2021-02-27T12:48:35Z</time>
      </trkpt>
      <trkpt lat="42.98387" lon="0.53845">
        <ele>1434.328</ele>
        <time>2021-02-27T12:48:37Z</time>
      </trkpt>
      <trkpt lat="42.98388" lon="0.53847">
        <ele>1434.293</ele>
        <time>2021-02-27T12:48:39Z</time>
      </trkpt>
      <trkpt lat="42.98388" lon="0.53849">
        <ele>1433.182</ele>
        <time>2021-02-27T12:48:41Z</time>
      </trkpt>
      <trkpt lat="42.98389" lon="0.5385">
        <ele>1432.838</ele>
        <time>2021-02-27T12:48:43Z</time>
      </trkpt>
      <trkpt lat="42.98392" lon="0.5385">
        <ele>1432.858</ele>
        <time>2021-02-27T12:48:45Z</time>
      </trkpt>
      <trkpt lat="42.98392" lon="0.53851">
        <ele>1432.311</ele>
        <time>2021-02-27T12:48:47Z</time>
      </trkpt>
      <trkpt lat="42.98392" lon="0.53854">
        <ele>1432.389</ele>
        <time>2021-02-27T12:48:49Z</time>
      </trkpt>
      <trkpt lat="42.98392" lon="0.53857">
        <ele>1431.735</ele>
        <time>2021-02-27T12:48:51Z</time>
      </trkpt>
      <trkpt lat="42.9839" lon="0.53859">
        <ele>1431.006</ele>
        <time>2021-02-27T12:48:53Z</time>
      </trkpt>
      <trkpt lat="42.9839" lon="0.53863">
        <ele>1430.279</ele>
        <time>2021-02-27T12:48:55Z</time>
      </trkpt>
      <trkpt lat="42.98389" lon="0.53866">
        <ele>1429.448</ele>
        <time>2021-02-27T12:48:57Z</time>
      </trkpt>
      <trkpt lat="42.98388" lon="0.53868">
        <ele>1428.895</ele>
        <time>2021-02-27T12:48:59Z</time>
      </trkpt>
      <trkpt lat="42.98388" lon="0.53872">
        <ele>1429.201</ele>
        <time>2021-02-27T12:49:01Z</time>
      </trkpt>
      <trkpt lat="42.98387" lon="0.53874">
        <ele>1428.208</ele>
        <time>2021-02-27T12:49:03Z</time>
      </trkpt>
      <trkpt lat="42.98387" lon="0.53875">
        <ele>1426.539</ele>
        <time>2021-02-27T12:49:05Z</time>
      </trkpt>
      <trkpt lat="42.98386" lon="0.53877">
        <ele>1425.355</ele>
        <time>2021-02-27T12:49:07Z</time>
      </trkpt>
      <trkpt lat="42.98385" lon="0.53878">
        <ele>1423.762</ele>
        <time>2021-02-27T12:49:09Z</time>
      </trkpt>
      <trkpt lat="42.98384" lon="0.5388">
        <ele>1422.661</ele>
        <time>2021-02-27T12:49:11Z</time>
      </trkpt>
      <trkpt lat="42.98384" lon="0.53883">
        <ele>1421.847</ele>
        <time>2021-02-27T12:49:13Z</time>
      </trkpt>
      <trkpt lat="42.98384" lon="0.53885">
        <ele>1420.959</ele>
        <time>2021-02-27T12:49:15Z</time>
      </trkpt>
      <trkpt lat="42.98383" lon="0.53888">
        <ele>1421.323</ele>
        <time>2021-02-27T12:49:17Z</time>
      </trkpt>
      <trkpt lat="42.98383" lon="0.5389">
        <ele>1420.458</ele>
        <time>2021-02-27T12:49:19Z</time>
      </trkpt>
      <trkpt lat="42.98382" lon="0.53892">
        <ele>1420.473</ele>
        <time>2021-02-27T12:49:21Z</time>
      </trkpt>
      <trkpt lat="42.98382" lon="0.53893">
        <ele>1420.116</ele>
        <time>2021-02-27T12:49:22Z</time>
      </trkpt>
      <trkpt lat="42.98381" lon="0.53897">
        <ele>1419.918</ele>
        <time>2021-02-27T12:49:25Z</time>
      </trkpt>
      <trkpt lat="42.98381" lon="0.53901">
        <ele>1420.125</ele>
        <time>2021-02-27T12:49:27Z</time>
      </trkpt>
      <trkpt lat="42.9838" lon="0.53903">
        <ele>1420.35</ele>
        <time>2021-02-27T12:49:29Z</time>
      </trkpt>
      <trkpt lat="42.9838" lon="0.53907">
        <ele>1419.971</ele>
        <time>2021-02-27T12:49:31Z</time>
      </trkpt>
      <trkpt lat="42.9838" lon="0.5391">
        <ele>1420.092</ele>
        <time>2021-02-27T12:49:33Z</time>
      </trkpt>
      <trkpt lat="42.98379" lon="0.53914">
        <ele>1419.749</ele>
        <time>2021-02-27T12:49:35Z</time>
      </trkpt>
      <trkpt lat="42.98378" lon="0.53917">
        <ele>1419.623</ele>
        <time>2021-02-27T12:49:37Z</time>
      </trkpt>
      <trkpt lat="42.98377" lon="0.5392">
        <ele>1418.861</ele>
        <time>2021-02-27T12:49:39Z</time>
      </trkpt>
      <trkpt lat="42.98377" lon="0.53923">
        <ele>1418.34</ele>
        <time>2021-02-27T12:49:41Z</time>
      </trkpt>
      <trkpt lat="42.98376" lon="0.53927">
        <ele>1417.777</ele>
        <time>2021-02-27T12:49:43Z</time>
      </trkpt>
      <trkpt lat="42.98375" lon="0.5393">
        <ele>1417.653</ele>
        <time>2021-02-27T12:49:45Z</time>
      </trkpt>
      <trkpt lat="42.98374" lon="0.53932">
        <ele>1417.248</ele>
        <time>2021-02-27T12:49:47Z</time>
      </trkpt>
      <trkpt lat="42.98373" lon="0.53935">
        <ele>1417.038</ele>
        <time>2021-02-27T12:49:49Z</time>
      </trkpt>
      <trkpt lat="42.98372" lon="0.53937">
        <ele>1416.01</ele>
        <time>2021-02-27T12:49:51Z</time>
      </trkpt>
      <trkpt lat="42.98371" lon="0.5394">
        <ele>1415.715</ele>
        <time>2021-02-27T12:49:53Z</time>
      </trkpt>
      <trkpt lat="42.9837" lon="0.53943">
        <ele>1415.529</ele>
        <time>2021-02-27T12:49:55Z</time>
      </trkpt>
      <trkpt lat="42.98369" lon="0.53946">
        <ele>1414.589</ele>
        <time>2021-02-27T12:49:57Z</time>
      </trkpt>
      <trkpt lat="42.98367" lon="0.53949">
        <ele>1414.74</ele>
        <time>2021-02-27T12:49:59Z</time>
      </trkpt>
      <trkpt lat="42.98366" lon="0.53951">
        <ele>1413.579</ele>
        <time>2021-02-27T12:50:01Z</time>
      </trkpt>
      <trkpt lat="42.98364" lon="0.53953">
        <ele>1413.854</ele>
        <time>2021-02-27T12:50:03Z</time>
      </trkpt>
      <trkpt lat="42.98363" lon="0.53955">
        <ele>1413.842</ele>
        <time>2021-02-27T12:50:05Z</time>
      </trkpt>
      <trkpt lat="42.98362" lon="0.53957">
        <ele>1412.42</ele>
        <time>2021-02-27T12:50:07Z</time>
      </trkpt>
      <trkpt lat="42.9836" lon="0.5396">
        <ele>1411.819</ele>
        <time>2021-02-27T12:50:09Z</time>
      </trkpt>
      <trkpt lat="42.9836" lon="0.53963">
        <ele>1411.702</ele>
        <time>2021-02-27T12:50:11Z</time>
      </trkpt>
      <trkpt lat="42.98359" lon="0.53966">
        <ele>1411.57</ele>
        <time>2021-02-27T12:50:13Z</time>
      </trkpt>
      <trkpt lat="42.9836" lon="0.53969">
        <ele>1411.55</ele>
        <time>2021-02-27T12:50:15Z</time>
      </trkpt>
      <trkpt lat="42.98361" lon="0.53972">
        <ele>1411.708</ele>
        <time>2021-02-27T12:50:17Z</time>
      </trkpt>
      <trkpt lat="42.98363" lon="0.53973">
        <ele>1412.381</ele>
        <time>2021-02-27T12:50:19Z</time>
      </trkpt>
      <trkpt lat="42.98365" lon="0.53974">
        <ele>1412.204</ele>
        <time>2021-02-27T12:50:21Z</time>
      </trkpt>
      <trkpt lat="42.98366" lon="0.53973">
        <ele>1413.178</ele>
        <time>2021-02-27T12:50:23Z</time>
      </trkpt>
      <trkpt lat="42.98366" lon="0.53973">
        <ele>1413.129</ele>
        <time>2021-02-27T12:50:25Z</time>
      </trkpt>
      <trkpt lat="42.98367" lon="0.53972">
        <ele>1413.291</ele>
        <time>2021-02-27T12:50:27Z</time>
      </trkpt>
      <trkpt lat="42.9837" lon="0.53972">
        <ele>1413.852</ele>
        <time>2021-02-27T12:50:29Z</time>
      </trkpt>
      <trkpt lat="42.98371" lon="0.53971">
        <ele>1412.772</ele>
        <time>2021-02-27T12:50:31Z</time>
      </trkpt>
      <trkpt lat="42.98373" lon="0.5397">
        <ele>1413.319</ele>
        <time>2021-02-27T12:50:33Z</time>
      </trkpt>
      <trkpt lat="42.98375" lon="0.53969">
        <ele>1413.238</ele>
        <time>2021-02-27T12:50:35Z</time>
      </trkpt>
      <trkpt lat="42.98376" lon="0.53968">
        <ele>1412.684</ele>
        <time>2021-02-27T12:50:37Z</time>
      </trkpt>
      <trkpt lat="42.98378" lon="0.53967">
        <ele>1411.745</ele>
        <time>2021-02-27T12:50:39Z</time>
      </trkpt>
      <trkpt lat="42.9838" lon="0.53965">
        <ele>1410.931</ele>
        <time>2021-02-27T12:50:41Z</time>
      </trkpt>
      <trkpt lat="42.98382" lon="0.53964">
        <ele>1410.624</ele>
        <time>2021-02-27T12:50:43Z</time>
      </trkpt>
      <trkpt lat="42.98384" lon="0.53963">
        <ele>1411.103</ele>
        <time>2021-02-27T12:50:45Z</time>
      </trkpt>
      <trkpt lat="42.98385" lon="0.53962">
        <ele>1411.317</ele>
        <time>2021-02-27T12:50:47Z</time>
      </trkpt>
      <trkpt lat="42.98387" lon="0.53961">
        <ele>1411.616</ele>
        <time>2021-02-27T12:50:49Z</time>
      </trkpt>
      <trkpt lat="42.98389" lon="0.53959">
        <ele>1412.365</ele>
        <time>2021-02-27T12:50:51Z</time>
      </trkpt>
      <trkpt lat="42.98392" lon="0.53956">
        <ele>1412.766</ele>
        <time>2021-02-27T12:50:53Z</time>
      </trkpt>
      <trkpt lat="42.98394" lon="0.53955">
        <ele>1411.924</ele>
        <time>2021-02-27T12:50:55Z</time>
      </trkpt>
      <trkpt lat="42.98396" lon="0.53953">
        <ele>1411.57</ele>
        <time>2021-02-27T12:50:57Z</time>
      </trkpt>
      <trkpt lat="42.98398" lon="0.53951">
        <ele>1411.446</ele>
        <time>2021-02-27T12:50:59Z</time>
      </trkpt>
      <trkpt lat="42.984" lon="0.53949">
        <ele>1411.787</ele>
        <time>2021-02-27T12:51:01Z</time>
      </trkpt>
      <trkpt lat="42.98402" lon="0.53946">
        <ele>1410.887</ele>
        <time>2021-02-27T12:51:03Z</time>
      </trkpt>
      <trkpt lat="42.98403" lon="0.53945">
        <ele>1410.711</ele>
        <time>2021-02-27T12:51:05Z</time>
      </trkpt>
      <trkpt lat="42.98405" lon="0.53943">
        <ele>1411.516</ele>
        <time>2021-02-27T12:51:07Z</time>
      </trkpt>
      <trkpt lat="42.98407" lon="0.53941">
        <ele>1410.962</ele>
        <time>2021-02-27T12:51:09Z</time>
      </trkpt>
      <trkpt lat="42.98409" lon="0.53939">
        <ele>1409.949</ele>
        <time>2021-02-27T12:51:11Z</time>
      </trkpt>
      <trkpt lat="42.98411" lon="0.53937">
        <ele>1410.142</ele>
        <time>2021-02-27T12:51:13Z</time>
      </trkpt>
      <trkpt lat="42.98412" lon="0.53935">
        <ele>1409.513</ele>
        <time>2021-02-27T12:51:15Z</time>
      </trkpt>
      <trkpt lat="42.98414" lon="0.53933">
        <ele>1409.375</ele>
        <time>2021-02-27T12:51:17Z</time>
      </trkpt>
      <trkpt lat="42.98415" lon="0.53931">
        <ele>1408.576</ele>
        <time>2021-02-27T12:51:19Z</time>
      </trkpt>
      <trkpt lat="42.98417" lon="0.53928">
        <ele>1408.925</ele>
        <time>2021-02-27T12:51:21Z</time>
      </trkpt>
      <trkpt lat="42.9842" lon="0.53927">
        <ele>1408.351</ele>
        <time>2021-02-27T12:51:23Z</time>
      </trkpt>
      <trkpt lat="42.98422" lon="0.53925">
        <ele>1407.703</ele>
        <time>2021-02-27T12:51:25Z</time>
      </trkpt>
      <trkpt lat="42.98423" lon="0.53923">
        <ele>1407.344</ele>
        <time>2021-02-27T12:51:27Z</time>
      </trkpt>
      <trkpt lat="42.98425" lon="0.5392">
        <ele>1407.861</ele>
        <time>2021-02-27T12:51:29Z</time>
      </trkpt>
      <trkpt lat="42.98427" lon="0.53918">
        <ele>1407.231</ele>
        <time>2021-02-27T12:51:31Z</time>
      </trkpt>
      <trkpt lat="42.98429" lon="0.53915">
        <ele>1406.619</ele>
        <time>2021-02-27T12:51:33Z</time>
      </trkpt>
      <trkpt lat="42.9843" lon="0.53913">
        <ele>1404.722</ele>
        <time>2021-02-27T12:51:35Z</time>
      </trkpt>
      <trkpt lat="42.98431" lon="0.53911">
        <ele>1404.139</ele>
        <time>2021-02-27T12:51:37Z</time>
      </trkpt>
      <trkpt lat="42.98432" lon="0.53909">
        <ele>1404.686</ele>
        <time>2021-02-27T12:51:39Z</time>
      </trkpt>
      <trkpt lat="42.98434" lon="0.53907">
        <ele>1404.377</ele>
        <time>2021-02-27T12:51:41Z</time>
      </trkpt>
      <trkpt lat="42.98435" lon="0.53905">
        <ele>1403.985</ele>
        <time>2021-02-27T12:51:43Z</time>
      </trkpt>
      <trkpt lat="42.98437" lon="0.53904">
        <ele>1405.25</ele>
        <time>2021-02-27T12:51:45Z</time>
      </trkpt>
      <trkpt lat="42.98438" lon="0.53902">
        <ele>1405.464</ele>
        <time>2021-02-27T12:51:47Z</time>
      </trkpt>
      <trkpt lat="42.9844" lon="0.53899">
        <ele>1404.574</ele>
        <time>2021-02-27T12:51:49Z</time>
      </trkpt>
      <trkpt lat="42.98441" lon="0.53898">
        <ele>1404.408</ele>
        <time>2021-02-27T12:51:51Z</time>
      </trkpt>
      <trkpt lat="42.98443" lon="0.53896">
        <ele>1404.675</ele>
        <time>2021-02-27T12:51:53Z</time>
      </trkpt>
      <trkpt lat="42.98444" lon="0.53893">
        <ele>1404.036</ele>
        <time>2021-02-27T12:51:55Z</time>
      </trkpt>
      <trkpt lat="42.98446" lon="0.53892">
        <ele>1403.657</ele>
        <time>2021-02-27T12:51:57Z</time>
      </trkpt>
      <trkpt lat="42.98448" lon="0.5389">
        <ele>1403.681</ele>
        <time>2021-02-27T12:51:59Z</time>
      </trkpt>
      <trkpt lat="42.98449" lon="0.53888">
        <ele>1403.961</ele>
        <time>2021-02-27T12:52:01Z</time>
      </trkpt>
      <trkpt lat="42.98451" lon="0.53886">
        <ele>1403.598</ele>
        <time>2021-02-27T12:52:03Z</time>
      </trkpt>
      <trkpt lat="42.98452" lon="0.53884">
        <ele>1403.052</ele>
        <time>2021-02-27T12:52:05Z</time>
      </trkpt>
      <trkpt lat="42.98454" lon="0.53881">
        <ele>1402.2</ele>
        <time>2021-02-27T12:52:07Z</time>
      </trkpt>
      <trkpt lat="42.98455" lon="0.53879">
        <ele>1401.272</ele>
        <time>2021-02-27T12:52:09Z</time>
      </trkpt>
      <trkpt lat="42.98457" lon="0.53877">
        <ele>1401.527</ele>
        <time>2021-02-27T12:52:11Z</time>
      </trkpt>
      <trkpt lat="42.98458" lon="0.53875">
        <ele>1400.526</ele>
        <time>2021-02-27T12:52:13Z</time>
      </trkpt>
      <trkpt lat="42.9846" lon="0.53872">
        <ele>1400.029</ele>
        <time>2021-02-27T12:52:15Z</time>
      </trkpt>
      <trkpt lat="42.98461" lon="0.5387">
        <ele>1398.922</ele>
        <time>2021-02-27T12:52:17Z</time>
      </trkpt>
      <trkpt lat="42.98463" lon="0.53867">
        <ele>1398.016</ele>
        <time>2021-02-27T12:52:19Z</time>
      </trkpt>
      <trkpt lat="42.98465" lon="0.53864">
        <ele>1397.662</ele>
        <time>2021-02-27T12:52:21Z</time>
      </trkpt>
      <trkpt lat="42.98466" lon="0.53862">
        <ele>1397.367</ele>
        <time>2021-02-27T12:52:23Z</time>
      </trkpt>
      <trkpt lat="42.98468" lon="0.53859">
        <ele>1397.949</ele>
        <time>2021-02-27T12:52:25Z</time>
      </trkpt>
      <trkpt lat="42.9847" lon="0.53856">
        <ele>1398.49</ele>
        <time>2021-02-27T12:52:27Z</time>
      </trkpt>
      <trkpt lat="42.98472" lon="0.53854">
        <ele>1398.139</ele>
        <time>2021-02-27T12:52:29Z</time>
      </trkpt>
      <trkpt lat="42.98473" lon="0.53851">
        <ele>1397.691</ele>
        <time>2021-02-27T12:52:31Z</time>
      </trkpt>
      <trkpt lat="42.98474" lon="0.53849">
        <ele>1397.055</ele>
        <time>2021-02-27T12:52:33Z</time>
      </trkpt>
      <trkpt lat="42.98476" lon="0.53846">
        <ele>1395.937</ele>
        <time>2021-02-27T12:52:35Z</time>
      </trkpt>
      <trkpt lat="42.98477" lon="0.53844">
        <ele>1396.004</ele>
        <time>2021-02-27T12:52:37Z</time>
      </trkpt>
      <trkpt lat="42.98478" lon="0.53841">
        <ele>1395.216</ele>
        <time>2021-02-27T12:52:39Z</time>
      </trkpt>
      <trkpt lat="42.98479" lon="0.53839">
        <ele>1395.647</ele>
        <time>2021-02-27T12:52:41Z</time>
      </trkpt>
      <trkpt lat="42.98481" lon="0.53836">
        <ele>1395.99</ele>
        <time>2021-02-27T12:52:43Z</time>
      </trkpt>
      <trkpt lat="42.98482" lon="0.53833">
        <ele>1396.094</ele>
        <time>2021-02-27T12:52:45Z</time>
      </trkpt>
      <trkpt lat="42.98483" lon="0.53831">
        <ele>1396.167</ele>
        <time>2021-02-27T12:52:47Z</time>
      </trkpt>
      <trkpt lat="42.98486" lon="0.53828">
        <ele>1396.984</ele>
        <time>2021-02-27T12:52:49Z</time>
      </trkpt>
      <trkpt lat="42.98488" lon="0.53825">
        <ele>1397.144</ele>
        <time>2021-02-27T12:52:51Z</time>
      </trkpt>
      <trkpt lat="42.98489" lon="0.53823">
        <ele>1396.835</ele>
        <time>2021-02-27T12:52:53Z</time>
      </trkpt>
      <trkpt lat="42.98491" lon="0.5382">
        <ele>1396.844</ele>
        <time>2021-02-27T12:52:55Z</time>
      </trkpt>
      <trkpt lat="42.98492" lon="0.53817">
        <ele>1396.554</ele>
        <time>2021-02-27T12:52:57Z</time>
      </trkpt>
      <trkpt lat="42.98494" lon="0.53815">
        <ele>1396.08</ele>
        <time>2021-02-27T12:52:59Z</time>
      </trkpt>
      <trkpt lat="42.98495" lon="0.53812">
        <ele>1395.168</ele>
        <time>2021-02-27T12:53:01Z</time>
      </trkpt>
      <trkpt lat="42.98496" lon="0.5381">
        <ele>1393.791</ele>
        <time>2021-02-27T12:53:03Z</time>
      </trkpt>
      <trkpt lat="42.98498" lon="0.53808">
        <ele>1392.972</ele>
        <time>2021-02-27T12:53:05Z</time>
      </trkpt>
      <trkpt lat="42.985" lon="0.53806">
        <ele>1392.874</ele>
        <time>2021-02-27T12:53:07Z</time>
      </trkpt>
      <trkpt lat="42.98501" lon="0.53804">
        <ele>1391.654</ele>
        <time>2021-02-27T12:53:09Z</time>
      </trkpt>
      <trkpt lat="42.98502" lon="0.53802">
        <ele>1392.121</ele>
        <time>2021-02-27T12:53:11Z</time>
      </trkpt>
      <trkpt lat="42.98503" lon="0.538">
        <ele>1392.862</ele>
        <time>2021-02-27T12:53:13Z</time>
      </trkpt>
      <trkpt lat="42.98505" lon="0.53798">
        <ele>1391.414</ele>
        <time>2021-02-27T12:53:15Z</time>
      </trkpt>
      <trkpt lat="42.98507" lon="0.53795">
        <ele>1391.488</ele>
        <time>2021-02-27T12:53:17Z</time>
      </trkpt>
      <trkpt lat="42.98509" lon="0.53794">
        <ele>1391.187</ele>
        <time>2021-02-27T12:53:19Z</time>
      </trkpt>
      <trkpt lat="42.98511" lon="0.53792">
        <ele>1390.664</ele>
        <time>2021-02-27T12:53:21Z</time>
      </trkpt>
      <trkpt lat="42.98513" lon="0.5379">
        <ele>1390.381</ele>
        <time>2021-02-27T12:53:23Z</time>
      </trkpt>
      <trkpt lat="42.98514" lon="0.53789">
        <ele>1390.131</ele>
        <time>2021-02-27T12:53:25Z</time>
      </trkpt>
      <trkpt lat="42.98516" lon="0.53787">
        <ele>1390.313</ele>
        <time>2021-02-27T12:53:27Z</time>
      </trkpt>
      <trkpt lat="42.98518" lon="0.53785">
        <ele>1389.277</ele>
        <time>2021-02-27T12:53:29Z</time>
      </trkpt>
      <trkpt lat="42.9852" lon="0.53783">
        <ele>1389.158</ele>
        <time>2021-02-27T12:53:31Z</time>
      </trkpt>
      <trkpt lat="42.98521" lon="0.53781">
        <ele>1388.92</ele>
        <time>2021-02-27T12:53:33Z</time>
      </trkpt>
      <trkpt lat="42.98523" lon="0.53779">
        <ele>1388.294</ele>
        <time>2021-02-27T12:53:35Z</time>
      </trkpt>
      <trkpt lat="42.98524" lon="0.53777">
        <ele>1387.508</ele>
        <time>2021-02-27T12:53:37Z</time>
      </trkpt>
      <trkpt lat="42.98526" lon="0.53774">
        <ele>1386.867</ele>
        <time>2021-02-27T12:53:39Z</time>
      </trkpt>
      <trkpt lat="42.98527" lon="0.53771">
        <ele>1386.328</ele>
        <time>2021-02-27T12:53:41Z</time>
      </trkpt>
      <trkpt lat="42.98528" lon="0.53769">
        <ele>1386.138</ele>
        <time>2021-02-27T12:53:43Z</time>
      </trkpt>
      <trkpt lat="42.98529" lon="0.53766">
        <ele>1384.998</ele>
        <time>2021-02-27T12:53:45Z</time>
      </trkpt>
      <trkpt lat="42.9853" lon="0.53764">
        <ele>1385.182</ele>
        <time>2021-02-27T12:53:47Z</time>
      </trkpt>
      <trkpt lat="42.98532" lon="0.53762">
        <ele>1385.636</ele>
        <time>2021-02-27T12:53:49Z</time>
      </trkpt>
      <trkpt lat="42.98533" lon="0.53759">
        <ele>1385.409</ele>
        <time>2021-02-27T12:53:51Z</time>
      </trkpt>
      <trkpt lat="42.98534" lon="0.53757">
        <ele>1384.263</ele>
        <time>2021-02-27T12:53:53Z</time>
      </trkpt>
      <trkpt lat="42.98535" lon="0.53754">
        <ele>1382.849</ele>
        <time>2021-02-27T12:53:55Z</time>
      </trkpt>
      <trkpt lat="42.98537" lon="0.53752">
        <ele>1382.672</ele>
        <time>2021-02-27T12:53:57Z</time>
      </trkpt>
      <trkpt lat="42.98538" lon="0.5375">
        <ele>1382.06</ele>
        <time>2021-02-27T12:53:59Z</time>
      </trkpt>
      <trkpt lat="42.98539" lon="0.53747">
        <ele>1381.929</ele>
        <time>2021-02-27T12:54:01Z</time>
      </trkpt>
      <trkpt lat="42.98541" lon="0.53744">
        <ele>1381.555</ele>
        <time>2021-02-27T12:54:03Z</time>
      </trkpt>
      <trkpt lat="42.98542" lon="0.53743">
        <ele>1380.035</ele>
        <time>2021-02-27T12:54:05Z</time>
      </trkpt>
      <trkpt lat="42.98543" lon="0.5374">
        <ele>1379.468</ele>
        <time>2021-02-27T12:54:07Z</time>
      </trkpt>
      <trkpt lat="42.98545" lon="0.53738">
        <ele>1379.521</ele>
        <time>2021-02-27T12:54:09Z</time>
      </trkpt>
      <trkpt lat="42.98546" lon="0.53735">
        <ele>1379.448</ele>
        <time>2021-02-27T12:54:11Z</time>
      </trkpt>
      <trkpt lat="42.98548" lon="0.53733">
        <ele>1380.185</ele>
        <time>2021-02-27T12:54:13Z</time>
      </trkpt>
      <trkpt lat="42.98549" lon="0.53731">
        <ele>1379.457</ele>
        <time>2021-02-27T12:54:15Z</time>
      </trkpt>
      <trkpt lat="42.9855" lon="0.53729">
        <ele>1378.016</ele>
        <time>2021-02-27T12:54:17Z</time>
      </trkpt>
      <trkpt lat="42.98551" lon="0.53727">
        <ele>1377.384</ele>
        <time>2021-02-27T12:54:19Z</time>
      </trkpt>
      <trkpt lat="42.98553" lon="0.53725">
        <ele>1377.343</ele>
        <time>2021-02-27T12:54:21Z</time>
      </trkpt>
      <trkpt lat="42.98554" lon="0.53721">
        <ele>1376.33</ele>
        <time>2021-02-27T12:54:24Z</time>
      </trkpt>
      <trkpt lat="42.98556" lon="0.53719">
        <ele>1375.977</ele>
        <time>2021-02-27T12:54:26Z</time>
      </trkpt>
      <trkpt lat="42.98557" lon="0.53717">
        <ele>1375.927</ele>
        <time>2021-02-27T12:54:28Z</time>
      </trkpt>
      <trkpt lat="42.98558" lon="0.53714">
        <ele>1375.193</ele>
        <time>2021-02-27T12:54:30Z</time>
      </trkpt>
      <trkpt lat="42.98559" lon="0.53712">
        <ele>1375.859</ele>
        <time>2021-02-27T12:54:32Z</time>
      </trkpt>
      <trkpt lat="42.9856" lon="0.53709">
        <ele>1375.548</ele>
        <time>2021-02-27T12:54:34Z</time>
      </trkpt>
      <trkpt lat="42.98562" lon="0.53707">
        <ele>1375.278</ele>
        <time>2021-02-27T12:54:36Z</time>
      </trkpt>
      <trkpt lat="42.98563" lon="0.53705">
        <ele>1374.734</ele>
        <time>2021-02-27T12:54:38Z</time>
      </trkpt>
      <trkpt lat="42.98564" lon="0.53702">
        <ele>1374.098</ele>
        <time>2021-02-27T12:54:40Z</time>
      </trkpt>
      <trkpt lat="42.98565" lon="0.537">
        <ele>1373.103</ele>
        <time>2021-02-27T12:54:42Z</time>
      </trkpt>
      <trkpt lat="42.98566" lon="0.53698">
        <ele>1371.797</ele>
        <time>2021-02-27T12:54:44Z</time>
      </trkpt>
      <trkpt lat="42.98567" lon="0.53695">
        <ele>1372.1</ele>
        <time>2021-02-27T12:54:46Z</time>
      </trkpt>
      <trkpt lat="42.98568" lon="0.53694">
        <ele>1371.496</ele>
        <time>2021-02-27T12:54:48Z</time>
      </trkpt>
      <trkpt lat="42.98569" lon="0.53691">
        <ele>1371.329</ele>
        <time>2021-02-27T12:54:50Z</time>
      </trkpt>
      <trkpt lat="42.98571" lon="0.5369">
        <ele>1371.078</ele>
        <time>2021-02-27T12:54:52Z</time>
      </trkpt>
      <trkpt lat="42.98572" lon="0.53687">
        <ele>1371.543</ele>
        <time>2021-02-27T12:54:54Z</time>
      </trkpt>
      <trkpt lat="42.98574" lon="0.53685">
        <ele>1371.048</ele>
        <time>2021-02-27T12:54:56Z</time>
      </trkpt>
      <trkpt lat="42.98576" lon="0.53683">
        <ele>1370.277</ele>
        <time>2021-02-27T12:54:58Z</time>
      </trkpt>
      <trkpt lat="42.98577" lon="0.53681">
        <ele>1368.524</ele>
        <time>2021-02-27T12:55:00Z</time>
      </trkpt>
      <trkpt lat="42.98578" lon="0.53679">
        <ele>1367.969</ele>
        <time>2021-02-27T12:55:02Z</time>
      </trkpt>
      <trkpt lat="42.98579" lon="0.53676">
        <ele>1367.514</ele>
        <time>2021-02-27T12:55:04Z</time>
      </trkpt>
      <trkpt lat="42.9858" lon="0.53674">
        <ele>1367.044</ele>
        <time>2021-02-27T12:55:06Z</time>
      </trkpt>
      <trkpt lat="42.98582" lon="0.53672">
        <ele>1366.567</ele>
        <time>2021-02-27T12:55:08Z</time>
      </trkpt>
      <trkpt lat="42.98583" lon="0.53668">
        <ele>1365.634</ele>
        <time>2021-02-27T12:55:10Z</time>
      </trkpt>
      <trkpt lat="42.98585" lon="0.53666">
        <ele>1365.638</ele>
        <time>2021-02-27T12:55:12Z</time>
      </trkpt>
      <trkpt lat="42.98586" lon="0.53663">
        <ele>1365.653</ele>
        <time>2021-02-27T12:55:14Z</time>
      </trkpt>
      <trkpt lat="42.98587" lon="0.5366">
        <ele>1365.903</ele>
        <time>2021-02-27T12:55:16Z</time>
      </trkpt>
      <trkpt lat="42.98589" lon="0.53657">
        <ele>1366.128</ele>
        <time>2021-02-27T12:55:18Z</time>
      </trkpt>
      <trkpt lat="42.9859" lon="0.53653">
        <ele>1366.227</ele>
        <time>2021-02-27T12:55:20Z</time>
      </trkpt>
      <trkpt lat="42.98591" lon="0.5365">
        <ele>1365.041</ele>
        <time>2021-02-27T12:55:22Z</time>
      </trkpt>
      <trkpt lat="42.98593" lon="0.53648">
        <ele>1363.952</ele>
        <time>2021-02-27T12:55:24Z</time>
      </trkpt>
      <trkpt lat="42.98594" lon="0.53644">
        <ele>1364.916</ele>
        <time>2021-02-27T12:55:26Z</time>
      </trkpt>
      <trkpt lat="42.98595" lon="0.5364">
        <ele>1365.503</ele>
        <time>2021-02-27T12:55:28Z</time>
      </trkpt>
      <trkpt lat="42.98596" lon="0.53637">
        <ele>1365.213</ele>
        <time>2021-02-27T12:55:30Z</time>
      </trkpt>
      <trkpt lat="42.98597" lon="0.53634">
        <ele>1364.413</ele>
        <time>2021-02-27T12:55:32Z</time>
      </trkpt>
      <trkpt lat="42.98598" lon="0.53631">
        <ele>1363.914</ele>
        <time>2021-02-27T12:55:34Z</time>
      </trkpt>
      <trkpt lat="42.98599" lon="0.53628">
        <ele>1362.378</ele>
        <time>2021-02-27T12:55:36Z</time>
      </trkpt>
      <trkpt lat="42.98601" lon="0.53624">
        <ele>1361.21</ele>
        <time>2021-02-27T12:55:39Z</time>
      </trkpt>
      <trkpt lat="42.98601" lon="0.53621">
        <ele>1360.556</ele>
        <time>2021-02-27T12:55:41Z</time>
      </trkpt>
      <trkpt lat="42.98601" lon="0.53618">
        <ele>1359.404</ele>
        <time>2021-02-27T12:55:43Z</time>
      </trkpt>
      <trkpt lat="42.98602" lon="0.53614">
        <ele>1359.455</ele>
        <time>2021-02-27T12:55:45Z</time>
      </trkpt>
      <trkpt lat="42.98603" lon="0.53611">
        <ele>1358.599</ele>
        <time>2021-02-27T12:55:47Z</time>
      </trkpt>
      <trkpt lat="42.98604" lon="0.53608">
        <ele>1358.906</ele>
        <time>2021-02-27T12:55:49Z</time>
      </trkpt>
      <trkpt lat="42.98605" lon="0.53605">
        <ele>1359.394</ele>
        <time>2021-02-27T12:55:51Z</time>
      </trkpt>
      <trkpt lat="42.98606" lon="0.53602">
        <ele>1360.578</ele>
        <time>2021-02-27T12:55:53Z</time>
      </trkpt>
      <trkpt lat="42.98607" lon="0.536">
        <ele>1360.112</ele>
        <time>2021-02-27T12:55:55Z</time>
      </trkpt>
      <trkpt lat="42.98607" lon="0.53597">
        <ele>1359.684</ele>
        <time>2021-02-27T12:55:57Z</time>
      </trkpt>
      <trkpt lat="42.98608" lon="0.53594">
        <ele>1359.602</ele>
        <time>2021-02-27T12:55:59Z</time>
      </trkpt>
      <trkpt lat="42.98609" lon="0.53591">
        <ele>1360.185</ele>
        <time>2021-02-27T12:56:01Z</time>
      </trkpt>
      <trkpt lat="42.9861" lon="0.53588">
        <ele>1359.43</ele>
        <time>2021-02-27T12:56:03Z</time>
      </trkpt>
      <trkpt lat="42.98611" lon="0.53586">
        <ele>1359.784</ele>
        <time>2021-02-27T12:56:05Z</time>
      </trkpt>
      <trkpt lat="42.98612" lon="0.53583">
        <ele>1360.768</ele>
        <time>2021-02-27T12:56:07Z</time>
      </trkpt>
      <trkpt lat="42.98614" lon="0.53581">
        <ele>1361.163</ele>
        <time>2021-02-27T12:56:09Z</time>
      </trkpt>
      <trkpt lat="42.98615" lon="0.53581">
        <ele>1358.84</ele>
        <time>2021-02-27T12:56:11Z</time>
      </trkpt>
      <trkpt lat="42.98617" lon="0.53583">
        <ele>1357.271</ele>
        <time>2021-02-27T12:56:13Z</time>
      </trkpt>
      <trkpt lat="42.98618" lon="0.53585">
        <ele>1357.579</ele>
        <time>2021-02-27T12:56:15Z</time>
      </trkpt>
      <trkpt lat="42.98619" lon="0.53587">
        <ele>1355.455</ele>
        <time>2021-02-27T12:56:17Z</time>
      </trkpt>
      <trkpt lat="42.9862" lon="0.5359">
        <ele>1354.423</ele>
        <time>2021-02-27T12:56:19Z</time>
      </trkpt>
      <trkpt lat="42.9862" lon="0.53592">
        <ele>1352.956</ele>
        <time>2021-02-27T12:56:21Z</time>
      </trkpt>
      <trkpt lat="42.9862" lon="0.53595">
        <ele>1352.408</ele>
        <time>2021-02-27T12:56:23Z</time>
      </trkpt>
      <trkpt lat="42.98619" lon="0.53598">
        <ele>1351.415</ele>
        <time>2021-02-27T12:56:25Z</time>
      </trkpt>
      <trkpt lat="42.98619" lon="0.53601">
        <ele>1350.763</ele>
        <time>2021-02-27T12:56:27Z</time>
      </trkpt>
      <trkpt lat="42.9862" lon="0.53603">
        <ele>1351.874</ele>
        <time>2021-02-27T12:56:29Z</time>
      </trkpt>
      <trkpt lat="42.98621" lon="0.53605">
        <ele>1353.225</ele>
        <time>2021-02-27T12:56:31Z</time>
      </trkpt>
      <trkpt lat="42.98621" lon="0.53607">
        <ele>1354.455</ele>
        <time>2021-02-27T12:56:33Z</time>
      </trkpt>
      <trkpt lat="42.98622" lon="0.5361">
        <ele>1354.094</ele>
        <time>2021-02-27T12:56:35Z</time>
      </trkpt>
      <trkpt lat="42.98621" lon="0.53612">
        <ele>1353.885</ele>
        <time>2021-02-27T12:56:37Z</time>
      </trkpt>
      <trkpt lat="42.98621" lon="0.53615">
        <ele>1352.957</ele>
        <time>2021-02-27T12:56:39Z</time>
      </trkpt>
      <trkpt lat="42.98621" lon="0.53617">
        <ele>1352.02</ele>
        <time>2021-02-27T12:56:41Z</time>
      </trkpt>
      <trkpt lat="42.9862" lon="0.53619">
        <ele>1350.701</ele>
        <time>2021-02-27T12:56:43Z</time>
      </trkpt>
      <trkpt lat="42.9862" lon="0.5362">
        <ele>1350.151</ele>
        <time>2021-02-27T12:56:44Z</time>
      </trkpt>
      <trkpt lat="42.9862" lon="0.53624">
        <ele>1348.063</ele>
        <time>2021-02-27T12:56:47Z</time>
      </trkpt>
      <trkpt lat="42.98619" lon="0.53627">
        <ele>1346.939</ele>
        <time>2021-02-27T12:56:49Z</time>
      </trkpt>
      <trkpt lat="42.9862" lon="0.53629">
        <ele>1346.094</ele>
        <time>2021-02-27T12:56:51Z</time>
      </trkpt>
      <trkpt lat="42.98621" lon="0.53632">
        <ele>1345.424</ele>
        <time>2021-02-27T12:56:53Z</time>
      </trkpt>
      <trkpt lat="42.98621" lon="0.53634">
        <ele>1345.834</ele>
        <time>2021-02-27T12:56:55Z</time>
      </trkpt>
      <trkpt lat="42.98622" lon="0.53637">
        <ele>1345.649</ele>
        <time>2021-02-27T12:56:57Z</time>
      </trkpt>
      <trkpt lat="42.98622" lon="0.5364">
        <ele>1345.297</ele>
        <time>2021-02-27T12:56:59Z</time>
      </trkpt>
      <trkpt lat="42.98623" lon="0.53643">
        <ele>1345.536</ele>
        <time>2021-02-27T12:57:01Z</time>
      </trkpt>
      <trkpt lat="42.98624" lon="0.53646">
        <ele>1345.44</ele>
        <time>2021-02-27T12:57:03Z</time>
      </trkpt>
      <trkpt lat="42.98625" lon="0.53648">
        <ele>1345.315</ele>
        <time>2021-02-27T12:57:05Z</time>
      </trkpt>
      <trkpt lat="42.98625" lon="0.53651">
        <ele>1344.918</ele>
        <time>2021-02-27T12:57:07Z</time>
      </trkpt>
      <trkpt lat="42.98626" lon="0.53653">
        <ele>1344.16</ele>
        <time>2021-02-27T12:57:09Z</time>
      </trkpt>
      <trkpt lat="42.98626" lon="0.53656">
        <ele>1343.853</ele>
        <time>2021-02-27T12:57:11Z</time>
      </trkpt>
      <trkpt lat="42.98626" lon="0.53658">
        <ele>1343.804</ele>
        <time>2021-02-27T12:57:13Z</time>
      </trkpt>
      <trkpt lat="42.98626" lon="0.5366">
        <ele>1343.561</ele>
        <time>2021-02-27T12:57:15Z</time>
      </trkpt>
      <trkpt lat="42.98626" lon="0.53663">
        <ele>1343.864</ele>
        <time>2021-02-27T12:57:17Z</time>
      </trkpt>
      <trkpt lat="42.98626" lon="0.53666">
        <ele>1343.183</ele>
        <time>2021-02-27T12:57:19Z</time>
      </trkpt>
      <trkpt lat="42.98626" lon="0.53668">
        <ele>1343.001</ele>
        <time>2021-02-27T12:57:20Z</time>
      </trkpt>
      <trkpt lat="42.98626" lon="0.53672">
        <ele>1342.638</ele>
        <time>2021-02-27T12:57:23Z</time>
      </trkpt>
      <trkpt lat="42.98626" lon="0.53675">
        <ele>1342.08</ele>
        <time>2021-02-27T12:57:25Z</time>
      </trkpt>
      <trkpt lat="42.98625" lon="0.53678">
        <ele>1341.437</ele>
        <time>2021-02-27T12:57:27Z</time>
      </trkpt>
      <trkpt lat="42.98625" lon="0.53681">
        <ele>1340.32</ele>
        <time>2021-02-27T12:57:29Z</time>
      </trkpt>
      <trkpt lat="42.98624" lon="0.53684">
        <ele>1339.319</ele>
        <time>2021-02-27T12:57:31Z</time>
      </trkpt>
      <trkpt lat="42.98624" lon="0.53687">
        <ele>1338.553</ele>
        <time>2021-02-27T12:57:33Z</time>
      </trkpt>
      <trkpt lat="42.98623" lon="0.5369">
        <ele>1338.222</ele>
        <time>2021-02-27T12:57:35Z</time>
      </trkpt>
      <trkpt lat="42.98623" lon="0.53693">
        <ele>1337.572</ele>
        <time>2021-02-27T12:57:37Z</time>
      </trkpt>
      <trkpt lat="42.98622" lon="0.53696">
        <ele>1337.626</ele>
        <time>2021-02-27T12:57:39Z</time>
      </trkpt>
      <trkpt lat="42.98622" lon="0.53699">
        <ele>1337.215</ele>
        <time>2021-02-27T12:57:41Z</time>
      </trkpt>
      <trkpt lat="42.98622" lon="0.53703">
        <ele>1337.277</ele>
        <time>2021-02-27T12:57:43Z</time>
      </trkpt>
      <trkpt lat="42.98622" lon="0.53705">
        <ele>1337.59</ele>
        <time>2021-02-27T12:57:45Z</time>
      </trkpt>
      <trkpt lat="42.98622" lon="0.53708">
        <ele>1337.432</ele>
        <time>2021-02-27T12:57:47Z</time>
      </trkpt>
      <trkpt lat="42.98621" lon="0.53711">
        <ele>1337.221</ele>
        <time>2021-02-27T12:57:49Z</time>
      </trkpt>
      <trkpt lat="42.9862" lon="0.53713">
        <ele>1336.585</ele>
        <time>2021-02-27T12:57:51Z</time>
      </trkpt>
      <trkpt lat="42.9862" lon="0.53716">
        <ele>1336.173</ele>
        <time>2021-02-27T12:57:53Z</time>
      </trkpt>
      <trkpt lat="42.98619" lon="0.53719">
        <ele>1335.771</ele>
        <time>2021-02-27T12:57:55Z</time>
      </trkpt>
      <trkpt lat="42.98619" lon="0.53723">
        <ele>1335.675</ele>
        <time>2021-02-27T12:57:57Z</time>
      </trkpt>
      <trkpt lat="42.98619" lon="0.53725">
        <ele>1335.634</ele>
        <time>2021-02-27T12:57:59Z</time>
      </trkpt>
      <trkpt lat="42.98619" lon="0.53728">
        <ele>1335.398</ele>
        <time>2021-02-27T12:58:01Z</time>
      </trkpt>
      <trkpt lat="42.98618" lon="0.53731">
        <ele>1334.188</ele>
        <time>2021-02-27T12:58:03Z</time>
      </trkpt>
      <trkpt lat="42.98617" lon="0.53734">
        <ele>1334.819</ele>
        <time>2021-02-27T12:58:05Z</time>
      </trkpt>
      <trkpt lat="42.98616" lon="0.53736">
        <ele>1334.78</ele>
        <time>2021-02-27T12:58:07Z</time>
      </trkpt>
      <trkpt lat="42.98615" lon="0.53739">
        <ele>1334.357</ele>
        <time>2021-02-27T12:58:09Z</time>
      </trkpt>
      <trkpt lat="42.98614" lon="0.53742">
        <ele>1334.202</ele>
        <time>2021-02-27T12:58:11Z</time>
      </trkpt>
      <trkpt lat="42.98614" lon="0.53745">
        <ele>1333.287</ele>
        <time>2021-02-27T12:58:13Z</time>
      </trkpt>
      <trkpt lat="42.98613" lon="0.53747">
        <ele>1332.84</ele>
        <time>2021-02-27T12:58:15Z</time>
      </trkpt>
      <trkpt lat="42.98612" lon="0.5375">
        <ele>1331.896</ele>
        <time>2021-02-27T12:58:17Z</time>
      </trkpt>
      <trkpt lat="42.98611" lon="0.53753">
        <ele>1331.026</ele>
        <time>2021-02-27T12:58:19Z</time>
      </trkpt>
      <trkpt lat="42.98611" lon="0.53756">
        <ele>1330.22</ele>
        <time>2021-02-27T12:58:21Z</time>
      </trkpt>
      <trkpt lat="42.9861" lon="0.53759">
        <ele>1329.645</ele>
        <time>2021-02-27T12:58:23Z</time>
      </trkpt>
      <trkpt lat="42.98609" lon="0.53762">
        <ele>1329.686</ele>
        <time>2021-02-27T12:58:25Z</time>
      </trkpt>
      <trkpt lat="42.98609" lon="0.53765">
        <ele>1329.641</ele>
        <time>2021-02-27T12:58:27Z</time>
      </trkpt>
      <trkpt lat="42.98608" lon="0.53768">
        <ele>1329.875</ele>
        <time>2021-02-27T12:58:29Z</time>
      </trkpt>
      <trkpt lat="42.98607" lon="0.53771">
        <ele>1329.492</ele>
        <time>2021-02-27T12:58:31Z</time>
      </trkpt>
      <trkpt lat="42.98606" lon="0.53774">
        <ele>1329.315</ele>
        <time>2021-02-27T12:58:33Z</time>
      </trkpt>
      <trkpt lat="42.98606" lon="0.53777">
        <ele>1329.473</ele>
        <time>2021-02-27T12:58:35Z</time>
      </trkpt>
      <trkpt lat="42.98605" lon="0.5378">
        <ele>1330.291</ele>
        <time>2021-02-27T12:58:37Z</time>
      </trkpt>
      <trkpt lat="42.98605" lon="0.53785">
        <ele>1328.86</ele>
        <time>2021-02-27T12:58:40Z</time>
      </trkpt>
      <trkpt lat="42.98605" lon="0.53788">
        <ele>1328.243</ele>
        <time>2021-02-27T12:58:42Z</time>
      </trkpt>
      <trkpt lat="42.98604" lon="0.5379">
        <ele>1327.749</ele>
        <time>2021-02-27T12:58:44Z</time>
      </trkpt>
      <trkpt lat="42.98603" lon="0.53793">
        <ele>1326.957</ele>
        <time>2021-02-27T12:58:46Z</time>
      </trkpt>
      <trkpt lat="42.98603" lon="0.53796">
        <ele>1326.614</ele>
        <time>2021-02-27T12:58:48Z</time>
      </trkpt>
      <trkpt lat="42.98602" lon="0.538">
        <ele>1326.595</ele>
        <time>2021-02-27T12:58:50Z</time>
      </trkpt>
      <trkpt lat="42.98602" lon="0.53803">
        <ele>1326.619</ele>
        <time>2021-02-27T12:58:52Z</time>
      </trkpt>
      <trkpt lat="42.98601" lon="0.53806">
        <ele>1327.004</ele>
        <time>2021-02-27T12:58:54Z</time>
      </trkpt>
      <trkpt lat="42.986" lon="0.53809">
        <ele>1326.191</ele>
        <time>2021-02-27T12:58:56Z</time>
      </trkpt>
      <trkpt lat="42.986" lon="0.53812">
        <ele>1325.717</ele>
        <time>2021-02-27T12:58:58Z</time>
      </trkpt>
      <trkpt lat="42.98599" lon="0.53814">
        <ele>1325.777</ele>
        <time>2021-02-27T12:59:00Z</time>
      </trkpt>
      <trkpt lat="42.98598" lon="0.53817">
        <ele>1325.016</ele>
        <time>2021-02-27T12:59:02Z</time>
      </trkpt>
      <trkpt lat="42.98597" lon="0.5382">
        <ele>1324.508</ele>
        <time>2021-02-27T12:59:04Z</time>
      </trkpt>
      <trkpt lat="42.98596" lon="0.53823">
        <ele>1323.573</ele>
        <time>2021-02-27T12:59:06Z</time>
      </trkpt>
      <trkpt lat="42.98595" lon="0.53826">
        <ele>1323.562</ele>
        <time>2021-02-27T12:59:08Z</time>
      </trkpt>
      <trkpt lat="42.98594" lon="0.53828">
        <ele>1323.58</ele>
        <time>2021-02-27T12:59:10Z</time>
      </trkpt>
      <trkpt lat="42.98593" lon="0.53831">
        <ele>1324.489</ele>
        <time>2021-02-27T12:59:12Z</time>
      </trkpt>
      <trkpt lat="42.98591" lon="0.53834">
        <ele>1324.014</ele>
        <time>2021-02-27T12:59:14Z</time>
      </trkpt>
      <trkpt lat="42.9859" lon="0.53835">
        <ele>1322.773</ele>
        <time>2021-02-27T12:59:16Z</time>
      </trkpt>
      <trkpt lat="42.98588" lon="0.53837">
        <ele>1322.733</ele>
        <time>2021-02-27T12:59:18Z</time>
      </trkpt>
      <trkpt lat="42.98587" lon="0.5384">
        <ele>1321.877</ele>
        <time>2021-02-27T12:59:20Z</time>
      </trkpt>
      <trkpt lat="42.98585" lon="0.53842">
        <ele>1320.828</ele>
        <time>2021-02-27T12:59:22Z</time>
      </trkpt>
      <trkpt lat="42.98584" lon="0.53844">
        <ele>1320.095</ele>
        <time>2021-02-27T12:59:24Z</time>
      </trkpt>
      <trkpt lat="42.98582" lon="0.53847">
        <ele>1319.574</ele>
        <time>2021-02-27T12:59:26Z</time>
      </trkpt>
      <trkpt lat="42.98581" lon="0.5385">
        <ele>1319.026</ele>
        <time>2021-02-27T12:59:28Z</time>
      </trkpt>
      <trkpt lat="42.9858" lon="0.53853">
        <ele>1318.193</ele>
        <time>2021-02-27T12:59:30Z</time>
      </trkpt>
      <trkpt lat="42.98579" lon="0.53856">
        <ele>1318.914</ele>
        <time>2021-02-27T12:59:32Z</time>
      </trkpt>
      <trkpt lat="42.98578" lon="0.5386">
        <ele>1317.833</ele>
        <time>2021-02-27T12:59:34Z</time>
      </trkpt>
      <trkpt lat="42.98577" lon="0.53863">
        <ele>1317.106</ele>
        <time>2021-02-27T12:59:36Z</time>
      </trkpt>
      <trkpt lat="42.98577" lon="0.53866">
        <ele>1316.645</ele>
        <time>2021-02-27T12:59:38Z</time>
      </trkpt>
      <trkpt lat="42.98576" lon="0.5387">
        <ele>1316.727</ele>
        <time>2021-02-27T12:59:40Z</time>
      </trkpt>
      <trkpt lat="42.98575" lon="0.53873">
        <ele>1317.09</ele>
        <time>2021-02-27T12:59:42Z</time>
      </trkpt>
      <trkpt lat="42.98574" lon="0.53877">
        <ele>1317.151</ele>
        <time>2021-02-27T12:59:44Z</time>
      </trkpt>
      <trkpt lat="42.98573" lon="0.5388">
        <ele>1316.356</ele>
        <time>2021-02-27T12:59:46Z</time>
      </trkpt>
      <trkpt lat="42.98571" lon="0.53883">
        <ele>1315.83</ele>
        <time>2021-02-27T12:59:48Z</time>
      </trkpt>
      <trkpt lat="42.9857" lon="0.53886">
        <ele>1314.909</ele>
        <time>2021-02-27T12:59:50Z</time>
      </trkpt>
      <trkpt lat="42.98569" lon="0.53889">
        <ele>1314.07</ele>
        <time>2021-02-27T12:59:52Z</time>
      </trkpt>
      <trkpt lat="42.98569" lon="0.53892">
        <ele>1313.334</ele>
        <time>2021-02-27T12:59:54Z</time>
      </trkpt>
      <trkpt lat="42.98567" lon="0.53895">
        <ele>1312.129</ele>
        <time>2021-02-27T12:59:56Z</time>
      </trkpt>
      <trkpt lat="42.98567" lon="0.53899">
        <ele>1312.416</ele>
        <time>2021-02-27T12:59:58Z</time>
      </trkpt>
      <trkpt lat="42.98566" lon="0.53902">
        <ele>1312.075</ele>
        <time>2021-02-27T13:00:00Z</time>
      </trkpt>
      <trkpt lat="42.98565" lon="0.53905">
        <ele>1311.283</ele>
        <time>2021-02-27T13:00:02Z</time>
      </trkpt>
      <trkpt lat="42.98564" lon="0.53908">
        <ele>1311.3</ele>
        <time>2021-02-27T13:00:04Z</time>
      </trkpt>
      <trkpt lat="42.98563" lon="0.53911">
        <ele>1310.716</ele>
        <time>2021-02-27T13:00:06Z</time>
      </trkpt>
      <trkpt lat="42.98562" lon="0.53915">
        <ele>1310.955</ele>
        <time>2021-02-27T13:00:08Z</time>
      </trkpt>
      <trkpt lat="42.98561" lon="0.53918">
        <ele>1310.369</ele>
        <time>2021-02-27T13:00:10Z</time>
      </trkpt>
      <trkpt lat="42.9856" lon="0.53922">
        <ele>1309.904</ele>
        <time>2021-02-27T13:00:12Z</time>
      </trkpt>
      <trkpt lat="42.98559" lon="0.53924">
        <ele>1308.79</ele>
        <time>2021-02-27T13:00:14Z</time>
      </trkpt>
      <trkpt lat="42.98559" lon="0.53928">
        <ele>1308.309</ele>
        <time>2021-02-27T13:00:16Z</time>
      </trkpt>
      <trkpt lat="42.98558" lon="0.53931">
        <ele>1307.733</ele>
        <time>2021-02-27T13:00:18Z</time>
      </trkpt>
      <trkpt lat="42.98557" lon="0.53935">
        <ele>1307.801</ele>
        <time>2021-02-27T13:00:20Z</time>
      </trkpt>
      <trkpt lat="42.98557" lon="0.5394">
        <ele>1307.911</ele>
        <time>2021-02-27T13:00:23Z</time>
      </trkpt>
      <trkpt lat="42.98556" lon="0.53944">
        <ele>1307.288</ele>
        <time>2021-02-27T13:00:25Z</time>
      </trkpt>
      <trkpt lat="42.98555" lon="0.53947">
        <ele>1306.646</ele>
        <time>2021-02-27T13:00:27Z</time>
      </trkpt>
      <trkpt lat="42.98555" lon="0.5395">
        <ele>1306.397</ele>
        <time>2021-02-27T13:00:29Z</time>
      </trkpt>
      <trkpt lat="42.98554" lon="0.53954">
        <ele>1306.86</ele>
        <time>2021-02-27T13:00:31Z</time>
      </trkpt>
      <trkpt lat="42.98554" lon="0.53957">
        <ele>1306.273</ele>
        <time>2021-02-27T13:00:33Z</time>
      </trkpt>
      <trkpt lat="42.98553" lon="0.5396">
        <ele>1306.386</ele>
        <time>2021-02-27T13:00:35Z</time>
      </trkpt>
      <trkpt lat="42.98552" lon="0.53963">
        <ele>1305.481</ele>
        <time>2021-02-27T13:00:37Z</time>
      </trkpt>
      <trkpt lat="42.98552" lon="0.53967">
        <ele>1305.152</ele>
        <time>2021-02-27T13:00:39Z</time>
      </trkpt>
      <trkpt lat="42.98551" lon="0.5397">
        <ele>1305.324</ele>
        <time>2021-02-27T13:00:41Z</time>
      </trkpt>
      <trkpt lat="42.98551" lon="0.53974">
        <ele>1305.414</ele>
        <time>2021-02-27T13:00:43Z</time>
      </trkpt>
      <trkpt lat="42.9855" lon="0.53977">
        <ele>1304.45</ele>
        <time>2021-02-27T13:00:45Z</time>
      </trkpt>
      <trkpt lat="42.9855" lon="0.5398">
        <ele>1304.226</ele>
        <time>2021-02-27T13:00:47Z</time>
      </trkpt>
      <trkpt lat="42.98549" lon="0.53984">
        <ele>1304.343</ele>
        <time>2021-02-27T13:00:49Z</time>
      </trkpt>
      <trkpt lat="42.98548" lon="0.53987">
        <ele>1303.797</ele>
        <time>2021-02-27T13:00:51Z</time>
      </trkpt>
      <trkpt lat="42.98548" lon="0.5399">
        <ele>1303.314</ele>
        <time>2021-02-27T13:00:53Z</time>
      </trkpt>
      <trkpt lat="42.98548" lon="0.53994">
        <ele>1302.682</ele>
        <time>2021-02-27T13:00:55Z</time>
      </trkpt>
      <trkpt lat="42.98547" lon="0.53998">
        <ele>1302.226</ele>
        <time>2021-02-27T13:00:57Z</time>
      </trkpt>
      <trkpt lat="42.98547" lon="0.54001">
        <ele>1301.752</ele>
        <time>2021-02-27T13:00:59Z</time>
      </trkpt>
      <trkpt lat="42.98546" lon="0.54004">
        <ele>1301.162</ele>
        <time>2021-02-27T13:01:01Z</time>
      </trkpt>
      <trkpt lat="42.98546" lon="0.54008">
        <ele>1300.49</ele>
        <time>2021-02-27T13:01:03Z</time>
      </trkpt>
      <trkpt lat="42.98545" lon="0.54011">
        <ele>1300.81</ele>
        <time>2021-02-27T13:01:05Z</time>
      </trkpt>
      <trkpt lat="42.98545" lon="0.54014">
        <ele>1300.643</ele>
        <time>2021-02-27T13:01:07Z</time>
      </trkpt>
      <trkpt lat="42.98544" lon="0.54018">
        <ele>1300.219</ele>
        <time>2021-02-27T13:01:09Z</time>
      </trkpt>
      <trkpt lat="42.98543" lon="0.54021">
        <ele>1299.196</ele>
        <time>2021-02-27T13:01:11Z</time>
      </trkpt>
      <trkpt lat="42.98542" lon="0.54024">
        <ele>1298.661</ele>
        <time>2021-02-27T13:01:13Z</time>
      </trkpt>
      <trkpt lat="42.98542" lon="0.54027">
        <ele>1298.083</ele>
        <time>2021-02-27T13:01:15Z</time>
      </trkpt>
      <trkpt lat="42.98541" lon="0.54031">
        <ele>1297.737</ele>
        <time>2021-02-27T13:01:17Z</time>
      </trkpt>
      <trkpt lat="42.9854" lon="0.54034">
        <ele>1298.319</ele>
        <time>2021-02-27T13:01:19Z</time>
      </trkpt>
      <trkpt lat="42.98539" lon="0.54037">
        <ele>1297.776</ele>
        <time>2021-02-27T13:01:21Z</time>
      </trkpt>
      <trkpt lat="42.98538" lon="0.5404">
        <ele>1296.81</ele>
        <time>2021-02-27T13:01:23Z</time>
      </trkpt>
      <trkpt lat="42.98537" lon="0.54043">
        <ele>1295.67</ele>
        <time>2021-02-27T13:01:25Z</time>
      </trkpt>
      <trkpt lat="42.98536" lon="0.54046">
        <ele>1295.151</ele>
        <time>2021-02-27T13:01:27Z</time>
      </trkpt>
      <trkpt lat="42.98534" lon="0.54048">
        <ele>1295.075</ele>
        <time>2021-02-27T13:01:29Z</time>
      </trkpt>
      <trkpt lat="42.98533" lon="0.54054">
        <ele>1294.083</ele>
        <time>2021-02-27T13:01:32Z</time>
      </trkpt>
      <trkpt lat="42.98531" lon="0.54057">
        <ele>1293.463</ele>
        <time>2021-02-27T13:01:34Z</time>
      </trkpt>
      <trkpt lat="42.9853" lon="0.5406">
        <ele>1292.744</ele>
        <time>2021-02-27T13:01:36Z</time>
      </trkpt>
      <trkpt lat="42.98528" lon="0.54062">
        <ele>1291.583</ele>
        <time>2021-02-27T13:01:38Z</time>
      </trkpt>
      <trkpt lat="42.98527" lon="0.54065">
        <ele>1291.113</ele>
        <time>2021-02-27T13:01:40Z</time>
      </trkpt>
      <trkpt lat="42.98526" lon="0.54068">
        <ele>1291.051</ele>
        <time>2021-02-27T13:01:42Z</time>
      </trkpt>
      <trkpt lat="42.98524" lon="0.54071">
        <ele>1290.119</ele>
        <time>2021-02-27T13:01:44Z</time>
      </trkpt>
      <trkpt lat="42.98523" lon="0.54074">
        <ele>1289.473</ele>
        <time>2021-02-27T13:01:46Z</time>
      </trkpt>
      <trkpt lat="42.98521" lon="0.54077">
        <ele>1288.992</ele>
        <time>2021-02-27T13:01:48Z</time>
      </trkpt>
      <trkpt lat="42.9852" lon="0.5408">
        <ele>1289.444</ele>
        <time>2021-02-27T13:01:50Z</time>
      </trkpt>
      <trkpt lat="42.98518" lon="0.54083">
        <ele>1288.919</ele>
        <time>2021-02-27T13:01:52Z</time>
      </trkpt>
      <trkpt lat="42.98517" lon="0.54086">
        <ele>1288.396</ele>
        <time>2021-02-27T13:01:54Z</time>
      </trkpt>
      <trkpt lat="42.98516" lon="0.54089">
        <ele>1287.284</ele>
        <time>2021-02-27T13:01:56Z</time>
      </trkpt>
      <trkpt lat="42.98514" lon="0.54092">
        <ele>1286.499</ele>
        <time>2021-02-27T13:01:58Z</time>
      </trkpt>
      <trkpt lat="42.98513" lon="0.54096">
        <ele>1286.14</ele>
        <time>2021-02-27T13:02:00Z</time>
      </trkpt>
      <trkpt lat="42.98511" lon="0.54099">
        <ele>1286.084</ele>
        <time>2021-02-27T13:02:02Z</time>
      </trkpt>
      <trkpt lat="42.9851" lon="0.54102">
        <ele>1286.151</ele>
        <time>2021-02-27T13:02:04Z</time>
      </trkpt>
      <trkpt lat="42.98509" lon="0.54105">
        <ele>1286.126</ele>
        <time>2021-02-27T13:02:06Z</time>
      </trkpt>
      <trkpt lat="42.98507" lon="0.54108">
        <ele>1286.093</ele>
        <time>2021-02-27T13:02:08Z</time>
      </trkpt>
      <trkpt lat="42.98506" lon="0.54111">
        <ele>1285.065</ele>
        <time>2021-02-27T13:02:10Z</time>
      </trkpt>
      <trkpt lat="42.98505" lon="0.54114">
        <ele>1284.984</ele>
        <time>2021-02-27T13:02:12Z</time>
      </trkpt>
      <trkpt lat="42.98504" lon="0.54118">
        <ele>1284.187</ele>
        <time>2021-02-27T13:02:14Z</time>
      </trkpt>
      <trkpt lat="42.98503" lon="0.54122">
        <ele>1284.53</ele>
        <time>2021-02-27T13:02:16Z</time>
      </trkpt>
      <trkpt lat="42.98503" lon="0.54125">
        <ele>1284.752</ele>
        <time>2021-02-27T13:02:18Z</time>
      </trkpt>
      <trkpt lat="42.98505" lon="0.54129">
        <ele>1285.703</ele>
        <time>2021-02-27T13:02:20Z</time>
      </trkpt>
      <trkpt lat="42.98507" lon="0.54131">
        <ele>1288.033</ele>
        <time>2021-02-27T13:02:22Z</time>
      </trkpt>
      <trkpt lat="42.98509" lon="0.54132">
        <ele>1289.271</ele>
        <time>2021-02-27T13:02:24Z</time>
      </trkpt>
      <trkpt lat="42.9851" lon="0.54133">
        <ele>1290.073</ele>
        <time>2021-02-27T13:02:26Z</time>
      </trkpt>
      <trkpt lat="42.9851" lon="0.54133">
        <ele>1290.068</ele>
        <time>2021-02-27T13:02:28Z</time>
      </trkpt>
      <trkpt lat="42.9851" lon="0.54132">
        <ele>1290.078</ele>
        <time>2021-02-27T13:02:30Z</time>
      </trkpt>
      <trkpt lat="42.9851" lon="0.54132">
        <ele>1290.073</ele>
        <time>2021-02-27T13:02:32Z</time>
      </trkpt>
      <trkpt lat="42.9851" lon="0.54132">
        <ele>1290.067</ele>
        <time>2021-02-27T13:02:34Z</time>
      </trkpt>
      <trkpt lat="42.9851" lon="0.54132">
        <ele>1290.058</ele>
        <time>2021-02-27T13:02:36Z</time>
      </trkpt>
      <trkpt lat="42.9851" lon="0.54131">
        <ele>1289.221</ele>
        <time>2021-02-27T13:02:38Z</time>
      </trkpt>
      <trkpt lat="42.98511" lon="0.54129">
        <ele>1287.661</ele>
        <time>2021-02-27T13:02:40Z</time>
      </trkpt>
      <trkpt lat="42.98511" lon="0.54125">
        <ele>1285.872</ele>
        <time>2021-02-27T13:02:42Z</time>
      </trkpt>
      <trkpt lat="42.9851" lon="0.54125">
        <ele>1286.011</ele>
        <time>2021-02-27T13:02:44Z</time>
      </trkpt>
      <trkpt lat="42.9851" lon="0.54125">
        <ele>1286.083</ele>
        <time>2021-02-27T13:02:46Z</time>
      </trkpt>
      <trkpt lat="42.9851" lon="0.54125">
        <ele>1286.084</ele>
        <time>2021-02-27T13:02:48Z</time>
      </trkpt>
      <trkpt lat="42.9851" lon="0.54125">
        <ele>1285.867</ele>
        <time>2021-02-27T13:02:50Z</time>
      </trkpt>
      <trkpt lat="42.9851" lon="0.54126">
        <ele>1286.307</ele>
        <time>2021-02-27T13:02:52Z</time>
      </trkpt>
      <trkpt lat="42.9851" lon="0.54126">
        <ele>1286.297</ele>
        <time>2021-02-27T13:02:54Z</time>
      </trkpt>
      <trkpt lat="42.9851" lon="0.54126">
        <ele>1286.648</ele>
        <time>2021-02-27T13:02:56Z</time>
      </trkpt>
      <trkpt lat="42.9851" lon="0.54126">
        <ele>1286.666</ele>
        <time>2021-02-27T13:02:58Z</time>
      </trkpt>
      <trkpt lat="42.9851" lon="0.54126">
        <ele>1286.707</ele>
        <time>2021-02-27T13:03:00Z</time>
      </trkpt>
      <trkpt lat="42.9851" lon="0.54126">
        <ele>1287.294</ele>
        <time>2021-02-27T13:03:02Z</time>
      </trkpt>
      <trkpt lat="42.9851" lon="0.54126">
        <ele>1287.329</ele>
        <time>2021-02-27T13:03:04Z</time>
      </trkpt>
      <trkpt lat="42.98511" lon="0.54126">
        <ele>1287.515</ele>
        <time>2021-02-27T13:03:06Z</time>
      </trkpt>
      <trkpt lat="42.98512" lon="0.54125">
        <ele>1287.42</ele>
        <time>2021-02-27T13:03:08Z</time>
      </trkpt>
      <trkpt lat="42.98513" lon="0.54124">
        <ele>1287.696</ele>
        <time>2021-02-27T13:03:10Z</time>
      </trkpt>
      <trkpt lat="42.98514" lon="0.54123">
        <ele>1287.701</ele>
        <time>2021-02-27T13:03:12Z</time>
      </trkpt>
      <trkpt lat="42.98515" lon="0.54121">
        <ele>1288.466</ele>
        <time>2021-02-27T13:03:14Z</time>
      </trkpt>
      <trkpt lat="42.98517" lon="0.5412">
        <ele>1289.311</ele>
        <time>2021-02-27T13:03:16Z</time>
      </trkpt>
      <trkpt lat="42.98519" lon="0.5412">
        <ele>1289.965</ele>
        <time>2021-02-27T13:03:18Z</time>
      </trkpt>
      <trkpt lat="42.98521" lon="0.54119">
        <ele>1289.985</ele>
        <time>2021-02-27T13:03:20Z</time>
      </trkpt>
      <trkpt lat="42.98524" lon="0.54118">
        <ele>1289.931</ele>
        <time>2021-02-27T13:03:22Z</time>
      </trkpt>
      <trkpt lat="42.98526" lon="0.54117">
        <ele>1289.66</ele>
        <time>2021-02-27T13:03:24Z</time>
      </trkpt>
      <trkpt lat="42.98528" lon="0.54115">
        <ele>1289.973</ele>
        <time>2021-02-27T13:03:26Z</time>
      </trkpt>
      <trkpt lat="42.98531" lon="0.54114">
        <ele>1290.068</ele>
        <time>2021-02-27T13:03:28Z</time>
      </trkpt>
      <trkpt lat="42.98532" lon="0.54114">
        <ele>1289.666</ele>
        <time>2021-02-27T13:03:30Z</time>
      </trkpt>
      <trkpt lat="42.98534" lon="0.54112">
        <ele>1289.059</ele>
        <time>2021-02-27T13:03:32Z</time>
      </trkpt>
      <trkpt lat="42.98536" lon="0.54111">
        <ele>1288.573</ele>
        <time>2021-02-27T13:03:34Z</time>
      </trkpt>
      <trkpt lat="42.98539" lon="0.5411">
        <ele>1288.104</ele>
        <time>2021-02-27T13:03:36Z</time>
      </trkpt>
      <trkpt lat="42.98541" lon="0.54108">
        <ele>1288.147</ele>
        <time>2021-02-27T13:03:38Z</time>
      </trkpt>
      <trkpt lat="42.98542" lon="0.54107">
        <ele>1287.593</ele>
        <time>2021-02-27T13:03:40Z</time>
      </trkpt>
      <trkpt lat="42.98544" lon="0.54106">
        <ele>1288.498</ele>
        <time>2021-02-27T13:03:42Z</time>
      </trkpt>
      <trkpt lat="42.98546" lon="0.54105">
        <ele>1288.712</ele>
        <time>2021-02-27T13:03:44Z</time>
      </trkpt>
      <trkpt lat="42.98547" lon="0.54104">
        <ele>1287.994</ele>
        <time>2021-02-27T13:03:46Z</time>
      </trkpt>
      <trkpt lat="42.98549" lon="0.54103">
        <ele>1287.875</ele>
        <time>2021-02-27T13:03:48Z</time>
      </trkpt>
      <trkpt lat="42.98551" lon="0.54102">
        <ele>1288.201</ele>
        <time>2021-02-27T13:03:50Z</time>
      </trkpt>
      <trkpt lat="42.98553" lon="0.54101">
        <ele>1288.071</ele>
        <time>2021-02-27T13:03:52Z</time>
      </trkpt>
      <trkpt lat="42.98554" lon="0.541">
        <ele>1287.27</ele>
        <time>2021-02-27T13:03:54Z</time>
      </trkpt>
      <trkpt lat="42.98555" lon="0.54098">
        <ele>1287.347</ele>
        <time>2021-02-27T13:03:56Z</time>
      </trkpt>
      <trkpt lat="42.98557" lon="0.54096">
        <ele>1286.884</ele>
        <time>2021-02-27T13:03:58Z</time>
      </trkpt>
      <trkpt lat="42.98559" lon="0.54094">
        <ele>1286.793</ele>
        <time>2021-02-27T13:04:00Z</time>
      </trkpt>
      <trkpt lat="42.98561" lon="0.54093">
        <ele>1286.876</ele>
        <time>2021-02-27T13:04:02Z</time>
      </trkpt>
      <trkpt lat="42.98563" lon="0.54091">
        <ele>1286.34</ele>
        <time>2021-02-27T13:04:04Z</time>
      </trkpt>
      <trkpt lat="42.98565" lon="0.54089">
        <ele>1286.597</ele>
        <time>2021-02-27T13:04:06Z</time>
      </trkpt>
      <trkpt lat="42.98566" lon="0.54088">
        <ele>1285.894</ele>
        <time>2021-02-27T13:04:08Z</time>
      </trkpt>
      <trkpt lat="42.98569" lon="0.54086">
        <ele>1285.427</ele>
        <time>2021-02-27T13:04:10Z</time>
      </trkpt>
      <trkpt lat="42.9857" lon="0.54085">
        <ele>1284.77</ele>
        <time>2021-02-27T13:04:12Z</time>
      </trkpt>
      <trkpt lat="42.98572" lon="0.54083">
        <ele>1284.497</ele>
        <time>2021-02-27T13:04:14Z</time>
      </trkpt>
      <trkpt lat="42.98574" lon="0.54082">
        <ele>1284.205</ele>
        <time>2021-02-27T13:04:16Z</time>
      </trkpt>
      <trkpt lat="42.98576" lon="0.5408">
        <ele>1284.11</ele>
        <time>2021-02-27T13:04:18Z</time>
      </trkpt>
      <trkpt lat="42.98577" lon="0.54078">
        <ele>1283.954</ele>
        <time>2021-02-27T13:04:20Z</time>
      </trkpt>
      <trkpt lat="42.98579" lon="0.54077">
        <ele>1283.017</ele>
        <time>2021-02-27T13:04:22Z</time>
      </trkpt>
      <trkpt lat="42.98581" lon="0.54077">
        <ele>1281.739</ele>
        <time>2021-02-27T13:04:24Z</time>
      </trkpt>
      <trkpt lat="42.98583" lon="0.54076">
        <ele>1280.679</ele>
        <time>2021-02-27T13:04:26Z</time>
      </trkpt>
      <trkpt lat="42.98585" lon="0.54074">
        <ele>1280.574</ele>
        <time>2021-02-27T13:04:28Z</time>
      </trkpt>
      <trkpt lat="42.98587" lon="0.54073">
        <ele>1279.582</ele>
        <time>2021-02-27T13:04:30Z</time>
      </trkpt>
      <trkpt lat="42.98589" lon="0.54071">
        <ele>1280.083</ele>
        <time>2021-02-27T13:04:32Z</time>
      </trkpt>
      <trkpt lat="42.98591" lon="0.5407">
        <ele>1278.773</ele>
        <time>2021-02-27T13:04:34Z</time>
      </trkpt>
      <trkpt lat="42.98592" lon="0.54068">
        <ele>1278.44</ele>
        <time>2021-02-27T13:04:36Z</time>
      </trkpt>
      <trkpt lat="42.98592" lon="0.54067">
        <ele>1277.167</ele>
        <time>2021-02-27T13:04:38Z</time>
      </trkpt>
      <trkpt lat="42.98593" lon="0.54064">
        <ele>1276.216</ele>
        <time>2021-02-27T13:04:40Z</time>
      </trkpt>
      <trkpt lat="42.98595" lon="0.54062">
        <ele>1275.847</ele>
        <time>2021-02-27T13:04:42Z</time>
      </trkpt>
      <trkpt lat="42.98598" lon="0.5406">
        <ele>1276.993</ele>
        <time>2021-02-27T13:04:44Z</time>
      </trkpt>
      <trkpt lat="42.98599" lon="0.54058">
        <ele>1275.273</ele>
        <time>2021-02-27T13:04:46Z</time>
      </trkpt>
      <trkpt lat="42.98601" lon="0.54056">
        <ele>1275.005</ele>
        <time>2021-02-27T13:04:48Z</time>
      </trkpt>
      <trkpt lat="42.98604" lon="0.54055">
        <ele>1274.401</ele>
        <time>2021-02-27T13:04:50Z</time>
      </trkpt>
      <trkpt lat="42.98606" lon="0.54055">
        <ele>1274.164</ele>
        <time>2021-02-27T13:04:52Z</time>
      </trkpt>
      <trkpt lat="42.98607" lon="0.54056">
        <ele>1273.558</ele>
        <time>2021-02-27T13:04:54Z</time>
      </trkpt>
      <trkpt lat="42.98609" lon="0.54058">
        <ele>1272.825</ele>
        <time>2021-02-27T13:04:56Z</time>
      </trkpt>
      <trkpt lat="42.9861" lon="0.5406">
        <ele>1271.567</ele>
        <time>2021-02-27T13:04:58Z</time>
      </trkpt>
      <trkpt lat="42.98611" lon="0.54063">
        <ele>1271.032</ele>
        <time>2021-02-27T13:05:00Z</time>
      </trkpt>
      <trkpt lat="42.98611" lon="0.54066">
        <ele>1271.122</ele>
        <time>2021-02-27T13:05:02Z</time>
      </trkpt>
      <trkpt lat="42.9861" lon="0.54069">
        <ele>1270.761</ele>
        <time>2021-02-27T13:05:04Z</time>
      </trkpt>
      <trkpt lat="42.98609" lon="0.54072">
        <ele>1270.352</ele>
        <time>2021-02-27T13:05:06Z</time>
      </trkpt>
      <trkpt lat="42.98608" lon="0.54075">
        <ele>1270.326</ele>
        <time>2021-02-27T13:05:08Z</time>
      </trkpt>
      <trkpt lat="42.98606" lon="0.54077">
        <ele>1269.675</ele>
        <time>2021-02-27T13:05:10Z</time>
      </trkpt>
      <trkpt lat="42.98604" lon="0.54079">
        <ele>1267.416</ele>
        <time>2021-02-27T13:05:12Z</time>
      </trkpt>
      <trkpt lat="42.98603" lon="0.54081">
        <ele>1266.234</ele>
        <time>2021-02-27T13:05:14Z</time>
      </trkpt>
      <trkpt lat="42.98602" lon="0.54084">
        <ele>1265.84</ele>
        <time>2021-02-27T13:05:16Z</time>
      </trkpt>
      <trkpt lat="42.98601" lon="0.54086">
        <ele>1264.149</ele>
        <time>2021-02-27T13:05:18Z</time>
      </trkpt>
      <trkpt lat="42.986" lon="0.54089">
        <ele>1263.155</ele>
        <time>2021-02-27T13:05:20Z</time>
      </trkpt>
      <trkpt lat="42.986" lon="0.54092">
        <ele>1262.456</ele>
        <time>2021-02-27T13:05:22Z</time>
      </trkpt>
      <trkpt lat="42.98599" lon="0.54094">
        <ele>1261.996</ele>
        <time>2021-02-27T13:05:24Z</time>
      </trkpt>
      <trkpt lat="42.98599" lon="0.54097">
        <ele>1261.243</ele>
        <time>2021-02-27T13:05:26Z</time>
      </trkpt>
      <trkpt lat="42.98598" lon="0.541">
        <ele>1261.415</ele>
        <time>2021-02-27T13:05:28Z</time>
      </trkpt>
      <trkpt lat="42.98598" lon="0.54103">
        <ele>1261.119</ele>
        <time>2021-02-27T13:05:30Z</time>
      </trkpt>
      <trkpt lat="42.98597" lon="0.54105">
        <ele>1261.105</ele>
        <time>2021-02-27T13:05:32Z</time>
      </trkpt>
      <trkpt lat="42.98596" lon="0.54108">
        <ele>1259.851</ele>
        <time>2021-02-27T13:05:34Z</time>
      </trkpt>
      <trkpt lat="42.98596" lon="0.54111">
        <ele>1259.642</ele>
        <time>2021-02-27T13:05:36Z</time>
      </trkpt>
      <trkpt lat="42.98595" lon="0.54114">
        <ele>1260.146</ele>
        <time>2021-02-27T13:05:38Z</time>
      </trkpt>
      <trkpt lat="42.98595" lon="0.54117">
        <ele>1259.44</ele>
        <time>2021-02-27T13:05:40Z</time>
      </trkpt>
      <trkpt lat="42.98594" lon="0.5412">
        <ele>1260.615</ele>
        <time>2021-02-27T13:05:42Z</time>
      </trkpt>
      <trkpt lat="42.98594" lon="0.54123">
        <ele>1259.641</ele>
        <time>2021-02-27T13:05:44Z</time>
      </trkpt>
      <trkpt lat="42.98594" lon="0.54125">
        <ele>1259.815</ele>
        <time>2021-02-27T13:05:46Z</time>
      </trkpt>
      <trkpt lat="42.98593" lon="0.54128">
        <ele>1259.302</ele>
        <time>2021-02-27T13:05:48Z</time>
      </trkpt>
      <trkpt lat="42.98592" lon="0.5413">
        <ele>1259.168</ele>
        <time>2021-02-27T13:05:50Z</time>
      </trkpt>
      <trkpt lat="42.98591" lon="0.54133">
        <ele>1258.705</ele>
        <time>2021-02-27T13:05:52Z</time>
      </trkpt>
      <trkpt lat="42.98591" lon="0.54135">
        <ele>1257.982</ele>
        <time>2021-02-27T13:05:54Z</time>
      </trkpt>
      <trkpt lat="42.9859" lon="0.54138">
        <ele>1257.508</ele>
        <time>2021-02-27T13:05:56Z</time>
      </trkpt>
      <trkpt lat="42.9859" lon="0.54141">
        <ele>1256.793</ele>
        <time>2021-02-27T13:05:58Z</time>
      </trkpt>
      <trkpt lat="42.98589" lon="0.54144">
        <ele>1256.989</ele>
        <time>2021-02-27T13:06:00Z</time>
      </trkpt>
      <trkpt lat="42.98589" lon="0.54146">
        <ele>1255.967</ele>
        <time>2021-02-27T13:06:02Z</time>
      </trkpt>
      <trkpt lat="42.98588" lon="0.54149">
        <ele>1255.505</ele>
        <time>2021-02-27T13:06:04Z</time>
      </trkpt>
      <trkpt lat="42.98587" lon="0.54151">
        <ele>1254.637</ele>
        <time>2021-02-27T13:06:06Z</time>
      </trkpt>
      <trkpt lat="42.98587" lon="0.54154">
        <ele>1254.585</ele>
        <time>2021-02-27T13:06:08Z</time>
      </trkpt>
      <trkpt lat="42.98587" lon="0.54157">
        <ele>1254.113</ele>
        <time>2021-02-27T13:06:10Z</time>
      </trkpt>
      <trkpt lat="42.98586" lon="0.5416">
        <ele>1253.952</ele>
        <time>2021-02-27T13:06:12Z</time>
      </trkpt>
      <trkpt lat="42.98586" lon="0.54162">
        <ele>1253.41</ele>
        <time>2021-02-27T13:06:14Z</time>
      </trkpt>
      <trkpt lat="42.98585" lon="0.54165">
        <ele>1252.699</ele>
        <time>2021-02-27T13:06:16Z</time>
      </trkpt>
      <trkpt lat="42.98585" lon="0.54168">
        <ele>1253.081</ele>
        <time>2021-02-27T13:06:18Z</time>
      </trkpt>
      <trkpt lat="42.98584" lon="0.54171">
        <ele>1252.859</ele>
        <time>2021-02-27T13:06:20Z</time>
      </trkpt>
      <trkpt lat="42.98584" lon="0.54173">
        <ele>1252.114</ele>
        <time>2021-02-27T13:06:22Z</time>
      </trkpt>
      <trkpt lat="42.98583" lon="0.54176">
        <ele>1251.454</ele>
        <time>2021-02-27T13:06:24Z</time>
      </trkpt>
      <trkpt lat="42.98583" lon="0.54179">
        <ele>1250.376</ele>
        <time>2021-02-27T13:06:26Z</time>
      </trkpt>
      <trkpt lat="42.98582" lon="0.54182">
        <ele>1248.538</ele>
        <time>2021-02-27T13:06:28Z</time>
      </trkpt>
      <trkpt lat="42.98581" lon="0.54184">
        <ele>1247.988</ele>
        <time>2021-02-27T13:06:30Z</time>
      </trkpt>
      <trkpt lat="42.98581" lon="0.54187">
        <ele>1247.747</ele>
        <time>2021-02-27T13:06:32Z</time>
      </trkpt>
      <trkpt lat="42.98579" lon="0.54189">
        <ele>1246.206</ele>
        <time>2021-02-27T13:06:34Z</time>
      </trkpt>
      <trkpt lat="42.9858" lon="0.54189">
        <ele>1245.933</ele>
        <time>2021-02-27T13:06:36Z</time>
      </trkpt>
      <trkpt lat="42.98581" lon="0.54189">
        <ele>1245.341</ele>
        <time>2021-02-27T13:06:38Z</time>
      </trkpt>
      <trkpt lat="42.98581" lon="0.54189">
        <ele>1245.174</ele>
        <time>2021-02-27T13:06:40Z</time>
      </trkpt>
      <trkpt lat="42.98581" lon="0.5419">
        <ele>1245.134</ele>
        <time>2021-02-27T13:06:42Z</time>
      </trkpt>
      <trkpt lat="42.98581" lon="0.54192">
        <ele>1244.833</ele>
        <time>2021-02-27T13:06:44Z</time>
      </trkpt>
      <trkpt lat="42.98579" lon="0.54193">
        <ele>1244.326</ele>
        <time>2021-02-27T13:06:46Z</time>
      </trkpt>
      <trkpt lat="42.98578" lon="0.54195">
        <ele>1244.641</ele>
        <time>2021-02-27T13:06:48Z</time>
      </trkpt>
      <trkpt lat="42.98578" lon="0.54198">
        <ele>1244.071</ele>
        <time>2021-02-27T13:06:50Z</time>
      </trkpt>
      <trkpt lat="42.98578" lon="0.54202">
        <ele>1244.032</ele>
        <time>2021-02-27T13:06:52Z</time>
      </trkpt>
      <trkpt lat="42.98579" lon="0.54204">
        <ele>1244.388</ele>
        <time>2021-02-27T13:06:54Z</time>
      </trkpt>
      <trkpt lat="42.9858" lon="0.54204">
        <ele>1243.822</ele>
        <time>2021-02-27T13:06:56Z</time>
      </trkpt>
      <trkpt lat="42.9858" lon="0.54204">
        <ele>1243.806</ele>
        <time>2021-02-27T13:06:58Z</time>
      </trkpt>
      <trkpt lat="42.9858" lon="0.54204">
        <ele>1243.806</ele>
        <time>2021-02-27T13:07:00Z</time>
      </trkpt>
      <trkpt lat="42.9858" lon="0.54204">
        <ele>1243.807</ele>
        <time>2021-02-27T13:07:02Z</time>
      </trkpt>
      <trkpt lat="42.9858" lon="0.54204">
        <ele>1243.81</ele>
        <time>2021-02-27T13:07:04Z</time>
      </trkpt>
      <trkpt lat="42.9858" lon="0.54206">
        <ele>1242.626</ele>
        <time>2021-02-27T13:07:06Z</time>
      </trkpt>
      <trkpt lat="42.9858" lon="0.54209">
        <ele>1243.148</ele>
        <time>2021-02-27T13:07:08Z</time>
      </trkpt>
      <trkpt lat="42.9858" lon="0.54212">
        <ele>1242.271</ele>
        <time>2021-02-27T13:07:10Z</time>
      </trkpt>
      <trkpt lat="42.98579" lon="0.54214">
        <ele>1241.148</ele>
        <time>2021-02-27T13:07:12Z</time>
      </trkpt>
      <trkpt lat="42.98579" lon="0.54217">
        <ele>1240.42</ele>
        <time>2021-02-27T13:07:14Z</time>
      </trkpt>
      <trkpt lat="42.98578" lon="0.5422">
        <ele>1240.29</ele>
        <time>2021-02-27T13:07:16Z</time>
      </trkpt>
      <trkpt lat="42.98577" lon="0.54223">
        <ele>1239.483</ele>
        <time>2021-02-27T13:07:18Z</time>
      </trkpt>
      <trkpt lat="42.98576" lon="0.54226">
        <ele>1238.634</ele>
        <time>2021-02-27T13:07:20Z</time>
      </trkpt>
      <trkpt lat="42.98575" lon="0.54228">
        <ele>1238.016</ele>
        <time>2021-02-27T13:07:22Z</time>
      </trkpt>
      <trkpt lat="42.98575" lon="0.54229">
        <ele>1236.718</ele>
        <time>2021-02-27T13:07:24Z</time>
      </trkpt>
      <trkpt lat="42.98574" lon="0.54232">
        <ele>1235.983</ele>
        <time>2021-02-27T13:07:26Z</time>
      </trkpt>
      <trkpt lat="42.98573" lon="0.54235">
        <ele>1236.044</ele>
        <time>2021-02-27T13:07:28Z</time>
      </trkpt>
      <trkpt lat="42.98573" lon="0.54238">
        <ele>1234.894</ele>
        <time>2021-02-27T13:07:30Z</time>
      </trkpt>
      <trkpt lat="42.98573" lon="0.54241">
        <ele>1234.518</ele>
        <time>2021-02-27T13:07:32Z</time>
      </trkpt>
      <trkpt lat="42.98573" lon="0.54245">
        <ele>1234.428</ele>
        <time>2021-02-27T13:07:34Z</time>
      </trkpt>
      <trkpt lat="42.98573" lon="0.54249">
        <ele>1235.083</ele>
        <time>2021-02-27T13:07:36Z</time>
      </trkpt>
      <trkpt lat="42.98574" lon="0.54252">
        <ele>1236.098</ele>
        <time>2021-02-27T13:07:38Z</time>
      </trkpt>
      <trkpt lat="42.98576" lon="0.54253">
        <ele>1233.631</ele>
        <time>2021-02-27T13:07:40Z</time>
      </trkpt>
      <trkpt lat="42.98578" lon="0.54254">
        <ele>1234.517</ele>
        <time>2021-02-27T13:07:42Z</time>
      </trkpt>
      <trkpt lat="42.98579" lon="0.54253">
        <ele>1234.075</ele>
        <time>2021-02-27T13:07:44Z</time>
      </trkpt>
      <trkpt lat="42.98581" lon="0.54251">
        <ele>1234.007</ele>
        <time>2021-02-27T13:07:46Z</time>
      </trkpt>
      <trkpt lat="42.98582" lon="0.54249">
        <ele>1233.893</ele>
        <time>2021-02-27T13:07:48Z</time>
      </trkpt>
      <trkpt lat="42.98584" lon="0.54247">
        <ele>1233.362</ele>
        <time>2021-02-27T13:07:50Z</time>
      </trkpt>
      <trkpt lat="42.98585" lon="0.54246">
        <ele>1233.826</ele>
        <time>2021-02-27T13:07:52Z</time>
      </trkpt>
      <trkpt lat="42.98586" lon="0.54245">
        <ele>1231.553</ele>
        <time>2021-02-27T13:07:54Z</time>
      </trkpt>
      <trkpt lat="42.98586" lon="0.54244">
        <ele>1230.812</ele>
        <time>2021-02-27T13:07:56Z</time>
      </trkpt>
      <trkpt lat="42.98586" lon="0.54244">
        <ele>1230.804</ele>
        <time>2021-02-27T13:07:58Z</time>
      </trkpt>
      <trkpt lat="42.98586" lon="0.54244">
        <ele>1230.573</ele>
        <time>2021-02-27T13:08:00Z</time>
      </trkpt>
      <trkpt lat="42.98586" lon="0.54244">
        <ele>1230.558</ele>
        <time>2021-02-27T13:08:02Z</time>
      </trkpt>
      <trkpt lat="42.98586" lon="0.54244">
        <ele>1230.569</ele>
        <time>2021-02-27T13:08:04Z</time>
      </trkpt>
      <trkpt lat="42.98586" lon="0.54244">
        <ele>1230.588</ele>
        <time>2021-02-27T13:08:06Z</time>
      </trkpt>
      <trkpt lat="42.98586" lon="0.54244">
        <ele>1230.6</ele>
        <time>2021-02-27T13:08:08Z</time>
      </trkpt>
      <trkpt lat="42.98587" lon="0.54243">
        <ele>1230.753</ele>
        <time>2021-02-27T13:08:10Z</time>
      </trkpt>
      <trkpt lat="42.98589" lon="0.54242">
        <ele>1230.73</ele>
        <time>2021-02-27T13:08:12Z</time>
      </trkpt>
      <trkpt lat="42.9859" lon="0.54241">
        <ele>1230.329</ele>
        <time>2021-02-27T13:08:14Z</time>
      </trkpt>
      <trkpt lat="42.98592" lon="0.5424">
        <ele>1230.788</ele>
        <time>2021-02-27T13:08:16Z</time>
      </trkpt>
      <trkpt lat="42.98593" lon="0.54239">
        <ele>1230.721</ele>
        <time>2021-02-27T13:08:18Z</time>
      </trkpt>
      <trkpt lat="42.98593" lon="0.54239">
        <ele>1230.467</ele>
        <time>2021-02-27T13:08:20Z</time>
      </trkpt>
      <trkpt lat="42.98593" lon="0.54239">
        <ele>1230.481</ele>
        <time>2021-02-27T13:08:22Z</time>
      </trkpt>
      <trkpt lat="42.98593" lon="0.54239">
        <ele>1230.491</ele>
        <time>2021-02-27T13:08:24Z</time>
      </trkpt>
      <trkpt lat="42.98593" lon="0.54239">
        <ele>1230.274</ele>
        <time>2021-02-27T13:08:26Z</time>
      </trkpt>
      <trkpt lat="42.98593" lon="0.54239">
        <ele>1230.263</ele>
        <time>2021-02-27T13:08:28Z</time>
      </trkpt>
      <trkpt lat="42.98594" lon="0.54239">
        <ele>1230.568</ele>
        <time>2021-02-27T13:08:30Z</time>
      </trkpt>
      <trkpt lat="42.98594" lon="0.54238">
        <ele>1230.779</ele>
        <time>2021-02-27T13:08:32Z</time>
      </trkpt>
      <trkpt lat="42.98596" lon="0.54237">
        <ele>1229.851</ele>
        <time>2021-02-27T13:08:34Z</time>
      </trkpt>
      <trkpt lat="42.98598" lon="0.54237">
        <ele>1229.49</ele>
        <time>2021-02-27T13:08:36Z</time>
      </trkpt>
      <trkpt lat="42.98599" lon="0.54236">
        <ele>1229.859</ele>
        <time>2021-02-27T13:08:38Z</time>
      </trkpt>
      <trkpt lat="42.98601" lon="0.54235">
        <ele>1230.73</ele>
        <time>2021-02-27T13:08:40Z</time>
      </trkpt>
      <trkpt lat="42.98601" lon="0.54236">
        <ele>1230.931</ele>
        <time>2021-02-27T13:08:42Z</time>
      </trkpt>
      <trkpt lat="42.98601" lon="0.54235">
        <ele>1230.433</ele>
        <time>2021-02-27T13:08:44Z</time>
      </trkpt>
      <trkpt lat="42.98602" lon="0.54236">
        <ele>1230.206</ele>
        <time>2021-02-27T13:08:46Z</time>
      </trkpt>
      <trkpt lat="42.98603" lon="0.54236">
        <ele>1229.722</ele>
        <time>2021-02-27T13:08:48Z</time>
      </trkpt>
      <trkpt lat="42.98604" lon="0.54236">
        <ele>1228.49</ele>
        <time>2021-02-27T13:08:50Z</time>
      </trkpt>
      <trkpt lat="42.98606" lon="0.54236">
        <ele>1228.031</ele>
        <time>2021-02-27T13:08:52Z</time>
      </trkpt>
      <trkpt lat="42.98607" lon="0.54237">
        <ele>1226.932</ele>
        <time>2021-02-27T13:08:54Z</time>
      </trkpt>
      <trkpt lat="42.98606" lon="0.54239">
        <ele>1225.313</ele>
        <time>2021-02-27T13:08:56Z</time>
      </trkpt>
      <trkpt lat="42.98604" lon="0.54241">
        <ele>1224.098</ele>
        <time>2021-02-27T13:08:58Z</time>
      </trkpt>
      <trkpt lat="42.98603" lon="0.54243">
        <ele>1224.24</ele>
        <time>2021-02-27T13:09:00Z</time>
      </trkpt>
      <trkpt lat="42.98603" lon="0.54246">
        <ele>1223.919</ele>
        <time>2021-02-27T13:09:02Z</time>
      </trkpt>
      <trkpt lat="42.98602" lon="0.54249">
        <ele>1223.824</ele>
        <time>2021-02-27T13:09:04Z</time>
      </trkpt>
      <trkpt lat="42.986" lon="0.54251">
        <ele>1223.635</ele>
        <time>2021-02-27T13:09:06Z</time>
      </trkpt>
      <trkpt lat="42.98599" lon="0.54254">
        <ele>1222.707</ele>
        <time>2021-02-27T13:09:08Z</time>
      </trkpt>
      <trkpt lat="42.98599" lon="0.54257">
        <ele>1222.288</ele>
        <time>2021-02-27T13:09:10Z</time>
      </trkpt>
      <trkpt lat="42.98599" lon="0.5426">
        <ele>1221.627</ele>
        <time>2021-02-27T13:09:12Z</time>
      </trkpt>
      <trkpt lat="42.98598" lon="0.54263">
        <ele>1220.282</ele>
        <time>2021-02-27T13:09:14Z</time>
      </trkpt>
      <trkpt lat="42.98598" lon="0.54266">
        <ele>1221.816</ele>
        <time>2021-02-27T13:09:16Z</time>
      </trkpt>
      <trkpt lat="42.98599" lon="0.5427">
        <ele>1222.572</ele>
        <time>2021-02-27T13:09:18Z</time>
      </trkpt>
      <trkpt lat="42.98599" lon="0.54272">
        <ele>1222.599</ele>
        <time>2021-02-27T13:09:20Z</time>
      </trkpt>
      <trkpt lat="42.98599" lon="0.54275">
        <ele>1221.733</ele>
        <time>2021-02-27T13:09:22Z</time>
      </trkpt>
      <trkpt lat="42.98599" lon="0.54277">
        <ele>1221.406</ele>
        <time>2021-02-27T13:09:24Z</time>
      </trkpt>
      <trkpt lat="42.98599" lon="0.5428">
        <ele>1220.661</ele>
        <time>2021-02-27T13:09:26Z</time>
      </trkpt>
      <trkpt lat="42.98599" lon="0.54283">
        <ele>1221.043</ele>
        <time>2021-02-27T13:09:28Z</time>
      </trkpt>
      <trkpt lat="42.98599" lon="0.54286">
        <ele>1220.397</ele>
        <time>2021-02-27T13:09:30Z</time>
      </trkpt>
      <trkpt lat="42.98599" lon="0.5429">
        <ele>1220.501</ele>
        <time>2021-02-27T13:09:32Z</time>
      </trkpt>
      <trkpt lat="42.98599" lon="0.54293">
        <ele>1219.35</ele>
        <time>2021-02-27T13:09:34Z</time>
      </trkpt>
      <trkpt lat="42.986" lon="0.54298">
        <ele>1219.894</ele>
        <time>2021-02-27T13:09:36Z</time>
      </trkpt>
      <trkpt lat="42.986" lon="0.54301">
        <ele>1217.655</ele>
        <time>2021-02-27T13:09:38Z</time>
      </trkpt>
      <trkpt lat="42.98601" lon="0.54304">
        <ele>1216.845</ele>
        <time>2021-02-27T13:09:40Z</time>
      </trkpt>
      <trkpt lat="42.98601" lon="0.54308">
        <ele>1215.448</ele>
        <time>2021-02-27T13:09:42Z</time>
      </trkpt>
      <trkpt lat="42.98601" lon="0.54312">
        <ele>1214.286</ele>
        <time>2021-02-27T13:09:44Z</time>
      </trkpt>
      <trkpt lat="42.986" lon="0.54315">
        <ele>1213.195</ele>
        <time>2021-02-27T13:09:46Z</time>
      </trkpt>
      <trkpt lat="42.986" lon="0.54319">
        <ele>1212.127</ele>
        <time>2021-02-27T13:09:48Z</time>
      </trkpt>
      <trkpt lat="42.986" lon="0.54323">
        <ele>1211.213</ele>
        <time>2021-02-27T13:09:50Z</time>
      </trkpt>
      <trkpt lat="42.98599" lon="0.54326">
        <ele>1210.245</ele>
        <time>2021-02-27T13:09:52Z</time>
      </trkpt>
      <trkpt lat="42.98599" lon="0.5433">
        <ele>1209.029</ele>
        <time>2021-02-27T13:09:54Z</time>
      </trkpt>
      <trkpt lat="42.98597" lon="0.54332">
        <ele>1207.551</ele>
        <time>2021-02-27T13:09:56Z</time>
      </trkpt>
      <trkpt lat="42.98597" lon="0.54336">
        <ele>1207.2</ele>
        <time>2021-02-27T13:09:58Z</time>
      </trkpt>
      <trkpt lat="42.98596" lon="0.54339">
        <ele>1207.25</ele>
        <time>2021-02-27T13:10:00Z</time>
      </trkpt>
      <trkpt lat="42.98596" lon="0.54344">
        <ele>1206.56</ele>
        <time>2021-02-27T13:10:02Z</time>
      </trkpt>
      <trkpt lat="42.98596" lon="0.5435">
        <ele>1204.633</ele>
        <time>2021-02-27T13:10:05Z</time>
      </trkpt>
      <trkpt lat="42.98595" lon="0.54354">
        <ele>1204.167</ele>
        <time>2021-02-27T13:10:07Z</time>
      </trkpt>
      <trkpt lat="42.98594" lon="0.54358">
        <ele>1203.021</ele>
        <time>2021-02-27T13:10:09Z</time>
      </trkpt>
      <trkpt lat="42.98593" lon="0.54361">
        <ele>1202.737</ele>
        <time>2021-02-27T13:10:11Z</time>
      </trkpt>
      <trkpt lat="42.98592" lon="0.54365">
        <ele>1203.018</ele>
        <time>2021-02-27T13:10:13Z</time>
      </trkpt>
      <trkpt lat="42.98592" lon="0.54369">
        <ele>1203.184</ele>
        <time>2021-02-27T13:10:15Z</time>
      </trkpt>
      <trkpt lat="42.98591" lon="0.54373">
        <ele>1202.208</ele>
        <time>2021-02-27T13:10:17Z</time>
      </trkpt>
      <trkpt lat="42.9859" lon="0.54376">
        <ele>1201.41</ele>
        <time>2021-02-27T13:10:19Z</time>
      </trkpt>
      <trkpt lat="42.98589" lon="0.54379">
        <ele>1201.475</ele>
        <time>2021-02-27T13:10:21Z</time>
      </trkpt>
      <trkpt lat="42.98588" lon="0.54381">
        <ele>1199.609</ele>
        <time>2021-02-27T13:10:23Z</time>
      </trkpt>
      <trkpt lat="42.98586" lon="0.54384">
        <ele>1198.643</ele>
        <time>2021-02-27T13:10:25Z</time>
      </trkpt>
      <trkpt lat="42.98585" lon="0.54387">
        <ele>1198.617</ele>
        <time>2021-02-27T13:10:27Z</time>
      </trkpt>
      <trkpt lat="42.98584" lon="0.5439">
        <ele>1197.9</ele>
        <time>2021-02-27T13:10:29Z</time>
      </trkpt>
      <trkpt lat="42.98582" lon="0.54393">
        <ele>1197.13</ele>
        <time>2021-02-27T13:10:31Z</time>
      </trkpt>
      <trkpt lat="42.98581" lon="0.54396">
        <ele>1197.009</ele>
        <time>2021-02-27T13:10:33Z</time>
      </trkpt>
      <trkpt lat="42.9858" lon="0.54399">
        <ele>1196.569</ele>
        <time>2021-02-27T13:10:35Z</time>
      </trkpt>
      <trkpt lat="42.98579" lon="0.54402">
        <ele>1195.062</ele>
        <time>2021-02-27T13:10:37Z</time>
      </trkpt>
      <trkpt lat="42.98577" lon="0.54405">
        <ele>1193.093</ele>
        <time>2021-02-27T13:10:39Z</time>
      </trkpt>
      <trkpt lat="42.98576" lon="0.54407">
        <ele>1191.721</ele>
        <time>2021-02-27T13:10:41Z</time>
      </trkpt>
      <trkpt lat="42.98574" lon="0.54409">
        <ele>1189.741</ele>
        <time>2021-02-27T13:10:43Z</time>
      </trkpt>
      <trkpt lat="42.98572" lon="0.5441">
        <ele>1189.039</ele>
        <time>2021-02-27T13:10:45Z</time>
      </trkpt>
      <trkpt lat="42.98571" lon="0.54412">
        <ele>1187.746</ele>
        <time>2021-02-27T13:10:47Z</time>
      </trkpt>
      <trkpt lat="42.9857" lon="0.54414">
        <ele>1186.984</ele>
        <time>2021-02-27T13:10:49Z</time>
      </trkpt>
      <trkpt lat="42.98568" lon="0.54416">
        <ele>1186.717</ele>
        <time>2021-02-27T13:10:51Z</time>
      </trkpt>
      <trkpt lat="42.98567" lon="0.54418">
        <ele>1186.001</ele>
        <time>2021-02-27T13:10:53Z</time>
      </trkpt>
      <trkpt lat="42.98566" lon="0.5442">
        <ele>1184.902</ele>
        <time>2021-02-27T13:10:55Z</time>
      </trkpt>
      <trkpt lat="42.98564" lon="0.54422">
        <ele>1183.463</ele>
        <time>2021-02-27T13:10:57Z</time>
      </trkpt>
      <trkpt lat="42.98563" lon="0.54424">
        <ele>1183.457</ele>
        <time>2021-02-27T13:10:59Z</time>
      </trkpt>
      <trkpt lat="42.98561" lon="0.54426">
        <ele>1183.554</ele>
        <time>2021-02-27T13:11:01Z</time>
      </trkpt>
      <trkpt lat="42.9856" lon="0.54428">
        <ele>1182.961</ele>
        <time>2021-02-27T13:11:03Z</time>
      </trkpt>
      <trkpt lat="42.98558" lon="0.54429">
        <ele>1182.369</ele>
        <time>2021-02-27T13:11:05Z</time>
      </trkpt>
      <trkpt lat="42.98556" lon="0.5443">
        <ele>1181.36</ele>
        <time>2021-02-27T13:11:07Z</time>
      </trkpt>
      <trkpt lat="42.98554" lon="0.54431">
        <ele>1180.429</ele>
        <time>2021-02-27T13:11:09Z</time>
      </trkpt>
      <trkpt lat="42.98552" lon="0.54432">
        <ele>1179.9</ele>
        <time>2021-02-27T13:11:11Z</time>
      </trkpt>
      <trkpt lat="42.9855" lon="0.54433">
        <ele>1178.434</ele>
        <time>2021-02-27T13:11:13Z</time>
      </trkpt>
      <trkpt lat="42.98548" lon="0.54434">
        <ele>1178.085</ele>
        <time>2021-02-27T13:11:15Z</time>
      </trkpt>
      <trkpt lat="42.98546" lon="0.54436">
        <ele>1177.904</ele>
        <time>2021-02-27T13:11:17Z</time>
      </trkpt>
      <trkpt lat="42.98544" lon="0.54437">
        <ele>1177.135</ele>
        <time>2021-02-27T13:11:19Z</time>
      </trkpt>
      <trkpt lat="42.98542" lon="0.54439">
        <ele>1175.464</ele>
        <time>2021-02-27T13:11:21Z</time>
      </trkpt>
      <trkpt lat="42.9854" lon="0.5444">
        <ele>1174.406</ele>
        <time>2021-02-27T13:11:23Z</time>
      </trkpt>
      <trkpt lat="42.98538" lon="0.54441">
        <ele>1174.037</ele>
        <time>2021-02-27T13:11:25Z</time>
      </trkpt>
      <trkpt lat="42.98536" lon="0.54441">
        <ele>1172.948</ele>
        <time>2021-02-27T13:11:27Z</time>
      </trkpt>
      <trkpt lat="42.98534" lon="0.54443">
        <ele>1171.15</ele>
        <time>2021-02-27T13:11:29Z</time>
      </trkpt>
      <trkpt lat="42.98532" lon="0.54443">
        <ele>1169.495</ele>
        <time>2021-02-27T13:11:31Z</time>
      </trkpt>
      <trkpt lat="42.9853" lon="0.54444">
        <ele>1168.862</ele>
        <time>2021-02-27T13:11:33Z</time>
      </trkpt>
      <trkpt lat="42.98527" lon="0.54444">
        <ele>1167.42</ele>
        <time>2021-02-27T13:11:35Z</time>
      </trkpt>
      <trkpt lat="42.98526" lon="0.54443">
        <ele>1166.464</ele>
        <time>2021-02-27T13:11:37Z</time>
      </trkpt>
      <trkpt lat="42.98524" lon="0.54444">
        <ele>1165.936</ele>
        <time>2021-02-27T13:11:39Z</time>
      </trkpt>
      <trkpt lat="42.98521" lon="0.54443">
        <ele>1163.622</ele>
        <time>2021-02-27T13:11:41Z</time>
      </trkpt>
      <trkpt lat="42.98519" lon="0.54443">
        <ele>1162.521</ele>
        <time>2021-02-27T13:11:43Z</time>
      </trkpt>
      <trkpt lat="42.98517" lon="0.54443">
        <ele>1162.47</ele>
        <time>2021-02-27T13:11:45Z</time>
      </trkpt>
      <trkpt lat="42.98514" lon="0.54443">
        <ele>1161.759</ele>
        <time>2021-02-27T13:11:47Z</time>
      </trkpt>
      <trkpt lat="42.98512" lon="0.54443">
        <ele>1161.485</ele>
        <time>2021-02-27T13:11:49Z</time>
      </trkpt>
      <trkpt lat="42.9851" lon="0.54444">
        <ele>1162.201</ele>
        <time>2021-02-27T13:11:51Z</time>
      </trkpt>
      <trkpt lat="42.98508" lon="0.54443">
        <ele>1161.119</ele>
        <time>2021-02-27T13:11:53Z</time>
      </trkpt>
      <trkpt lat="42.98505" lon="0.54443">
        <ele>1160.584</ele>
        <time>2021-02-27T13:11:55Z</time>
      </trkpt>
      <trkpt lat="42.98503" lon="0.54441">
        <ele>1158.942</ele>
        <time>2021-02-27T13:11:57Z</time>
      </trkpt>
      <trkpt lat="42.98502" lon="0.54439">
        <ele>1158.771</ele>
        <time>2021-02-27T13:11:59Z</time>
      </trkpt>
      <trkpt lat="42.985" lon="0.54438">
        <ele>1157.661</ele>
        <time>2021-02-27T13:12:01Z</time>
      </trkpt>
      <trkpt lat="42.98497" lon="0.54438">
        <ele>1156.676</ele>
        <time>2021-02-27T13:12:03Z</time>
      </trkpt>
      <trkpt lat="42.98495" lon="0.54439">
        <ele>1154.23</ele>
        <time>2021-02-27T13:12:05Z</time>
      </trkpt>
      <trkpt lat="42.98493" lon="0.54442">
        <ele>1154.692</ele>
        <time>2021-02-27T13:12:07Z</time>
      </trkpt>
      <trkpt lat="42.98491" lon="0.54444">
        <ele>1153.87</ele>
        <time>2021-02-27T13:12:09Z</time>
      </trkpt>
      <trkpt lat="42.98489" lon="0.54447">
        <ele>1153.527</ele>
        <time>2021-02-27T13:12:11Z</time>
      </trkpt>
      <trkpt lat="42.98487" lon="0.54449">
        <ele>1154.043</ele>
        <time>2021-02-27T13:12:13Z</time>
      </trkpt>
      <trkpt lat="42.98486" lon="0.54451">
        <ele>1153.429</ele>
        <time>2021-02-27T13:12:15Z</time>
      </trkpt>
      <trkpt lat="42.98484" lon="0.54453">
        <ele>1153.077</ele>
        <time>2021-02-27T13:12:17Z</time>
      </trkpt>
      <trkpt lat="42.98483" lon="0.54455">
        <ele>1152.908</ele>
        <time>2021-02-27T13:12:19Z</time>
      </trkpt>
      <trkpt lat="42.98481" lon="0.54456">
        <ele>1152.826</ele>
        <time>2021-02-27T13:12:21Z</time>
      </trkpt>
      <trkpt lat="42.98479" lon="0.54457">
        <ele>1152.317</ele>
        <time>2021-02-27T13:12:23Z</time>
      </trkpt>
      <trkpt lat="42.98476" lon="0.54457">
        <ele>1151.935</ele>
        <time>2021-02-27T13:12:25Z</time>
      </trkpt>
      <trkpt lat="42.98474" lon="0.54457">
        <ele>1150.684</ele>
        <time>2021-02-27T13:12:27Z</time>
      </trkpt>
      <trkpt lat="42.98472" lon="0.54455">
        <ele>1149.084</ele>
        <time>2021-02-27T13:12:29Z</time>
      </trkpt>
      <trkpt lat="42.9847" lon="0.54455">
        <ele>1148.079</ele>
        <time>2021-02-27T13:12:31Z</time>
      </trkpt>
      <trkpt lat="42.98468" lon="0.54455">
        <ele>1146.465</ele>
        <time>2021-02-27T13:12:33Z</time>
      </trkpt>
      <trkpt lat="42.98466" lon="0.54454">
        <ele>1144.901</ele>
        <time>2021-02-27T13:12:35Z</time>
      </trkpt>
      <trkpt lat="42.98463" lon="0.54452">
        <ele>1143.808</ele>
        <time>2021-02-27T13:12:37Z</time>
      </trkpt>
      <trkpt lat="42.98461" lon="0.54452">
        <ele>1142.578</ele>
        <time>2021-02-27T13:12:39Z</time>
      </trkpt>
      <trkpt lat="42.98459" lon="0.54451">
        <ele>1141.419</ele>
        <time>2021-02-27T13:12:41Z</time>
      </trkpt>
      <trkpt lat="42.98457" lon="0.54451">
        <ele>1140.39</ele>
        <time>2021-02-27T13:12:43Z</time>
      </trkpt>
      <trkpt lat="42.98455" lon="0.54451">
        <ele>1140.129</ele>
        <time>2021-02-27T13:12:45Z</time>
      </trkpt>
      <trkpt lat="42.98453" lon="0.54452">
        <ele>1139.735</ele>
        <time>2021-02-27T13:12:47Z</time>
      </trkpt>
      <trkpt lat="42.98451" lon="0.54453">
        <ele>1138.178</ele>
        <time>2021-02-27T13:12:49Z</time>
      </trkpt>
      <trkpt lat="42.98449" lon="0.54455">
        <ele>1140.082</ele>
        <time>2021-02-27T13:12:51Z</time>
      </trkpt>
      <trkpt lat="42.98447" lon="0.54458">
        <ele>1141.632</ele>
        <time>2021-02-27T13:12:53Z</time>
      </trkpt>
      <trkpt lat="42.98446" lon="0.5446">
        <ele>1139.795</ele>
        <time>2021-02-27T13:12:55Z</time>
      </trkpt>
      <trkpt lat="42.98444" lon="0.54462">
        <ele>1138.79</ele>
        <time>2021-02-27T13:12:57Z</time>
      </trkpt>
      <trkpt lat="42.98442" lon="0.54466">
        <ele>1139.451</ele>
        <time>2021-02-27T13:12:59Z</time>
      </trkpt>
      <trkpt lat="42.98441" lon="0.5447">
        <ele>1139.767</ele>
        <time>2021-02-27T13:13:01Z</time>
      </trkpt>
      <trkpt lat="42.98439" lon="0.54473">
        <ele>1140.891</ele>
        <time>2021-02-27T13:13:03Z</time>
      </trkpt>
      <trkpt lat="42.98438" lon="0.54477">
        <ele>1140.558</ele>
        <time>2021-02-27T13:13:05Z</time>
      </trkpt>
      <trkpt lat="42.98437" lon="0.5448">
        <ele>1140.19</ele>
        <time>2021-02-27T13:13:07Z</time>
      </trkpt>
      <trkpt lat="42.98436" lon="0.54483">
        <ele>1141.016</ele>
        <time>2021-02-27T13:13:09Z</time>
      </trkpt>
      <trkpt lat="42.98435" lon="0.54486">
        <ele>1141.303</ele>
        <time>2021-02-27T13:13:11Z</time>
      </trkpt>
      <trkpt lat="42.98434" lon="0.54489">
        <ele>1141.886</ele>
        <time>2021-02-27T13:13:13Z</time>
      </trkpt>
      <trkpt lat="42.98433" lon="0.54491">
        <ele>1140.979</ele>
        <time>2021-02-27T13:13:15Z</time>
      </trkpt>
      <trkpt lat="42.98432" lon="0.54495">
        <ele>1140.793</ele>
        <time>2021-02-27T13:13:17Z</time>
      </trkpt>
      <trkpt lat="42.98431" lon="0.54499">
        <ele>1140.904</ele>
        <time>2021-02-27T13:13:19Z</time>
      </trkpt>
      <trkpt lat="42.9843" lon="0.54501">
        <ele>1139.767</ele>
        <time>2021-02-27T13:13:21Z</time>
      </trkpt>
      <trkpt lat="42.98429" lon="0.54503">
        <ele>1140.256</ele>
        <time>2021-02-27T13:13:23Z</time>
      </trkpt>
      <trkpt lat="42.98428" lon="0.54505">
        <ele>1140.291</ele>
        <time>2021-02-27T13:13:25Z</time>
      </trkpt>
      <trkpt lat="42.98426" lon="0.54508">
        <ele>1139.521</ele>
        <time>2021-02-27T13:13:27Z</time>
      </trkpt>
      <trkpt lat="42.98425" lon="0.54511">
        <ele>1139.64</ele>
        <time>2021-02-27T13:13:29Z</time>
      </trkpt>
      <trkpt lat="42.98425" lon="0.54515">
        <ele>1140.407</ele>
        <time>2021-02-27T13:13:31Z</time>
      </trkpt>
      <trkpt lat="42.98424" lon="0.5452">
        <ele>1141.397</ele>
        <time>2021-02-27T13:13:33Z</time>
      </trkpt>
      <trkpt lat="42.98423" lon="0.54523">
        <ele>1140.548</ele>
        <time>2021-02-27T13:13:35Z</time>
      </trkpt>
      <trkpt lat="42.98421" lon="0.54526">
        <ele>1140.905</ele>
        <time>2021-02-27T13:13:37Z</time>
      </trkpt>
      <trkpt lat="42.9842" lon="0.54528">
        <ele>1140.602</ele>
        <time>2021-02-27T13:13:39Z</time>
      </trkpt>
      <trkpt lat="42.98419" lon="0.5453">
        <ele>1139.962</ele>
        <time>2021-02-27T13:13:41Z</time>
      </trkpt>
      <trkpt lat="42.98419" lon="0.54532">
        <ele>1140.087</ele>
        <time>2021-02-27T13:13:43Z</time>
      </trkpt>
      <trkpt lat="42.98418" lon="0.54534">
        <ele>1139.809</ele>
        <time>2021-02-27T13:13:45Z</time>
      </trkpt>
      <trkpt lat="42.98417" lon="0.54537">
        <ele>1139.169</ele>
        <time>2021-02-27T13:13:47Z</time>
      </trkpt>
      <trkpt lat="42.98415" lon="0.54539">
        <ele>1139.184</ele>
        <time>2021-02-27T13:13:49Z</time>
      </trkpt>
      <trkpt lat="42.98415" lon="0.54543">
        <ele>1139.176</ele>
        <time>2021-02-27T13:13:51Z</time>
      </trkpt>
      <trkpt lat="42.98413" lon="0.54545">
        <ele>1138.545</ele>
        <time>2021-02-27T13:13:53Z</time>
      </trkpt>
      <trkpt lat="42.98412" lon="0.54548">
        <ele>1137.355</ele>
        <time>2021-02-27T13:13:55Z</time>
      </trkpt>
      <trkpt lat="42.98411" lon="0.54551">
        <ele>1137.614</ele>
        <time>2021-02-27T13:13:57Z</time>
      </trkpt>
      <trkpt lat="42.98409" lon="0.54553">
        <ele>1137.554</ele>
        <time>2021-02-27T13:13:59Z</time>
      </trkpt>
      <trkpt lat="42.98408" lon="0.54556">
        <ele>1137.578</ele>
        <time>2021-02-27T13:14:01Z</time>
      </trkpt>
      <trkpt lat="42.98406" lon="0.54558">
        <ele>1136.678</ele>
        <time>2021-02-27T13:14:03Z</time>
      </trkpt>
      <trkpt lat="42.98405" lon="0.54561">
        <ele>1136.423</ele>
        <time>2021-02-27T13:14:05Z</time>
      </trkpt>
      <trkpt lat="42.98404" lon="0.54564">
        <ele>1136.098</ele>
        <time>2021-02-27T13:14:07Z</time>
      </trkpt>
      <trkpt lat="42.98404" lon="0.54567">
        <ele>1135.779</ele>
        <time>2021-02-27T13:14:09Z</time>
      </trkpt>
      <trkpt lat="42.98402" lon="0.54568">
        <ele>1134.011</ele>
        <time>2021-02-27T13:14:11Z</time>
      </trkpt>
      <trkpt lat="42.984" lon="0.54569">
        <ele>1133.537</ele>
        <time>2021-02-27T13:14:13Z</time>
      </trkpt>
      <trkpt lat="42.98399" lon="0.54571">
        <ele>1132.541</ele>
        <time>2021-02-27T13:14:15Z</time>
      </trkpt>
      <trkpt lat="42.98398" lon="0.54573">
        <ele>1131.23</ele>
        <time>2021-02-27T13:14:17Z</time>
      </trkpt>
      <trkpt lat="42.98397" lon="0.54574">
        <ele>1130.7</ele>
        <time>2021-02-27T13:14:18Z</time>
      </trkpt>
      <trkpt lat="42.98394" lon="0.54577">
        <ele>1128.856</ele>
        <time>2021-02-27T13:14:21Z</time>
      </trkpt>
      <trkpt lat="42.98392" lon="0.54579">
        <ele>1129.067</ele>
        <time>2021-02-27T13:14:23Z</time>
      </trkpt>
      <trkpt lat="42.9839" lon="0.54582">
        <ele>1128.455</ele>
        <time>2021-02-27T13:14:25Z</time>
      </trkpt>
      <trkpt lat="42.98389" lon="0.54586">
        <ele>1128.503</ele>
        <time>2021-02-27T13:14:27Z</time>
      </trkpt>
      <trkpt lat="42.98387" lon="0.54591">
        <ele>1127.762</ele>
        <time>2021-02-27T13:14:30Z</time>
      </trkpt>
      <trkpt lat="42.98386" lon="0.54594">
        <ele>1127.32</ele>
        <time>2021-02-27T13:14:32Z</time>
      </trkpt>
      <trkpt lat="42.98384" lon="0.54596">
        <ele>1127.034</ele>
        <time>2021-02-27T13:14:34Z</time>
      </trkpt>
      <trkpt lat="42.98382" lon="0.54598">
        <ele>1126.256</ele>
        <time>2021-02-27T13:14:36Z</time>
      </trkpt>
      <trkpt lat="42.9838" lon="0.546">
        <ele>1126.496</ele>
        <time>2021-02-27T13:14:38Z</time>
      </trkpt>
      <trkpt lat="42.98379" lon="0.54601">
        <ele>1125.797</ele>
        <time>2021-02-27T13:14:40Z</time>
      </trkpt>
      <trkpt lat="42.98378" lon="0.54603">
        <ele>1125.838</ele>
        <time>2021-02-27T13:14:42Z</time>
      </trkpt>
      <trkpt lat="42.98377" lon="0.54605">
        <ele>1125.753</ele>
        <time>2021-02-27T13:14:44Z</time>
      </trkpt>
      <trkpt lat="42.98375" lon="0.54606">
        <ele>1124.145</ele>
        <time>2021-02-27T13:14:46Z</time>
      </trkpt>
      <trkpt lat="42.98374" lon="0.54608">
        <ele>1122.74</ele>
        <time>2021-02-27T13:14:48Z</time>
      </trkpt>
      <trkpt lat="42.98372" lon="0.5461">
        <ele>1122.25</ele>
        <time>2021-02-27T13:14:50Z</time>
      </trkpt>
      <trkpt lat="42.98371" lon="0.54613">
        <ele>1121.189</ele>
        <time>2021-02-27T13:14:52Z</time>
      </trkpt>
      <trkpt lat="42.9837" lon="0.54616">
        <ele>1120.992</ele>
        <time>2021-02-27T13:14:54Z</time>
      </trkpt>
      <trkpt lat="42.98368" lon="0.54618">
        <ele>1120.851</ele>
        <time>2021-02-27T13:14:56Z</time>
      </trkpt>
      <trkpt lat="42.98366" lon="0.54621">
        <ele>1120.2</ele>
        <time>2021-02-27T13:14:58Z</time>
      </trkpt>
      <trkpt lat="42.98364" lon="0.54622">
        <ele>1118.824</ele>
        <time>2021-02-27T13:15:00Z</time>
      </trkpt>
      <trkpt lat="42.98363" lon="0.54624">
        <ele>1118.826</ele>
        <time>2021-02-27T13:15:02Z</time>
      </trkpt>
      <trkpt lat="42.98362" lon="0.54626">
        <ele>1118.473</ele>
        <time>2021-02-27T13:15:04Z</time>
      </trkpt>
      <trkpt lat="42.98361" lon="0.54629">
        <ele>1117.87</ele>
        <time>2021-02-27T13:15:06Z</time>
      </trkpt>
      <trkpt lat="42.98359" lon="0.54631">
        <ele>1117.386</ele>
        <time>2021-02-27T13:15:08Z</time>
      </trkpt>
      <trkpt lat="42.98358" lon="0.54634">
        <ele>1116.852</ele>
        <time>2021-02-27T13:15:10Z</time>
      </trkpt>
      <trkpt lat="42.98356" lon="0.54636">
        <ele>1116.19</ele>
        <time>2021-02-27T13:15:12Z</time>
      </trkpt>
      <trkpt lat="42.98355" lon="0.54639">
        <ele>1115.579</ele>
        <time>2021-02-27T13:15:14Z</time>
      </trkpt>
      <trkpt lat="42.98353" lon="0.5464">
        <ele>1114.351</ele>
        <time>2021-02-27T13:15:16Z</time>
      </trkpt>
      <trkpt lat="42.9835" lon="0.54642">
        <ele>1114.152</ele>
        <time>2021-02-27T13:15:18Z</time>
      </trkpt>
      <trkpt lat="42.98348" lon="0.54646">
        <ele>1112.933</ele>
        <time>2021-02-27T13:15:20Z</time>
      </trkpt>
      <trkpt lat="42.98344" lon="0.5465">
        <ele>1109.56</ele>
        <time>2021-02-27T13:15:22Z</time>
      </trkpt>
      <trkpt lat="42.9834" lon="0.54651">
        <ele>1107.446</ele>
        <time>2021-02-27T13:15:24Z</time>
      </trkpt>
      <trkpt lat="42.98338" lon="0.54654">
        <ele>1107.186</ele>
        <time>2021-02-27T13:15:26Z</time>
      </trkpt>
      <trkpt lat="42.98335" lon="0.54656">
        <ele>1105.416</ele>
        <time>2021-02-27T13:15:28Z</time>
      </trkpt>
      <trkpt lat="42.98333" lon="0.54659">
        <ele>1103.944</ele>
        <time>2021-02-27T13:15:30Z</time>
      </trkpt>
      <trkpt lat="42.9833" lon="0.54664">
        <ele>1101.374</ele>
        <time>2021-02-27T13:15:32Z</time>
      </trkpt>
      <trkpt lat="42.98328" lon="0.54667">
        <ele>1100.34</ele>
        <time>2021-02-27T13:15:34Z</time>
      </trkpt>
      <trkpt lat="42.98325" lon="0.54669">
        <ele>1101.018</ele>
        <time>2021-02-27T13:15:36Z</time>
      </trkpt>
      <trkpt lat="42.98323" lon="0.54673">
        <ele>1099.738</ele>
        <time>2021-02-27T13:15:38Z</time>
      </trkpt>
      <trkpt lat="42.9832" lon="0.54675">
        <ele>1098.083</ele>
        <time>2021-02-27T13:15:40Z</time>
      </trkpt>
      <trkpt lat="42.98318" lon="0.54679">
        <ele>1098.463</ele>
        <time>2021-02-27T13:15:42Z</time>
      </trkpt>
      <trkpt lat="42.98315" lon="0.54683">
        <ele>1097.12</ele>
        <time>2021-02-27T13:15:44Z</time>
      </trkpt>
      <trkpt lat="42.98312" lon="0.54686">
        <ele>1096.092</ele>
        <time>2021-02-27T13:15:46Z</time>
      </trkpt>
      <trkpt lat="42.9831" lon="0.54689">
        <ele>1094.954</ele>
        <time>2021-02-27T13:15:48Z</time>
      </trkpt>
      <trkpt lat="42.98308" lon="0.54693">
        <ele>1093.696</ele>
        <time>2021-02-27T13:15:50Z</time>
      </trkpt>
      <trkpt lat="42.98306" lon="0.54697">
        <ele>1092.627</ele>
        <time>2021-02-27T13:15:52Z</time>
      </trkpt>
      <trkpt lat="42.98304" lon="0.547">
        <ele>1091.193</ele>
        <time>2021-02-27T13:15:54Z</time>
      </trkpt>
      <trkpt lat="42.98301" lon="0.54704">
        <ele>1090.29</ele>
        <time>2021-02-27T13:15:56Z</time>
      </trkpt>
      <trkpt lat="42.983" lon="0.54709">
        <ele>1089.863</ele>
        <time>2021-02-27T13:15:58Z</time>
      </trkpt>
      <trkpt lat="42.98298" lon="0.54714">
        <ele>1089.47</ele>
        <time>2021-02-27T13:16:00Z</time>
      </trkpt>
      <trkpt lat="42.98296" lon="0.54718">
        <ele>1089.576</ele>
        <time>2021-02-27T13:16:02Z</time>
      </trkpt>
      <trkpt lat="42.98293" lon="0.54722">
        <ele>1089.828</ele>
        <time>2021-02-27T13:16:04Z</time>
      </trkpt>
      <trkpt lat="42.98291" lon="0.54725">
        <ele>1089.345</ele>
        <time>2021-02-27T13:16:06Z</time>
      </trkpt>
      <trkpt lat="42.98289" lon="0.5473">
        <ele>1088.652</ele>
        <time>2021-02-27T13:16:08Z</time>
      </trkpt>
      <trkpt lat="42.98287" lon="0.54734">
        <ele>1088.209</ele>
        <time>2021-02-27T13:16:10Z</time>
      </trkpt>
      <trkpt lat="42.98286" lon="0.54738">
        <ele>1088.141</ele>
        <time>2021-02-27T13:16:12Z</time>
      </trkpt>
      <trkpt lat="42.98283" lon="0.54742">
        <ele>1087.157</ele>
        <time>2021-02-27T13:16:14Z</time>
      </trkpt>
      <trkpt lat="42.98282" lon="0.54745">
        <ele>1086.792</ele>
        <time>2021-02-27T13:16:16Z</time>
      </trkpt>
      <trkpt lat="42.98281" lon="0.54748">
        <ele>1086.449</ele>
        <time>2021-02-27T13:16:17Z</time>
      </trkpt>
      <trkpt lat="42.98279" lon="0.54755">
        <ele>1085.184</ele>
        <time>2021-02-27T13:16:20Z</time>
      </trkpt>
      <trkpt lat="42.98277" lon="0.5476">
        <ele>1084.51</ele>
        <time>2021-02-27T13:16:22Z</time>
      </trkpt>
      <trkpt lat="42.98275" lon="0.54765">
        <ele>1084.29</ele>
        <time>2021-02-27T13:16:24Z</time>
      </trkpt>
      <trkpt lat="42.98272" lon="0.54769">
        <ele>1083.348</ele>
        <time>2021-02-27T13:16:26Z</time>
      </trkpt>
      <trkpt lat="42.98269" lon="0.54767">
        <ele>1081.854</ele>
        <time>2021-02-27T13:16:28Z</time>
      </trkpt>
      <trkpt lat="42.98266" lon="0.54771">
        <ele>1080.64</ele>
        <time>2021-02-27T13:16:30Z</time>
      </trkpt>
      <trkpt lat="42.98265" lon="0.54775">
        <ele>1078.997</ele>
        <time>2021-02-27T13:16:32Z</time>
      </trkpt>
      <trkpt lat="42.98263" lon="0.54779">
        <ele>1078.085</ele>
        <time>2021-02-27T13:16:34Z</time>
      </trkpt>
      <trkpt lat="42.98262" lon="0.54783">
        <ele>1076.673</ele>
        <time>2021-02-27T13:16:36Z</time>
      </trkpt>
      <trkpt lat="42.98261" lon="0.54788">
        <ele>1075.356</ele>
        <time>2021-02-27T13:16:38Z</time>
      </trkpt>
      <trkpt lat="42.9826" lon="0.54791">
        <ele>1074.304</ele>
        <time>2021-02-27T13:16:40Z</time>
      </trkpt>
      <trkpt lat="42.98259" lon="0.54796">
        <ele>1073.76</ele>
        <time>2021-02-27T13:16:42Z</time>
      </trkpt>
      <trkpt lat="42.98259" lon="0.54799">
        <ele>1072.984</ele>
        <time>2021-02-27T13:16:44Z</time>
      </trkpt>
      <trkpt lat="42.98258" lon="0.54801">
        <ele>1072.968</ele>
        <time>2021-02-27T13:16:46Z</time>
      </trkpt>
      <trkpt lat="42.98257" lon="0.54803">
        <ele>1072.806</ele>
        <time>2021-02-27T13:16:48Z</time>
      </trkpt>
      <trkpt lat="42.98256" lon="0.54806">
        <ele>1072.349</ele>
        <time>2021-02-27T13:16:50Z</time>
      </trkpt>
      <trkpt lat="42.98255" lon="0.54809">
        <ele>1071.019</ele>
        <time>2021-02-27T13:16:52Z</time>
      </trkpt>
      <trkpt lat="42.98255" lon="0.54813">
        <ele>1071.207</ele>
        <time>2021-02-27T13:16:54Z</time>
      </trkpt>
      <trkpt lat="42.98255" lon="0.54816">
        <ele>1070.789</ele>
        <time>2021-02-27T13:16:56Z</time>
      </trkpt>
      <trkpt lat="42.98254" lon="0.54819">
        <ele>1070.45</ele>
        <time>2021-02-27T13:16:58Z</time>
      </trkpt>
      <trkpt lat="42.98252" lon="0.54822">
        <ele>1069.334</ele>
        <time>2021-02-27T13:17:00Z</time>
      </trkpt>
      <trkpt lat="42.98254" lon="0.54826">
        <ele>1069.3</ele>
        <time>2021-02-27T13:17:02Z</time>
      </trkpt>
      <trkpt lat="42.98257" lon="0.54828">
        <ele>1071.591</ele>
        <time>2021-02-27T13:17:04Z</time>
      </trkpt>
      <trkpt lat="42.9826" lon="0.54827">
        <ele>1072.67</ele>
        <time>2021-02-27T13:17:06Z</time>
      </trkpt>
      <trkpt lat="42.98261" lon="0.54826">
        <ele>1071.682</ele>
        <time>2021-02-27T13:17:08Z</time>
      </trkpt>
      <trkpt lat="42.98263" lon="0.54824">
        <ele>1072.357</ele>
        <time>2021-02-27T13:17:10Z</time>
      </trkpt>
      <trkpt lat="42.98264" lon="0.54823">
        <ele>1073.294</ele>
        <time>2021-02-27T13:17:12Z</time>
      </trkpt>
      <trkpt lat="42.98266" lon="0.54822">
        <ele>1073.122</ele>
        <time>2021-02-27T13:17:14Z</time>
      </trkpt>
      <trkpt lat="42.98268" lon="0.54821">
        <ele>1074.132</ele>
        <time>2021-02-27T13:17:16Z</time>
      </trkpt>
      <trkpt lat="42.98269" lon="0.5482">
        <ele>1074.643</ele>
        <time>2021-02-27T13:17:18Z</time>
      </trkpt>
      <trkpt lat="42.98272" lon="0.5482">
        <ele>1075.471</ele>
        <time>2021-02-27T13:17:20Z</time>
      </trkpt>
      <trkpt lat="42.98273" lon="0.54818">
        <ele>1075.278</ele>
        <time>2021-02-27T13:17:22Z</time>
      </trkpt>
      <trkpt lat="42.98273" lon="0.54816">
        <ele>1075.157</ele>
        <time>2021-02-27T13:17:24Z</time>
      </trkpt>
      <trkpt lat="42.98273" lon="0.54816">
        <ele>1075.392</ele>
        <time>2021-02-27T13:17:26Z</time>
      </trkpt>
      <trkpt lat="42.98275" lon="0.54814">
        <ele>1075.28</ele>
        <time>2021-02-27T13:17:28Z</time>
      </trkpt>
      <trkpt lat="42.98278" lon="0.54811">
        <ele>1075.78</ele>
        <time>2021-02-27T13:17:30Z</time>
      </trkpt>
      <trkpt lat="42.9828" lon="0.54808">
        <ele>1076.673</ele>
        <time>2021-02-27T13:17:32Z</time>
      </trkpt>
      <trkpt lat="42.98282" lon="0.54806">
        <ele>1076.971</ele>
        <time>2021-02-27T13:17:34Z</time>
      </trkpt>
      <trkpt lat="42.98283" lon="0.54804">
        <ele>1076.823</ele>
        <time>2021-02-27T13:17:36Z</time>
      </trkpt>
      <trkpt lat="42.98285" lon="0.54802">
        <ele>1076.907</ele>
        <time>2021-02-27T13:17:38Z</time>
      </trkpt>
      <trkpt lat="42.98287" lon="0.54798">
        <ele>1075.787</ele>
        <time>2021-02-27T13:17:40Z</time>
      </trkpt>
      <trkpt lat="42.9829" lon="0.54796">
        <ele>1075.734</ele>
        <time>2021-02-27T13:17:42Z</time>
      </trkpt>
      <trkpt lat="42.98293" lon="0.54797">
        <ele>1074.478</ele>
        <time>2021-02-27T13:17:44Z</time>
      </trkpt>
      <trkpt lat="42.98295" lon="0.54799">
        <ele>1075.23</ele>
        <time>2021-02-27T13:17:46Z</time>
      </trkpt>
      <trkpt lat="42.98295" lon="0.54802">
        <ele>1075.612</ele>
        <time>2021-02-27T13:17:48Z</time>
      </trkpt>
      <trkpt lat="42.98294" lon="0.54805">
        <ele>1074.707</ele>
        <time>2021-02-27T13:17:50Z</time>
      </trkpt>
      <trkpt lat="42.98293" lon="0.54807">
        <ele>1074.17</ele>
        <time>2021-02-27T13:17:52Z</time>
      </trkpt>
      <trkpt lat="42.98292" lon="0.5481">
        <ele>1074.782</ele>
        <time>2021-02-27T13:17:54Z</time>
      </trkpt>
      <trkpt lat="42.98291" lon="0.54813">
        <ele>1074.019</ele>
        <time>2021-02-27T13:17:56Z</time>
      </trkpt>
      <trkpt lat="42.98291" lon="0.54815">
        <ele>1074.415</ele>
        <time>2021-02-27T13:17:58Z</time>
      </trkpt>
      <trkpt lat="42.98289" lon="0.54816">
        <ele>1072.381</ele>
        <time>2021-02-27T13:18:00Z</time>
      </trkpt>
      <trkpt lat="42.98288" lon="0.54817">
        <ele>1070.847</ele>
        <time>2021-02-27T13:18:02Z</time>
      </trkpt>
      <trkpt lat="42.98286" lon="0.5482">
        <ele>1069.866</ele>
        <time>2021-02-27T13:18:04Z</time>
      </trkpt>
      <trkpt lat="42.98285" lon="0.54821">
        <ele>1067.985</ele>
        <time>2021-02-27T13:18:06Z</time>
      </trkpt>
      <trkpt lat="42.98284" lon="0.54825">
        <ele>1067.595</ele>
        <time>2021-02-27T13:18:08Z</time>
      </trkpt>
      <trkpt lat="42.98284" lon="0.54829">
        <ele>1066.972</ele>
        <time>2021-02-27T13:18:10Z</time>
      </trkpt>
      <trkpt lat="42.98282" lon="0.54831">
        <ele>1066.362</ele>
        <time>2021-02-27T13:18:12Z</time>
      </trkpt>
      <trkpt lat="42.9828" lon="0.54836">
        <ele>1066.107</ele>
        <time>2021-02-27T13:18:14Z</time>
      </trkpt>
      <trkpt lat="42.98279" lon="0.54839">
        <ele>1065.469</ele>
        <time>2021-02-27T13:18:16Z</time>
      </trkpt>
      <trkpt lat="42.98277" lon="0.54844">
        <ele>1065.785</ele>
        <time>2021-02-27T13:18:18Z</time>
      </trkpt>
      <trkpt lat="42.98276" lon="0.54847">
        <ele>1064.61</ele>
        <time>2021-02-27T13:18:20Z</time>
      </trkpt>
      <trkpt lat="42.98275" lon="0.5485">
        <ele>1062.99</ele>
        <time>2021-02-27T13:18:22Z</time>
      </trkpt>
      <trkpt lat="42.98275" lon="0.54853">
        <ele>1062.351</ele>
        <time>2021-02-27T13:18:24Z</time>
      </trkpt>
      <trkpt lat="42.98275" lon="0.54857">
        <ele>1061.664</ele>
        <time>2021-02-27T13:18:26Z</time>
      </trkpt>
      <trkpt lat="42.98274" lon="0.54861">
        <ele>1060.706</ele>
        <time>2021-02-27T13:18:28Z</time>
      </trkpt>
      <trkpt lat="42.98274" lon="0.54866">
        <ele>1059.801</ele>
        <time>2021-02-27T13:18:30Z</time>
      </trkpt>
      <trkpt lat="42.98274" lon="0.54872">
        <ele>1060.459</ele>
        <time>2021-02-27T13:18:32Z</time>
      </trkpt>
      <trkpt lat="42.98274" lon="0.54877">
        <ele>1059.712</ele>
        <time>2021-02-27T13:18:34Z</time>
      </trkpt>
      <trkpt lat="42.98274" lon="0.54882">
        <ele>1059.855</ele>
        <time>2021-02-27T13:18:36Z</time>
      </trkpt>
      <trkpt lat="42.98274" lon="0.54888">
        <ele>1059.168</ele>
        <time>2021-02-27T13:18:38Z</time>
      </trkpt>
      <trkpt lat="42.98273" lon="0.54893">
        <ele>1057.521</ele>
        <time>2021-02-27T13:18:40Z</time>
      </trkpt>
      <trkpt lat="42.98273" lon="0.54898">
        <ele>1056.543</ele>
        <time>2021-02-27T13:18:42Z</time>
      </trkpt>
      <trkpt lat="42.98272" lon="0.54904">
        <ele>1056.42</ele>
        <time>2021-02-27T13:18:44Z</time>
      </trkpt>
      <trkpt lat="42.98272" lon="0.54909">
        <ele>1056.167</ele>
        <time>2021-02-27T13:18:46Z</time>
      </trkpt>
      <trkpt lat="42.98272" lon="0.54915">
        <ele>1056.885</ele>
        <time>2021-02-27T13:18:48Z</time>
      </trkpt>
      <trkpt lat="42.98271" lon="0.54919">
        <ele>1054.473</ele>
        <time>2021-02-27T13:18:50Z</time>
      </trkpt>
      <trkpt lat="42.9827" lon="0.54924">
        <ele>1054.804</ele>
        <time>2021-02-27T13:18:52Z</time>
      </trkpt>
      <trkpt lat="42.98269" lon="0.54929">
        <ele>1054.099</ele>
        <time>2021-02-27T13:18:54Z</time>
      </trkpt>
      <trkpt lat="42.98268" lon="0.54934">
        <ele>1054.971</ele>
        <time>2021-02-27T13:18:56Z</time>
      </trkpt>
      <trkpt lat="42.98266" lon="0.54939">
        <ele>1054.735</ele>
        <time>2021-02-27T13:18:58Z</time>
      </trkpt>
      <trkpt lat="42.98265" lon="0.54943">
        <ele>1054.672</ele>
        <time>2021-02-27T13:19:00Z</time>
      </trkpt>
      <trkpt lat="42.98263" lon="0.54948">
        <ele>1054.602</ele>
        <time>2021-02-27T13:19:02Z</time>
      </trkpt>
      <trkpt lat="42.9826" lon="0.54951">
        <ele>1054.807</ele>
        <time>2021-02-27T13:19:04Z</time>
      </trkpt>
      <trkpt lat="42.98257" lon="0.54954">
        <ele>1055.429</ele>
        <time>2021-02-27T13:19:06Z</time>
      </trkpt>
      <trkpt lat="42.98254" lon="0.54957">
        <ele>1055.286</ele>
        <time>2021-02-27T13:19:08Z</time>
      </trkpt>
      <trkpt lat="42.98251" lon="0.54958">
        <ele>1053.783</ele>
        <time>2021-02-27T13:19:10Z</time>
      </trkpt>
      <trkpt lat="42.98248" lon="0.54959">
        <ele>1051.916</ele>
        <time>2021-02-27T13:19:12Z</time>
      </trkpt>
      <trkpt lat="42.98244" lon="0.54959">
        <ele>1050.188</ele>
        <time>2021-02-27T13:19:14Z</time>
      </trkpt>
      <trkpt lat="42.98241" lon="0.5496">
        <ele>1050.038</ele>
        <time>2021-02-27T13:19:16Z</time>
      </trkpt>
      <trkpt lat="42.98237" lon="0.54962">
        <ele>1046.351</ele>
        <time>2021-02-27T13:19:18Z</time>
      </trkpt>
      <trkpt lat="42.98237" lon="0.54968">
        <ele>1043.052</ele>
        <time>2021-02-27T13:19:20Z</time>
      </trkpt>
      <trkpt lat="42.98241" lon="0.54972">
        <ele>1043.808</ele>
        <time>2021-02-27T13:19:22Z</time>
      </trkpt>
      <trkpt lat="42.98244" lon="0.54972">
        <ele>1043.015</ele>
        <time>2021-02-27T13:19:24Z</time>
      </trkpt>
      <trkpt lat="42.98248" lon="0.54974">
        <ele>1044.164</ele>
        <time>2021-02-27T13:19:26Z</time>
      </trkpt>
      <trkpt lat="42.98251" lon="0.54976">
        <ele>1043.633</ele>
        <time>2021-02-27T13:19:28Z</time>
      </trkpt>
      <trkpt lat="42.98254" lon="0.54975">
        <ele>1043.08</ele>
        <time>2021-02-27T13:19:30Z</time>
      </trkpt>
      <trkpt lat="42.98257" lon="0.54976">
        <ele>1042.218</ele>
        <time>2021-02-27T13:19:32Z</time>
      </trkpt>
      <trkpt lat="42.9826" lon="0.54975">
        <ele>1041.409</ele>
        <time>2021-02-27T13:19:34Z</time>
      </trkpt>
      <trkpt lat="42.98263" lon="0.54976">
        <ele>1041.919</ele>
        <time>2021-02-27T13:19:36Z</time>
      </trkpt>
      <trkpt lat="42.98266" lon="0.54975">
        <ele>1041.509</ele>
        <time>2021-02-27T13:19:38Z</time>
      </trkpt>
      <trkpt lat="42.98269" lon="0.54974">
        <ele>1038.549</ele>
        <time>2021-02-27T13:19:40Z</time>
      </trkpt>
      <trkpt lat="42.98272" lon="0.54974">
        <ele>1037.13</ele>
        <time>2021-02-27T13:19:42Z</time>
      </trkpt>
      <trkpt lat="42.98274" lon="0.54972">
        <ele>1036.869</ele>
        <time>2021-02-27T13:19:44Z</time>
      </trkpt>
      <trkpt lat="42.98277" lon="0.54971">
        <ele>1039.046</ele>
        <time>2021-02-27T13:19:46Z</time>
      </trkpt>
      <trkpt lat="42.9828" lon="0.5497">
        <ele>1038.438</ele>
        <time>2021-02-27T13:19:48Z</time>
      </trkpt>
      <trkpt lat="42.98283" lon="0.54966">
        <ele>1038.348</ele>
        <time>2021-02-27T13:19:50Z</time>
      </trkpt>
      <trkpt lat="42.98286" lon="0.54964">
        <ele>1037.449</ele>
        <time>2021-02-27T13:19:52Z</time>
      </trkpt>
      <trkpt lat="42.98289" lon="0.54963">
        <ele>1036.025</ele>
        <time>2021-02-27T13:19:54Z</time>
      </trkpt>
      <trkpt lat="42.98292" lon="0.54961">
        <ele>1033.94</ele>
        <time>2021-02-27T13:19:56Z</time>
      </trkpt>
      <trkpt lat="42.98294" lon="0.54959">
        <ele>1033.754</ele>
        <time>2021-02-27T13:19:58Z</time>
      </trkpt>
      <trkpt lat="42.98297" lon="0.54957">
        <ele>1033.962</ele>
        <time>2021-02-27T13:20:00Z</time>
      </trkpt>
      <trkpt lat="42.983" lon="0.54955">
        <ele>1034.016</ele>
        <time>2021-02-27T13:20:02Z</time>
      </trkpt>
      <trkpt lat="42.98303" lon="0.54952">
        <ele>1034.454</ele>
        <time>2021-02-27T13:20:04Z</time>
      </trkpt>
      <trkpt lat="42.98305" lon="0.54948">
        <ele>1034.01</ele>
        <time>2021-02-27T13:20:06Z</time>
      </trkpt>
      <trkpt lat="42.98308" lon="0.54945">
        <ele>1031.489</ele>
        <time>2021-02-27T13:20:08Z</time>
      </trkpt>
      <trkpt lat="42.98309" lon="0.54941">
        <ele>1030.643</ele>
        <time>2021-02-27T13:20:10Z</time>
      </trkpt>
      <trkpt lat="42.98312" lon="0.54938">
        <ele>1032.02</ele>
        <time>2021-02-27T13:20:12Z</time>
      </trkpt>
      <trkpt lat="42.98314" lon="0.54935">
        <ele>1031.594</ele>
        <time>2021-02-27T13:20:14Z</time>
      </trkpt>
      <trkpt lat="42.98317" lon="0.54931">
        <ele>1031.305</ele>
        <time>2021-02-27T13:20:16Z</time>
      </trkpt>
      <trkpt lat="42.98319" lon="0.54929">
        <ele>1030.832</ele>
        <time>2021-02-27T13:20:18Z</time>
      </trkpt>
      <trkpt lat="42.98322" lon="0.54927">
        <ele>1030.75</ele>
        <time>2021-02-27T13:20:20Z</time>
      </trkpt>
      <trkpt lat="42.98325" lon="0.54925">
        <ele>1029.261</ele>
        <time>2021-02-27T13:20:22Z</time>
      </trkpt>
      <trkpt lat="42.98329" lon="0.54923">
        <ele>1027.391</ele>
        <time>2021-02-27T13:20:24Z</time>
      </trkpt>
      <trkpt lat="42.98332" lon="0.5492">
        <ele>1026.666</ele>
        <time>2021-02-27T13:20:26Z</time>
      </trkpt>
      <trkpt lat="42.98335" lon="0.54916">
        <ele>1025.47</ele>
        <time>2021-02-27T13:20:28Z</time>
      </trkpt>
      <trkpt lat="42.98338" lon="0.54912">
        <ele>1023.191</ele>
        <time>2021-02-27T13:20:30Z</time>
      </trkpt>
      <trkpt lat="42.98341" lon="0.54908">
        <ele>1022.546</ele>
        <time>2021-02-27T13:20:32Z</time>
      </trkpt>
      <trkpt lat="42.98343" lon="0.54905">
        <ele>1022.383</ele>
        <time>2021-02-27T13:20:34Z</time>
      </trkpt>
      <trkpt lat="42.98346" lon="0.54902">
        <ele>1022.922</ele>
        <time>2021-02-27T13:20:36Z</time>
      </trkpt>
      <trkpt lat="42.98349" lon="0.54901">
        <ele>1024.437</ele>
        <time>2021-02-27T13:20:38Z</time>
      </trkpt>
      <trkpt lat="42.98352" lon="0.54901">
        <ele>1023.603</ele>
        <time>2021-02-27T13:20:40Z</time>
      </trkpt>
      <trkpt lat="42.98355" lon="0.54901">
        <ele>1021.993</ele>
        <time>2021-02-27T13:20:42Z</time>
      </trkpt>
      <trkpt lat="42.98357" lon="0.54901">
        <ele>1021.562</ele>
        <time>2021-02-27T13:20:44Z</time>
      </trkpt>
      <trkpt lat="42.98361" lon="0.54901">
        <ele>1020.665</ele>
        <time>2021-02-27T13:20:46Z</time>
      </trkpt>
      <trkpt lat="42.98365" lon="0.54901">
        <ele>1018.728</ele>
        <time>2021-02-27T13:20:48Z</time>
      </trkpt>
      <trkpt lat="42.98369" lon="0.54899">
        <ele>1018.443</ele>
        <time>2021-02-27T13:20:50Z</time>
      </trkpt>
      <trkpt lat="42.98373" lon="0.54898">
        <ele>1017.968</ele>
        <time>2021-02-27T13:20:52Z</time>
      </trkpt>
      <trkpt lat="42.98377" lon="0.54897">
        <ele>1017.151</ele>
        <time>2021-02-27T13:20:54Z</time>
      </trkpt>
      <trkpt lat="42.98381" lon="0.54896">
        <ele>1017.232</ele>
        <time>2021-02-27T13:20:56Z</time>
      </trkpt>
      <trkpt lat="42.98384" lon="0.54894">
        <ele>1017.34</ele>
        <time>2021-02-27T13:20:58Z</time>
      </trkpt>
      <trkpt lat="42.98387" lon="0.54893">
        <ele>1016.149</ele>
        <time>2021-02-27T13:21:00Z</time>
      </trkpt>
      <trkpt lat="42.98391" lon="0.54893">
        <ele>1016.48</ele>
        <time>2021-02-27T13:21:02Z</time>
      </trkpt>
      <trkpt lat="42.98391" lon="0.54898">
        <ele>1015.257</ele>
        <time>2021-02-27T13:21:04Z</time>
      </trkpt>
      <trkpt lat="42.9839" lon="0.54899">
        <ele>1016.461</ele>
        <time>2021-02-27T13:21:06Z</time>
      </trkpt>
      <trkpt lat="42.98392" lon="0.54898">
        <ele>1015.593</ele>
        <time>2021-02-27T13:21:08Z</time>
      </trkpt>
      <trkpt lat="42.98394" lon="0.54897">
        <ele>1014.591</ele>
        <time>2021-02-27T13:21:10Z</time>
      </trkpt>
      <trkpt lat="42.98395" lon="0.54896">
        <ele>1013.671</ele>
        <time>2021-02-27T13:21:12Z</time>
      </trkpt>
      <trkpt lat="42.98398" lon="0.54895">
        <ele>1013.024</ele>
        <time>2021-02-27T13:21:14Z</time>
      </trkpt>
      <trkpt lat="42.98401" lon="0.54895">
        <ele>1013.035</ele>
        <time>2021-02-27T13:21:16Z</time>
      </trkpt>
      <trkpt lat="42.98404" lon="0.54895">
        <ele>1014.3</ele>
        <time>2021-02-27T13:21:18Z</time>
      </trkpt>
      <trkpt lat="42.98407" lon="0.54895">
        <ele>1013.341</ele>
        <time>2021-02-27T13:21:20Z</time>
      </trkpt>
      <trkpt lat="42.9841" lon="0.54894">
        <ele>1012.593</ele>
        <time>2021-02-27T13:21:22Z</time>
      </trkpt>
      <trkpt lat="42.98414" lon="0.54894">
        <ele>1010.968</ele>
        <time>2021-02-27T13:21:24Z</time>
      </trkpt>
      <trkpt lat="42.98417" lon="0.54896">
        <ele>1010.996</ele>
        <time>2021-02-27T13:21:26Z</time>
      </trkpt>
      <trkpt lat="42.9842" lon="0.54896">
        <ele>1010.011</ele>
        <time>2021-02-27T13:21:28Z</time>
      </trkpt>
      <trkpt lat="42.98424" lon="0.54897">
        <ele>1009.374</ele>
        <time>2021-02-27T13:21:30Z</time>
      </trkpt>
      <trkpt lat="42.98427" lon="0.54898">
        <ele>1009.153</ele>
        <time>2021-02-27T13:21:32Z</time>
      </trkpt>
      <trkpt lat="42.98431" lon="0.54898">
        <ele>1009.604</ele>
        <time>2021-02-27T13:21:34Z</time>
      </trkpt>
      <trkpt lat="42.98433" lon="0.54898">
        <ele>1010.614</ele>
        <time>2021-02-27T13:21:36Z</time>
      </trkpt>
      <trkpt lat="42.98436" lon="0.54897">
        <ele>1009.439</ele>
        <time>2021-02-27T13:21:38Z</time>
      </trkpt>
      <trkpt lat="42.98439" lon="0.54896">
        <ele>1008.752</ele>
        <time>2021-02-27T13:21:40Z</time>
      </trkpt>
      <trkpt lat="42.98442" lon="0.54895">
        <ele>1009.575</ele>
        <time>2021-02-27T13:21:42Z</time>
      </trkpt>
      <trkpt lat="42.98447" lon="0.54894">
        <ele>1008.576</ele>
        <time>2021-02-27T13:21:44Z</time>
      </trkpt>
      <trkpt lat="42.9845" lon="0.54893">
        <ele>1008.007</ele>
        <time>2021-02-27T13:21:46Z</time>
      </trkpt>
      <trkpt lat="42.98453" lon="0.54894">
        <ele>1007.181</ele>
        <time>2021-02-27T13:21:48Z</time>
      </trkpt>
      <trkpt lat="42.98457" lon="0.54894">
        <ele>1006.128</ele>
        <time>2021-02-27T13:21:50Z</time>
      </trkpt>
      <trkpt lat="42.9846" lon="0.54895">
        <ele>1007.369</ele>
        <time>2021-02-27T13:21:52Z</time>
      </trkpt>
      <trkpt lat="42.98463" lon="0.54895">
        <ele>1006.698</ele>
        <time>2021-02-27T13:21:54Z</time>
      </trkpt>
      <trkpt lat="42.98467" lon="0.54894">
        <ele>1004.075</ele>
        <time>2021-02-27T13:21:56Z</time>
      </trkpt>
      <trkpt lat="42.98471" lon="0.54894">
        <ele>1002.657</ele>
        <time>2021-02-27T13:21:58Z</time>
      </trkpt>
      <trkpt lat="42.98475" lon="0.54893">
        <ele>1001.793</ele>
        <time>2021-02-27T13:22:00Z</time>
      </trkpt>
      <trkpt lat="42.98479" lon="0.54894">
        <ele>1001.079</ele>
        <time>2021-02-27T13:22:02Z</time>
      </trkpt>
      <trkpt lat="42.98484" lon="0.54895">
        <ele>1002.154</ele>
        <time>2021-02-27T13:22:04Z</time>
      </trkpt>
      <trkpt lat="42.98487" lon="0.54895">
        <ele>1002.213</ele>
        <time>2021-02-27T13:22:06Z</time>
      </trkpt>
      <trkpt lat="42.98491" lon="0.54895">
        <ele>1002.006</ele>
        <time>2021-02-27T13:22:08Z</time>
      </trkpt>
      <trkpt lat="42.98495" lon="0.54895">
        <ele>1000.264</ele>
        <time>2021-02-27T13:22:10Z</time>
      </trkpt>
      <trkpt lat="42.98499" lon="0.54897">
        <ele>999.386</ele>
        <time>2021-02-27T13:22:12Z</time>
      </trkpt>
      <trkpt lat="42.985" lon="0.54899">
        <ele>996.059</ele>
        <time>2021-02-27T13:22:14Z</time>
      </trkpt>
      <trkpt lat="42.985" lon="0.54902">
        <ele>995.618</ele>
        <time>2021-02-27T13:22:16Z</time>
      </trkpt>
      <trkpt lat="42.98499" lon="0.54907">
        <ele>996.231</ele>
        <time>2021-02-27T13:22:18Z</time>
      </trkpt>
      <trkpt lat="42.98497" lon="0.54911">
        <ele>994.525</ele>
        <time>2021-02-27T13:22:20Z</time>
      </trkpt>
      <trkpt lat="42.98496" lon="0.54915">
        <ele>993.097</ele>
        <time>2021-02-27T13:22:22Z</time>
      </trkpt>
      <trkpt lat="42.98495" lon="0.54917">
        <ele>991.728</ele>
        <time>2021-02-27T13:22:24Z</time>
      </trkpt>
      <trkpt lat="42.98494" lon="0.54919">
        <ele>991.174</ele>
        <time>2021-02-27T13:22:26Z</time>
      </trkpt>
      <trkpt lat="42.98491" lon="0.54921">
        <ele>992.052</ele>
        <time>2021-02-27T13:22:28Z</time>
      </trkpt>
      <trkpt lat="42.98491" lon="0.54919">
        <ele>989.925</ele>
        <time>2021-02-27T13:22:30Z</time>
      </trkpt>
      <trkpt lat="42.9849" lon="0.54917">
        <ele>988.656</ele>
        <time>2021-02-27T13:22:32Z</time>
      </trkpt>
      <trkpt lat="42.98489" lon="0.5492">
        <ele>988.628</ele>
        <time>2021-02-27T13:22:34Z</time>
      </trkpt>
      <trkpt lat="42.98487" lon="0.54923">
        <ele>987.781</ele>
        <time>2021-02-27T13:22:36Z</time>
      </trkpt>
      <trkpt lat="42.98486" lon="0.54925">
        <ele>986.783</ele>
        <time>2021-02-27T13:22:38Z</time>
      </trkpt>
      <trkpt lat="42.98484" lon="0.54928">
        <ele>986.674</ele>
        <time>2021-02-27T13:22:40Z</time>
      </trkpt>
      <trkpt lat="42.98482" lon="0.54932">
        <ele>985.945</ele>
        <time>2021-02-27T13:22:42Z</time>
      </trkpt>
      <trkpt lat="42.9848" lon="0.54935">
        <ele>986.419</ele>
        <time>2021-02-27T13:22:44Z</time>
      </trkpt>
      <trkpt lat="42.98479" lon="0.54937">
        <ele>985.507</ele>
        <time>2021-02-27T13:22:46Z</time>
      </trkpt>
      <trkpt lat="42.98477" lon="0.54941">
        <ele>986.583</ele>
        <time>2021-02-27T13:22:48Z</time>
      </trkpt>
      <trkpt lat="42.98476" lon="0.54943">
        <ele>983.77</ele>
        <time>2021-02-27T13:22:50Z</time>
      </trkpt>
      <trkpt lat="42.98474" lon="0.54942">
        <ele>984.414</ele>
        <time>2021-02-27T13:22:52Z</time>
      </trkpt>
      <trkpt lat="42.98472" lon="0.54943">
        <ele>983.242</ele>
        <time>2021-02-27T13:22:54Z</time>
      </trkpt>
      <trkpt lat="42.9847" lon="0.54947">
        <ele>982.372</ele>
        <time>2021-02-27T13:22:56Z</time>
      </trkpt>
      <trkpt lat="42.98468" lon="0.54949">
        <ele>981.249</ele>
        <time>2021-02-27T13:22:58Z</time>
      </trkpt>
      <trkpt lat="42.98466" lon="0.54952">
        <ele>980.261</ele>
        <time>2021-02-27T13:23:00Z</time>
      </trkpt>
      <trkpt lat="42.98464" lon="0.54957">
        <ele>980.438</ele>
        <time>2021-02-27T13:23:02Z</time>
      </trkpt>
      <trkpt lat="42.98463" lon="0.54961">
        <ele>980.205</ele>
        <time>2021-02-27T13:23:04Z</time>
      </trkpt>
      <trkpt lat="42.98461" lon="0.54963">
        <ele>978.846</ele>
        <time>2021-02-27T13:23:06Z</time>
      </trkpt>
      <trkpt lat="42.98461" lon="0.54966">
        <ele>979.963</ele>
        <time>2021-02-27T13:23:08Z</time>
      </trkpt>
      <trkpt lat="42.98461" lon="0.54967">
        <ele>979.958</ele>
        <time>2021-02-27T13:23:10Z</time>
      </trkpt>
      <trkpt lat="42.98461" lon="0.54967">
        <ele>979.984</ele>
        <time>2021-02-27T13:23:12Z</time>
      </trkpt>
      <trkpt lat="42.98461" lon="0.54967">
        <ele>979.992</ele>
        <time>2021-02-27T13:23:14Z</time>
      </trkpt>
      <trkpt lat="42.98461" lon="0.54967">
        <ele>979.974</ele>
        <time>2021-02-27T13:23:16Z</time>
      </trkpt>
      <trkpt lat="42.9846" lon="0.54969">
        <ele>978.967</ele>
        <time>2021-02-27T13:23:18Z</time>
      </trkpt>
      <trkpt lat="42.98457" lon="0.5497">
        <ele>978.52</ele>
        <time>2021-02-27T13:23:20Z</time>
      </trkpt>
      <trkpt lat="42.98455" lon="0.54974">
        <ele>977.438</ele>
        <time>2021-02-27T13:23:22Z</time>
      </trkpt>
      <trkpt lat="42.98453" lon="0.54975">
        <ele>973.335</ele>
        <time>2021-02-27T13:23:24Z</time>
      </trkpt>
      <trkpt lat="42.9845" lon="0.54979">
        <ele>971.451</ele>
        <time>2021-02-27T13:23:26Z</time>
      </trkpt>
      <trkpt lat="42.98447" lon="0.54984">
        <ele>971.894</ele>
        <time>2021-02-27T13:23:28Z</time>
      </trkpt>
      <trkpt lat="42.98444" lon="0.54988">
        <ele>971.296</ele>
        <time>2021-02-27T13:23:30Z</time>
      </trkpt>
      <trkpt lat="42.98441" lon="0.54993">
        <ele>971.204</ele>
        <time>2021-02-27T13:23:32Z</time>
      </trkpt>
      <trkpt lat="42.98438" lon="0.54995">
        <ele>967.273</ele>
        <time>2021-02-27T13:23:34Z</time>
      </trkpt>
      <trkpt lat="42.98435" lon="0.54996">
        <ele>966.335</ele>
        <time>2021-02-27T13:23:36Z</time>
      </trkpt>
      <trkpt lat="42.98433" lon="0.55">
        <ele>966.257</ele>
        <time>2021-02-27T13:23:38Z</time>
      </trkpt>
      <trkpt lat="42.9843" lon="0.55007">
        <ele>966.673</ele>
        <time>2021-02-27T13:23:40Z</time>
      </trkpt>
      <trkpt lat="42.98428" lon="0.55012">
        <ele>964.395</ele>
        <time>2021-02-27T13:23:42Z</time>
      </trkpt>
      <trkpt lat="42.98426" lon="0.55015">
        <ele>963.327</ele>
        <time>2021-02-27T13:23:44Z</time>
      </trkpt>
      <trkpt lat="42.98424" lon="0.55019">
        <ele>961.661</ele>
        <time>2021-02-27T13:23:46Z</time>
      </trkpt>
      <trkpt lat="42.98424" lon="0.55028">
        <ele>959.608</ele>
        <time>2021-02-27T13:23:48Z</time>
      </trkpt>
      <trkpt lat="42.98423" lon="0.55033">
        <ele>956.852</ele>
        <time>2021-02-27T13:23:50Z</time>
      </trkpt>
      <trkpt lat="42.98422" lon="0.55039">
        <ele>956.691</ele>
        <time>2021-02-27T13:23:52Z</time>
      </trkpt>
      <trkpt lat="42.98421" lon="0.55045">
        <ele>956.196</ele>
        <time>2021-02-27T13:23:54Z</time>
      </trkpt>
      <trkpt lat="42.9842" lon="0.55051">
        <ele>955.793</ele>
        <time>2021-02-27T13:23:56Z</time>
      </trkpt>
      <trkpt lat="42.98418" lon="0.55055">
        <ele>954.291</ele>
        <time>2021-02-27T13:23:58Z</time>
      </trkpt>
      <trkpt lat="42.98417" lon="0.55059">
        <ele>954.416</ele>
        <time>2021-02-27T13:24:00Z</time>
      </trkpt>
      <trkpt lat="42.98416" lon="0.55064">
        <ele>954.409</ele>
        <time>2021-02-27T13:24:02Z</time>
      </trkpt>
      <trkpt lat="42.98415" lon="0.5507">
        <ele>952.768</ele>
        <time>2021-02-27T13:24:04Z</time>
      </trkpt>
      <trkpt lat="42.98413" lon="0.55076">
        <ele>951.299</ele>
        <time>2021-02-27T13:24:06Z</time>
      </trkpt>
      <trkpt lat="42.98413" lon="0.5508">
        <ele>951.488</ele>
        <time>2021-02-27T13:24:08Z</time>
      </trkpt>
      <trkpt lat="42.98412" lon="0.55087">
        <ele>951.736</ele>
        <time>2021-02-27T13:24:10Z</time>
      </trkpt>
      <trkpt lat="42.98411" lon="0.55091">
        <ele>951.01</ele>
        <time>2021-02-27T13:24:12Z</time>
      </trkpt>
      <trkpt lat="42.98409" lon="0.55095">
        <ele>951.083</ele>
        <time>2021-02-27T13:24:14Z</time>
      </trkpt>
      <trkpt lat="42.98407" lon="0.55098">
        <ele>951.661</ele>
        <time>2021-02-27T13:24:16Z</time>
      </trkpt>
      <trkpt lat="42.98405" lon="0.55101">
        <ele>952.566</ele>
        <time>2021-02-27T13:24:18Z</time>
      </trkpt>
      <trkpt lat="42.98402" lon="0.55107">
        <ele>952.788</ele>
        <time>2021-02-27T13:24:20Z</time>
      </trkpt>
      <trkpt lat="42.984" lon="0.55112">
        <ele>953.715</ele>
        <time>2021-02-27T13:24:22Z</time>
      </trkpt>
      <trkpt lat="42.98398" lon="0.55117">
        <ele>953.941</ele>
        <time>2021-02-27T13:24:24Z</time>
      </trkpt>
      <trkpt lat="42.98395" lon="0.55119">
        <ele>950.708</ele>
        <time>2021-02-27T13:24:26Z</time>
      </trkpt>
      <trkpt lat="42.98392" lon="0.55116">
        <ele>946.611</ele>
        <time>2021-02-27T13:24:28Z</time>
      </trkpt>
      <trkpt lat="42.98391" lon="0.55124">
        <ele>947.809</ele>
        <time>2021-02-27T13:24:30Z</time>
      </trkpt>
      <trkpt lat="42.98389" lon="0.55128">
        <ele>945.812</ele>
        <time>2021-02-27T13:24:32Z</time>
      </trkpt>
      <trkpt lat="42.98387" lon="0.55132">
        <ele>945.121</ele>
        <time>2021-02-27T13:24:34Z</time>
      </trkpt>
      <trkpt lat="42.98384" lon="0.55135">
        <ele>942.824</ele>
        <time>2021-02-27T13:24:36Z</time>
      </trkpt>
      <trkpt lat="42.98382" lon="0.55138">
        <ele>941.674</ele>
        <time>2021-02-27T13:24:38Z</time>
      </trkpt>
      <trkpt lat="42.98381" lon="0.5514">
        <ele>941.133</ele>
        <time>2021-02-27T13:24:40Z</time>
      </trkpt>
      <trkpt lat="42.98379" lon="0.55142">
        <ele>939.737</ele>
        <time>2021-02-27T13:24:42Z</time>
      </trkpt>
      <trkpt lat="42.98376" lon="0.55144">
        <ele>937.454</ele>
        <time>2021-02-27T13:24:44Z</time>
      </trkpt>
      <trkpt lat="42.98373" lon="0.55147">
        <ele>935.88</ele>
        <time>2021-02-27T13:24:46Z</time>
      </trkpt>
      <trkpt lat="42.98369" lon="0.5515">
        <ele>936.602</ele>
        <time>2021-02-27T13:24:48Z</time>
      </trkpt>
      <trkpt lat="42.98365" lon="0.55154">
        <ele>937.912</ele>
        <time>2021-02-27T13:24:50Z</time>
      </trkpt>
      <trkpt lat="42.98363" lon="0.55158">
        <ele>936.027</ele>
        <time>2021-02-27T13:24:52Z</time>
      </trkpt>
      <trkpt lat="42.9836" lon="0.55161">
        <ele>936.42</ele>
        <time>2021-02-27T13:24:54Z</time>
      </trkpt>
      <trkpt lat="42.98357" lon="0.55165">
        <ele>937.768</ele>
        <time>2021-02-27T13:24:56Z</time>
      </trkpt>
      <trkpt lat="42.98353" lon="0.5517">
        <ele>939.187</ele>
        <time>2021-02-27T13:24:58Z</time>
      </trkpt>
      <trkpt lat="42.98349" lon="0.55173">
        <ele>939.426</ele>
        <time>2021-02-27T13:25:00Z</time>
      </trkpt>
      <trkpt lat="42.98346" lon="0.55176">
        <ele>936.424</ele>
        <time>2021-02-27T13:25:02Z</time>
      </trkpt>
      <trkpt lat="42.98343" lon="0.55179">
        <ele>935.936</ele>
        <time>2021-02-27T13:25:04Z</time>
      </trkpt>
      <trkpt lat="42.98339" lon="0.55182">
        <ele>936.198</ele>
        <time>2021-02-27T13:25:06Z</time>
      </trkpt>
      <trkpt lat="42.98335" lon="0.55186">
        <ele>935.473</ele>
        <time>2021-02-27T13:25:08Z</time>
      </trkpt>
      <trkpt lat="42.98331" lon="0.55189">
        <ele>934.694</ele>
        <time>2021-02-27T13:25:10Z</time>
      </trkpt>
      <trkpt lat="42.98325" lon="0.55194">
        <ele>933.63</ele>
        <time>2021-02-27T13:25:12Z</time>
      </trkpt>
      <trkpt lat="42.98321" lon="0.55199">
        <ele>933.101</ele>
        <time>2021-02-27T13:25:14Z</time>
      </trkpt>
      <trkpt lat="42.98317" lon="0.55206">
        <ele>931.723</ele>
        <time>2021-02-27T13:25:16Z</time>
      </trkpt>
      <trkpt lat="42.98314" lon="0.55214">
        <ele>928.438</ele>
        <time>2021-02-27T13:25:18Z</time>
      </trkpt>
      <trkpt lat="42.98313" lon="0.55222">
        <ele>925.962</ele>
        <time>2021-02-27T13:25:20Z</time>
      </trkpt>
      <trkpt lat="42.9831" lon="0.55228">
        <ele>922.438</ele>
        <time>2021-02-27T13:25:22Z</time>
      </trkpt>
      <trkpt lat="42.98307" lon="0.55233">
        <ele>922.11</ele>
        <time>2021-02-27T13:25:24Z</time>
      </trkpt>
      <trkpt lat="42.98305" lon="0.55236">
        <ele>921.834</ele>
        <time>2021-02-27T13:25:26Z</time>
      </trkpt>
      <trkpt lat="42.98304" lon="0.55244">
        <ele>920.131</ele>
        <time>2021-02-27T13:25:28Z</time>
      </trkpt>
      <trkpt lat="42.98302" lon="0.55248">
        <ele>916.291</ele>
        <time>2021-02-27T13:25:30Z</time>
      </trkpt>
      <trkpt lat="42.98298" lon="0.55252">
        <ele>913.769</ele>
        <time>2021-02-27T13:25:32Z</time>
      </trkpt>
      <trkpt lat="42.98295" lon="0.55256">
        <ele>913.218</ele>
        <time>2021-02-27T13:25:34Z</time>
      </trkpt>
      <trkpt lat="42.98292" lon="0.5526">
        <ele>912.207</ele>
        <time>2021-02-27T13:25:36Z</time>
      </trkpt>
      <trkpt lat="42.9829" lon="0.55263">
        <ele>909.56</ele>
        <time>2021-02-27T13:25:38Z</time>
      </trkpt>
      <trkpt lat="42.98288" lon="0.55266">
        <ele>908.499</ele>
        <time>2021-02-27T13:25:40Z</time>
      </trkpt>
      <trkpt lat="42.98286" lon="0.55269">
        <ele>907.034</ele>
        <time>2021-02-27T13:25:42Z</time>
      </trkpt>
      <trkpt lat="42.98284" lon="0.55273">
        <ele>905.179</ele>
        <time>2021-02-27T13:25:44Z</time>
      </trkpt>
      <trkpt lat="42.98283" lon="0.55276">
        <ele>904.539</ele>
        <time>2021-02-27T13:25:46Z</time>
      </trkpt>
      <trkpt lat="42.98281" lon="0.5528">
        <ele>904.944</ele>
        <time>2021-02-27T13:25:48Z</time>
      </trkpt>
      <trkpt lat="42.98279" lon="0.55285">
        <ele>906.563</ele>
        <time>2021-02-27T13:25:50Z</time>
      </trkpt>
      <trkpt lat="42.98277" lon="0.55289">
        <ele>905.345</ele>
        <time>2021-02-27T13:25:52Z</time>
      </trkpt>
      <trkpt lat="42.98275" lon="0.55292">
        <ele>903.231</ele>
        <time>2021-02-27T13:25:54Z</time>
      </trkpt>
      <trkpt lat="42.98273" lon="0.55295">
        <ele>902.27</ele>
        <time>2021-02-27T13:25:56Z</time>
      </trkpt>
      <trkpt lat="42.98272" lon="0.55297">
        <ele>900.265</ele>
        <time>2021-02-27T13:25:58Z</time>
      </trkpt>
      <trkpt lat="42.9827" lon="0.55303">
        <ele>899.959</ele>
        <time>2021-02-27T13:26:01Z</time>
      </trkpt>
      <trkpt lat="42.9827" lon="0.55307">
        <ele>898.269</ele>
        <time>2021-02-27T13:26:03Z</time>
      </trkpt>
      <trkpt lat="42.98269" lon="0.5531">
        <ele>897.296</ele>
        <time>2021-02-27T13:26:05Z</time>
      </trkpt>
      <trkpt lat="42.98267" lon="0.55312">
        <ele>897.487</ele>
        <time>2021-02-27T13:26:07Z</time>
      </trkpt>
      <trkpt lat="42.98266" lon="0.55313">
        <ele>893.705</ele>
        <time>2021-02-27T13:26:09Z</time>
      </trkpt>
      <trkpt lat="42.98264" lon="0.55316">
        <ele>892.875</ele>
        <time>2021-02-27T13:26:11Z</time>
      </trkpt>
      <trkpt lat="42.98263" lon="0.55317">
        <ele>892.416</ele>
        <time>2021-02-27T13:26:13Z</time>
      </trkpt>
      <trkpt lat="42.98263" lon="0.55321">
        <ele>892.356</ele>
        <time>2021-02-27T13:26:15Z</time>
      </trkpt>
      <trkpt lat="42.98261" lon="0.55322">
        <ele>891.625</ele>
        <time>2021-02-27T13:26:17Z</time>
      </trkpt>
      <trkpt lat="42.98259" lon="0.55325">
        <ele>890.832</ele>
        <time>2021-02-27T13:26:19Z</time>
      </trkpt>
      <trkpt lat="42.98257" lon="0.5533">
        <ele>889.214</ele>
        <time>2021-02-27T13:26:21Z</time>
      </trkpt>
      <trkpt lat="42.98256" lon="0.55336">
        <ele>886.671</ele>
        <time>2021-02-27T13:26:23Z</time>
      </trkpt>
      <trkpt lat="42.98254" lon="0.55341">
        <ele>885.598</ele>
        <time>2021-02-27T13:26:25Z</time>
      </trkpt>
      <trkpt lat="42.98252" lon="0.55342">
        <ele>883.473</ele>
        <time>2021-02-27T13:26:27Z</time>
      </trkpt>
      <trkpt lat="42.9825" lon="0.55345">
        <ele>884.111</ele>
        <time>2021-02-27T13:26:29Z</time>
      </trkpt>
      <trkpt lat="42.98248" lon="0.55347">
        <ele>882.19</ele>
        <time>2021-02-27T13:26:31Z</time>
      </trkpt>
      <trkpt lat="42.98247" lon="0.5535">
        <ele>880.52</ele>
        <time>2021-02-27T13:26:33Z</time>
      </trkpt>
      <trkpt lat="42.98245" lon="0.55354">
        <ele>879.885</ele>
        <time>2021-02-27T13:26:35Z</time>
      </trkpt>
      <trkpt lat="42.98243" lon="0.55358">
        <ele>879.156</ele>
        <time>2021-02-27T13:26:37Z</time>
      </trkpt>
      <trkpt lat="42.98242" lon="0.55361">
        <ele>878.327</ele>
        <time>2021-02-27T13:26:39Z</time>
      </trkpt>
      <trkpt lat="42.9824" lon="0.55364">
        <ele>877.738</ele>
        <time>2021-02-27T13:26:41Z</time>
      </trkpt>
      <trkpt lat="42.98238" lon="0.55367">
        <ele>875.749</ele>
        <time>2021-02-27T13:26:43Z</time>
      </trkpt>
      <trkpt lat="42.98236" lon="0.55369">
        <ele>874.476</ele>
        <time>2021-02-27T13:26:45Z</time>
      </trkpt>
      <trkpt lat="42.98234" lon="0.55373">
        <ele>873.567</ele>
        <time>2021-02-27T13:26:47Z</time>
      </trkpt>
      <trkpt lat="42.98232" lon="0.55376">
        <ele>872.35</ele>
        <time>2021-02-27T13:26:49Z</time>
      </trkpt>
      <trkpt lat="42.98231" lon="0.55379">
        <ele>869.437</ele>
        <time>2021-02-27T13:26:51Z</time>
      </trkpt>
      <trkpt lat="42.98229" lon="0.55383">
        <ele>868.104</ele>
        <time>2021-02-27T13:26:53Z</time>
      </trkpt>
      <trkpt lat="42.98227" lon="0.55386">
        <ele>866.772</ele>
        <time>2021-02-27T13:26:55Z</time>
      </trkpt>
      <trkpt lat="42.98225" lon="0.5539">
        <ele>867.537</ele>
        <time>2021-02-27T13:26:57Z</time>
      </trkpt>
      <trkpt lat="42.98223" lon="0.55395">
        <ele>869.367</ele>
        <time>2021-02-27T13:26:59Z</time>
      </trkpt>
      <trkpt lat="42.98221" lon="0.55397">
        <ele>868.298</ele>
        <time>2021-02-27T13:27:01Z</time>
      </trkpt>
      <trkpt lat="42.98218" lon="0.554">
        <ele>867.482</ele>
        <time>2021-02-27T13:27:03Z</time>
      </trkpt>
      <trkpt lat="42.98215" lon="0.55405">
        <ele>866.46</ele>
        <time>2021-02-27T13:27:05Z</time>
      </trkpt>
      <trkpt lat="42.98213" lon="0.5541">
        <ele>865.861</ele>
        <time>2021-02-27T13:27:07Z</time>
      </trkpt>
      <trkpt lat="42.98211" lon="0.55413">
        <ele>864.757</ele>
        <time>2021-02-27T13:27:09Z</time>
      </trkpt>
      <trkpt lat="42.98209" lon="0.55418">
        <ele>863.735</ele>
        <time>2021-02-27T13:27:11Z</time>
      </trkpt>
      <trkpt lat="42.98207" lon="0.55421">
        <ele>862.297</ele>
        <time>2021-02-27T13:27:13Z</time>
      </trkpt>
      <trkpt lat="42.98205" lon="0.55424">
        <ele>861.766</ele>
        <time>2021-02-27T13:27:15Z</time>
      </trkpt>
      <trkpt lat="42.98204" lon="0.55429">
        <ele>860.502</ele>
        <time>2021-02-27T13:27:17Z</time>
      </trkpt>
      <trkpt lat="42.98203" lon="0.55433">
        <ele>858.029</ele>
        <time>2021-02-27T13:27:19Z</time>
      </trkpt>
      <trkpt lat="42.98201" lon="0.55436">
        <ele>857.76</ele>
        <time>2021-02-27T13:27:21Z</time>
      </trkpt>
      <trkpt lat="42.98199" lon="0.55442">
        <ele>859.655</ele>
        <time>2021-02-27T13:27:23Z</time>
      </trkpt>
      <trkpt lat="42.98197" lon="0.55445">
        <ele>856.903</ele>
        <time>2021-02-27T13:27:25Z</time>
      </trkpt>
      <trkpt lat="42.98195" lon="0.55449">
        <ele>856.377</ele>
        <time>2021-02-27T13:27:27Z</time>
      </trkpt>
      <trkpt lat="42.98193" lon="0.55452">
        <ele>855.236</ele>
        <time>2021-02-27T13:27:29Z</time>
      </trkpt>
      <trkpt lat="42.98191" lon="0.55454">
        <ele>854.819</ele>
        <time>2021-02-27T13:27:31Z</time>
      </trkpt>
      <trkpt lat="42.98189" lon="0.55456">
        <ele>852.649</ele>
        <time>2021-02-27T13:27:33Z</time>
      </trkpt>
      <trkpt lat="42.98187" lon="0.55461">
        <ele>852.925</ele>
        <time>2021-02-27T13:27:35Z</time>
      </trkpt>
      <trkpt lat="42.98186" lon="0.55466">
        <ele>852.985</ele>
        <time>2021-02-27T13:27:37Z</time>
      </trkpt>
      <trkpt lat="42.98184" lon="0.55472">
        <ele>853.921</ele>
        <time>2021-02-27T13:27:39Z</time>
      </trkpt>
      <trkpt lat="42.98184" lon="0.55477">
        <ele>854.31</ele>
        <time>2021-02-27T13:27:41Z</time>
      </trkpt>
      <trkpt lat="42.98183" lon="0.55482">
        <ele>854.461</ele>
        <time>2021-02-27T13:27:43Z</time>
      </trkpt>
      <trkpt lat="42.98182" lon="0.55486">
        <ele>853.216</ele>
        <time>2021-02-27T13:27:45Z</time>
      </trkpt>
      <trkpt lat="42.98181" lon="0.5549">
        <ele>852.113</ele>
        <time>2021-02-27T13:27:47Z</time>
      </trkpt>
      <trkpt lat="42.98179" lon="0.55493">
        <ele>851.586</ele>
        <time>2021-02-27T13:27:49Z</time>
      </trkpt>
      <trkpt lat="42.98178" lon="0.55498">
        <ele>852.43</ele>
        <time>2021-02-27T13:27:51Z</time>
      </trkpt>
      <trkpt lat="42.98177" lon="0.55504">
        <ele>853.392</ele>
        <time>2021-02-27T13:27:53Z</time>
      </trkpt>
      <trkpt lat="42.98176" lon="0.5551">
        <ele>854.907</ele>
        <time>2021-02-27T13:27:55Z</time>
      </trkpt>
      <trkpt lat="42.98175" lon="0.55515">
        <ele>854.829</ele>
        <time>2021-02-27T13:27:57Z</time>
      </trkpt>
      <trkpt lat="42.98174" lon="0.55519">
        <ele>853.966</ele>
        <time>2021-02-27T13:27:59Z</time>
      </trkpt>
      <trkpt lat="42.98172" lon="0.55523">
        <ele>851.427</ele>
        <time>2021-02-27T13:28:01Z</time>
      </trkpt>
      <trkpt lat="42.98171" lon="0.55527">
        <ele>849.808</ele>
        <time>2021-02-27T13:28:03Z</time>
      </trkpt>
      <trkpt lat="42.9817" lon="0.5553">
        <ele>848.756</ele>
        <time>2021-02-27T13:28:05Z</time>
      </trkpt>
      <trkpt lat="42.98168" lon="0.55534">
        <ele>849.185</ele>
        <time>2021-02-27T13:28:07Z</time>
      </trkpt>
      <trkpt lat="42.98167" lon="0.55538">
        <ele>847.32</ele>
        <time>2021-02-27T13:28:09Z</time>
      </trkpt>
      <trkpt lat="42.98165" lon="0.55541">
        <ele>845.666</ele>
        <time>2021-02-27T13:28:11Z</time>
      </trkpt>
      <trkpt lat="42.98164" lon="0.55546">
        <ele>845.439</ele>
        <time>2021-02-27T13:28:13Z</time>
      </trkpt>
      <trkpt lat="42.98164" lon="0.5555">
        <ele>845.008</ele>
        <time>2021-02-27T13:28:15Z</time>
      </trkpt>
      <trkpt lat="42.98163" lon="0.55555">
        <ele>844.295</ele>
        <time>2021-02-27T13:28:18Z</time>
      </trkpt>
      <trkpt lat="42.98162" lon="0.55559">
        <ele>845.209</ele>
        <time>2021-02-27T13:28:20Z</time>
      </trkpt>
      <trkpt lat="42.98161" lon="0.55563">
        <ele>844.363</ele>
        <time>2021-02-27T13:28:22Z</time>
      </trkpt>
      <trkpt lat="42.9816" lon="0.55568">
        <ele>843.311</ele>
        <time>2021-02-27T13:28:24Z</time>
      </trkpt>
      <trkpt lat="42.98159" lon="0.55573">
        <ele>843.166</ele>
        <time>2021-02-27T13:28:26Z</time>
      </trkpt>
      <trkpt lat="42.98158" lon="0.55575">
        <ele>842.236</ele>
        <time>2021-02-27T13:28:28Z</time>
      </trkpt>
      <trkpt lat="42.98156" lon="0.55578">
        <ele>841.153</ele>
        <time>2021-02-27T13:28:30Z</time>
      </trkpt>
      <trkpt lat="42.98155" lon="0.55581">
        <ele>840.917</ele>
        <time>2021-02-27T13:28:32Z</time>
      </trkpt>
      <trkpt lat="42.98155" lon="0.55585">
        <ele>840.198</ele>
        <time>2021-02-27T13:28:34Z</time>
      </trkpt>
      <trkpt lat="42.98154" lon="0.55589">
        <ele>840.611</ele>
        <time>2021-02-27T13:28:36Z</time>
      </trkpt>
      <trkpt lat="42.98153" lon="0.55592">
        <ele>839.226</ele>
        <time>2021-02-27T13:28:38Z</time>
      </trkpt>
      <trkpt lat="42.98153" lon="0.55596">
        <ele>838.659</ele>
        <time>2021-02-27T13:28:40Z</time>
      </trkpt>
      <trkpt lat="42.98153" lon="0.556">
        <ele>836.63</ele>
        <time>2021-02-27T13:28:42Z</time>
      </trkpt>
      <trkpt lat="42.98152" lon="0.55605">
        <ele>835.402</ele>
        <time>2021-02-27T13:28:44Z</time>
      </trkpt>
      <trkpt lat="42.98151" lon="0.5561">
        <ele>835.456</ele>
        <time>2021-02-27T13:28:46Z</time>
      </trkpt>
      <trkpt lat="42.9815" lon="0.55613">
        <ele>835.648</ele>
        <time>2021-02-27T13:28:48Z</time>
      </trkpt>
      <trkpt lat="42.98148" lon="0.55617">
        <ele>835.86</ele>
        <time>2021-02-27T13:28:50Z</time>
      </trkpt>
      <trkpt lat="42.98147" lon="0.5562">
        <ele>835.497</ele>
        <time>2021-02-27T13:28:52Z</time>
      </trkpt>
      <trkpt lat="42.98145" lon="0.55623">
        <ele>835.038</ele>
        <time>2021-02-27T13:28:54Z</time>
      </trkpt>
      <trkpt lat="42.98144" lon="0.55627">
        <ele>833.026</ele>
        <time>2021-02-27T13:28:56Z</time>
      </trkpt>
      <trkpt lat="42.98143" lon="0.55633">
        <ele>832.54</ele>
        <time>2021-02-27T13:28:58Z</time>
      </trkpt>
      <trkpt lat="42.98142" lon="0.55639">
        <ele>832.722</ele>
        <time>2021-02-27T13:29:00Z</time>
      </trkpt>
      <trkpt lat="42.98141" lon="0.55643">
        <ele>832.482</ele>
        <time>2021-02-27T13:29:02Z</time>
      </trkpt>
      <trkpt lat="42.9814" lon="0.55645">
        <ele>831.484</ele>
        <time>2021-02-27T13:29:04Z</time>
      </trkpt>
      <trkpt lat="42.98138" lon="0.5565">
        <ele>831.848</ele>
        <time>2021-02-27T13:29:06Z</time>
      </trkpt>
      <trkpt lat="42.98137" lon="0.55654">
        <ele>831.28</ele>
        <time>2021-02-27T13:29:08Z</time>
      </trkpt>
      <trkpt lat="42.98137" lon="0.55658">
        <ele>832.176</ele>
        <time>2021-02-27T13:29:10Z</time>
      </trkpt>
      <trkpt lat="42.98136" lon="0.55662">
        <ele>830.512</ele>
        <time>2021-02-27T13:29:12Z</time>
      </trkpt>
      <trkpt lat="42.98135" lon="0.55666">
        <ele>829.95</ele>
        <time>2021-02-27T13:29:14Z</time>
      </trkpt>
      <trkpt lat="42.98134" lon="0.5567">
        <ele>829.173</ele>
        <time>2021-02-27T13:29:16Z</time>
      </trkpt>
      <trkpt lat="42.98132" lon="0.55673">
        <ele>830.121</ele>
        <time>2021-02-27T13:29:18Z</time>
      </trkpt>
      <trkpt lat="42.98132" lon="0.55677">
        <ele>829.133</ele>
        <time>2021-02-27T13:29:20Z</time>
      </trkpt>
      <trkpt lat="42.98131" lon="0.55682">
        <ele>829.007</ele>
        <time>2021-02-27T13:29:22Z</time>
      </trkpt>
      <trkpt lat="42.9813" lon="0.55687">
        <ele>829.568</ele>
        <time>2021-02-27T13:29:24Z</time>
      </trkpt>
      <trkpt lat="42.98129" lon="0.55692">
        <ele>829.786</ele>
        <time>2021-02-27T13:29:26Z</time>
      </trkpt>
      <trkpt lat="42.98129" lon="0.55696">
        <ele>827.812</ele>
        <time>2021-02-27T13:29:28Z</time>
      </trkpt>
      <trkpt lat="42.98128" lon="0.55701">
        <ele>827.724</ele>
        <time>2021-02-27T13:29:30Z</time>
      </trkpt>
      <trkpt lat="42.98127" lon="0.55707">
        <ele>828.04</ele>
        <time>2021-02-27T13:29:32Z</time>
      </trkpt>
      <trkpt lat="42.98126" lon="0.55711">
        <ele>827.224</ele>
        <time>2021-02-27T13:29:34Z</time>
      </trkpt>
      <trkpt lat="42.98124" lon="0.55713">
        <ele>823.871</ele>
        <time>2021-02-27T13:29:36Z</time>
      </trkpt>
      <trkpt lat="42.98123" lon="0.55717">
        <ele>821.329</ele>
        <time>2021-02-27T13:29:38Z</time>
      </trkpt>
      <trkpt lat="42.98123" lon="0.55722">
        <ele>821.516</ele>
        <time>2021-02-27T13:29:40Z</time>
      </trkpt>
      <trkpt lat="42.98123" lon="0.55726">
        <ele>821.223</ele>
        <time>2021-02-27T13:29:42Z</time>
      </trkpt>
      <trkpt lat="42.98122" lon="0.55728">
        <ele>820.229</ele>
        <time>2021-02-27T13:29:44Z</time>
      </trkpt>
      <trkpt lat="42.98121" lon="0.55733">
        <ele>819.122</ele>
        <time>2021-02-27T13:29:46Z</time>
      </trkpt>
      <trkpt lat="42.9812" lon="0.55736">
        <ele>817.101</ele>
        <time>2021-02-27T13:29:48Z</time>
      </trkpt>
      <trkpt lat="42.98119" lon="0.5574">
        <ele>815.769</ele>
        <time>2021-02-27T13:29:50Z</time>
      </trkpt>
      <trkpt lat="42.98119" lon="0.55743">
        <ele>815.083</ele>
        <time>2021-02-27T13:29:52Z</time>
      </trkpt>
      <trkpt lat="42.98118" lon="0.55743">
        <ele>812.673</ele>
        <time>2021-02-27T13:29:54Z</time>
      </trkpt>
      <trkpt lat="42.98116" lon="0.55743">
        <ele>811.512</ele>
        <time>2021-02-27T13:29:56Z</time>
      </trkpt>
      <trkpt lat="42.98115" lon="0.55747">
        <ele>810.802</ele>
        <time>2021-02-27T13:29:58Z</time>
      </trkpt>
      <trkpt lat="42.98113" lon="0.5575">
        <ele>809.515</ele>
        <time>2021-02-27T13:30:00Z</time>
      </trkpt>
      <trkpt lat="42.98111" lon="0.55753">
        <ele>808.489</ele>
        <time>2021-02-27T13:30:02Z</time>
      </trkpt>
      <trkpt lat="42.98111" lon="0.55755">
        <ele>807.853</ele>
        <time>2021-02-27T13:30:04Z</time>
      </trkpt>
      <trkpt lat="42.98109" lon="0.55759">
        <ele>807.13</ele>
        <time>2021-02-27T13:30:06Z</time>
      </trkpt>
      <trkpt lat="42.98108" lon="0.55764">
        <ele>807.542</ele>
        <time>2021-02-27T13:30:08Z</time>
      </trkpt>
      <trkpt lat="42.98107" lon="0.55768">
        <ele>806.899</ele>
        <time>2021-02-27T13:30:10Z</time>
      </trkpt>
      <trkpt lat="42.98106" lon="0.55772">
        <ele>804.735</ele>
        <time>2021-02-27T13:30:12Z</time>
      </trkpt>
      <trkpt lat="42.98105" lon="0.55775">
        <ele>804.506</ele>
        <time>2021-02-27T13:30:14Z</time>
      </trkpt>
      <trkpt lat="42.98104" lon="0.55779">
        <ele>803.272</ele>
        <time>2021-02-27T13:30:16Z</time>
      </trkpt>
      <trkpt lat="42.98102" lon="0.55783">
        <ele>803.459</ele>
        <time>2021-02-27T13:30:18Z</time>
      </trkpt>
      <trkpt lat="42.98101" lon="0.55789">
        <ele>802.789</ele>
        <time>2021-02-27T13:30:20Z</time>
      </trkpt>
      <trkpt lat="42.98101" lon="0.55795">
        <ele>802.65</ele>
        <time>2021-02-27T13:30:22Z</time>
      </trkpt>
      <trkpt lat="42.981" lon="0.558">
        <ele>802.821</ele>
        <time>2021-02-27T13:30:24Z</time>
      </trkpt>
      <trkpt lat="42.98099" lon="0.55803">
        <ele>801.902</ele>
        <time>2021-02-27T13:30:26Z</time>
      </trkpt>
      <trkpt lat="42.98098" lon="0.55808">
        <ele>801.511</ele>
        <time>2021-02-27T13:30:28Z</time>
      </trkpt>
      <trkpt lat="42.98097" lon="0.55812">
        <ele>801.581</ele>
        <time>2021-02-27T13:30:30Z</time>
      </trkpt>
      <trkpt lat="42.98096" lon="0.55816">
        <ele>801.742</ele>
        <time>2021-02-27T13:30:32Z</time>
      </trkpt>
      <trkpt lat="42.98095" lon="0.5582">
        <ele>801.334</ele>
        <time>2021-02-27T13:30:34Z</time>
      </trkpt>
      <trkpt lat="42.98094" lon="0.55824">
        <ele>800.672</ele>
        <time>2021-02-27T13:30:36Z</time>
      </trkpt>
      <trkpt lat="42.98092" lon="0.55828">
        <ele>798.719</ele>
        <time>2021-02-27T13:30:38Z</time>
      </trkpt>
      <trkpt lat="42.98091" lon="0.55833">
        <ele>796.984</ele>
        <time>2021-02-27T13:30:40Z</time>
      </trkpt>
      <trkpt lat="42.9809" lon="0.55837">
        <ele>797.129</ele>
        <time>2021-02-27T13:30:42Z</time>
      </trkpt>
      <trkpt lat="42.98088" lon="0.55842">
        <ele>796.519</ele>
        <time>2021-02-27T13:30:44Z</time>
      </trkpt>
      <trkpt lat="42.98087" lon="0.55846">
        <ele>796.581</ele>
        <time>2021-02-27T13:30:46Z</time>
      </trkpt>
      <trkpt lat="42.98086" lon="0.5585">
        <ele>796.041</ele>
        <time>2021-02-27T13:30:48Z</time>
      </trkpt>
      <trkpt lat="42.98085" lon="0.55854">
        <ele>795.628</ele>
        <time>2021-02-27T13:30:50Z</time>
      </trkpt>
      <trkpt lat="42.98084" lon="0.5586">
        <ele>795.971</ele>
        <time>2021-02-27T13:30:52Z</time>
      </trkpt>
      <trkpt lat="42.98083" lon="0.55862">
        <ele>794.036</ele>
        <time>2021-02-27T13:30:54Z</time>
      </trkpt>
      <trkpt lat="42.98081" lon="0.55866">
        <ele>793.226</ele>
        <time>2021-02-27T13:30:56Z</time>
      </trkpt>
      <trkpt lat="42.98081" lon="0.5587">
        <ele>793.319</ele>
        <time>2021-02-27T13:30:58Z</time>
      </trkpt>
      <trkpt lat="42.9808" lon="0.55873">
        <ele>793.351</ele>
        <time>2021-02-27T13:31:00Z</time>
      </trkpt>
      <trkpt lat="42.9808" lon="0.55876">
        <ele>793.478</ele>
        <time>2021-02-27T13:31:02Z</time>
      </trkpt>
      <trkpt lat="42.9808" lon="0.55879">
        <ele>795.038</ele>
        <time>2021-02-27T13:31:04Z</time>
      </trkpt>
      <trkpt lat="42.9808" lon="0.55881">
        <ele>795.911</ele>
        <time>2021-02-27T13:31:06Z</time>
      </trkpt>
      <trkpt lat="42.98079" lon="0.55883">
        <ele>797.154</ele>
        <time>2021-02-27T13:31:08Z</time>
      </trkpt>
      <trkpt lat="42.98079" lon="0.55883">
        <ele>795.938</ele>
        <time>2021-02-27T13:31:10Z</time>
      </trkpt>
      <trkpt lat="42.9808" lon="0.55883">
        <ele>796.134</ele>
        <time>2021-02-27T13:31:12Z</time>
      </trkpt>
      <trkpt lat="42.98079" lon="0.55885">
        <ele>795.684</ele>
        <time>2021-02-27T13:31:14Z</time>
      </trkpt>
      <trkpt lat="42.98079" lon="0.55885">
        <ele>795.747</ele>
        <time>2021-02-27T13:31:16Z</time>
      </trkpt>
      <trkpt lat="42.98079" lon="0.55885">
        <ele>795.779</ele>
        <time>2021-02-27T13:31:18Z</time>
      </trkpt>
      <trkpt lat="42.98079" lon="0.55885">
        <ele>795.809</ele>
        <time>2021-02-27T13:31:20Z</time>
      </trkpt>
      <trkpt lat="42.98079" lon="0.55885">
        <ele>795.852</ele>
        <time>2021-02-27T13:31:22Z</time>
      </trkpt>
      <trkpt lat="42.98079" lon="0.55885">
        <ele>795.864</ele>
        <time>2021-02-27T13:31:24Z</time>
      </trkpt>
      <trkpt lat="42.98079" lon="0.55885">
        <ele>795.89</ele>
        <time>2021-02-27T13:31:26Z</time>
      </trkpt>
      <trkpt lat="42.98079" lon="0.55885">
        <ele>795.909</ele>
        <time>2021-02-27T13:31:28Z</time>
      </trkpt>
      <trkpt lat="42.98079" lon="0.55884">
        <ele>795.888</ele>
        <time>2021-02-27T13:31:31Z</time>
      </trkpt>
      <trkpt lat="42.98079" lon="0.55884">
        <ele>795.88</ele>
        <time>2021-02-27T13:31:33Z</time>
      </trkpt>
      <trkpt lat="42.9808" lon="0.55884">
        <ele>796.288</ele>
        <time>2021-02-27T13:31:36Z</time>
      </trkpt>
      <trkpt lat="42.9808" lon="0.55884">
        <ele>796.327</ele>
        <time>2021-02-27T13:31:38Z</time>
      </trkpt>
      <trkpt lat="42.9808" lon="0.55884">
        <ele>796.356</ele>
        <time>2021-02-27T13:31:40Z</time>
      </trkpt>
      <trkpt lat="42.9808" lon="0.55884">
        <ele>796.917</ele>
        <time>2021-02-27T13:31:42Z</time>
      </trkpt>
      <trkpt lat="42.9808" lon="0.55884">
        <ele>796.232</ele>
        <time>2021-02-27T13:31:44Z</time>
      </trkpt>
      <trkpt lat="42.98079" lon="0.55885">
        <ele>794.585</ele>
        <time>2021-02-27T13:31:46Z</time>
      </trkpt>
      <trkpt lat="42.98079" lon="0.55887">
        <ele>793.362</ele>
        <time>2021-02-27T13:31:48Z</time>
      </trkpt>
      <trkpt lat="42.98079" lon="0.55889">
        <ele>792.88</ele>
        <time>2021-02-27T13:31:50Z</time>
      </trkpt>
      <trkpt lat="42.98078" lon="0.55891">
        <ele>793.061</ele>
        <time>2021-02-27T13:31:52Z</time>
      </trkpt>
      <trkpt lat="42.98079" lon="0.55893">
        <ele>792.721</ele>
        <time>2021-02-27T13:31:54Z</time>
      </trkpt>
      <trkpt lat="42.98079" lon="0.55893">
        <ele>792.708</ele>
        <time>2021-02-27T13:31:56Z</time>
      </trkpt>
      <trkpt lat="42.98079" lon="0.55893">
        <ele>792.651</ele>
        <time>2021-02-27T13:31:58Z</time>
      </trkpt>
      <trkpt lat="42.98079" lon="0.55893">
        <ele>792.605</ele>
        <time>2021-02-27T13:32:00Z</time>
      </trkpt>
      <trkpt lat="42.98079" lon="0.55893">
        <ele>792.546</ele>
        <time>2021-02-27T13:32:02Z</time>
      </trkpt>
      <trkpt lat="42.98079" lon="0.55893">
        <ele>792.49</ele>
        <time>2021-02-27T13:32:04Z</time>
      </trkpt>
      <trkpt lat="42.98079" lon="0.55893">
        <ele>792.466</ele>
        <time>2021-02-27T13:32:06Z</time>
      </trkpt>
      <trkpt lat="42.98079" lon="0.55893">
        <ele>792.43</ele>
        <time>2021-02-27T13:32:08Z</time>
      </trkpt>
      <trkpt lat="42.98079" lon="0.55893">
        <ele>792.406</ele>
        <time>2021-02-27T13:32:10Z</time>
      </trkpt>
      <trkpt lat="42.98079" lon="0.55893">
        <ele>792.37</ele>
        <time>2021-02-27T13:32:12Z</time>
      </trkpt>
      <trkpt lat="42.98079" lon="0.55893">
        <ele>792.344</ele>
        <time>2021-02-27T13:32:14Z</time>
      </trkpt>
      <trkpt lat="42.98079" lon="0.55893">
        <ele>792.33</ele>
        <time>2021-02-27T13:32:16Z</time>
      </trkpt>
      <trkpt lat="42.98079" lon="0.55893">
        <ele>792.321</ele>
        <time>2021-02-27T13:32:18Z</time>
      </trkpt>
      <trkpt lat="42.98079" lon="0.55893">
        <ele>792.323</ele>
        <time>2021-02-27T13:32:20Z</time>
      </trkpt>
      <trkpt lat="42.98079" lon="0.55893">
        <ele>792.345</ele>
        <time>2021-02-27T13:32:22Z</time>
      </trkpt>
      <trkpt lat="42.98079" lon="0.55893">
        <ele>792.338</ele>
        <time>2021-02-27T13:32:24Z</time>
      </trkpt>
      <trkpt lat="42.98079" lon="0.55893">
        <ele>792.325</ele>
        <time>2021-02-27T13:32:26Z</time>
      </trkpt>
      <trkpt lat="42.98079" lon="0.55893">
        <ele>792.32</ele>
        <time>2021-02-27T13:32:28Z</time>
      </trkpt>
      <trkpt lat="42.98079" lon="0.55893">
        <ele>792.366</ele>
        <time>2021-02-27T13:32:30Z</time>
      </trkpt>
      <trkpt lat="42.98079" lon="0.55893">
        <ele>792.409</ele>
        <time>2021-02-27T13:32:32Z</time>
      </trkpt>
      <trkpt lat="42.98079" lon="0.55893">
        <ele>792.411</ele>
        <time>2021-02-27T13:32:34Z</time>
      </trkpt>
      <trkpt lat="42.98079" lon="0.55893">
        <ele>792.406</ele>
        <time>2021-02-27T13:32:36Z</time>
      </trkpt>
      <trkpt lat="42.98079" lon="0.55894">
        <ele>792.412</ele>
        <time>2021-02-27T13:32:38Z</time>
      </trkpt>
      <trkpt lat="42.98079" lon="0.55894">
        <ele>792.412</ele>
        <time>2021-02-27T13:32:40Z</time>
      </trkpt>
      <trkpt lat="42.98079" lon="0.55894">
        <ele>792.421</ele>
        <time>2021-02-27T13:32:42Z</time>
      </trkpt>
      <trkpt lat="42.98079" lon="0.55894">
        <ele>792.429</ele>
        <time>2021-02-27T13:32:44Z</time>
      </trkpt>
      <trkpt lat="42.98079" lon="0.55894">
        <ele>792.441</ele>
        <time>2021-02-27T13:32:46Z</time>
      </trkpt>
      <trkpt lat="42.98078" lon="0.55896">
        <ele>792.738</ele>
        <time>2021-02-27T13:32:48Z</time>
      </trkpt>
      <trkpt lat="42.98076" lon="0.55897">
        <ele>791.222</ele>
        <time>2021-02-27T13:32:50Z</time>
      </trkpt>
      <trkpt lat="42.98075" lon="0.55898">
        <ele>789.097</ele>
        <time>2021-02-27T13:32:52Z</time>
      </trkpt>
      <trkpt lat="42.98074" lon="0.559">
        <ele>787.188</ele>
        <time>2021-02-27T13:32:54Z</time>
      </trkpt>
      <trkpt lat="42.98073" lon="0.55902">
        <ele>786.747</ele>
        <time>2021-02-27T13:32:56Z</time>
      </trkpt>
      <trkpt lat="42.98072" lon="0.55904">
        <ele>786.905</ele>
        <time>2021-02-27T13:32:58Z</time>
      </trkpt>
      <trkpt lat="42.9807" lon="0.55906">
        <ele>787.496</ele>
        <time>2021-02-27T13:33:00Z</time>
      </trkpt>
      <trkpt lat="42.98069" lon="0.55908">
        <ele>787.356</ele>
        <time>2021-02-27T13:33:02Z</time>
      </trkpt>
      <trkpt lat="42.98069" lon="0.5591">
        <ele>787.516</ele>
        <time>2021-02-27T13:33:04Z</time>
      </trkpt>
      <trkpt lat="42.98069" lon="0.55913">
        <ele>786.21</ele>
        <time>2021-02-27T13:33:06Z</time>
      </trkpt>
      <trkpt lat="42.98068" lon="0.55915">
        <ele>785.031</ele>
        <time>2021-02-27T13:33:08Z</time>
      </trkpt>
      <trkpt lat="42.98068" lon="0.55918">
        <ele>785.962</ele>
        <time>2021-02-27T13:33:10Z</time>
      </trkpt>
      <trkpt lat="42.98067" lon="0.55921">
        <ele>785.966</ele>
        <time>2021-02-27T13:33:12Z</time>
      </trkpt>
      <trkpt lat="42.98066" lon="0.55923">
        <ele>784.951</ele>
        <time>2021-02-27T13:33:14Z</time>
      </trkpt>
      <trkpt lat="42.98065" lon="0.55927">
        <ele>784.357</ele>
        <time>2021-02-27T13:33:16Z</time>
      </trkpt>
      <trkpt lat="42.98064" lon="0.55929">
        <ele>784.189</ele>
        <time>2021-02-27T13:33:18Z</time>
      </trkpt>
      <trkpt lat="42.98063" lon="0.55932">
        <ele>784.446</ele>
        <time>2021-02-27T13:33:20Z</time>
      </trkpt>
      <trkpt lat="42.98061" lon="0.55934">
        <ele>783.854</ele>
        <time>2021-02-27T13:33:22Z</time>
      </trkpt>
      <trkpt lat="42.98061" lon="0.55936">
        <ele>783.403</ele>
        <time>2021-02-27T13:33:24Z</time>
      </trkpt>
      <trkpt lat="42.98059" lon="0.55938">
        <ele>781.464</ele>
        <time>2021-02-27T13:33:26Z</time>
      </trkpt>
      <trkpt lat="42.98058" lon="0.5594">
        <ele>781.5</ele>
        <time>2021-02-27T13:33:28Z</time>
      </trkpt>
      <trkpt lat="42.98057" lon="0.55942">
        <ele>782.019</ele>
        <time>2021-02-27T13:33:30Z</time>
      </trkpt>
      <trkpt lat="42.98055" lon="0.55944">
        <ele>780.551</ele>
        <time>2021-02-27T13:33:32Z</time>
      </trkpt>
      <trkpt lat="42.98053" lon="0.55947">
        <ele>780.213</ele>
        <time>2021-02-27T13:33:34Z</time>
      </trkpt>
      <trkpt lat="42.98051" lon="0.55951">
        <ele>780.07</ele>
        <time>2021-02-27T13:33:36Z</time>
      </trkpt>
      <trkpt lat="42.9805" lon="0.55954">
        <ele>780.027</ele>
        <time>2021-02-27T13:33:38Z</time>
      </trkpt>
      <trkpt lat="42.98048" lon="0.55956">
        <ele>778.614</ele>
        <time>2021-02-27T13:33:40Z</time>
      </trkpt>
      <trkpt lat="42.98047" lon="0.55958">
        <ele>777.836</ele>
        <time>2021-02-27T13:33:42Z</time>
      </trkpt>
      <trkpt lat="42.98045" lon="0.55961">
        <ele>776.182</ele>
        <time>2021-02-27T13:33:44Z</time>
      </trkpt>
      <trkpt lat="42.98043" lon="0.55963">
        <ele>773.787</ele>
        <time>2021-02-27T13:33:46Z</time>
      </trkpt>
      <trkpt lat="42.98042" lon="0.55965">
        <ele>773.735</ele>
        <time>2021-02-27T13:33:48Z</time>
      </trkpt>
      <trkpt lat="42.9804" lon="0.55968">
        <ele>773.975</ele>
        <time>2021-02-27T13:33:50Z</time>
      </trkpt>
      <trkpt lat="42.98039" lon="0.55971">
        <ele>774.575</ele>
        <time>2021-02-27T13:33:52Z</time>
      </trkpt>
      <trkpt lat="42.9804" lon="0.55977">
        <ele>775.738</ele>
        <time>2021-02-27T13:33:54Z</time>
      </trkpt>
      <trkpt lat="42.98039" lon="0.5598">
        <ele>775.489</ele>
        <time>2021-02-27T13:33:56Z</time>
      </trkpt>
      <trkpt lat="42.98038" lon="0.55983">
        <ele>774.838</ele>
        <time>2021-02-27T13:33:58Z</time>
      </trkpt>
      <trkpt lat="42.98037" lon="0.55986">
        <ele>774.148</ele>
        <time>2021-02-27T13:34:00Z</time>
      </trkpt>
      <trkpt lat="42.98035" lon="0.55989">
        <ele>773.116</ele>
        <time>2021-02-27T13:34:02Z</time>
      </trkpt>
      <trkpt lat="42.98034" lon="0.55992">
        <ele>772.442</ele>
        <time>2021-02-27T13:34:04Z</time>
      </trkpt>
      <trkpt lat="42.98032" lon="0.55995">
        <ele>771.372</ele>
        <time>2021-02-27T13:34:06Z</time>
      </trkpt>
      <trkpt lat="42.98031" lon="0.55997">
        <ele>771.641</ele>
        <time>2021-02-27T13:34:08Z</time>
      </trkpt>
      <trkpt lat="42.9803" lon="0.56001">
        <ele>770.172</ele>
        <time>2021-02-27T13:34:10Z</time>
      </trkpt>
      <trkpt lat="42.98029" lon="0.56004">
        <ele>769.441</ele>
        <time>2021-02-27T13:34:12Z</time>
      </trkpt>
      <trkpt lat="42.98027" lon="0.56008">
        <ele>768.98</ele>
        <time>2021-02-27T13:34:14Z</time>
      </trkpt>
      <trkpt lat="42.98027" lon="0.56011">
        <ele>767.949</ele>
        <time>2021-02-27T13:34:16Z</time>
      </trkpt>
      <trkpt lat="42.98026" lon="0.56015">
        <ele>766.951</ele>
        <time>2021-02-27T13:34:18Z</time>
      </trkpt>
      <trkpt lat="42.98025" lon="0.56018">
        <ele>767.571</ele>
        <time>2021-02-27T13:34:20Z</time>
      </trkpt>
      <trkpt lat="42.98024" lon="0.56022">
        <ele>768.139</ele>
        <time>2021-02-27T13:34:22Z</time>
      </trkpt>
      <trkpt lat="42.98024" lon="0.56026">
        <ele>766.165</ele>
        <time>2021-02-27T13:34:24Z</time>
      </trkpt>
      <trkpt lat="42.98023" lon="0.5603">
        <ele>765.301</ele>
        <time>2021-02-27T13:34:26Z</time>
      </trkpt>
      <trkpt lat="42.98023" lon="0.56034">
        <ele>764.153</ele>
        <time>2021-02-27T13:34:28Z</time>
      </trkpt>
      <trkpt lat="42.98022" lon="0.56038">
        <ele>763.243</ele>
        <time>2021-02-27T13:34:30Z</time>
      </trkpt>
      <trkpt lat="42.98021" lon="0.56041">
        <ele>763.057</ele>
        <time>2021-02-27T13:34:32Z</time>
      </trkpt>
      <trkpt lat="42.9802" lon="0.56045">
        <ele>762.39</ele>
        <time>2021-02-27T13:34:34Z</time>
      </trkpt>
      <trkpt lat="42.9802" lon="0.56049">
        <ele>762.306</ele>
        <time>2021-02-27T13:34:36Z</time>
      </trkpt>
      <trkpt lat="42.98021" lon="0.56053">
        <ele>760.26</ele>
        <time>2021-02-27T13:34:38Z</time>
      </trkpt>
      <trkpt lat="42.98021" lon="0.56058">
        <ele>760.177</ele>
        <time>2021-02-27T13:34:40Z</time>
      </trkpt>
      <trkpt lat="42.9802" lon="0.56063">
        <ele>760.334</ele>
        <time>2021-02-27T13:34:42Z</time>
      </trkpt>
      <trkpt lat="42.9802" lon="0.56067">
        <ele>759.473</ele>
        <time>2021-02-27T13:34:44Z</time>
      </trkpt>
      <trkpt lat="42.9802" lon="0.56071">
        <ele>758.659</ele>
        <time>2021-02-27T13:34:46Z</time>
      </trkpt>
      <trkpt lat="42.9802" lon="0.56076">
        <ele>757.716</ele>
        <time>2021-02-27T13:34:48Z</time>
      </trkpt>
      <trkpt lat="42.98021" lon="0.56081">
        <ele>757.158</ele>
        <time>2021-02-27T13:34:50Z</time>
      </trkpt>
      <trkpt lat="42.98022" lon="0.56085">
        <ele>756.354</ele>
        <time>2021-02-27T13:34:52Z</time>
      </trkpt>
      <trkpt lat="42.98022" lon="0.5609">
        <ele>755.426</ele>
        <time>2021-02-27T13:34:54Z</time>
      </trkpt>
      <trkpt lat="42.9802" lon="0.56089">
        <ele>751.901</ele>
        <time>2021-02-27T13:34:56Z</time>
      </trkpt>
      <trkpt lat="42.98018" lon="0.56086">
        <ele>752.695</ele>
        <time>2021-02-27T13:34:58Z</time>
      </trkpt>
      <trkpt lat="42.98018" lon="0.56086">
        <ele>752.726</ele>
        <time>2021-02-27T13:35:00Z</time>
      </trkpt>
      <trkpt lat="42.98018" lon="0.56086">
        <ele>752.796</ele>
        <time>2021-02-27T13:35:02Z</time>
      </trkpt>
      <trkpt lat="42.98018" lon="0.56087">
        <ele>752.827</ele>
        <time>2021-02-27T13:35:04Z</time>
      </trkpt>
      <trkpt lat="42.98018" lon="0.56088">
        <ele>751.462</ele>
        <time>2021-02-27T13:35:06Z</time>
      </trkpt>
      <trkpt lat="42.98018" lon="0.56092">
        <ele>752.172</ele>
        <time>2021-02-27T13:35:08Z</time>
      </trkpt>
      <trkpt lat="42.98019" lon="0.56096">
        <ele>750.973</ele>
        <time>2021-02-27T13:35:10Z</time>
      </trkpt>
      <trkpt lat="42.98019" lon="0.56103">
        <ele>750.773</ele>
        <time>2021-02-27T13:35:13Z</time>
      </trkpt>
      <trkpt lat="42.98019" lon="0.56108">
        <ele>749.72</ele>
        <time>2021-02-27T13:35:15Z</time>
      </trkpt>
      <trkpt lat="42.98019" lon="0.56112">
        <ele>749.322</ele>
        <time>2021-02-27T13:35:17Z</time>
      </trkpt>
      <trkpt lat="42.9802" lon="0.56116">
        <ele>749.169</ele>
        <time>2021-02-27T13:35:19Z</time>
      </trkpt>
      <trkpt lat="42.9802" lon="0.56121">
        <ele>748.702</ele>
        <time>2021-02-27T13:35:21Z</time>
      </trkpt>
      <trkpt lat="42.9802" lon="0.56125">
        <ele>748.065</ele>
        <time>2021-02-27T13:35:23Z</time>
      </trkpt>
      <trkpt lat="42.9802" lon="0.5613">
        <ele>748.303</ele>
        <time>2021-02-27T13:35:25Z</time>
      </trkpt>
      <trkpt lat="42.98021" lon="0.56134">
        <ele>749.23</ele>
        <time>2021-02-27T13:35:27Z</time>
      </trkpt>
      <trkpt lat="42.9802" lon="0.56138">
        <ele>748.927</ele>
        <time>2021-02-27T13:35:29Z</time>
      </trkpt>
      <trkpt lat="42.9802" lon="0.56142">
        <ele>748.593</ele>
        <time>2021-02-27T13:35:31Z</time>
      </trkpt>
      <trkpt lat="42.9802" lon="0.56146">
        <ele>747.733</ele>
        <time>2021-02-27T13:35:33Z</time>
      </trkpt>
      <trkpt lat="42.9802" lon="0.5615">
        <ele>746.952</ele>
        <time>2021-02-27T13:35:35Z</time>
      </trkpt>
      <trkpt lat="42.98019" lon="0.56154">
        <ele>745.295</ele>
        <time>2021-02-27T13:35:37Z</time>
      </trkpt>
      <trkpt lat="42.98018" lon="0.56158">
        <ele>744.601</ele>
        <time>2021-02-27T13:35:39Z</time>
      </trkpt>
      <trkpt lat="42.98018" lon="0.56162">
        <ele>743.483</ele>
        <time>2021-02-27T13:35:41Z</time>
      </trkpt>
      <trkpt lat="42.98018" lon="0.56167">
        <ele>744.231</ele>
        <time>2021-02-27T13:35:43Z</time>
      </trkpt>
      <trkpt lat="42.98017" lon="0.56171">
        <ele>742.932</ele>
        <time>2021-02-27T13:35:45Z</time>
      </trkpt>
      <trkpt lat="42.98017" lon="0.56174">
        <ele>741.476</ele>
        <time>2021-02-27T13:35:47Z</time>
      </trkpt>
      <trkpt lat="42.98016" lon="0.56178">
        <ele>740.863</ele>
        <time>2021-02-27T13:35:49Z</time>
      </trkpt>
      <trkpt lat="42.98017" lon="0.56179">
        <ele>741.111</ele>
        <time>2021-02-27T13:35:51Z</time>
      </trkpt>
      <trkpt lat="42.98017" lon="0.5618">
        <ele>741.143</ele>
        <time>2021-02-27T13:35:53Z</time>
      </trkpt>
      <trkpt lat="42.98017" lon="0.56182">
        <ele>740.769</ele>
        <time>2021-02-27T13:35:55Z</time>
      </trkpt>
      <trkpt lat="42.98016" lon="0.56187">
        <ele>740.26</ele>
        <time>2021-02-27T13:35:57Z</time>
      </trkpt>
      <trkpt lat="42.98016" lon="0.56189">
        <ele>738.943</ele>
        <time>2021-02-27T13:35:59Z</time>
      </trkpt>
      <trkpt lat="42.98015" lon="0.56193">
        <ele>738.339</ele>
        <time>2021-02-27T13:36:01Z</time>
      </trkpt>
      <trkpt lat="42.98015" lon="0.56197">
        <ele>737.474</ele>
        <time>2021-02-27T13:36:03Z</time>
      </trkpt>
      <trkpt lat="42.98015" lon="0.56201">
        <ele>737.684</ele>
        <time>2021-02-27T13:36:05Z</time>
      </trkpt>
      <trkpt lat="42.98017" lon="0.56201">
        <ele>737.246</ele>
        <time>2021-02-27T13:36:07Z</time>
      </trkpt>
      <trkpt lat="42.98019" lon="0.56204">
        <ele>739.01</ele>
        <time>2021-02-27T13:36:09Z</time>
      </trkpt>
      <trkpt lat="42.98022" lon="0.56208">
        <ele>741.007</ele>
        <time>2021-02-27T13:36:11Z</time>
      </trkpt>
      <trkpt lat="42.98025" lon="0.56209">
        <ele>742.006</ele>
        <time>2021-02-27T13:36:13Z</time>
      </trkpt>
      <trkpt lat="42.98027" lon="0.56209">
        <ele>740.614</ele>
        <time>2021-02-27T13:36:15Z</time>
      </trkpt>
      <trkpt lat="42.9803" lon="0.56208">
        <ele>741.632</ele>
        <time>2021-02-27T13:36:17Z</time>
      </trkpt>
      <trkpt lat="42.98032" lon="0.56208">
        <ele>740.373</ele>
        <time>2021-02-27T13:36:19Z</time>
      </trkpt>
      <trkpt lat="42.98034" lon="0.56207">
        <ele>739.689</ele>
        <time>2021-02-27T13:36:21Z</time>
      </trkpt>
      <trkpt lat="42.98037" lon="0.56207">
        <ele>740.481</ele>
        <time>2021-02-27T13:36:23Z</time>
      </trkpt>
      <trkpt lat="42.98038" lon="0.56206">
        <ele>739.667</ele>
        <time>2021-02-27T13:36:25Z</time>
      </trkpt>
      <trkpt lat="42.98041" lon="0.56205">
        <ele>738.043</ele>
        <time>2021-02-27T13:36:27Z</time>
      </trkpt>
      <trkpt lat="42.98044" lon="0.56203">
        <ele>738.29</ele>
        <time>2021-02-27T13:36:29Z</time>
      </trkpt>
      <trkpt lat="42.98047" lon="0.56201">
        <ele>738.497</ele>
        <time>2021-02-27T13:36:31Z</time>
      </trkpt>
      <trkpt lat="42.98049" lon="0.56199">
        <ele>737.896</ele>
        <time>2021-02-27T13:36:33Z</time>
      </trkpt>
      <trkpt lat="42.9805" lon="0.56198">
        <ele>737.262</ele>
        <time>2021-02-27T13:36:35Z</time>
      </trkpt>
      <trkpt lat="42.98052" lon="0.56195">
        <ele>736.76</ele>
        <time>2021-02-27T13:36:37Z</time>
      </trkpt>
      <trkpt lat="42.98055" lon="0.56193">
        <ele>736.979</ele>
        <time>2021-02-27T13:36:39Z</time>
      </trkpt>
      <trkpt lat="42.98057" lon="0.56191">
        <ele>736.11</ele>
        <time>2021-02-27T13:36:41Z</time>
      </trkpt>
      <trkpt lat="42.9806" lon="0.56188">
        <ele>734.335</ele>
        <time>2021-02-27T13:36:43Z</time>
      </trkpt>
      <trkpt lat="42.98063" lon="0.56185">
        <ele>734.622</ele>
        <time>2021-02-27T13:36:45Z</time>
      </trkpt>
      <trkpt lat="42.98065" lon="0.56182">
        <ele>734.794</ele>
        <time>2021-02-27T13:36:47Z</time>
      </trkpt>
      <trkpt lat="42.98066" lon="0.56181">
        <ele>735.493</ele>
        <time>2021-02-27T13:36:49Z</time>
      </trkpt>
      <trkpt lat="42.98066" lon="0.56181">
        <ele>735.478</ele>
        <time>2021-02-27T13:36:51Z</time>
      </trkpt>
      <trkpt lat="42.98066" lon="0.56181">
        <ele>735.462</ele>
        <time>2021-02-27T13:36:53Z</time>
      </trkpt>
      <trkpt lat="42.98066" lon="0.5618">
        <ele>735.081</ele>
        <time>2021-02-27T13:36:55Z</time>
      </trkpt>
      <trkpt lat="42.9807" lon="0.56178">
        <ele>735.206</ele>
        <time>2021-02-27T13:36:57Z</time>
      </trkpt>
      <trkpt lat="42.98072" lon="0.56178">
        <ele>733.894</ele>
        <time>2021-02-27T13:36:59Z</time>
      </trkpt>
      <trkpt lat="42.98074" lon="0.56177">
        <ele>734.107</ele>
        <time>2021-02-27T13:37:01Z</time>
      </trkpt>
      <trkpt lat="42.98076" lon="0.56177">
        <ele>735.969</ele>
        <time>2021-02-27T13:37:03Z</time>
      </trkpt>
      <trkpt lat="42.98074" lon="0.56177">
        <ele>734.947</ele>
        <time>2021-02-27T13:37:05Z</time>
      </trkpt>
      <trkpt lat="42.98074" lon="0.56176">
        <ele>734.768</ele>
        <time>2021-02-27T13:37:07Z</time>
      </trkpt>
      <trkpt lat="42.98075" lon="0.56175">
        <ele>734.865</ele>
        <time>2021-02-27T13:37:09Z</time>
      </trkpt>
      <trkpt lat="42.98076" lon="0.56174">
        <ele>735.544</ele>
        <time>2021-02-27T13:37:11Z</time>
      </trkpt>
      <trkpt lat="42.98078" lon="0.56173">
        <ele>734.472</ele>
        <time>2021-02-27T13:37:13Z</time>
      </trkpt>
      <trkpt lat="42.9808" lon="0.56171">
        <ele>733.807</ele>
        <time>2021-02-27T13:37:15Z</time>
      </trkpt>
      <trkpt lat="42.98081" lon="0.5617">
        <ele>733.092</ele>
        <time>2021-02-27T13:37:17Z</time>
      </trkpt>
      <trkpt lat="42.98083" lon="0.56167">
        <ele>732.611</ele>
        <time>2021-02-27T13:37:19Z</time>
      </trkpt>
      <trkpt lat="42.98084" lon="0.56165">
        <ele>732.184</ele>
        <time>2021-02-27T13:37:21Z</time>
      </trkpt>
      <trkpt lat="42.98087" lon="0.56165">
        <ele>733.786</ele>
        <time>2021-02-27T13:37:23Z</time>
      </trkpt>
      <trkpt lat="42.98088" lon="0.56165">
        <ele>733.839</ele>
        <time>2021-02-27T13:37:24Z</time>
      </trkpt>
      <trkpt lat="42.98091" lon="0.56164">
        <ele>730.212</ele>
        <time>2021-02-27T13:37:27Z</time>
      </trkpt>
      <trkpt lat="42.98093" lon="0.56163">
        <ele>729.375</ele>
        <time>2021-02-27T13:37:29Z</time>
      </trkpt>
      <trkpt lat="42.98096" lon="0.56162">
        <ele>728.633</ele>
        <time>2021-02-27T13:37:31Z</time>
      </trkpt>
      <trkpt lat="42.98097" lon="0.56159">
        <ele>727.8</ele>
        <time>2021-02-27T13:37:33Z</time>
      </trkpt>
      <trkpt lat="42.98098" lon="0.56157">
        <ele>724.983</ele>
        <time>2021-02-27T13:37:35Z</time>
      </trkpt>
      <trkpt lat="42.981" lon="0.56155">
        <ele>724.346</ele>
        <time>2021-02-27T13:37:37Z</time>
      </trkpt>
      <trkpt lat="42.98101" lon="0.56153">
        <ele>724.065</ele>
        <time>2021-02-27T13:37:39Z</time>
      </trkpt>
      <trkpt lat="42.98103" lon="0.56152">
        <ele>724.733</ele>
        <time>2021-02-27T13:37:41Z</time>
      </trkpt>
      <trkpt lat="42.98107" lon="0.56149">
        <ele>724.664</ele>
        <time>2021-02-27T13:37:43Z</time>
      </trkpt>
      <trkpt lat="42.98109" lon="0.56146">
        <ele>723.981</ele>
        <time>2021-02-27T13:37:45Z</time>
      </trkpt>
      <trkpt lat="42.98112" lon="0.56145">
        <ele>723.713</ele>
        <time>2021-02-27T13:37:47Z</time>
      </trkpt>
      <trkpt lat="42.98114" lon="0.56143">
        <ele>723.519</ele>
        <time>2021-02-27T13:37:49Z</time>
      </trkpt>
      <trkpt lat="42.98119" lon="0.5614">
        <ele>722.721</ele>
        <time>2021-02-27T13:37:52Z</time>
      </trkpt>
      <trkpt lat="42.98122" lon="0.56138">
        <ele>722.412</ele>
        <time>2021-02-27T13:37:54Z</time>
      </trkpt>
      <trkpt lat="42.98125" lon="0.56135">
        <ele>721.927</ele>
        <time>2021-02-27T13:37:56Z</time>
      </trkpt>
      <trkpt lat="42.98127" lon="0.56132">
        <ele>720.07</ele>
        <time>2021-02-27T13:37:58Z</time>
      </trkpt>
      <trkpt lat="42.98129" lon="0.5613">
        <ele>718.629</ele>
        <time>2021-02-27T13:38:00Z</time>
      </trkpt>
      <trkpt lat="42.98131" lon="0.56128">
        <ele>717.435</ele>
        <time>2021-02-27T13:38:02Z</time>
      </trkpt>
      <trkpt lat="42.98134" lon="0.56127">
        <ele>717.602</ele>
        <time>2021-02-27T13:38:04Z</time>
      </trkpt>
      <trkpt lat="42.98136" lon="0.56125">
        <ele>717.221</ele>
        <time>2021-02-27T13:38:06Z</time>
      </trkpt>
      <trkpt lat="42.98138" lon="0.56122">
        <ele>715.864</ele>
        <time>2021-02-27T13:38:08Z</time>
      </trkpt>
      <trkpt lat="42.9814" lon="0.5612">
        <ele>715.135</ele>
        <time>2021-02-27T13:38:10Z</time>
      </trkpt>
      <trkpt lat="42.98142" lon="0.56118">
        <ele>714.326</ele>
        <time>2021-02-27T13:38:12Z</time>
      </trkpt>
      <trkpt lat="42.98144" lon="0.56116">
        <ele>713.088</ele>
        <time>2021-02-27T13:38:14Z</time>
      </trkpt>
      <trkpt lat="42.98145" lon="0.56114">
        <ele>713.051</ele>
        <time>2021-02-27T13:38:16Z</time>
      </trkpt>
      <trkpt lat="42.98146" lon="0.56112">
        <ele>712.394</ele>
        <time>2021-02-27T13:38:18Z</time>
      </trkpt>
      <trkpt lat="42.98149" lon="0.5611">
        <ele>712.18</ele>
        <time>2021-02-27T13:38:20Z</time>
      </trkpt>
      <trkpt lat="42.98151" lon="0.56108">
        <ele>711.768</ele>
        <time>2021-02-27T13:38:22Z</time>
      </trkpt>
      <trkpt lat="42.98155" lon="0.56105">
        <ele>711.262</ele>
        <time>2021-02-27T13:38:24Z</time>
      </trkpt>
      <trkpt lat="42.98158" lon="0.56104">
        <ele>710.742</ele>
        <time>2021-02-27T13:38:26Z</time>
      </trkpt>
      <trkpt lat="42.9816" lon="0.56102">
        <ele>708.699</ele>
        <time>2021-02-27T13:38:28Z</time>
      </trkpt>
      <trkpt lat="42.98162" lon="0.56099">
        <ele>707.578</ele>
        <time>2021-02-27T13:38:30Z</time>
      </trkpt>
      <trkpt lat="42.98164" lon="0.56096">
        <ele>706.989</ele>
        <time>2021-02-27T13:38:32Z</time>
      </trkpt>
      <trkpt lat="42.98165" lon="0.56094">
        <ele>704.447</ele>
        <time>2021-02-27T13:38:34Z</time>
      </trkpt>
      <trkpt lat="42.98167" lon="0.56091">
        <ele>703.862</ele>
        <time>2021-02-27T13:38:36Z</time>
      </trkpt>
      <trkpt lat="42.98169" lon="0.56089">
        <ele>702.297</ele>
        <time>2021-02-27T13:38:38Z</time>
      </trkpt>
      <trkpt lat="42.98171" lon="0.56087">
        <ele>701.511</ele>
        <time>2021-02-27T13:38:40Z</time>
      </trkpt>
      <trkpt lat="42.98174" lon="0.56085">
        <ele>700.682</ele>
        <time>2021-02-27T13:38:42Z</time>
      </trkpt>
      <trkpt lat="42.98177" lon="0.56083">
        <ele>700.674</ele>
        <time>2021-02-27T13:38:44Z</time>
      </trkpt>
      <trkpt lat="42.98177" lon="0.56081">
        <ele>699.486</ele>
        <time>2021-02-27T13:38:46Z</time>
      </trkpt>
      <trkpt lat="42.98179" lon="0.56078">
        <ele>698.913</ele>
        <time>2021-02-27T13:38:48Z</time>
      </trkpt>
      <trkpt lat="42.9818" lon="0.56075">
        <ele>698.991</ele>
        <time>2021-02-27T13:38:50Z</time>
      </trkpt>
      <trkpt lat="42.98182" lon="0.56073">
        <ele>698.765</ele>
        <time>2021-02-27T13:38:52Z</time>
      </trkpt>
      <trkpt lat="42.98184" lon="0.56071">
        <ele>698.451</ele>
        <time>2021-02-27T13:38:54Z</time>
      </trkpt>
      <trkpt lat="42.98186" lon="0.56068">
        <ele>698.263</ele>
        <time>2021-02-27T13:38:56Z</time>
      </trkpt>
      <trkpt lat="42.98189" lon="0.56066">
        <ele>699.205</ele>
        <time>2021-02-27T13:38:58Z</time>
      </trkpt>
      <trkpt lat="42.98191" lon="0.56064">
        <ele>699.344</ele>
        <time>2021-02-27T13:39:00Z</time>
      </trkpt>
      <trkpt lat="42.98193" lon="0.56062">
        <ele>699.587</ele>
        <time>2021-02-27T13:39:02Z</time>
      </trkpt>
      <trkpt lat="42.98194" lon="0.56059">
        <ele>698.944</ele>
        <time>2021-02-27T13:39:04Z</time>
      </trkpt>
      <trkpt lat="42.98196" lon="0.56056">
        <ele>698.649</ele>
        <time>2021-02-27T13:39:06Z</time>
      </trkpt>
      <trkpt lat="42.982" lon="0.56053">
        <ele>699.755</ele>
        <time>2021-02-27T13:39:08Z</time>
      </trkpt>
      <trkpt lat="42.98202" lon="0.56051">
        <ele>699.292</ele>
        <time>2021-02-27T13:39:10Z</time>
      </trkpt>
      <trkpt lat="42.98203" lon="0.56049">
        <ele>699.167</ele>
        <time>2021-02-27T13:39:12Z</time>
      </trkpt>
      <trkpt lat="42.98204" lon="0.56047">
        <ele>697.626</ele>
        <time>2021-02-27T13:39:14Z</time>
      </trkpt>
      <trkpt lat="42.98206" lon="0.56044">
        <ele>698.079</ele>
        <time>2021-02-27T13:39:16Z</time>
      </trkpt>
      <trkpt lat="42.98208" lon="0.56042">
        <ele>698.258</ele>
        <time>2021-02-27T13:39:18Z</time>
      </trkpt>
      <trkpt lat="42.9821" lon="0.56039">
        <ele>698.5</ele>
        <time>2021-02-27T13:39:20Z</time>
      </trkpt>
      <trkpt lat="42.98214" lon="0.56037">
        <ele>698.468</ele>
        <time>2021-02-27T13:39:22Z</time>
      </trkpt>
      <trkpt lat="42.98217" lon="0.56035">
        <ele>697.565</ele>
        <time>2021-02-27T13:39:24Z</time>
      </trkpt>
      <trkpt lat="42.98219" lon="0.56032">
        <ele>696.16</ele>
        <time>2021-02-27T13:39:26Z</time>
      </trkpt>
      <trkpt lat="42.9822" lon="0.5603">
        <ele>697.195</ele>
        <time>2021-02-27T13:39:28Z</time>
      </trkpt>
      <trkpt lat="42.98222" lon="0.56026">
        <ele>697.257</ele>
        <time>2021-02-27T13:39:30Z</time>
      </trkpt>
      <trkpt lat="42.98223" lon="0.56024">
        <ele>697.041</ele>
        <time>2021-02-27T13:39:32Z</time>
      </trkpt>
      <trkpt lat="42.98225" lon="0.56022">
        <ele>697.508</ele>
        <time>2021-02-27T13:39:34Z</time>
      </trkpt>
      <trkpt lat="42.98228" lon="0.56018">
        <ele>696.363</ele>
        <time>2021-02-27T13:39:36Z</time>
      </trkpt>
      <trkpt lat="42.9823" lon="0.56014">
        <ele>694.471</ele>
        <time>2021-02-27T13:39:38Z</time>
      </trkpt>
      <trkpt lat="42.98233" lon="0.56011">
        <ele>693.57</ele>
        <time>2021-02-27T13:39:40Z</time>
      </trkpt>
      <trkpt lat="42.98237" lon="0.56008">
        <ele>692.377</ele>
        <time>2021-02-27T13:39:42Z</time>
      </trkpt>
      <trkpt lat="42.9824" lon="0.56004">
        <ele>691.4</ele>
        <time>2021-02-27T13:39:44Z</time>
      </trkpt>
      <trkpt lat="42.98241" lon="0.56001">
        <ele>690.505</ele>
        <time>2021-02-27T13:39:46Z</time>
      </trkpt>
      <trkpt lat="42.98243" lon="0.55997">
        <ele>690.066</ele>
        <time>2021-02-27T13:39:48Z</time>
      </trkpt>
      <trkpt lat="42.98246" lon="0.55995">
        <ele>688.915</ele>
        <time>2021-02-27T13:39:50Z</time>
      </trkpt>
      <trkpt lat="42.98248" lon="0.55992">
        <ele>687.394</ele>
        <time>2021-02-27T13:39:52Z</time>
      </trkpt>
      <trkpt lat="42.9825" lon="0.55989">
        <ele>686.115</ele>
        <time>2021-02-27T13:39:54Z</time>
      </trkpt>
      <trkpt lat="42.98252" lon="0.55986">
        <ele>686.854</ele>
        <time>2021-02-27T13:39:56Z</time>
      </trkpt>
      <trkpt lat="42.98254" lon="0.55983">
        <ele>684.809</ele>
        <time>2021-02-27T13:39:58Z</time>
      </trkpt>
      <trkpt lat="42.98255" lon="0.5598">
        <ele>683.918</ele>
        <time>2021-02-27T13:40:00Z</time>
      </trkpt>
      <trkpt lat="42.98256" lon="0.55977">
        <ele>683.737</ele>
        <time>2021-02-27T13:40:02Z</time>
      </trkpt>
      <trkpt lat="42.98257" lon="0.55974">
        <ele>683.478</ele>
        <time>2021-02-27T13:40:04Z</time>
      </trkpt>
      <trkpt lat="42.98259" lon="0.55971">
        <ele>683.25</ele>
        <time>2021-02-27T13:40:06Z</time>
      </trkpt>
      <trkpt lat="42.98262" lon="0.55967">
        <ele>682.507</ele>
        <time>2021-02-27T13:40:09Z</time>
      </trkpt>
      <trkpt lat="42.98264" lon="0.55964">
        <ele>681.506</ele>
        <time>2021-02-27T13:40:11Z</time>
      </trkpt>
      <trkpt lat="42.98266" lon="0.55962">
        <ele>683.163</ele>
        <time>2021-02-27T13:40:13Z</time>
      </trkpt>
      <trkpt lat="42.98267" lon="0.55959">
        <ele>680.854</ele>
        <time>2021-02-27T13:40:15Z</time>
      </trkpt>
      <trkpt lat="42.98269" lon="0.55956">
        <ele>682.192</ele>
        <time>2021-02-27T13:40:17Z</time>
      </trkpt>
      <trkpt lat="42.98272" lon="0.55954">
        <ele>681.61</ele>
        <time>2021-02-27T13:40:19Z</time>
      </trkpt>
      <trkpt lat="42.98274" lon="0.55951">
        <ele>681.89</ele>
        <time>2021-02-27T13:40:21Z</time>
      </trkpt>
      <trkpt lat="42.98277" lon="0.55948">
        <ele>682.076</ele>
        <time>2021-02-27T13:40:23Z</time>
      </trkpt>
      <trkpt lat="42.98279" lon="0.55946">
        <ele>681.743</ele>
        <time>2021-02-27T13:40:25Z</time>
      </trkpt>
      <trkpt lat="42.98281" lon="0.55943">
        <ele>681.441</ele>
        <time>2021-02-27T13:40:27Z</time>
      </trkpt>
      <trkpt lat="42.98283" lon="0.55941">
        <ele>681.048</ele>
        <time>2021-02-27T13:40:29Z</time>
      </trkpt>
      <trkpt lat="42.98286" lon="0.55938">
        <ele>681.389</ele>
        <time>2021-02-27T13:40:31Z</time>
      </trkpt>
      <trkpt lat="42.98288" lon="0.55935">
        <ele>680.846</ele>
        <time>2021-02-27T13:40:33Z</time>
      </trkpt>
      <trkpt lat="42.98291" lon="0.55932">
        <ele>681.316</ele>
        <time>2021-02-27T13:40:35Z</time>
      </trkpt>
      <trkpt lat="42.98294" lon="0.5593">
        <ele>681.81</ele>
        <time>2021-02-27T13:40:37Z</time>
      </trkpt>
      <trkpt lat="42.98296" lon="0.55928">
        <ele>680.136</ele>
        <time>2021-02-27T13:40:39Z</time>
      </trkpt>
      <trkpt lat="42.98298" lon="0.55925">
        <ele>680.023</ele>
        <time>2021-02-27T13:40:41Z</time>
      </trkpt>
      <trkpt lat="42.98301" lon="0.55922">
        <ele>679.126</ele>
        <time>2021-02-27T13:40:43Z</time>
      </trkpt>
      <trkpt lat="42.98304" lon="0.55919">
        <ele>678.378</ele>
        <time>2021-02-27T13:40:45Z</time>
      </trkpt>
      <trkpt lat="42.98306" lon="0.55916">
        <ele>679.268</ele>
        <time>2021-02-27T13:40:47Z</time>
      </trkpt>
      <trkpt lat="42.98309" lon="0.55913">
        <ele>680.781</ele>
        <time>2021-02-27T13:40:49Z</time>
      </trkpt>
      <trkpt lat="42.98312" lon="0.5591">
        <ele>679.575</ele>
        <time>2021-02-27T13:40:51Z</time>
      </trkpt>
      <trkpt lat="42.98315" lon="0.55907">
        <ele>679.042</ele>
        <time>2021-02-27T13:40:53Z</time>
      </trkpt>
      <trkpt lat="42.98317" lon="0.55904">
        <ele>677.64</ele>
        <time>2021-02-27T13:40:55Z</time>
      </trkpt>
      <trkpt lat="42.9832" lon="0.55901">
        <ele>677.504</ele>
        <time>2021-02-27T13:40:57Z</time>
      </trkpt>
      <trkpt lat="42.98321" lon="0.55897">
        <ele>676.984</ele>
        <time>2021-02-27T13:40:59Z</time>
      </trkpt>
      <trkpt lat="42.98324" lon="0.55896">
        <ele>677.057</ele>
        <time>2021-02-27T13:41:01Z</time>
      </trkpt>
      <trkpt lat="42.98328" lon="0.55896">
        <ele>676.499</ele>
        <time>2021-02-27T13:41:04Z</time>
      </trkpt>
      <trkpt lat="42.98328" lon="0.55899">
        <ele>675.908</ele>
        <time>2021-02-27T13:41:06Z</time>
      </trkpt>
      <trkpt lat="42.98327" lon="0.55903">
        <ele>675.347</ele>
        <time>2021-02-27T13:41:08Z</time>
      </trkpt>
      <trkpt lat="42.98326" lon="0.55906">
        <ele>674.601</ele>
        <time>2021-02-27T13:41:10Z</time>
      </trkpt>
      <trkpt lat="42.98325" lon="0.55909">
        <ele>674.884</ele>
        <time>2021-02-27T13:41:12Z</time>
      </trkpt>
      <trkpt lat="42.98325" lon="0.55913">
        <ele>675.28</ele>
        <time>2021-02-27T13:41:14Z</time>
      </trkpt>
      <trkpt lat="42.98325" lon="0.55918">
        <ele>674.313</ele>
        <time>2021-02-27T13:41:16Z</time>
      </trkpt>
      <trkpt lat="42.98324" lon="0.55922">
        <ele>673.276</ele>
        <time>2021-02-27T13:41:18Z</time>
      </trkpt>
      <trkpt lat="42.98324" lon="0.55926">
        <ele>672.175</ele>
        <time>2021-02-27T13:41:20Z</time>
      </trkpt>
      <trkpt lat="42.98322" lon="0.55929">
        <ele>670.586</ele>
        <time>2021-02-27T13:41:22Z</time>
      </trkpt>
      <trkpt lat="42.98322" lon="0.55933">
        <ele>670.188</ele>
        <time>2021-02-27T13:41:24Z</time>
      </trkpt>
      <trkpt lat="42.98321" lon="0.55937">
        <ele>669.138</ele>
        <time>2021-02-27T13:41:26Z</time>
      </trkpt>
      <trkpt lat="42.9832" lon="0.5594">
        <ele>667.423</ele>
        <time>2021-02-27T13:41:28Z</time>
      </trkpt>
      <trkpt lat="42.98319" lon="0.55945">
        <ele>667.592</ele>
        <time>2021-02-27T13:41:30Z</time>
      </trkpt>
      <trkpt lat="42.98319" lon="0.55949">
        <ele>667.35</ele>
        <time>2021-02-27T13:41:32Z</time>
      </trkpt>
      <trkpt lat="42.98318" lon="0.55951">
        <ele>666.022</ele>
        <time>2021-02-27T13:41:34Z</time>
      </trkpt>
      <trkpt lat="42.98316" lon="0.55954">
        <ele>665.573</ele>
        <time>2021-02-27T13:41:36Z</time>
      </trkpt>
      <trkpt lat="42.98315" lon="0.55956">
        <ele>665.631</ele>
        <time>2021-02-27T13:41:38Z</time>
      </trkpt>
      <trkpt lat="42.98317" lon="0.5596">
        <ele>666.912</ele>
        <time>2021-02-27T13:41:40Z</time>
      </trkpt>
      <trkpt lat="42.98318" lon="0.55963">
        <ele>667.797</ele>
        <time>2021-02-27T13:41:42Z</time>
      </trkpt>
      <trkpt lat="42.98318" lon="0.55966">
        <ele>668.777</ele>
        <time>2021-02-27T13:41:44Z</time>
      </trkpt>
      <trkpt lat="42.98316" lon="0.55968">
        <ele>667.843</ele>
        <time>2021-02-27T13:41:46Z</time>
      </trkpt>
      <trkpt lat="42.98315" lon="0.5597">
        <ele>666.909</ele>
        <time>2021-02-27T13:41:48Z</time>
      </trkpt>
      <trkpt lat="42.98314" lon="0.55973">
        <ele>667.245</ele>
        <time>2021-02-27T13:41:50Z</time>
      </trkpt>
      <trkpt lat="42.98313" lon="0.55976">
        <ele>666.807</ele>
        <time>2021-02-27T13:41:52Z</time>
      </trkpt>
      <trkpt lat="42.98312" lon="0.55979">
        <ele>666.271</ele>
        <time>2021-02-27T13:41:54Z</time>
      </trkpt>
      <trkpt lat="42.98311" lon="0.55981">
        <ele>664.803</ele>
        <time>2021-02-27T13:41:56Z</time>
      </trkpt>
      <trkpt lat="42.98309" lon="0.55984">
        <ele>663.477</ele>
        <time>2021-02-27T13:41:58Z</time>
      </trkpt>
      <trkpt lat="42.98308" lon="0.55987">
        <ele>661.837</ele>
        <time>2021-02-27T13:42:00Z</time>
      </trkpt>
      <trkpt lat="42.98308" lon="0.55991">
        <ele>659.099</ele>
        <time>2021-02-27T13:42:02Z</time>
      </trkpt>
      <trkpt lat="42.98307" lon="0.55994">
        <ele>657.511</ele>
        <time>2021-02-27T13:42:04Z</time>
      </trkpt>
      <trkpt lat="42.98306" lon="0.55996">
        <ele>656.098</ele>
        <time>2021-02-27T13:42:06Z</time>
      </trkpt>
      <trkpt lat="42.98305" lon="0.56">
        <ele>655.299</ele>
        <time>2021-02-27T13:42:08Z</time>
      </trkpt>
      <trkpt lat="42.98303" lon="0.56003">
        <ele>652.457</ele>
        <time>2021-02-27T13:42:10Z</time>
      </trkpt>
      <trkpt lat="42.98302" lon="0.56004">
        <ele>651.136</ele>
        <time>2021-02-27T13:42:12Z</time>
      </trkpt>
      <trkpt lat="42.98301" lon="0.56007">
        <ele>650.253</ele>
        <time>2021-02-27T13:42:14Z</time>
      </trkpt>
      <trkpt lat="42.98299" lon="0.56011">
        <ele>649.344</ele>
        <time>2021-02-27T13:42:16Z</time>
      </trkpt>
      <trkpt lat="42.98298" lon="0.56014">
        <ele>647.802</ele>
        <time>2021-02-27T13:42:18Z</time>
      </trkpt>
      <trkpt lat="42.98297" lon="0.5602">
        <ele>646.875</ele>
        <time>2021-02-27T13:42:20Z</time>
      </trkpt>
      <trkpt lat="42.98296" lon="0.56026">
        <ele>645.785</ele>
        <time>2021-02-27T13:42:22Z</time>
      </trkpt>
      <trkpt lat="42.98296" lon="0.56028">
        <ele>644.244</ele>
        <time>2021-02-27T13:42:24Z</time>
      </trkpt>
      <trkpt lat="42.98295" lon="0.56031">
        <ele>643.012</ele>
        <time>2021-02-27T13:42:26Z</time>
      </trkpt>
      <trkpt lat="42.98294" lon="0.56034">
        <ele>642.053</ele>
        <time>2021-02-27T13:42:28Z</time>
      </trkpt>
      <trkpt lat="42.98293" lon="0.56036">
        <ele>640.476</ele>
        <time>2021-02-27T13:42:30Z</time>
      </trkpt>
      <trkpt lat="42.98293" lon="0.5604">
        <ele>638.824</ele>
        <time>2021-02-27T13:42:32Z</time>
      </trkpt>
      <trkpt lat="42.98293" lon="0.56044">
        <ele>637.17</ele>
        <time>2021-02-27T13:42:34Z</time>
      </trkpt>
      <trkpt lat="42.98292" lon="0.56048">
        <ele>637.89</ele>
        <time>2021-02-27T13:42:36Z</time>
      </trkpt>
      <trkpt lat="42.98291" lon="0.56052">
        <ele>637.909</ele>
        <time>2021-02-27T13:42:38Z</time>
      </trkpt>
      <trkpt lat="42.98289" lon="0.56056">
        <ele>636.547</ele>
        <time>2021-02-27T13:42:40Z</time>
      </trkpt>
      <trkpt lat="42.98288" lon="0.56059">
        <ele>635.403</ele>
        <time>2021-02-27T13:42:42Z</time>
      </trkpt>
      <trkpt lat="42.98287" lon="0.56062">
        <ele>634.536</ele>
        <time>2021-02-27T13:42:44Z</time>
      </trkpt>
      <trkpt lat="42.98286" lon="0.56065">
        <ele>633.831</ele>
        <time>2021-02-27T13:42:46Z</time>
      </trkpt>
      <trkpt lat="42.98284" lon="0.56068">
        <ele>634.461</ele>
        <time>2021-02-27T13:42:48Z</time>
      </trkpt>
      <trkpt lat="42.98283" lon="0.56072">
        <ele>635.118</ele>
        <time>2021-02-27T13:42:50Z</time>
      </trkpt>
      <trkpt lat="42.98282" lon="0.56075">
        <ele>636.264</ele>
        <time>2021-02-27T13:42:52Z</time>
      </trkpt>
      <trkpt lat="42.98281" lon="0.56077">
        <ele>633.381</ele>
        <time>2021-02-27T13:42:54Z</time>
      </trkpt>
      <trkpt lat="42.9828" lon="0.5608">
        <ele>633.449</ele>
        <time>2021-02-27T13:42:56Z</time>
      </trkpt>
      <trkpt lat="42.98278" lon="0.56085">
        <ele>634.602</ele>
        <time>2021-02-27T13:42:58Z</time>
      </trkpt>
      <trkpt lat="42.98277" lon="0.56088">
        <ele>634.835</ele>
        <time>2021-02-27T13:43:00Z</time>
      </trkpt>
      <trkpt lat="42.98275" lon="0.56091">
        <ele>634.1</ele>
        <time>2021-02-27T13:43:02Z</time>
      </trkpt>
      <trkpt lat="42.98273" lon="0.56095">
        <ele>635.125</ele>
        <time>2021-02-27T13:43:04Z</time>
      </trkpt>
      <trkpt lat="42.98271" lon="0.56098">
        <ele>636.099</ele>
        <time>2021-02-27T13:43:06Z</time>
      </trkpt>
      <trkpt lat="42.9827" lon="0.561">
        <ele>635.842</ele>
        <time>2021-02-27T13:43:08Z</time>
      </trkpt>
      <trkpt lat="42.98269" lon="0.56103">
        <ele>634.21</ele>
        <time>2021-02-27T13:43:10Z</time>
      </trkpt>
      <trkpt lat="42.98268" lon="0.56107">
        <ele>634.489</ele>
        <time>2021-02-27T13:43:12Z</time>
      </trkpt>
      <trkpt lat="42.98267" lon="0.5611">
        <ele>633.832</ele>
        <time>2021-02-27T13:43:14Z</time>
      </trkpt>
      <trkpt lat="42.98266" lon="0.56113">
        <ele>632.314</ele>
        <time>2021-02-27T13:43:16Z</time>
      </trkpt>
      <trkpt lat="42.98265" lon="0.56118">
        <ele>631.097</ele>
        <time>2021-02-27T13:43:18Z</time>
      </trkpt>
      <trkpt lat="42.98265" lon="0.56122">
        <ele>630.78</ele>
        <time>2021-02-27T13:43:20Z</time>
      </trkpt>
      <trkpt lat="42.98265" lon="0.56128">
        <ele>630.772</ele>
        <time>2021-02-27T13:43:22Z</time>
      </trkpt>
      <trkpt lat="42.98264" lon="0.56133">
        <ele>632.141</ele>
        <time>2021-02-27T13:43:24Z</time>
      </trkpt>
      <trkpt lat="42.98264" lon="0.56137">
        <ele>631.833</ele>
        <time>2021-02-27T13:43:26Z</time>
      </trkpt>
      <trkpt lat="42.98263" lon="0.56142">
        <ele>631.239</ele>
        <time>2021-02-27T13:43:28Z</time>
      </trkpt>
      <trkpt lat="42.98262" lon="0.56146">
        <ele>629.246</ele>
        <time>2021-02-27T13:43:30Z</time>
      </trkpt>
      <trkpt lat="42.98261" lon="0.56149">
        <ele>628.17</ele>
        <time>2021-02-27T13:43:32Z</time>
      </trkpt>
      <trkpt lat="42.9826" lon="0.56153">
        <ele>627.111</ele>
        <time>2021-02-27T13:43:34Z</time>
      </trkpt>
      <trkpt lat="42.98259" lon="0.56156">
        <ele>627.289</ele>
        <time>2021-02-27T13:43:36Z</time>
      </trkpt>
      <trkpt lat="42.98259" lon="0.56159">
        <ele>626.545</ele>
        <time>2021-02-27T13:43:38Z</time>
      </trkpt>
      <trkpt lat="42.98258" lon="0.56162">
        <ele>626.402</ele>
        <time>2021-02-27T13:43:40Z</time>
      </trkpt>
      <trkpt lat="42.98257" lon="0.56165">
        <ele>625.551</ele>
        <time>2021-02-27T13:43:42Z</time>
      </trkpt>
      <trkpt lat="42.98256" lon="0.56168">
        <ele>626.363</ele>
        <time>2021-02-27T13:43:44Z</time>
      </trkpt>
      <trkpt lat="42.98255" lon="0.5617">
        <ele>626.563</ele>
        <time>2021-02-27T13:43:46Z</time>
      </trkpt>
      <trkpt lat="42.98252" lon="0.56173">
        <ele>625.716</ele>
        <time>2021-02-27T13:43:49Z</time>
      </trkpt>
      <trkpt lat="42.9825" lon="0.56176">
        <ele>625.619</ele>
        <time>2021-02-27T13:43:51Z</time>
      </trkpt>
      <trkpt lat="42.98249" lon="0.56181">
        <ele>626.924</ele>
        <time>2021-02-27T13:43:53Z</time>
      </trkpt>
      <trkpt lat="42.98247" lon="0.56184">
        <ele>626.926</ele>
        <time>2021-02-27T13:43:55Z</time>
      </trkpt>
      <trkpt lat="42.98246" lon="0.56186">
        <ele>626.174</ele>
        <time>2021-02-27T13:43:57Z</time>
      </trkpt>
      <trkpt lat="42.98245" lon="0.56189">
        <ele>626.885</ele>
        <time>2021-02-27T13:43:59Z</time>
      </trkpt>
      <trkpt lat="42.98244" lon="0.56193">
        <ele>627.434</ele>
        <time>2021-02-27T13:44:01Z</time>
      </trkpt>
      <trkpt lat="42.98245" lon="0.56198">
        <ele>627.275</ele>
        <time>2021-02-27T13:44:03Z</time>
      </trkpt>
      <trkpt lat="42.98247" lon="0.56198">
        <ele>626.071</ele>
        <time>2021-02-27T13:44:04Z</time>
      </trkpt>
      <trkpt lat="42.98246" lon="0.56207">
        <ele>629.742</ele>
        <time>2021-02-27T13:44:07Z</time>
      </trkpt>
      <trkpt lat="42.98246" lon="0.56207">
        <ele>629.33</ele>
        <time>2021-02-27T13:44:09Z</time>
      </trkpt>
      <trkpt lat="42.98246" lon="0.5621">
        <ele>630.31</ele>
        <time>2021-02-27T13:44:11Z</time>
      </trkpt>
      <trkpt lat="42.98245" lon="0.56213">
        <ele>629.488</ele>
        <time>2021-02-27T13:44:13Z</time>
      </trkpt>
      <trkpt lat="42.98244" lon="0.56216">
        <ele>628.913</ele>
        <time>2021-02-27T13:44:15Z</time>
      </trkpt>
      <trkpt lat="42.98243" lon="0.5622">
        <ele>627.498</ele>
        <time>2021-02-27T13:44:17Z</time>
      </trkpt>
      <trkpt lat="42.98242" lon="0.56223">
        <ele>627.595</ele>
        <time>2021-02-27T13:44:19Z</time>
      </trkpt>
      <trkpt lat="42.98242" lon="0.56226">
        <ele>626.162</ele>
        <time>2021-02-27T13:44:21Z</time>
      </trkpt>
      <trkpt lat="42.98242" lon="0.56229">
        <ele>627.455</ele>
        <time>2021-02-27T13:44:23Z</time>
      </trkpt>
      <trkpt lat="42.98245" lon="0.56232">
        <ele>627.464</ele>
        <time>2021-02-27T13:44:25Z</time>
      </trkpt>
      <trkpt lat="42.98246" lon="0.56236">
        <ele>630.087</ele>
        <time>2021-02-27T13:44:27Z</time>
      </trkpt>
      <trkpt lat="42.98247" lon="0.56239">
        <ele>630.032</ele>
        <time>2021-02-27T13:44:29Z</time>
      </trkpt>
      <trkpt lat="42.98248" lon="0.56242">
        <ele>630.962</ele>
        <time>2021-02-27T13:44:31Z</time>
      </trkpt>
      <trkpt lat="42.9825" lon="0.56246">
        <ele>630.305</ele>
        <time>2021-02-27T13:44:33Z</time>
      </trkpt>
      <trkpt lat="42.98251" lon="0.56248">
        <ele>628.229</ele>
        <time>2021-02-27T13:44:35Z</time>
      </trkpt>
      <trkpt lat="42.98252" lon="0.56251">
        <ele>627.386</ele>
        <time>2021-02-27T13:44:37Z</time>
      </trkpt>
      <trkpt lat="42.98253" lon="0.56255">
        <ele>626.675</ele>
        <time>2021-02-27T13:44:39Z</time>
      </trkpt>
      <trkpt lat="42.98254" lon="0.56257">
        <ele>625.24</ele>
        <time>2021-02-27T13:44:41Z</time>
      </trkpt>
      <trkpt lat="42.98256" lon="0.56258">
        <ele>625.148</ele>
        <time>2021-02-27T13:44:43Z</time>
      </trkpt>
      <trkpt lat="42.98257" lon="0.56261">
        <ele>624.462</ele>
        <time>2021-02-27T13:44:45Z</time>
      </trkpt>
      <trkpt lat="42.98257" lon="0.56265">
        <ele>623.303</ele>
        <time>2021-02-27T13:44:47Z</time>
      </trkpt>
      <trkpt lat="42.98257" lon="0.56268">
        <ele>621.632</ele>
        <time>2021-02-27T13:44:49Z</time>
      </trkpt>
      <trkpt lat="42.98257" lon="0.56272">
        <ele>620.32</ele>
        <time>2021-02-27T13:44:51Z</time>
      </trkpt>
      <trkpt lat="42.98257" lon="0.56275">
        <ele>619.259</ele>
        <time>2021-02-27T13:44:53Z</time>
      </trkpt>
      <trkpt lat="42.98257" lon="0.56278">
        <ele>618.42</ele>
        <time>2021-02-27T13:44:55Z</time>
      </trkpt>
      <trkpt lat="42.98258" lon="0.5628">
        <ele>617.471</ele>
        <time>2021-02-27T13:44:57Z</time>
      </trkpt>
      <trkpt lat="42.98258" lon="0.56283">
        <ele>616.198</ele>
        <time>2021-02-27T13:44:59Z</time>
      </trkpt>
      <trkpt lat="42.98258" lon="0.56287">
        <ele>614.531</ele>
        <time>2021-02-27T13:45:01Z</time>
      </trkpt>
      <trkpt lat="42.98258" lon="0.56289">
        <ele>612.659</ele>
        <time>2021-02-27T13:45:03Z</time>
      </trkpt>
      <trkpt lat="42.98258" lon="0.56293">
        <ele>613.231</ele>
        <time>2021-02-27T13:45:05Z</time>
      </trkpt>
      <trkpt lat="42.98258" lon="0.56296">
        <ele>612.833</ele>
        <time>2021-02-27T13:45:07Z</time>
      </trkpt>
      <trkpt lat="42.98257" lon="0.563">
        <ele>613.82</ele>
        <time>2021-02-27T13:45:09Z</time>
      </trkpt>
      <trkpt lat="42.98257" lon="0.56301">
        <ele>614.329</ele>
        <time>2021-02-27T13:45:11Z</time>
      </trkpt>
      <trkpt lat="42.98256" lon="0.56305">
        <ele>614.54</ele>
        <time>2021-02-27T13:45:13Z</time>
      </trkpt>
      <trkpt lat="42.98256" lon="0.56308">
        <ele>613.823</ele>
        <time>2021-02-27T13:45:15Z</time>
      </trkpt>
      <trkpt lat="42.98257" lon="0.56311">
        <ele>613.301</ele>
        <time>2021-02-27T13:45:17Z</time>
      </trkpt>
      <trkpt lat="42.98258" lon="0.56313">
        <ele>612.091</ele>
        <time>2021-02-27T13:45:19Z</time>
      </trkpt>
      <trkpt lat="42.98258" lon="0.56317">
        <ele>612.599</ele>
        <time>2021-02-27T13:45:21Z</time>
      </trkpt>
      <trkpt lat="42.98258" lon="0.56321">
        <ele>612.159</ele>
        <time>2021-02-27T13:45:23Z</time>
      </trkpt>
      <trkpt lat="42.98259" lon="0.56324">
        <ele>613.13</ele>
        <time>2021-02-27T13:45:25Z</time>
      </trkpt>
      <trkpt lat="42.98259" lon="0.56328">
        <ele>612.083</ele>
        <time>2021-02-27T13:45:27Z</time>
      </trkpt>
      <trkpt lat="42.98259" lon="0.56332">
        <ele>612.135</ele>
        <time>2021-02-27T13:45:29Z</time>
      </trkpt>
      <trkpt lat="42.98259" lon="0.56335">
        <ele>612.013</ele>
        <time>2021-02-27T13:45:31Z</time>
      </trkpt>
      <trkpt lat="42.98258" lon="0.56336">
        <ele>611.715</ele>
        <time>2021-02-27T13:45:33Z</time>
      </trkpt>
      <trkpt lat="42.98257" lon="0.56341">
        <ele>611.597</ele>
        <time>2021-02-27T13:45:35Z</time>
      </trkpt>
      <trkpt lat="42.98256" lon="0.56345">
        <ele>612.887</ele>
        <time>2021-02-27T13:45:37Z</time>
      </trkpt>
      <trkpt lat="42.98256" lon="0.56349">
        <ele>613.084</ele>
        <time>2021-02-27T13:45:39Z</time>
      </trkpt>
      <trkpt lat="42.98255" lon="0.56351">
        <ele>611.382</ele>
        <time>2021-02-27T13:45:41Z</time>
      </trkpt>
      <trkpt lat="42.98255" lon="0.56355">
        <ele>610.916</ele>
        <time>2021-02-27T13:45:43Z</time>
      </trkpt>
      <trkpt lat="42.98254" lon="0.5636">
        <ele>611.003</ele>
        <time>2021-02-27T13:45:45Z</time>
      </trkpt>
      <trkpt lat="42.98253" lon="0.56363">
        <ele>610.127</ele>
        <time>2021-02-27T13:45:47Z</time>
      </trkpt>
      <trkpt lat="42.98251" lon="0.56367">
        <ele>610.25</ele>
        <time>2021-02-27T13:45:49Z</time>
      </trkpt>
      <trkpt lat="42.9825" lon="0.5637">
        <ele>607.93</ele>
        <time>2021-02-27T13:45:51Z</time>
      </trkpt>
      <trkpt lat="42.9825" lon="0.56373">
        <ele>606.766</ele>
        <time>2021-02-27T13:45:53Z</time>
      </trkpt>
      <trkpt lat="42.98249" lon="0.56376">
        <ele>607.335</ele>
        <time>2021-02-27T13:45:55Z</time>
      </trkpt>
      <trkpt lat="42.98248" lon="0.56379">
        <ele>607.216</ele>
        <time>2021-02-27T13:45:57Z</time>
      </trkpt>
      <trkpt lat="42.98246" lon="0.56382">
        <ele>606.983</ele>
        <time>2021-02-27T13:45:59Z</time>
      </trkpt>
      <trkpt lat="42.98245" lon="0.56385">
        <ele>605.989</ele>
        <time>2021-02-27T13:46:01Z</time>
      </trkpt>
      <trkpt lat="42.98245" lon="0.56389">
        <ele>606.102</ele>
        <time>2021-02-27T13:46:03Z</time>
      </trkpt>
      <trkpt lat="42.98246" lon="0.56393">
        <ele>605.331</ele>
        <time>2021-02-27T13:46:05Z</time>
      </trkpt>
      <trkpt lat="42.98248" lon="0.56396">
        <ele>605.66</ele>
        <time>2021-02-27T13:46:07Z</time>
      </trkpt>
      <trkpt lat="42.9825" lon="0.56398">
        <ele>605.732</ele>
        <time>2021-02-27T13:46:09Z</time>
      </trkpt>
      <trkpt lat="42.98252" lon="0.56401">
        <ele>605.641</ele>
        <time>2021-02-27T13:46:11Z</time>
      </trkpt>
      <trkpt lat="42.98254" lon="0.56404">
        <ele>605.442</ele>
        <time>2021-02-27T13:46:13Z</time>
      </trkpt>
      <trkpt lat="42.98256" lon="0.56407">
        <ele>605.098</ele>
        <time>2021-02-27T13:46:15Z</time>
      </trkpt>
      <trkpt lat="42.98258" lon="0.5641">
        <ele>605.706</ele>
        <time>2021-02-27T13:46:17Z</time>
      </trkpt>
      <trkpt lat="42.9826" lon="0.56414">
        <ele>606.776</ele>
        <time>2021-02-27T13:46:19Z</time>
      </trkpt>
      <trkpt lat="42.98263" lon="0.56416">
        <ele>607.474</ele>
        <time>2021-02-27T13:46:21Z</time>
      </trkpt>
      <trkpt lat="42.98265" lon="0.56418">
        <ele>607.684</ele>
        <time>2021-02-27T13:46:23Z</time>
      </trkpt>
      <trkpt lat="42.98269" lon="0.56419">
        <ele>607.241</ele>
        <time>2021-02-27T13:46:25Z</time>
      </trkpt>
      <trkpt lat="42.98272" lon="0.56421">
        <ele>607.051</ele>
        <time>2021-02-27T13:46:27Z</time>
      </trkpt>
      <trkpt lat="42.98275" lon="0.56423">
        <ele>607.261</ele>
        <time>2021-02-27T13:46:29Z</time>
      </trkpt>
      <trkpt lat="42.98277" lon="0.56424">
        <ele>607.293</ele>
        <time>2021-02-27T13:46:31Z</time>
      </trkpt>
      <trkpt lat="42.9828" lon="0.56424">
        <ele>607.885</ele>
        <time>2021-02-27T13:46:33Z</time>
      </trkpt>
      <trkpt lat="42.98283" lon="0.56423">
        <ele>608.047</ele>
        <time>2021-02-27T13:46:35Z</time>
      </trkpt>
      <trkpt lat="42.98284" lon="0.56422">
        <ele>606.789</ele>
        <time>2021-02-27T13:46:37Z</time>
      </trkpt>
      <trkpt lat="42.98286" lon="0.5642">
        <ele>606.653</ele>
        <time>2021-02-27T13:46:39Z</time>
      </trkpt>
      <trkpt lat="42.98287" lon="0.56418">
        <ele>607.062</ele>
        <time>2021-02-27T13:46:41Z</time>
      </trkpt>
      <trkpt lat="42.98288" lon="0.56416">
        <ele>606.095</ele>
        <time>2021-02-27T13:46:43Z</time>
      </trkpt>
      <trkpt lat="42.9829" lon="0.56414">
        <ele>605.969</ele>
        <time>2021-02-27T13:46:45Z</time>
      </trkpt>
      <trkpt lat="42.98291" lon="0.56413">
        <ele>603.984</ele>
        <time>2021-02-27T13:46:47Z</time>
      </trkpt>
      <trkpt lat="42.98292" lon="0.56411">
        <ele>603.062</ele>
        <time>2021-02-27T13:46:49Z</time>
      </trkpt>
      <trkpt lat="42.98293" lon="0.56409">
        <ele>603.237</ele>
        <time>2021-02-27T13:46:51Z</time>
      </trkpt>
      <trkpt lat="42.98294" lon="0.56407">
        <ele>602.429</ele>
        <time>2021-02-27T13:46:53Z</time>
      </trkpt>
      <trkpt lat="42.98296" lon="0.56405">
        <ele>602.597</ele>
        <time>2021-02-27T13:46:55Z</time>
      </trkpt>
      <trkpt lat="42.98298" lon="0.56404">
        <ele>603.156</ele>
        <time>2021-02-27T13:46:57Z</time>
      </trkpt>
      <trkpt lat="42.983" lon="0.56402">
        <ele>602.311</ele>
        <time>2021-02-27T13:46:59Z</time>
      </trkpt>
      <trkpt lat="42.98302" lon="0.564">
        <ele>601.661</ele>
        <time>2021-02-27T13:47:01Z</time>
      </trkpt>
      <trkpt lat="42.98303" lon="0.56399">
        <ele>600.945</ele>
        <time>2021-02-27T13:47:03Z</time>
      </trkpt>
      <trkpt lat="42.98305" lon="0.56398">
        <ele>601.072</ele>
        <time>2021-02-27T13:47:05Z</time>
      </trkpt>
      <trkpt lat="42.98308" lon="0.56399">
        <ele>602.343</ele>
        <time>2021-02-27T13:47:07Z</time>
      </trkpt>
      <trkpt lat="42.9831" lon="0.56399">
        <ele>602.77</ele>
        <time>2021-02-27T13:47:09Z</time>
      </trkpt>
      <trkpt lat="42.98313" lon="0.564">
        <ele>603.79</ele>
        <time>2021-02-27T13:47:11Z</time>
      </trkpt>
      <trkpt lat="42.98316" lon="0.56401">
        <ele>604.291</ele>
        <time>2021-02-27T13:47:13Z</time>
      </trkpt>
      <trkpt lat="42.98318" lon="0.564">
        <ele>604.687</ele>
        <time>2021-02-27T13:47:15Z</time>
      </trkpt>
      <trkpt lat="42.98319" lon="0.56398">
        <ele>604.955</ele>
        <time>2021-02-27T13:47:17Z</time>
      </trkpt>
      <trkpt lat="42.98321" lon="0.56397">
        <ele>605.36</ele>
        <time>2021-02-27T13:47:19Z</time>
      </trkpt>
      <trkpt lat="42.98323" lon="0.56395">
        <ele>605.217</ele>
        <time>2021-02-27T13:47:21Z</time>
      </trkpt>
      <trkpt lat="42.98324" lon="0.56392">
        <ele>605.318</ele>
        <time>2021-02-27T13:47:23Z</time>
      </trkpt>
      <trkpt lat="42.98326" lon="0.5639">
        <ele>605.543</ele>
        <time>2021-02-27T13:47:25Z</time>
      </trkpt>
      <trkpt lat="42.98328" lon="0.56389">
        <ele>607.176</ele>
        <time>2021-02-27T13:47:27Z</time>
      </trkpt>
      <trkpt lat="42.98331" lon="0.56389">
        <ele>607.847</ele>
        <time>2021-02-27T13:47:29Z</time>
      </trkpt>
      <trkpt lat="42.98333" lon="0.56388">
        <ele>607.36</ele>
        <time>2021-02-27T13:47:31Z</time>
      </trkpt>
      <trkpt lat="42.98335" lon="0.56386">
        <ele>607.615</ele>
        <time>2021-02-27T13:47:33Z</time>
      </trkpt>
      <trkpt lat="42.98336" lon="0.56383">
        <ele>607.822</ele>
        <time>2021-02-27T13:47:35Z</time>
      </trkpt>
      <trkpt lat="42.98338" lon="0.56381">
        <ele>607.877</ele>
        <time>2021-02-27T13:47:37Z</time>
      </trkpt>
      <trkpt lat="42.98341" lon="0.56379">
        <ele>608.417</ele>
        <time>2021-02-27T13:47:39Z</time>
      </trkpt>
      <trkpt lat="42.98343" lon="0.56377">
        <ele>609.056</ele>
        <time>2021-02-27T13:47:41Z</time>
      </trkpt>
      <trkpt lat="42.98345" lon="0.56376">
        <ele>608.543</ele>
        <time>2021-02-27T13:47:43Z</time>
      </trkpt>
      <trkpt lat="42.98347" lon="0.56373">
        <ele>608.852</ele>
        <time>2021-02-27T13:47:45Z</time>
      </trkpt>
      <trkpt lat="42.98349" lon="0.56371">
        <ele>608.361</ele>
        <time>2021-02-27T13:47:47Z</time>
      </trkpt>
      <trkpt lat="42.98351" lon="0.56369">
        <ele>608.042</ele>
        <time>2021-02-27T13:47:49Z</time>
      </trkpt>
      <trkpt lat="42.98353" lon="0.56367">
        <ele>608.443</ele>
        <time>2021-02-27T13:47:51Z</time>
      </trkpt>
      <trkpt lat="42.98355" lon="0.56366">
        <ele>608.495</ele>
        <time>2021-02-27T13:47:53Z</time>
      </trkpt>
      <trkpt lat="42.98357" lon="0.56364">
        <ele>608.021</ele>
        <time>2021-02-27T13:47:55Z</time>
      </trkpt>
      <trkpt lat="42.98359" lon="0.56363">
        <ele>608.121</ele>
        <time>2021-02-27T13:47:57Z</time>
      </trkpt>
      <trkpt lat="42.98363" lon="0.56362">
        <ele>607.562</ele>
        <time>2021-02-27T13:48:00Z</time>
      </trkpt>
      <trkpt lat="42.98366" lon="0.56361">
        <ele>607.316</ele>
        <time>2021-02-27T13:48:02Z</time>
      </trkpt>
      <trkpt lat="42.98367" lon="0.5636">
        <ele>607.847</ele>
        <time>2021-02-27T13:48:03Z</time>
      </trkpt>
      <trkpt lat="42.98371" lon="0.56358">
        <ele>606.621</ele>
        <time>2021-02-27T13:48:06Z</time>
      </trkpt>
      <trkpt lat="42.98374" lon="0.56358">
        <ele>606.518</ele>
        <time>2021-02-27T13:48:08Z</time>
      </trkpt>
      <trkpt lat="42.98376" lon="0.56357">
        <ele>606.268</ele>
        <time>2021-02-27T13:48:10Z</time>
      </trkpt>
      <trkpt lat="42.98379" lon="0.56356">
        <ele>606.313</ele>
        <time>2021-02-27T13:48:12Z</time>
      </trkpt>
      <trkpt lat="42.98382" lon="0.56355">
        <ele>606.385</ele>
        <time>2021-02-27T13:48:14Z</time>
      </trkpt>
      <trkpt lat="42.98385" lon="0.56355">
        <ele>606.634</ele>
        <time>2021-02-27T13:48:16Z</time>
      </trkpt>
      <trkpt lat="42.98387" lon="0.56353">
        <ele>606.491</ele>
        <time>2021-02-27T13:48:18Z</time>
      </trkpt>
      <trkpt lat="42.9839" lon="0.56352">
        <ele>606.128</ele>
        <time>2021-02-27T13:48:20Z</time>
      </trkpt>
      <trkpt lat="42.98393" lon="0.5635">
        <ele>606.462</ele>
        <time>2021-02-27T13:48:22Z</time>
      </trkpt>
      <trkpt lat="42.98395" lon="0.56348">
        <ele>605.262</ele>
        <time>2021-02-27T13:48:24Z</time>
      </trkpt>
      <trkpt lat="42.98397" lon="0.56346">
        <ele>605.359</ele>
        <time>2021-02-27T13:48:26Z</time>
      </trkpt>
      <trkpt lat="42.984" lon="0.56344">
        <ele>605.241</ele>
        <time>2021-02-27T13:48:28Z</time>
      </trkpt>
      <trkpt lat="42.98403" lon="0.56342">
        <ele>604.641</ele>
        <time>2021-02-27T13:48:30Z</time>
      </trkpt>
      <trkpt lat="42.98406" lon="0.5634">
        <ele>604.16</ele>
        <time>2021-02-27T13:48:32Z</time>
      </trkpt>
      <trkpt lat="42.98408" lon="0.56337">
        <ele>604.15</ele>
        <time>2021-02-27T13:48:34Z</time>
      </trkpt>
      <trkpt lat="42.98411" lon="0.56336">
        <ele>603.674</ele>
        <time>2021-02-27T13:48:36Z</time>
      </trkpt>
      <trkpt lat="42.98414" lon="0.56334">
        <ele>603.566</ele>
        <time>2021-02-27T13:48:38Z</time>
      </trkpt>
      <trkpt lat="42.98416" lon="0.56332">
        <ele>603.463</ele>
        <time>2021-02-27T13:48:40Z</time>
      </trkpt>
      <trkpt lat="42.98419" lon="0.56331">
        <ele>603.166</ele>
        <time>2021-02-27T13:48:42Z</time>
      </trkpt>
      <trkpt lat="42.98422" lon="0.56329">
        <ele>603.38</ele>
        <time>2021-02-27T13:48:44Z</time>
      </trkpt>
      <trkpt lat="42.98425" lon="0.56327">
        <ele>603.923</ele>
        <time>2021-02-27T13:48:46Z</time>
      </trkpt>
      <trkpt lat="42.98427" lon="0.56325">
        <ele>603.733</ele>
        <time>2021-02-27T13:48:48Z</time>
      </trkpt>
      <trkpt lat="42.9843" lon="0.56324">
        <ele>603.899</ele>
        <time>2021-02-27T13:48:50Z</time>
      </trkpt>
      <trkpt lat="42.98433" lon="0.56321">
        <ele>603.917</ele>
        <time>2021-02-27T13:48:52Z</time>
      </trkpt>
      <trkpt lat="42.98436" lon="0.56319">
        <ele>603.467</ele>
        <time>2021-02-27T13:48:54Z</time>
      </trkpt>
      <trkpt lat="42.98438" lon="0.56317">
        <ele>603.016</ele>
        <time>2021-02-27T13:48:56Z</time>
      </trkpt>
      <trkpt lat="42.98441" lon="0.56315">
        <ele>603.104</ele>
        <time>2021-02-27T13:48:58Z</time>
      </trkpt>
      <trkpt lat="42.98444" lon="0.56313">
        <ele>603.184</ele>
        <time>2021-02-27T13:49:00Z</time>
      </trkpt>
      <trkpt lat="42.98447" lon="0.56312">
        <ele>603.059</ele>
        <time>2021-02-27T13:49:02Z</time>
      </trkpt>
      <trkpt lat="42.98449" lon="0.56309">
        <ele>602.573</ele>
        <time>2021-02-27T13:49:04Z</time>
      </trkpt>
      <trkpt lat="42.98451" lon="0.56306">
        <ele>601.443</ele>
        <time>2021-02-27T13:49:06Z</time>
      </trkpt>
      <trkpt lat="42.98453" lon="0.56304">
        <ele>601.338</ele>
        <time>2021-02-27T13:49:08Z</time>
      </trkpt>
      <trkpt lat="42.98455" lon="0.56302">
        <ele>601.384</ele>
        <time>2021-02-27T13:49:10Z</time>
      </trkpt>
      <trkpt lat="42.98458" lon="0.563">
        <ele>600.759</ele>
        <time>2021-02-27T13:49:12Z</time>
      </trkpt>
      <trkpt lat="42.98461" lon="0.56299">
        <ele>600.207</ele>
        <time>2021-02-27T13:49:14Z</time>
      </trkpt>
      <trkpt lat="42.98463" lon="0.56298">
        <ele>600.731</ele>
        <time>2021-02-27T13:49:16Z</time>
      </trkpt>
      <trkpt lat="42.98466" lon="0.56296">
        <ele>600.369</ele>
        <time>2021-02-27T13:49:18Z</time>
      </trkpt>
      <trkpt lat="42.98469" lon="0.56296">
        <ele>600.16</ele>
        <time>2021-02-27T13:49:20Z</time>
      </trkpt>
      <trkpt lat="42.98473" lon="0.56295">
        <ele>601.625</ele>
        <time>2021-02-27T13:49:22Z</time>
      </trkpt>
      <trkpt lat="42.98476" lon="0.56295">
        <ele>601.315</ele>
        <time>2021-02-27T13:49:24Z</time>
      </trkpt>
      <trkpt lat="42.98479" lon="0.56295">
        <ele>601.203</ele>
        <time>2021-02-27T13:49:26Z</time>
      </trkpt>
      <trkpt lat="42.98482" lon="0.56295">
        <ele>601.331</ele>
        <time>2021-02-27T13:49:28Z</time>
      </trkpt>
      <trkpt lat="42.98486" lon="0.56295">
        <ele>601.162</ele>
        <time>2021-02-27T13:49:30Z</time>
      </trkpt>
      <trkpt lat="42.98489" lon="0.56296">
        <ele>601.591</ele>
        <time>2021-02-27T13:49:32Z</time>
      </trkpt>
      <trkpt lat="42.98492" lon="0.56296">
        <ele>602.453</ele>
        <time>2021-02-27T13:49:34Z</time>
      </trkpt>
      <trkpt lat="42.98495" lon="0.56297">
        <ele>602.641</ele>
        <time>2021-02-27T13:49:36Z</time>
      </trkpt>
      <trkpt lat="42.98498" lon="0.56298">
        <ele>603.642</ele>
        <time>2021-02-27T13:49:38Z</time>
      </trkpt>
      <trkpt lat="42.98501" lon="0.56299">
        <ele>604.262</ele>
        <time>2021-02-27T13:49:40Z</time>
      </trkpt>
      <trkpt lat="42.98504" lon="0.563">
        <ele>604.353</ele>
        <time>2021-02-27T13:49:42Z</time>
      </trkpt>
      <trkpt lat="42.98508" lon="0.56302">
        <ele>604.997</ele>
        <time>2021-02-27T13:49:44Z</time>
      </trkpt>
      <trkpt lat="42.98511" lon="0.56303">
        <ele>605.176</ele>
        <time>2021-02-27T13:49:46Z</time>
      </trkpt>
      <trkpt lat="42.98514" lon="0.56304">
        <ele>605.125</ele>
        <time>2021-02-27T13:49:48Z</time>
      </trkpt>
      <trkpt lat="42.98517" lon="0.56305">
        <ele>605.401</ele>
        <time>2021-02-27T13:49:50Z</time>
      </trkpt>
      <trkpt lat="42.9852" lon="0.56306">
        <ele>604.957</ele>
        <time>2021-02-27T13:49:52Z</time>
      </trkpt>
      <trkpt lat="42.98523" lon="0.56306">
        <ele>604.761</ele>
        <time>2021-02-27T13:49:54Z</time>
      </trkpt>
      <trkpt lat="42.98526" lon="0.56306">
        <ele>604.253</ele>
        <time>2021-02-27T13:49:56Z</time>
      </trkpt>
      <trkpt lat="42.98529" lon="0.56306">
        <ele>603.829</ele>
        <time>2021-02-27T13:49:58Z</time>
      </trkpt>
      <trkpt lat="42.98532" lon="0.56305">
        <ele>603.647</ele>
        <time>2021-02-27T13:50:00Z</time>
      </trkpt>
      <trkpt lat="42.98535" lon="0.56305">
        <ele>603.016</ele>
        <time>2021-02-27T13:50:02Z</time>
      </trkpt>
      <trkpt lat="42.98538" lon="0.56305">
        <ele>601.717</ele>
        <time>2021-02-27T13:50:04Z</time>
      </trkpt>
      <trkpt lat="42.98541" lon="0.56306">
        <ele>602.264</ele>
        <time>2021-02-27T13:50:06Z</time>
      </trkpt>
      <trkpt lat="42.98544" lon="0.56305">
        <ele>601.381</ele>
        <time>2021-02-27T13:50:08Z</time>
      </trkpt>
      <trkpt lat="42.98547" lon="0.56305">
        <ele>600.83</ele>
        <time>2021-02-27T13:50:10Z</time>
      </trkpt>
      <trkpt lat="42.9855" lon="0.56303">
        <ele>599.89</ele>
        <time>2021-02-27T13:50:12Z</time>
      </trkpt>
      <trkpt lat="42.98552" lon="0.56302">
        <ele>599.842</ele>
        <time>2021-02-27T13:50:14Z</time>
      </trkpt>
      <trkpt lat="42.98555" lon="0.56301">
        <ele>599.248</ele>
        <time>2021-02-27T13:50:16Z</time>
      </trkpt>
      <trkpt lat="42.98558" lon="0.563">
        <ele>599.698</ele>
        <time>2021-02-27T13:50:18Z</time>
      </trkpt>
      <trkpt lat="42.98561" lon="0.56299">
        <ele>599.822</ele>
        <time>2021-02-27T13:50:20Z</time>
      </trkpt>
      <trkpt lat="42.98563" lon="0.56298">
        <ele>599.842</ele>
        <time>2021-02-27T13:50:22Z</time>
      </trkpt>
      <trkpt lat="42.98566" lon="0.56297">
        <ele>599.484</ele>
        <time>2021-02-27T13:50:24Z</time>
      </trkpt>
      <trkpt lat="42.98569" lon="0.56295">
        <ele>598.835</ele>
        <time>2021-02-27T13:50:26Z</time>
      </trkpt>
      <trkpt lat="42.98572" lon="0.56294">
        <ele>598.052</ele>
        <time>2021-02-27T13:50:28Z</time>
      </trkpt>
      <trkpt lat="42.98575" lon="0.56293">
        <ele>598.025</ele>
        <time>2021-02-27T13:50:30Z</time>
      </trkpt>
      <trkpt lat="42.98578" lon="0.56291">
        <ele>598.208</ele>
        <time>2021-02-27T13:50:32Z</time>
      </trkpt>
      <trkpt lat="42.98581" lon="0.5629">
        <ele>598.981</ele>
        <time>2021-02-27T13:50:34Z</time>
      </trkpt>
      <trkpt lat="42.98585" lon="0.5629">
        <ele>598.932</ele>
        <time>2021-02-27T13:50:36Z</time>
      </trkpt>
      <trkpt lat="42.98588" lon="0.56291">
        <ele>598.848</ele>
        <time>2021-02-27T13:50:38Z</time>
      </trkpt>
      <trkpt lat="42.98591" lon="0.56292">
        <ele>598.673</ele>
        <time>2021-02-27T13:50:40Z</time>
      </trkpt>
      <trkpt lat="42.98593" lon="0.56292">
        <ele>598.299</ele>
        <time>2021-02-27T13:50:42Z</time>
      </trkpt>
      <trkpt lat="42.98596" lon="0.56293">
        <ele>598.301</ele>
        <time>2021-02-27T13:50:44Z</time>
      </trkpt>
      <trkpt lat="42.98599" lon="0.56294">
        <ele>598.169</ele>
        <time>2021-02-27T13:50:46Z</time>
      </trkpt>
      <trkpt lat="42.98602" lon="0.56295">
        <ele>597.824</ele>
        <time>2021-02-27T13:50:48Z</time>
      </trkpt>
      <trkpt lat="42.98605" lon="0.56296">
        <ele>596.834</ele>
        <time>2021-02-27T13:50:50Z</time>
      </trkpt>
      <trkpt lat="42.98608" lon="0.56297">
        <ele>596.91</ele>
        <time>2021-02-27T13:50:52Z</time>
      </trkpt>
      <trkpt lat="42.98611" lon="0.56298">
        <ele>597.083</ele>
        <time>2021-02-27T13:50:54Z</time>
      </trkpt>
      <trkpt lat="42.98614" lon="0.56299">
        <ele>597.212</ele>
        <time>2021-02-27T13:50:56Z</time>
      </trkpt>
      <trkpt lat="42.98617" lon="0.563">
        <ele>596.818</ele>
        <time>2021-02-27T13:50:58Z</time>
      </trkpt>
      <trkpt lat="42.9862" lon="0.563">
        <ele>597.061</ele>
        <time>2021-02-27T13:51:00Z</time>
      </trkpt>
      <trkpt lat="42.98623" lon="0.56301">
        <ele>597.075</ele>
        <time>2021-02-27T13:51:02Z</time>
      </trkpt>
      <trkpt lat="42.98626" lon="0.56301">
        <ele>596.805</ele>
        <time>2021-02-27T13:51:04Z</time>
      </trkpt>
      <trkpt lat="42.98628" lon="0.56302">
        <ele>597.069</ele>
        <time>2021-02-27T13:51:06Z</time>
      </trkpt>
      <trkpt lat="42.98631" lon="0.56302">
        <ele>596.778</ele>
        <time>2021-02-27T13:51:08Z</time>
      </trkpt>
      <trkpt lat="42.98634" lon="0.56303">
        <ele>596.926</ele>
        <time>2021-02-27T13:51:10Z</time>
      </trkpt>
      <trkpt lat="42.98637" lon="0.56304">
        <ele>596.897</ele>
        <time>2021-02-27T13:51:12Z</time>
      </trkpt>
      <trkpt lat="42.98639" lon="0.56305">
        <ele>597.389</ele>
        <time>2021-02-27T13:51:14Z</time>
      </trkpt>
      <trkpt lat="42.98642" lon="0.56305">
        <ele>597.468</ele>
        <time>2021-02-27T13:51:16Z</time>
      </trkpt>
      <trkpt lat="42.98643" lon="0.56306">
        <ele>597.258</ele>
        <time>2021-02-27T13:51:17Z</time>
      </trkpt>
      <trkpt lat="42.98647" lon="0.56307">
        <ele>597.615</ele>
        <time>2021-02-27T13:51:20Z</time>
      </trkpt>
      <trkpt lat="42.9865" lon="0.56307">
        <ele>597.344</ele>
        <time>2021-02-27T13:51:22Z</time>
      </trkpt>
      <trkpt lat="42.98653" lon="0.56307">
        <ele>596.269</ele>
        <time>2021-02-27T13:51:24Z</time>
      </trkpt>
      <trkpt lat="42.98656" lon="0.56309">
        <ele>596.164</ele>
        <time>2021-02-27T13:51:26Z</time>
      </trkpt>
      <trkpt lat="42.98658" lon="0.56309">
        <ele>595.356</ele>
        <time>2021-02-27T13:51:28Z</time>
      </trkpt>
      <trkpt lat="42.98661" lon="0.56309">
        <ele>595.937</ele>
        <time>2021-02-27T13:51:30Z</time>
      </trkpt>
      <trkpt lat="42.98664" lon="0.56309">
        <ele>596.832</ele>
        <time>2021-02-27T13:51:32Z</time>
      </trkpt>
      <trkpt lat="42.98667" lon="0.56308">
        <ele>596.518</ele>
        <time>2021-02-27T13:51:34Z</time>
      </trkpt>
      <trkpt lat="42.9867" lon="0.56307">
        <ele>596.667</ele>
        <time>2021-02-27T13:51:36Z</time>
      </trkpt>
      <trkpt lat="42.98673" lon="0.56307">
        <ele>596.799</ele>
        <time>2021-02-27T13:51:38Z</time>
      </trkpt>
      <trkpt lat="42.98676" lon="0.56306">
        <ele>596.521</ele>
        <time>2021-02-27T13:51:40Z</time>
      </trkpt>
      <trkpt lat="42.98679" lon="0.56306">
        <ele>595.846</ele>
        <time>2021-02-27T13:51:42Z</time>
      </trkpt>
      <trkpt lat="42.98682" lon="0.56305">
        <ele>595.302</ele>
        <time>2021-02-27T13:51:44Z</time>
      </trkpt>
      <trkpt lat="42.98684" lon="0.56304">
        <ele>595.398</ele>
        <time>2021-02-27T13:51:46Z</time>
      </trkpt>
      <trkpt lat="42.98687" lon="0.56304">
        <ele>595.357</ele>
        <time>2021-02-27T13:51:48Z</time>
      </trkpt>
      <trkpt lat="42.9869" lon="0.56303">
        <ele>594.716</ele>
        <time>2021-02-27T13:51:50Z</time>
      </trkpt>
      <trkpt lat="42.98693" lon="0.56303">
        <ele>593.897</ele>
        <time>2021-02-27T13:51:52Z</time>
      </trkpt>
      <trkpt lat="42.98695" lon="0.56304">
        <ele>593.411</ele>
        <time>2021-02-27T13:51:54Z</time>
      </trkpt>
      <trkpt lat="42.98697" lon="0.56308">
        <ele>593.487</ele>
        <time>2021-02-27T13:51:56Z</time>
      </trkpt>
      <trkpt lat="42.98701" lon="0.56308">
        <ele>593.289</ele>
        <time>2021-02-27T13:51:58Z</time>
      </trkpt>
      <trkpt lat="42.98703" lon="0.56309">
        <ele>593.349</ele>
        <time>2021-02-27T13:52:00Z</time>
      </trkpt>
      <trkpt lat="42.98706" lon="0.5631">
        <ele>593.142</ele>
        <time>2021-02-27T13:52:02Z</time>
      </trkpt>
      <trkpt lat="42.98708" lon="0.56311">
        <ele>592.829</ele>
        <time>2021-02-27T13:52:04Z</time>
      </trkpt>
      <trkpt lat="42.9871" lon="0.56312">
        <ele>593.28</ele>
        <time>2021-02-27T13:52:06Z</time>
      </trkpt>
      <trkpt lat="42.98713" lon="0.56314">
        <ele>593.414</ele>
        <time>2021-02-27T13:52:08Z</time>
      </trkpt>
      <trkpt lat="42.98715" lon="0.56314">
        <ele>593.557</ele>
        <time>2021-02-27T13:52:10Z</time>
      </trkpt>
      <trkpt lat="42.98717" lon="0.56316">
        <ele>593.294</ele>
        <time>2021-02-27T13:52:12Z</time>
      </trkpt>
      <trkpt lat="42.98719" lon="0.56316">
        <ele>593.78</ele>
        <time>2021-02-27T13:52:14Z</time>
      </trkpt>
      <trkpt lat="42.98721" lon="0.56319">
        <ele>593.462</ele>
        <time>2021-02-27T13:52:16Z</time>
      </trkpt>
      <trkpt lat="42.98723" lon="0.56321">
        <ele>593.738</ele>
        <time>2021-02-27T13:52:18Z</time>
      </trkpt>
      <trkpt lat="42.98724" lon="0.56324">
        <ele>593.552</ele>
        <time>2021-02-27T13:52:20Z</time>
      </trkpt>
      <trkpt lat="42.98726" lon="0.56327">
        <ele>593.004</ele>
        <time>2021-02-27T13:52:22Z</time>
      </trkpt>
      <trkpt lat="42.98728" lon="0.56329">
        <ele>592.601</ele>
        <time>2021-02-27T13:52:24Z</time>
      </trkpt>
      <trkpt lat="42.98729" lon="0.56332">
        <ele>592.888</ele>
        <time>2021-02-27T13:52:26Z</time>
      </trkpt>
      <trkpt lat="42.98731" lon="0.56336">
        <ele>593.233</ele>
        <time>2021-02-27T13:52:28Z</time>
      </trkpt>
      <trkpt lat="42.98733" lon="0.56339">
        <ele>593.452</ele>
        <time>2021-02-27T13:52:30Z</time>
      </trkpt>
      <trkpt lat="42.98735" lon="0.56342">
        <ele>593.423</ele>
        <time>2021-02-27T13:52:32Z</time>
      </trkpt>
      <trkpt lat="42.98737" lon="0.56344">
        <ele>593.207</ele>
        <time>2021-02-27T13:52:34Z</time>
      </trkpt>
      <trkpt lat="42.98739" lon="0.56349">
        <ele>593.603</ele>
        <time>2021-02-27T13:52:37Z</time>
      </trkpt>
      <trkpt lat="42.98741" lon="0.56351">
        <ele>593.772</ele>
        <time>2021-02-27T13:52:39Z</time>
      </trkpt>
      <trkpt lat="42.98743" lon="0.56354">
        <ele>593.754</ele>
        <time>2021-02-27T13:52:41Z</time>
      </trkpt>
      <trkpt lat="42.98745" lon="0.56357">
        <ele>593.615</ele>
        <time>2021-02-27T13:52:43Z</time>
      </trkpt>
      <trkpt lat="42.98746" lon="0.56359">
        <ele>593.543</ele>
        <time>2021-02-27T13:52:45Z</time>
      </trkpt>
      <trkpt lat="42.98747" lon="0.56364">
        <ele>593.307</ele>
        <time>2021-02-27T13:52:47Z</time>
      </trkpt>
      <trkpt lat="42.98749" lon="0.56367">
        <ele>593.081</ele>
        <time>2021-02-27T13:52:49Z</time>
      </trkpt>
      <trkpt lat="42.98751" lon="0.56369">
        <ele>593.125</ele>
        <time>2021-02-27T13:52:51Z</time>
      </trkpt>
      <trkpt lat="42.98753" lon="0.56372">
        <ele>592.666</ele>
        <time>2021-02-27T13:52:53Z</time>
      </trkpt>
      <trkpt lat="42.98755" lon="0.56375">
        <ele>592.333</ele>
        <time>2021-02-27T13:52:55Z</time>
      </trkpt>
      <trkpt lat="42.98757" lon="0.56377">
        <ele>591.677</ele>
        <time>2021-02-27T13:52:57Z</time>
      </trkpt>
      <trkpt lat="42.98759" lon="0.56379">
        <ele>591.56</ele>
        <time>2021-02-27T13:52:59Z</time>
      </trkpt>
      <trkpt lat="42.98761" lon="0.56382">
        <ele>591.633</ele>
        <time>2021-02-27T13:53:01Z</time>
      </trkpt>
      <trkpt lat="42.98763" lon="0.56384">
        <ele>591.658</ele>
        <time>2021-02-27T13:53:03Z</time>
      </trkpt>
      <trkpt lat="42.98765" lon="0.56387">
        <ele>592.576</ele>
        <time>2021-02-27T13:53:05Z</time>
      </trkpt>
      <trkpt lat="42.98767" lon="0.56389">
        <ele>592.811</ele>
        <time>2021-02-27T13:53:07Z</time>
      </trkpt>
      <trkpt lat="42.98769" lon="0.56389">
        <ele>592.994</ele>
        <time>2021-02-27T13:53:09Z</time>
      </trkpt>
      <trkpt lat="42.98771" lon="0.5639">
        <ele>593.924</ele>
        <time>2021-02-27T13:53:11Z</time>
      </trkpt>
      <trkpt lat="42.98774" lon="0.56388">
        <ele>593.804</ele>
        <time>2021-02-27T13:53:13Z</time>
      </trkpt>
      <trkpt lat="42.98776" lon="0.56387">
        <ele>593.67</ele>
        <time>2021-02-27T13:53:15Z</time>
      </trkpt>
      <trkpt lat="42.98776" lon="0.56384">
        <ele>593.264</ele>
        <time>2021-02-27T13:53:17Z</time>
      </trkpt>
      <trkpt lat="42.98776" lon="0.56382">
        <ele>590.407</ele>
        <time>2021-02-27T13:53:19Z</time>
      </trkpt>
      <trkpt lat="42.98777" lon="0.56381">
        <ele>589.772</ele>
        <time>2021-02-27T13:53:21Z</time>
      </trkpt>
      <trkpt lat="42.98778" lon="0.56379">
        <ele>587.967</ele>
        <time>2021-02-27T13:53:23Z</time>
      </trkpt>
      <trkpt lat="42.98778" lon="0.56379">
        <ele>587.967</ele>
        <time>2021-02-27T13:53:25Z</time>
      </trkpt>
      <trkpt lat="42.98778" lon="0.56379">
        <ele>587.959</ele>
        <time>2021-02-27T13:53:27Z</time>
      </trkpt>
      <trkpt lat="42.98778" lon="0.56379">
        <ele>588.041</ele>
        <time>2021-02-27T13:53:29Z</time>
      </trkpt>
      <trkpt lat="42.98778" lon="0.56379">
        <ele>588.038</ele>
        <time>2021-02-27T13:53:31Z</time>
      </trkpt>
      <trkpt lat="42.98778" lon="0.56379">
        <ele>588.04</ele>
        <time>2021-02-27T13:53:33Z</time>
      </trkpt>
      <trkpt lat="42.98778" lon="0.56379">
        <ele>588.042</ele>
        <time>2021-02-27T13:53:35Z</time>
      </trkpt>
      <trkpt lat="42.98778" lon="0.5638">
        <ele>588.072</ele>
        <time>2021-02-27T13:53:37Z</time>
      </trkpt>
      <trkpt lat="42.98778" lon="0.5638">
        <ele>588.07</ele>
        <time>2021-02-27T13:53:39Z</time>
      </trkpt>
      <trkpt lat="42.98778" lon="0.5638">
        <ele>588.076</ele>
        <time>2021-02-27T13:53:41Z</time>
      </trkpt>
      <trkpt lat="42.98778" lon="0.5638">
        <ele>588.077</ele>
        <time>2021-02-27T13:53:43Z</time>
      </trkpt>
      <trkpt lat="42.98778" lon="0.5638">
        <ele>588.083</ele>
        <time>2021-02-27T13:53:45Z</time>
      </trkpt>
      <trkpt lat="42.98778" lon="0.5638">
        <ele>588.083</ele>
        <time>2021-02-27T13:53:47Z</time>
      </trkpt>
      <trkpt lat="42.98778" lon="0.5638">
        <ele>588.088</ele>
        <time>2021-02-27T13:53:49Z</time>
      </trkpt>
      <trkpt lat="42.98778" lon="0.5638">
        <ele>588.099</ele>
        <time>2021-02-27T13:53:51Z</time>
      </trkpt>
      <trkpt lat="42.98778" lon="0.5638">
        <ele>588.108</ele>
        <time>2021-02-27T13:53:53Z</time>
      </trkpt>
      <trkpt lat="42.98778" lon="0.5638">
        <ele>588.104</ele>
        <time>2021-02-27T13:53:55Z</time>
      </trkpt>
      <trkpt lat="42.98778" lon="0.5638">
        <ele>587.642</ele>
        <time>2021-02-27T13:53:57Z</time>
      </trkpt>
      <trkpt lat="42.98778" lon="0.5638">
        <ele>587.964</ele>
        <time>2021-02-27T13:53:59Z</time>
      </trkpt>
      <trkpt lat="42.98779" lon="0.5638">
        <ele>588.381</ele>
        <time>2021-02-27T13:54:01Z</time>
      </trkpt>
      <trkpt lat="42.98779" lon="0.56381">
        <ele>588.506</ele>
        <time>2021-02-27T13:54:03Z</time>
      </trkpt>
      <trkpt lat="42.98778" lon="0.56381">
        <ele>588.39</ele>
        <time>2021-02-27T13:54:05Z</time>
      </trkpt>
      <trkpt lat="42.98778" lon="0.56381">
        <ele>588.412</ele>
        <time>2021-02-27T13:54:07Z</time>
      </trkpt>
      <trkpt lat="42.98778" lon="0.56381">
        <ele>588.124</ele>
        <time>2021-02-27T13:54:09Z</time>
      </trkpt>
      <trkpt lat="42.98778" lon="0.56381">
        <ele>588.043</ele>
        <time>2021-02-27T13:54:11Z</time>
      </trkpt>
      <trkpt lat="42.98777" lon="0.56381">
        <ele>588.054</ele>
        <time>2021-02-27T13:54:13Z</time>
      </trkpt>
      <trkpt lat="42.98777" lon="0.56382">
        <ele>588.135</ele>
        <time>2021-02-27T13:54:15Z</time>
      </trkpt>
      <trkpt lat="42.98777" lon="0.56382">
        <ele>588.134</ele>
        <time>2021-02-27T13:54:17Z</time>
      </trkpt>
      <trkpt lat="42.98777" lon="0.56382">
        <ele>588.139</ele>
        <time>2021-02-27T13:54:19Z</time>
      </trkpt>
    </trkseg>
  </trk>
</gpx>